<?xml version="1.0" encoding="UTF-8" standalone="no" ?>
<gpx xmlns="http://www.topografix.com/GPX/1/1" creator="http://nakarte.me" xmlns:xsi="http://www.w3.org/2001/XMLSchema-instance" xsi:schemaLocation="http://www.topografix.com/GPX/1/1 http://www.topografix.com/GPX/1/1/gpx.xsd" version="1.1">
	<wpt lat="44.501605" lon="33.599798">
		<name>Балаклава</name>
	</wpt>
	<trk>
		<name>Керчь-Севастополь</name>
		<trkseg>
			<trkpt lat="45.362637" lon="36.470835"><time>1970-01-01T00:00:01.000Z</time></trkpt>
			<trkpt lat="45.360899" lon="36.474612"><time>1970-01-01T00:00:01.000Z</time></trkpt>
			<trkpt lat="45.359590" lon="36.477573"><time>1970-01-01T00:00:01.000Z</time></trkpt>
			<trkpt lat="45.361436" lon="36.479804"><time>1970-01-01T00:00:01.000Z</time></trkpt>
			<trkpt lat="45.362573" lon="36.482143"><time>1970-01-01T00:00:01.000Z</time></trkpt>
			<trkpt lat="45.364440" lon="36.487722"><time>1970-01-01T00:00:01.000Z</time></trkpt>
			<trkpt lat="45.364740" lon="36.490383"><time>1970-01-01T00:00:01.000Z</time></trkpt>
			<trkpt lat="45.365770" lon="36.497142"><time>1970-01-01T00:00:01.000Z</time></trkpt>
			<trkpt lat="45.366564" lon="36.497893"><time>1970-01-01T00:00:01.000Z</time></trkpt>
			<trkpt lat="45.365513" lon="36.501627"><time>1970-01-01T00:00:01.000Z</time></trkpt>
			<trkpt lat="45.365448" lon="36.503837"><time>1970-01-01T00:00:01.000Z</time></trkpt>
			<trkpt lat="45.364912" lon="36.505983"><time>1970-01-01T00:00:01.000Z</time></trkpt>
			<trkpt lat="45.366350" lon="36.506905"><time>1970-01-01T00:00:01.000Z</time></trkpt>
			<trkpt lat="45.366199" lon="36.507549"><time>1970-01-01T00:00:01.000Z</time></trkpt>
			<trkpt lat="45.365234" lon="36.510725"><time>1970-01-01T00:00:01.000Z</time></trkpt>
			<trkpt lat="45.366478" lon="36.511562"><time>1970-01-01T00:00:01.000Z</time></trkpt>
			<trkpt lat="45.369311" lon="36.514287"><time>1970-01-01T00:00:01.000Z</time></trkpt>
			<trkpt lat="45.370770" lon="36.514759"><time>1970-01-01T00:00:01.000Z</time></trkpt>
			<trkpt lat="45.372529" lon="36.515574"><time>1970-01-01T00:00:01.000Z</time></trkpt>
			<trkpt lat="45.373409" lon="36.516390"><time>1970-01-01T00:00:01.000Z</time></trkpt>
			<trkpt lat="45.373280" lon="36.517420"><time>1970-01-01T00:00:01.000Z</time></trkpt>
			<trkpt lat="45.373216" lon="36.518364"><time>1970-01-01T00:00:01.000Z</time></trkpt>
			<trkpt lat="45.372894" lon="36.519801"><time>1970-01-01T00:00:01.000Z</time></trkpt>
			<trkpt lat="45.372229" lon="36.521518"><time>1970-01-01T00:00:01.000Z</time></trkpt>
			<trkpt lat="45.371800" lon="36.524308"><time>1970-01-01T00:00:01.000Z</time></trkpt>
			<trkpt lat="45.372765" lon="36.524522"><time>1970-01-01T00:00:01.000Z</time></trkpt>
			<trkpt lat="45.373924" lon="36.525166"><time>1970-01-01T00:00:01.000Z</time></trkpt>
			<trkpt lat="45.376542" lon="36.524651"><time>1970-01-01T00:00:01.000Z</time></trkpt>
			<trkpt lat="45.375083" lon="36.526925"><time>1970-01-01T00:00:01.000Z</time></trkpt>
			<trkpt lat="45.376692" lon="36.527569"><time>1970-01-01T00:00:01.000Z</time></trkpt>
			<trkpt lat="45.377314" lon="36.529157"><time>1970-01-01T00:00:01.000Z</time></trkpt>
			<trkpt lat="45.377121" lon="36.530487"><time>1970-01-01T00:00:01.000Z</time></trkpt>
			<trkpt lat="45.378130" lon="36.532419"><time>1970-01-01T00:00:01.000Z</time></trkpt>
			<trkpt lat="45.380962" lon="36.532504"><time>1970-01-01T00:00:01.000Z</time></trkpt>
			<trkpt lat="45.383773" lon="36.532290"><time>1970-01-01T00:00:01.000Z</time></trkpt>
			<trkpt lat="45.387893" lon="36.534478"><time>1970-01-01T00:00:01.000Z</time></trkpt>
			<trkpt lat="45.392142" lon="36.535766"><time>1970-01-01T00:00:01.000Z</time></trkpt>
			<trkpt lat="45.393472" lon="36.535573"><time>1970-01-01T00:00:01.000Z</time></trkpt>
			<trkpt lat="45.394287" lon="36.535594"><time>1970-01-01T00:00:01.000Z</time></trkpt>
			<trkpt lat="45.395768" lon="36.535809"><time>1970-01-01T00:00:01.000Z</time></trkpt>
			<trkpt lat="45.398000" lon="36.539542"><time>1970-01-01T00:00:01.000Z</time></trkpt>
			<trkpt lat="45.399587" lon="36.540530"><time>1970-01-01T00:00:01.000Z</time></trkpt>
			<trkpt lat="45.402184" lon="36.541903"><time>1970-01-01T00:00:01.000Z</time></trkpt>
			<trkpt lat="45.403664" lon="36.543770"><time>1970-01-01T00:00:01.000Z</time></trkpt>
			<trkpt lat="45.405574" lon="36.542418"><time>1970-01-01T00:00:01.000Z</time></trkpt>
			<trkpt lat="45.407462" lon="36.538470"><time>1970-01-01T00:00:01.000Z</time></trkpt>
			<trkpt lat="45.409286" lon="36.536324"><time>1970-01-01T00:00:01.000Z</time></trkpt>
			<trkpt lat="45.409887" lon="36.532268"><time>1970-01-01T00:00:01.000Z</time></trkpt>
			<trkpt lat="45.412205" lon="36.528384"><time>1970-01-01T00:00:01.000Z</time></trkpt>
			<trkpt lat="45.415767" lon="36.523278"><time>1970-01-01T00:00:01.000Z</time></trkpt>
			<trkpt lat="45.415702" lon="36.521110"><time>1970-01-01T00:00:01.000Z</time></trkpt>
			<trkpt lat="45.414651" lon="36.516647"><time>1970-01-01T00:00:01.000Z</time></trkpt>
			<trkpt lat="45.413599" lon="36.516025"><time>1970-01-01T00:00:01.000Z</time></trkpt>
			<trkpt lat="45.412290" lon="36.504094"><time>1970-01-01T00:00:01.000Z</time></trkpt>
			<trkpt lat="45.411432" lon="36.502185"><time>1970-01-01T00:00:01.000Z</time></trkpt>
			<trkpt lat="45.410745" lon="36.499116"><time>1970-01-01T00:00:01.000Z</time></trkpt>
			<trkpt lat="45.409608" lon="36.495597"><time>1970-01-01T00:00:01.000Z</time></trkpt>
			<trkpt lat="45.409029" lon="36.488731"><time>1970-01-01T00:00:01.000Z</time></trkpt>
			<trkpt lat="45.409394" lon="36.487615"><time>1970-01-01T00:00:01.000Z</time></trkpt>
			<trkpt lat="45.409544" lon="36.485834"><time>1970-01-01T00:00:01.000Z</time></trkpt>
			<trkpt lat="45.408750" lon="36.484890"><time>1970-01-01T00:00:01.000Z</time></trkpt>
			<trkpt lat="45.410080" lon="36.483238"><time>1970-01-01T00:00:01.000Z</time></trkpt>
			<trkpt lat="45.410209" lon="36.482122"><time>1970-01-01T00:00:01.000Z</time></trkpt>
			<trkpt lat="45.415809" lon="36.476307"><time>1970-01-01T00:00:01.000Z</time></trkpt>
			<trkpt lat="45.420831" lon="36.474139"><time>1970-01-01T00:00:01.000Z</time></trkpt>
			<trkpt lat="45.422139" lon="36.475534"><time>1970-01-01T00:00:01.000Z</time></trkpt>
			<trkpt lat="45.422569" lon="36.477659"><time>1970-01-01T00:00:01.000Z</time></trkpt>
			<trkpt lat="45.425272" lon="36.479418"><time>1970-01-01T00:00:01.000Z</time></trkpt>
			<trkpt lat="45.427182" lon="36.477186"><time>1970-01-01T00:00:01.000Z</time></trkpt>
			<trkpt lat="45.425852" lon="36.475127"><time>1970-01-01T00:00:01.000Z</time></trkpt>
			<trkpt lat="45.426216" lon="36.472037"><time>1970-01-01T00:00:01.000Z</time></trkpt>
			<trkpt lat="45.428555" lon="36.469998"><time>1970-01-01T00:00:01.000Z</time></trkpt>
			<trkpt lat="45.438984" lon="36.472573"><time>1970-01-01T00:00:01.000Z</time></trkpt>
			<trkpt lat="45.441087" lon="36.472316"><time>1970-01-01T00:00:01.000Z</time></trkpt>
			<trkpt lat="45.442224" lon="36.472831"><time>1970-01-01T00:00:01.000Z</time></trkpt>
			<trkpt lat="45.445807" lon="36.468282"><time>1970-01-01T00:00:01.000Z</time></trkpt>
			<trkpt lat="45.446065" lon="36.466737"><time>1970-01-01T00:00:01.000Z</time></trkpt>
			<trkpt lat="45.447996" lon="36.465428"><time>1970-01-01T00:00:01.000Z</time></trkpt>
			<trkpt lat="45.448854" lon="36.463904"><time>1970-01-01T00:00:01.000Z</time></trkpt>
			<trkpt lat="45.451386" lon="36.463175"><time>1970-01-01T00:00:01.000Z</time></trkpt>
			<trkpt lat="45.452652" lon="36.463797"><time>1970-01-01T00:00:01.000Z</time></trkpt>
			<trkpt lat="45.454369" lon="36.461415"><time>1970-01-01T00:00:01.000Z</time></trkpt>
			<trkpt lat="45.455914" lon="36.451866"><time>1970-01-01T00:00:01.000Z</time></trkpt>
			<trkpt lat="45.455463" lon="36.450364"><time>1970-01-01T00:00:01.000Z</time></trkpt>
			<trkpt lat="45.453725" lon="36.448905"><time>1970-01-01T00:00:01.000Z</time></trkpt>
			<trkpt lat="45.454519" lon="36.446438"><time>1970-01-01T00:00:01.000Z</time></trkpt>
			<trkpt lat="45.451880" lon="36.445386"><time>1970-01-01T00:00:01.000Z</time></trkpt>
			<trkpt lat="45.450979" lon="36.444013"><time>1970-01-01T00:00:01.000Z</time></trkpt>
			<trkpt lat="45.449927" lon="36.441331"><time>1970-01-01T00:00:01.000Z</time></trkpt>
			<trkpt lat="45.450013" lon="36.439893"><time>1970-01-01T00:00:01.000Z</time></trkpt>
			<trkpt lat="45.448940" lon="36.436288"><time>1970-01-01T00:00:01.000Z</time></trkpt>
			<trkpt lat="45.447245" lon="36.435623"><time>1970-01-01T00:00:01.000Z</time></trkpt>
			<trkpt lat="45.445850" lon="36.432276"><time>1970-01-01T00:00:01.000Z</time></trkpt>
			<trkpt lat="45.445292" lon="36.429958"><time>1970-01-01T00:00:01.000Z</time></trkpt>
			<trkpt lat="45.444820" lon="36.427812"><time>1970-01-01T00:00:01.000Z</time></trkpt>
			<trkpt lat="45.444498" lon="36.425195"><time>1970-01-01T00:00:01.000Z</time></trkpt>
			<trkpt lat="45.444455" lon="36.424444"><time>1970-01-01T00:00:01.000Z</time></trkpt>
			<trkpt lat="45.444756" lon="36.421633"><time>1970-01-01T00:00:01.000Z</time></trkpt>
			<trkpt lat="45.444734" lon="36.419294"><time>1970-01-01T00:00:01.000Z</time></trkpt>
			<trkpt lat="45.445099" lon="36.417985"><time>1970-01-01T00:00:01.000Z</time></trkpt>
			<trkpt lat="45.445528" lon="36.414895"><time>1970-01-01T00:00:01.000Z</time></trkpt>
			<trkpt lat="45.446472" lon="36.410603"><time>1970-01-01T00:00:01.000Z</time></trkpt>
			<trkpt lat="45.447481" lon="36.407084"><time>1970-01-01T00:00:01.000Z</time></trkpt>
			<trkpt lat="45.448103" lon="36.405325"><time>1970-01-01T00:00:01.000Z</time></trkpt>
			<trkpt lat="45.447996" lon="36.405003"><time>1970-01-01T00:00:01.000Z</time></trkpt>
			<trkpt lat="45.448232" lon="36.403780"><time>1970-01-01T00:00:01.000Z</time></trkpt>
			<trkpt lat="45.448189" lon="36.403200"><time>1970-01-01T00:00:01.000Z</time></trkpt>
			<trkpt lat="45.448575" lon="36.402085"><time>1970-01-01T00:00:01.000Z</time></trkpt>
			<trkpt lat="45.448661" lon="36.400583"><time>1970-01-01T00:00:01.000Z</time></trkpt>
			<trkpt lat="45.448318" lon="36.397922"><time>1970-01-01T00:00:01.000Z</time></trkpt>
			<trkpt lat="45.446751" lon="36.392514"><time>1970-01-01T00:00:01.000Z</time></trkpt>
			<trkpt lat="45.447738" lon="36.389446"><time>1970-01-01T00:00:01.000Z</time></trkpt>
			<trkpt lat="45.447588" lon="36.386378"><time>1970-01-01T00:00:01.000Z</time></trkpt>
			<trkpt lat="45.447846" lon="36.386056"><time>1970-01-01T00:00:01.000Z</time></trkpt>
			<trkpt lat="45.448854" lon="36.382408"><time>1970-01-01T00:00:01.000Z</time></trkpt>
			<trkpt lat="45.449047" lon="36.380756"><time>1970-01-01T00:00:01.000Z</time></trkpt>
			<trkpt lat="45.449820" lon="36.378717"><time>1970-01-01T00:00:01.000Z</time></trkpt>
			<trkpt lat="45.450528" lon="36.374984"><time>1970-01-01T00:00:01.000Z</time></trkpt>
			<trkpt lat="45.450936" lon="36.374275"><time>1970-01-01T00:00:01.000Z</time></trkpt>
			<trkpt lat="45.452438" lon="36.367581"><time>1970-01-01T00:00:01.000Z</time></trkpt>
			<trkpt lat="45.452352" lon="36.366229"><time>1970-01-01T00:00:01.000Z</time></trkpt>
			<trkpt lat="45.453189" lon="36.360757"><time>1970-01-01T00:00:01.000Z</time></trkpt>
			<trkpt lat="45.453253" lon="36.355736"><time>1970-01-01T00:00:01.000Z</time></trkpt>
			<trkpt lat="45.453618" lon="36.352925"><time>1970-01-01T00:00:01.000Z</time></trkpt>
			<trkpt lat="45.452931" lon="36.347196"><time>1970-01-01T00:00:01.000Z</time></trkpt>
			<trkpt lat="45.450635" lon="36.345136"><time>1970-01-01T00:00:01.000Z</time></trkpt>
			<trkpt lat="45.450378" lon="36.345093"><time>1970-01-01T00:00:01.000Z</time></trkpt>
			<trkpt lat="45.450099" lon="36.345501"><time>1970-01-01T00:00:01.000Z</time></trkpt>
			<trkpt lat="45.449906" lon="36.346552"><time>1970-01-01T00:00:01.000Z</time></trkpt>
			<trkpt lat="45.449777" lon="36.346788"><time>1970-01-01T00:00:01.000Z</time></trkpt>
			<trkpt lat="45.448275" lon="36.347132"><time>1970-01-01T00:00:01.000Z</time></trkpt>
			<trkpt lat="45.447824" lon="36.347024"><time>1970-01-01T00:00:01.000Z</time></trkpt>
			<trkpt lat="45.447138" lon="36.346359"><time>1970-01-01T00:00:01.000Z</time></trkpt>
			<trkpt lat="45.446451" lon="36.345973"><time>1970-01-01T00:00:01.000Z</time></trkpt>
			<trkpt lat="45.445807" lon="36.345479"><time>1970-01-01T00:00:01.000Z</time></trkpt>
			<trkpt lat="45.445700" lon="36.345157"><time>1970-01-01T00:00:01.000Z</time></trkpt>
			<trkpt lat="45.444928" lon="36.344878"><time>1970-01-01T00:00:01.000Z</time></trkpt>
			<trkpt lat="45.444584" lon="36.344514"><time>1970-01-01T00:00:01.000Z</time></trkpt>
			<trkpt lat="45.444391" lon="36.344149"><time>1970-01-01T00:00:01.000Z</time></trkpt>
			<trkpt lat="45.444413" lon="36.343655"><time>1970-01-01T00:00:01.000Z</time></trkpt>
			<trkpt lat="45.444327" lon="36.343312"><time>1970-01-01T00:00:01.000Z</time></trkpt>
			<trkpt lat="45.444520" lon="36.342175"><time>1970-01-01T00:00:01.000Z</time></trkpt>
			<trkpt lat="45.445571" lon="36.338613"><time>1970-01-01T00:00:01.000Z</time></trkpt>
			<trkpt lat="45.446387" lon="36.334343"><time>1970-01-01T00:00:01.000Z</time></trkpt>
			<trkpt lat="45.446344" lon="36.329021"><time>1970-01-01T00:00:01.000Z</time></trkpt>
			<trkpt lat="45.446472" lon="36.327305"><time>1970-01-01T00:00:01.000Z</time></trkpt>
			<trkpt lat="45.446387" lon="36.325931"><time>1970-01-01T00:00:01.000Z</time></trkpt>
			<trkpt lat="45.446515" lon="36.324687"><time>1970-01-01T00:00:01.000Z</time></trkpt>
			<trkpt lat="45.446301" lon="36.321468"><time>1970-01-01T00:00:01.000Z</time></trkpt>
			<trkpt lat="45.444112" lon="36.317756"><time>1970-01-01T00:00:01.000Z</time></trkpt>
			<trkpt lat="45.443340" lon="36.316747"><time>1970-01-01T00:00:01.000Z</time></trkpt>
			<trkpt lat="45.441323" lon="36.314494"><time>1970-01-01T00:00:01.000Z</time></trkpt>
			<trkpt lat="45.440851" lon="36.314044"><time>1970-01-01T00:00:01.000Z</time></trkpt>
			<trkpt lat="45.440936" lon="36.313422"><time>1970-01-01T00:00:01.000Z</time></trkpt>
			<trkpt lat="45.441280" lon="36.312499"><time>1970-01-01T00:00:01.000Z</time></trkpt>
			<trkpt lat="45.441988" lon="36.311683"><time>1970-01-01T00:00:01.000Z</time></trkpt>
			<trkpt lat="45.443383" lon="36.311447"><time>1970-01-01T00:00:01.000Z</time></trkpt>
			<trkpt lat="45.447374" lon="36.314022"><time>1970-01-01T00:00:01.000Z</time></trkpt>
			<trkpt lat="45.449777" lon="36.318464"><time>1970-01-01T00:00:01.000Z</time></trkpt>
			<trkpt lat="45.451622" lon="36.319966"><time>1970-01-01T00:00:01.000Z</time></trkpt>
			<trkpt lat="45.452867" lon="36.323249"><time>1970-01-01T00:00:01.000Z</time></trkpt>
			<trkpt lat="45.453275" lon="36.323764"><time>1970-01-01T00:00:01.000Z</time></trkpt>
			<trkpt lat="45.454176" lon="36.323700"><time>1970-01-01T00:00:01.000Z</time></trkpt>
			<trkpt lat="45.454948" lon="36.323099"><time>1970-01-01T00:00:01.000Z</time></trkpt>
			<trkpt lat="45.455249" lon="36.322412"><time>1970-01-01T00:00:01.000Z</time></trkpt>
			<trkpt lat="45.455635" lon="36.321983"><time>1970-01-01T00:00:01.000Z</time></trkpt>
			<trkpt lat="45.455849" lon="36.321318"><time>1970-01-01T00:00:01.000Z</time></trkpt>
			<trkpt lat="45.455935" lon="36.320653"><time>1970-01-01T00:00:01.000Z</time></trkpt>
			<trkpt lat="45.455828" lon="36.320159"><time>1970-01-01T00:00:01.000Z</time></trkpt>
			<trkpt lat="45.456450" lon="36.317692"><time>1970-01-01T00:00:01.000Z</time></trkpt>
			<trkpt lat="45.456901" lon="36.316640"><time>1970-01-01T00:00:01.000Z</time></trkpt>
			<trkpt lat="45.457352" lon="36.315975"><time>1970-01-01T00:00:01.000Z</time></trkpt>
			<trkpt lat="45.457609" lon="36.315374"><time>1970-01-01T00:00:01.000Z</time></trkpt>
			<trkpt lat="45.458188" lon="36.314666"><time>1970-01-01T00:00:01.000Z</time></trkpt>
			<trkpt lat="45.458982" lon="36.314387"><time>1970-01-01T00:00:01.000Z</time></trkpt>
			<trkpt lat="45.460162" lon="36.314323"><time>1970-01-01T00:00:01.000Z</time></trkpt>
			<trkpt lat="45.461064" lon="36.313529"><time>1970-01-01T00:00:01.000Z</time></trkpt>
			<trkpt lat="45.461750" lon="36.312842"><time>1970-01-01T00:00:01.000Z</time></trkpt>
			<trkpt lat="45.462931" lon="36.311297"><time>1970-01-01T00:00:01.000Z</time></trkpt>
			<trkpt lat="45.464003" lon="36.309473"><time>1970-01-01T00:00:01.000Z</time></trkpt>
			<trkpt lat="45.464218" lon="36.309366"><time>1970-01-01T00:00:01.000Z</time></trkpt>
			<trkpt lat="45.465741" lon="36.311555"><time>1970-01-01T00:00:01.000Z</time></trkpt>
			<trkpt lat="45.466364" lon="36.313700"><time>1970-01-01T00:00:01.000Z</time></trkpt>
			<trkpt lat="45.466793" lon="36.314752"><time>1970-01-01T00:00:01.000Z</time></trkpt>
			<trkpt lat="45.467437" lon="36.315202"><time>1970-01-01T00:00:01.000Z</time></trkpt>
			<trkpt lat="45.469003" lon="36.315288"><time>1970-01-01T00:00:01.000Z</time></trkpt>
			<trkpt lat="45.470269" lon="36.314537"><time>1970-01-01T00:00:01.000Z</time></trkpt>
			<trkpt lat="45.471857" lon="36.312156"><time>1970-01-01T00:00:01.000Z</time></trkpt>
			<trkpt lat="45.475312" lon="36.303315"><time>1970-01-01T00:00:01.000Z</time></trkpt>
			<trkpt lat="45.474925" lon="36.300118"><time>1970-01-01T00:00:01.000Z</time></trkpt>
			<trkpt lat="45.474410" lon="36.298573"><time>1970-01-01T00:00:01.000Z</time></trkpt>
			<trkpt lat="45.471170" lon="36.297414"><time>1970-01-01T00:00:01.000Z</time></trkpt>
			<trkpt lat="45.469346" lon="36.283617"><time>1970-01-01T00:00:01.000Z</time></trkpt>
			<trkpt lat="45.464926" lon="36.277759"><time>1970-01-01T00:00:01.000Z</time></trkpt>
			<trkpt lat="45.462115" lon="36.272373"><time>1970-01-01T00:00:01.000Z</time></trkpt>
			<trkpt lat="45.462008" lon="36.269841"><time>1970-01-01T00:00:01.000Z</time></trkpt>
			<trkpt lat="45.463338" lon="36.268060"><time>1970-01-01T00:00:01.000Z</time></trkpt>
			<trkpt lat="45.465420" lon="36.267009"><time>1970-01-01T00:00:01.000Z</time></trkpt>
			<trkpt lat="45.467394" lon="36.264627"><time>1970-01-01T00:00:01.000Z</time></trkpt>
			<trkpt lat="45.467823" lon="36.263189"><time>1970-01-01T00:00:01.000Z</time></trkpt>
			<trkpt lat="45.472136" lon="36.258061"><time>1970-01-01T00:00:01.000Z</time></trkpt>
			<trkpt lat="45.473252" lon="36.255357"><time>1970-01-01T00:00:01.000Z</time></trkpt>
			<trkpt lat="45.473531" lon="36.253190"><time>1970-01-01T00:00:01.000Z</time></trkpt>
			<trkpt lat="45.473016" lon="36.249220"><time>1970-01-01T00:00:01.000Z</time></trkpt>
			<trkpt lat="45.472887" lon="36.247031"><time>1970-01-01T00:00:01.000Z</time></trkpt>
			<trkpt lat="45.472393" lon="36.243791"><time>1970-01-01T00:00:01.000Z</time></trkpt>
			<trkpt lat="45.472029" lon="36.239993"><time>1970-01-01T00:00:01.000Z</time></trkpt>
			<trkpt lat="45.471707" lon="36.234243"><time>1970-01-01T00:00:01.000Z</time></trkpt>
			<trkpt lat="45.472801" lon="36.231861"><time>1970-01-01T00:00:01.000Z</time></trkpt>
			<trkpt lat="45.473037" lon="36.225617"><time>1970-01-01T00:00:01.000Z</time></trkpt>
			<trkpt lat="45.470591" lon="36.223771"><time>1970-01-01T00:00:01.000Z</time></trkpt>
			<trkpt lat="45.469003" lon="36.220338"><time>1970-01-01T00:00:01.000Z</time></trkpt>
			<trkpt lat="45.467565" lon="36.219523"><time>1970-01-01T00:00:01.000Z</time></trkpt>
			<trkpt lat="45.468080" lon="36.214673"><time>1970-01-01T00:00:01.000Z</time></trkpt>
			<trkpt lat="45.466256" lon="36.209094"><time>1970-01-01T00:00:01.000Z</time></trkpt>
			<trkpt lat="45.468145" lon="36.203515"><time>1970-01-01T00:00:01.000Z</time></trkpt>
			<trkpt lat="45.467651" lon="36.186392"><time>1970-01-01T00:00:01.000Z</time></trkpt>
			<trkpt lat="45.463746" lon="36.165020"><time>1970-01-01T00:00:01.000Z</time></trkpt>
			<trkpt lat="45.461922" lon="36.145386"><time>1970-01-01T00:00:01.000Z</time></trkpt>
			<trkpt lat="45.458081" lon="36.131568"><time>1970-01-01T00:00:01.000Z</time></trkpt>
			<trkpt lat="45.444155" lon="36.130860"><time>1970-01-01T00:00:01.000Z</time></trkpt>
			<trkpt lat="45.440507" lon="36.128027"><time>1970-01-01T00:00:01.000Z</time></trkpt>
			<trkpt lat="45.439864" lon="36.124422"><time>1970-01-01T00:00:01.000Z</time></trkpt>
			<trkpt lat="45.437739" lon="36.123822"><time>1970-01-01T00:00:01.000Z</time></trkpt>
			<trkpt lat="45.432074" lon="36.130001"><time>1970-01-01T00:00:01.000Z</time></trkpt>
			<trkpt lat="45.429757" lon="36.129701"><time>1970-01-01T00:00:01.000Z</time></trkpt>
			<trkpt lat="45.428255" lon="36.131375"><time>1970-01-01T00:00:01.000Z</time></trkpt>
			<trkpt lat="45.427547" lon="36.138391"><time>1970-01-01T00:00:01.000Z</time></trkpt>
			<trkpt lat="45.419050" lon="36.141567"><time>1970-01-01T00:00:01.000Z</time></trkpt>
			<trkpt lat="45.398085" lon="36.143434"><time>1970-01-01T00:00:01.000Z</time></trkpt>
			<trkpt lat="45.398000" lon="36.146738"><time>1970-01-01T00:00:01.000Z</time></trkpt>
			<trkpt lat="45.396669" lon="36.148069"><time>1970-01-01T00:00:01.000Z</time></trkpt>
			<trkpt lat="45.396219" lon="36.147725"><time>1970-01-01T00:00:01.000Z</time></trkpt>
			<trkpt lat="45.395446" lon="36.148047"><time>1970-01-01T00:00:01.000Z</time></trkpt>
			<trkpt lat="45.395146" lon="36.149013"><time>1970-01-01T00:00:01.000Z</time></trkpt>
			<trkpt lat="45.394137" lon="36.154184"><time>1970-01-01T00:00:01.000Z</time></trkpt>
			<trkpt lat="45.394287" lon="36.155901"><time>1970-01-01T00:00:01.000Z</time></trkpt>
			<trkpt lat="45.393622" lon="36.162789"><time>1970-01-01T00:00:01.000Z</time></trkpt>
			<trkpt lat="45.387464" lon="36.163454"><time>1970-01-01T00:00:01.000Z</time></trkpt>
			<trkpt lat="45.376048" lon="36.163261"><time>1970-01-01T00:00:01.000Z</time></trkpt>
			<trkpt lat="45.368989" lon="36.161694"><time>1970-01-01T00:00:01.000Z</time></trkpt>
			<trkpt lat="45.367787" lon="36.162209"><time>1970-01-01T00:00:01.000Z</time></trkpt>
			<trkpt lat="45.367058" lon="36.162145"><time>1970-01-01T00:00:01.000Z</time></trkpt>
			<trkpt lat="45.366178" lon="36.161244"><time>1970-01-01T00:00:01.000Z</time></trkpt>
			<trkpt lat="45.365212" lon="36.160578"><time>1970-01-01T00:00:01.000Z</time></trkpt>
			<trkpt lat="45.364418" lon="36.159398"><time>1970-01-01T00:00:01.000Z</time></trkpt>
			<trkpt lat="45.363388" lon="36.158497"><time>1970-01-01T00:00:01.000Z</time></trkpt>
			<trkpt lat="45.361908" lon="36.156544"><time>1970-01-01T00:00:01.000Z</time></trkpt>
			<trkpt lat="45.361607" lon="36.156566"><time>1970-01-01T00:00:01.000Z</time></trkpt>
			<trkpt lat="45.360685" lon="36.155514"><time>1970-01-01T00:00:01.000Z</time></trkpt>
			<trkpt lat="45.359719" lon="36.152317"><time>1970-01-01T00:00:01.000Z</time></trkpt>
			<trkpt lat="45.359140" lon="36.151094"><time>1970-01-01T00:00:01.000Z</time></trkpt>
			<trkpt lat="45.357530" lon="36.148197"><time>1970-01-01T00:00:01.000Z</time></trkpt>
			<trkpt lat="45.355707" lon="36.145708"><time>1970-01-01T00:00:01.000Z</time></trkpt>
			<trkpt lat="45.340515" lon="36.145859"><time>1970-01-01T00:00:01.000Z</time></trkpt>
			<trkpt lat="45.336352" lon="36.138863"><time>1970-01-01T00:00:01.000Z</time></trkpt>
			<trkpt lat="45.334764" lon="36.138134"><time>1970-01-01T00:00:01.000Z</time></trkpt>
			<trkpt lat="45.334807" lon="36.137233"><time>1970-01-01T00:00:01.000Z</time></trkpt>
			<trkpt lat="45.320452" lon="36.133885"><time>1970-01-01T00:00:01.000Z</time></trkpt>
			<trkpt lat="45.315173" lon="36.133992"><time>1970-01-01T00:00:01.000Z</time></trkpt>
			<trkpt lat="45.314057" lon="36.123907"><time>1970-01-01T00:00:01.000Z</time></trkpt>
			<trkpt lat="45.309401" lon="36.114058"><time>1970-01-01T00:00:01.000Z</time></trkpt>
			<trkpt lat="45.305045" lon="36.114080"><time>1970-01-01T00:00:01.000Z</time></trkpt>
			<trkpt lat="45.300196" lon="36.116590"><time>1970-01-01T00:00:01.000Z</time></trkpt>
			<trkpt lat="45.296676" lon="36.114402"><time>1970-01-01T00:00:01.000Z</time></trkpt>
			<trkpt lat="45.278094" lon="36.128800"><time>1970-01-01T00:00:01.000Z</time></trkpt>
			<trkpt lat="45.262838" lon="36.140816"><time>1970-01-01T00:00:01.000Z</time></trkpt>
			<trkpt lat="45.261121" lon="36.141588"><time>1970-01-01T00:00:01.000Z</time></trkpt>
			<trkpt lat="45.256036" lon="36.155150"><time>1970-01-01T00:00:01.000Z</time></trkpt>
			<trkpt lat="45.250607" lon="36.162188"><time>1970-01-01T00:00:01.000Z</time></trkpt>
			<trkpt lat="45.240565" lon="36.165278"><time>1970-01-01T00:00:01.000Z</time></trkpt>
			<trkpt lat="45.235372" lon="36.164763"><time>1970-01-01T00:00:01.000Z</time></trkpt>
			<trkpt lat="45.229450" lon="36.157725"><time>1970-01-01T00:00:01.000Z</time></trkpt>
			<trkpt lat="45.225694" lon="36.150858"><time>1970-01-01T00:00:01.000Z</time></trkpt>
			<trkpt lat="45.225330" lon="36.145193"><time>1970-01-01T00:00:01.000Z</time></trkpt>
			<trkpt lat="45.220588" lon="36.141202"><time>1970-01-01T00:00:01.000Z</time></trkpt>
			<trkpt lat="45.220352" lon="36.141202"><time>1970-01-01T00:00:01.000Z</time></trkpt>
			<trkpt lat="45.217605" lon="36.114251"><time>1970-01-01T00:00:01.000Z</time></trkpt>
			<trkpt lat="45.217712" lon="36.113736"><time>1970-01-01T00:00:01.000Z</time></trkpt>
			<trkpt lat="45.212605" lon="36.103608"><time>1970-01-01T00:00:01.000Z</time></trkpt>
			<trkpt lat="45.207305" lon="36.089167"><time>1970-01-01T00:00:01.000Z</time></trkpt>
			<trkpt lat="45.203057" lon="36.084189"><time>1970-01-01T00:00:01.000Z</time></trkpt>
			<trkpt lat="45.200417" lon="36.076529"><time>1970-01-01T00:00:01.000Z</time></trkpt>
			<trkpt lat="45.198679" lon="36.068117"><time>1970-01-01T00:00:01.000Z</time></trkpt>
			<trkpt lat="45.201276" lon="36.055307"><time>1970-01-01T00:00:01.000Z</time></trkpt>
			<trkpt lat="45.202713" lon="36.050522"><time>1970-01-01T00:00:01.000Z</time></trkpt>
			<trkpt lat="45.202692" lon="36.049170"><time>1970-01-01T00:00:01.000Z</time></trkpt>
			<trkpt lat="45.201555" lon="36.047776"><time>1970-01-01T00:00:01.000Z</time></trkpt>
			<trkpt lat="45.188101" lon="36.045608"><time>1970-01-01T00:00:01.000Z</time></trkpt>
			<trkpt lat="45.179582" lon="36.044514"><time>1970-01-01T00:00:01.000Z</time></trkpt>
			<trkpt lat="45.178402" lon="36.044664"><time>1970-01-01T00:00:01.000Z</time></trkpt>
			<trkpt lat="45.176771" lon="36.045480"><time>1970-01-01T00:00:01.000Z</time></trkpt>
			<trkpt lat="45.176256" lon="36.044643"><time>1970-01-01T00:00:01.000Z</time></trkpt>
			<trkpt lat="45.172308" lon="36.030137"><time>1970-01-01T00:00:01.000Z</time></trkpt>
			<trkpt lat="45.170570" lon="36.030223"><time>1970-01-01T00:00:01.000Z</time></trkpt>
			<trkpt lat="45.171020" lon="36.020653"><time>1970-01-01T00:00:01.000Z</time></trkpt>
			<trkpt lat="45.164068" lon="36.021576"><time>1970-01-01T00:00:01.000Z</time></trkpt>
			<trkpt lat="45.164562" lon="36.010375"><time>1970-01-01T00:00:01.000Z</time></trkpt>
			<trkpt lat="45.156515" lon="36.011126"><time>1970-01-01T00:00:01.000Z</time></trkpt>
			<trkpt lat="45.156622" lon="36.007027"><time>1970-01-01T00:00:01.000Z</time></trkpt>
			<trkpt lat="45.156107" lon="36.006405"><time>1970-01-01T00:00:01.000Z</time></trkpt>
			<trkpt lat="45.147417" lon="36.004281"><time>1970-01-01T00:00:01.000Z</time></trkpt>
			<trkpt lat="45.146709" lon="36.004624"><time>1970-01-01T00:00:01.000Z</time></trkpt>
			<trkpt lat="45.145657" lon="36.003830"><time>1970-01-01T00:00:01.000Z</time></trkpt>
			<trkpt lat="45.144627" lon="36.003916"><time>1970-01-01T00:00:01.000Z</time></trkpt>
			<trkpt lat="45.141087" lon="36.003015"><time>1970-01-01T00:00:01.000Z</time></trkpt>
			<trkpt lat="45.139628" lon="35.970657"><time>1970-01-01T00:00:01.000Z</time></trkpt>
			<trkpt lat="45.138190" lon="35.956216"><time>1970-01-01T00:00:01.000Z</time></trkpt>
			<trkpt lat="45.139306" lon="35.953040"><time>1970-01-01T00:00:01.000Z</time></trkpt>
			<trkpt lat="45.139177" lon="35.947439"><time>1970-01-01T00:00:01.000Z</time></trkpt>
			<trkpt lat="45.143082" lon="35.946431"><time>1970-01-01T00:00:01.000Z</time></trkpt>
			<trkpt lat="45.145185" lon="35.943491"><time>1970-01-01T00:00:01.000Z</time></trkpt>
			<trkpt lat="45.146623" lon="35.934071"><time>1970-01-01T00:00:01.000Z</time></trkpt>
			<trkpt lat="45.150593" lon="35.930273"><time>1970-01-01T00:00:01.000Z</time></trkpt>
			<trkpt lat="45.150378" lon="35.927076"><time>1970-01-01T00:00:01.000Z</time></trkpt>
			<trkpt lat="45.149112" lon="35.926282"><time>1970-01-01T00:00:01.000Z</time></trkpt>
			<trkpt lat="45.147567" lon="35.925810"><time>1970-01-01T00:00:01.000Z</time></trkpt>
			<trkpt lat="45.137139" lon="35.923965"><time>1970-01-01T00:00:01.000Z</time></trkpt>
			<trkpt lat="45.129350" lon="35.912013"><time>1970-01-01T00:00:01.000Z</time></trkpt>
			<trkpt lat="45.121196" lon="35.913043"><time>1970-01-01T00:00:01.000Z</time></trkpt>
			<trkpt lat="45.119865" lon="35.911991"><time>1970-01-01T00:00:01.000Z</time></trkpt>
			<trkpt lat="45.119736" lon="35.909095"><time>1970-01-01T00:00:01.000Z</time></trkpt>
			<trkpt lat="45.119822" lon="35.905618"><time>1970-01-01T00:00:01.000Z</time></trkpt>
			<trkpt lat="45.118878" lon="35.902207"><time>1970-01-01T00:00:01.000Z</time></trkpt>
			<trkpt lat="45.116453" lon="35.899803"><time>1970-01-01T00:00:01.000Z</time></trkpt>
			<trkpt lat="45.116175" lon="35.897979"><time>1970-01-01T00:00:01.000Z</time></trkpt>
			<trkpt lat="45.113964" lon="35.893237"><time>1970-01-01T00:00:01.000Z</time></trkpt>
			<trkpt lat="45.111947" lon="35.889568"><time>1970-01-01T00:00:01.000Z</time></trkpt>
			<trkpt lat="45.112505" lon="35.882938"><time>1970-01-01T00:00:01.000Z</time></trkpt>
			<trkpt lat="45.122290" lon="35.881393"><time>1970-01-01T00:00:01.000Z</time></trkpt>
			<trkpt lat="45.129350" lon="35.867917"><time>1970-01-01T00:00:01.000Z</time></trkpt>
			<trkpt lat="45.133770" lon="35.862124"><time>1970-01-01T00:00:01.000Z</time></trkpt>
			<trkpt lat="45.135293" lon="35.858497"><time>1970-01-01T00:00:01.000Z</time></trkpt>
			<trkpt lat="45.136109" lon="35.853863"><time>1970-01-01T00:00:01.000Z</time></trkpt>
			<trkpt lat="45.138383" lon="35.853884"><time>1970-01-01T00:00:01.000Z</time></trkpt>
			<trkpt lat="45.138619" lon="35.851803"><time>1970-01-01T00:00:01.000Z</time></trkpt>
			<trkpt lat="45.140443" lon="35.850472"><time>1970-01-01T00:00:01.000Z</time></trkpt>
			<trkpt lat="45.142117" lon="35.843005"><time>1970-01-01T00:00:01.000Z</time></trkpt>
			<trkpt lat="45.144112" lon="35.835945"><time>1970-01-01T00:00:01.000Z</time></trkpt>
			<trkpt lat="45.148576" lon="35.829723"><time>1970-01-01T00:00:01.000Z</time></trkpt>
			<trkpt lat="45.150078" lon="35.810368"><time>1970-01-01T00:00:01.000Z</time></trkpt>
			<trkpt lat="45.149820" lon="35.808244"><time>1970-01-01T00:00:01.000Z</time></trkpt>
			<trkpt lat="45.151816" lon="35.802428"><time>1970-01-01T00:00:01.000Z</time></trkpt>
			<trkpt lat="45.154605" lon="35.798373"><time>1970-01-01T00:00:01.000Z</time></trkpt>
			<trkpt lat="45.155227" lon="35.795541"><time>1970-01-01T00:00:01.000Z</time></trkpt>
			<trkpt lat="45.157717" lon="35.795734"><time>1970-01-01T00:00:01.000Z</time></trkpt>
			<trkpt lat="45.159262" lon="35.768397"><time>1970-01-01T00:00:01.000Z</time></trkpt>
			<trkpt lat="45.148683" lon="35.753934"><time>1970-01-01T00:00:01.000Z</time></trkpt>
			<trkpt lat="45.147910" lon="35.747154"><time>1970-01-01T00:00:01.000Z</time></trkpt>
			<trkpt lat="45.146516" lon="35.744321"><time>1970-01-01T00:00:01.000Z</time></trkpt>
			<trkpt lat="45.141387" lon="35.743484"><time>1970-01-01T00:00:01.000Z</time></trkpt>
			<trkpt lat="45.140658" lon="35.736382"><time>1970-01-01T00:00:01.000Z</time></trkpt>
			<trkpt lat="45.134821" lon="35.735609"><time>1970-01-01T00:00:01.000Z</time></trkpt>
			<trkpt lat="45.127547" lon="35.727327"><time>1970-01-01T00:00:01.000Z</time></trkpt>
			<trkpt lat="45.127483" lon="35.726318"><time>1970-01-01T00:00:01.000Z</time></trkpt>
			<trkpt lat="45.126946" lon="35.725739"><time>1970-01-01T00:00:01.000Z</time></trkpt>
			<trkpt lat="45.126839" lon="35.724923"><time>1970-01-01T00:00:01.000Z</time></trkpt>
			<trkpt lat="45.126925" lon="35.724215"><time>1970-01-01T00:00:01.000Z</time></trkpt>
			<trkpt lat="45.127075" lon="35.720696"><time>1970-01-01T00:00:01.000Z</time></trkpt>
			<trkpt lat="45.127268" lon="35.720331"><time>1970-01-01T00:00:01.000Z</time></trkpt>
			<trkpt lat="45.127333" lon="35.718443"><time>1970-01-01T00:00:01.000Z</time></trkpt>
			<trkpt lat="45.127740" lon="35.717864"><time>1970-01-01T00:00:01.000Z</time></trkpt>
			<trkpt lat="45.128513" lon="35.717735"><time>1970-01-01T00:00:01.000Z</time></trkpt>
			<trkpt lat="45.129285" lon="35.716340"><time>1970-01-01T00:00:01.000Z</time></trkpt>
			<trkpt lat="45.129757" lon="35.714731"><time>1970-01-01T00:00:01.000Z</time></trkpt>
			<trkpt lat="45.129586" lon="35.713207"><time>1970-01-01T00:00:01.000Z</time></trkpt>
			<trkpt lat="45.129822" lon="35.710740"><time>1970-01-01T00:00:01.000Z</time></trkpt>
			<trkpt lat="45.130015" lon="35.709259"><time>1970-01-01T00:00:01.000Z</time></trkpt>
			<trkpt lat="45.129521" lon="35.706212"><time>1970-01-01T00:00:01.000Z</time></trkpt>
			<trkpt lat="45.128963" lon="35.705826"><time>1970-01-01T00:00:01.000Z</time></trkpt>
			<trkpt lat="45.128341" lon="35.704345"><time>1970-01-01T00:00:01.000Z</time></trkpt>
			<trkpt lat="45.128577" lon="35.703358"><time>1970-01-01T00:00:01.000Z</time></trkpt>
			<trkpt lat="45.128212" lon="35.701878"><time>1970-01-01T00:00:01.000Z</time></trkpt>
			<trkpt lat="45.128169" lon="35.700719"><time>1970-01-01T00:00:01.000Z</time></trkpt>
			<trkpt lat="45.128663" lon="35.700140"><time>1970-01-01T00:00:01.000Z</time></trkpt>
			<trkpt lat="45.128985" lon="35.700097"><time>1970-01-01T00:00:01.000Z</time></trkpt>
			<trkpt lat="45.129049" lon="35.699925"><time>1970-01-01T00:00:01.000Z</time></trkpt>
			<trkpt lat="45.128727" lon="35.699754"><time>1970-01-01T00:00:01.000Z</time></trkpt>
			<trkpt lat="45.128620" lon="35.698058"><time>1970-01-01T00:00:01.000Z</time></trkpt>
			<trkpt lat="45.128963" lon="35.697479"><time>1970-01-01T00:00:01.000Z</time></trkpt>
			<trkpt lat="45.128470" lon="35.697007"><time>1970-01-01T00:00:01.000Z</time></trkpt>
			<trkpt lat="45.127783" lon="35.697179"><time>1970-01-01T00:00:01.000Z</time></trkpt>
			<trkpt lat="45.127461" lon="35.696342"><time>1970-01-01T00:00:01.000Z</time></trkpt>
			<trkpt lat="45.127354" lon="35.695762"><time>1970-01-01T00:00:01.000Z</time></trkpt>
			<trkpt lat="45.126818" lon="35.694990"><time>1970-01-01T00:00:01.000Z</time></trkpt>
			<trkpt lat="45.126732" lon="35.693445"><time>1970-01-01T00:00:01.000Z</time></trkpt>
			<trkpt lat="45.126474" lon="35.692394"><time>1970-01-01T00:00:01.000Z</time></trkpt>
			<trkpt lat="45.126560" lon="35.691857"><time>1970-01-01T00:00:01.000Z</time></trkpt>
			<trkpt lat="45.126410" lon="35.691235"><time>1970-01-01T00:00:01.000Z</time></trkpt>
			<trkpt lat="45.125594" lon="35.690226"><time>1970-01-01T00:00:01.000Z</time></trkpt>
			<trkpt lat="45.125079" lon="35.688016"><time>1970-01-01T00:00:01.000Z</time></trkpt>
			<trkpt lat="45.125916" lon="35.686664"><time>1970-01-01T00:00:01.000Z</time></trkpt>
			<trkpt lat="45.126453" lon="35.686707"><time>1970-01-01T00:00:01.000Z</time></trkpt>
			<trkpt lat="45.126882" lon="35.685870"><time>1970-01-01T00:00:01.000Z</time></trkpt>
			<trkpt lat="45.127225" lon="35.684647"><time>1970-01-01T00:00:01.000Z</time></trkpt>
			<trkpt lat="45.127268" lon="35.683682"><time>1970-01-01T00:00:01.000Z</time></trkpt>
			<trkpt lat="45.127054" lon="35.682952"><time>1970-01-01T00:00:01.000Z</time></trkpt>
			<trkpt lat="45.126710" lon="35.682330"><time>1970-01-01T00:00:01.000Z</time></trkpt>
			<trkpt lat="45.126689" lon="35.682094"><time>1970-01-01T00:00:01.000Z</time></trkpt>
			<trkpt lat="45.127011" lon="35.681901"><time>1970-01-01T00:00:01.000Z</time></trkpt>
			<trkpt lat="45.127118" lon="35.681536"><time>1970-01-01T00:00:01.000Z</time></trkpt>
			<trkpt lat="45.126989" lon="35.680635"><time>1970-01-01T00:00:01.000Z</time></trkpt>
			<trkpt lat="45.126796" lon="35.680055"><time>1970-01-01T00:00:01.000Z</time></trkpt>
			<trkpt lat="45.126603" lon="35.679905"><time>1970-01-01T00:00:01.000Z</time></trkpt>
			<trkpt lat="45.126689" lon="35.679540"><time>1970-01-01T00:00:01.000Z</time></trkpt>
			<trkpt lat="45.126453" lon="35.679240"><time>1970-01-01T00:00:01.000Z</time></trkpt>
			<trkpt lat="45.126603" lon="35.678811"><time>1970-01-01T00:00:01.000Z</time></trkpt>
			<trkpt lat="45.126152" lon="35.671794"><time>1970-01-01T00:00:01.000Z</time></trkpt>
			<trkpt lat="45.126753" lon="35.671150"><time>1970-01-01T00:00:01.000Z</time></trkpt>
			<trkpt lat="45.127096" lon="35.670163"><time>1970-01-01T00:00:01.000Z</time></trkpt>
			<trkpt lat="45.126925" lon="35.669048"><time>1970-01-01T00:00:01.000Z</time></trkpt>
			<trkpt lat="45.127762" lon="35.667159"><time>1970-01-01T00:00:01.000Z</time></trkpt>
			<trkpt lat="45.125509" lon="35.660765"><time>1970-01-01T00:00:01.000Z</time></trkpt>
			<trkpt lat="45.125058" lon="35.658018"><time>1970-01-01T00:00:01.000Z</time></trkpt>
			<trkpt lat="45.122977" lon="35.658469"><time>1970-01-01T00:00:01.000Z</time></trkpt>
			<trkpt lat="45.122161" lon="35.656366"><time>1970-01-01T00:00:01.000Z</time></trkpt>
			<trkpt lat="45.119007" lon="35.653813"><time>1970-01-01T00:00:01.000Z</time></trkpt>
			<trkpt lat="45.118857" lon="35.653019"><time>1970-01-01T00:00:01.000Z</time></trkpt>
			<trkpt lat="45.118964" lon="35.652332"><time>1970-01-01T00:00:01.000Z</time></trkpt>
			<trkpt lat="45.118664" lon="35.652053"><time>1970-01-01T00:00:01.000Z</time></trkpt>
			<trkpt lat="45.118900" lon="35.651495"><time>1970-01-01T00:00:01.000Z</time></trkpt>
			<trkpt lat="45.119136" lon="35.651324"><time>1970-01-01T00:00:01.000Z</time></trkpt>
			<trkpt lat="45.119307" lon="35.650873"><time>1970-01-01T00:00:01.000Z</time></trkpt>
			<trkpt lat="45.119672" lon="35.648105"><time>1970-01-01T00:00:01.000Z</time></trkpt>
			<trkpt lat="45.120058" lon="35.646839"><time>1970-01-01T00:00:01.000Z</time></trkpt>
			<trkpt lat="45.120380" lon="35.646517"><time>1970-01-01T00:00:01.000Z</time></trkpt>
			<trkpt lat="45.120960" lon="35.641925"><time>1970-01-01T00:00:01.000Z</time></trkpt>
			<trkpt lat="45.123771" lon="35.632827"><time>1970-01-01T00:00:01.000Z</time></trkpt>
			<trkpt lat="45.123728" lon="35.632291"><time>1970-01-01T00:00:01.000Z</time></trkpt>
			<trkpt lat="45.124650" lon="35.626926"><time>1970-01-01T00:00:01.000Z</time></trkpt>
			<trkpt lat="45.124500" lon="35.625124"><time>1970-01-01T00:00:01.000Z</time></trkpt>
			<trkpt lat="45.124865" lon="35.624652"><time>1970-01-01T00:00:01.000Z</time></trkpt>
			<trkpt lat="45.125466" lon="35.624308"><time>1970-01-01T00:00:01.000Z</time></trkpt>
			<trkpt lat="45.126260" lon="35.623107"><time>1970-01-01T00:00:01.000Z</time></trkpt>
			<trkpt lat="45.126453" lon="35.622077"><time>1970-01-01T00:00:01.000Z</time></trkpt>
			<trkpt lat="45.127075" lon="35.619738"><time>1970-01-01T00:00:01.000Z</time></trkpt>
			<trkpt lat="45.127933" lon="35.612077"><time>1970-01-01T00:00:01.000Z</time></trkpt>
			<trkpt lat="45.130186" lon="35.596156"><time>1970-01-01T00:00:01.000Z</time></trkpt>
			<trkpt lat="45.137976" lon="35.593753"><time>1970-01-01T00:00:01.000Z</time></trkpt>
			<trkpt lat="45.138061" lon="35.590770"><time>1970-01-01T00:00:01.000Z</time></trkpt>
			<trkpt lat="45.141194" lon="35.582230"><time>1970-01-01T00:00:01.000Z</time></trkpt>
			<trkpt lat="45.153897" lon="35.569355"><time>1970-01-01T00:00:01.000Z</time></trkpt>
			<trkpt lat="45.164132" lon="35.561266"><time>1970-01-01T00:00:01.000Z</time></trkpt>
			<trkpt lat="45.169068" lon="35.546374"><time>1970-01-01T00:00:01.000Z</time></trkpt>
			<trkpt lat="45.173080" lon="35.541632"><time>1970-01-01T00:00:01.000Z</time></trkpt>
			<trkpt lat="45.172930" lon="35.535173"><time>1970-01-01T00:00:01.000Z</time></trkpt>
			<trkpt lat="45.171836" lon="35.534336"><time>1970-01-01T00:00:01.000Z</time></trkpt>
			<trkpt lat="45.171900" lon="35.533027"><time>1970-01-01T00:00:01.000Z</time></trkpt>
			<trkpt lat="45.170183" lon="35.531203"><time>1970-01-01T00:00:01.000Z</time></trkpt>
			<trkpt lat="45.169905" lon="35.527770"><time>1970-01-01T00:00:01.000Z</time></trkpt>
			<trkpt lat="45.165162" lon="35.516677"><time>1970-01-01T00:00:01.000Z</time></trkpt>
			<trkpt lat="45.165592" lon="35.510583"><time>1970-01-01T00:00:01.000Z</time></trkpt>
			<trkpt lat="45.163360" lon="35.505755"><time>1970-01-01T00:00:01.000Z</time></trkpt>
			<trkpt lat="45.163896" lon="35.500862"><time>1970-01-01T00:00:01.000Z</time></trkpt>
			<trkpt lat="45.166879" lon="35.490949"><time>1970-01-01T00:00:01.000Z</time></trkpt>
			<trkpt lat="45.167222" lon="35.485134"><time>1970-01-01T00:00:01.000Z</time></trkpt>
			<trkpt lat="45.168145" lon="35.479190"><time>1970-01-01T00:00:01.000Z</time></trkpt>
			<trkpt lat="45.170162" lon="35.472989"><time>1970-01-01T00:00:01.000Z</time></trkpt>
			<trkpt lat="45.171492" lon="35.464127"><time>1970-01-01T00:00:01.000Z</time></trkpt>
			<trkpt lat="45.171385" lon="35.438614"><time>1970-01-01T00:00:01.000Z</time></trkpt>
			<trkpt lat="45.165956" lon="35.411813"><time>1970-01-01T00:00:01.000Z</time></trkpt>
			<trkpt lat="45.164411" lon="35.401342"><time>1970-01-01T00:00:01.000Z</time></trkpt>
			<trkpt lat="45.162845" lon="35.395612"><time>1970-01-01T00:00:01.000Z</time></trkpt>
			<trkpt lat="45.161858" lon="35.390913"><time>1970-01-01T00:00:01.000Z</time></trkpt>
			<trkpt lat="45.161600" lon="35.390033"><time>1970-01-01T00:00:01.000Z</time></trkpt>
			<trkpt lat="45.161643" lon="35.388725"><time>1970-01-01T00:00:01.000Z</time></trkpt>
			<trkpt lat="45.161922" lon="35.386300"><time>1970-01-01T00:00:01.000Z</time></trkpt>
			<trkpt lat="45.162223" lon="35.384605"><time>1970-01-01T00:00:01.000Z</time></trkpt>
			<trkpt lat="45.159927" lon="35.382995"><time>1970-01-01T00:00:01.000Z</time></trkpt>
			<trkpt lat="45.159176" lon="35.382609"><time>1970-01-01T00:00:01.000Z</time></trkpt>
			<trkpt lat="45.158511" lon="35.381643"><time>1970-01-01T00:00:01.000Z</time></trkpt>
			<trkpt lat="45.157030" lon="35.381343"><time>1970-01-01T00:00:01.000Z</time></trkpt>
			<trkpt lat="45.156815" lon="35.382051"><time>1970-01-01T00:00:01.000Z</time></trkpt>
			<trkpt lat="45.156107" lon="35.382781"><time>1970-01-01T00:00:01.000Z</time></trkpt>
			<trkpt lat="45.155850" lon="35.384218"><time>1970-01-01T00:00:01.000Z</time></trkpt>
			<trkpt lat="45.155657" lon="35.384991"><time>1970-01-01T00:00:01.000Z</time></trkpt>
			<trkpt lat="45.155614" lon="35.385420"><time>1970-01-01T00:00:01.000Z</time></trkpt>
			<trkpt lat="45.155700" lon="35.386193"><time>1970-01-01T00:00:01.000Z</time></trkpt>
			<trkpt lat="45.154412" lon="35.389647"><time>1970-01-01T00:00:01.000Z</time></trkpt>
			<trkpt lat="45.153725" lon="35.391321"><time>1970-01-01T00:00:01.000Z</time></trkpt>
			<trkpt lat="45.153683" lon="35.391621"><time>1970-01-01T00:00:01.000Z</time></trkpt>
			<trkpt lat="45.153103" lon="35.392565"><time>1970-01-01T00:00:01.000Z</time></trkpt>
			<trkpt lat="45.152030" lon="35.394067"><time>1970-01-01T00:00:01.000Z</time></trkpt>
			<trkpt lat="45.151623" lon="35.394346"><time>1970-01-01T00:00:01.000Z</time></trkpt>
			<trkpt lat="45.151172" lon="35.394840"><time>1970-01-01T00:00:01.000Z</time></trkpt>
			<trkpt lat="45.150850" lon="35.395119"><time>1970-01-01T00:00:01.000Z</time></trkpt>
			<trkpt lat="45.150357" lon="35.395677"><time>1970-01-01T00:00:01.000Z</time></trkpt>
			<trkpt lat="45.149992" lon="35.395848"><time>1970-01-01T00:00:01.000Z</time></trkpt>
			<trkpt lat="45.148855" lon="35.396599"><time>1970-01-01T00:00:01.000Z</time></trkpt>
			<trkpt lat="45.147846" lon="35.397501"><time>1970-01-01T00:00:01.000Z</time></trkpt>
			<trkpt lat="45.147524" lon="35.397908"><time>1970-01-01T00:00:01.000Z</time></trkpt>
			<trkpt lat="45.147159" lon="35.398724"><time>1970-01-01T00:00:01.000Z</time></trkpt>
			<trkpt lat="45.146966" lon="35.398917"><time>1970-01-01T00:00:01.000Z</time></trkpt>
			<trkpt lat="45.145572" lon="35.399990"><time>1970-01-01T00:00:01.000Z</time></trkpt>
			<trkpt lat="45.145357" lon="35.400247"><time>1970-01-01T00:00:01.000Z</time></trkpt>
			<trkpt lat="45.143490" lon="35.403208"><time>1970-01-01T00:00:01.000Z</time></trkpt>
			<trkpt lat="45.143318" lon="35.403380"><time>1970-01-01T00:00:01.000Z</time></trkpt>
			<trkpt lat="45.142460" lon="35.404067"><time>1970-01-01T00:00:01.000Z</time></trkpt>
			<trkpt lat="45.141731" lon="35.404496"><time>1970-01-01T00:00:01.000Z</time></trkpt>
			<trkpt lat="45.140400" lon="35.404989"><time>1970-01-01T00:00:01.000Z</time></trkpt>
			<trkpt lat="45.139284" lon="35.405354"><time>1970-01-01T00:00:01.000Z</time></trkpt>
			<trkpt lat="45.139027" lon="35.405268"><time>1970-01-01T00:00:01.000Z</time></trkpt>
			<trkpt lat="45.137739" lon="35.404560"><time>1970-01-01T00:00:01.000Z</time></trkpt>
			<trkpt lat="45.137439" lon="35.404474"><time>1970-01-01T00:00:01.000Z</time></trkpt>
			<trkpt lat="45.137203" lon="35.404625"><time>1970-01-01T00:00:01.000Z</time></trkpt>
			<trkpt lat="45.137074" lon="35.405204"><time>1970-01-01T00:00:01.000Z</time></trkpt>
			<trkpt lat="45.136817" lon="35.405290"><time>1970-01-01T00:00:01.000Z</time></trkpt>
			<trkpt lat="45.136624" lon="35.405247"><time>1970-01-01T00:00:01.000Z</time></trkpt>
			<trkpt lat="45.136452" lon="35.405140"><time>1970-01-01T00:00:01.000Z</time></trkpt>
			<trkpt lat="45.136323" lon="35.405698"><time>1970-01-01T00:00:01.000Z</time></trkpt>
			<trkpt lat="45.135980" lon="35.406234"><time>1970-01-01T00:00:01.000Z</time></trkpt>
			<trkpt lat="45.135465" lon="35.406255"><time>1970-01-01T00:00:01.000Z</time></trkpt>
			<trkpt lat="45.134993" lon="35.405976"><time>1970-01-01T00:00:01.000Z</time></trkpt>
			<trkpt lat="45.131131" lon="35.402865"><time>1970-01-01T00:00:01.000Z</time></trkpt>
			<trkpt lat="45.129650" lon="35.401900"><time>1970-01-01T00:00:01.000Z</time></trkpt>
			<trkpt lat="45.128534" lon="35.401771"><time>1970-01-01T00:00:01.000Z</time></trkpt>
			<trkpt lat="45.127955" lon="35.402028"><time>1970-01-01T00:00:01.000Z</time></trkpt>
			<trkpt lat="45.126989" lon="35.401513"><time>1970-01-01T00:00:01.000Z</time></trkpt>
			<trkpt lat="45.124629" lon="35.399239"><time>1970-01-01T00:00:01.000Z</time></trkpt>
			<trkpt lat="45.124393" lon="35.398080"><time>1970-01-01T00:00:01.000Z</time></trkpt>
			<trkpt lat="45.120015" lon="35.393574"><time>1970-01-01T00:00:01.000Z</time></trkpt>
			<trkpt lat="45.116153" lon="35.383360"><time>1970-01-01T00:00:01.000Z</time></trkpt>
			<trkpt lat="45.114608" lon="35.381944"><time>1970-01-01T00:00:01.000Z</time></trkpt>
			<trkpt lat="45.112634" lon="35.381343"><time>1970-01-01T00:00:01.000Z</time></trkpt>
			<trkpt lat="45.098365" lon="35.386879"><time>1970-01-01T00:00:01.000Z</time></trkpt>
			<trkpt lat="45.097270" lon="35.386793"><time>1970-01-01T00:00:01.000Z</time></trkpt>
			<trkpt lat="45.093086" lon="35.389411"><time>1970-01-01T00:00:01.000Z</time></trkpt>
			<trkpt lat="45.092678" lon="35.388853"><time>1970-01-01T00:00:01.000Z</time></trkpt>
			<trkpt lat="45.092593" lon="35.388853"><time>1970-01-01T00:00:01.000Z</time></trkpt>
			<trkpt lat="45.092421" lon="35.389197"><time>1970-01-01T00:00:01.000Z</time></trkpt>
			<trkpt lat="45.092292" lon="35.389197"><time>1970-01-01T00:00:01.000Z</time></trkpt>
			<trkpt lat="45.092185" lon="35.389240"><time>1970-01-01T00:00:01.000Z</time></trkpt>
			<trkpt lat="45.092078" lon="35.389197"><time>1970-01-01T00:00:01.000Z</time></trkpt>
			<trkpt lat="45.091584" lon="35.388660"><time>1970-01-01T00:00:01.000Z</time></trkpt>
			<trkpt lat="45.091605" lon="35.388596"><time>1970-01-01T00:00:01.000Z</time></trkpt>
			<trkpt lat="45.090597" lon="35.388081"><time>1970-01-01T00:00:01.000Z</time></trkpt>
			<trkpt lat="45.090468" lon="35.387931"><time>1970-01-01T00:00:01.000Z</time></trkpt>
			<trkpt lat="45.090297" lon="35.387351"><time>1970-01-01T00:00:01.000Z</time></trkpt>
			<trkpt lat="45.090339" lon="35.386944"><time>1970-01-01T00:00:01.000Z</time></trkpt>
			<trkpt lat="45.090339" lon="35.384626"><time>1970-01-01T00:00:01.000Z</time></trkpt>
			<trkpt lat="45.090189" lon="35.383961"><time>1970-01-01T00:00:01.000Z</time></trkpt>
			<trkpt lat="45.087700" lon="35.384240"><time>1970-01-01T00:00:01.000Z</time></trkpt>
			<trkpt lat="45.087915" lon="35.383768"><time>1970-01-01T00:00:01.000Z</time></trkpt>
			<trkpt lat="45.088537" lon="35.375571"><time>1970-01-01T00:00:01.000Z</time></trkpt>
			<trkpt lat="45.086456" lon="35.376515"><time>1970-01-01T00:00:01.000Z</time></trkpt>
			<trkpt lat="45.084610" lon="35.377803"><time>1970-01-01T00:00:01.000Z</time></trkpt>
			<trkpt lat="45.083387" lon="35.378210"><time>1970-01-01T00:00:01.000Z</time></trkpt>
			<trkpt lat="45.081284" lon="35.378103"><time>1970-01-01T00:00:01.000Z</time></trkpt>
			<trkpt lat="45.079289" lon="35.378489"><time>1970-01-01T00:00:01.000Z</time></trkpt>
			<trkpt lat="45.078044" lon="35.369906"><time>1970-01-01T00:00:01.000Z</time></trkpt>
			<trkpt lat="45.075298" lon="35.366194"><time>1970-01-01T00:00:01.000Z</time></trkpt>
			<trkpt lat="45.075062" lon="35.365615"><time>1970-01-01T00:00:01.000Z</time></trkpt>
			<trkpt lat="45.074933" lon="35.365400"><time>1970-01-01T00:00:01.000Z</time></trkpt>
			<trkpt lat="45.074482" lon="35.365035"><time>1970-01-01T00:00:01.000Z</time></trkpt>
			<trkpt lat="45.074396" lon="35.364907"><time>1970-01-01T00:00:01.000Z</time></trkpt>
			<trkpt lat="45.074289" lon="35.364456"><time>1970-01-01T00:00:01.000Z</time></trkpt>
			<trkpt lat="45.074010" lon="35.364134"><time>1970-01-01T00:00:01.000Z</time></trkpt>
			<trkpt lat="45.073238" lon="35.364563"><time>1970-01-01T00:00:01.000Z</time></trkpt>
			<trkpt lat="45.072787" lon="35.364949"><time>1970-01-01T00:00:01.000Z</time></trkpt>
			<trkpt lat="45.071178" lon="35.367160"><time>1970-01-01T00:00:01.000Z</time></trkpt>
			<trkpt lat="45.070963" lon="35.366687"><time>1970-01-01T00:00:01.000Z</time></trkpt>
			<trkpt lat="45.070577" lon="35.366001"><time>1970-01-01T00:00:01.000Z</time></trkpt>
			<trkpt lat="45.070556" lon="35.365786"><time>1970-01-01T00:00:01.000Z</time></trkpt>
			<trkpt lat="45.070083" lon="35.365486"><time>1970-01-01T00:00:01.000Z</time></trkpt>
			<trkpt lat="45.068474" lon="35.363040"><time>1970-01-01T00:00:01.000Z</time></trkpt>
			<trkpt lat="45.066028" lon="35.359628"><time>1970-01-01T00:00:01.000Z</time></trkpt>
			<trkpt lat="45.065341" lon="35.358255"><time>1970-01-01T00:00:01.000Z</time></trkpt>
			<trkpt lat="45.065191" lon="35.357697"><time>1970-01-01T00:00:01.000Z</time></trkpt>
			<trkpt lat="45.065019" lon="35.357396"><time>1970-01-01T00:00:01.000Z</time></trkpt>
			<trkpt lat="45.064955" lon="35.356838"><time>1970-01-01T00:00:01.000Z</time></trkpt>
			<trkpt lat="45.064848" lon="35.356538"><time>1970-01-01T00:00:01.000Z</time></trkpt>
			<trkpt lat="45.064719" lon="35.356323"><time>1970-01-01T00:00:01.000Z</time></trkpt>
			<trkpt lat="45.064698" lon="35.355787"><time>1970-01-01T00:00:01.000Z</time></trkpt>
			<trkpt lat="45.064526" lon="35.355100"><time>1970-01-01T00:00:01.000Z</time></trkpt>
			<trkpt lat="45.064183" lon="35.354113"><time>1970-01-01T00:00:01.000Z</time></trkpt>
			<trkpt lat="45.063560" lon="35.351753"><time>1970-01-01T00:00:01.000Z</time></trkpt>
			<trkpt lat="45.063539" lon="35.351410"><time>1970-01-01T00:00:01.000Z</time></trkpt>
			<trkpt lat="45.062552" lon="35.351152"><time>1970-01-01T00:00:01.000Z</time></trkpt>
			<trkpt lat="45.061865" lon="35.351174"><time>1970-01-01T00:00:01.000Z</time></trkpt>
			<trkpt lat="45.061372" lon="35.351238"><time>1970-01-01T00:00:01.000Z</time></trkpt>
			<trkpt lat="45.061028" lon="35.351367"><time>1970-01-01T00:00:01.000Z</time></trkpt>
			<trkpt lat="45.060513" lon="35.351646"><time>1970-01-01T00:00:01.000Z</time></trkpt>
			<trkpt lat="45.060106" lon="35.351968"><time>1970-01-01T00:00:01.000Z</time></trkpt>
			<trkpt lat="45.058496" lon="35.353727"><time>1970-01-01T00:00:01.000Z</time></trkpt>
			<trkpt lat="45.058410" lon="35.353641"><time>1970-01-01T00:00:01.000Z</time></trkpt>
			<trkpt lat="45.058260" lon="35.353598"><time>1970-01-01T00:00:01.000Z</time></trkpt>
			<trkpt lat="45.058046" lon="35.353620"><time>1970-01-01T00:00:01.000Z</time></trkpt>
			<trkpt lat="45.057767" lon="35.353555"><time>1970-01-01T00:00:01.000Z</time></trkpt>
			<trkpt lat="45.057552" lon="35.353577"><time>1970-01-01T00:00:01.000Z</time></trkpt>
			<trkpt lat="45.057423" lon="35.353555"><time>1970-01-01T00:00:01.000Z</time></trkpt>
			<trkpt lat="45.057230" lon="35.353448"><time>1970-01-01T00:00:01.000Z</time></trkpt>
			<trkpt lat="45.056823" lon="35.353512"><time>1970-01-01T00:00:01.000Z</time></trkpt>
			<trkpt lat="45.056694" lon="35.353405"><time>1970-01-01T00:00:01.000Z</time></trkpt>
			<trkpt lat="45.056565" lon="35.353362"><time>1970-01-01T00:00:01.000Z</time></trkpt>
			<trkpt lat="45.056479" lon="35.353234"><time>1970-01-01T00:00:01.000Z</time></trkpt>
			<trkpt lat="45.056372" lon="35.353191"><time>1970-01-01T00:00:01.000Z</time></trkpt>
			<trkpt lat="45.056308" lon="35.353062"><time>1970-01-01T00:00:01.000Z</time></trkpt>
			<trkpt lat="45.056136" lon="35.353040"><time>1970-01-01T00:00:01.000Z</time></trkpt>
			<trkpt lat="45.055600" lon="35.352697"><time>1970-01-01T00:00:01.000Z</time></trkpt>
			<trkpt lat="45.053690" lon="35.352547"><time>1970-01-01T00:00:01.000Z</time></trkpt>
			<trkpt lat="45.052660" lon="35.352268"><time>1970-01-01T00:00:01.000Z</time></trkpt>
			<trkpt lat="45.052166" lon="35.351753"><time>1970-01-01T00:00:01.000Z</time></trkpt>
			<trkpt lat="45.052209" lon="35.349650"><time>1970-01-01T00:00:01.000Z</time></trkpt>
			<trkpt lat="45.051523" lon="35.349672"><time>1970-01-01T00:00:01.000Z</time></trkpt>
			<trkpt lat="45.049806" lon="35.349414"><time>1970-01-01T00:00:01.000Z</time></trkpt>
			<trkpt lat="45.049548" lon="35.349328"><time>1970-01-01T00:00:01.000Z</time></trkpt>
			<trkpt lat="45.049377" lon="35.349457"><time>1970-01-01T00:00:01.000Z</time></trkpt>
			<trkpt lat="45.049012" lon="35.349457"><time>1970-01-01T00:00:01.000Z</time></trkpt>
			<trkpt lat="45.048733" lon="35.349521"><time>1970-01-01T00:00:01.000Z</time></trkpt>
			<trkpt lat="45.048561" lon="35.349393"><time>1970-01-01T00:00:01.000Z</time></trkpt>
			<trkpt lat="45.047832" lon="35.349071"><time>1970-01-01T00:00:01.000Z</time></trkpt>
			<trkpt lat="45.047295" lon="35.348963"><time>1970-01-01T00:00:01.000Z</time></trkpt>
			<trkpt lat="45.047231" lon="35.349028"><time>1970-01-01T00:00:01.000Z</time></trkpt>
			<trkpt lat="45.046480" lon="35.348534"><time>1970-01-01T00:00:01.000Z</time></trkpt>
			<trkpt lat="45.046287" lon="35.348298"><time>1970-01-01T00:00:01.000Z</time></trkpt>
			<trkpt lat="45.046029" lon="35.348234"><time>1970-01-01T00:00:01.000Z</time></trkpt>
			<trkpt lat="45.045815" lon="35.348105"><time>1970-01-01T00:00:01.000Z</time></trkpt>
			<trkpt lat="45.045042" lon="35.347783"><time>1970-01-01T00:00:01.000Z</time></trkpt>
			<trkpt lat="45.044914" lon="35.347697"><time>1970-01-01T00:00:01.000Z</time></trkpt>
			<trkpt lat="45.044828" lon="35.347569"><time>1970-01-01T00:00:01.000Z</time></trkpt>
			<trkpt lat="45.044785" lon="35.347333"><time>1970-01-01T00:00:01.000Z</time></trkpt>
			<trkpt lat="45.044592" lon="35.347247"><time>1970-01-01T00:00:01.000Z</time></trkpt>
			<trkpt lat="45.044270" lon="35.347182"><time>1970-01-01T00:00:01.000Z</time></trkpt>
			<trkpt lat="45.043841" lon="35.347032"><time>1970-01-01T00:00:01.000Z</time></trkpt>
			<trkpt lat="45.043691" lon="35.346946"><time>1970-01-01T00:00:01.000Z</time></trkpt>
			<trkpt lat="45.043390" lon="35.346925"><time>1970-01-01T00:00:01.000Z</time></trkpt>
			<trkpt lat="45.042682" lon="35.347161"><time>1970-01-01T00:00:01.000Z</time></trkpt>
			<trkpt lat="45.042253" lon="35.347032"><time>1970-01-01T00:00:01.000Z</time></trkpt>
			<trkpt lat="45.041545" lon="35.346667"><time>1970-01-01T00:00:01.000Z</time></trkpt>
			<trkpt lat="45.041094" lon="35.346517"><time>1970-01-01T00:00:01.000Z</time></trkpt>
			<trkpt lat="45.040021" lon="35.345509"><time>1970-01-01T00:00:01.000Z</time></trkpt>
			<trkpt lat="45.039892" lon="35.345251"><time>1970-01-01T00:00:01.000Z</time></trkpt>
			<trkpt lat="45.039785" lon="35.345316"><time>1970-01-01T00:00:01.000Z</time></trkpt>
			<trkpt lat="45.039249" lon="35.345080"><time>1970-01-01T00:00:01.000Z</time></trkpt>
			<trkpt lat="45.038841" lon="35.344972"><time>1970-01-01T00:00:01.000Z</time></trkpt>
			<trkpt lat="45.038669" lon="35.344994"><time>1970-01-01T00:00:01.000Z</time></trkpt>
			<trkpt lat="45.038476" lon="35.345401"><time>1970-01-01T00:00:01.000Z</time></trkpt>
			<trkpt lat="45.038283" lon="35.346002"><time>1970-01-01T00:00:01.000Z</time></trkpt>
			<trkpt lat="45.038197" lon="35.346067"><time>1970-01-01T00:00:01.000Z</time></trkpt>
			<trkpt lat="45.037747" lon="35.346002"><time>1970-01-01T00:00:01.000Z</time></trkpt>
			<trkpt lat="45.037597" lon="35.346045"><time>1970-01-01T00:00:01.000Z</time></trkpt>
			<trkpt lat="45.037403" lon="35.346303"><time>1970-01-01T00:00:01.000Z</time></trkpt>
			<trkpt lat="45.037232" lon="35.346625"><time>1970-01-01T00:00:01.000Z</time></trkpt>
			<trkpt lat="45.037124" lon="35.346710"><time>1970-01-01T00:00:01.000Z</time></trkpt>
			<trkpt lat="45.036609" lon="35.346710"><time>1970-01-01T00:00:01.000Z</time></trkpt>
			<trkpt lat="45.036288" lon="35.346625"><time>1970-01-01T00:00:01.000Z</time></trkpt>
			<trkpt lat="45.033434" lon="35.346324"><time>1970-01-01T00:00:01.000Z</time></trkpt>
			<trkpt lat="45.033477" lon="35.348685"><time>1970-01-01T00:00:01.000Z</time></trkpt>
			<trkpt lat="45.033369" lon="35.348727"><time>1970-01-01T00:00:01.000Z</time></trkpt>
			<trkpt lat="45.033262" lon="35.348706"><time>1970-01-01T00:00:01.000Z</time></trkpt>
			<trkpt lat="45.033176" lon="35.348406"><time>1970-01-01T00:00:01.000Z</time></trkpt>
			<trkpt lat="45.033090" lon="35.348341"><time>1970-01-01T00:00:01.000Z</time></trkpt>
			<trkpt lat="45.032811" lon="35.348599"><time>1970-01-01T00:00:01.000Z</time></trkpt>
			<trkpt lat="45.032683" lon="35.348534"><time>1970-01-01T00:00:01.000Z</time></trkpt>
			<trkpt lat="45.032640" lon="35.348599"><time>1970-01-01T00:00:01.000Z</time></trkpt>
			<trkpt lat="45.032511" lon="35.348427"><time>1970-01-01T00:00:01.000Z</time></trkpt>
			<trkpt lat="45.032211" lon="35.348255"><time>1970-01-01T00:00:01.000Z</time></trkpt>
			<trkpt lat="45.031696" lon="35.348170"><time>1970-01-01T00:00:01.000Z</time></trkpt>
			<trkpt lat="45.031202" lon="35.347976"><time>1970-01-01T00:00:01.000Z</time></trkpt>
			<trkpt lat="45.030837" lon="35.347655"><time>1970-01-01T00:00:01.000Z</time></trkpt>
			<trkpt lat="45.030687" lon="35.347612"><time>1970-01-01T00:00:01.000Z</time></trkpt>
			<trkpt lat="45.030580" lon="35.347633"><time>1970-01-01T00:00:01.000Z</time></trkpt>
			<trkpt lat="45.030537" lon="35.347590"><time>1970-01-01T00:00:01.000Z</time></trkpt>
			<trkpt lat="45.030344" lon="35.347547"><time>1970-01-01T00:00:01.000Z</time></trkpt>
			<trkpt lat="45.029915" lon="35.347612"><time>1970-01-01T00:00:01.000Z</time></trkpt>
			<trkpt lat="45.029872" lon="35.347676"><time>1970-01-01T00:00:01.000Z</time></trkpt>
			<trkpt lat="45.029743" lon="35.347719"><time>1970-01-01T00:00:01.000Z</time></trkpt>
			<trkpt lat="45.029550" lon="35.347848"><time>1970-01-01T00:00:01.000Z</time></trkpt>
			<trkpt lat="45.029249" lon="35.347912"><time>1970-01-01T00:00:01.000Z</time></trkpt>
			<trkpt lat="45.029056" lon="35.348105"><time>1970-01-01T00:00:01.000Z</time></trkpt>
			<trkpt lat="45.028928" lon="35.348019"><time>1970-01-01T00:00:01.000Z</time></trkpt>
			<trkpt lat="45.028627" lon="35.348062"><time>1970-01-01T00:00:01.000Z</time></trkpt>
			<trkpt lat="45.028520" lon="35.348277"><time>1970-01-01T00:00:01.000Z</time></trkpt>
			<trkpt lat="45.028413" lon="35.348599"><time>1970-01-01T00:00:01.000Z</time></trkpt>
			<trkpt lat="45.028413" lon="35.348685"><time>1970-01-01T00:00:01.000Z</time></trkpt>
			<trkpt lat="45.028155" lon="35.349157"><time>1970-01-01T00:00:01.000Z</time></trkpt>
			<trkpt lat="45.028069" lon="35.349500"><time>1970-01-01T00:00:01.000Z</time></trkpt>
			<trkpt lat="45.028134" lon="35.350358"><time>1970-01-01T00:00:01.000Z</time></trkpt>
			<trkpt lat="45.028112" lon="35.350551"><time>1970-01-01T00:00:01.000Z</time></trkpt>
			<trkpt lat="45.028005" lon="35.350830"><time>1970-01-01T00:00:01.000Z</time></trkpt>
			<trkpt lat="45.028026" lon="35.350938"><time>1970-01-01T00:00:01.000Z</time></trkpt>
			<trkpt lat="45.027983" lon="35.351002"><time>1970-01-01T00:00:01.000Z</time></trkpt>
			<trkpt lat="45.027275" lon="35.350830"><time>1970-01-01T00:00:01.000Z</time></trkpt>
			<trkpt lat="45.026846" lon="35.350530"><time>1970-01-01T00:00:01.000Z</time></trkpt>
			<trkpt lat="45.026460" lon="35.350508"><time>1970-01-01T00:00:01.000Z</time></trkpt>
			<trkpt lat="45.025623" lon="35.350208"><time>1970-01-01T00:00:01.000Z</time></trkpt>
			<trkpt lat="45.025494" lon="35.350122"><time>1970-01-01T00:00:01.000Z</time></trkpt>
			<trkpt lat="45.025430" lon="35.349929"><time>1970-01-01T00:00:01.000Z</time></trkpt>
			<trkpt lat="45.025387" lon="35.349993"><time>1970-01-01T00:00:01.000Z</time></trkpt>
			<trkpt lat="45.025451" lon="35.350508"><time>1970-01-01T00:00:01.000Z</time></trkpt>
			<trkpt lat="45.025258" lon="35.350401"><time>1970-01-01T00:00:01.000Z</time></trkpt>
			<trkpt lat="45.025022" lon="35.350380"><time>1970-01-01T00:00:01.000Z</time></trkpt>
			<trkpt lat="45.024915" lon="35.351603"><time>1970-01-01T00:00:01.000Z</time></trkpt>
			<trkpt lat="45.024786" lon="35.352332"><time>1970-01-01T00:00:01.000Z</time></trkpt>
			<trkpt lat="45.024679" lon="35.353555"><time>1970-01-01T00:00:01.000Z</time></trkpt>
			<trkpt lat="45.024658" lon="35.353663"><time>1970-01-01T00:00:01.000Z</time></trkpt>
			<trkpt lat="45.024529" lon="35.353877"><time>1970-01-01T00:00:01.000Z</time></trkpt>
			<trkpt lat="45.024529" lon="35.354156"><time>1970-01-01T00:00:01.000Z</time></trkpt>
			<trkpt lat="45.024422" lon="35.354371"><time>1970-01-01T00:00:01.000Z</time></trkpt>
			<trkpt lat="45.024014" lon="35.354564"><time>1970-01-01T00:00:01.000Z</time></trkpt>
			<trkpt lat="45.023477" lon="35.354736"><time>1970-01-01T00:00:01.000Z</time></trkpt>
			<trkpt lat="45.023413" lon="35.354778"><time>1970-01-01T00:00:01.000Z</time></trkpt>
			<trkpt lat="45.023370" lon="35.354950"><time>1970-01-01T00:00:01.000Z</time></trkpt>
			<trkpt lat="45.023263" lon="35.354972"><time>1970-01-01T00:00:01.000Z</time></trkpt>
			<trkpt lat="45.022877" lon="35.354821"><time>1970-01-01T00:00:01.000Z</time></trkpt>
			<trkpt lat="45.022447" lon="35.354757"><time>1970-01-01T00:00:01.000Z</time></trkpt>
			<trkpt lat="45.022018" lon="35.354800"><time>1970-01-01T00:00:01.000Z</time></trkpt>
			<trkpt lat="45.021868" lon="35.354736"><time>1970-01-01T00:00:01.000Z</time></trkpt>
			<trkpt lat="45.021911" lon="35.355079"><time>1970-01-01T00:00:01.000Z</time></trkpt>
			<trkpt lat="45.021782" lon="35.355315"><time>1970-01-01T00:00:01.000Z</time></trkpt>
			<trkpt lat="45.021761" lon="35.355487"><time>1970-01-01T00:00:01.000Z</time></trkpt>
			<trkpt lat="45.021611" lon="35.355787"><time>1970-01-01T00:00:01.000Z</time></trkpt>
			<trkpt lat="45.021653" lon="35.355916"><time>1970-01-01T00:00:01.000Z</time></trkpt>
			<trkpt lat="45.021568" lon="35.356195"><time>1970-01-01T00:00:01.000Z</time></trkpt>
			<trkpt lat="45.021696" lon="35.356302"><time>1970-01-01T00:00:01.000Z</time></trkpt>
			<trkpt lat="45.021911" lon="35.356731"><time>1970-01-01T00:00:01.000Z</time></trkpt>
			<trkpt lat="45.021932" lon="35.356881"><time>1970-01-01T00:00:01.000Z</time></trkpt>
			<trkpt lat="45.022211" lon="35.357203"><time>1970-01-01T00:00:01.000Z</time></trkpt>
			<trkpt lat="45.022619" lon="35.357525"><time>1970-01-01T00:00:01.000Z</time></trkpt>
			<trkpt lat="45.022834" lon="35.357547"><time>1970-01-01T00:00:01.000Z</time></trkpt>
			<trkpt lat="45.022898" lon="35.357933"><time>1970-01-01T00:00:01.000Z</time></trkpt>
			<trkpt lat="45.022769" lon="35.357783"><time>1970-01-01T00:00:01.000Z</time></trkpt>
			<trkpt lat="45.022619" lon="35.357761"><time>1970-01-01T00:00:01.000Z</time></trkpt>
			<trkpt lat="45.022555" lon="35.357868"><time>1970-01-01T00:00:01.000Z</time></trkpt>
			<trkpt lat="45.022104" lon="35.357890"><time>1970-01-01T00:00:01.000Z</time></trkpt>
			<trkpt lat="45.021782" lon="35.357868"><time>1970-01-01T00:00:01.000Z</time></trkpt>
			<trkpt lat="45.021589" lon="35.357740"><time>1970-01-01T00:00:01.000Z</time></trkpt>
			<trkpt lat="45.021096" lon="35.357547"><time>1970-01-01T00:00:01.000Z</time></trkpt>
			<trkpt lat="45.020945" lon="35.357654"><time>1970-01-01T00:00:01.000Z</time></trkpt>
			<trkpt lat="45.020860" lon="35.357547"><time>1970-01-01T00:00:01.000Z</time></trkpt>
			<trkpt lat="45.020774" lon="35.357589"><time>1970-01-01T00:00:01.000Z</time></trkpt>
			<trkpt lat="45.020645" lon="35.357461"><time>1970-01-01T00:00:01.000Z</time></trkpt>
			<trkpt lat="45.020387" lon="35.357439"><time>1970-01-01T00:00:01.000Z</time></trkpt>
			<trkpt lat="45.020302" lon="35.357504"><time>1970-01-01T00:00:01.000Z</time></trkpt>
			<trkpt lat="45.020216" lon="35.357482"><time>1970-01-01T00:00:01.000Z</time></trkpt>
			<trkpt lat="45.020130" lon="35.357547"><time>1970-01-01T00:00:01.000Z</time></trkpt>
			<trkpt lat="45.019722" lon="35.357418"><time>1970-01-01T00:00:01.000Z</time></trkpt>
			<trkpt lat="45.019572" lon="35.357268"><time>1970-01-01T00:00:01.000Z</time></trkpt>
			<trkpt lat="45.019422" lon="35.357268"><time>1970-01-01T00:00:01.000Z</time></trkpt>
			<trkpt lat="45.019379" lon="35.357547"><time>1970-01-01T00:00:01.000Z</time></trkpt>
			<trkpt lat="45.019250" lon="35.357868"><time>1970-01-01T00:00:01.000Z</time></trkpt>
			<trkpt lat="45.019079" lon="35.358147"><time>1970-01-01T00:00:01.000Z</time></trkpt>
			<trkpt lat="45.018928" lon="35.358104"><time>1970-01-01T00:00:01.000Z</time></trkpt>
			<trkpt lat="45.018800" lon="35.357933"><time>1970-01-01T00:00:01.000Z</time></trkpt>
			<trkpt lat="45.018585" lon="35.357933"><time>1970-01-01T00:00:01.000Z</time></trkpt>
			<trkpt lat="45.017877" lon="35.358770"><time>1970-01-01T00:00:01.000Z</time></trkpt>
			<trkpt lat="45.017448" lon="35.359328"><time>1970-01-01T00:00:01.000Z</time></trkpt>
			<trkpt lat="45.017255" lon="35.359649"><time>1970-01-01T00:00:01.000Z</time></trkpt>
			<trkpt lat="45.016740" lon="35.360250"><time>1970-01-01T00:00:01.000Z</time></trkpt>
			<trkpt lat="45.016675" lon="35.360443"><time>1970-01-01T00:00:01.000Z</time></trkpt>
			<trkpt lat="45.014959" lon="35.362310"><time>1970-01-01T00:00:01.000Z</time></trkpt>
			<trkpt lat="45.014873" lon="35.362353"><time>1970-01-01T00:00:01.000Z</time></trkpt>
			<trkpt lat="45.014658" lon="35.362653"><time>1970-01-01T00:00:01.000Z</time></trkpt>
			<trkpt lat="45.013929" lon="35.363319"><time>1970-01-01T00:00:01.000Z</time></trkpt>
			<trkpt lat="45.013779" lon="35.363598"><time>1970-01-01T00:00:01.000Z</time></trkpt>
			<trkpt lat="45.012470" lon="35.365121"><time>1970-01-01T00:00:01.000Z</time></trkpt>
			<trkpt lat="45.011955" lon="35.365658"><time>1970-01-01T00:00:01.000Z</time></trkpt>
			<trkpt lat="45.011440" lon="35.366580"><time>1970-01-01T00:00:01.000Z</time></trkpt>
			<trkpt lat="45.011354" lon="35.366902"><time>1970-01-01T00:00:01.000Z</time></trkpt>
			<trkpt lat="45.011354" lon="35.367245"><time>1970-01-01T00:00:01.000Z</time></trkpt>
			<trkpt lat="45.011247" lon="35.367524"><time>1970-01-01T00:00:01.000Z</time></trkpt>
			<trkpt lat="45.011096" lon="35.367717"><time>1970-01-01T00:00:01.000Z</time></trkpt>
			<trkpt lat="45.010903" lon="35.367889"><time>1970-01-01T00:00:01.000Z</time></trkpt>
			<trkpt lat="45.010066" lon="35.369606"><time>1970-01-01T00:00:01.000Z</time></trkpt>
			<trkpt lat="45.009680" lon="35.369348"><time>1970-01-01T00:00:01.000Z</time></trkpt>
			<trkpt lat="45.009659" lon="35.368898"><time>1970-01-01T00:00:01.000Z</time></trkpt>
			<trkpt lat="45.009573" lon="35.368790"><time>1970-01-01T00:00:01.000Z</time></trkpt>
			<trkpt lat="45.009530" lon="35.368275"><time>1970-01-01T00:00:01.000Z</time></trkpt>
			<trkpt lat="45.009444" lon="35.367954"><time>1970-01-01T00:00:01.000Z</time></trkpt>
			<trkpt lat="45.009079" lon="35.367524"><time>1970-01-01T00:00:01.000Z</time></trkpt>
			<trkpt lat="45.008929" lon="35.367439"><time>1970-01-01T00:00:01.000Z</time></trkpt>
			<trkpt lat="45.008886" lon="35.367760"><time>1970-01-01T00:00:01.000Z</time></trkpt>
			<trkpt lat="45.008586" lon="35.368554"><time>1970-01-01T00:00:01.000Z</time></trkpt>
			<trkpt lat="45.007706" lon="35.370056"><time>1970-01-01T00:00:01.000Z</time></trkpt>
			<trkpt lat="45.007406" lon="35.370657"><time>1970-01-01T00:00:01.000Z</time></trkpt>
			<trkpt lat="45.006998" lon="35.371129"><time>1970-01-01T00:00:01.000Z</time></trkpt>
			<trkpt lat="45.005453" lon="35.372073"><time>1970-01-01T00:00:01.000Z</time></trkpt>
			<trkpt lat="45.005153" lon="35.371258"><time>1970-01-01T00:00:01.000Z</time></trkpt>
			<trkpt lat="45.005131" lon="35.371000"><time>1970-01-01T00:00:01.000Z</time></trkpt>
			<trkpt lat="45.004766" lon="35.370486"><time>1970-01-01T00:00:01.000Z</time></trkpt>
			<trkpt lat="45.004766" lon="35.370035"><time>1970-01-01T00:00:01.000Z</time></trkpt>
			<trkpt lat="45.005281" lon="35.368790"><time>1970-01-01T00:00:01.000Z</time></trkpt>
			<trkpt lat="45.006054" lon="35.368447"><time>1970-01-01T00:00:01.000Z</time></trkpt>
			<trkpt lat="45.005946" lon="35.368190"><time>1970-01-01T00:00:01.000Z</time></trkpt>
			<trkpt lat="45.005088" lon="35.367310"><time>1970-01-01T00:00:01.000Z</time></trkpt>
			<trkpt lat="45.005024" lon="35.366945"><time>1970-01-01T00:00:01.000Z</time></trkpt>
			<trkpt lat="45.005367" lon="35.365679"><time>1970-01-01T00:00:01.000Z</time></trkpt>
			<trkpt lat="45.005110" lon="35.364864"><time>1970-01-01T00:00:01.000Z</time></trkpt>
			<trkpt lat="45.002621" lon="35.363490"><time>1970-01-01T00:00:01.000Z</time></trkpt>
			<trkpt lat="45.002148" lon="35.362675"><time>1970-01-01T00:00:01.000Z</time></trkpt>
			<trkpt lat="45.000882" lon="35.362246"><time>1970-01-01T00:00:01.000Z</time></trkpt>
			<trkpt lat="44.997986" lon="35.361838"><time>1970-01-01T00:00:01.000Z</time></trkpt>
			<trkpt lat="44.997299" lon="35.360830"><time>1970-01-01T00:00:01.000Z</time></trkpt>
			<trkpt lat="44.997406" lon="35.360379"><time>1970-01-01T00:00:01.000Z</time></trkpt>
			<trkpt lat="44.997042" lon="35.359392"><time>1970-01-01T00:00:01.000Z</time></trkpt>
			<trkpt lat="44.994853" lon="35.360551"><time>1970-01-01T00:00:01.000Z</time></trkpt>
			<trkpt lat="44.994552" lon="35.361023"><time>1970-01-01T00:00:01.000Z</time></trkpt>
			<trkpt lat="44.993587" lon="35.360315"><time>1970-01-01T00:00:01.000Z</time></trkpt>
			<trkpt lat="44.993308" lon="35.359950"><time>1970-01-01T00:00:01.000Z</time></trkpt>
			<trkpt lat="44.992729" lon="35.360100"><time>1970-01-01T00:00:01.000Z</time></trkpt>
			<trkpt lat="44.992535" lon="35.360014"><time>1970-01-01T00:00:01.000Z</time></trkpt>
			<trkpt lat="44.992321" lon="35.359843"><time>1970-01-01T00:00:01.000Z</time></trkpt>
			<trkpt lat="44.991656" lon="35.359499"><time>1970-01-01T00:00:01.000Z</time></trkpt>
			<trkpt lat="44.991119" lon="35.359413"><time>1970-01-01T00:00:01.000Z</time></trkpt>
			<trkpt lat="44.990776" lon="35.359263"><time>1970-01-01T00:00:01.000Z</time></trkpt>
			<trkpt lat="44.990325" lon="35.358920"><time>1970-01-01T00:00:01.000Z</time></trkpt>
			<trkpt lat="44.989918" lon="35.358448"><time>1970-01-01T00:00:01.000Z</time></trkpt>
			<trkpt lat="44.989531" lon="35.358147"><time>1970-01-01T00:00:01.000Z</time></trkpt>
			<trkpt lat="44.989403" lon="35.357997"><time>1970-01-01T00:00:01.000Z</time></trkpt>
			<trkpt lat="44.989295" lon="35.357976"><time>1970-01-01T00:00:01.000Z</time></trkpt>
			<trkpt lat="44.989231" lon="35.358019"><time>1970-01-01T00:00:01.000Z</time></trkpt>
			<trkpt lat="44.989188" lon="35.357933"><time>1970-01-01T00:00:01.000Z</time></trkpt>
			<trkpt lat="44.989167" lon="35.357718"><time>1970-01-01T00:00:01.000Z</time></trkpt>
			<trkpt lat="44.989059" lon="35.357611"><time>1970-01-01T00:00:01.000Z</time></trkpt>
			<trkpt lat="44.988244" lon="35.357482"><time>1970-01-01T00:00:01.000Z</time></trkpt>
			<trkpt lat="44.987750" lon="35.357139"><time>1970-01-01T00:00:01.000Z</time></trkpt>
			<trkpt lat="44.987622" lon="35.356860"><time>1970-01-01T00:00:01.000Z</time></trkpt>
			<trkpt lat="44.987321" lon="35.355937"><time>1970-01-01T00:00:01.000Z</time></trkpt>
			<trkpt lat="44.987042" lon="35.355508"><time>1970-01-01T00:00:01.000Z</time></trkpt>
			<trkpt lat="44.986956" lon="35.355079"><time>1970-01-01T00:00:01.000Z</time></trkpt>
			<trkpt lat="44.986871" lon="35.354907"><time>1970-01-01T00:00:01.000Z</time></trkpt>
			<trkpt lat="44.986549" lon="35.354693"><time>1970-01-01T00:00:01.000Z</time></trkpt>
			<trkpt lat="44.986227" lon="35.354693"><time>1970-01-01T00:00:01.000Z</time></trkpt>
			<trkpt lat="44.986012" lon="35.354736"><time>1970-01-01T00:00:01.000Z</time></trkpt>
			<trkpt lat="44.985218" lon="35.354564"><time>1970-01-01T00:00:01.000Z</time></trkpt>
			<trkpt lat="44.984982" lon="35.354564"><time>1970-01-01T00:00:01.000Z</time></trkpt>
			<trkpt lat="44.984875" lon="35.354736"><time>1970-01-01T00:00:01.000Z</time></trkpt>
			<trkpt lat="44.984639" lon="35.355272"><time>1970-01-01T00:00:01.000Z</time></trkpt>
			<trkpt lat="44.984575" lon="35.355208"><time>1970-01-01T00:00:01.000Z</time></trkpt>
			<trkpt lat="44.984188" lon="35.355057"><time>1970-01-01T00:00:01.000Z</time></trkpt>
			<trkpt lat="44.983394" lon="35.354843"><time>1970-01-01T00:00:01.000Z</time></trkpt>
			<trkpt lat="44.983330" lon="35.354693"><time>1970-01-01T00:00:01.000Z</time></trkpt>
			<trkpt lat="44.983480" lon="35.353942"><time>1970-01-01T00:00:01.000Z</time></trkpt>
			<trkpt lat="44.983416" lon="35.353813"><time>1970-01-01T00:00:01.000Z</time></trkpt>
			<trkpt lat="44.983158" lon="35.353663"><time>1970-01-01T00:00:01.000Z</time></trkpt>
			<trkpt lat="44.982236" lon="35.353319"><time>1970-01-01T00:00:01.000Z</time></trkpt>
			<trkpt lat="44.981613" lon="35.353191"><time>1970-01-01T00:00:01.000Z</time></trkpt>
			<trkpt lat="44.981463" lon="35.353255"><time>1970-01-01T00:00:01.000Z</time></trkpt>
			<trkpt lat="44.981141" lon="35.353148"><time>1970-01-01T00:00:01.000Z</time></trkpt>
			<trkpt lat="44.980884" lon="35.352976"><time>1970-01-01T00:00:01.000Z</time></trkpt>
			<trkpt lat="44.980476" lon="35.352268"><time>1970-01-01T00:00:01.000Z</time></trkpt>
			<trkpt lat="44.979961" lon="35.351817"><time>1970-01-01T00:00:01.000Z</time></trkpt>
			<trkpt lat="44.979747" lon="35.351538"><time>1970-01-01T00:00:01.000Z</time></trkpt>
			<trkpt lat="44.979532" lon="35.351646"><time>1970-01-01T00:00:01.000Z</time></trkpt>
			<trkpt lat="44.979339" lon="35.351925"><time>1970-01-01T00:00:01.000Z</time></trkpt>
			<trkpt lat="44.978974" lon="35.351710"><time>1970-01-01T00:00:01.000Z</time></trkpt>
			<trkpt lat="44.978888" lon="35.351689"><time>1970-01-01T00:00:01.000Z</time></trkpt>
			<trkpt lat="44.978738" lon="35.351753"><time>1970-01-01T00:00:01.000Z</time></trkpt>
			<trkpt lat="44.978566" lon="35.351624"><time>1970-01-01T00:00:01.000Z</time></trkpt>
			<trkpt lat="44.978459" lon="35.351624"><time>1970-01-01T00:00:01.000Z</time></trkpt>
			<trkpt lat="44.977987" lon="35.351925"><time>1970-01-01T00:00:01.000Z</time></trkpt>
			<trkpt lat="44.977644" lon="35.351925"><time>1970-01-01T00:00:01.000Z</time></trkpt>
			<trkpt lat="44.977365" lon="35.352010"><time>1970-01-01T00:00:01.000Z</time></trkpt>
			<trkpt lat="44.977172" lon="35.352354"><time>1970-01-01T00:00:01.000Z</time></trkpt>
			<trkpt lat="44.977064" lon="35.352761"><time>1970-01-01T00:00:01.000Z</time></trkpt>
			<trkpt lat="44.976893" lon="35.352847"><time>1970-01-01T00:00:01.000Z</time></trkpt>
			<trkpt lat="44.976549" lon="35.353319"><time>1970-01-01T00:00:01.000Z</time></trkpt>
			<trkpt lat="44.976485" lon="35.353341"><time>1970-01-01T00:00:01.000Z</time></trkpt>
			<trkpt lat="44.976571" lon="35.353384"><time>1970-01-01T00:00:01.000Z</time></trkpt>
			<trkpt lat="44.976571" lon="35.353341"><time>1970-01-01T00:00:01.000Z</time></trkpt>
			<trkpt lat="44.975820" lon="35.353255"><time>1970-01-01T00:00:01.000Z</time></trkpt>
			<trkpt lat="44.975348" lon="35.353362"><time>1970-01-01T00:00:01.000Z</time></trkpt>
			<trkpt lat="44.974962" lon="35.353555"><time>1970-01-01T00:00:01.000Z</time></trkpt>
			<trkpt lat="44.974790" lon="35.353555"><time>1970-01-01T00:00:01.000Z</time></trkpt>
			<trkpt lat="44.974425" lon="35.353684"><time>1970-01-01T00:00:01.000Z</time></trkpt>
			<trkpt lat="44.973738" lon="35.353512"><time>1970-01-01T00:00:01.000Z</time></trkpt>
			<trkpt lat="44.973352" lon="35.353920"><time>1970-01-01T00:00:01.000Z</time></trkpt>
			<trkpt lat="44.972987" lon="35.353877"><time>1970-01-01T00:00:01.000Z</time></trkpt>
			<trkpt lat="44.972644" lon="35.353598"><time>1970-01-01T00:00:01.000Z</time></trkpt>
			<trkpt lat="44.972451" lon="35.353577"><time>1970-01-01T00:00:01.000Z</time></trkpt>
			<trkpt lat="44.972258" lon="35.353663"><time>1970-01-01T00:00:01.000Z</time></trkpt>
			<trkpt lat="44.972022" lon="35.353684"><time>1970-01-01T00:00:01.000Z</time></trkpt>
			<trkpt lat="44.971528" lon="35.353877"><time>1970-01-01T00:00:01.000Z</time></trkpt>
			<trkpt lat="44.970906" lon="35.353985"><time>1970-01-01T00:00:01.000Z</time></trkpt>
			<trkpt lat="44.970777" lon="35.353942"><time>1970-01-01T00:00:01.000Z</time></trkpt>
			<trkpt lat="44.970563" lon="35.353942"><time>1970-01-01T00:00:01.000Z</time></trkpt>
			<trkpt lat="44.970477" lon="35.353856"><time>1970-01-01T00:00:01.000Z</time></trkpt>
			<trkpt lat="44.970327" lon="35.353384"><time>1970-01-01T00:00:01.000Z</time></trkpt>
			<trkpt lat="44.970219" lon="35.353255"><time>1970-01-01T00:00:01.000Z</time></trkpt>
			<trkpt lat="44.969962" lon="35.353212"><time>1970-01-01T00:00:01.000Z</time></trkpt>
			<trkpt lat="44.969619" lon="35.353298"><time>1970-01-01T00:00:01.000Z</time></trkpt>
			<trkpt lat="44.969318" lon="35.353212"><time>1970-01-01T00:00:01.000Z</time></trkpt>
			<trkpt lat="44.968932" lon="35.353298"><time>1970-01-01T00:00:01.000Z</time></trkpt>
			<trkpt lat="44.967494" lon="35.353749"><time>1970-01-01T00:00:01.000Z</time></trkpt>
			<trkpt lat="44.966529" lon="35.354328"><time>1970-01-01T00:00:01.000Z</time></trkpt>
			<trkpt lat="44.966357" lon="35.354349"><time>1970-01-01T00:00:01.000Z</time></trkpt>
			<trkpt lat="44.966250" lon="35.354414"><time>1970-01-01T00:00:01.000Z</time></trkpt>
			<trkpt lat="44.965649" lon="35.354864"><time>1970-01-01T00:00:01.000Z</time></trkpt>
			<trkpt lat="44.965391" lon="35.355143"><time>1970-01-01T00:00:01.000Z</time></trkpt>
			<trkpt lat="44.965220" lon="35.355229"><time>1970-01-01T00:00:01.000Z</time></trkpt>
			<trkpt lat="44.965048" lon="35.355186"><time>1970-01-01T00:00:01.000Z</time></trkpt>
			<trkpt lat="44.964640" lon="35.354993"><time>1970-01-01T00:00:01.000Z</time></trkpt>
			<trkpt lat="44.963975" lon="35.353963"><time>1970-01-01T00:00:01.000Z</time></trkpt>
			<trkpt lat="44.963975" lon="35.353706"><time>1970-01-01T00:00:01.000Z</time></trkpt>
			<trkpt lat="44.963460" lon="35.352719"><time>1970-01-01T00:00:01.000Z</time></trkpt>
			<trkpt lat="44.963675" lon="35.352332"><time>1970-01-01T00:00:01.000Z</time></trkpt>
			<trkpt lat="44.963804" lon="35.352225"><time>1970-01-01T00:00:01.000Z</time></trkpt>
			<trkpt lat="44.964083" lon="35.351817"><time>1970-01-01T00:00:01.000Z</time></trkpt>
			<trkpt lat="44.964276" lon="35.351259"><time>1970-01-01T00:00:01.000Z</time></trkpt>
			<trkpt lat="44.964383" lon="35.350830"><time>1970-01-01T00:00:01.000Z</time></trkpt>
			<trkpt lat="44.964512" lon="35.350637"><time>1970-01-01T00:00:01.000Z</time></trkpt>
			<trkpt lat="44.964640" lon="35.350101"><time>1970-01-01T00:00:01.000Z</time></trkpt>
			<trkpt lat="44.964876" lon="35.349436"><time>1970-01-01T00:00:01.000Z</time></trkpt>
			<trkpt lat="44.965027" lon="35.349199"><time>1970-01-01T00:00:01.000Z</time></trkpt>
			<trkpt lat="44.965434" lon="35.348234"><time>1970-01-01T00:00:01.000Z</time></trkpt>
			<trkpt lat="44.965778" lon="35.347955"><time>1970-01-01T00:00:01.000Z</time></trkpt>
			<trkpt lat="44.965864" lon="35.347740"><time>1970-01-01T00:00:01.000Z</time></trkpt>
			<trkpt lat="44.966679" lon="35.346989"><time>1970-01-01T00:00:01.000Z</time></trkpt>
			<trkpt lat="44.967494" lon="35.346431"><time>1970-01-01T00:00:01.000Z</time></trkpt>
			<trkpt lat="44.967752" lon="35.345938"><time>1970-01-01T00:00:01.000Z</time></trkpt>
			<trkpt lat="44.967752" lon="35.345208"><time>1970-01-01T00:00:01.000Z</time></trkpt>
			<trkpt lat="44.968181" lon="35.344436"><time>1970-01-01T00:00:01.000Z</time></trkpt>
			<trkpt lat="44.968438" lon="35.344157"><time>1970-01-01T00:00:01.000Z</time></trkpt>
			<trkpt lat="44.968674" lon="35.343535"><time>1970-01-01T00:00:01.000Z</time></trkpt>
			<trkpt lat="44.968760" lon="35.343556"><time>1970-01-01T00:00:01.000Z</time></trkpt>
			<trkpt lat="44.969125" lon="35.343320"><time>1970-01-01T00:00:01.000Z</time></trkpt>
			<trkpt lat="44.969297" lon="35.342998"><time>1970-01-01T00:00:01.000Z</time></trkpt>
			<trkpt lat="44.969383" lon="35.342998"><time>1970-01-01T00:00:01.000Z</time></trkpt>
			<trkpt lat="44.969662" lon="35.342591"><time>1970-01-01T00:00:01.000Z</time></trkpt>
			<trkpt lat="44.969812" lon="35.341904"><time>1970-01-01T00:00:01.000Z</time></trkpt>
			<trkpt lat="44.969769" lon="35.341539"><time>1970-01-01T00:00:01.000Z</time></trkpt>
			<trkpt lat="44.970005" lon="35.340080"><time>1970-01-01T00:00:01.000Z</time></trkpt>
			<trkpt lat="44.970112" lon="35.339586"><time>1970-01-01T00:00:01.000Z</time></trkpt>
			<trkpt lat="44.970219" lon="35.339372"><time>1970-01-01T00:00:01.000Z</time></trkpt>
			<trkpt lat="44.970241" lon="35.338556"><time>1970-01-01T00:00:01.000Z</time></trkpt>
			<trkpt lat="44.970305" lon="35.337956"><time>1970-01-01T00:00:01.000Z</time></trkpt>
			<trkpt lat="44.970155" lon="35.337033"><time>1970-01-01T00:00:01.000Z</time></trkpt>
			<trkpt lat="44.970198" lon="35.336990"><time>1970-01-01T00:00:01.000Z</time></trkpt>
			<trkpt lat="44.970155" lon="35.336647"><time>1970-01-01T00:00:01.000Z</time></trkpt>
			<trkpt lat="44.970155" lon="35.335853"><time>1970-01-01T00:00:01.000Z</time></trkpt>
			<trkpt lat="44.970370" lon="35.334630"><time>1970-01-01T00:00:01.000Z</time></trkpt>
			<trkpt lat="44.970348" lon="35.334522"><time>1970-01-01T00:00:01.000Z</time></trkpt>
			<trkpt lat="44.970434" lon="35.334179"><time>1970-01-01T00:00:01.000Z</time></trkpt>
			<trkpt lat="44.970434" lon="35.333428"><time>1970-01-01T00:00:01.000Z</time></trkpt>
			<trkpt lat="44.970520" lon="35.332956"><time>1970-01-01T00:00:01.000Z</time></trkpt>
			<trkpt lat="44.970541" lon="35.332613"><time>1970-01-01T00:00:01.000Z</time></trkpt>
			<trkpt lat="44.970584" lon="35.332312"><time>1970-01-01T00:00:01.000Z</time></trkpt>
			<trkpt lat="44.970842" lon="35.331711"><time>1970-01-01T00:00:01.000Z</time></trkpt>
			<trkpt lat="44.971013" lon="35.330982"><time>1970-01-01T00:00:01.000Z</time></trkpt>
			<trkpt lat="44.971164" lon="35.329694"><time>1970-01-01T00:00:01.000Z</time></trkpt>
			<trkpt lat="44.971357" lon="35.329008"><time>1970-01-01T00:00:01.000Z</time></trkpt>
			<trkpt lat="44.971421" lon="35.328235"><time>1970-01-01T00:00:01.000Z</time></trkpt>
			<trkpt lat="44.971421" lon="35.327506"><time>1970-01-01T00:00:01.000Z</time></trkpt>
			<trkpt lat="44.971614" lon="35.326905"><time>1970-01-01T00:00:01.000Z</time></trkpt>
			<trkpt lat="44.971721" lon="35.326068"><time>1970-01-01T00:00:01.000Z</time></trkpt>
			<trkpt lat="44.971807" lon="35.325703"><time>1970-01-01T00:00:01.000Z</time></trkpt>
			<trkpt lat="44.971829" lon="35.324888"><time>1970-01-01T00:00:01.000Z</time></trkpt>
			<trkpt lat="44.971936" lon="35.324673"><time>1970-01-01T00:00:01.000Z</time></trkpt>
			<trkpt lat="44.972086" lon="35.324480"><time>1970-01-01T00:00:01.000Z</time></trkpt>
			<trkpt lat="44.972086" lon="35.324330"><time>1970-01-01T00:00:01.000Z</time></trkpt>
			<trkpt lat="44.972151" lon="35.324244"><time>1970-01-01T00:00:01.000Z</time></trkpt>
			<trkpt lat="44.972151" lon="35.324030"><time>1970-01-01T00:00:01.000Z</time></trkpt>
			<trkpt lat="44.972215" lon="35.323815"><time>1970-01-01T00:00:01.000Z</time></trkpt>
			<trkpt lat="44.972194" lon="35.323686"><time>1970-01-01T00:00:01.000Z</time></trkpt>
			<trkpt lat="44.972236" lon="35.323643"><time>1970-01-01T00:00:01.000Z</time></trkpt>
			<trkpt lat="44.972258" lon="35.323493"><time>1970-01-01T00:00:01.000Z</time></trkpt>
			<trkpt lat="44.972236" lon="35.323257"><time>1970-01-01T00:00:01.000Z</time></trkpt>
			<trkpt lat="44.972065" lon="35.322892"><time>1970-01-01T00:00:01.000Z</time></trkpt>
			<trkpt lat="44.971936" lon="35.322377"><time>1970-01-01T00:00:01.000Z</time></trkpt>
			<trkpt lat="44.971893" lon="35.322013"><time>1970-01-01T00:00:01.000Z</time></trkpt>
			<trkpt lat="44.971636" lon="35.321326"><time>1970-01-01T00:00:01.000Z</time></trkpt>
			<trkpt lat="44.971400" lon="35.320232"><time>1970-01-01T00:00:01.000Z</time></trkpt>
			<trkpt lat="44.971443" lon="35.320039"><time>1970-01-01T00:00:01.000Z</time></trkpt>
			<trkpt lat="44.971357" lon="35.319867"><time>1970-01-01T00:00:01.000Z</time></trkpt>
			<trkpt lat="44.971378" lon="35.319802"><time>1970-01-01T00:00:01.000Z</time></trkpt>
			<trkpt lat="44.971314" lon="35.319609"><time>1970-01-01T00:00:01.000Z</time></trkpt>
			<trkpt lat="44.971335" lon="35.319438"><time>1970-01-01T00:00:01.000Z</time></trkpt>
			<trkpt lat="44.971271" lon="35.319330"><time>1970-01-01T00:00:01.000Z</time></trkpt>
			<trkpt lat="44.971228" lon="35.318858"><time>1970-01-01T00:00:01.000Z</time></trkpt>
			<trkpt lat="44.971099" lon="35.318322"><time>1970-01-01T00:00:01.000Z</time></trkpt>
			<trkpt lat="44.971164" lon="35.317700"><time>1970-01-01T00:00:01.000Z</time></trkpt>
			<trkpt lat="44.971121" lon="35.317421"><time>1970-01-01T00:00:01.000Z</time></trkpt>
			<trkpt lat="44.971142" lon="35.317163"><time>1970-01-01T00:00:01.000Z</time></trkpt>
			<trkpt lat="44.971099" lon="35.316992"><time>1970-01-01T00:00:01.000Z</time></trkpt>
			<trkpt lat="44.971206" lon="35.316133"><time>1970-01-01T00:00:01.000Z</time></trkpt>
			<trkpt lat="44.971164" lon="35.315768"><time>1970-01-01T00:00:01.000Z</time></trkpt>
			<trkpt lat="44.971206" lon="35.315404"><time>1970-01-01T00:00:01.000Z</time></trkpt>
			<trkpt lat="44.971378" lon="35.314975"><time>1970-01-01T00:00:01.000Z</time></trkpt>
			<trkpt lat="44.971636" lon="35.313408"><time>1970-01-01T00:00:01.000Z</time></trkpt>
			<trkpt lat="44.971807" lon="35.312228"><time>1970-01-01T00:00:01.000Z</time></trkpt>
			<trkpt lat="44.971872" lon="35.311434"><time>1970-01-01T00:00:01.000Z</time></trkpt>
			<trkpt lat="44.972000" lon="35.310855"><time>1970-01-01T00:00:01.000Z</time></trkpt>
			<trkpt lat="44.972022" lon="35.310619"><time>1970-01-01T00:00:01.000Z</time></trkpt>
			<trkpt lat="44.971979" lon="35.310318"><time>1970-01-01T00:00:01.000Z</time></trkpt>
			<trkpt lat="44.971764" lon="35.310039"><time>1970-01-01T00:00:01.000Z</time></trkpt>
			<trkpt lat="44.971378" lon="35.309717"><time>1970-01-01T00:00:01.000Z</time></trkpt>
			<trkpt lat="44.971292" lon="35.309610"><time>1970-01-01T00:00:01.000Z</time></trkpt>
			<trkpt lat="44.970434" lon="35.310125"><time>1970-01-01T00:00:01.000Z</time></trkpt>
			<trkpt lat="44.970219" lon="35.310189"><time>1970-01-01T00:00:01.000Z</time></trkpt>
			<trkpt lat="44.970005" lon="35.310425"><time>1970-01-01T00:00:01.000Z</time></trkpt>
			<trkpt lat="44.969940" lon="35.310447"><time>1970-01-01T00:00:01.000Z</time></trkpt>
			<trkpt lat="44.969812" lon="35.310361"><time>1970-01-01T00:00:01.000Z</time></trkpt>
			<trkpt lat="44.969619" lon="35.309975"><time>1970-01-01T00:00:01.000Z</time></trkpt>
			<trkpt lat="44.969683" lon="35.309653"><time>1970-01-01T00:00:01.000Z</time></trkpt>
			<trkpt lat="44.969619" lon="35.309031"><time>1970-01-01T00:00:01.000Z</time></trkpt>
			<trkpt lat="44.969554" lon="35.309031"><time>1970-01-01T00:00:01.000Z</time></trkpt>
			<trkpt lat="44.969318" lon="35.309331"><time>1970-01-01T00:00:01.000Z</time></trkpt>
			<trkpt lat="44.969168" lon="35.309267"><time>1970-01-01T00:00:01.000Z</time></trkpt>
			<trkpt lat="44.969039" lon="35.308752"><time>1970-01-01T00:00:01.000Z</time></trkpt>
			<trkpt lat="44.968739" lon="35.307958"><time>1970-01-01T00:00:01.000Z</time></trkpt>
			<trkpt lat="44.968481" lon="35.305512"><time>1970-01-01T00:00:01.000Z</time></trkpt>
			<trkpt lat="44.968310" lon="35.304503"><time>1970-01-01T00:00:01.000Z</time></trkpt>
			<trkpt lat="44.967537" lon="35.301392"><time>1970-01-01T00:00:01.000Z</time></trkpt>
			<trkpt lat="44.967280" lon="35.300576"><time>1970-01-01T00:00:01.000Z</time></trkpt>
			<trkpt lat="44.967387" lon="35.300297"><time>1970-01-01T00:00:01.000Z</time></trkpt>
			<trkpt lat="44.967451" lon="35.299954"><time>1970-01-01T00:00:01.000Z</time></trkpt>
			<trkpt lat="44.967451" lon="35.299439"><time>1970-01-01T00:00:01.000Z</time></trkpt>
			<trkpt lat="44.967215" lon="35.298989"><time>1970-01-01T00:00:01.000Z</time></trkpt>
			<trkpt lat="44.967044" lon="35.298366"><time>1970-01-01T00:00:01.000Z</time></trkpt>
			<trkpt lat="44.966808" lon="35.297744"><time>1970-01-01T00:00:01.000Z</time></trkpt>
			<trkpt lat="44.966529" lon="35.297122"><time>1970-01-01T00:00:01.000Z</time></trkpt>
			<trkpt lat="44.966314" lon="35.296800"><time>1970-01-01T00:00:01.000Z</time></trkpt>
			<trkpt lat="44.966207" lon="35.295362"><time>1970-01-01T00:00:01.000Z</time></trkpt>
			<trkpt lat="44.966786" lon="35.292959"><time>1970-01-01T00:00:01.000Z</time></trkpt>
			<trkpt lat="44.966872" lon="35.292358"><time>1970-01-01T00:00:01.000Z</time></trkpt>
			<trkpt lat="44.967065" lon="35.291865"><time>1970-01-01T00:00:01.000Z</time></trkpt>
			<trkpt lat="44.967130" lon="35.291757"><time>1970-01-01T00:00:01.000Z</time></trkpt>
			<trkpt lat="44.967194" lon="35.291757"><time>1970-01-01T00:00:01.000Z</time></trkpt>
			<trkpt lat="44.967344" lon="35.291478"><time>1970-01-01T00:00:01.000Z</time></trkpt>
			<trkpt lat="44.967430" lon="35.290770"><time>1970-01-01T00:00:01.000Z</time></trkpt>
			<trkpt lat="44.967559" lon="35.290384"><time>1970-01-01T00:00:01.000Z</time></trkpt>
			<trkpt lat="44.967602" lon="35.290448"><time>1970-01-01T00:00:01.000Z</time></trkpt>
			<trkpt lat="44.967602" lon="35.290341"><time>1970-01-01T00:00:01.000Z</time></trkpt>
			<trkpt lat="44.967881" lon="35.289526"><time>1970-01-01T00:00:01.000Z</time></trkpt>
			<trkpt lat="44.968074" lon="35.289440"><time>1970-01-01T00:00:01.000Z</time></trkpt>
			<trkpt lat="44.968503" lon="35.289397"><time>1970-01-01T00:00:01.000Z</time></trkpt>
			<trkpt lat="44.968782" lon="35.289268"><time>1970-01-01T00:00:01.000Z</time></trkpt>
			<trkpt lat="44.968953" lon="35.289118"><time>1970-01-01T00:00:01.000Z</time></trkpt>
			<trkpt lat="44.969232" lon="35.288753"><time>1970-01-01T00:00:01.000Z</time></trkpt>
			<trkpt lat="44.969533" lon="35.288603"><time>1970-01-01T00:00:01.000Z</time></trkpt>
			<trkpt lat="44.969683" lon="35.288689"><time>1970-01-01T00:00:01.000Z</time></trkpt>
			<trkpt lat="44.969812" lon="35.289311"><time>1970-01-01T00:00:01.000Z</time></trkpt>
			<trkpt lat="44.969876" lon="35.289333"><time>1970-01-01T00:00:01.000Z</time></trkpt>
			<trkpt lat="44.969898" lon="35.289311"><time>1970-01-01T00:00:01.000Z</time></trkpt>
			<trkpt lat="44.969962" lon="35.289118"><time>1970-01-01T00:00:01.000Z</time></trkpt>
			<trkpt lat="44.969940" lon="35.287595"><time>1970-01-01T00:00:01.000Z</time></trkpt>
			<trkpt lat="44.970155" lon="35.286286"><time>1970-01-01T00:00:01.000Z</time></trkpt>
			<trkpt lat="44.970241" lon="35.286135"><time>1970-01-01T00:00:01.000Z</time></trkpt>
			<trkpt lat="44.970370" lon="35.286050"><time>1970-01-01T00:00:01.000Z</time></trkpt>
			<trkpt lat="44.970627" lon="35.285535"><time>1970-01-01T00:00:01.000Z</time></trkpt>
			<trkpt lat="44.970799" lon="35.284934"><time>1970-01-01T00:00:01.000Z</time></trkpt>
			<trkpt lat="44.971464" lon="35.284097"><time>1970-01-01T00:00:01.000Z</time></trkpt>
			<trkpt lat="44.971850" lon="35.283367"><time>1970-01-01T00:00:01.000Z</time></trkpt>
			<trkpt lat="44.972129" lon="35.283067"><time>1970-01-01T00:00:01.000Z</time></trkpt>
			<trkpt lat="44.972344" lon="35.282981"><time>1970-01-01T00:00:01.000Z</time></trkpt>
			<trkpt lat="44.972515" lon="35.282981"><time>1970-01-01T00:00:01.000Z</time></trkpt>
			<trkpt lat="44.972859" lon="35.283067"><time>1970-01-01T00:00:01.000Z</time></trkpt>
			<trkpt lat="44.973395" lon="35.283324"><time>1970-01-01T00:00:01.000Z</time></trkpt>
			<trkpt lat="44.973374" lon="35.283303"><time>1970-01-01T00:00:01.000Z</time></trkpt>
			<trkpt lat="44.973588" lon="35.283088"><time>1970-01-01T00:00:01.000Z</time></trkpt>
			<trkpt lat="44.973781" lon="35.283045"><time>1970-01-01T00:00:01.000Z</time></trkpt>
			<trkpt lat="44.973846" lon="35.282938"><time>1970-01-01T00:00:01.000Z</time></trkpt>
			<trkpt lat="44.974339" lon="35.282831"><time>1970-01-01T00:00:01.000Z</time></trkpt>
			<trkpt lat="44.974575" lon="35.282874"><time>1970-01-01T00:00:01.000Z</time></trkpt>
			<trkpt lat="44.974704" lon="35.283217"><time>1970-01-01T00:00:01.000Z</time></trkpt>
			<trkpt lat="44.974897" lon="35.283539"><time>1970-01-01T00:00:01.000Z</time></trkpt>
			<trkpt lat="44.975047" lon="35.283882"><time>1970-01-01T00:00:01.000Z</time></trkpt>
			<trkpt lat="44.975090" lon="35.283839"><time>1970-01-01T00:00:01.000Z</time></trkpt>
			<trkpt lat="44.974661" lon="35.283110"><time>1970-01-01T00:00:01.000Z</time></trkpt>
			<trkpt lat="44.974511" lon="35.282724"><time>1970-01-01T00:00:01.000Z</time></trkpt>
			<trkpt lat="44.974425" lon="35.282294"><time>1970-01-01T00:00:01.000Z</time></trkpt>
			<trkpt lat="44.974447" lon="35.281694"><time>1970-01-01T00:00:01.000Z</time></trkpt>
			<trkpt lat="44.974382" lon="35.281415"><time>1970-01-01T00:00:01.000Z</time></trkpt>
			<trkpt lat="44.974211" lon="35.281136"><time>1970-01-01T00:00:01.000Z</time></trkpt>
			<trkpt lat="44.974017" lon="35.280342"><time>1970-01-01T00:00:01.000Z</time></trkpt>
			<trkpt lat="44.973588" lon="35.279376"><time>1970-01-01T00:00:01.000Z</time></trkpt>
			<trkpt lat="44.973395" lon="35.279097"><time>1970-01-01T00:00:01.000Z</time></trkpt>
			<trkpt lat="44.972623" lon="35.278475"><time>1970-01-01T00:00:01.000Z</time></trkpt>
			<trkpt lat="44.971593" lon="35.277488"><time>1970-01-01T00:00:01.000Z</time></trkpt>
			<trkpt lat="44.971078" lon="35.276544"><time>1970-01-01T00:00:01.000Z</time></trkpt>
			<trkpt lat="44.970992" lon="35.276243"><time>1970-01-01T00:00:01.000Z</time></trkpt>
			<trkpt lat="44.970906" lon="35.276136"><time>1970-01-01T00:00:01.000Z</time></trkpt>
			<trkpt lat="44.970949" lon="35.276115"><time>1970-01-01T00:00:01.000Z</time></trkpt>
			<trkpt lat="44.970928" lon="35.276158"><time>1970-01-01T00:00:01.000Z</time></trkpt>
			<trkpt lat="44.970949" lon="35.276093"><time>1970-01-01T00:00:01.000Z</time></trkpt>
			<trkpt lat="44.970906" lon="35.276179"><time>1970-01-01T00:00:01.000Z</time></trkpt>
			<trkpt lat="44.970863" lon="35.275900"><time>1970-01-01T00:00:01.000Z</time></trkpt>
			<trkpt lat="44.970541" lon="35.275213"><time>1970-01-01T00:00:01.000Z</time></trkpt>
			<trkpt lat="44.970091" lon="35.274484"><time>1970-01-01T00:00:01.000Z</time></trkpt>
			<trkpt lat="44.969747" lon="35.273604"><time>1970-01-01T00:00:01.000Z</time></trkpt>
			<trkpt lat="44.969576" lon="35.272746"><time>1970-01-01T00:00:01.000Z</time></trkpt>
			<trkpt lat="44.969425" lon="35.272209"><time>1970-01-01T00:00:01.000Z</time></trkpt>
			<trkpt lat="44.969232" lon="35.271823"><time>1970-01-01T00:00:01.000Z</time></trkpt>
			<trkpt lat="44.969168" lon="35.271780"><time>1970-01-01T00:00:01.000Z</time></trkpt>
			<trkpt lat="44.969125" lon="35.271673"><time>1970-01-01T00:00:01.000Z</time></trkpt>
			<trkpt lat="44.969039" lon="35.271587"><time>1970-01-01T00:00:01.000Z</time></trkpt>
			<trkpt lat="44.968911" lon="35.271222"><time>1970-01-01T00:00:01.000Z</time></trkpt>
			<trkpt lat="44.968717" lon="35.269849"><time>1970-01-01T00:00:01.000Z</time></trkpt>
			<trkpt lat="44.968438" lon="35.268497"><time>1970-01-01T00:00:01.000Z</time></trkpt>
			<trkpt lat="44.968159" lon="35.267532"><time>1970-01-01T00:00:01.000Z</time></trkpt>
			<trkpt lat="44.967902" lon="35.267253"><time>1970-01-01T00:00:01.000Z</time></trkpt>
			<trkpt lat="44.968031" lon="35.267532"><time>1970-01-01T00:00:01.000Z</time></trkpt>
			<trkpt lat="44.967945" lon="35.267575"><time>1970-01-01T00:00:01.000Z</time></trkpt>
			<trkpt lat="44.967859" lon="35.266952"><time>1970-01-01T00:00:01.000Z</time></trkpt>
			<trkpt lat="44.967752" lon="35.266545"><time>1970-01-01T00:00:01.000Z</time></trkpt>
			<trkpt lat="44.967130" lon="35.264914"><time>1970-01-01T00:00:01.000Z</time></trkpt>
			<trkpt lat="44.966915" lon="35.264570"><time>1970-01-01T00:00:01.000Z</time></trkpt>
			<trkpt lat="44.966615" lon="35.263605"><time>1970-01-01T00:00:01.000Z</time></trkpt>
			<trkpt lat="44.966743" lon="35.263433"><time>1970-01-01T00:00:01.000Z</time></trkpt>
			<trkpt lat="44.966722" lon="35.263347"><time>1970-01-01T00:00:01.000Z</time></trkpt>
			<trkpt lat="44.966400" lon="35.262682"><time>1970-01-01T00:00:01.000Z</time></trkpt>
			<trkpt lat="44.966228" lon="35.262124"><time>1970-01-01T00:00:01.000Z</time></trkpt>
			<trkpt lat="44.965670" lon="35.261180"><time>1970-01-01T00:00:01.000Z</time></trkpt>
			<trkpt lat="44.965520" lon="35.261030"><time>1970-01-01T00:00:01.000Z</time></trkpt>
			<trkpt lat="44.965585" lon="35.260987"><time>1970-01-01T00:00:01.000Z</time></trkpt>
			<trkpt lat="44.965048" lon="35.259850"><time>1970-01-01T00:00:01.000Z</time></trkpt>
			<trkpt lat="44.964962" lon="35.259893"><time>1970-01-01T00:00:01.000Z</time></trkpt>
			<trkpt lat="44.964984" lon="35.259871"><time>1970-01-01T00:00:01.000Z</time></trkpt>
			<trkpt lat="44.964984" lon="35.259936"><time>1970-01-01T00:00:01.000Z</time></trkpt>
			<trkpt lat="44.965005" lon="35.259893"><time>1970-01-01T00:00:01.000Z</time></trkpt>
			<trkpt lat="44.964984" lon="35.259807"><time>1970-01-01T00:00:01.000Z</time></trkpt>
			<trkpt lat="44.965048" lon="35.259893"><time>1970-01-01T00:00:01.000Z</time></trkpt>
			<trkpt lat="44.964962" lon="35.259850"><time>1970-01-01T00:00:01.000Z</time></trkpt>
			<trkpt lat="44.964876" lon="35.259678"><time>1970-01-01T00:00:01.000Z</time></trkpt>
			<trkpt lat="44.964855" lon="35.259549"><time>1970-01-01T00:00:01.000Z</time></trkpt>
			<trkpt lat="44.964447" lon="35.258949"><time>1970-01-01T00:00:01.000Z</time></trkpt>
			<trkpt lat="44.964254" lon="35.258455"><time>1970-01-01T00:00:01.000Z</time></trkpt>
			<trkpt lat="44.964319" lon="35.258412"><time>1970-01-01T00:00:01.000Z</time></trkpt>
			<trkpt lat="44.964211" lon="35.258498"><time>1970-01-01T00:00:01.000Z</time></trkpt>
			<trkpt lat="44.964018" lon="35.258155"><time>1970-01-01T00:00:01.000Z</time></trkpt>
			<trkpt lat="44.963889" lon="35.257983"><time>1970-01-01T00:00:01.000Z</time></trkpt>
			<trkpt lat="44.963782" lon="35.257919"><time>1970-01-01T00:00:01.000Z</time></trkpt>
			<trkpt lat="44.963675" lon="35.257683"><time>1970-01-01T00:00:01.000Z</time></trkpt>
			<trkpt lat="44.963546" lon="35.257597"><time>1970-01-01T00:00:01.000Z</time></trkpt>
			<trkpt lat="44.963482" lon="35.257618"><time>1970-01-01T00:00:01.000Z</time></trkpt>
			<trkpt lat="44.963525" lon="35.257511"><time>1970-01-01T00:00:01.000Z</time></trkpt>
			<trkpt lat="44.963439" lon="35.257318"><time>1970-01-01T00:00:01.000Z</time></trkpt>
			<trkpt lat="44.963417" lon="35.256910"><time>1970-01-01T00:00:01.000Z</time></trkpt>
			<trkpt lat="44.963396" lon="35.256974"><time>1970-01-01T00:00:01.000Z</time></trkpt>
			<trkpt lat="44.963160" lon="35.256695"><time>1970-01-01T00:00:01.000Z</time></trkpt>
			<trkpt lat="44.963181" lon="35.256459"><time>1970-01-01T00:00:01.000Z</time></trkpt>
			<trkpt lat="44.963053" lon="35.256180"><time>1970-01-01T00:00:01.000Z</time></trkpt>
			<trkpt lat="44.962538" lon="35.255515"><time>1970-01-01T00:00:01.000Z</time></trkpt>
			<trkpt lat="44.962409" lon="35.255429"><time>1970-01-01T00:00:01.000Z</time></trkpt>
			<trkpt lat="44.962302" lon="35.255623"><time>1970-01-01T00:00:01.000Z</time></trkpt>
			<trkpt lat="44.962344" lon="35.255515"><time>1970-01-01T00:00:01.000Z</time></trkpt>
			<trkpt lat="44.962344" lon="35.255365"><time>1970-01-01T00:00:01.000Z</time></trkpt>
			<trkpt lat="44.962044" lon="35.254807"><time>1970-01-01T00:00:01.000Z</time></trkpt>
			<trkpt lat="44.961014" lon="35.253477"><time>1970-01-01T00:00:01.000Z</time></trkpt>
			<trkpt lat="44.962924" lon="35.250709"><time>1970-01-01T00:00:01.000Z</time></trkpt>
			<trkpt lat="44.963460" lon="35.251224"><time>1970-01-01T00:00:01.000Z</time></trkpt>
			<trkpt lat="44.963911" lon="35.250752"><time>1970-01-01T00:00:01.000Z</time></trkpt>
			<trkpt lat="44.964061" lon="35.251116"><time>1970-01-01T00:00:01.000Z</time></trkpt>
			<trkpt lat="44.964941" lon="35.251739"><time>1970-01-01T00:00:01.000Z</time></trkpt>
			<trkpt lat="44.965134" lon="35.251739"><time>1970-01-01T00:00:01.000Z</time></trkpt>
			<trkpt lat="44.965198" lon="35.251589"><time>1970-01-01T00:00:01.000Z</time></trkpt>
			<trkpt lat="44.966185" lon="35.252275"><time>1970-01-01T00:00:01.000Z</time></trkpt>
			<trkpt lat="44.967065" lon="35.253133"><time>1970-01-01T00:00:01.000Z</time></trkpt>
			<trkpt lat="44.967044" lon="35.253348"><time>1970-01-01T00:00:01.000Z</time></trkpt>
			<trkpt lat="44.969211" lon="35.253219"><time>1970-01-01T00:00:01.000Z</time></trkpt>
			<trkpt lat="44.971679" lon="35.252511"><time>1970-01-01T00:00:01.000Z</time></trkpt>
			<trkpt lat="44.972666" lon="35.250108"><time>1970-01-01T00:00:01.000Z</time></trkpt>
			<trkpt lat="44.974382" lon="35.248670"><time>1970-01-01T00:00:01.000Z</time></trkpt>
			<trkpt lat="44.975605" lon="35.245623"><time>1970-01-01T00:00:01.000Z</time></trkpt>
			<trkpt lat="44.976421" lon="35.245774"><time>1970-01-01T00:00:01.000Z</time></trkpt>
			<trkpt lat="44.976743" lon="35.243220"><time>1970-01-01T00:00:01.000Z</time></trkpt>
			<trkpt lat="44.976592" lon="35.242576"><time>1970-01-01T00:00:01.000Z</time></trkpt>
			<trkpt lat="44.976099" lon="35.241654"><time>1970-01-01T00:00:01.000Z</time></trkpt>
			<trkpt lat="44.976034" lon="35.241031"><time>1970-01-01T00:00:01.000Z</time></trkpt>
			<trkpt lat="44.976120" lon="35.240817"><time>1970-01-01T00:00:01.000Z</time></trkpt>
			<trkpt lat="44.976507" lon="35.240688"><time>1970-01-01T00:00:01.000Z</time></trkpt>
			<trkpt lat="44.977386" lon="35.238821"><time>1970-01-01T00:00:01.000Z</time></trkpt>
			<trkpt lat="44.977923" lon="35.236933"><time>1970-01-01T00:00:01.000Z</time></trkpt>
			<trkpt lat="44.977966" lon="35.235560"><time>1970-01-01T00:00:01.000Z</time></trkpt>
			<trkpt lat="44.978373" lon="35.233478"><time>1970-01-01T00:00:01.000Z</time></trkpt>
			<trkpt lat="44.979360" lon="35.230925"><time>1970-01-01T00:00:01.000Z</time></trkpt>
			<trkpt lat="44.978974" lon="35.229530"><time>1970-01-01T00:00:01.000Z</time></trkpt>
			<trkpt lat="44.979425" lon="35.228607"><time>1970-01-01T00:00:01.000Z</time></trkpt>
			<trkpt lat="44.980111" lon="35.228436"><time>1970-01-01T00:00:01.000Z</time></trkpt>
			<trkpt lat="44.980111" lon="35.227899"><time>1970-01-01T00:00:01.000Z</time></trkpt>
			<trkpt lat="44.980455" lon="35.227492"><time>1970-01-01T00:00:01.000Z</time></trkpt>
			<trkpt lat="44.980562" lon="35.226311"><time>1970-01-01T00:00:01.000Z</time></trkpt>
			<trkpt lat="44.980476" lon="35.225496"><time>1970-01-01T00:00:01.000Z</time></trkpt>
			<trkpt lat="44.981270" lon="35.222149"><time>1970-01-01T00:00:01.000Z</time></trkpt>
			<trkpt lat="44.981678" lon="35.219638"><time>1970-01-01T00:00:01.000Z</time></trkpt>
			<trkpt lat="44.981699" lon="35.219037"><time>1970-01-01T00:00:01.000Z</time></trkpt>
			<trkpt lat="44.982043" lon="35.217535"><time>1970-01-01T00:00:01.000Z</time></trkpt>
			<trkpt lat="44.982343" lon="35.216891"><time>1970-01-01T00:00:01.000Z</time></trkpt>
			<trkpt lat="44.982472" lon="35.216269"><time>1970-01-01T00:00:01.000Z</time></trkpt>
			<trkpt lat="44.982536" lon="35.215604"><time>1970-01-01T00:00:01.000Z</time></trkpt>
			<trkpt lat="44.982901" lon="35.215218"><time>1970-01-01T00:00:01.000Z</time></trkpt>
			<trkpt lat="44.983373" lon="35.214874"><time>1970-01-01T00:00:01.000Z</time></trkpt>
			<trkpt lat="44.985218" lon="35.212536"><time>1970-01-01T00:00:01.000Z</time></trkpt>
			<trkpt lat="44.985175" lon="35.211763"><time>1970-01-01T00:00:01.000Z</time></trkpt>
			<trkpt lat="44.987278" lon="35.209403"><time>1970-01-01T00:00:01.000Z</time></trkpt>
			<trkpt lat="44.987428" lon="35.208287"><time>1970-01-01T00:00:01.000Z</time></trkpt>
			<trkpt lat="44.988244" lon="35.207407"><time>1970-01-01T00:00:01.000Z</time></trkpt>
			<trkpt lat="44.989446" lon="35.206806"><time>1970-01-01T00:00:01.000Z</time></trkpt>
			<trkpt lat="44.990540" lon="35.201764"><time>1970-01-01T00:00:01.000Z</time></trkpt>
			<trkpt lat="44.990239" lon="35.199167"><time>1970-01-01T00:00:01.000Z</time></trkpt>
			<trkpt lat="44.990025" lon="35.198030"><time>1970-01-01T00:00:01.000Z</time></trkpt>
			<trkpt lat="44.990926" lon="35.197000"><time>1970-01-01T00:00:01.000Z</time></trkpt>
			<trkpt lat="44.992149" lon="35.196142"><time>1970-01-01T00:00:01.000Z</time></trkpt>
			<trkpt lat="44.992750" lon="35.196078"><time>1970-01-01T00:00:01.000Z</time></trkpt>
			<trkpt lat="44.993673" lon="35.195691"><time>1970-01-01T00:00:01.000Z</time></trkpt>
			<trkpt lat="44.994102" lon="35.195627"><time>1970-01-01T00:00:01.000Z</time></trkpt>
			<trkpt lat="44.994896" lon="35.196485"><time>1970-01-01T00:00:01.000Z</time></trkpt>
			<trkpt lat="44.996655" lon="35.193331"><time>1970-01-01T00:00:01.000Z</time></trkpt>
			<trkpt lat="44.999101" lon="35.190305"><time>1970-01-01T00:00:01.000Z</time></trkpt>
			<trkpt lat="45.000282" lon="35.187881"><time>1970-01-01T00:00:01.000Z</time></trkpt>
			<trkpt lat="45.000689" lon="35.187580"><time>1970-01-01T00:00:01.000Z</time></trkpt>
			<trkpt lat="45.001140" lon="35.187838"><time>1970-01-01T00:00:01.000Z</time></trkpt>
			<trkpt lat="45.001784" lon="35.189254"><time>1970-01-01T00:00:01.000Z</time></trkpt>
			<trkpt lat="45.002899" lon="35.189447"><time>1970-01-01T00:00:01.000Z</time></trkpt>
			<trkpt lat="45.004595" lon="35.190263"><time>1970-01-01T00:00:01.000Z</time></trkpt>
			<trkpt lat="45.005560" lon="35.188396"><time>1970-01-01T00:00:01.000Z</time></trkpt>
			<trkpt lat="45.006140" lon="35.187773"><time>1970-01-01T00:00:01.000Z</time></trkpt>
			<trkpt lat="45.007341" lon="35.187173"><time>1970-01-01T00:00:01.000Z</time></trkpt>
			<trkpt lat="45.008543" lon="35.186400"><time>1970-01-01T00:00:01.000Z</time></trkpt>
			<trkpt lat="45.009144" lon="35.186400"><time>1970-01-01T00:00:01.000Z</time></trkpt>
			<trkpt lat="45.011247" lon="35.184984"><time>1970-01-01T00:00:01.000Z</time></trkpt>
			<trkpt lat="45.011890" lon="35.183911"><time>1970-01-01T00:00:01.000Z</time></trkpt>
			<trkpt lat="45.013886" lon="35.181830"><time>1970-01-01T00:00:01.000Z</time></trkpt>
			<trkpt lat="45.014744" lon="35.178568"><time>1970-01-01T00:00:01.000Z</time></trkpt>
			<trkpt lat="45.014766" lon="35.176465"><time>1970-01-01T00:00:01.000Z</time></trkpt>
			<trkpt lat="45.015817" lon="35.173032"><time>1970-01-01T00:00:01.000Z</time></trkpt>
			<trkpt lat="45.016353" lon="35.172109"><time>1970-01-01T00:00:01.000Z</time></trkpt>
			<trkpt lat="45.016289" lon="35.171401"><time>1970-01-01T00:00:01.000Z</time></trkpt>
			<trkpt lat="45.016632" lon="35.169964"><time>1970-01-01T00:00:01.000Z</time></trkpt>
			<trkpt lat="45.016654" lon="35.166230"><time>1970-01-01T00:00:01.000Z</time></trkpt>
			<trkpt lat="45.015688" lon="35.163398"><time>1970-01-01T00:00:01.000Z</time></trkpt>
			<trkpt lat="45.014894" lon="35.162625"><time>1970-01-01T00:00:01.000Z</time></trkpt>
			<trkpt lat="45.014165" lon="35.159471"><time>1970-01-01T00:00:01.000Z</time></trkpt>
			<trkpt lat="45.014530" lon="35.154772"><time>1970-01-01T00:00:01.000Z</time></trkpt>
			<trkpt lat="45.014015" lon="35.154278"><time>1970-01-01T00:00:01.000Z</time></trkpt>
			<trkpt lat="45.014873" lon="35.153806"><time>1970-01-01T00:00:01.000Z</time></trkpt>
			<trkpt lat="45.015688" lon="35.151231"><time>1970-01-01T00:00:01.000Z</time></trkpt>
			<trkpt lat="45.018220" lon="35.150716"><time>1970-01-01T00:00:01.000Z</time></trkpt>
			<trkpt lat="45.018907" lon="35.150501"><time>1970-01-01T00:00:01.000Z</time></trkpt>
			<trkpt lat="45.019229" lon="35.149600"><time>1970-01-01T00:00:01.000Z</time></trkpt>
			<trkpt lat="45.019465" lon="35.148120"><time>1970-01-01T00:00:01.000Z</time></trkpt>
			<trkpt lat="45.020581" lon="35.145845"><time>1970-01-01T00:00:01.000Z</time></trkpt>
			<trkpt lat="45.020173" lon="35.144665"><time>1970-01-01T00:00:01.000Z</time></trkpt>
			<trkpt lat="45.023177" lon="35.143013"><time>1970-01-01T00:00:01.000Z</time></trkpt>
			<trkpt lat="45.024185" lon="35.143099"><time>1970-01-01T00:00:01.000Z</time></trkpt>
			<trkpt lat="45.024121" lon="35.143871"><time>1970-01-01T00:00:01.000Z</time></trkpt>
			<trkpt lat="45.024722" lon="35.144665"><time>1970-01-01T00:00:01.000Z</time></trkpt>
			<trkpt lat="45.024250" lon="35.146382"><time>1970-01-01T00:00:01.000Z</time></trkpt>
			<trkpt lat="45.024271" lon="35.147583"><time>1970-01-01T00:00:01.000Z</time></trkpt>
			<trkpt lat="45.025580" lon="35.146982"><time>1970-01-01T00:00:01.000Z</time></trkpt>
			<trkpt lat="45.026589" lon="35.146467"><time>1970-01-01T00:00:01.000Z</time></trkpt>
			<trkpt lat="45.027039" lon="35.146725"><time>1970-01-01T00:00:01.000Z</time></trkpt>
			<trkpt lat="45.025795" lon="35.140888"><time>1970-01-01T00:00:01.000Z</time></trkpt>
			<trkpt lat="45.023499" lon="35.135824"><time>1970-01-01T00:00:01.000Z</time></trkpt>
			<trkpt lat="45.022512" lon="35.128271"><time>1970-01-01T00:00:01.000Z</time></trkpt>
			<trkpt lat="45.019315" lon="35.124838"><time>1970-01-01T00:00:01.000Z</time></trkpt>
			<trkpt lat="45.019486" lon="35.120632"><time>1970-01-01T00:00:01.000Z</time></trkpt>
			<trkpt lat="45.020731" lon="35.117414"><time>1970-01-01T00:00:01.000Z</time></trkpt>
			<trkpt lat="45.020817" lon="35.116813"><time>1970-01-01T00:00:01.000Z</time></trkpt>
			<trkpt lat="45.021439" lon="35.116255"><time>1970-01-01T00:00:01.000Z</time></trkpt>
			<trkpt lat="45.024829" lon="35.109088"><time>1970-01-01T00:00:01.000Z</time></trkpt>
			<trkpt lat="45.025280" lon="35.108573"><time>1970-01-01T00:00:01.000Z</time></trkpt>
			<trkpt lat="45.025537" lon="35.108208"><time>1970-01-01T00:00:01.000Z</time></trkpt>
			<trkpt lat="45.025065" lon="35.108015"><time>1970-01-01T00:00:01.000Z</time></trkpt>
			<trkpt lat="45.024143" lon="35.107135"><time>1970-01-01T00:00:01.000Z</time></trkpt>
			<trkpt lat="45.023649" lon="35.106599"><time>1970-01-01T00:00:01.000Z</time></trkpt>
			<trkpt lat="45.022769" lon="35.105097"><time>1970-01-01T00:00:01.000Z</time></trkpt>
			<trkpt lat="45.020988" lon="35.102715"><time>1970-01-01T00:00:01.000Z</time></trkpt>
			<trkpt lat="45.021310" lon="35.102501"><time>1970-01-01T00:00:01.000Z</time></trkpt>
			<trkpt lat="45.020902" lon="35.102157"><time>1970-01-01T00:00:01.000Z</time></trkpt>
			<trkpt lat="45.020366" lon="35.101514"><time>1970-01-01T00:00:01.000Z</time></trkpt>
			<trkpt lat="45.020109" lon="35.101363"><time>1970-01-01T00:00:01.000Z</time></trkpt>
			<trkpt lat="45.019894" lon="35.101106"><time>1970-01-01T00:00:01.000Z</time></trkpt>
			<trkpt lat="45.019229" lon="35.100033"><time>1970-01-01T00:00:01.000Z</time></trkpt>
			<trkpt lat="45.019250" lon="35.100076"><time>1970-01-01T00:00:01.000Z</time></trkpt>
			<trkpt lat="45.019207" lon="35.100140"><time>1970-01-01T00:00:01.000Z</time></trkpt>
			<trkpt lat="45.018328" lon="35.100505"><time>1970-01-01T00:00:01.000Z</time></trkpt>
			<trkpt lat="45.018177" lon="35.100527"><time>1970-01-01T00:00:01.000Z</time></trkpt>
			<trkpt lat="45.017941" lon="35.100698"><time>1970-01-01T00:00:01.000Z</time></trkpt>
			<trkpt lat="45.017791" lon="35.100634"><time>1970-01-01T00:00:01.000Z</time></trkpt>
			<trkpt lat="45.017362" lon="35.100805"><time>1970-01-01T00:00:01.000Z</time></trkpt>
			<trkpt lat="45.017212" lon="35.100698"><time>1970-01-01T00:00:01.000Z</time></trkpt>
			<trkpt lat="45.016954" lon="35.100012"><time>1970-01-01T00:00:01.000Z</time></trkpt>
			<trkpt lat="45.016697" lon="35.099110"><time>1970-01-01T00:00:01.000Z</time></trkpt>
			<trkpt lat="45.015817" lon="35.097673"><time>1970-01-01T00:00:01.000Z</time></trkpt>
			<trkpt lat="45.015452" lon="35.096600"><time>1970-01-01T00:00:01.000Z</time></trkpt>
			<trkpt lat="45.015002" lon="35.095634"><time>1970-01-01T00:00:01.000Z</time></trkpt>
			<trkpt lat="45.014208" lon="35.094282"><time>1970-01-01T00:00:01.000Z</time></trkpt>
			<trkpt lat="45.014208" lon="35.094089"><time>1970-01-01T00:00:01.000Z</time></trkpt>
			<trkpt lat="45.013907" lon="35.093767"><time>1970-01-01T00:00:01.000Z</time></trkpt>
			<trkpt lat="45.012234" lon="35.090935"><time>1970-01-01T00:00:01.000Z</time></trkpt>
			<trkpt lat="45.012105" lon="35.090785"><time>1970-01-01T00:00:01.000Z</time></trkpt>
			<trkpt lat="45.011483" lon="35.089690"><time>1970-01-01T00:00:01.000Z</time></trkpt>
			<trkpt lat="45.011075" lon="35.089240"><time>1970-01-01T00:00:01.000Z</time></trkpt>
			<trkpt lat="45.010925" lon="35.089261"><time>1970-01-01T00:00:01.000Z</time></trkpt>
			<trkpt lat="45.009787" lon="35.087952"><time>1970-01-01T00:00:01.000Z</time></trkpt>
			<trkpt lat="45.009551" lon="35.087824"><time>1970-01-01T00:00:01.000Z</time></trkpt>
			<trkpt lat="45.008972" lon="35.086987"><time>1970-01-01T00:00:01.000Z</time></trkpt>
			<trkpt lat="45.008672" lon="35.086837"><time>1970-01-01T00:00:01.000Z</time></trkpt>
			<trkpt lat="45.008157" lon="35.086236"><time>1970-01-01T00:00:01.000Z</time></trkpt>
			<trkpt lat="45.008049" lon="35.085871"><time>1970-01-01T00:00:01.000Z</time></trkpt>
			<trkpt lat="45.007127" lon="35.084862"><time>1970-01-01T00:00:01.000Z</time></trkpt>
			<trkpt lat="45.006633" lon="35.084176"><time>1970-01-01T00:00:01.000Z</time></trkpt>
			<trkpt lat="45.006075" lon="35.083661"><time>1970-01-01T00:00:01.000Z</time></trkpt>
			<trkpt lat="45.005839" lon="35.082931"><time>1970-01-01T00:00:01.000Z</time></trkpt>
			<trkpt lat="45.005668" lon="35.081622"><time>1970-01-01T00:00:01.000Z</time></trkpt>
			<trkpt lat="45.005195" lon="35.080764"><time>1970-01-01T00:00:01.000Z</time></trkpt>
			<trkpt lat="45.005153" lon="35.080077"><time>1970-01-01T00:00:01.000Z</time></trkpt>
			<trkpt lat="45.005260" lon="35.079434"><time>1970-01-01T00:00:01.000Z</time></trkpt>
			<trkpt lat="45.005174" lon="35.078683"><time>1970-01-01T00:00:01.000Z</time></trkpt>
			<trkpt lat="45.005024" lon="35.078489"><time>1970-01-01T00:00:01.000Z</time></trkpt>
			<trkpt lat="45.004959" lon="35.077738"><time>1970-01-01T00:00:01.000Z</time></trkpt>
			<trkpt lat="45.004852" lon="35.077417"><time>1970-01-01T00:00:01.000Z</time></trkpt>
			<trkpt lat="45.004702" lon="35.076558"><time>1970-01-01T00:00:01.000Z</time></trkpt>
			<trkpt lat="45.004616" lon="35.076344"><time>1970-01-01T00:00:01.000Z</time></trkpt>
			<trkpt lat="45.004444" lon="35.076108"><time>1970-01-01T00:00:01.000Z</time></trkpt>
			<trkpt lat="45.004423" lon="35.075507"><time>1970-01-01T00:00:01.000Z</time></trkpt>
			<trkpt lat="45.004230" lon="35.074756"><time>1970-01-01T00:00:01.000Z</time></trkpt>
			<trkpt lat="45.004037" lon="35.074262"><time>1970-01-01T00:00:01.000Z</time></trkpt>
			<trkpt lat="45.003779" lon="35.073790"><time>1970-01-01T00:00:01.000Z</time></trkpt>
			<trkpt lat="45.003500" lon="35.073404"><time>1970-01-01T00:00:01.000Z</time></trkpt>
			<trkpt lat="45.003372" lon="35.073061"><time>1970-01-01T00:00:01.000Z</time></trkpt>
			<trkpt lat="45.003372" lon="35.072696"><time>1970-01-01T00:00:01.000Z</time></trkpt>
			<trkpt lat="45.003050" lon="35.071902"><time>1970-01-01T00:00:01.000Z</time></trkpt>
			<trkpt lat="45.002814" lon="35.071623"><time>1970-01-01T00:00:01.000Z</time></trkpt>
			<trkpt lat="45.002728" lon="35.071451"><time>1970-01-01T00:00:01.000Z</time></trkpt>
			<trkpt lat="45.002685" lon="35.071044"><time>1970-01-01T00:00:01.000Z</time></trkpt>
			<trkpt lat="45.002363" lon="35.070400"><time>1970-01-01T00:00:01.000Z</time></trkpt>
			<trkpt lat="45.002234" lon="35.070314"><time>1970-01-01T00:00:01.000Z</time></trkpt>
			<trkpt lat="45.001912" lon="35.070314"><time>1970-01-01T00:00:01.000Z</time></trkpt>
			<trkpt lat="45.001612" lon="35.070228"><time>1970-01-01T00:00:01.000Z</time></trkpt>
			<trkpt lat="45.001269" lon="35.070357"><time>1970-01-01T00:00:01.000Z</time></trkpt>
			<trkpt lat="45.001033" lon="35.070250"><time>1970-01-01T00:00:01.000Z</time></trkpt>
			<trkpt lat="45.000668" lon="35.069799"><time>1970-01-01T00:00:01.000Z</time></trkpt>
			<trkpt lat="45.000625" lon="35.069649"><time>1970-01-01T00:00:01.000Z</time></trkpt>
			<trkpt lat="45.000518" lon="35.069606"><time>1970-01-01T00:00:01.000Z</time></trkpt>
			<trkpt lat="45.000003" lon="35.069091"><time>1970-01-01T00:00:01.000Z</time></trkpt>
			<trkpt lat="44.999810" lon="35.068984"><time>1970-01-01T00:00:01.000Z</time></trkpt>
			<trkpt lat="44.999681" lon="35.068834"><time>1970-01-01T00:00:01.000Z</time></trkpt>
			<trkpt lat="44.999616" lon="35.068683"><time>1970-01-01T00:00:01.000Z</time></trkpt>
			<trkpt lat="44.999509" lon="35.068018"><time>1970-01-01T00:00:01.000Z</time></trkpt>
			<trkpt lat="44.999402" lon="35.067675"><time>1970-01-01T00:00:01.000Z</time></trkpt>
			<trkpt lat="44.999380" lon="35.067417"><time>1970-01-01T00:00:01.000Z</time></trkpt>
			<trkpt lat="44.999638" lon="35.066945"><time>1970-01-01T00:00:01.000Z</time></trkpt>
			<trkpt lat="44.999209" lon="35.066688"><time>1970-01-01T00:00:01.000Z</time></trkpt>
			<trkpt lat="44.998393" lon="35.065679"><time>1970-01-01T00:00:01.000Z</time></trkpt>
			<trkpt lat="44.997642" lon="35.065314"><time>1970-01-01T00:00:01.000Z</time></trkpt>
			<trkpt lat="44.997127" lon="35.064649"><time>1970-01-01T00:00:01.000Z</time></trkpt>
			<trkpt lat="44.997020" lon="35.064628"><time>1970-01-01T00:00:01.000Z</time></trkpt>
			<trkpt lat="44.997042" lon="35.064628"><time>1970-01-01T00:00:01.000Z</time></trkpt>
			<trkpt lat="44.996891" lon="35.064671"><time>1970-01-01T00:00:01.000Z</time></trkpt>
			<trkpt lat="44.996720" lon="35.064606"><time>1970-01-01T00:00:01.000Z</time></trkpt>
			<trkpt lat="44.996419" lon="35.064327"><time>1970-01-01T00:00:01.000Z</time></trkpt>
			<trkpt lat="44.996162" lon="35.064177"><time>1970-01-01T00:00:01.000Z</time></trkpt>
			<trkpt lat="44.996033" lon="35.063941"><time>1970-01-01T00:00:01.000Z</time></trkpt>
			<trkpt lat="44.995561" lon="35.063641"><time>1970-01-01T00:00:01.000Z</time></trkpt>
			<trkpt lat="44.995454" lon="35.063705"><time>1970-01-01T00:00:01.000Z</time></trkpt>
			<trkpt lat="44.994617" lon="35.064714"><time>1970-01-01T00:00:01.000Z</time></trkpt>
			<trkpt lat="44.994424" lon="35.064885"><time>1970-01-01T00:00:01.000Z</time></trkpt>
			<trkpt lat="44.994231" lon="35.064971"><time>1970-01-01T00:00:01.000Z</time></trkpt>
			<trkpt lat="44.993737" lon="35.064864"><time>1970-01-01T00:00:01.000Z</time></trkpt>
			<trkpt lat="44.993480" lon="35.064714"><time>1970-01-01T00:00:01.000Z</time></trkpt>
			<trkpt lat="44.993244" lon="35.064714"><time>1970-01-01T00:00:01.000Z</time></trkpt>
			<trkpt lat="44.992750" lon="35.064370"><time>1970-01-01T00:00:01.000Z</time></trkpt>
			<trkpt lat="44.992342" lon="35.064499"><time>1970-01-01T00:00:01.000Z</time></trkpt>
			<trkpt lat="44.992042" lon="35.064456"><time>1970-01-01T00:00:01.000Z</time></trkpt>
			<trkpt lat="44.991806" lon="35.064542"><time>1970-01-01T00:00:01.000Z</time></trkpt>
			<trkpt lat="44.991441" lon="35.065014"><time>1970-01-01T00:00:01.000Z</time></trkpt>
			<trkpt lat="44.991312" lon="35.065314"><time>1970-01-01T00:00:01.000Z</time></trkpt>
			<trkpt lat="44.991119" lon="35.065593"><time>1970-01-01T00:00:01.000Z</time></trkpt>
			<trkpt lat="44.991076" lon="35.065765"><time>1970-01-01T00:00:01.000Z</time></trkpt>
			<trkpt lat="44.991098" lon="35.066452"><time>1970-01-01T00:00:01.000Z</time></trkpt>
			<trkpt lat="44.990969" lon="35.067031"><time>1970-01-01T00:00:01.000Z</time></trkpt>
			<trkpt lat="44.990712" lon="35.067568"><time>1970-01-01T00:00:01.000Z</time></trkpt>
			<trkpt lat="44.990475" lon="35.067761"><time>1970-01-01T00:00:01.000Z</time></trkpt>
			<trkpt lat="44.990132" lon="35.068340"><time>1970-01-01T00:00:01.000Z</time></trkpt>
			<trkpt lat="44.990154" lon="35.069048"><time>1970-01-01T00:00:01.000Z</time></trkpt>
			<trkpt lat="44.990046" lon="35.069627"><time>1970-01-01T00:00:01.000Z</time></trkpt>
			<trkpt lat="44.989982" lon="35.069756"><time>1970-01-01T00:00:01.000Z</time></trkpt>
			<trkpt lat="44.989660" lon="35.069670"><time>1970-01-01T00:00:01.000Z</time></trkpt>
			<trkpt lat="44.989510" lon="35.069520"><time>1970-01-01T00:00:01.000Z</time></trkpt>
			<trkpt lat="44.989403" lon="35.069220"><time>1970-01-01T00:00:01.000Z</time></trkpt>
			<trkpt lat="44.988566" lon="35.068447"><time>1970-01-01T00:00:01.000Z</time></trkpt>
			<trkpt lat="44.988180" lon="35.067568"><time>1970-01-01T00:00:01.000Z</time></trkpt>
			<trkpt lat="44.987858" lon="35.066580"><time>1970-01-01T00:00:01.000Z</time></trkpt>
			<trkpt lat="44.987471" lon="35.065894"><time>1970-01-01T00:00:01.000Z</time></trkpt>
			<trkpt lat="44.987042" lon="35.065615"><time>1970-01-01T00:00:01.000Z</time></trkpt>
			<trkpt lat="44.986377" lon="35.065508"><time>1970-01-01T00:00:01.000Z</time></trkpt>
			<trkpt lat="44.985047" lon="35.065572"><time>1970-01-01T00:00:01.000Z</time></trkpt>
			<trkpt lat="44.984811" lon="35.065658"><time>1970-01-01T00:00:01.000Z</time></trkpt>
			<trkpt lat="44.984596" lon="35.065937"><time>1970-01-01T00:00:01.000Z</time></trkpt>
			<trkpt lat="44.984553" lon="35.066580"><time>1970-01-01T00:00:01.000Z</time></trkpt>
			<trkpt lat="44.984446" lon="35.066817"><time>1970-01-01T00:00:01.000Z</time></trkpt>
			<trkpt lat="44.984210" lon="35.066988"><time>1970-01-01T00:00:01.000Z</time></trkpt>
			<trkpt lat="44.983781" lon="35.067074"><time>1970-01-01T00:00:01.000Z</time></trkpt>
			<trkpt lat="44.983416" lon="35.066988"><time>1970-01-01T00:00:01.000Z</time></trkpt>
			<trkpt lat="44.983094" lon="35.067160"><time>1970-01-01T00:00:01.000Z</time></trkpt>
			<trkpt lat="44.983051" lon="35.067310"><time>1970-01-01T00:00:01.000Z</time></trkpt>
			<trkpt lat="44.983115" lon="35.067589"><time>1970-01-01T00:00:01.000Z</time></trkpt>
			<trkpt lat="44.983158" lon="35.068147"><time>1970-01-01T00:00:01.000Z</time></trkpt>
			<trkpt lat="44.983223" lon="35.068490"><time>1970-01-01T00:00:01.000Z</time></trkpt>
			<trkpt lat="44.983201" lon="35.068619"><time>1970-01-01T00:00:01.000Z</time></trkpt>
			<trkpt lat="44.983416" lon="35.069413"><time>1970-01-01T00:00:01.000Z</time></trkpt>
			<trkpt lat="44.983437" lon="35.069606"><time>1970-01-01T00:00:01.000Z</time></trkpt>
			<trkpt lat="44.983545" lon="35.069842"><time>1970-01-01T00:00:01.000Z</time></trkpt>
			<trkpt lat="44.983673" lon="35.070443"><time>1970-01-01T00:00:01.000Z</time></trkpt>
			<trkpt lat="44.983588" lon="35.070829"><time>1970-01-01T00:00:01.000Z</time></trkpt>
			<trkpt lat="44.983394" lon="35.070851"><time>1970-01-01T00:00:01.000Z</time></trkpt>
			<trkpt lat="44.983158" lon="35.070743"><time>1970-01-01T00:00:01.000Z</time></trkpt>
			<trkpt lat="44.983008" lon="35.070443"><time>1970-01-01T00:00:01.000Z</time></trkpt>
			<trkpt lat="44.982729" lon="35.070185"><time>1970-01-01T00:00:01.000Z</time></trkpt>
			<trkpt lat="44.982515" lon="35.069928"><time>1970-01-01T00:00:01.000Z</time></trkpt>
			<trkpt lat="44.982343" lon="35.069799"><time>1970-01-01T00:00:01.000Z</time></trkpt>
			<trkpt lat="44.982064" lon="35.069263"><time>1970-01-01T00:00:01.000Z</time></trkpt>
			<trkpt lat="44.981764" lon="35.069048"><time>1970-01-01T00:00:01.000Z</time></trkpt>
			<trkpt lat="44.981463" lon="35.068490"><time>1970-01-01T00:00:01.000Z</time></trkpt>
			<trkpt lat="44.981270" lon="35.068340"><time>1970-01-01T00:00:01.000Z</time></trkpt>
			<trkpt lat="44.980970" lon="35.068233"><time>1970-01-01T00:00:01.000Z</time></trkpt>
			<trkpt lat="44.980798" lon="35.068125"><time>1970-01-01T00:00:01.000Z</time></trkpt>
			<trkpt lat="44.980562" lon="35.068104"><time>1970-01-01T00:00:01.000Z</time></trkpt>
			<trkpt lat="44.980347" lon="35.067825"><time>1970-01-01T00:00:01.000Z</time></trkpt>
			<trkpt lat="44.980219" lon="35.067460"><time>1970-01-01T00:00:01.000Z</time></trkpt>
			<trkpt lat="44.979940" lon="35.067160"><time>1970-01-01T00:00:01.000Z</time></trkpt>
			<trkpt lat="44.979854" lon="35.066945"><time>1970-01-01T00:00:01.000Z</time></trkpt>
			<trkpt lat="44.979790" lon="35.066602"><time>1970-01-01T00:00:01.000Z</time></trkpt>
			<trkpt lat="44.979790" lon="35.065915"><time>1970-01-01T00:00:01.000Z</time></trkpt>
			<trkpt lat="44.979725" lon="35.065272"><time>1970-01-01T00:00:01.000Z</time></trkpt>
			<trkpt lat="44.979790" lon="35.064306"><time>1970-01-01T00:00:01.000Z</time></trkpt>
			<trkpt lat="44.979768" lon="35.064242"><time>1970-01-01T00:00:01.000Z</time></trkpt>
			<trkpt lat="44.979489" lon="35.064306"><time>1970-01-01T00:00:01.000Z</time></trkpt>
			<trkpt lat="44.979189" lon="35.064606"><time>1970-01-01T00:00:01.000Z</time></trkpt>
			<trkpt lat="44.978373" lon="35.065980"><time>1970-01-01T00:00:01.000Z</time></trkpt>
			<trkpt lat="44.977987" lon="35.066130"><time>1970-01-01T00:00:01.000Z</time></trkpt>
			<trkpt lat="44.977429" lon="35.066065"><time>1970-01-01T00:00:01.000Z</time></trkpt>
			<trkpt lat="44.976936" lon="35.066130"><time>1970-01-01T00:00:01.000Z</time></trkpt>
			<trkpt lat="44.976592" lon="35.066023"><time>1970-01-01T00:00:01.000Z</time></trkpt>
			<trkpt lat="44.976099" lon="35.065422"><time>1970-01-01T00:00:01.000Z</time></trkpt>
			<trkpt lat="44.975219" lon="35.064971"><time>1970-01-01T00:00:01.000Z</time></trkpt>
			<trkpt lat="44.974983" lon="35.064993"><time>1970-01-01T00:00:01.000Z</time></trkpt>
			<trkpt lat="44.974854" lon="35.065057"><time>1970-01-01T00:00:01.000Z</time></trkpt>
			<trkpt lat="44.974447" lon="35.065615"><time>1970-01-01T00:00:01.000Z</time></trkpt>
			<trkpt lat="44.974189" lon="35.065765"><time>1970-01-01T00:00:01.000Z</time></trkpt>
			<trkpt lat="44.973824" lon="35.066194"><time>1970-01-01T00:00:01.000Z</time></trkpt>
			<trkpt lat="44.973202" lon="35.066709"><time>1970-01-01T00:00:01.000Z</time></trkpt>
			<trkpt lat="44.972945" lon="35.066709"><time>1970-01-01T00:00:01.000Z</time></trkpt>
			<trkpt lat="44.972709" lon="35.066409"><time>1970-01-01T00:00:01.000Z</time></trkpt>
			<trkpt lat="44.972601" lon="35.066108"><time>1970-01-01T00:00:01.000Z</time></trkpt>
			<trkpt lat="44.972236" lon="35.065636"><time>1970-01-01T00:00:01.000Z</time></trkpt>
			<trkpt lat="44.972065" lon="35.065357"><time>1970-01-01T00:00:01.000Z</time></trkpt>
			<trkpt lat="44.971743" lon="35.065078"><time>1970-01-01T00:00:01.000Z</time></trkpt>
			<trkpt lat="44.971485" lon="35.064392"><time>1970-01-01T00:00:01.000Z</time></trkpt>
			<trkpt lat="44.971121" lon="35.064091"><time>1970-01-01T00:00:01.000Z</time></trkpt>
			<trkpt lat="44.970455" lon="35.064413"><time>1970-01-01T00:00:01.000Z</time></trkpt>
			<trkpt lat="44.970112" lon="35.064392"><time>1970-01-01T00:00:01.000Z</time></trkpt>
			<trkpt lat="44.969704" lon="35.064027"><time>1970-01-01T00:00:01.000Z</time></trkpt>
			<trkpt lat="44.969554" lon="35.063963"><time>1970-01-01T00:00:01.000Z</time></trkpt>
			<trkpt lat="44.969168" lon="35.063898"><time>1970-01-01T00:00:01.000Z</time></trkpt>
			<trkpt lat="44.968117" lon="35.064521"><time>1970-01-01T00:00:01.000Z</time></trkpt>
			<trkpt lat="44.967494" lon="35.063705"><time>1970-01-01T00:00:01.000Z</time></trkpt>
			<trkpt lat="44.967237" lon="35.063469"><time>1970-01-01T00:00:01.000Z</time></trkpt>
			<trkpt lat="44.967151" lon="35.062997"><time>1970-01-01T00:00:01.000Z</time></trkpt>
			<trkpt lat="44.966379" lon="35.062782"><time>1970-01-01T00:00:01.000Z</time></trkpt>
			<trkpt lat="44.964834" lon="35.062997"><time>1970-01-01T00:00:01.000Z</time></trkpt>
			<trkpt lat="44.963053" lon="35.061946"><time>1970-01-01T00:00:01.000Z</time></trkpt>
			<trkpt lat="44.961937" lon="35.061731"><time>1970-01-01T00:00:01.000Z</time></trkpt>
			<trkpt lat="44.961207" lon="35.061774"><time>1970-01-01T00:00:01.000Z</time></trkpt>
			<trkpt lat="44.960692" lon="35.061967"><time>1970-01-01T00:00:01.000Z</time></trkpt>
			<trkpt lat="44.960349" lon="35.061645"><time>1970-01-01T00:00:01.000Z</time></trkpt>
			<trkpt lat="44.960220" lon="35.061474"><time>1970-01-01T00:00:01.000Z</time></trkpt>
			<trkpt lat="44.960113" lon="35.061216"><time>1970-01-01T00:00:01.000Z</time></trkpt>
			<trkpt lat="44.959405" lon="35.060229"><time>1970-01-01T00:00:01.000Z</time></trkpt>
			<trkpt lat="44.958504" lon="35.059349"><time>1970-01-01T00:00:01.000Z</time></trkpt>
			<trkpt lat="44.958246" lon="35.058877"><time>1970-01-01T00:00:01.000Z</time></trkpt>
			<trkpt lat="44.957881" lon="35.057697"><time>1970-01-01T00:00:01.000Z</time></trkpt>
			<trkpt lat="44.957774" lon="35.057032"><time>1970-01-01T00:00:01.000Z</time></trkpt>
			<trkpt lat="44.957645" lon="35.056946"><time>1970-01-01T00:00:01.000Z</time></trkpt>
			<trkpt lat="44.957409" lon="35.056967"><time>1970-01-01T00:00:01.000Z</time></trkpt>
			<trkpt lat="44.957044" lon="35.057139"><time>1970-01-01T00:00:01.000Z</time></trkpt>
			<trkpt lat="44.956959" lon="35.057440"><time>1970-01-01T00:00:01.000Z</time></trkpt>
			<trkpt lat="44.956658" lon="35.059027"><time>1970-01-01T00:00:01.000Z</time></trkpt>
			<trkpt lat="44.956658" lon="35.059843"><time>1970-01-01T00:00:01.000Z</time></trkpt>
			<trkpt lat="44.956701" lon="35.059950"><time>1970-01-01T00:00:01.000Z</time></trkpt>
			<trkpt lat="44.956401" lon="35.059907"><time>1970-01-01T00:00:01.000Z</time></trkpt>
			<trkpt lat="44.956143" lon="35.060014"><time>1970-01-01T00:00:01.000Z</time></trkpt>
			<trkpt lat="44.955907" lon="35.059950"><time>1970-01-01T00:00:01.000Z</time></trkpt>
			<trkpt lat="44.955585" lon="35.060014"><time>1970-01-01T00:00:01.000Z</time></trkpt>
			<trkpt lat="44.955242" lon="35.060229"><time>1970-01-01T00:00:01.000Z</time></trkpt>
			<trkpt lat="44.954748" lon="35.061474"><time>1970-01-01T00:00:01.000Z</time></trkpt>
			<trkpt lat="44.954384" lon="35.062504"><time>1970-01-01T00:00:01.000Z</time></trkpt>
			<trkpt lat="44.954062" lon="35.063190"><time>1970-01-01T00:00:01.000Z</time></trkpt>
			<trkpt lat="44.953633" lon="35.064799"><time>1970-01-01T00:00:01.000Z</time></trkpt>
			<trkpt lat="44.953397" lon="35.065057"><time>1970-01-01T00:00:01.000Z</time></trkpt>
			<trkpt lat="44.953096" lon="35.065143"><time>1970-01-01T00:00:01.000Z</time></trkpt>
			<trkpt lat="44.952624" lon="35.065486"><time>1970-01-01T00:00:01.000Z</time></trkpt>
			<trkpt lat="44.952538" lon="35.065636"><time>1970-01-01T00:00:01.000Z</time></trkpt>
			<trkpt lat="44.952367" lon="35.065701"><time>1970-01-01T00:00:01.000Z</time></trkpt>
			<trkpt lat="44.952238" lon="35.065872"><time>1970-01-01T00:00:01.000Z</time></trkpt>
			<trkpt lat="44.952195" lon="35.066344"><time>1970-01-01T00:00:01.000Z</time></trkpt>
			<trkpt lat="44.952238" lon="35.066666"><time>1970-01-01T00:00:01.000Z</time></trkpt>
			<trkpt lat="44.952152" lon="35.067010"><time>1970-01-01T00:00:01.000Z</time></trkpt>
			<trkpt lat="44.952131" lon="35.067310"><time>1970-01-01T00:00:01.000Z</time></trkpt>
			<trkpt lat="44.951959" lon="35.068233"><time>1970-01-01T00:00:01.000Z</time></trkpt>
			<trkpt lat="44.952023" lon="35.068576"><time>1970-01-01T00:00:01.000Z</time></trkpt>
			<trkpt lat="44.952131" lon="35.068812"><time>1970-01-01T00:00:01.000Z</time></trkpt>
			<trkpt lat="44.952045" lon="35.068769"><time>1970-01-01T00:00:01.000Z</time></trkpt>
			<trkpt lat="44.951852" lon="35.068791"><time>1970-01-01T00:00:01.000Z</time></trkpt>
			<trkpt lat="44.951573" lon="35.069155"><time>1970-01-01T00:00:01.000Z</time></trkpt>
			<trkpt lat="44.951465" lon="35.069177"><time>1970-01-01T00:00:01.000Z</time></trkpt>
			<trkpt lat="44.951144" lon="35.068683"><time>1970-01-01T00:00:01.000Z</time></trkpt>
			<trkpt lat="44.951015" lon="35.068619"><time>1970-01-01T00:00:01.000Z</time></trkpt>
			<trkpt lat="44.950779" lon="35.068791"><time>1970-01-01T00:00:01.000Z</time></trkpt>
			<trkpt lat="44.950693" lon="35.068984"><time>1970-01-01T00:00:01.000Z</time></trkpt>
			<trkpt lat="44.950457" lon="35.069112"><time>1970-01-01T00:00:01.000Z</time></trkpt>
			<trkpt lat="44.950414" lon="35.069263"><time>1970-01-01T00:00:01.000Z</time></trkpt>
			<trkpt lat="44.950285" lon="35.069413"><time>1970-01-01T00:00:01.000Z</time></trkpt>
			<trkpt lat="44.950178" lon="35.069670"><time>1970-01-01T00:00:01.000Z</time></trkpt>
			<trkpt lat="44.949491" lon="35.070078"><time>1970-01-01T00:00:01.000Z</time></trkpt>
			<trkpt lat="44.949169" lon="35.070786"><time>1970-01-01T00:00:01.000Z</time></trkpt>
			<trkpt lat="44.948891" lon="35.070958"><time>1970-01-01T00:00:01.000Z</time></trkpt>
			<trkpt lat="44.947903" lon="35.071494"><time>1970-01-01T00:00:01.000Z</time></trkpt>
			<trkpt lat="44.947539" lon="35.071408"><time>1970-01-01T00:00:01.000Z</time></trkpt>
			<trkpt lat="44.947388" lon="35.071022"><time>1970-01-01T00:00:01.000Z</time></trkpt>
			<trkpt lat="44.946852" lon="35.070979"><time>1970-01-01T00:00:01.000Z</time></trkpt>
			<trkpt lat="44.946702" lon="35.070936"><time>1970-01-01T00:00:01.000Z</time></trkpt>
			<trkpt lat="44.946616" lon="35.070872"><time>1970-01-01T00:00:01.000Z</time></trkpt>
			<trkpt lat="44.946487" lon="35.070615"><time>1970-01-01T00:00:01.000Z</time></trkpt>
			<trkpt lat="44.946401" lon="35.070250"><time>1970-01-01T00:00:01.000Z</time></trkpt>
			<trkpt lat="44.946080" lon="35.070228"><time>1970-01-01T00:00:01.000Z</time></trkpt>
			<trkpt lat="44.945994" lon="35.070164"><time>1970-01-01T00:00:01.000Z</time></trkpt>
			<trkpt lat="44.945758" lon="35.069434"><time>1970-01-01T00:00:01.000Z</time></trkpt>
			<trkpt lat="44.945264" lon="35.069070"><time>1970-01-01T00:00:01.000Z</time></trkpt>
			<trkpt lat="44.945178" lon="35.068876"><time>1970-01-01T00:00:01.000Z</time></trkpt>
			<trkpt lat="44.944878" lon="35.068597"><time>1970-01-01T00:00:01.000Z</time></trkpt>
			<trkpt lat="44.944749" lon="35.068297"><time>1970-01-01T00:00:01.000Z</time></trkpt>
			<trkpt lat="44.944127" lon="35.067653"><time>1970-01-01T00:00:01.000Z</time></trkpt>
			<trkpt lat="44.943891" lon="35.067203"><time>1970-01-01T00:00:01.000Z</time></trkpt>
			<trkpt lat="44.943097" lon="35.066645"><time>1970-01-01T00:00:01.000Z</time></trkpt>
			<trkpt lat="44.942518" lon="35.066752"><time>1970-01-01T00:00:01.000Z</time></trkpt>
			<trkpt lat="44.942453" lon="35.066731"><time>1970-01-01T00:00:01.000Z</time></trkpt>
			<trkpt lat="44.942131" lon="35.066945"><time>1970-01-01T00:00:01.000Z</time></trkpt>
			<trkpt lat="44.941767" lon="35.066881"><time>1970-01-01T00:00:01.000Z</time></trkpt>
			<trkpt lat="44.941552" lon="35.066967"><time>1970-01-01T00:00:01.000Z</time></trkpt>
			<trkpt lat="44.941144" lon="35.067460"><time>1970-01-01T00:00:01.000Z</time></trkpt>
			<trkpt lat="44.940994" lon="35.067439"><time>1970-01-01T00:00:01.000Z</time></trkpt>
			<trkpt lat="44.940737" lon="35.067610"><time>1970-01-01T00:00:01.000Z</time></trkpt>
			<trkpt lat="44.940543" lon="35.067804"><time>1970-01-01T00:00:01.000Z</time></trkpt>
			<trkpt lat="44.939664" lon="35.068297"><time>1970-01-01T00:00:01.000Z</time></trkpt>
			<trkpt lat="44.939363" lon="35.068254"><time>1970-01-01T00:00:01.000Z</time></trkpt>
			<trkpt lat="44.939020" lon="35.068340"><time>1970-01-01T00:00:01.000Z</time></trkpt>
			<trkpt lat="44.938827" lon="35.068469"><time>1970-01-01T00:00:01.000Z</time></trkpt>
			<trkpt lat="44.938526" lon="35.068855"><time>1970-01-01T00:00:01.000Z</time></trkpt>
			<trkpt lat="44.938205" lon="35.068984"><time>1970-01-01T00:00:01.000Z</time></trkpt>
			<trkpt lat="44.937861" lon="35.069413"><time>1970-01-01T00:00:01.000Z</time></trkpt>
			<trkpt lat="44.937325" lon="35.069606"><time>1970-01-01T00:00:01.000Z</time></trkpt>
			<trkpt lat="44.937067" lon="35.069627"><time>1970-01-01T00:00:01.000Z</time></trkpt>
			<trkpt lat="44.936960" lon="35.069692"><time>1970-01-01T00:00:01.000Z</time></trkpt>
			<trkpt lat="44.936767" lon="35.070250"><time>1970-01-01T00:00:01.000Z</time></trkpt>
			<trkpt lat="44.936617" lon="35.070464"><time>1970-01-01T00:00:01.000Z</time></trkpt>
			<trkpt lat="44.936209" lon="35.070529"><time>1970-01-01T00:00:01.000Z</time></trkpt>
			<trkpt lat="44.935844" lon="35.070443"><time>1970-01-01T00:00:01.000Z</time></trkpt>
			<trkpt lat="44.935372" lon="35.070507"><time>1970-01-01T00:00:01.000Z</time></trkpt>
			<trkpt lat="44.934922" lon="35.070464"><time>1970-01-01T00:00:01.000Z</time></trkpt>
			<trkpt lat="44.934600" lon="35.070615"><time>1970-01-01T00:00:01.000Z</time></trkpt>
			<trkpt lat="44.934342" lon="35.070958"><time>1970-01-01T00:00:01.000Z</time></trkpt>
			<trkpt lat="44.934278" lon="35.071151"><time>1970-01-01T00:00:01.000Z</time></trkpt>
			<trkpt lat="44.933913" lon="35.071623"><time>1970-01-01T00:00:01.000Z</time></trkpt>
			<trkpt lat="44.933827" lon="35.072074"><time>1970-01-01T00:00:01.000Z</time></trkpt>
			<trkpt lat="44.933827" lon="35.072674"><time>1970-01-01T00:00:01.000Z</time></trkpt>
			<trkpt lat="44.933892" lon="35.072975"><time>1970-01-01T00:00:01.000Z</time></trkpt>
			<trkpt lat="44.933870" lon="35.073232"><time>1970-01-01T00:00:01.000Z</time></trkpt>
			<trkpt lat="44.933763" lon="35.073383"><time>1970-01-01T00:00:01.000Z</time></trkpt>
			<trkpt lat="44.933634" lon="35.073425"><time>1970-01-01T00:00:01.000Z</time></trkpt>
			<trkpt lat="44.933505" lon="35.073447"><time>1970-01-01T00:00:01.000Z</time></trkpt>
			<trkpt lat="44.933334" lon="35.073404"><time>1970-01-01T00:00:01.000Z</time></trkpt>
			<trkpt lat="44.933205" lon="35.073554"><time>1970-01-01T00:00:01.000Z</time></trkpt>
			<trkpt lat="44.933183" lon="35.073704"><time>1970-01-01T00:00:01.000Z</time></trkpt>
			<trkpt lat="44.933248" lon="35.073876"><time>1970-01-01T00:00:01.000Z</time></trkpt>
			<trkpt lat="44.933720" lon="35.074370"><time>1970-01-01T00:00:01.000Z</time></trkpt>
			<trkpt lat="44.934771" lon="35.075185"><time>1970-01-01T00:00:01.000Z</time></trkpt>
			<trkpt lat="44.934771" lon="35.075314"><time>1970-01-01T00:00:01.000Z</time></trkpt>
			<trkpt lat="44.934707" lon="35.075271"><time>1970-01-01T00:00:01.000Z</time></trkpt>
			<trkpt lat="44.934621" lon="35.075335"><time>1970-01-01T00:00:01.000Z</time></trkpt>
			<trkpt lat="44.934643" lon="35.075400"><time>1970-01-01T00:00:01.000Z</time></trkpt>
			<trkpt lat="44.934514" lon="35.075485"><time>1970-01-01T00:00:01.000Z</time></trkpt>
			<trkpt lat="44.934793" lon="35.075679"><time>1970-01-01T00:00:01.000Z</time></trkpt>
			<trkpt lat="44.934771" lon="35.075764"><time>1970-01-01T00:00:01.000Z</time></trkpt>
			<trkpt lat="44.934643" lon="35.075764"><time>1970-01-01T00:00:01.000Z</time></trkpt>
			<trkpt lat="44.934514" lon="35.075872"><time>1970-01-01T00:00:01.000Z</time></trkpt>
			<trkpt lat="44.933784" lon="35.076065"><time>1970-01-01T00:00:01.000Z</time></trkpt>
			<trkpt lat="44.933741" lon="35.076279"><time>1970-01-01T00:00:01.000Z</time></trkpt>
			<trkpt lat="44.933570" lon="35.076623"><time>1970-01-01T00:00:01.000Z</time></trkpt>
			<trkpt lat="44.933591" lon="35.076987"><time>1970-01-01T00:00:01.000Z</time></trkpt>
			<trkpt lat="44.933312" lon="35.076472"><time>1970-01-01T00:00:01.000Z</time></trkpt>
			<trkpt lat="44.932347" lon="35.076387"><time>1970-01-01T00:00:01.000Z</time></trkpt>
			<trkpt lat="44.932154" lon="35.076215"><time>1970-01-01T00:00:01.000Z</time></trkpt>
			<trkpt lat="44.931853" lon="35.076108"><time>1970-01-01T00:00:01.000Z</time></trkpt>
			<trkpt lat="44.931724" lon="35.076151"><time>1970-01-01T00:00:01.000Z</time></trkpt>
			<trkpt lat="44.931553" lon="35.076151"><time>1970-01-01T00:00:01.000Z</time></trkpt>
			<trkpt lat="44.931295" lon="35.075893"><time>1970-01-01T00:00:01.000Z</time></trkpt>
			<trkpt lat="44.931124" lon="35.075979"><time>1970-01-01T00:00:01.000Z</time></trkpt>
			<trkpt lat="44.930930" lon="35.076000"><time>1970-01-01T00:00:01.000Z</time></trkpt>
			<trkpt lat="44.930737" lon="35.075807"><time>1970-01-01T00:00:01.000Z</time></trkpt>
			<trkpt lat="44.930351" lon="35.075164"><time>1970-01-01T00:00:01.000Z</time></trkpt>
			<trkpt lat="44.930051" lon="35.074949"><time>1970-01-01T00:00:01.000Z</time></trkpt>
			<trkpt lat="44.929922" lon="35.074970"><time>1970-01-01T00:00:01.000Z</time></trkpt>
			<trkpt lat="44.929836" lon="35.075056"><time>1970-01-01T00:00:01.000Z</time></trkpt>
			<trkpt lat="44.929836" lon="35.075571"><time>1970-01-01T00:00:01.000Z</time></trkpt>
			<trkpt lat="44.929686" lon="35.076151"><time>1970-01-01T00:00:01.000Z</time></trkpt>
			<trkpt lat="44.929536" lon="35.076215"><time>1970-01-01T00:00:01.000Z</time></trkpt>
			<trkpt lat="44.929450" lon="35.076086"><time>1970-01-01T00:00:01.000Z</time></trkpt>
			<trkpt lat="44.928613" lon="35.075378"><time>1970-01-01T00:00:01.000Z</time></trkpt>
			<trkpt lat="44.928463" lon="35.075099"><time>1970-01-01T00:00:01.000Z</time></trkpt>
			<trkpt lat="44.928162" lon="35.075164"><time>1970-01-01T00:00:01.000Z</time></trkpt>
			<trkpt lat="44.927948" lon="35.074799"><time>1970-01-01T00:00:01.000Z</time></trkpt>
			<trkpt lat="44.927540" lon="35.074820"><time>1970-01-01T00:00:01.000Z</time></trkpt>
			<trkpt lat="44.927304" lon="35.074606"><time>1970-01-01T00:00:01.000Z</time></trkpt>
			<trkpt lat="44.927240" lon="35.074241"><time>1970-01-01T00:00:01.000Z</time></trkpt>
			<trkpt lat="44.927111" lon="35.073833"><time>1970-01-01T00:00:01.000Z</time></trkpt>
			<trkpt lat="44.927240" lon="35.073533"><time>1970-01-01T00:00:01.000Z</time></trkpt>
			<trkpt lat="44.927240" lon="35.073361"><time>1970-01-01T00:00:01.000Z</time></trkpt>
			<trkpt lat="44.927218" lon="35.073425"><time>1970-01-01T00:00:01.000Z</time></trkpt>
			<trkpt lat="44.925909" lon="35.074198"><time>1970-01-01T00:00:01.000Z</time></trkpt>
			<trkpt lat="44.925480" lon="35.074563"><time>1970-01-01T00:00:01.000Z</time></trkpt>
			<trkpt lat="44.925330" lon="35.074756"><time>1970-01-01T00:00:01.000Z</time></trkpt>
			<trkpt lat="44.925180" lon="35.075078"><time>1970-01-01T00:00:01.000Z</time></trkpt>
			<trkpt lat="44.924751" lon="35.075700"><time>1970-01-01T00:00:01.000Z</time></trkpt>
			<trkpt lat="44.924794" lon="35.075550"><time>1970-01-01T00:00:01.000Z</time></trkpt>
			<trkpt lat="44.924751" lon="35.075700"><time>1970-01-01T00:00:01.000Z</time></trkpt>
			<trkpt lat="44.924643" lon="35.075850"><time>1970-01-01T00:00:01.000Z</time></trkpt>
			<trkpt lat="44.924214" lon="35.076258"><time>1970-01-01T00:00:01.000Z</time></trkpt>
			<trkpt lat="44.924107" lon="35.076430"><time>1970-01-01T00:00:01.000Z</time></trkpt>
			<trkpt lat="44.923978" lon="35.076902"><time>1970-01-01T00:00:01.000Z</time></trkpt>
			<trkpt lat="44.923892" lon="35.076666"><time>1970-01-01T00:00:01.000Z</time></trkpt>
			<trkpt lat="44.923785" lon="35.077073"><time>1970-01-01T00:00:01.000Z</time></trkpt>
			<trkpt lat="44.923613" lon="35.077438"><time>1970-01-01T00:00:01.000Z</time></trkpt>
			<trkpt lat="44.923291" lon="35.077610"><time>1970-01-01T00:00:01.000Z</time></trkpt>
			<trkpt lat="44.922562" lon="35.078404"><time>1970-01-01T00:00:01.000Z</time></trkpt>
			<trkpt lat="44.922304" lon="35.078640"><time>1970-01-01T00:00:01.000Z</time></trkpt>
			<trkpt lat="44.921811" lon="35.079262"><time>1970-01-01T00:00:01.000Z</time></trkpt>
			<trkpt lat="44.921682" lon="35.079326"><time>1970-01-01T00:00:01.000Z</time></trkpt>
			<trkpt lat="44.921425" lon="35.079605"><time>1970-01-01T00:00:01.000Z</time></trkpt>
			<trkpt lat="44.921274" lon="35.079949"><time>1970-01-01T00:00:01.000Z</time></trkpt>
			<trkpt lat="44.921060" lon="35.080721"><time>1970-01-01T00:00:01.000Z</time></trkpt>
			<trkpt lat="44.920953" lon="35.080828"><time>1970-01-01T00:00:01.000Z</time></trkpt>
			<trkpt lat="44.920523" lon="35.081665"><time>1970-01-01T00:00:01.000Z</time></trkpt>
			<trkpt lat="44.920566" lon="35.081944"><time>1970-01-01T00:00:01.000Z</time></trkpt>
			<trkpt lat="44.920287" lon="35.083232"><time>1970-01-01T00:00:01.000Z</time></trkpt>
			<trkpt lat="44.920223" lon="35.084090"><time>1970-01-01T00:00:01.000Z</time></trkpt>
			<trkpt lat="44.920266" lon="35.084948"><time>1970-01-01T00:00:01.000Z</time></trkpt>
			<trkpt lat="44.920502" lon="35.087008"><time>1970-01-01T00:00:01.000Z</time></trkpt>
			<trkpt lat="44.920352" lon="35.088017"><time>1970-01-01T00:00:01.000Z</time></trkpt>
			<trkpt lat="44.920352" lon="35.088274"><time>1970-01-01T00:00:01.000Z</time></trkpt>
			<trkpt lat="44.920588" lon="35.089884"><time>1970-01-01T00:00:01.000Z</time></trkpt>
			<trkpt lat="44.920781" lon="35.090549"><time>1970-01-01T00:00:01.000Z</time></trkpt>
			<trkpt lat="44.921124" lon="35.090656"><time>1970-01-01T00:00:01.000Z</time></trkpt>
			<trkpt lat="44.921339" lon="35.091321"><time>1970-01-01T00:00:01.000Z</time></trkpt>
			<trkpt lat="44.921897" lon="35.093381"><time>1970-01-01T00:00:01.000Z</time></trkpt>
			<trkpt lat="44.922068" lon="35.093639"><time>1970-01-01T00:00:01.000Z</time></trkpt>
			<trkpt lat="44.922240" lon="35.095184"><time>1970-01-01T00:00:01.000Z</time></trkpt>
			<trkpt lat="44.921854" lon="35.095269"><time>1970-01-01T00:00:01.000Z</time></trkpt>
			<trkpt lat="44.921940" lon="35.096020"><time>1970-01-01T00:00:01.000Z</time></trkpt>
			<trkpt lat="44.921038" lon="35.095913"><time>1970-01-01T00:00:01.000Z</time></trkpt>
			<trkpt lat="44.920910" lon="35.095784"><time>1970-01-01T00:00:01.000Z</time></trkpt>
			<trkpt lat="44.919880" lon="35.095741"><time>1970-01-01T00:00:01.000Z</time></trkpt>
			<trkpt lat="44.919472" lon="35.095913"><time>1970-01-01T00:00:01.000Z</time></trkpt>
			<trkpt lat="44.918378" lon="35.095870"><time>1970-01-01T00:00:01.000Z</time></trkpt>
			<trkpt lat="44.918185" lon="35.095956"><time>1970-01-01T00:00:01.000Z</time></trkpt>
			<trkpt lat="44.918163" lon="35.096128"><time>1970-01-01T00:00:01.000Z</time></trkpt>
			<trkpt lat="44.918013" lon="35.096192"><time>1970-01-01T00:00:01.000Z</time></trkpt>
			<trkpt lat="44.917863" lon="35.095463"><time>1970-01-01T00:00:01.000Z</time></trkpt>
			<trkpt lat="44.917670" lon="35.095527"><time>1970-01-01T00:00:01.000Z</time></trkpt>
			<trkpt lat="44.917562" lon="35.095741"><time>1970-01-01T00:00:01.000Z</time></trkpt>
			<trkpt lat="44.917004" lon="35.096085"><time>1970-01-01T00:00:01.000Z</time></trkpt>
			<trkpt lat="44.915889" lon="35.096643"><time>1970-01-01T00:00:01.000Z</time></trkpt>
			<trkpt lat="44.915395" lon="35.097630"><time>1970-01-01T00:00:01.000Z</time></trkpt>
			<trkpt lat="44.914344" lon="35.098037"><time>1970-01-01T00:00:01.000Z</time></trkpt>
			<trkpt lat="44.913593" lon="35.098917"><time>1970-01-01T00:00:01.000Z</time></trkpt>
			<trkpt lat="44.913206" lon="35.099604"><time>1970-01-01T00:00:01.000Z</time></trkpt>
			<trkpt lat="44.912584" lon="35.100333"><time>1970-01-01T00:00:01.000Z</time></trkpt>
			<trkpt lat="44.912241" lon="35.100934"><time>1970-01-01T00:00:01.000Z</time></trkpt>
			<trkpt lat="44.911833" lon="35.101278"><time>1970-01-01T00:00:01.000Z</time></trkpt>
			<trkpt lat="44.911597" lon="35.101363"><time>1970-01-01T00:00:01.000Z</time></trkpt>
			<trkpt lat="44.911640" lon="35.101406"><time>1970-01-01T00:00:01.000Z</time></trkpt>
			<trkpt lat="44.911597" lon="35.101363"><time>1970-01-01T00:00:01.000Z</time></trkpt>
			<trkpt lat="44.911533" lon="35.101363"><time>1970-01-01T00:00:01.000Z</time></trkpt>
			<trkpt lat="44.911232" lon="35.101621"><time>1970-01-01T00:00:01.000Z</time></trkpt>
			<trkpt lat="44.910567" lon="35.102415"><time>1970-01-01T00:00:01.000Z</time></trkpt>
			<trkpt lat="44.910653" lon="35.102608"><time>1970-01-01T00:00:01.000Z</time></trkpt>
			<trkpt lat="44.910760" lon="35.103166"><time>1970-01-01T00:00:01.000Z</time></trkpt>
			<trkpt lat="44.910739" lon="35.103423"><time>1970-01-01T00:00:01.000Z</time></trkpt>
			<trkpt lat="44.910653" lon="35.103788"><time>1970-01-01T00:00:01.000Z</time></trkpt>
			<trkpt lat="44.910739" lon="35.104110"><time>1970-01-01T00:00:01.000Z</time></trkpt>
			<trkpt lat="44.911447" lon="35.104904"><time>1970-01-01T00:00:01.000Z</time></trkpt>
			<trkpt lat="44.911747" lon="35.105354"><time>1970-01-01T00:00:01.000Z</time></trkpt>
			<trkpt lat="44.910803" lon="35.106749"><time>1970-01-01T00:00:01.000Z</time></trkpt>
			<trkpt lat="44.910610" lon="35.107200"><time>1970-01-01T00:00:01.000Z</time></trkpt>
			<trkpt lat="44.910374" lon="35.107286"><time>1970-01-01T00:00:01.000Z</time></trkpt>
			<trkpt lat="44.910417" lon="35.107393"><time>1970-01-01T00:00:01.000Z</time></trkpt>
			<trkpt lat="44.910546" lon="35.107543"><time>1970-01-01T00:00:01.000Z</time></trkpt>
			<trkpt lat="44.910589" lon="35.107972"><time>1970-01-01T00:00:01.000Z</time></trkpt>
			<trkpt lat="44.910674" lon="35.108316"><time>1970-01-01T00:00:01.000Z</time></trkpt>
			<trkpt lat="44.911082" lon="35.109153"><time>1970-01-01T00:00:01.000Z</time></trkpt>
			<trkpt lat="44.911232" lon="35.109539"><time>1970-01-01T00:00:01.000Z</time></trkpt>
			<trkpt lat="44.911232" lon="35.110461"><time>1970-01-01T00:00:01.000Z</time></trkpt>
			<trkpt lat="44.911168" lon="35.110783"><time>1970-01-01T00:00:01.000Z</time></trkpt>
			<trkpt lat="44.910782" lon="35.111427"><time>1970-01-01T00:00:01.000Z</time></trkpt>
			<trkpt lat="44.910567" lon="35.112307"><time>1970-01-01T00:00:01.000Z</time></trkpt>
			<trkpt lat="44.910267" lon="35.114431"><time>1970-01-01T00:00:01.000Z</time></trkpt>
			<trkpt lat="44.910310" lon="35.115010"><time>1970-01-01T00:00:01.000Z</time></trkpt>
			<trkpt lat="44.910674" lon="35.116899"><time>1970-01-01T00:00:01.000Z</time></trkpt>
			<trkpt lat="44.911125" lon="35.118229"><time>1970-01-01T00:00:01.000Z</time></trkpt>
			<trkpt lat="44.911104" lon="35.118766"><time>1970-01-01T00:00:01.000Z</time></trkpt>
			<trkpt lat="44.911340" lon="35.120053"><time>1970-01-01T00:00:01.000Z</time></trkpt>
			<trkpt lat="44.911340" lon="35.121147"><time>1970-01-01T00:00:01.000Z</time></trkpt>
			<trkpt lat="44.911082" lon="35.121984"><time>1970-01-01T00:00:01.000Z</time></trkpt>
			<trkpt lat="44.910782" lon="35.123186"><time>1970-01-01T00:00:01.000Z</time></trkpt>
			<trkpt lat="44.910760" lon="35.123937"><time>1970-01-01T00:00:01.000Z</time></trkpt>
			<trkpt lat="44.910846" lon="35.125310"><time>1970-01-01T00:00:01.000Z</time></trkpt>
			<trkpt lat="44.910910" lon="35.125503"><time>1970-01-01T00:00:01.000Z</time></trkpt>
			<trkpt lat="44.910910" lon="35.125718"><time>1970-01-01T00:00:01.000Z</time></trkpt>
			<trkpt lat="44.910803" lon="35.126362"><time>1970-01-01T00:00:01.000Z</time></trkpt>
			<trkpt lat="44.910353" lon="35.127134"><time>1970-01-01T00:00:01.000Z</time></trkpt>
			<trkpt lat="44.910202" lon="35.127606"><time>1970-01-01T00:00:01.000Z</time></trkpt>
			<trkpt lat="44.910116" lon="35.128100"><time>1970-01-01T00:00:01.000Z</time></trkpt>
			<trkpt lat="44.910095" lon="35.128529"><time>1970-01-01T00:00:01.000Z</time></trkpt>
			<trkpt lat="44.910610" lon="35.130138"><time>1970-01-01T00:00:01.000Z</time></trkpt>
			<trkpt lat="44.911018" lon="35.131190"><time>1970-01-01T00:00:01.000Z</time></trkpt>
			<trkpt lat="44.910910" lon="35.131554"><time>1970-01-01T00:00:01.000Z</time></trkpt>
			<trkpt lat="44.909752" lon="35.133743"><time>1970-01-01T00:00:01.000Z</time></trkpt>
			<trkpt lat="44.909666" lon="35.134022"><time>1970-01-01T00:00:01.000Z</time></trkpt>
			<trkpt lat="44.909687" lon="35.134644"><time>1970-01-01T00:00:01.000Z</time></trkpt>
			<trkpt lat="44.910181" lon="35.135846"><time>1970-01-01T00:00:01.000Z</time></trkpt>
			<trkpt lat="44.911340" lon="35.136554"><time>1970-01-01T00:00:01.000Z</time></trkpt>
			<trkpt lat="44.912219" lon="35.137498"><time>1970-01-01T00:00:01.000Z</time></trkpt>
			<trkpt lat="44.912241" lon="35.137841"><time>1970-01-01T00:00:01.000Z</time></trkpt>
			<trkpt lat="44.911855" lon="35.139301"><time>1970-01-01T00:00:01.000Z</time></trkpt>
			<trkpt lat="44.910825" lon="35.142369"><time>1970-01-01T00:00:01.000Z</time></trkpt>
			<trkpt lat="44.910910" lon="35.143163"><time>1970-01-01T00:00:01.000Z</time></trkpt>
			<trkpt lat="44.910116" lon="35.143892"><time>1970-01-01T00:00:01.000Z</time></trkpt>
			<trkpt lat="44.909602" lon="35.144086"><time>1970-01-01T00:00:01.000Z</time></trkpt>
			<trkpt lat="44.909966" lon="35.145395"><time>1970-01-01T00:00:01.000Z</time></trkpt>
			<trkpt lat="44.909795" lon="35.146875"><time>1970-01-01T00:00:01.000Z</time></trkpt>
			<trkpt lat="44.909087" lon="35.147927"><time>1970-01-01T00:00:01.000Z</time></trkpt>
			<trkpt lat="44.909280" lon="35.148871"><time>1970-01-01T00:00:01.000Z</time></trkpt>
			<trkpt lat="44.908872" lon="35.149922"><time>1970-01-01T00:00:01.000Z</time></trkpt>
			<trkpt lat="44.907928" lon="35.149514"><time>1970-01-01T00:00:01.000Z</time></trkpt>
			<trkpt lat="44.907542" lon="35.148914"><time>1970-01-01T00:00:01.000Z</time></trkpt>
			<trkpt lat="44.907263" lon="35.149042"><time>1970-01-01T00:00:01.000Z</time></trkpt>
			<trkpt lat="44.907134" lon="35.149021"><time>1970-01-01T00:00:01.000Z</time></trkpt>
			<trkpt lat="44.906619" lon="35.149708"><time>1970-01-01T00:00:01.000Z</time></trkpt>
			<trkpt lat="44.905868" lon="35.149579"><time>1970-01-01T00:00:01.000Z</time></trkpt>
			<trkpt lat="44.905675" lon="35.149579"><time>1970-01-01T00:00:01.000Z</time></trkpt>
			<trkpt lat="44.905503" lon="35.149686"><time>1970-01-01T00:00:01.000Z</time></trkpt>
			<trkpt lat="44.905439" lon="35.149686"><time>1970-01-01T00:00:01.000Z</time></trkpt>
			<trkpt lat="44.905310" lon="35.149557"><time>1970-01-01T00:00:01.000Z</time></trkpt>
			<trkpt lat="44.905138" lon="35.149471"><time>1970-01-01T00:00:01.000Z</time></trkpt>
			<trkpt lat="44.904838" lon="35.149557"><time>1970-01-01T00:00:01.000Z</time></trkpt>
			<trkpt lat="44.904516" lon="35.149557"><time>1970-01-01T00:00:01.000Z</time></trkpt>
			<trkpt lat="44.904452" lon="35.149493"><time>1970-01-01T00:00:01.000Z</time></trkpt>
			<trkpt lat="44.904323" lon="35.149471"><time>1970-01-01T00:00:01.000Z</time></trkpt>
			<trkpt lat="44.904280" lon="35.149429"><time>1970-01-01T00:00:01.000Z</time></trkpt>
			<trkpt lat="44.904108" lon="35.149407"><time>1970-01-01T00:00:01.000Z</time></trkpt>
			<trkpt lat="44.903958" lon="35.149471"><time>1970-01-01T00:00:01.000Z</time></trkpt>
			<trkpt lat="44.903722" lon="35.149708"><time>1970-01-01T00:00:01.000Z</time></trkpt>
			<trkpt lat="44.903250" lon="35.149686"><time>1970-01-01T00:00:01.000Z</time></trkpt>
			<trkpt lat="44.902885" lon="35.149579"><time>1970-01-01T00:00:01.000Z</time></trkpt>
			<trkpt lat="44.902842" lon="35.149622"><time>1970-01-01T00:00:01.000Z</time></trkpt>
			<trkpt lat="44.902671" lon="35.149600"><time>1970-01-01T00:00:01.000Z</time></trkpt>
			<trkpt lat="44.902542" lon="35.149407"><time>1970-01-01T00:00:01.000Z</time></trkpt>
			<trkpt lat="44.902435" lon="35.149150"><time>1970-01-01T00:00:01.000Z</time></trkpt>
			<trkpt lat="44.902370" lon="35.149128"><time>1970-01-01T00:00:01.000Z</time></trkpt>
			<trkpt lat="44.902284" lon="35.148999"><time>1970-01-01T00:00:01.000Z</time></trkpt>
			<trkpt lat="44.902134" lon="35.148956"><time>1970-01-01T00:00:01.000Z</time></trkpt>
			<trkpt lat="44.901426" lon="35.148227"><time>1970-01-01T00:00:01.000Z</time></trkpt>
			<trkpt lat="44.901448" lon="35.147884"><time>1970-01-01T00:00:01.000Z</time></trkpt>
			<trkpt lat="44.901405" lon="35.147841"><time>1970-01-01T00:00:01.000Z</time></trkpt>
			<trkpt lat="44.901340" lon="35.147454"><time>1970-01-01T00:00:01.000Z</time></trkpt>
			<trkpt lat="44.901276" lon="35.147454"><time>1970-01-01T00:00:01.000Z</time></trkpt>
			<trkpt lat="44.900911" lon="35.147626"><time>1970-01-01T00:00:01.000Z</time></trkpt>
			<trkpt lat="44.900739" lon="35.147798"><time>1970-01-01T00:00:01.000Z</time></trkpt>
			<trkpt lat="44.900568" lon="35.147841"><time>1970-01-01T00:00:01.000Z</time></trkpt>
			<trkpt lat="44.900375" lon="35.147969"><time>1970-01-01T00:00:01.000Z</time></trkpt>
			<trkpt lat="44.900246" lon="35.147927"><time>1970-01-01T00:00:01.000Z</time></trkpt>
			<trkpt lat="44.900182" lon="35.147583"><time>1970-01-01T00:00:01.000Z</time></trkpt>
			<trkpt lat="44.899946" lon="35.147669"><time>1970-01-01T00:00:01.000Z</time></trkpt>
			<trkpt lat="44.899710" lon="35.147605"><time>1970-01-01T00:00:01.000Z</time></trkpt>
			<trkpt lat="44.899495" lon="35.147690"><time>1970-01-01T00:00:01.000Z</time></trkpt>
			<trkpt lat="44.899280" lon="35.147605"><time>1970-01-01T00:00:01.000Z</time></trkpt>
			<trkpt lat="44.899130" lon="35.147454"><time>1970-01-01T00:00:01.000Z</time></trkpt>
			<trkpt lat="44.898744" lon="35.147347"><time>1970-01-01T00:00:01.000Z</time></trkpt>
			<trkpt lat="44.898529" lon="35.147304"><time>1970-01-01T00:00:01.000Z</time></trkpt>
			<trkpt lat="44.898057" lon="35.147390"><time>1970-01-01T00:00:01.000Z</time></trkpt>
			<trkpt lat="44.897907" lon="35.147519"><time>1970-01-01T00:00:01.000Z</time></trkpt>
			<trkpt lat="44.897650" lon="35.147884"><time>1970-01-01T00:00:01.000Z</time></trkpt>
			<trkpt lat="44.897285" lon="35.148141"><time>1970-01-01T00:00:01.000Z</time></trkpt>
			<trkpt lat="44.897220" lon="35.148227"><time>1970-01-01T00:00:01.000Z</time></trkpt>
			<trkpt lat="44.897285" lon="35.148098"><time>1970-01-01T00:00:01.000Z</time></trkpt>
			<trkpt lat="44.897714" lon="35.147841"><time>1970-01-01T00:00:01.000Z</time></trkpt>
			<trkpt lat="44.897929" lon="35.147497"><time>1970-01-01T00:00:01.000Z</time></trkpt>
			<trkpt lat="44.897971" lon="35.147347"><time>1970-01-01T00:00:01.000Z</time></trkpt>
			<trkpt lat="44.897971" lon="35.147304"><time>1970-01-01T00:00:01.000Z</time></trkpt>
			<trkpt lat="44.897671" lon="35.147133"><time>1970-01-01T00:00:01.000Z</time></trkpt>
			<trkpt lat="44.897564" lon="35.146961"><time>1970-01-01T00:00:01.000Z</time></trkpt>
			<trkpt lat="44.897349" lon="35.146897"><time>1970-01-01T00:00:01.000Z</time></trkpt>
			<trkpt lat="44.897027" lon="35.146982"><time>1970-01-01T00:00:01.000Z</time></trkpt>
			<trkpt lat="44.896920" lon="35.146961"><time>1970-01-01T00:00:01.000Z</time></trkpt>
			<trkpt lat="44.896534" lon="35.147047"><time>1970-01-01T00:00:01.000Z</time></trkpt>
			<trkpt lat="44.896384" lon="35.147004"><time>1970-01-01T00:00:01.000Z</time></trkpt>
			<trkpt lat="44.896190" lon="35.146832"><time>1970-01-01T00:00:01.000Z</time></trkpt>
			<trkpt lat="44.895847" lon="35.146661"><time>1970-01-01T00:00:01.000Z</time></trkpt>
			<trkpt lat="44.895139" lon="35.146510"><time>1970-01-01T00:00:01.000Z</time></trkpt>
			<trkpt lat="44.894796" lon="35.146639"><time>1970-01-01T00:00:01.000Z</time></trkpt>
			<trkpt lat="44.894195" lon="35.146961"><time>1970-01-01T00:00:01.000Z</time></trkpt>
			<trkpt lat="44.893959" lon="35.146982"><time>1970-01-01T00:00:01.000Z</time></trkpt>
			<trkpt lat="44.893251" lon="35.146510"><time>1970-01-01T00:00:01.000Z</time></trkpt>
			<trkpt lat="44.892865" lon="35.145952"><time>1970-01-01T00:00:01.000Z</time></trkpt>
			<trkpt lat="44.892736" lon="35.145824"><time>1970-01-01T00:00:01.000Z</time></trkpt>
			<trkpt lat="44.892350" lon="35.146060"><time>1970-01-01T00:00:01.000Z</time></trkpt>
			<trkpt lat="44.892028" lon="35.146360"><time>1970-01-01T00:00:01.000Z</time></trkpt>
			<trkpt lat="44.890826" lon="35.147197"><time>1970-01-01T00:00:01.000Z</time></trkpt>
			<trkpt lat="44.889603" lon="35.148442"><time>1970-01-01T00:00:01.000Z</time></trkpt>
			<trkpt lat="44.888938" lon="35.148613"><time>1970-01-01T00:00:01.000Z</time></trkpt>
			<trkpt lat="44.888680" lon="35.148549"><time>1970-01-01T00:00:01.000Z</time></trkpt>
			<trkpt lat="44.888616" lon="35.148570"><time>1970-01-01T00:00:01.000Z</time></trkpt>
			<trkpt lat="44.888659" lon="35.148635"><time>1970-01-01T00:00:01.000Z</time></trkpt>
			<trkpt lat="44.888294" lon="35.149193"><time>1970-01-01T00:00:01.000Z</time></trkpt>
			<trkpt lat="44.888251" lon="35.149793"><time>1970-01-01T00:00:01.000Z</time></trkpt>
			<trkpt lat="44.888144" lon="35.150094"><time>1970-01-01T00:00:01.000Z</time></trkpt>
			<trkpt lat="44.888251" lon="35.150501"><time>1970-01-01T00:00:01.000Z</time></trkpt>
			<trkpt lat="44.888423" lon="35.150888"><time>1970-01-01T00:00:01.000Z</time></trkpt>
			<trkpt lat="44.888358" lon="35.151167"><time>1970-01-01T00:00:01.000Z</time></trkpt>
			<trkpt lat="44.888273" lon="35.151274"><time>1970-01-01T00:00:01.000Z</time></trkpt>
			<trkpt lat="44.887972" lon="35.151424"><time>1970-01-01T00:00:01.000Z</time></trkpt>
			<trkpt lat="44.887951" lon="35.151488"><time>1970-01-01T00:00:01.000Z</time></trkpt>
			<trkpt lat="44.887908" lon="35.151682"><time>1970-01-01T00:00:01.000Z</time></trkpt>
			<trkpt lat="44.887908" lon="35.152669"><time>1970-01-01T00:00:01.000Z</time></trkpt>
			<trkpt lat="44.887865" lon="35.152905"><time>1970-01-01T00:00:01.000Z</time></trkpt>
			<trkpt lat="44.887801" lon="35.153098"><time>1970-01-01T00:00:01.000Z</time></trkpt>
			<trkpt lat="44.887586" lon="35.153012"><time>1970-01-01T00:00:01.000Z</time></trkpt>
			<trkpt lat="44.887564" lon="35.153269"><time>1970-01-01T00:00:01.000Z</time></trkpt>
			<trkpt lat="44.887393" lon="35.153720"><time>1970-01-01T00:00:01.000Z</time></trkpt>
			<trkpt lat="44.887135" lon="35.153634"><time>1970-01-01T00:00:01.000Z</time></trkpt>
			<trkpt lat="44.887028" lon="35.153570"><time>1970-01-01T00:00:01.000Z</time></trkpt>
			<trkpt lat="44.886964" lon="35.153484"><time>1970-01-01T00:00:01.000Z</time></trkpt>
			<trkpt lat="44.886556" lon="35.152690"><time>1970-01-01T00:00:01.000Z</time></trkpt>
			<trkpt lat="44.886492" lon="35.152304"><time>1970-01-01T00:00:01.000Z</time></trkpt>
			<trkpt lat="44.886406" lon="35.152111"><time>1970-01-01T00:00:01.000Z</time></trkpt>
			<trkpt lat="44.886105" lon="35.151660"><time>1970-01-01T00:00:01.000Z</time></trkpt>
			<trkpt lat="44.885698" lon="35.150888"><time>1970-01-01T00:00:01.000Z</time></trkpt>
			<trkpt lat="44.885419" lon="35.150523"><time>1970-01-01T00:00:01.000Z</time></trkpt>
			<trkpt lat="44.885118" lon="35.150287"><time>1970-01-01T00:00:01.000Z</time></trkpt>
			<trkpt lat="44.884754" lon="35.150094"><time>1970-01-01T00:00:01.000Z</time></trkpt>
			<trkpt lat="44.884539" lon="35.149922"><time>1970-01-01T00:00:01.000Z</time></trkpt>
			<trkpt lat="44.883681" lon="35.149386"><time>1970-01-01T00:00:01.000Z</time></trkpt>
			<trkpt lat="44.883573" lon="35.149343"><time>1970-01-01T00:00:01.000Z</time></trkpt>
			<trkpt lat="44.883509" lon="35.149364"><time>1970-01-01T00:00:01.000Z</time></trkpt>
			<trkpt lat="44.883380" lon="35.149278"><time>1970-01-01T00:00:01.000Z</time></trkpt>
			<trkpt lat="44.883101" lon="35.149257"><time>1970-01-01T00:00:01.000Z</time></trkpt>
			<trkpt lat="44.883037" lon="35.149171"><time>1970-01-01T00:00:01.000Z</time></trkpt>
			<trkpt lat="44.882715" lon="35.149021"><time>1970-01-01T00:00:01.000Z</time></trkpt>
			<trkpt lat="44.882050" lon="35.148334"><time>1970-01-01T00:00:01.000Z</time></trkpt>
			<trkpt lat="44.881535" lon="35.147712"><time>1970-01-01T00:00:01.000Z</time></trkpt>
			<trkpt lat="44.881170" lon="35.147476"><time>1970-01-01T00:00:01.000Z</time></trkpt>
			<trkpt lat="44.881127" lon="35.147497"><time>1970-01-01T00:00:01.000Z</time></trkpt>
			<trkpt lat="44.880977" lon="35.147347"><time>1970-01-01T00:00:01.000Z</time></trkpt>
			<trkpt lat="44.880419" lon="35.146961"><time>1970-01-01T00:00:01.000Z</time></trkpt>
			<trkpt lat="44.879968" lon="35.146553"><time>1970-01-01T00:00:01.000Z</time></trkpt>
			<trkpt lat="44.879711" lon="35.146360"><time>1970-01-01T00:00:01.000Z</time></trkpt>
			<trkpt lat="44.879389" lon="35.146188"><time>1970-01-01T00:00:01.000Z</time></trkpt>
			<trkpt lat="44.879346" lon="35.146124"><time>1970-01-01T00:00:01.000Z</time></trkpt>
			<trkpt lat="44.879346" lon="35.146017"><time>1970-01-01T00:00:01.000Z</time></trkpt>
			<trkpt lat="44.879260" lon="35.145952"><time>1970-01-01T00:00:01.000Z</time></trkpt>
			<trkpt lat="44.879024" lon="35.145931"><time>1970-01-01T00:00:01.000Z</time></trkpt>
			<trkpt lat="44.878617" lon="35.145673"><time>1970-01-01T00:00:01.000Z</time></trkpt>
			<trkpt lat="44.878102" lon="35.145459"><time>1970-01-01T00:00:01.000Z</time></trkpt>
			<trkpt lat="44.877823" lon="35.145180"><time>1970-01-01T00:00:01.000Z</time></trkpt>
			<trkpt lat="44.877522" lon="35.145051"><time>1970-01-01T00:00:01.000Z</time></trkpt>
			<trkpt lat="44.877072" lon="35.144729"><time>1970-01-01T00:00:01.000Z</time></trkpt>
			<trkpt lat="44.876943" lon="35.144429"><time>1970-01-01T00:00:01.000Z</time></trkpt>
			<trkpt lat="44.876685" lon="35.144086"><time>1970-01-01T00:00:01.000Z</time></trkpt>
			<trkpt lat="44.875956" lon="35.143699"><time>1970-01-01T00:00:01.000Z</time></trkpt>
			<trkpt lat="44.875655" lon="35.143699"><time>1970-01-01T00:00:01.000Z</time></trkpt>
			<trkpt lat="44.875140" lon="35.143420"><time>1970-01-01T00:00:01.000Z</time></trkpt>
			<trkpt lat="44.874497" lon="35.143206"><time>1970-01-01T00:00:01.000Z</time></trkpt>
			<trkpt lat="44.874304" lon="35.143184"><time>1970-01-01T00:00:01.000Z</time></trkpt>
			<trkpt lat="44.874068" lon="35.143227"><time>1970-01-01T00:00:01.000Z</time></trkpt>
			<trkpt lat="44.873874" lon="35.143206"><time>1970-01-01T00:00:01.000Z</time></trkpt>
			<trkpt lat="44.873660" lon="35.143249"><time>1970-01-01T00:00:01.000Z</time></trkpt>
			<trkpt lat="44.873574" lon="35.143034"><time>1970-01-01T00:00:01.000Z</time></trkpt>
			<trkpt lat="44.873445" lon="35.142884"><time>1970-01-01T00:00:01.000Z</time></trkpt>
			<trkpt lat="44.873359" lon="35.142884"><time>1970-01-01T00:00:01.000Z</time></trkpt>
			<trkpt lat="44.873274" lon="35.143099"><time>1970-01-01T00:00:01.000Z</time></trkpt>
			<trkpt lat="44.873016" lon="35.143249"><time>1970-01-01T00:00:01.000Z</time></trkpt>
			<trkpt lat="44.872845" lon="35.143249"><time>1970-01-01T00:00:01.000Z</time></trkpt>
			<trkpt lat="44.872845" lon="35.143184"><time>1970-01-01T00:00:01.000Z</time></trkpt>
			<trkpt lat="44.872716" lon="35.143184"><time>1970-01-01T00:00:01.000Z</time></trkpt>
			<trkpt lat="44.872608" lon="35.143141"><time>1970-01-01T00:00:01.000Z</time></trkpt>
			<trkpt lat="44.872544" lon="35.143270"><time>1970-01-01T00:00:01.000Z</time></trkpt>
			<trkpt lat="44.872201" lon="35.142970"><time>1970-01-01T00:00:01.000Z</time></trkpt>
			<trkpt lat="44.872051" lon="35.142884"><time>1970-01-01T00:00:01.000Z</time></trkpt>
			<trkpt lat="44.871557" lon="35.142691"><time>1970-01-01T00:00:01.000Z</time></trkpt>
			<trkpt lat="44.871364" lon="35.142648"><time>1970-01-01T00:00:01.000Z</time></trkpt>
			<trkpt lat="44.871235" lon="35.142669"><time>1970-01-01T00:00:01.000Z</time></trkpt>
			<trkpt lat="44.871021" lon="35.142433"><time>1970-01-01T00:00:01.000Z</time></trkpt>
			<trkpt lat="44.870334" lon="35.142240"><time>1970-01-01T00:00:01.000Z</time></trkpt>
			<trkpt lat="44.869926" lon="35.142176"><time>1970-01-01T00:00:01.000Z</time></trkpt>
			<trkpt lat="44.869561" lon="35.142047"><time>1970-01-01T00:00:01.000Z</time></trkpt>
			<trkpt lat="44.869089" lon="35.141575"><time>1970-01-01T00:00:01.000Z</time></trkpt>
			<trkpt lat="44.868896" lon="35.141296"><time>1970-01-01T00:00:01.000Z</time></trkpt>
			<trkpt lat="44.868660" lon="35.141082"><time>1970-01-01T00:00:01.000Z</time></trkpt>
			<trkpt lat="44.868081" lon="35.140288"><time>1970-01-01T00:00:01.000Z</time></trkpt>
			<trkpt lat="44.867931" lon="35.140245"><time>1970-01-01T00:00:01.000Z</time></trkpt>
			<trkpt lat="44.867845" lon="35.140266"><time>1970-01-01T00:00:01.000Z</time></trkpt>
			<trkpt lat="44.867695" lon="35.140245"><time>1970-01-01T00:00:01.000Z</time></trkpt>
			<trkpt lat="44.867587" lon="35.140116"><time>1970-01-01T00:00:01.000Z</time></trkpt>
			<trkpt lat="44.867437" lon="35.139837"><time>1970-01-01T00:00:01.000Z</time></trkpt>
			<trkpt lat="44.867459" lon="35.139429"><time>1970-01-01T00:00:01.000Z</time></trkpt>
			<trkpt lat="44.867416" lon="35.139258"><time>1970-01-01T00:00:01.000Z</time></trkpt>
			<trkpt lat="44.867137" lon="35.138914"><time>1970-01-01T00:00:01.000Z</time></trkpt>
			<trkpt lat="44.867137" lon="35.138936"><time>1970-01-01T00:00:01.000Z</time></trkpt>
			<trkpt lat="44.867158" lon="35.138850"><time>1970-01-01T00:00:01.000Z</time></trkpt>
			<trkpt lat="44.867051" lon="35.138807"><time>1970-01-01T00:00:01.000Z</time></trkpt>
			<trkpt lat="44.867115" lon="35.138914"><time>1970-01-01T00:00:01.000Z</time></trkpt>
			<trkpt lat="44.866987" lon="35.138786"><time>1970-01-01T00:00:01.000Z</time></trkpt>
			<trkpt lat="44.866815" lon="35.138807"><time>1970-01-01T00:00:01.000Z</time></trkpt>
			<trkpt lat="44.866643" lon="35.138893"><time>1970-01-01T00:00:01.000Z</time></trkpt>
			<trkpt lat="44.866321" lon="35.139150"><time>1970-01-01T00:00:01.000Z</time></trkpt>
			<trkpt lat="44.866042" lon="35.139279"><time>1970-01-01T00:00:01.000Z</time></trkpt>
			<trkpt lat="44.865871" lon="35.139258"><time>1970-01-01T00:00:01.000Z</time></trkpt>
			<trkpt lat="44.865206" lon="35.139408"><time>1970-01-01T00:00:01.000Z</time></trkpt>
			<trkpt lat="44.864905" lon="35.139301"><time>1970-01-01T00:00:01.000Z</time></trkpt>
			<trkpt lat="44.864626" lon="35.139022"><time>1970-01-01T00:00:01.000Z</time></trkpt>
			<trkpt lat="44.864433" lon="35.138893"><time>1970-01-01T00:00:01.000Z</time></trkpt>
			<trkpt lat="44.864111" lon="35.138485"><time>1970-01-01T00:00:01.000Z</time></trkpt>
			<trkpt lat="44.863704" lon="35.138185"><time>1970-01-01T00:00:01.000Z</time></trkpt>
			<trkpt lat="44.862631" lon="35.137648"><time>1970-01-01T00:00:01.000Z</time></trkpt>
			<trkpt lat="44.861944" lon="35.137262"><time>1970-01-01T00:00:01.000Z</time></trkpt>
			<trkpt lat="44.860592" lon="35.136361"><time>1970-01-01T00:00:01.000Z</time></trkpt>
			<trkpt lat="44.860528" lon="35.135996"><time>1970-01-01T00:00:01.000Z</time></trkpt>
			<trkpt lat="44.860549" lon="35.135309"><time>1970-01-01T00:00:01.000Z</time></trkpt>
			<trkpt lat="44.860614" lon="35.135095"><time>1970-01-01T00:00:01.000Z</time></trkpt>
			<trkpt lat="44.860764" lon="35.134880"><time>1970-01-01T00:00:01.000Z</time></trkpt>
			<trkpt lat="44.860871" lon="35.134644"><time>1970-01-01T00:00:01.000Z</time></trkpt>
			<trkpt lat="44.860785" lon="35.134279"><time>1970-01-01T00:00:01.000Z</time></trkpt>
			<trkpt lat="44.860721" lon="35.134258"><time>1970-01-01T00:00:01.000Z</time></trkpt>
			<trkpt lat="44.860356" lon="35.133614"><time>1970-01-01T00:00:01.000Z</time></trkpt>
			<trkpt lat="44.859863" lon="35.132584"><time>1970-01-01T00:00:01.000Z</time></trkpt>
			<trkpt lat="44.858811" lon="35.131254"><time>1970-01-01T00:00:01.000Z</time></trkpt>
			<trkpt lat="44.857738" lon="35.129966"><time>1970-01-01T00:00:01.000Z</time></trkpt>
			<trkpt lat="44.857652" lon="35.129709"><time>1970-01-01T00:00:01.000Z</time></trkpt>
			<trkpt lat="44.857717" lon="35.128572"><time>1970-01-01T00:00:01.000Z</time></trkpt>
			<trkpt lat="44.858082" lon="35.127070"><time>1970-01-01T00:00:01.000Z</time></trkpt>
			<trkpt lat="44.858039" lon="35.126855"><time>1970-01-01T00:00:01.000Z</time></trkpt>
			<trkpt lat="44.857931" lon="35.126855"><time>1970-01-01T00:00:01.000Z</time></trkpt>
			<trkpt lat="44.856901" lon="35.127177"><time>1970-01-01T00:00:01.000Z</time></trkpt>
			<trkpt lat="44.856301" lon="35.127606"><time>1970-01-01T00:00:01.000Z</time></trkpt>
			<trkpt lat="44.855936" lon="35.127713"><time>1970-01-01T00:00:01.000Z</time></trkpt>
			<trkpt lat="44.855764" lon="35.127713"><time>1970-01-01T00:00:01.000Z</time></trkpt>
			<trkpt lat="44.854713" lon="35.127413"><time>1970-01-01T00:00:01.000Z</time></trkpt>
			<trkpt lat="44.854520" lon="35.127477"><time>1970-01-01T00:00:01.000Z</time></trkpt>
			<trkpt lat="44.854305" lon="35.127327"><time>1970-01-01T00:00:01.000Z</time></trkpt>
			<trkpt lat="44.854434" lon="35.127477"><time>1970-01-01T00:00:01.000Z</time></trkpt>
			<trkpt lat="44.853576" lon="35.128894"><time>1970-01-01T00:00:01.000Z</time></trkpt>
			<trkpt lat="44.853447" lon="35.128979"><time>1970-01-01T00:00:01.000Z</time></trkpt>
			<trkpt lat="44.853297" lon="35.128958"><time>1970-01-01T00:00:01.000Z</time></trkpt>
			<trkpt lat="44.853125" lon="35.128872"><time>1970-01-01T00:00:01.000Z</time></trkpt>
			<trkpt lat="44.852395" lon="35.128228"><time>1970-01-01T00:00:01.000Z</time></trkpt>
			<trkpt lat="44.852288" lon="35.128293"><time>1970-01-01T00:00:01.000Z</time></trkpt>
			<trkpt lat="44.851966" lon="35.129645"><time>1970-01-01T00:00:01.000Z</time></trkpt>
			<trkpt lat="44.851880" lon="35.129816"><time>1970-01-01T00:00:01.000Z</time></trkpt>
			<trkpt lat="44.851644" lon="35.130095"><time>1970-01-01T00:00:01.000Z</time></trkpt>
			<trkpt lat="44.851537" lon="35.130310"><time>1970-01-01T00:00:01.000Z</time></trkpt>
			<trkpt lat="44.851494" lon="35.130524"><time>1970-01-01T00:00:01.000Z</time></trkpt>
			<trkpt lat="44.851473" lon="35.131125"><time>1970-01-01T00:00:01.000Z</time></trkpt>
			<trkpt lat="44.851430" lon="35.131318"><time>1970-01-01T00:00:01.000Z</time></trkpt>
			<trkpt lat="44.851430" lon="35.131962"><time>1970-01-01T00:00:01.000Z</time></trkpt>
			<trkpt lat="44.851237" lon="35.132456"><time>1970-01-01T00:00:01.000Z</time></trkpt>
			<trkpt lat="44.850958" lon="35.133614"><time>1970-01-01T00:00:01.000Z</time></trkpt>
			<trkpt lat="44.850872" lon="35.133657"><time>1970-01-01T00:00:01.000Z</time></trkpt>
			<trkpt lat="44.850507" lon="35.133571"><time>1970-01-01T00:00:01.000Z</time></trkpt>
			<trkpt lat="44.850164" lon="35.133378"><time>1970-01-01T00:00:01.000Z</time></trkpt>
			<trkpt lat="44.849971" lon="35.133335"><time>1970-01-01T00:00:01.000Z</time></trkpt>
			<trkpt lat="44.849756" lon="35.133121"><time>1970-01-01T00:00:01.000Z</time></trkpt>
			<trkpt lat="44.849499" lon="35.133099"><time>1970-01-01T00:00:01.000Z</time></trkpt>
			<trkpt lat="44.849048" lon="35.132692"><time>1970-01-01T00:00:01.000Z</time></trkpt>
			<trkpt lat="44.848898" lon="35.132799"><time>1970-01-01T00:00:01.000Z</time></trkpt>
			<trkpt lat="44.848790" lon="35.132692"><time>1970-01-01T00:00:01.000Z</time></trkpt>
			<trkpt lat="44.848533" lon="35.132627"><time>1970-01-01T00:00:01.000Z</time></trkpt>
			<trkpt lat="44.848233" lon="35.132670"><time>1970-01-01T00:00:01.000Z</time></trkpt>
			<trkpt lat="44.848168" lon="35.132756"><time>1970-01-01T00:00:01.000Z</time></trkpt>
			<trkpt lat="44.848125" lon="35.132734"><time>1970-01-01T00:00:01.000Z</time></trkpt>
			<trkpt lat="44.848190" lon="35.132756"><time>1970-01-01T00:00:01.000Z</time></trkpt>
			<trkpt lat="44.848147" lon="35.132713"><time>1970-01-01T00:00:01.000Z</time></trkpt>
			<trkpt lat="44.847803" lon="35.132670"><time>1970-01-01T00:00:01.000Z</time></trkpt>
			<trkpt lat="44.847181" lon="35.132091"><time>1970-01-01T00:00:01.000Z</time></trkpt>
			<trkpt lat="44.846881" lon="35.131640"><time>1970-01-01T00:00:01.000Z</time></trkpt>
			<trkpt lat="44.846409" lon="35.130224"><time>1970-01-01T00:00:01.000Z</time></trkpt>
			<trkpt lat="44.846065" lon="35.129323"><time>1970-01-01T00:00:01.000Z</time></trkpt>
			<trkpt lat="44.845915" lon="35.129108"><time>1970-01-01T00:00:01.000Z</time></trkpt>
			<trkpt lat="44.845486" lon="35.128894"><time>1970-01-01T00:00:01.000Z</time></trkpt>
			<trkpt lat="44.845357" lon="35.128786"><time>1970-01-01T00:00:01.000Z</time></trkpt>
			<trkpt lat="44.845271" lon="35.128658"><time>1970-01-01T00:00:01.000Z</time></trkpt>
			<trkpt lat="44.845164" lon="35.128185"><time>1970-01-01T00:00:01.000Z</time></trkpt>
			<trkpt lat="44.845057" lon="35.128014"><time>1970-01-01T00:00:01.000Z</time></trkpt>
			<trkpt lat="44.844842" lon="35.127928"><time>1970-01-01T00:00:01.000Z</time></trkpt>
			<trkpt lat="44.844477" lon="35.127585"><time>1970-01-01T00:00:01.000Z</time></trkpt>
			<trkpt lat="44.844349" lon="35.127563"><time>1970-01-01T00:00:01.000Z</time></trkpt>
			<trkpt lat="44.843877" lon="35.127220"><time>1970-01-01T00:00:01.000Z</time></trkpt>
			<trkpt lat="44.843791" lon="35.127198"><time>1970-01-01T00:00:01.000Z</time></trkpt>
			<trkpt lat="44.843877" lon="35.127306"><time>1970-01-01T00:00:01.000Z</time></trkpt>
			<trkpt lat="44.843619" lon="35.126941"><time>1970-01-01T00:00:01.000Z</time></trkpt>
			<trkpt lat="44.843512" lon="35.126641"><time>1970-01-01T00:00:01.000Z</time></trkpt>
			<trkpt lat="44.843362" lon="35.125997"><time>1970-01-01T00:00:01.000Z</time></trkpt>
			<trkpt lat="44.843340" lon="35.125782"><time>1970-01-01T00:00:01.000Z</time></trkpt>
			<trkpt lat="44.843362" lon="35.124860"><time>1970-01-01T00:00:01.000Z</time></trkpt>
			<trkpt lat="44.843319" lon="35.124688"><time>1970-01-01T00:00:01.000Z</time></trkpt>
			<trkpt lat="44.842696" lon="35.124151"><time>1970-01-01T00:00:01.000Z</time></trkpt>
			<trkpt lat="44.842396" lon="35.124130"><time>1970-01-01T00:00:01.000Z</time></trkpt>
			<trkpt lat="44.842267" lon="35.124066"><time>1970-01-01T00:00:01.000Z</time></trkpt>
			<trkpt lat="44.841881" lon="35.123830"><time>1970-01-01T00:00:01.000Z</time></trkpt>
			<trkpt lat="44.841516" lon="35.123529"><time>1970-01-01T00:00:01.000Z</time></trkpt>
			<trkpt lat="44.840787" lon="35.122606"><time>1970-01-01T00:00:01.000Z</time></trkpt>
			<trkpt lat="44.840615" lon="35.122306"><time>1970-01-01T00:00:01.000Z</time></trkpt>
			<trkpt lat="44.840465" lon="35.122177"><time>1970-01-01T00:00:01.000Z</time></trkpt>
			<trkpt lat="44.840122" lon="35.122156"><time>1970-01-01T00:00:01.000Z</time></trkpt>
			<trkpt lat="44.839843" lon="35.122006"><time>1970-01-01T00:00:01.000Z</time></trkpt>
			<trkpt lat="44.839757" lon="35.121855"><time>1970-01-01T00:00:01.000Z</time></trkpt>
			<trkpt lat="44.839757" lon="35.121662"><time>1970-01-01T00:00:01.000Z</time></trkpt>
			<trkpt lat="44.839886" lon="35.121298"><time>1970-01-01T00:00:01.000Z</time></trkpt>
			<trkpt lat="44.839843" lon="35.120783"><time>1970-01-01T00:00:01.000Z</time></trkpt>
			<trkpt lat="44.839585" lon="35.120289"><time>1970-01-01T00:00:01.000Z</time></trkpt>
			<trkpt lat="44.839306" lon="35.119946"><time>1970-01-01T00:00:01.000Z</time></trkpt>
			<trkpt lat="44.839135" lon="35.119860"><time>1970-01-01T00:00:01.000Z</time></trkpt>
			<trkpt lat="44.839049" lon="35.119860"><time>1970-01-01T00:00:01.000Z</time></trkpt>
			<trkpt lat="44.838963" lon="35.119924"><time>1970-01-01T00:00:01.000Z</time></trkpt>
			<trkpt lat="44.838512" lon="35.120611"><time>1970-01-01T00:00:01.000Z</time></trkpt>
			<trkpt lat="44.838212" lon="35.120825"><time>1970-01-01T00:00:01.000Z</time></trkpt>
			<trkpt lat="44.837268" lon="35.121233"><time>1970-01-01T00:00:01.000Z</time></trkpt>
			<trkpt lat="44.836452" lon="35.121491"><time>1970-01-01T00:00:01.000Z</time></trkpt>
			<trkpt lat="44.835401" lon="35.121920"><time>1970-01-01T00:00:01.000Z</time></trkpt>
			<trkpt lat="44.835336" lon="35.121813"><time>1970-01-01T00:00:01.000Z</time></trkpt>
			<trkpt lat="44.835100" lon="35.121770"><time>1970-01-01T00:00:01.000Z</time></trkpt>
			<trkpt lat="44.835100" lon="35.121727"><time>1970-01-01T00:00:01.000Z</time></trkpt>
			<trkpt lat="44.834993" lon="35.121770"><time>1970-01-01T00:00:01.000Z</time></trkpt>
			<trkpt lat="44.834757" lon="35.121727"><time>1970-01-01T00:00:01.000Z</time></trkpt>
			<trkpt lat="44.834113" lon="35.121512"><time>1970-01-01T00:00:01.000Z</time></trkpt>
			<trkpt lat="44.833234" lon="35.121340"><time>1970-01-01T00:00:01.000Z</time></trkpt>
			<trkpt lat="44.832847" lon="35.121233"><time>1970-01-01T00:00:01.000Z</time></trkpt>
			<trkpt lat="44.832204" lon="35.120783"><time>1970-01-01T00:00:01.000Z</time></trkpt>
			<trkpt lat="44.832440" lon="35.119216"><time>1970-01-01T00:00:01.000Z</time></trkpt>
			<trkpt lat="44.829157" lon="35.118444"><time>1970-01-01T00:00:01.000Z</time></trkpt>
			<trkpt lat="44.826839" lon="35.118530"><time>1970-01-01T00:00:01.000Z</time></trkpt>
			<trkpt lat="44.825445" lon="35.117757"><time>1970-01-01T00:00:01.000Z</time></trkpt>
			<trkpt lat="44.824157" lon="35.116040"><time>1970-01-01T00:00:01.000Z</time></trkpt>
			<trkpt lat="44.822419" lon="35.115654"><time>1970-01-01T00:00:01.000Z</time></trkpt>
			<trkpt lat="44.821410" lon="35.113809"><time>1970-01-01T00:00:01.000Z</time></trkpt>
			<trkpt lat="44.819479" lon="35.111835"><time>1970-01-01T00:00:01.000Z</time></trkpt>
			<trkpt lat="44.817441" lon="35.109389"><time>1970-01-01T00:00:01.000Z</time></trkpt>
			<trkpt lat="44.815982" lon="35.109303"><time>1970-01-01T00:00:01.000Z</time></trkpt>
			<trkpt lat="44.815252" lon="35.109067"><time>1970-01-01T00:00:01.000Z</time></trkpt>
			<trkpt lat="44.815016" lon="35.108659"><time>1970-01-01T00:00:01.000Z</time></trkpt>
			<trkpt lat="44.814844" lon="35.108638"><time>1970-01-01T00:00:01.000Z</time></trkpt>
			<trkpt lat="44.814802" lon="35.108680"><time>1970-01-01T00:00:01.000Z</time></trkpt>
			<trkpt lat="44.814480" lon="35.108638"><time>1970-01-01T00:00:01.000Z</time></trkpt>
			<trkpt lat="44.814287" lon="35.108423"><time>1970-01-01T00:00:01.000Z</time></trkpt>
			<trkpt lat="44.813857" lon="35.108337"><time>1970-01-01T00:00:01.000Z</time></trkpt>
			<trkpt lat="44.812548" lon="35.109174"><time>1970-01-01T00:00:01.000Z</time></trkpt>
			<trkpt lat="44.812291" lon="35.109153"><time>1970-01-01T00:00:01.000Z</time></trkpt>
			<trkpt lat="44.812119" lon="35.109346"><time>1970-01-01T00:00:01.000Z</time></trkpt>
			<trkpt lat="44.812055" lon="35.109324"><time>1970-01-01T00:00:01.000Z</time></trkpt>
			<trkpt lat="44.811862" lon="35.109389"><time>1970-01-01T00:00:01.000Z</time></trkpt>
			<trkpt lat="44.811325" lon="35.109303"><time>1970-01-01T00:00:01.000Z</time></trkpt>
			<trkpt lat="44.812248" lon="35.109303"><time>1970-01-01T00:00:01.000Z</time></trkpt>
			<trkpt lat="44.812570" lon="35.109174"><time>1970-01-01T00:00:01.000Z</time></trkpt>
			<trkpt lat="44.812806" lon="35.108938"><time>1970-01-01T00:00:01.000Z</time></trkpt>
			<trkpt lat="44.813514" lon="35.108552"><time>1970-01-01T00:00:01.000Z</time></trkpt>
			<trkpt lat="44.813814" lon="35.108337"><time>1970-01-01T00:00:01.000Z</time></trkpt>
			<trkpt lat="44.813986" lon="35.108294"><time>1970-01-01T00:00:01.000Z</time></trkpt>
			<trkpt lat="44.814329" lon="35.108401"><time>1970-01-01T00:00:01.000Z</time></trkpt>
			<trkpt lat="44.814565" lon="35.108638"><time>1970-01-01T00:00:01.000Z</time></trkpt>
			<trkpt lat="44.814716" lon="35.108595"><time>1970-01-01T00:00:01.000Z</time></trkpt>
			<trkpt lat="44.814995" lon="35.108230"><time>1970-01-01T00:00:01.000Z</time></trkpt>
			<trkpt lat="44.815016" lon="35.108359"><time>1970-01-01T00:00:01.000Z</time></trkpt>
			<trkpt lat="44.815123" lon="35.107565"><time>1970-01-01T00:00:01.000Z</time></trkpt>
			<trkpt lat="44.815553" lon="35.106363"><time>1970-01-01T00:00:01.000Z</time></trkpt>
			<trkpt lat="44.816046" lon="35.104282"><time>1970-01-01T00:00:01.000Z</time></trkpt>
			<trkpt lat="44.816625" lon="35.103337"><time>1970-01-01T00:00:01.000Z</time></trkpt>
			<trkpt lat="44.816840" lon="35.102651"><time>1970-01-01T00:00:01.000Z</time></trkpt>
			<trkpt lat="44.817205" lon="35.102029"><time>1970-01-01T00:00:01.000Z</time></trkpt>
			<trkpt lat="44.817806" lon="35.100226"><time>1970-01-01T00:00:01.000Z</time></trkpt>
			<trkpt lat="44.817848" lon="35.099947"><time>1970-01-01T00:00:01.000Z</time></trkpt>
			<trkpt lat="44.817806" lon="35.099346"><time>1970-01-01T00:00:01.000Z</time></trkpt>
			<trkpt lat="44.817827" lon="35.099024"><time>1970-01-01T00:00:01.000Z</time></trkpt>
			<trkpt lat="44.817977" lon="35.098638"><time>1970-01-01T00:00:01.000Z</time></trkpt>
			<trkpt lat="44.818921" lon="35.097029"><time>1970-01-01T00:00:01.000Z</time></trkpt>
			<trkpt lat="44.819908" lon="35.095784"><time>1970-01-01T00:00:01.000Z</time></trkpt>
			<trkpt lat="44.820552" lon="35.095076"><time>1970-01-01T00:00:01.000Z</time></trkpt>
			<trkpt lat="44.820853" lon="35.094754"><time>1970-01-01T00:00:01.000Z</time></trkpt>
			<trkpt lat="44.823191" lon="35.092931"><time>1970-01-01T00:00:01.000Z</time></trkpt>
			<trkpt lat="44.823277" lon="35.092737"><time>1970-01-01T00:00:01.000Z</time></trkpt>
			<trkpt lat="44.823513" lon="35.089991"><time>1970-01-01T00:00:01.000Z</time></trkpt>
			<trkpt lat="44.823664" lon="35.089540"><time>1970-01-01T00:00:01.000Z</time></trkpt>
			<trkpt lat="44.823814" lon="35.089347"><time>1970-01-01T00:00:01.000Z</time></trkpt>
			<trkpt lat="44.824179" lon="35.089090"><time>1970-01-01T00:00:01.000Z</time></trkpt>
			<trkpt lat="44.824479" lon="35.088789"><time>1970-01-01T00:00:01.000Z</time></trkpt>
			<trkpt lat="44.824865" lon="35.088596"><time>1970-01-01T00:00:01.000Z</time></trkpt>
			<trkpt lat="44.825766" lon="35.088317"><time>1970-01-01T00:00:01.000Z</time></trkpt>
			<trkpt lat="44.826303" lon="35.088017"><time>1970-01-01T00:00:01.000Z</time></trkpt>
			<trkpt lat="44.826539" lon="35.087716"><time>1970-01-01T00:00:01.000Z</time></trkpt>
			<trkpt lat="44.826753" lon="35.087073"><time>1970-01-01T00:00:01.000Z</time></trkpt>
			<trkpt lat="44.826861" lon="35.086858"><time>1970-01-01T00:00:01.000Z</time></trkpt>
			<trkpt lat="44.826989" lon="35.086751"><time>1970-01-01T00:00:01.000Z</time></trkpt>
			<trkpt lat="44.827504" lon="35.084798"><time>1970-01-01T00:00:01.000Z</time></trkpt>
			<trkpt lat="44.827655" lon="35.084648"><time>1970-01-01T00:00:01.000Z</time></trkpt>
			<trkpt lat="44.827698" lon="35.084498"><time>1970-01-01T00:00:01.000Z</time></trkpt>
			<trkpt lat="44.827698" lon="35.084111"><time>1970-01-01T00:00:01.000Z</time></trkpt>
			<trkpt lat="44.827848" lon="35.083017"><time>1970-01-01T00:00:01.000Z</time></trkpt>
			<trkpt lat="44.828019" lon="35.082652"><time>1970-01-01T00:00:01.000Z</time></trkpt>
			<trkpt lat="44.828062" lon="35.082373"><time>1970-01-01T00:00:01.000Z</time></trkpt>
			<trkpt lat="44.828470" lon="35.081708"><time>1970-01-01T00:00:01.000Z</time></trkpt>
			<trkpt lat="44.828749" lon="35.081043"><time>1970-01-01T00:00:01.000Z</time></trkpt>
			<trkpt lat="44.829328" lon="35.080163"><time>1970-01-01T00:00:01.000Z</time></trkpt>
			<trkpt lat="44.829586" lon="35.079949"><time>1970-01-01T00:00:01.000Z</time></trkpt>
			<trkpt lat="44.830551" lon="35.078876"><time>1970-01-01T00:00:01.000Z</time></trkpt>
			<trkpt lat="44.831260" lon="35.078275"><time>1970-01-01T00:00:01.000Z</time></trkpt>
			<trkpt lat="44.831603" lon="35.077932"><time>1970-01-01T00:00:01.000Z</time></trkpt>
			<trkpt lat="44.832247" lon="35.077417"><time>1970-01-01T00:00:01.000Z</time></trkpt>
			<trkpt lat="44.833148" lon="35.077095"><time>1970-01-01T00:00:01.000Z</time></trkpt>
			<trkpt lat="44.833534" lon="35.076880"><time>1970-01-01T00:00:01.000Z</time></trkpt>
			<trkpt lat="44.833813" lon="35.076859"><time>1970-01-01T00:00:01.000Z</time></trkpt>
			<trkpt lat="44.834049" lon="35.076945"><time>1970-01-01T00:00:01.000Z</time></trkpt>
			<trkpt lat="44.834435" lon="35.076687"><time>1970-01-01T00:00:01.000Z</time></trkpt>
			<trkpt lat="44.834757" lon="35.076666"><time>1970-01-01T00:00:01.000Z</time></trkpt>
			<trkpt lat="44.834950" lon="35.076709"><time>1970-01-01T00:00:01.000Z</time></trkpt>
			<trkpt lat="44.836302" lon="35.076515"><time>1970-01-01T00:00:01.000Z</time></trkpt>
			<trkpt lat="44.836710" lon="35.076151"><time>1970-01-01T00:00:01.000Z</time></trkpt>
			<trkpt lat="44.836688" lon="35.076086"><time>1970-01-01T00:00:01.000Z</time></trkpt>
			<trkpt lat="44.836817" lon="35.076730"><time>1970-01-01T00:00:01.000Z</time></trkpt>
			<trkpt lat="44.837675" lon="35.077073"><time>1970-01-01T00:00:01.000Z</time></trkpt>
			<trkpt lat="44.842975" lon="35.075142"><time>1970-01-01T00:00:01.000Z</time></trkpt>
			<trkpt lat="44.843962" lon="35.075915"><time>1970-01-01T00:00:01.000Z</time></trkpt>
			<trkpt lat="44.847997" lon="35.073855"><time>1970-01-01T00:00:01.000Z</time></trkpt>
			<trkpt lat="44.853018" lon="35.069906"><time>1970-01-01T00:00:01.000Z</time></trkpt>
			<trkpt lat="44.860184" lon="35.068662"><time>1970-01-01T00:00:01.000Z</time></trkpt>
			<trkpt lat="44.867223" lon="35.064285"><time>1970-01-01T00:00:01.000Z</time></trkpt>
			<trkpt lat="44.868467" lon="35.062267"><time>1970-01-01T00:00:01.000Z</time></trkpt>
			<trkpt lat="44.868145" lon="35.061388"><time>1970-01-01T00:00:01.000Z</time></trkpt>
			<trkpt lat="44.869883" lon="35.060637"><time>1970-01-01T00:00:01.000Z</time></trkpt>
			<trkpt lat="44.870119" lon="35.060701"><time>1970-01-01T00:00:01.000Z</time></trkpt>
			<trkpt lat="44.870420" lon="35.061044"><time>1970-01-01T00:00:01.000Z</time></trkpt>
			<trkpt lat="44.871171" lon="35.060379"><time>1970-01-01T00:00:01.000Z</time></trkpt>
			<trkpt lat="44.873381" lon="35.059693"><time>1970-01-01T00:00:01.000Z</time></trkpt>
			<trkpt lat="44.874304" lon="35.059049"><time>1970-01-01T00:00:01.000Z</time></trkpt>
			<trkpt lat="44.875570" lon="35.056517"><time>1970-01-01T00:00:01.000Z</time></trkpt>
			<trkpt lat="44.876042" lon="35.056495"><time>1970-01-01T00:00:01.000Z</time></trkpt>
			<trkpt lat="44.876020" lon="35.056989"><time>1970-01-01T00:00:01.000Z</time></trkpt>
			<trkpt lat="44.877029" lon="35.057568"><time>1970-01-01T00:00:01.000Z</time></trkpt>
			<trkpt lat="44.877866" lon="35.057847"><time>1970-01-01T00:00:01.000Z</time></trkpt>
			<trkpt lat="44.878917" lon="35.057654"><time>1970-01-01T00:00:01.000Z</time></trkpt>
			<trkpt lat="44.880612" lon="35.053191"><time>1970-01-01T00:00:01.000Z</time></trkpt>
			<trkpt lat="44.881299" lon="35.052697"><time>1970-01-01T00:00:01.000Z</time></trkpt>
			<trkpt lat="44.881492" lon="35.051882"><time>1970-01-01T00:00:01.000Z</time></trkpt>
			<trkpt lat="44.882071" lon="35.051474"><time>1970-01-01T00:00:01.000Z</time></trkpt>
			<trkpt lat="44.881749" lon="35.050466"><time>1970-01-01T00:00:01.000Z</time></trkpt>
			<trkpt lat="44.880956" lon="35.048535"><time>1970-01-01T00:00:01.000Z</time></trkpt>
			<trkpt lat="44.880140" lon="35.046045"><time>1970-01-01T00:00:01.000Z</time></trkpt>
			<trkpt lat="44.879990" lon="35.044501"><time>1970-01-01T00:00:01.000Z</time></trkpt>
			<trkpt lat="44.879389" lon="35.043256"><time>1970-01-01T00:00:01.000Z</time></trkpt>
			<trkpt lat="44.878810" lon="35.039565"><time>1970-01-01T00:00:01.000Z</time></trkpt>
			<trkpt lat="44.878981" lon="35.038149"><time>1970-01-01T00:00:01.000Z</time></trkpt>
			<trkpt lat="44.878767" lon="35.035789"><time>1970-01-01T00:00:01.000Z</time></trkpt>
			<trkpt lat="44.875613" lon="35.029781"><time>1970-01-01T00:00:01.000Z</time></trkpt>
			<trkpt lat="44.874947" lon="35.029738"><time>1970-01-01T00:00:01.000Z</time></trkpt>
			<trkpt lat="44.874304" lon="35.028965"><time>1970-01-01T00:00:01.000Z</time></trkpt>
			<trkpt lat="44.874153" lon="35.026347"><time>1970-01-01T00:00:01.000Z</time></trkpt>
			<trkpt lat="44.871922" lon="35.021498"><time>1970-01-01T00:00:01.000Z</time></trkpt>
			<trkpt lat="44.870355" lon="35.019953"><time>1970-01-01T00:00:01.000Z</time></trkpt>
			<trkpt lat="44.869433" lon="35.020296"><time>1970-01-01T00:00:01.000Z</time></trkpt>
			<trkpt lat="44.869089" lon="35.020489"><time>1970-01-01T00:00:01.000Z</time></trkpt>
			<trkpt lat="44.868038" lon="35.019545"><time>1970-01-01T00:00:01.000Z</time></trkpt>
			<trkpt lat="44.867716" lon="35.019030"><time>1970-01-01T00:00:01.000Z</time></trkpt>
			<trkpt lat="44.867566" lon="35.018408"><time>1970-01-01T00:00:01.000Z</time></trkpt>
			<trkpt lat="44.867330" lon="35.017786"><time>1970-01-01T00:00:01.000Z</time></trkpt>
			<trkpt lat="44.866879" lon="35.017464"><time>1970-01-01T00:00:01.000Z</time></trkpt>
			<trkpt lat="44.866772" lon="35.017442"><time>1970-01-01T00:00:01.000Z</time></trkpt>
			<trkpt lat="44.866686" lon="35.017507"><time>1970-01-01T00:00:01.000Z</time></trkpt>
			<trkpt lat="44.866493" lon="35.017464"><time>1970-01-01T00:00:01.000Z</time></trkpt>
			<trkpt lat="44.866407" lon="35.017550"><time>1970-01-01T00:00:01.000Z</time></trkpt>
			<trkpt lat="44.866278" lon="35.017507"><time>1970-01-01T00:00:01.000Z</time></trkpt>
			<trkpt lat="44.866193" lon="35.017571"><time>1970-01-01T00:00:01.000Z</time></trkpt>
			<trkpt lat="44.866150" lon="35.017485"><time>1970-01-01T00:00:01.000Z</time></trkpt>
			<trkpt lat="44.866042" lon="35.017464"><time>1970-01-01T00:00:01.000Z</time></trkpt>
			<trkpt lat="44.865871" lon="35.017271"><time>1970-01-01T00:00:01.000Z</time></trkpt>
			<trkpt lat="44.865721" lon="35.016885"><time>1970-01-01T00:00:01.000Z</time></trkpt>
			<trkpt lat="44.865656" lon="35.016842"><time>1970-01-01T00:00:01.000Z</time></trkpt>
			<trkpt lat="44.865549" lon="35.016842"><time>1970-01-01T00:00:01.000Z</time></trkpt>
			<trkpt lat="44.865270" lon="35.017206"><time>1970-01-01T00:00:01.000Z</time></trkpt>
			<trkpt lat="44.864755" lon="35.017507"><time>1970-01-01T00:00:01.000Z</time></trkpt>
			<trkpt lat="44.864562" lon="35.017485"><time>1970-01-01T00:00:01.000Z</time></trkpt>
			<trkpt lat="44.864412" lon="35.017399"><time>1970-01-01T00:00:01.000Z</time></trkpt>
			<trkpt lat="44.864304" lon="35.017485"><time>1970-01-01T00:00:01.000Z</time></trkpt>
			<trkpt lat="44.864240" lon="35.017464"><time>1970-01-01T00:00:01.000Z</time></trkpt>
			<trkpt lat="44.864176" lon="35.017314"><time>1970-01-01T00:00:01.000Z</time></trkpt>
			<trkpt lat="44.864111" lon="35.017292"><time>1970-01-01T00:00:01.000Z</time></trkpt>
			<trkpt lat="44.864068" lon="35.017163"><time>1970-01-01T00:00:01.000Z</time></trkpt>
			<trkpt lat="44.864111" lon="35.016820"><time>1970-01-01T00:00:01.000Z</time></trkpt>
			<trkpt lat="44.864197" lon="35.016734"><time>1970-01-01T00:00:01.000Z</time></trkpt>
			<trkpt lat="44.864240" lon="35.016563"><time>1970-01-01T00:00:01.000Z</time></trkpt>
			<trkpt lat="44.864176" lon="35.016370"><time>1970-01-01T00:00:01.000Z</time></trkpt>
			<trkpt lat="44.864219" lon="35.016305"><time>1970-01-01T00:00:01.000Z</time></trkpt>
			<trkpt lat="44.864412" lon="35.016241"><time>1970-01-01T00:00:01.000Z</time></trkpt>
			<trkpt lat="44.864455" lon="35.015962"><time>1970-01-01T00:00:01.000Z</time></trkpt>
			<trkpt lat="44.864390" lon="35.015747"><time>1970-01-01T00:00:01.000Z</time></trkpt>
			<trkpt lat="44.864476" lon="35.015640"><time>1970-01-01T00:00:01.000Z</time></trkpt>
			<trkpt lat="44.864519" lon="35.015683"><time>1970-01-01T00:00:01.000Z</time></trkpt>
			<trkpt lat="44.864497" lon="35.015704"><time>1970-01-01T00:00:01.000Z</time></trkpt>
			<trkpt lat="44.864519" lon="35.015683"><time>1970-01-01T00:00:01.000Z</time></trkpt>
			<trkpt lat="44.864497" lon="35.015640"><time>1970-01-01T00:00:01.000Z</time></trkpt>
			<trkpt lat="44.864369" lon="35.015640"><time>1970-01-01T00:00:01.000Z</time></trkpt>
			<trkpt lat="44.864347" lon="35.015576"><time>1970-01-01T00:00:01.000Z</time></trkpt>
			<trkpt lat="44.864261" lon="35.015554"><time>1970-01-01T00:00:01.000Z</time></trkpt>
			<trkpt lat="44.864154" lon="35.015769"><time>1970-01-01T00:00:01.000Z</time></trkpt>
			<trkpt lat="44.863897" lon="35.015769"><time>1970-01-01T00:00:01.000Z</time></trkpt>
			<trkpt lat="44.863618" lon="35.015468"><time>1970-01-01T00:00:01.000Z</time></trkpt>
			<trkpt lat="44.863532" lon="35.015275"><time>1970-01-01T00:00:01.000Z</time></trkpt>
			<trkpt lat="44.863553" lon="35.014975"><time>1970-01-01T00:00:01.000Z</time></trkpt>
			<trkpt lat="44.863468" lon="35.014932"><time>1970-01-01T00:00:01.000Z</time></trkpt>
			<trkpt lat="44.863468" lon="35.014739"><time>1970-01-01T00:00:01.000Z</time></trkpt>
			<trkpt lat="44.863510" lon="35.014674"><time>1970-01-01T00:00:01.000Z</time></trkpt>
			<trkpt lat="44.863510" lon="35.014717"><time>1970-01-01T00:00:01.000Z</time></trkpt>
			<trkpt lat="44.863532" lon="35.014631"><time>1970-01-01T00:00:01.000Z</time></trkpt>
			<trkpt lat="44.863553" lon="35.014395"><time>1970-01-01T00:00:01.000Z</time></trkpt>
			<trkpt lat="44.863510" lon="35.014095"><time>1970-01-01T00:00:01.000Z</time></trkpt>
			<trkpt lat="44.863553" lon="35.014009"><time>1970-01-01T00:00:01.000Z</time></trkpt>
			<trkpt lat="44.863596" lon="35.013559"><time>1970-01-01T00:00:01.000Z</time></trkpt>
			<trkpt lat="44.863468" lon="35.013215"><time>1970-01-01T00:00:01.000Z</time></trkpt>
			<trkpt lat="44.863382" lon="35.012850"><time>1970-01-01T00:00:01.000Z</time></trkpt>
			<trkpt lat="44.863274" lon="35.012636"><time>1970-01-01T00:00:01.000Z</time></trkpt>
			<trkpt lat="44.863296" lon="35.012378"><time>1970-01-01T00:00:01.000Z</time></trkpt>
			<trkpt lat="44.863231" lon="35.012142"><time>1970-01-01T00:00:01.000Z</time></trkpt>
			<trkpt lat="44.863167" lon="35.012035"><time>1970-01-01T00:00:01.000Z</time></trkpt>
			<trkpt lat="44.863081" lon="35.012057"><time>1970-01-01T00:00:01.000Z</time></trkpt>
			<trkpt lat="44.862995" lon="35.011992"><time>1970-01-01T00:00:01.000Z</time></trkpt>
			<trkpt lat="44.863038" lon="35.011863"><time>1970-01-01T00:00:01.000Z</time></trkpt>
			<trkpt lat="44.863167" lon="35.011735"><time>1970-01-01T00:00:01.000Z</time></trkpt>
			<trkpt lat="44.862888" lon="35.011027"><time>1970-01-01T00:00:01.000Z</time></trkpt>
			<trkpt lat="44.862845" lon="35.010490"><time>1970-01-01T00:00:01.000Z</time></trkpt>
			<trkpt lat="44.862781" lon="35.010340"><time>1970-01-01T00:00:01.000Z</time></trkpt>
			<trkpt lat="44.862845" lon="35.010168"><time>1970-01-01T00:00:01.000Z</time></trkpt>
			<trkpt lat="44.862824" lon="35.009975"><time>1970-01-01T00:00:01.000Z</time></trkpt>
			<trkpt lat="44.862759" lon="35.009868"><time>1970-01-01T00:00:01.000Z</time></trkpt>
			<trkpt lat="44.862781" lon="35.009632"><time>1970-01-01T00:00:01.000Z</time></trkpt>
			<trkpt lat="44.862738" lon="35.009331"><time>1970-01-01T00:00:01.000Z</time></trkpt>
			<trkpt lat="44.862845" lon="35.008816"><time>1970-01-01T00:00:01.000Z</time></trkpt>
			<trkpt lat="44.862845" lon="35.008044"><time>1970-01-01T00:00:01.000Z</time></trkpt>
			<trkpt lat="44.862674" lon="35.007293"><time>1970-01-01T00:00:01.000Z</time></trkpt>
			<trkpt lat="44.862716" lon="35.007207"><time>1970-01-01T00:00:01.000Z</time></trkpt>
			<trkpt lat="44.862716" lon="35.006327"><time>1970-01-01T00:00:01.000Z</time></trkpt>
			<trkpt lat="44.862502" lon="35.005898"><time>1970-01-01T00:00:01.000Z</time></trkpt>
			<trkpt lat="44.862459" lon="35.005662"><time>1970-01-01T00:00:01.000Z</time></trkpt>
			<trkpt lat="44.862266" lon="35.005212"><time>1970-01-01T00:00:01.000Z</time></trkpt>
			<trkpt lat="44.862180" lon="35.005083"><time>1970-01-01T00:00:01.000Z</time></trkpt>
			<trkpt lat="44.861880" lon="35.004825"><time>1970-01-01T00:00:01.000Z</time></trkpt>
			<trkpt lat="44.861558" lon="35.004461"><time>1970-01-01T00:00:01.000Z</time></trkpt>
			<trkpt lat="44.861365" lon="35.004117"><time>1970-01-01T00:00:01.000Z</time></trkpt>
			<trkpt lat="44.861236" lon="35.004053"><time>1970-01-01T00:00:01.000Z</time></trkpt>
			<trkpt lat="44.860957" lon="35.003795"><time>1970-01-01T00:00:01.000Z</time></trkpt>
			<trkpt lat="44.860828" lon="35.003645"><time>1970-01-01T00:00:01.000Z</time></trkpt>
			<trkpt lat="44.860742" lon="35.003473"><time>1970-01-01T00:00:01.000Z</time></trkpt>
			<trkpt lat="44.860335" lon="35.003044"><time>1970-01-01T00:00:01.000Z</time></trkpt>
			<trkpt lat="44.860142" lon="35.003044"><time>1970-01-01T00:00:01.000Z</time></trkpt>
			<trkpt lat="44.859970" lon="35.003001"><time>1970-01-01T00:00:01.000Z</time></trkpt>
			<trkpt lat="44.859734" lon="35.002701"><time>1970-01-01T00:00:01.000Z</time></trkpt>
			<trkpt lat="44.859691" lon="35.002722"><time>1970-01-01T00:00:01.000Z</time></trkpt>
			<trkpt lat="44.859455" lon="35.002572"><time>1970-01-01T00:00:01.000Z</time></trkpt>
			<trkpt lat="44.859455" lon="35.002529"><time>1970-01-01T00:00:01.000Z</time></trkpt>
			<trkpt lat="44.859176" lon="35.002422"><time>1970-01-01T00:00:01.000Z</time></trkpt>
			<trkpt lat="44.858833" lon="35.002165"><time>1970-01-01T00:00:01.000Z</time></trkpt>
			<trkpt lat="44.858747" lon="35.002014"><time>1970-01-01T00:00:01.000Z</time></trkpt>
			<trkpt lat="44.858725" lon="35.001821"><time>1970-01-01T00:00:01.000Z</time></trkpt>
			<trkpt lat="44.858854" lon="35.001392"><time>1970-01-01T00:00:01.000Z</time></trkpt>
			<trkpt lat="44.858854" lon="35.001285"><time>1970-01-01T00:00:01.000Z</time></trkpt>
			<trkpt lat="44.857824" lon="34.997959"><time>1970-01-01T00:00:01.000Z</time></trkpt>
			<trkpt lat="44.858039" lon="34.997551"><time>1970-01-01T00:00:01.000Z</time></trkpt>
			<trkpt lat="44.858210" lon="34.997530"><time>1970-01-01T00:00:01.000Z</time></trkpt>
			<trkpt lat="44.858597" lon="34.996993"><time>1970-01-01T00:00:01.000Z</time></trkpt>
			<trkpt lat="44.858532" lon="34.997165"><time>1970-01-01T00:00:01.000Z</time></trkpt>
			<trkpt lat="44.858532" lon="34.996779"><time>1970-01-01T00:00:01.000Z</time></trkpt>
			<trkpt lat="44.858468" lon="34.996500"><time>1970-01-01T00:00:01.000Z</time></trkpt>
			<trkpt lat="44.858704" lon="34.996071"><time>1970-01-01T00:00:01.000Z</time></trkpt>
			<trkpt lat="44.859090" lon="34.994998"><time>1970-01-01T00:00:01.000Z</time></trkpt>
			<trkpt lat="44.859369" lon="34.994483"><time>1970-01-01T00:00:01.000Z</time></trkpt>
			<trkpt lat="44.859519" lon="34.994096"><time>1970-01-01T00:00:01.000Z</time></trkpt>
			<trkpt lat="44.859669" lon="34.993667"><time>1970-01-01T00:00:01.000Z</time></trkpt>
			<trkpt lat="44.859712" lon="34.993367"><time>1970-01-01T00:00:01.000Z</time></trkpt>
			<trkpt lat="44.859691" lon="34.993131"><time>1970-01-01T00:00:01.000Z</time></trkpt>
			<trkpt lat="44.859734" lon="34.993066"><time>1970-01-01T00:00:01.000Z</time></trkpt>
			<trkpt lat="44.859820" lon="34.993109"><time>1970-01-01T00:00:01.000Z</time></trkpt>
			<trkpt lat="44.859970" lon="34.993109"><time>1970-01-01T00:00:01.000Z</time></trkpt>
			<trkpt lat="44.860227" lon="34.993002"><time>1970-01-01T00:00:01.000Z</time></trkpt>
			<trkpt lat="44.860249" lon="34.992938"><time>1970-01-01T00:00:01.000Z</time></trkpt>
			<trkpt lat="44.860270" lon="34.992959"><time>1970-01-01T00:00:01.000Z</time></trkpt>
			<trkpt lat="44.859906" lon="34.992230"><time>1970-01-01T00:00:01.000Z</time></trkpt>
			<trkpt lat="44.859391" lon="34.991564"><time>1970-01-01T00:00:01.000Z</time></trkpt>
			<trkpt lat="44.859176" lon="34.990964"><time>1970-01-01T00:00:01.000Z</time></trkpt>
			<trkpt lat="44.859133" lon="34.990449"><time>1970-01-01T00:00:01.000Z</time></trkpt>
			<trkpt lat="44.859240" lon="34.990298"><time>1970-01-01T00:00:01.000Z</time></trkpt>
			<trkpt lat="44.859562" lon="34.990298"><time>1970-01-01T00:00:01.000Z</time></trkpt>
			<trkpt lat="44.859841" lon="34.990084"><time>1970-01-01T00:00:01.000Z</time></trkpt>
			<trkpt lat="44.859884" lon="34.989805"><time>1970-01-01T00:00:01.000Z</time></trkpt>
			<trkpt lat="44.859648" lon="34.988517"><time>1970-01-01T00:00:01.000Z</time></trkpt>
			<trkpt lat="44.859669" lon="34.988303"><time>1970-01-01T00:00:01.000Z</time></trkpt>
			<trkpt lat="44.860292" lon="34.987509"><time>1970-01-01T00:00:01.000Z</time></trkpt>
			<trkpt lat="44.860893" lon="34.986586"><time>1970-01-01T00:00:01.000Z</time></trkpt>
			<trkpt lat="44.860657" lon="34.986136"><time>1970-01-01T00:00:01.000Z</time></trkpt>
			<trkpt lat="44.860399" lon="34.985835"><time>1970-01-01T00:00:01.000Z</time></trkpt>
			<trkpt lat="44.860292" lon="34.985621"><time>1970-01-01T00:00:01.000Z</time></trkpt>
			<trkpt lat="44.860292" lon="34.985492"><time>1970-01-01T00:00:01.000Z</time></trkpt>
			<trkpt lat="44.860335" lon="34.985385"><time>1970-01-01T00:00:01.000Z</time></trkpt>
			<trkpt lat="44.861107" lon="34.985041"><time>1970-01-01T00:00:01.000Z</time></trkpt>
			<trkpt lat="44.861815" lon="34.984483"><time>1970-01-01T00:00:01.000Z</time></trkpt>
			<trkpt lat="44.862287" lon="34.984183"><time>1970-01-01T00:00:01.000Z</time></trkpt>
			<trkpt lat="44.862867" lon="34.983904"><time>1970-01-01T00:00:01.000Z</time></trkpt>
			<trkpt lat="44.863618" lon="34.983689"><time>1970-01-01T00:00:01.000Z</time></trkpt>
			<trkpt lat="44.863940" lon="34.983668"><time>1970-01-01T00:00:01.000Z</time></trkpt>
			<trkpt lat="44.864712" lon="34.983797"><time>1970-01-01T00:00:01.000Z</time></trkpt>
			<trkpt lat="44.864734" lon="34.983861"><time>1970-01-01T00:00:01.000Z</time></trkpt>
			<trkpt lat="44.864712" lon="34.984076"><time>1970-01-01T00:00:01.000Z</time></trkpt>
			<trkpt lat="44.864648" lon="34.984183"><time>1970-01-01T00:00:01.000Z</time></trkpt>
			<trkpt lat="44.864776" lon="34.984548"><time>1970-01-01T00:00:01.000Z</time></trkpt>
			<trkpt lat="44.864776" lon="34.985106"><time>1970-01-01T00:00:01.000Z</time></trkpt>
			<trkpt lat="44.864884" lon="34.985192"><time>1970-01-01T00:00:01.000Z</time></trkpt>
			<trkpt lat="44.864948" lon="34.985170"><time>1970-01-01T00:00:01.000Z</time></trkpt>
			<trkpt lat="44.864927" lon="34.984698"><time>1970-01-01T00:00:01.000Z</time></trkpt>
			<trkpt lat="44.865034" lon="34.983990"><time>1970-01-01T00:00:01.000Z</time></trkpt>
			<trkpt lat="44.865442" lon="34.983561"><time>1970-01-01T00:00:01.000Z</time></trkpt>
			<trkpt lat="44.865678" lon="34.983389"><time>1970-01-01T00:00:01.000Z</time></trkpt>
			<trkpt lat="44.866064" lon="34.983325"><time>1970-01-01T00:00:01.000Z</time></trkpt>
			<trkpt lat="44.866085" lon="34.983132"><time>1970-01-01T00:00:01.000Z</time></trkpt>
			<trkpt lat="44.866407" lon="34.983067"><time>1970-01-01T00:00:01.000Z</time></trkpt>
			<trkpt lat="44.866987" lon="34.983046"><time>1970-01-01T00:00:01.000Z</time></trkpt>
			<trkpt lat="44.867158" lon="34.982981"><time>1970-01-01T00:00:01.000Z</time></trkpt>
			<trkpt lat="44.868875" lon="34.982960"><time>1970-01-01T00:00:01.000Z</time></trkpt>
			<trkpt lat="44.869583" lon="34.982896"><time>1970-01-01T00:00:01.000Z</time></trkpt>
			<trkpt lat="44.869776" lon="34.982853"><time>1970-01-01T00:00:01.000Z</time></trkpt>
			<trkpt lat="44.870377" lon="34.982574"><time>1970-01-01T00:00:01.000Z</time></trkpt>
			<trkpt lat="44.871064" lon="34.982316"><time>1970-01-01T00:00:01.000Z</time></trkpt>
			<trkpt lat="44.871235" lon="34.982209"><time>1970-01-01T00:00:01.000Z</time></trkpt>
			<trkpt lat="44.873038" lon="34.981479"><time>1970-01-01T00:00:01.000Z</time></trkpt>
			<trkpt lat="44.873853" lon="34.981093"><time>1970-01-01T00:00:01.000Z</time></trkpt>
			<trkpt lat="44.874389" lon="34.980964"><time>1970-01-01T00:00:01.000Z</time></trkpt>
			<trkpt lat="44.874862" lon="34.980921"><time>1970-01-01T00:00:01.000Z</time></trkpt>
			<trkpt lat="44.875248" lon="34.980836"><time>1970-01-01T00:00:01.000Z</time></trkpt>
			<trkpt lat="44.875441" lon="34.980921"><time>1970-01-01T00:00:01.000Z</time></trkpt>
			<trkpt lat="44.875934" lon="34.981007"><time>1970-01-01T00:00:01.000Z</time></trkpt>
			<trkpt lat="44.876106" lon="34.980836"><time>1970-01-01T00:00:01.000Z</time></trkpt>
			<trkpt lat="44.876728" lon="34.980020"><time>1970-01-01T00:00:01.000Z</time></trkpt>
			<trkpt lat="44.877136" lon="34.979162"><time>1970-01-01T00:00:01.000Z</time></trkpt>
			<trkpt lat="44.877308" lon="34.979055"><time>1970-01-01T00:00:01.000Z</time></trkpt>
			<trkpt lat="44.877973" lon="34.978068"><time>1970-01-01T00:00:01.000Z</time></trkpt>
			<trkpt lat="44.878016" lon="34.978068"><time>1970-01-01T00:00:01.000Z</time></trkpt>
			<trkpt lat="44.878145" lon="34.978261"><time>1970-01-01T00:00:01.000Z</time></trkpt>
			<trkpt lat="44.879496" lon="34.979183"><time>1970-01-01T00:00:01.000Z</time></trkpt>
			<trkpt lat="44.880505" lon="34.979591"><time>1970-01-01T00:00:01.000Z</time></trkpt>
			<trkpt lat="44.881213" lon="34.979956"><time>1970-01-01T00:00:01.000Z</time></trkpt>
			<trkpt lat="44.881513" lon="34.980063"><time>1970-01-01T00:00:01.000Z</time></trkpt>
			<trkpt lat="44.881664" lon="34.980235"><time>1970-01-01T00:00:01.000Z</time></trkpt>
			<trkpt lat="44.881943" lon="34.980900"><time>1970-01-01T00:00:01.000Z</time></trkpt>
			<trkpt lat="44.882350" lon="34.980943"><time>1970-01-01T00:00:01.000Z</time></trkpt>
			<trkpt lat="44.882522" lon="34.981072"><time>1970-01-01T00:00:01.000Z</time></trkpt>
			<trkpt lat="44.882629" lon="34.981265"><time>1970-01-01T00:00:01.000Z</time></trkpt>
			<trkpt lat="44.882779" lon="34.981672"><time>1970-01-01T00:00:01.000Z</time></trkpt>
			<trkpt lat="44.883037" lon="34.982595"><time>1970-01-01T00:00:01.000Z</time></trkpt>
			<trkpt lat="44.883337" lon="34.983432"><time>1970-01-01T00:00:01.000Z</time></trkpt>
			<trkpt lat="44.883466" lon="34.983582"><time>1970-01-01T00:00:01.000Z</time></trkpt>
			<trkpt lat="44.883960" lon="34.983647"><time>1970-01-01T00:00:01.000Z</time></trkpt>
			<trkpt lat="44.884110" lon="34.983711"><time>1970-01-01T00:00:01.000Z</time></trkpt>
			<trkpt lat="44.884560" lon="34.984054"><time>1970-01-01T00:00:01.000Z</time></trkpt>
			<trkpt lat="44.884861" lon="34.984398"><time>1970-01-01T00:00:01.000Z</time></trkpt>
			<trkpt lat="44.884968" lon="34.984762"><time>1970-01-01T00:00:01.000Z</time></trkpt>
			<trkpt lat="44.885118" lon="34.986243"><time>1970-01-01T00:00:01.000Z</time></trkpt>
			<trkpt lat="44.885226" lon="34.986329"><time>1970-01-01T00:00:01.000Z</time></trkpt>
			<trkpt lat="44.885783" lon="34.986028"><time>1970-01-01T00:00:01.000Z</time></trkpt>
			<trkpt lat="44.885955" lon="34.985878"><time>1970-01-01T00:00:01.000Z</time></trkpt>
			<trkpt lat="44.886213" lon="34.985106"><time>1970-01-01T00:00:01.000Z</time></trkpt>
			<trkpt lat="44.886277" lon="34.984655"><time>1970-01-01T00:00:01.000Z</time></trkpt>
			<trkpt lat="44.886427" lon="34.984140"><time>1970-01-01T00:00:01.000Z</time></trkpt>
			<trkpt lat="44.886513" lon="34.983990"><time>1970-01-01T00:00:01.000Z</time></trkpt>
			<trkpt lat="44.886856" lon="34.983604"><time>1970-01-01T00:00:01.000Z</time></trkpt>
			<trkpt lat="44.887007" lon="34.983303"><time>1970-01-01T00:00:01.000Z</time></trkpt>
			<trkpt lat="44.887436" lon="34.982938"><time>1970-01-01T00:00:01.000Z</time></trkpt>
			<trkpt lat="44.887586" lon="34.982960"><time>1970-01-01T00:00:01.000Z</time></trkpt>
			<trkpt lat="44.888144" lon="34.982509"><time>1970-01-01T00:00:01.000Z</time></trkpt>
			<trkpt lat="44.888616" lon="34.982295"><time>1970-01-01T00:00:01.000Z</time></trkpt>
			<trkpt lat="44.888788" lon="34.982381"><time>1970-01-01T00:00:01.000Z</time></trkpt>
			<trkpt lat="44.888981" lon="34.982316"><time>1970-01-01T00:00:01.000Z</time></trkpt>
			<trkpt lat="44.889109" lon="34.982316"><time>1970-01-01T00:00:01.000Z</time></trkpt>
			<trkpt lat="44.889560" lon="34.982617"><time>1970-01-01T00:00:01.000Z</time></trkpt>
			<trkpt lat="44.889775" lon="34.982853"><time>1970-01-01T00:00:01.000Z</time></trkpt>
			<trkpt lat="44.889839" lon="34.982853"><time>1970-01-01T00:00:01.000Z</time></trkpt>
			<trkpt lat="44.889818" lon="34.982702"><time>1970-01-01T00:00:01.000Z</time></trkpt>
			<trkpt lat="44.889624" lon="34.982166"><time>1970-01-01T00:00:01.000Z</time></trkpt>
			<trkpt lat="44.889624" lon="34.982016"><time>1970-01-01T00:00:01.000Z</time></trkpt>
			<trkpt lat="44.889732" lon="34.981866"><time>1970-01-01T00:00:01.000Z</time></trkpt>
			<trkpt lat="44.890011" lon="34.981651"><time>1970-01-01T00:00:01.000Z</time></trkpt>
			<trkpt lat="44.890397" lon="34.980879"><time>1970-01-01T00:00:01.000Z</time></trkpt>
			<trkpt lat="44.890461" lon="34.980814"><time>1970-01-01T00:00:01.000Z</time></trkpt>
			<trkpt lat="44.890633" lon="34.981007"><time>1970-01-01T00:00:01.000Z</time></trkpt>
			<trkpt lat="44.890783" lon="34.981093"><time>1970-01-01T00:00:01.000Z</time></trkpt>
			<trkpt lat="44.891255" lon="34.980535"><time>1970-01-01T00:00:01.000Z</time></trkpt>
			<trkpt lat="44.891298" lon="34.980342"><time>1970-01-01T00:00:01.000Z</time></trkpt>
			<trkpt lat="44.891727" lon="34.979891"><time>1970-01-01T00:00:01.000Z</time></trkpt>
			<trkpt lat="44.891899" lon="34.979763"><time>1970-01-01T00:00:01.000Z</time></trkpt>
			<trkpt lat="44.891920" lon="34.979698"><time>1970-01-01T00:00:01.000Z</time></trkpt>
			<trkpt lat="44.892135" lon="34.979548"><time>1970-01-01T00:00:01.000Z</time></trkpt>
			<trkpt lat="44.892307" lon="34.979527"><time>1970-01-01T00:00:01.000Z</time></trkpt>
			<trkpt lat="44.892457" lon="34.979398"><time>1970-01-01T00:00:01.000Z</time></trkpt>
			<trkpt lat="44.892543" lon="34.979140"><time>1970-01-01T00:00:01.000Z</time></trkpt>
			<trkpt lat="44.892607" lon="34.979183"><time>1970-01-01T00:00:01.000Z</time></trkpt>
			<trkpt lat="44.892800" lon="34.979055"><time>1970-01-01T00:00:01.000Z</time></trkpt>
			<trkpt lat="44.892822" lon="34.979119"><time>1970-01-01T00:00:01.000Z</time></trkpt>
			<trkpt lat="44.892822" lon="34.979033"><time>1970-01-01T00:00:01.000Z</time></trkpt>
			<trkpt lat="44.893143" lon="34.978797"><time>1970-01-01T00:00:01.000Z</time></trkpt>
			<trkpt lat="44.893358" lon="34.978411"><time>1970-01-01T00:00:01.000Z</time></trkpt>
			<trkpt lat="44.893830" lon="34.977874"><time>1970-01-01T00:00:01.000Z</time></trkpt>
			<trkpt lat="44.894152" lon="34.977038"><time>1970-01-01T00:00:01.000Z</time></trkpt>
			<trkpt lat="44.894581" lon="34.976544"><time>1970-01-01T00:00:01.000Z</time></trkpt>
			<trkpt lat="44.894882" lon="34.975965"><time>1970-01-01T00:00:01.000Z</time></trkpt>
			<trkpt lat="44.895225" lon="34.975686"><time>1970-01-01T00:00:01.000Z</time></trkpt>
			<trkpt lat="44.895354" lon="34.975514"><time>1970-01-01T00:00:01.000Z</time></trkpt>
			<trkpt lat="44.895869" lon="34.975300"><time>1970-01-01T00:00:01.000Z</time></trkpt>
			<trkpt lat="44.896040" lon="34.974763"><time>1970-01-01T00:00:01.000Z</time></trkpt>
			<trkpt lat="44.896233" lon="34.974355"><time>1970-01-01T00:00:01.000Z</time></trkpt>
			<trkpt lat="44.896362" lon="34.974184"><time>1970-01-01T00:00:01.000Z</time></trkpt>
			<trkpt lat="44.896641" lon="34.973969"><time>1970-01-01T00:00:01.000Z</time></trkpt>
			<trkpt lat="44.897113" lon="34.973089"><time>1970-01-01T00:00:01.000Z</time></trkpt>
			<trkpt lat="44.897564" lon="34.972467"><time>1970-01-01T00:00:01.000Z</time></trkpt>
			<trkpt lat="44.897671" lon="34.972253"><time>1970-01-01T00:00:01.000Z</time></trkpt>
			<trkpt lat="44.898122" lon="34.971823"><time>1970-01-01T00:00:01.000Z</time></trkpt>
			<trkpt lat="44.898122" lon="34.971738"><time>1970-01-01T00:00:01.000Z</time></trkpt>
			<trkpt lat="44.898250" lon="34.971609"><time>1970-01-01T00:00:01.000Z</time></trkpt>
			<trkpt lat="44.898336" lon="34.971416"><time>1970-01-01T00:00:01.000Z</time></trkpt>
			<trkpt lat="44.898465" lon="34.971265"><time>1970-01-01T00:00:01.000Z</time></trkpt>
			<trkpt lat="44.898722" lon="34.970686"><time>1970-01-01T00:00:01.000Z</time></trkpt>
			<trkpt lat="44.898851" lon="34.970214"><time>1970-01-01T00:00:01.000Z</time></trkpt>
			<trkpt lat="44.899044" lon="34.970021"><time>1970-01-01T00:00:01.000Z</time></trkpt>
			<trkpt lat="44.899302" lon="34.969506"><time>1970-01-01T00:00:01.000Z</time></trkpt>
			<trkpt lat="44.899452" lon="34.969334"><time>1970-01-01T00:00:01.000Z</time></trkpt>
			<trkpt lat="44.899838" lon="34.969313"><time>1970-01-01T00:00:01.000Z</time></trkpt>
			<trkpt lat="44.899731" lon="34.965665"><time>1970-01-01T00:00:01.000Z</time></trkpt>
			<trkpt lat="44.899195" lon="34.963154"><time>1970-01-01T00:00:01.000Z</time></trkpt>
			<trkpt lat="44.898873" lon="34.962618"><time>1970-01-01T00:00:01.000Z</time></trkpt>
			<trkpt lat="44.898744" lon="34.962232"><time>1970-01-01T00:00:01.000Z</time></trkpt>
			<trkpt lat="44.898572" lon="34.961953"><time>1970-01-01T00:00:01.000Z</time></trkpt>
			<trkpt lat="44.898486" lon="34.961545"><time>1970-01-01T00:00:01.000Z</time></trkpt>
			<trkpt lat="44.898079" lon="34.960837"><time>1970-01-01T00:00:01.000Z</time></trkpt>
			<trkpt lat="44.897821" lon="34.960515"><time>1970-01-01T00:00:01.000Z</time></trkpt>
			<trkpt lat="44.897757" lon="34.960322"><time>1970-01-01T00:00:01.000Z</time></trkpt>
			<trkpt lat="44.897628" lon="34.960129"><time>1970-01-01T00:00:01.000Z</time></trkpt>
			<trkpt lat="44.897478" lon="34.960000"><time>1970-01-01T00:00:01.000Z</time></trkpt>
			<trkpt lat="44.897371" lon="34.959957"><time>1970-01-01T00:00:01.000Z</time></trkpt>
			<trkpt lat="44.897328" lon="34.959764"><time>1970-01-01T00:00:01.000Z</time></trkpt>
			<trkpt lat="44.897349" lon="34.959528"><time>1970-01-01T00:00:01.000Z</time></trkpt>
			<trkpt lat="44.897263" lon="34.959442"><time>1970-01-01T00:00:01.000Z</time></trkpt>
			<trkpt lat="44.896620" lon="34.959099"><time>1970-01-01T00:00:01.000Z</time></trkpt>
			<trkpt lat="44.896448" lon="34.958970"><time>1970-01-01T00:00:01.000Z</time></trkpt>
			<trkpt lat="44.896126" lon="34.958605"><time>1970-01-01T00:00:01.000Z</time></trkpt>
			<trkpt lat="44.896620" lon="34.958627"><time>1970-01-01T00:00:01.000Z</time></trkpt>
			<trkpt lat="44.896791" lon="34.958584"><time>1970-01-01T00:00:01.000Z</time></trkpt>
			<trkpt lat="44.897070" lon="34.958605"><time>1970-01-01T00:00:01.000Z</time></trkpt>
			<trkpt lat="44.897435" lon="34.958498"><time>1970-01-01T00:00:01.000Z</time></trkpt>
			<trkpt lat="44.897864" lon="34.958455"><time>1970-01-01T00:00:01.000Z</time></trkpt>
			<trkpt lat="44.897993" lon="34.958305"><time>1970-01-01T00:00:01.000Z</time></trkpt>
			<trkpt lat="44.898207" lon="34.958262"><time>1970-01-01T00:00:01.000Z</time></trkpt>
			<trkpt lat="44.898315" lon="34.958198"><time>1970-01-01T00:00:01.000Z</time></trkpt>
			<trkpt lat="44.898680" lon="34.957747"><time>1970-01-01T00:00:01.000Z</time></trkpt>
			<trkpt lat="44.898980" lon="34.957189"><time>1970-01-01T00:00:01.000Z</time></trkpt>
			<trkpt lat="44.899066" lon="34.957125"><time>1970-01-01T00:00:01.000Z</time></trkpt>
			<trkpt lat="44.899345" lon="34.957061"><time>1970-01-01T00:00:01.000Z</time></trkpt>
			<trkpt lat="44.899581" lon="34.956889"><time>1970-01-01T00:00:01.000Z</time></trkpt>
			<trkpt lat="44.900182" lon="34.956202"><time>1970-01-01T00:00:01.000Z</time></trkpt>
			<trkpt lat="44.900525" lon="34.955580"><time>1970-01-01T00:00:01.000Z</time></trkpt>
			<trkpt lat="44.900568" lon="34.954893"><time>1970-01-01T00:00:01.000Z</time></trkpt>
			<trkpt lat="44.900439" lon="34.954335"><time>1970-01-01T00:00:01.000Z</time></trkpt>
			<trkpt lat="44.900332" lon="34.954228"><time>1970-01-01T00:00:01.000Z</time></trkpt>
			<trkpt lat="44.900117" lon="34.954164"><time>1970-01-01T00:00:01.000Z</time></trkpt>
			<trkpt lat="44.900031" lon="34.954078"><time>1970-01-01T00:00:01.000Z</time></trkpt>
			<trkpt lat="44.899946" lon="34.953434"><time>1970-01-01T00:00:01.000Z</time></trkpt>
			<trkpt lat="44.899538" lon="34.952597"><time>1970-01-01T00:00:01.000Z</time></trkpt>
			<trkpt lat="44.899602" lon="34.952233"><time>1970-01-01T00:00:01.000Z</time></trkpt>
			<trkpt lat="44.899559" lon="34.952061"><time>1970-01-01T00:00:01.000Z</time></trkpt>
			<trkpt lat="44.899130" lon="34.951460"><time>1970-01-01T00:00:01.000Z</time></trkpt>
			<trkpt lat="44.898916" lon="34.950537"><time>1970-01-01T00:00:01.000Z</time></trkpt>
			<trkpt lat="44.899431" lon="34.949701"><time>1970-01-01T00:00:01.000Z</time></trkpt>
			<trkpt lat="44.899774" lon="34.948671"><time>1970-01-01T00:00:01.000Z</time></trkpt>
			<trkpt lat="44.899967" lon="34.948349"><time>1970-01-01T00:00:01.000Z</time></trkpt>
			<trkpt lat="44.900225" lon="34.947662"><time>1970-01-01T00:00:01.000Z</time></trkpt>
			<trkpt lat="44.900310" lon="34.947190"><time>1970-01-01T00:00:01.000Z</time></trkpt>
			<trkpt lat="44.900289" lon="34.946997"><time>1970-01-01T00:00:01.000Z</time></trkpt>
			<trkpt lat="44.900160" lon="34.946718"><time>1970-01-01T00:00:01.000Z</time></trkpt>
			<trkpt lat="44.900160" lon="34.946611"><time>1970-01-01T00:00:01.000Z</time></trkpt>
			<trkpt lat="44.900546" lon="34.946203"><time>1970-01-01T00:00:01.000Z</time></trkpt>
			<trkpt lat="44.900611" lon="34.946053"><time>1970-01-01T00:00:01.000Z</time></trkpt>
			<trkpt lat="44.900868" lon="34.944915"><time>1970-01-01T00:00:01.000Z</time></trkpt>
			<trkpt lat="44.901469" lon="34.943027"><time>1970-01-01T00:00:01.000Z</time></trkpt>
			<trkpt lat="44.901555" lon="34.942877"><time>1970-01-01T00:00:01.000Z</time></trkpt>
			<trkpt lat="44.901705" lon="34.942727"><time>1970-01-01T00:00:01.000Z</time></trkpt>
			<trkpt lat="44.901920" lon="34.942341"><time>1970-01-01T00:00:01.000Z</time></trkpt>
			<trkpt lat="44.902070" lon="34.941783"><time>1970-01-01T00:00:01.000Z</time></trkpt>
			<trkpt lat="44.902156" lon="34.941590"><time>1970-01-01T00:00:01.000Z</time></trkpt>
			<trkpt lat="44.902821" lon="34.940645"><time>1970-01-01T00:00:01.000Z</time></trkpt>
			<trkpt lat="44.903057" lon="34.940517"><time>1970-01-01T00:00:01.000Z</time></trkpt>
			<trkpt lat="44.903550" lon="34.940345"><time>1970-01-01T00:00:01.000Z</time></trkpt>
			<trkpt lat="44.903636" lon="34.940173"><time>1970-01-01T00:00:01.000Z</time></trkpt>
			<trkpt lat="44.903615" lon="34.939916"><time>1970-01-01T00:00:01.000Z</time></trkpt>
			<trkpt lat="44.903915" lon="34.939809"><time>1970-01-01T00:00:01.000Z</time></trkpt>
			<trkpt lat="44.903658" lon="34.939444"><time>1970-01-01T00:00:01.000Z</time></trkpt>
			<trkpt lat="44.903314" lon="34.938457"><time>1970-01-01T00:00:01.000Z</time></trkpt>
			<trkpt lat="44.903229" lon="34.937985"><time>1970-01-01T00:00:01.000Z</time></trkpt>
			<trkpt lat="44.903143" lon="34.937770"><time>1970-01-01T00:00:01.000Z</time></trkpt>
			<trkpt lat="44.903143" lon="34.936654"><time>1970-01-01T00:00:01.000Z</time></trkpt>
			<trkpt lat="44.902950" lon="34.936139"><time>1970-01-01T00:00:01.000Z</time></trkpt>
			<trkpt lat="44.902842" lon="34.935710"><time>1970-01-01T00:00:01.000Z</time></trkpt>
			<trkpt lat="44.902542" lon="34.935045"><time>1970-01-01T00:00:01.000Z</time></trkpt>
			<trkpt lat="44.902220" lon="34.934680"><time>1970-01-01T00:00:01.000Z</time></trkpt>
			<trkpt lat="44.901769" lon="34.934466"><time>1970-01-01T00:00:01.000Z</time></trkpt>
			<trkpt lat="44.901533" lon="34.934294"><time>1970-01-01T00:00:01.000Z</time></trkpt>
			<trkpt lat="44.901297" lon="34.934251"><time>1970-01-01T00:00:01.000Z</time></trkpt>
			<trkpt lat="44.901083" lon="34.934015"><time>1970-01-01T00:00:01.000Z</time></trkpt>
			<trkpt lat="44.900825" lon="34.934015"><time>1970-01-01T00:00:01.000Z</time></trkpt>
			<trkpt lat="44.900697" lon="34.933951"><time>1970-01-01T00:00:01.000Z</time></trkpt>
			<trkpt lat="44.900461" lon="34.933650"><time>1970-01-01T00:00:01.000Z</time></trkpt>
			<trkpt lat="44.900418" lon="34.933479"><time>1970-01-01T00:00:01.000Z</time></trkpt>
			<trkpt lat="44.900246" lon="34.933200"><time>1970-01-01T00:00:01.000Z</time></trkpt>
			<trkpt lat="44.900225" lon="34.932062"><time>1970-01-01T00:00:01.000Z</time></trkpt>
			<trkpt lat="44.900503" lon="34.931118"><time>1970-01-01T00:00:01.000Z</time></trkpt>
			<trkpt lat="44.900847" lon="34.929316"><time>1970-01-01T00:00:01.000Z</time></trkpt>
			<trkpt lat="44.900804" lon="34.929123"><time>1970-01-01T00:00:01.000Z</time></trkpt>
			<trkpt lat="44.900675" lon="34.928887"><time>1970-01-01T00:00:01.000Z</time></trkpt>
			<trkpt lat="44.900632" lon="34.928350"><time>1970-01-01T00:00:01.000Z</time></trkpt>
			<trkpt lat="44.900525" lon="34.928136"><time>1970-01-01T00:00:01.000Z</time></trkpt>
			<trkpt lat="44.899838" lon="34.926119"><time>1970-01-01T00:00:01.000Z</time></trkpt>
			<trkpt lat="44.899688" lon="34.925883"><time>1970-01-01T00:00:01.000Z</time></trkpt>
			<trkpt lat="44.899581" lon="34.925282"><time>1970-01-01T00:00:01.000Z</time></trkpt>
			<trkpt lat="44.899624" lon="34.924917"><time>1970-01-01T00:00:01.000Z</time></trkpt>
			<trkpt lat="44.899559" lon="34.924788"><time>1970-01-01T00:00:01.000Z</time></trkpt>
			<trkpt lat="44.899710" lon="34.924595"><time>1970-01-01T00:00:01.000Z</time></trkpt>
			<trkpt lat="44.899688" lon="34.924617"><time>1970-01-01T00:00:01.000Z</time></trkpt>
			<trkpt lat="44.899731" lon="34.924595"><time>1970-01-01T00:00:01.000Z</time></trkpt>
			<trkpt lat="44.899688" lon="34.924617"><time>1970-01-01T00:00:01.000Z</time></trkpt>
			<trkpt lat="44.899731" lon="34.924638"><time>1970-01-01T00:00:01.000Z</time></trkpt>
			<trkpt lat="44.899688" lon="34.924574"><time>1970-01-01T00:00:01.000Z</time></trkpt>
			<trkpt lat="44.899667" lon="34.924617"><time>1970-01-01T00:00:01.000Z</time></trkpt>
			<trkpt lat="44.899795" lon="34.924659"><time>1970-01-01T00:00:01.000Z</time></trkpt>
			<trkpt lat="44.899881" lon="34.924595"><time>1970-01-01T00:00:01.000Z</time></trkpt>
			<trkpt lat="44.899817" lon="34.924423"><time>1970-01-01T00:00:01.000Z</time></trkpt>
			<trkpt lat="44.899903" lon="34.924144"><time>1970-01-01T00:00:01.000Z</time></trkpt>
			<trkpt lat="44.899903" lon="34.923887"><time>1970-01-01T00:00:01.000Z</time></trkpt>
			<trkpt lat="44.899860" lon="34.923865"><time>1970-01-01T00:00:01.000Z</time></trkpt>
			<trkpt lat="44.899967" lon="34.923823"><time>1970-01-01T00:00:01.000Z</time></trkpt>
			<trkpt lat="44.900096" lon="34.923672"><time>1970-01-01T00:00:01.000Z</time></trkpt>
			<trkpt lat="44.900203" lon="34.923415"><time>1970-01-01T00:00:01.000Z</time></trkpt>
			<trkpt lat="44.900439" lon="34.923093"><time>1970-01-01T00:00:01.000Z</time></trkpt>
			<trkpt lat="44.900461" lon="34.923007"><time>1970-01-01T00:00:01.000Z</time></trkpt>
			<trkpt lat="44.900396" lon="34.922986"><time>1970-01-01T00:00:01.000Z</time></trkpt>
			<trkpt lat="44.900332" lon="34.922900"><time>1970-01-01T00:00:01.000Z</time></trkpt>
			<trkpt lat="44.900396" lon="34.922642"><time>1970-01-01T00:00:01.000Z</time></trkpt>
			<trkpt lat="44.900182" lon="34.922664"><time>1970-01-01T00:00:01.000Z</time></trkpt>
			<trkpt lat="44.900117" lon="34.922578"><time>1970-01-01T00:00:01.000Z</time></trkpt>
			<trkpt lat="44.900031" lon="34.922685"><time>1970-01-01T00:00:01.000Z</time></trkpt>
			<trkpt lat="44.899946" lon="34.922685"><time>1970-01-01T00:00:01.000Z</time></trkpt>
			<trkpt lat="44.899817" lon="34.922578"><time>1970-01-01T00:00:01.000Z</time></trkpt>
			<trkpt lat="44.899559" lon="34.922535"><time>1970-01-01T00:00:01.000Z</time></trkpt>
			<trkpt lat="44.899473" lon="34.922664"><time>1970-01-01T00:00:01.000Z</time></trkpt>
			<trkpt lat="44.899388" lon="34.922557"><time>1970-01-01T00:00:01.000Z</time></trkpt>
			<trkpt lat="44.899152" lon="34.922385"><time>1970-01-01T00:00:01.000Z</time></trkpt>
			<trkpt lat="44.899130" lon="34.922127"><time>1970-01-01T00:00:01.000Z</time></trkpt>
			<trkpt lat="44.899087" lon="34.922063"><time>1970-01-01T00:00:01.000Z</time></trkpt>
			<trkpt lat="44.898765" lon="34.921827"><time>1970-01-01T00:00:01.000Z</time></trkpt>
			<trkpt lat="44.898508" lon="34.921848"><time>1970-01-01T00:00:01.000Z</time></trkpt>
			<trkpt lat="44.898422" lon="34.921891"><time>1970-01-01T00:00:01.000Z</time></trkpt>
			<trkpt lat="44.898122" lon="34.921848"><time>1970-01-01T00:00:01.000Z</time></trkpt>
			<trkpt lat="44.898014" lon="34.921784"><time>1970-01-01T00:00:01.000Z</time></trkpt>
			<trkpt lat="44.897993" lon="34.921698"><time>1970-01-01T00:00:01.000Z</time></trkpt>
			<trkpt lat="44.897886" lon="34.921698"><time>1970-01-01T00:00:01.000Z</time></trkpt>
			<trkpt lat="44.897864" lon="34.921634"><time>1970-01-01T00:00:01.000Z</time></trkpt>
			<trkpt lat="44.897757" lon="34.921612"><time>1970-01-01T00:00:01.000Z</time></trkpt>
			<trkpt lat="44.897414" lon="34.921355"><time>1970-01-01T00:00:01.000Z</time></trkpt>
			<trkpt lat="44.897371" lon="34.921398"><time>1970-01-01T00:00:01.000Z</time></trkpt>
			<trkpt lat="44.896899" lon="34.921119"><time>1970-01-01T00:00:01.000Z</time></trkpt>
			<trkpt lat="44.896899" lon="34.920990"><time>1970-01-01T00:00:01.000Z</time></trkpt>
			<trkpt lat="44.896598" lon="34.920540"><time>1970-01-01T00:00:01.000Z</time></trkpt>
			<trkpt lat="44.896598" lon="34.920067"><time>1970-01-01T00:00:01.000Z</time></trkpt>
			<trkpt lat="44.896362" lon="34.919939"><time>1970-01-01T00:00:01.000Z</time></trkpt>
			<trkpt lat="44.896169" lon="34.919595"><time>1970-01-01T00:00:01.000Z</time></trkpt>
			<trkpt lat="44.896083" lon="34.919166"><time>1970-01-01T00:00:01.000Z</time></trkpt>
			<trkpt lat="44.896019" lon="34.919080"><time>1970-01-01T00:00:01.000Z</time></trkpt>
			<trkpt lat="44.895933" lon="34.919038"><time>1970-01-01T00:00:01.000Z</time></trkpt>
			<trkpt lat="44.895804" lon="34.918844"><time>1970-01-01T00:00:01.000Z</time></trkpt>
			<trkpt lat="44.895761" lon="34.918694"><time>1970-01-01T00:00:01.000Z</time></trkpt>
			<trkpt lat="44.895783" lon="34.917879"><time>1970-01-01T00:00:01.000Z</time></trkpt>
			<trkpt lat="44.895869" lon="34.917857"><time>1970-01-01T00:00:01.000Z</time></trkpt>
			<trkpt lat="44.895912" lon="34.917793"><time>1970-01-01T00:00:01.000Z</time></trkpt>
			<trkpt lat="44.895890" lon="34.917578"><time>1970-01-01T00:00:01.000Z</time></trkpt>
			<trkpt lat="44.896040" lon="34.916892"><time>1970-01-01T00:00:01.000Z</time></trkpt>
			<trkpt lat="44.896169" lon="34.916634"><time>1970-01-01T00:00:01.000Z</time></trkpt>
			<trkpt lat="44.896126" lon="34.916656"><time>1970-01-01T00:00:01.000Z</time></trkpt>
			<trkpt lat="44.896083" lon="34.916570"><time>1970-01-01T00:00:01.000Z</time></trkpt>
			<trkpt lat="44.895997" lon="34.916527"><time>1970-01-01T00:00:01.000Z</time></trkpt>
			<trkpt lat="44.895954" lon="34.916420"><time>1970-01-01T00:00:01.000Z</time></trkpt>
			<trkpt lat="44.895804" lon="34.916377"><time>1970-01-01T00:00:01.000Z</time></trkpt>
			<trkpt lat="44.895010" lon="34.915347"><time>1970-01-01T00:00:01.000Z</time></trkpt>
			<trkpt lat="44.894946" lon="34.914467"><time>1970-01-01T00:00:01.000Z</time></trkpt>
			<trkpt lat="44.894796" lon="34.913330"><time>1970-01-01T00:00:01.000Z</time></trkpt>
			<trkpt lat="44.894817" lon="34.912986"><time>1970-01-01T00:00:01.000Z</time></trkpt>
			<trkpt lat="44.894624" lon="34.912364"><time>1970-01-01T00:00:01.000Z</time></trkpt>
			<trkpt lat="44.894238" lon="34.911806"><time>1970-01-01T00:00:01.000Z</time></trkpt>
			<trkpt lat="44.894302" lon="34.911248"><time>1970-01-01T00:00:01.000Z</time></trkpt>
			<trkpt lat="44.893937" lon="34.909081"><time>1970-01-01T00:00:01.000Z</time></trkpt>
			<trkpt lat="44.893058" lon="34.908287"><time>1970-01-01T00:00:01.000Z</time></trkpt>
			<trkpt lat="44.893208" lon="34.907643"><time>1970-01-01T00:00:01.000Z</time></trkpt>
			<trkpt lat="44.892843" lon="34.907129"><time>1970-01-01T00:00:01.000Z</time></trkpt>
			<trkpt lat="44.893916" lon="34.906549"><time>1970-01-01T00:00:01.000Z</time></trkpt>
			<trkpt lat="44.893165" lon="34.906270"><time>1970-01-01T00:00:01.000Z</time></trkpt>
			<trkpt lat="44.892779" lon="34.905991"><time>1970-01-01T00:00:01.000Z</time></trkpt>
			<trkpt lat="44.892693" lon="34.905820"><time>1970-01-01T00:00:01.000Z</time></trkpt>
			<trkpt lat="44.892693" lon="34.905412"><time>1970-01-01T00:00:01.000Z</time></trkpt>
			<trkpt lat="44.892779" lon="34.904875"><time>1970-01-01T00:00:01.000Z</time></trkpt>
			<trkpt lat="44.893143" lon="34.903652"><time>1970-01-01T00:00:01.000Z</time></trkpt>
			<trkpt lat="44.893701" lon="34.902644"><time>1970-01-01T00:00:01.000Z</time></trkpt>
			<trkpt lat="44.894066" lon="34.902301"><time>1970-01-01T00:00:01.000Z</time></trkpt>
			<trkpt lat="44.894345" lon="34.902129"><time>1970-01-01T00:00:01.000Z</time></trkpt>
			<trkpt lat="44.894431" lon="34.901957"><time>1970-01-01T00:00:01.000Z</time></trkpt>
			<trkpt lat="44.894345" lon="34.901807"><time>1970-01-01T00:00:01.000Z</time></trkpt>
			<trkpt lat="44.894066" lon="34.901528"><time>1970-01-01T00:00:01.000Z</time></trkpt>
			<trkpt lat="44.893766" lon="34.901077"><time>1970-01-01T00:00:01.000Z</time></trkpt>
			<trkpt lat="44.893251" lon="34.900584"><time>1970-01-01T00:00:01.000Z</time></trkpt>
			<trkpt lat="44.893143" lon="34.900369"><time>1970-01-01T00:00:01.000Z</time></trkpt>
			<trkpt lat="44.893079" lon="34.900090"><time>1970-01-01T00:00:01.000Z</time></trkpt>
			<trkpt lat="44.893186" lon="34.900026"><time>1970-01-01T00:00:01.000Z</time></trkpt>
			<trkpt lat="44.893294" lon="34.900026"><time>1970-01-01T00:00:01.000Z</time></trkpt>
			<trkpt lat="44.893422" lon="34.899940"><time>1970-01-01T00:00:01.000Z</time></trkpt>
			<trkpt lat="44.893465" lon="34.899811"><time>1970-01-01T00:00:01.000Z</time></trkpt>
			<trkpt lat="44.893852" lon="34.899597"><time>1970-01-01T00:00:01.000Z</time></trkpt>
			<trkpt lat="44.894066" lon="34.899382"><time>1970-01-01T00:00:01.000Z</time></trkpt>
			<trkpt lat="44.894345" lon="34.899296"><time>1970-01-01T00:00:01.000Z</time></trkpt>
			<trkpt lat="44.894731" lon="34.898760"><time>1970-01-01T00:00:01.000Z</time></trkpt>
			<trkpt lat="44.895182" lon="34.897923"><time>1970-01-01T00:00:01.000Z</time></trkpt>
			<trkpt lat="44.895311" lon="34.897515"><time>1970-01-01T00:00:01.000Z</time></trkpt>
			<trkpt lat="44.895461" lon="34.897215"><time>1970-01-01T00:00:01.000Z</time></trkpt>
			<trkpt lat="44.895718" lon="34.896292"><time>1970-01-01T00:00:01.000Z</time></trkpt>
			<trkpt lat="44.895675" lon="34.895928"><time>1970-01-01T00:00:01.000Z</time></trkpt>
			<trkpt lat="44.896212" lon="34.894919"><time>1970-01-01T00:00:01.000Z</time></trkpt>
			<trkpt lat="44.897156" lon="34.892280"><time>1970-01-01T00:00:01.000Z</time></trkpt>
			<trkpt lat="44.897113" lon="34.892151"><time>1970-01-01T00:00:01.000Z</time></trkpt>
			<trkpt lat="44.897199" lon="34.892087"><time>1970-01-01T00:00:01.000Z</time></trkpt>
			<trkpt lat="44.897220" lon="34.891615"><time>1970-01-01T00:00:01.000Z</time></trkpt>
			<trkpt lat="44.896984" lon="34.889962"><time>1970-01-01T00:00:01.000Z</time></trkpt>
			<trkpt lat="44.897027" lon="34.889168"><time>1970-01-01T00:00:01.000Z</time></trkpt>
			<trkpt lat="44.897199" lon="34.888353"><time>1970-01-01T00:00:01.000Z</time></trkpt>
			<trkpt lat="44.897178" lon="34.887860"><time>1970-01-01T00:00:01.000Z</time></trkpt>
			<trkpt lat="44.897092" lon="34.887495"><time>1970-01-01T00:00:01.000Z</time></trkpt>
			<trkpt lat="44.897092" lon="34.887323"><time>1970-01-01T00:00:01.000Z</time></trkpt>
			<trkpt lat="44.897414" lon="34.886508"><time>1970-01-01T00:00:01.000Z</time></trkpt>
			<trkpt lat="44.897499" lon="34.885864"><time>1970-01-01T00:00:01.000Z</time></trkpt>
			<trkpt lat="44.897628" lon="34.885585"><time>1970-01-01T00:00:01.000Z</time></trkpt>
			<trkpt lat="44.897757" lon="34.885413"><time>1970-01-01T00:00:01.000Z</time></trkpt>
			<trkpt lat="44.897993" lon="34.884576"><time>1970-01-01T00:00:01.000Z</time></trkpt>
			<trkpt lat="44.898422" lon="34.883461"><time>1970-01-01T00:00:01.000Z</time></trkpt>
			<trkpt lat="44.898722" lon="34.883010"><time>1970-01-01T00:00:01.000Z</time></trkpt>
			<trkpt lat="44.898787" lon="34.882688"><time>1970-01-01T00:00:01.000Z</time></trkpt>
			<trkpt lat="44.898980" lon="34.882323"><time>1970-01-01T00:00:01.000Z</time></trkpt>
			<trkpt lat="44.899195" lon="34.881615"><time>1970-01-01T00:00:01.000Z</time></trkpt>
			<trkpt lat="44.899216" lon="34.881015"><time>1970-01-01T00:00:01.000Z</time></trkpt>
			<trkpt lat="44.899409" lon="34.880027"><time>1970-01-01T00:00:01.000Z</time></trkpt>
			<trkpt lat="44.899409" lon="34.879834"><time>1970-01-01T00:00:01.000Z</time></trkpt>
			<trkpt lat="44.899473" lon="34.879641"><time>1970-01-01T00:00:01.000Z</time></trkpt>
			<trkpt lat="44.899624" lon="34.878525"><time>1970-01-01T00:00:01.000Z</time></trkpt>
			<trkpt lat="44.899924" lon="34.877753"><time>1970-01-01T00:00:01.000Z</time></trkpt>
			<trkpt lat="44.900182" lon="34.877238"><time>1970-01-01T00:00:01.000Z</time></trkpt>
			<trkpt lat="44.900396" lon="34.877002"><time>1970-01-01T00:00:01.000Z</time></trkpt>
			<trkpt lat="44.901340" lon="34.875500"><time>1970-01-01T00:00:01.000Z</time></trkpt>
			<trkpt lat="44.901448" lon="34.875135"><time>1970-01-01T00:00:01.000Z</time></trkpt>
			<trkpt lat="44.901598" lon="34.874062"><time>1970-01-01T00:00:01.000Z</time></trkpt>
			<trkpt lat="44.901812" lon="34.873204"><time>1970-01-01T00:00:01.000Z</time></trkpt>
			<trkpt lat="44.902070" lon="34.872667"><time>1970-01-01T00:00:01.000Z</time></trkpt>
			<trkpt lat="44.902392" lon="34.872281"><time>1970-01-01T00:00:01.000Z</time></trkpt>
			<trkpt lat="44.902842" lon="34.871423"><time>1970-01-01T00:00:01.000Z</time></trkpt>
			<trkpt lat="44.903443" lon="34.869814"><time>1970-01-01T00:00:01.000Z</time></trkpt>
			<trkpt lat="44.903701" lon="34.869363"><time>1970-01-01T00:00:01.000Z</time></trkpt>
			<trkpt lat="44.903808" lon="34.869384"><time>1970-01-01T00:00:01.000Z</time></trkpt>
			<trkpt lat="44.903958" lon="34.869170"><time>1970-01-01T00:00:01.000Z</time></trkpt>
			<trkpt lat="44.904044" lon="34.868869"><time>1970-01-01T00:00:01.000Z</time></trkpt>
			<trkpt lat="44.904130" lon="34.868827"><time>1970-01-01T00:00:01.000Z</time></trkpt>
			<trkpt lat="44.904752" lon="34.867518"><time>1970-01-01T00:00:01.000Z</time></trkpt>
			<trkpt lat="44.905160" lon="34.867046"><time>1970-01-01T00:00:01.000Z</time></trkpt>
			<trkpt lat="44.905353" lon="34.866702"><time>1970-01-01T00:00:01.000Z</time></trkpt>
			<trkpt lat="44.905846" lon="34.866316"><time>1970-01-01T00:00:01.000Z</time></trkpt>
			<trkpt lat="44.906490" lon="34.866209"><time>1970-01-01T00:00:01.000Z</time></trkpt>
			<trkpt lat="44.906576" lon="34.866144"><time>1970-01-01T00:00:01.000Z</time></trkpt>
			<trkpt lat="44.906683" lon="34.866144"><time>1970-01-01T00:00:01.000Z</time></trkpt>
			<trkpt lat="44.906919" lon="34.866037"><time>1970-01-01T00:00:01.000Z</time></trkpt>
			<trkpt lat="44.907306" lon="34.866037"><time>1970-01-01T00:00:01.000Z</time></trkpt>
			<trkpt lat="44.907477" lon="34.865608"><time>1970-01-01T00:00:01.000Z</time></trkpt>
			<trkpt lat="44.907649" lon="34.865372"><time>1970-01-01T00:00:01.000Z</time></trkpt>
			<trkpt lat="44.907799" lon="34.865071"><time>1970-01-01T00:00:01.000Z</time></trkpt>
			<trkpt lat="44.907821" lon="34.865222"><time>1970-01-01T00:00:01.000Z</time></trkpt>
			<trkpt lat="44.908078" lon="34.865093"><time>1970-01-01T00:00:01.000Z</time></trkpt>
			<trkpt lat="44.908357" lon="34.864814"><time>1970-01-01T00:00:01.000Z</time></trkpt>
			<trkpt lat="44.908464" lon="34.864750"><time>1970-01-01T00:00:01.000Z</time></trkpt>
			<trkpt lat="44.908808" lon="34.864750"><time>1970-01-01T00:00:01.000Z</time></trkpt>
			<trkpt lat="44.909087" lon="34.864578"><time>1970-01-01T00:00:01.000Z</time></trkpt>
			<trkpt lat="44.909365" lon="34.864192"><time>1970-01-01T00:00:01.000Z</time></trkpt>
			<trkpt lat="44.910116" lon="34.863999"><time>1970-01-01T00:00:01.000Z</time></trkpt>
			<trkpt lat="44.910503" lon="34.863698"><time>1970-01-01T00:00:01.000Z</time></trkpt>
			<trkpt lat="44.910610" lon="34.863698"><time>1970-01-01T00:00:01.000Z</time></trkpt>
			<trkpt lat="44.910782" lon="34.863591"><time>1970-01-01T00:00:01.000Z</time></trkpt>
			<trkpt lat="44.911275" lon="34.863569"><time>1970-01-01T00:00:01.000Z</time></trkpt>
			<trkpt lat="44.911533" lon="34.863505"><time>1970-01-01T00:00:01.000Z</time></trkpt>
			<trkpt lat="44.911812" lon="34.863505"><time>1970-01-01T00:00:01.000Z</time></trkpt>
			<trkpt lat="44.912284" lon="34.863312"><time>1970-01-01T00:00:01.000Z</time></trkpt>
			<trkpt lat="44.912455" lon="34.863333"><time>1970-01-01T00:00:01.000Z</time></trkpt>
			<trkpt lat="44.912799" lon="34.863119"><time>1970-01-01T00:00:01.000Z</time></trkpt>
			<trkpt lat="44.912906" lon="34.863140"><time>1970-01-01T00:00:01.000Z</time></trkpt>
			<trkpt lat="44.913013" lon="34.863033"><time>1970-01-01T00:00:01.000Z</time></trkpt>
			<trkpt lat="44.913121" lon="34.863033"><time>1970-01-01T00:00:01.000Z</time></trkpt>
			<trkpt lat="44.913507" lon="34.863226"><time>1970-01-01T00:00:01.000Z</time></trkpt>
			<trkpt lat="44.913957" lon="34.863269"><time>1970-01-01T00:00:01.000Z</time></trkpt>
			<trkpt lat="44.914451" lon="34.863419"><time>1970-01-01T00:00:01.000Z</time></trkpt>
			<trkpt lat="44.914644" lon="34.863376"><time>1970-01-01T00:00:01.000Z</time></trkpt>
			<trkpt lat="44.915052" lon="34.863119"><time>1970-01-01T00:00:01.000Z</time></trkpt>
			<trkpt lat="44.915738" lon="34.862797"><time>1970-01-01T00:00:01.000Z</time></trkpt>
			<trkpt lat="44.915974" lon="34.862797"><time>1970-01-01T00:00:01.000Z</time></trkpt>
			<trkpt lat="44.916447" lon="34.862947"><time>1970-01-01T00:00:01.000Z</time></trkpt>
			<trkpt lat="44.916876" lon="34.862883"><time>1970-01-01T00:00:01.000Z</time></trkpt>
			<trkpt lat="44.917155" lon="34.862883"><time>1970-01-01T00:00:01.000Z</time></trkpt>
			<trkpt lat="44.917670" lon="34.863119"><time>1970-01-01T00:00:01.000Z</time></trkpt>
			<trkpt lat="44.918549" lon="34.863827"><time>1970-01-01T00:00:01.000Z</time></trkpt>
			<trkpt lat="44.918807" lon="34.863913"><time>1970-01-01T00:00:01.000Z</time></trkpt>
			<trkpt lat="44.919000" lon="34.863848"><time>1970-01-01T00:00:01.000Z</time></trkpt>
			<trkpt lat="44.919601" lon="34.863763"><time>1970-01-01T00:00:01.000Z</time></trkpt>
			<trkpt lat="44.919944" lon="34.863634"><time>1970-01-01T00:00:01.000Z</time></trkpt>
			<trkpt lat="44.920245" lon="34.863569"><time>1970-01-01T00:00:01.000Z</time></trkpt>
			<trkpt lat="44.920674" lon="34.863569"><time>1970-01-01T00:00:01.000Z</time></trkpt>
			<trkpt lat="44.920781" lon="34.863505"><time>1970-01-01T00:00:01.000Z</time></trkpt>
			<trkpt lat="44.920888" lon="34.863376"><time>1970-01-01T00:00:01.000Z</time></trkpt>
			<trkpt lat="44.921060" lon="34.863054"><time>1970-01-01T00:00:01.000Z</time></trkpt>
			<trkpt lat="44.921274" lon="34.862861"><time>1970-01-01T00:00:01.000Z</time></trkpt>
			<trkpt lat="44.921403" lon="34.862668"><time>1970-01-01T00:00:01.000Z</time></trkpt>
			<trkpt lat="44.921532" lon="34.862604"><time>1970-01-01T00:00:01.000Z</time></trkpt>
			<trkpt lat="44.921940" lon="34.862690"><time>1970-01-01T00:00:01.000Z</time></trkpt>
			<trkpt lat="44.922068" lon="34.862775"><time>1970-01-01T00:00:01.000Z</time></trkpt>
			<trkpt lat="44.922197" lon="34.862775"><time>1970-01-01T00:00:01.000Z</time></trkpt>
			<trkpt lat="44.922455" lon="34.862947"><time>1970-01-01T00:00:01.000Z</time></trkpt>
			<trkpt lat="44.922884" lon="34.863097"><time>1970-01-01T00:00:01.000Z</time></trkpt>
			<trkpt lat="44.923270" lon="34.863183"><time>1970-01-01T00:00:01.000Z</time></trkpt>
			<trkpt lat="44.923570" lon="34.863140"><time>1970-01-01T00:00:01.000Z</time></trkpt>
			<trkpt lat="44.923742" lon="34.863162"><time>1970-01-01T00:00:01.000Z</time></trkpt>
			<trkpt lat="44.924343" lon="34.863548"><time>1970-01-01T00:00:01.000Z</time></trkpt>
			<trkpt lat="44.924493" lon="34.863527"><time>1970-01-01T00:00:01.000Z</time></trkpt>
			<trkpt lat="44.924622" lon="34.863591"><time>1970-01-01T00:00:01.000Z</time></trkpt>
			<trkpt lat="44.924858" lon="34.863634"><time>1970-01-01T00:00:01.000Z</time></trkpt>
			<trkpt lat="44.925480" lon="34.863527"><time>1970-01-01T00:00:01.000Z</time></trkpt>
			<trkpt lat="44.926145" lon="34.863205"><time>1970-01-01T00:00:01.000Z</time></trkpt>
			<trkpt lat="44.926725" lon="34.863183"><time>1970-01-01T00:00:01.000Z</time></trkpt>
			<trkpt lat="44.926982" lon="34.863054"><time>1970-01-01T00:00:01.000Z</time></trkpt>
			<trkpt lat="44.927347" lon="34.862775"><time>1970-01-01T00:00:01.000Z</time></trkpt>
			<trkpt lat="44.927626" lon="34.862947"><time>1970-01-01T00:00:01.000Z</time></trkpt>
			<trkpt lat="44.928313" lon="34.863505"><time>1970-01-01T00:00:01.000Z</time></trkpt>
			<trkpt lat="44.928570" lon="34.863913"><time>1970-01-01T00:00:01.000Z</time></trkpt>
			<trkpt lat="44.928720" lon="34.864599"><time>1970-01-01T00:00:01.000Z</time></trkpt>
			<trkpt lat="44.929021" lon="34.865050"><time>1970-01-01T00:00:01.000Z</time></trkpt>
			<trkpt lat="44.929171" lon="34.865157"><time>1970-01-01T00:00:01.000Z</time></trkpt>
			<trkpt lat="44.929321" lon="34.865071"><time>1970-01-01T00:00:01.000Z</time></trkpt>
			<trkpt lat="44.929385" lon="34.865222"><time>1970-01-01T00:00:01.000Z</time></trkpt>
			<trkpt lat="44.929600" lon="34.865071"><time>1970-01-01T00:00:01.000Z</time></trkpt>
			<trkpt lat="44.929815" lon="34.865071"><time>1970-01-01T00:00:01.000Z</time></trkpt>
			<trkpt lat="44.930136" lon="34.864921"><time>1970-01-01T00:00:01.000Z</time></trkpt>
			<trkpt lat="44.930244" lon="34.864835"><time>1970-01-01T00:00:01.000Z</time></trkpt>
			<trkpt lat="44.930351" lon="34.864642"><time>1970-01-01T00:00:01.000Z</time></trkpt>
			<trkpt lat="44.931252" lon="34.864771"><time>1970-01-01T00:00:01.000Z</time></trkpt>
			<trkpt lat="44.930866" lon="34.864063"><time>1970-01-01T00:00:01.000Z</time></trkpt>
			<trkpt lat="44.931038" lon="34.863848"><time>1970-01-01T00:00:01.000Z</time></trkpt>
			<trkpt lat="44.931209" lon="34.863848"><time>1970-01-01T00:00:01.000Z</time></trkpt>
			<trkpt lat="44.931488" lon="34.863569"><time>1970-01-01T00:00:01.000Z</time></trkpt>
			<trkpt lat="44.931917" lon="34.863505"><time>1970-01-01T00:00:01.000Z</time></trkpt>
			<trkpt lat="44.933248" lon="34.862668"><time>1970-01-01T00:00:01.000Z</time></trkpt>
			<trkpt lat="44.933334" lon="34.862647"><time>1970-01-01T00:00:01.000Z</time></trkpt>
			<trkpt lat="44.933484" lon="34.862110"><time>1970-01-01T00:00:01.000Z</time></trkpt>
			<trkpt lat="44.933591" lon="34.861917"><time>1970-01-01T00:00:01.000Z</time></trkpt>
			<trkpt lat="44.933827" lon="34.861660"><time>1970-01-01T00:00:01.000Z</time></trkpt>
			<trkpt lat="44.933956" lon="34.861402"><time>1970-01-01T00:00:01.000Z</time></trkpt>
			<trkpt lat="44.934106" lon="34.860737"><time>1970-01-01T00:00:01.000Z</time></trkpt>
			<trkpt lat="44.934106" lon="34.860136"><time>1970-01-01T00:00:01.000Z</time></trkpt>
			<trkpt lat="44.933827" lon="34.860351"><time>1970-01-01T00:00:01.000Z</time></trkpt>
			<trkpt lat="44.933677" lon="34.860394"><time>1970-01-01T00:00:01.000Z</time></trkpt>
			<trkpt lat="44.933484" lon="34.859814"><time>1970-01-01T00:00:01.000Z</time></trkpt>
			<trkpt lat="44.933248" lon="34.859578"><time>1970-01-01T00:00:01.000Z</time></trkpt>
			<trkpt lat="44.933162" lon="34.859407"><time>1970-01-01T00:00:01.000Z</time></trkpt>
			<trkpt lat="44.933055" lon="34.858892"><time>1970-01-01T00:00:01.000Z</time></trkpt>
			<trkpt lat="44.933033" lon="34.858463"><time>1970-01-01T00:00:01.000Z</time></trkpt>
			<trkpt lat="44.932969" lon="34.858312"><time>1970-01-01T00:00:01.000Z</time></trkpt>
			<trkpt lat="44.932862" lon="34.858226"><time>1970-01-01T00:00:01.000Z</time></trkpt>
			<trkpt lat="44.932754" lon="34.858012"><time>1970-01-01T00:00:01.000Z</time></trkpt>
			<trkpt lat="44.932454" lon="34.857840"><time>1970-01-01T00:00:01.000Z</time></trkpt>
			<trkpt lat="44.932068" lon="34.856853"><time>1970-01-01T00:00:01.000Z</time></trkpt>
			<trkpt lat="44.931939" lon="34.856746"><time>1970-01-01T00:00:01.000Z</time></trkpt>
			<trkpt lat="44.931274" lon="34.856596"><time>1970-01-01T00:00:01.000Z</time></trkpt>
			<trkpt lat="44.930694" lon="34.856617"><time>1970-01-01T00:00:01.000Z</time></trkpt>
			<trkpt lat="44.930330" lon="34.856252"><time>1970-01-01T00:00:01.000Z</time></trkpt>
			<trkpt lat="44.930179" lon="34.856145"><time>1970-01-01T00:00:01.000Z</time></trkpt>
			<trkpt lat="44.929707" lon="34.856059"><time>1970-01-01T00:00:01.000Z</time></trkpt>
			<trkpt lat="44.929664" lon="34.855995"><time>1970-01-01T00:00:01.000Z</time></trkpt>
			<trkpt lat="44.929557" lon="34.855995"><time>1970-01-01T00:00:01.000Z</time></trkpt>
			<trkpt lat="44.929407" lon="34.855888"><time>1970-01-01T00:00:01.000Z</time></trkpt>
			<trkpt lat="44.929257" lon="34.855716"><time>1970-01-01T00:00:01.000Z</time></trkpt>
			<trkpt lat="44.929149" lon="34.855115"><time>1970-01-01T00:00:01.000Z</time></trkpt>
			<trkpt lat="44.929171" lon="34.854600"><time>1970-01-01T00:00:01.000Z</time></trkpt>
			<trkpt lat="44.929707" lon="34.853248"><time>1970-01-01T00:00:01.000Z</time></trkpt>
			<trkpt lat="44.929793" lon="34.852175"><time>1970-01-01T00:00:01.000Z</time></trkpt>
			<trkpt lat="44.929900" lon="34.851982"><time>1970-01-01T00:00:01.000Z</time></trkpt>
			<trkpt lat="44.930051" lon="34.851575"><time>1970-01-01T00:00:01.000Z</time></trkpt>
			<trkpt lat="44.930265" lon="34.850630"><time>1970-01-01T00:00:01.000Z</time></trkpt>
			<trkpt lat="44.930330" lon="34.849450"><time>1970-01-01T00:00:01.000Z</time></trkpt>
			<trkpt lat="44.930222" lon="34.849000"><time>1970-01-01T00:00:01.000Z</time></trkpt>
			<trkpt lat="44.930308" lon="34.848227"><time>1970-01-01T00:00:01.000Z</time></trkpt>
			<trkpt lat="44.930244" lon="34.847669"><time>1970-01-01T00:00:01.000Z</time></trkpt>
			<trkpt lat="44.930072" lon="34.847326"><time>1970-01-01T00:00:01.000Z</time></trkpt>
			<trkpt lat="44.930008" lon="34.847068"><time>1970-01-01T00:00:01.000Z</time></trkpt>
			<trkpt lat="44.930094" lon="34.846532"><time>1970-01-01T00:00:01.000Z</time></trkpt>
			<trkpt lat="44.929965" lon="34.845395"><time>1970-01-01T00:00:01.000Z</time></trkpt>
			<trkpt lat="44.929664" lon="34.845073"><time>1970-01-01T00:00:01.000Z</time></trkpt>
			<trkpt lat="44.929450" lon="34.844923"><time>1970-01-01T00:00:01.000Z</time></trkpt>
			<trkpt lat="44.928720" lon="34.843979"><time>1970-01-01T00:00:01.000Z</time></trkpt>
			<trkpt lat="44.928527" lon="34.843528"><time>1970-01-01T00:00:01.000Z</time></trkpt>
			<trkpt lat="44.928077" lon="34.843056"><time>1970-01-01T00:00:01.000Z</time></trkpt>
			<trkpt lat="44.927755" lon="34.842584"><time>1970-01-01T00:00:01.000Z</time></trkpt>
			<trkpt lat="44.927626" lon="34.842262"><time>1970-01-01T00:00:01.000Z</time></trkpt>
			<trkpt lat="44.927433" lon="34.842026"><time>1970-01-01T00:00:01.000Z</time></trkpt>
			<trkpt lat="44.927154" lon="34.841554"><time>1970-01-01T00:00:01.000Z</time></trkpt>
			<trkpt lat="44.927025" lon="34.841575"><time>1970-01-01T00:00:01.000Z</time></trkpt>
			<trkpt lat="44.927004" lon="34.841811"><time>1970-01-01T00:00:01.000Z</time></trkpt>
			<trkpt lat="44.927154" lon="34.842562"><time>1970-01-01T00:00:01.000Z</time></trkpt>
			<trkpt lat="44.927154" lon="34.843077"><time>1970-01-01T00:00:01.000Z</time></trkpt>
			<trkpt lat="44.927025" lon="34.843442"><time>1970-01-01T00:00:01.000Z</time></trkpt>
			<trkpt lat="44.926875" lon="34.843507"><time>1970-01-01T00:00:01.000Z</time></trkpt>
			<trkpt lat="44.926768" lon="34.843442"><time>1970-01-01T00:00:01.000Z</time></trkpt>
			<trkpt lat="44.926489" lon="34.843099"><time>1970-01-01T00:00:01.000Z</time></trkpt>
			<trkpt lat="44.926188" lon="34.842820"><time>1970-01-01T00:00:01.000Z</time></trkpt>
			<trkpt lat="44.925952" lon="34.842798"><time>1970-01-01T00:00:01.000Z</time></trkpt>
			<trkpt lat="44.925824" lon="34.842691"><time>1970-01-01T00:00:01.000Z</time></trkpt>
			<trkpt lat="44.925652" lon="34.842498"><time>1970-01-01T00:00:01.000Z</time></trkpt>
			<trkpt lat="44.925480" lon="34.842155"><time>1970-01-01T00:00:01.000Z</time></trkpt>
			<trkpt lat="44.924600" lon="34.841532"><time>1970-01-01T00:00:01.000Z</time></trkpt>
			<trkpt lat="44.924043" lon="34.841425"><time>1970-01-01T00:00:01.000Z</time></trkpt>
			<trkpt lat="44.923549" lon="34.841532"><time>1970-01-01T00:00:01.000Z</time></trkpt>
			<trkpt lat="44.922691" lon="34.841640"><time>1970-01-01T00:00:01.000Z</time></trkpt>
			<trkpt lat="44.922626" lon="34.841683"><time>1970-01-01T00:00:01.000Z</time></trkpt>
			<trkpt lat="44.922648" lon="34.841640"><time>1970-01-01T00:00:01.000Z</time></trkpt>
			<trkpt lat="44.922626" lon="34.841640"><time>1970-01-01T00:00:01.000Z</time></trkpt>
			<trkpt lat="44.922669" lon="34.841661"><time>1970-01-01T00:00:01.000Z</time></trkpt>
			<trkpt lat="44.922519" lon="34.841489"><time>1970-01-01T00:00:01.000Z</time></trkpt>
			<trkpt lat="44.922862" lon="34.841489"><time>1970-01-01T00:00:01.000Z</time></trkpt>
			<trkpt lat="44.923184" lon="34.841382"><time>1970-01-01T00:00:01.000Z</time></trkpt>
			<trkpt lat="44.923249" lon="34.841318"><time>1970-01-01T00:00:01.000Z</time></trkpt>
			<trkpt lat="44.923506" lon="34.841189"><time>1970-01-01T00:00:01.000Z</time></trkpt>
			<trkpt lat="44.923978" lon="34.840760"><time>1970-01-01T00:00:01.000Z</time></trkpt>
			<trkpt lat="44.923978" lon="34.840524"><time>1970-01-01T00:00:01.000Z</time></trkpt>
			<trkpt lat="44.924043" lon="34.840352"><time>1970-01-01T00:00:01.000Z</time></trkpt>
			<trkpt lat="44.924407" lon="34.840073"><time>1970-01-01T00:00:01.000Z</time></trkpt>
			<trkpt lat="44.924515" lon="34.839945"><time>1970-01-01T00:00:01.000Z</time></trkpt>
			<trkpt lat="44.924600" lon="34.839666"><time>1970-01-01T00:00:01.000Z</time></trkpt>
			<trkpt lat="44.925158" lon="34.839236"><time>1970-01-01T00:00:01.000Z</time></trkpt>
			<trkpt lat="44.925330" lon="34.839172"><time>1970-01-01T00:00:01.000Z</time></trkpt>
			<trkpt lat="44.925459" lon="34.839065"><time>1970-01-01T00:00:01.000Z</time></trkpt>
			<trkpt lat="44.925781" lon="34.838464"><time>1970-01-01T00:00:01.000Z</time></trkpt>
			<trkpt lat="44.926081" lon="34.838121"><time>1970-01-01T00:00:01.000Z</time></trkpt>
			<trkpt lat="44.926145" lon="34.837906"><time>1970-01-01T00:00:01.000Z</time></trkpt>
			<trkpt lat="44.926424" lon="34.837284"><time>1970-01-01T00:00:01.000Z</time></trkpt>
			<trkpt lat="44.926510" lon="34.837176"><time>1970-01-01T00:00:01.000Z</time></trkpt>
			<trkpt lat="44.926617" lon="34.837155"><time>1970-01-01T00:00:01.000Z</time></trkpt>
			<trkpt lat="44.926746" lon="34.837026"><time>1970-01-01T00:00:01.000Z</time></trkpt>
			<trkpt lat="44.926811" lon="34.836726"><time>1970-01-01T00:00:01.000Z</time></trkpt>
			<trkpt lat="44.927197" lon="34.835910"><time>1970-01-01T00:00:01.000Z</time></trkpt>
			<trkpt lat="44.927368" lon="34.835782"><time>1970-01-01T00:00:01.000Z</time></trkpt>
			<trkpt lat="44.927583" lon="34.835417"><time>1970-01-01T00:00:01.000Z</time></trkpt>
			<trkpt lat="44.927604" lon="34.834945"><time>1970-01-01T00:00:01.000Z</time></trkpt>
			<trkpt lat="44.927733" lon="34.834494"><time>1970-01-01T00:00:01.000Z</time></trkpt>
			<trkpt lat="44.927712" lon="34.834044"><time>1970-01-01T00:00:01.000Z</time></trkpt>
			<trkpt lat="44.927604" lon="34.833786"><time>1970-01-01T00:00:01.000Z</time></trkpt>
			<trkpt lat="44.927669" lon="34.833336"><time>1970-01-01T00:00:01.000Z</time></trkpt>
			<trkpt lat="44.927969" lon="34.832778"><time>1970-01-01T00:00:01.000Z</time></trkpt>
			<trkpt lat="44.928077" lon="34.832627"><time>1970-01-01T00:00:01.000Z</time></trkpt>
			<trkpt lat="44.928227" lon="34.832542"><time>1970-01-01T00:00:01.000Z</time></trkpt>
			<trkpt lat="44.928441" lon="34.832284"><time>1970-01-01T00:00:01.000Z</time></trkpt>
			<trkpt lat="44.928527" lon="34.832112"><time>1970-01-01T00:00:01.000Z</time></trkpt>
			<trkpt lat="44.928484" lon="34.831190"><time>1970-01-01T00:00:01.000Z</time></trkpt>
			<trkpt lat="44.928398" lon="34.830889"><time>1970-01-01T00:00:01.000Z</time></trkpt>
			<trkpt lat="44.928828" lon="34.830439"><time>1970-01-01T00:00:01.000Z</time></trkpt>
			<trkpt lat="44.929021" lon="34.830074"><time>1970-01-01T00:00:01.000Z</time></trkpt>
			<trkpt lat="44.929085" lon="34.829881"><time>1970-01-01T00:00:01.000Z</time></trkpt>
			<trkpt lat="44.929021" lon="34.829495"><time>1970-01-01T00:00:01.000Z</time></trkpt>
			<trkpt lat="44.929064" lon="34.829216"><time>1970-01-01T00:00:01.000Z</time></trkpt>
			<trkpt lat="44.928892" lon="34.828207"><time>1970-01-01T00:00:01.000Z</time></trkpt>
			<trkpt lat="44.928119" lon="34.826469"><time>1970-01-01T00:00:01.000Z</time></trkpt>
			<trkpt lat="44.928077" lon="34.826126"><time>1970-01-01T00:00:01.000Z</time></trkpt>
			<trkpt lat="44.927991" lon="34.825933"><time>1970-01-01T00:00:01.000Z</time></trkpt>
			<trkpt lat="44.927712" lon="34.825611"><time>1970-01-01T00:00:01.000Z</time></trkpt>
			<trkpt lat="44.927669" lon="34.825010"><time>1970-01-01T00:00:01.000Z</time></trkpt>
			<trkpt lat="44.927562" lon="34.824881"><time>1970-01-01T00:00:01.000Z</time></trkpt>
			<trkpt lat="44.927368" lon="34.824474"><time>1970-01-01T00:00:01.000Z</time></trkpt>
			<trkpt lat="44.927326" lon="34.824280"><time>1970-01-01T00:00:01.000Z</time></trkpt>
			<trkpt lat="44.927004" lon="34.823594"><time>1970-01-01T00:00:01.000Z</time></trkpt>
			<trkpt lat="44.926961" lon="34.822714"><time>1970-01-01T00:00:01.000Z</time></trkpt>
			<trkpt lat="44.927004" lon="34.822542"><time>1970-01-01T00:00:01.000Z</time></trkpt>
			<trkpt lat="44.926961" lon="34.822156"><time>1970-01-01T00:00:01.000Z</time></trkpt>
			<trkpt lat="44.926918" lon="34.821963"><time>1970-01-01T00:00:01.000Z</time></trkpt>
			<trkpt lat="44.926811" lon="34.821813"><time>1970-01-01T00:00:01.000Z</time></trkpt>
			<trkpt lat="44.926725" lon="34.821598"><time>1970-01-01T00:00:01.000Z</time></trkpt>
			<trkpt lat="44.926746" lon="34.821319"><time>1970-01-01T00:00:01.000Z</time></trkpt>
			<trkpt lat="44.926703" lon="34.821148"><time>1970-01-01T00:00:01.000Z</time></trkpt>
			<trkpt lat="44.926553" lon="34.821019"><time>1970-01-01T00:00:01.000Z</time></trkpt>
			<trkpt lat="44.926424" lon="34.821083"><time>1970-01-01T00:00:01.000Z</time></trkpt>
			<trkpt lat="44.926231" lon="34.821040"><time>1970-01-01T00:00:01.000Z</time></trkpt>
			<trkpt lat="44.925974" lon="34.820869"><time>1970-01-01T00:00:01.000Z</time></trkpt>
			<trkpt lat="44.925394" lon="34.820246"><time>1970-01-01T00:00:01.000Z</time></trkpt>
			<trkpt lat="44.925201" lon="34.819624"><time>1970-01-01T00:00:01.000Z</time></trkpt>
			<trkpt lat="44.925201" lon="34.819109"><time>1970-01-01T00:00:01.000Z</time></trkpt>
			<trkpt lat="44.925394" lon="34.818723"><time>1970-01-01T00:00:01.000Z</time></trkpt>
			<trkpt lat="44.925437" lon="34.818487"><time>1970-01-01T00:00:01.000Z</time></trkpt>
			<trkpt lat="44.925287" lon="34.817950"><time>1970-01-01T00:00:01.000Z</time></trkpt>
			<trkpt lat="44.925287" lon="34.817350"><time>1970-01-01T00:00:01.000Z</time></trkpt>
			<trkpt lat="44.925008" lon="34.816749"><time>1970-01-01T00:00:01.000Z</time></trkpt>
			<trkpt lat="44.924858" lon="34.816127"><time>1970-01-01T00:00:01.000Z</time></trkpt>
			<trkpt lat="44.924944" lon="34.815912"><time>1970-01-01T00:00:01.000Z</time></trkpt>
			<trkpt lat="44.924901" lon="34.815504"><time>1970-01-01T00:00:01.000Z</time></trkpt>
			<trkpt lat="44.924944" lon="34.815311"><time>1970-01-01T00:00:01.000Z</time></trkpt>
			<trkpt lat="44.925137" lon="34.814818"><time>1970-01-01T00:00:01.000Z</time></trkpt>
			<trkpt lat="44.925266" lon="34.814624"><time>1970-01-01T00:00:01.000Z</time></trkpt>
			<trkpt lat="44.925287" lon="34.813895"><time>1970-01-01T00:00:01.000Z</time></trkpt>
			<trkpt lat="44.925201" lon="34.813487"><time>1970-01-01T00:00:01.000Z</time></trkpt>
			<trkpt lat="44.925180" lon="34.813144"><time>1970-01-01T00:00:01.000Z</time></trkpt>
			<trkpt lat="44.925008" lon="34.812522"><time>1970-01-01T00:00:01.000Z</time></trkpt>
			<trkpt lat="44.924944" lon="34.812329"><time>1970-01-01T00:00:01.000Z</time></trkpt>
			<trkpt lat="44.924729" lon="34.811985"><time>1970-01-01T00:00:01.000Z</time></trkpt>
			<trkpt lat="44.924751" lon="34.811492"><time>1970-01-01T00:00:01.000Z</time></trkpt>
			<trkpt lat="44.924600" lon="34.810183"><time>1970-01-01T00:00:01.000Z</time></trkpt>
			<trkpt lat="44.924407" lon="34.809904"><time>1970-01-01T00:00:01.000Z</time></trkpt>
			<trkpt lat="44.924085" lon="34.809560"><time>1970-01-01T00:00:01.000Z</time></trkpt>
			<trkpt lat="44.923935" lon="34.809539"><time>1970-01-01T00:00:01.000Z</time></trkpt>
			<trkpt lat="44.923613" lon="34.809689"><time>1970-01-01T00:00:01.000Z</time></trkpt>
			<trkpt lat="44.923356" lon="34.809732"><time>1970-01-01T00:00:01.000Z</time></trkpt>
			<trkpt lat="44.923034" lon="34.809432"><time>1970-01-01T00:00:01.000Z</time></trkpt>
			<trkpt lat="44.922948" lon="34.809432"><time>1970-01-01T00:00:01.000Z</time></trkpt>
			<trkpt lat="44.922927" lon="34.809303"><time>1970-01-01T00:00:01.000Z</time></trkpt>
			<trkpt lat="44.922734" lon="34.809153"><time>1970-01-01T00:00:01.000Z</time></trkpt>
			<trkpt lat="44.922240" lon="34.809024"><time>1970-01-01T00:00:01.000Z</time></trkpt>
			<trkpt lat="44.921897" lon="34.808831"><time>1970-01-01T00:00:01.000Z</time></trkpt>
			<trkpt lat="44.921232" lon="34.808402"><time>1970-01-01T00:00:01.000Z</time></trkpt>
			<trkpt lat="44.920974" lon="34.808123"><time>1970-01-01T00:00:01.000Z</time></trkpt>
			<trkpt lat="44.920867" lon="34.807715"><time>1970-01-01T00:00:01.000Z</time></trkpt>
			<trkpt lat="44.920802" lon="34.807007"><time>1970-01-01T00:00:01.000Z</time></trkpt>
			<trkpt lat="44.920674" lon="34.806449"><time>1970-01-01T00:00:01.000Z</time></trkpt>
			<trkpt lat="44.920566" lon="34.805484"><time>1970-01-01T00:00:01.000Z</time></trkpt>
			<trkpt lat="44.920459" lon="34.805119"><time>1970-01-01T00:00:01.000Z</time></trkpt>
			<trkpt lat="44.920309" lon="34.804840"><time>1970-01-01T00:00:01.000Z</time></trkpt>
			<trkpt lat="44.919901" lon="34.803338"><time>1970-01-01T00:00:01.000Z</time></trkpt>
			<trkpt lat="44.919837" lon="34.802994"><time>1970-01-01T00:00:01.000Z</time></trkpt>
			<trkpt lat="44.919923" lon="34.802308"><time>1970-01-01T00:00:01.000Z</time></trkpt>
			<trkpt lat="44.919815" lon="34.802158"><time>1970-01-01T00:00:01.000Z</time></trkpt>
			<trkpt lat="44.919665" lon="34.802072"><time>1970-01-01T00:00:01.000Z</time></trkpt>
			<trkpt lat="44.919622" lon="34.801879"><time>1970-01-01T00:00:01.000Z</time></trkpt>
			<trkpt lat="44.919665" lon="34.801686"><time>1970-01-01T00:00:01.000Z</time></trkpt>
			<trkpt lat="44.919837" lon="34.801492"><time>1970-01-01T00:00:01.000Z</time></trkpt>
			<trkpt lat="44.920008" lon="34.801128"><time>1970-01-01T00:00:01.000Z</time></trkpt>
			<trkpt lat="44.919987" lon="34.800977"><time>1970-01-01T00:00:01.000Z</time></trkpt>
			<trkpt lat="44.920008" lon="34.800656"><time>1970-01-01T00:00:01.000Z</time></trkpt>
			<trkpt lat="44.919966" lon="34.800505"><time>1970-01-01T00:00:01.000Z</time></trkpt>
			<trkpt lat="44.920030" lon="34.800248"><time>1970-01-01T00:00:01.000Z</time></trkpt>
			<trkpt lat="44.920116" lon="34.800226"><time>1970-01-01T00:00:01.000Z</time></trkpt>
			<trkpt lat="44.919966" lon="34.799990"><time>1970-01-01T00:00:01.000Z</time></trkpt>
			<trkpt lat="44.920287" lon="34.798810"><time>1970-01-01T00:00:01.000Z</time></trkpt>
			<trkpt lat="44.920824" lon="34.797094"><time>1970-01-01T00:00:01.000Z</time></trkpt>
			<trkpt lat="44.921081" lon="34.795892"><time>1970-01-01T00:00:01.000Z</time></trkpt>
			<trkpt lat="44.919687" lon="34.791557"><time>1970-01-01T00:00:01.000Z</time></trkpt>
			<trkpt lat="44.919815" lon="34.789068"><time>1970-01-01T00:00:01.000Z</time></trkpt>
			<trkpt lat="44.918421" lon="34.787523"><time>1970-01-01T00:00:01.000Z</time></trkpt>
			<trkpt lat="44.918077" lon="34.786880"><time>1970-01-01T00:00:01.000Z</time></trkpt>
			<trkpt lat="44.918356" lon="34.785249"><time>1970-01-01T00:00:01.000Z</time></trkpt>
			<trkpt lat="44.918936" lon="34.783876"><time>1970-01-01T00:00:01.000Z</time></trkpt>
			<trkpt lat="44.918871" lon="34.782631"><time>1970-01-01T00:00:01.000Z</time></trkpt>
			<trkpt lat="44.918442" lon="34.781387"><time>1970-01-01T00:00:01.000Z</time></trkpt>
			<trkpt lat="44.917562" lon="34.780743"><time>1970-01-01T00:00:01.000Z</time></trkpt>
			<trkpt lat="44.916747" lon="34.780249"><time>1970-01-01T00:00:01.000Z</time></trkpt>
			<trkpt lat="44.916640" lon="34.780056"><time>1970-01-01T00:00:01.000Z</time></trkpt>
			<trkpt lat="44.916447" lon="34.779927"><time>1970-01-01T00:00:01.000Z</time></trkpt>
			<trkpt lat="44.916146" lon="34.779498"><time>1970-01-01T00:00:01.000Z</time></trkpt>
			<trkpt lat="44.916146" lon="34.779412"><time>1970-01-01T00:00:01.000Z</time></trkpt>
			<trkpt lat="44.916039" lon="34.779241"><time>1970-01-01T00:00:01.000Z</time></trkpt>
			<trkpt lat="44.916017" lon="34.778876"><time>1970-01-01T00:00:01.000Z</time></trkpt>
			<trkpt lat="44.915932" lon="34.778726"><time>1970-01-01T00:00:01.000Z</time></trkpt>
			<trkpt lat="44.915374" lon="34.778168"><time>1970-01-01T00:00:01.000Z</time></trkpt>
			<trkpt lat="44.915030" lon="34.778146"><time>1970-01-01T00:00:01.000Z</time></trkpt>
			<trkpt lat="44.914944" lon="34.778104"><time>1970-01-01T00:00:01.000Z</time></trkpt>
			<trkpt lat="44.914902" lon="34.778168"><time>1970-01-01T00:00:01.000Z</time></trkpt>
			<trkpt lat="44.914902" lon="34.778082"><time>1970-01-01T00:00:01.000Z</time></trkpt>
			<trkpt lat="44.914923" lon="34.778146"><time>1970-01-01T00:00:01.000Z</time></trkpt>
			<trkpt lat="44.914944" lon="34.778125"><time>1970-01-01T00:00:01.000Z</time></trkpt>
			<trkpt lat="44.914816" lon="34.778146"><time>1970-01-01T00:00:01.000Z</time></trkpt>
			<trkpt lat="44.914429" lon="34.777996"><time>1970-01-01T00:00:01.000Z</time></trkpt>
			<trkpt lat="44.914215" lon="34.777996"><time>1970-01-01T00:00:01.000Z</time></trkpt>
			<trkpt lat="44.913829" lon="34.777739"><time>1970-01-01T00:00:01.000Z</time></trkpt>
			<trkpt lat="44.913571" lon="34.777395"><time>1970-01-01T00:00:01.000Z</time></trkpt>
			<trkpt lat="44.913464" lon="34.777159"><time>1970-01-01T00:00:01.000Z</time></trkpt>
			<trkpt lat="44.913314" lon="34.777031"><time>1970-01-01T00:00:01.000Z</time></trkpt>
			<trkpt lat="44.913163" lon="34.776838"><time>1970-01-01T00:00:01.000Z</time></trkpt>
			<trkpt lat="44.913013" lon="34.776323"><time>1970-01-01T00:00:01.000Z</time></trkpt>
			<trkpt lat="44.912906" lon="34.776044"><time>1970-01-01T00:00:01.000Z</time></trkpt>
			<trkpt lat="44.912777" lon="34.775829"><time>1970-01-01T00:00:01.000Z</time></trkpt>
			<trkpt lat="44.912498" lon="34.775572"><time>1970-01-01T00:00:01.000Z</time></trkpt>
			<trkpt lat="44.911897" lon="34.775185"><time>1970-01-01T00:00:01.000Z</time></trkpt>
			<trkpt lat="44.911747" lon="34.774842"><time>1970-01-01T00:00:01.000Z</time></trkpt>
			<trkpt lat="44.911511" lon="34.774091"><time>1970-01-01T00:00:01.000Z</time></trkpt>
			<trkpt lat="44.911554" lon="34.773855"><time>1970-01-01T00:00:01.000Z</time></trkpt>
			<trkpt lat="44.911468" lon="34.772610"><time>1970-01-01T00:00:01.000Z</time></trkpt>
			<trkpt lat="44.911490" lon="34.772374"><time>1970-01-01T00:00:01.000Z</time></trkpt>
			<trkpt lat="44.911747" lon="34.771709"><time>1970-01-01T00:00:01.000Z</time></trkpt>
			<trkpt lat="44.911812" lon="34.771323"><time>1970-01-01T00:00:01.000Z</time></trkpt>
			<trkpt lat="44.911704" lon="34.770915"><time>1970-01-01T00:00:01.000Z</time></trkpt>
			<trkpt lat="44.911747" lon="34.770701"><time>1970-01-01T00:00:01.000Z</time></trkpt>
			<trkpt lat="44.911661" lon="34.769821"><time>1970-01-01T00:00:01.000Z</time></trkpt>
			<trkpt lat="44.911790" lon="34.768920"><time>1970-01-01T00:00:01.000Z</time></trkpt>
			<trkpt lat="44.911769" lon="34.768727"><time>1970-01-01T00:00:01.000Z</time></trkpt>
			<trkpt lat="44.911576" lon="34.768405"><time>1970-01-01T00:00:01.000Z</time></trkpt>
			<trkpt lat="44.911511" lon="34.768083"><time>1970-01-01T00:00:01.000Z</time></trkpt>
			<trkpt lat="44.911576" lon="34.767847"><time>1970-01-01T00:00:01.000Z</time></trkpt>
			<trkpt lat="44.911490" lon="34.767611"><time>1970-01-01T00:00:01.000Z</time></trkpt>
			<trkpt lat="44.911425" lon="34.767589"><time>1970-01-01T00:00:01.000Z</time></trkpt>
			<trkpt lat="44.911211" lon="34.767182"><time>1970-01-01T00:00:01.000Z</time></trkpt>
			<trkpt lat="44.910825" lon="34.766903"><time>1970-01-01T00:00:01.000Z</time></trkpt>
			<trkpt lat="44.910546" lon="34.766109"><time>1970-01-01T00:00:01.000Z</time></trkpt>
			<trkpt lat="44.910138" lon="34.765272"><time>1970-01-01T00:00:01.000Z</time></trkpt>
			<trkpt lat="44.909795" lon="34.764070"><time>1970-01-01T00:00:01.000Z</time></trkpt>
			<trkpt lat="44.909730" lon="34.763555"><time>1970-01-01T00:00:01.000Z</time></trkpt>
			<trkpt lat="44.909795" lon="34.763426"><time>1970-01-01T00:00:01.000Z</time></trkpt>
			<trkpt lat="44.909859" lon="34.762954"><time>1970-01-01T00:00:01.000Z</time></trkpt>
			<trkpt lat="44.909773" lon="34.762203"><time>1970-01-01T00:00:01.000Z</time></trkpt>
			<trkpt lat="44.909816" lon="34.761731"><time>1970-01-01T00:00:01.000Z</time></trkpt>
			<trkpt lat="44.909602" lon="34.760015"><time>1970-01-01T00:00:01.000Z</time></trkpt>
			<trkpt lat="44.909644" lon="34.759199"><time>1970-01-01T00:00:01.000Z</time></trkpt>
			<trkpt lat="44.909516" lon="34.758770"><time>1970-01-01T00:00:01.000Z</time></trkpt>
			<trkpt lat="44.909473" lon="34.758212"><time>1970-01-01T00:00:01.000Z</time></trkpt>
			<trkpt lat="44.909623" lon="34.757697"><time>1970-01-01T00:00:01.000Z</time></trkpt>
			<trkpt lat="44.909838" lon="34.757225"><time>1970-01-01T00:00:01.000Z</time></trkpt>
			<trkpt lat="44.910481" lon="34.756624"><time>1970-01-01T00:00:01.000Z</time></trkpt>
			<trkpt lat="44.910760" lon="34.756431"><time>1970-01-01T00:00:01.000Z</time></trkpt>
			<trkpt lat="44.910825" lon="34.756088"><time>1970-01-01T00:00:01.000Z</time></trkpt>
			<trkpt lat="44.911061" lon="34.755745"><time>1970-01-01T00:00:01.000Z</time></trkpt>
			<trkpt lat="44.911297" lon="34.755101"><time>1970-01-01T00:00:01.000Z</time></trkpt>
			<trkpt lat="44.911404" lon="34.754994"><time>1970-01-01T00:00:01.000Z</time></trkpt>
			<trkpt lat="44.911511" lon="34.754736"><time>1970-01-01T00:00:01.000Z</time></trkpt>
			<trkpt lat="44.911747" lon="34.753771"><time>1970-01-01T00:00:01.000Z</time></trkpt>
			<trkpt lat="44.912112" lon="34.753105"><time>1970-01-01T00:00:01.000Z</time></trkpt>
			<trkpt lat="44.912391" lon="34.752805"><time>1970-01-01T00:00:01.000Z</time></trkpt>
			<trkpt lat="44.912498" lon="34.752612"><time>1970-01-01T00:00:01.000Z</time></trkpt>
			<trkpt lat="44.912520" lon="34.752483"><time>1970-01-01T00:00:01.000Z</time></trkpt>
			<trkpt lat="44.912584" lon="34.752547"><time>1970-01-01T00:00:01.000Z</time></trkpt>
			<trkpt lat="44.912563" lon="34.752483"><time>1970-01-01T00:00:01.000Z</time></trkpt>
			<trkpt lat="44.912563" lon="34.752526"><time>1970-01-01T00:00:01.000Z</time></trkpt>
			<trkpt lat="44.912498" lon="34.752526"><time>1970-01-01T00:00:01.000Z</time></trkpt>
			<trkpt lat="44.912584" lon="34.752569"><time>1970-01-01T00:00:01.000Z</time></trkpt>
			<trkpt lat="44.912563" lon="34.752547"><time>1970-01-01T00:00:01.000Z</time></trkpt>
			<trkpt lat="44.912563" lon="34.752612"><time>1970-01-01T00:00:01.000Z</time></trkpt>
			<trkpt lat="44.912541" lon="34.752569"><time>1970-01-01T00:00:01.000Z</time></trkpt>
			<trkpt lat="44.912520" lon="34.752590"><time>1970-01-01T00:00:01.000Z</time></trkpt>
			<trkpt lat="44.912563" lon="34.752590"><time>1970-01-01T00:00:01.000Z</time></trkpt>
			<trkpt lat="44.912520" lon="34.752633"><time>1970-01-01T00:00:01.000Z</time></trkpt>
			<trkpt lat="44.912541" lon="34.752569"><time>1970-01-01T00:00:01.000Z</time></trkpt>
			<trkpt lat="44.912584" lon="34.752633"><time>1970-01-01T00:00:01.000Z</time></trkpt>
			<trkpt lat="44.912627" lon="34.752547"><time>1970-01-01T00:00:01.000Z</time></trkpt>
			<trkpt lat="44.912606" lon="34.752462"><time>1970-01-01T00:00:01.000Z</time></trkpt>
			<trkpt lat="44.912713" lon="34.752290"><time>1970-01-01T00:00:01.000Z</time></trkpt>
			<trkpt lat="44.912734" lon="34.751753"><time>1970-01-01T00:00:01.000Z</time></trkpt>
			<trkpt lat="44.912606" lon="34.751281"><time>1970-01-01T00:00:01.000Z</time></trkpt>
			<trkpt lat="44.912434" lon="34.750359"><time>1970-01-01T00:00:01.000Z</time></trkpt>
			<trkpt lat="44.911855" lon="34.749114"><time>1970-01-01T00:00:01.000Z</time></trkpt>
			<trkpt lat="44.911619" lon="34.748234"><time>1970-01-01T00:00:01.000Z</time></trkpt>
			<trkpt lat="44.911061" lon="34.747183"><time>1970-01-01T00:00:01.000Z</time></trkpt>
			<trkpt lat="44.910975" lon="34.746861"><time>1970-01-01T00:00:01.000Z</time></trkpt>
			<trkpt lat="44.910932" lon="34.746411"><time>1970-01-01T00:00:01.000Z</time></trkpt>
			<trkpt lat="44.910953" lon="34.746239"><time>1970-01-01T00:00:01.000Z</time></trkpt>
			<trkpt lat="44.910910" lon="34.745037"><time>1970-01-01T00:00:01.000Z</time></trkpt>
			<trkpt lat="44.910803" lon="34.744801"><time>1970-01-01T00:00:01.000Z</time></trkpt>
			<trkpt lat="44.910631" lon="34.744157"><time>1970-01-01T00:00:01.000Z</time></trkpt>
			<trkpt lat="44.910524" lon="34.743921"><time>1970-01-01T00:00:01.000Z</time></trkpt>
			<trkpt lat="44.910460" lon="34.743621"><time>1970-01-01T00:00:01.000Z</time></trkpt>
			<trkpt lat="44.910374" lon="34.743492"><time>1970-01-01T00:00:01.000Z</time></trkpt>
			<trkpt lat="44.910567" lon="34.743492"><time>1970-01-01T00:00:01.000Z</time></trkpt>
			<trkpt lat="44.910353" lon="34.743385"><time>1970-01-01T00:00:01.000Z</time></trkpt>
			<trkpt lat="44.910353" lon="34.743342"><time>1970-01-01T00:00:01.000Z</time></trkpt>
			<trkpt lat="44.910353" lon="34.743385"><time>1970-01-01T00:00:01.000Z</time></trkpt>
			<trkpt lat="44.910310" lon="34.743342"><time>1970-01-01T00:00:01.000Z</time></trkpt>
			<trkpt lat="44.910353" lon="34.743342"><time>1970-01-01T00:00:01.000Z</time></trkpt>
			<trkpt lat="44.910353" lon="34.743385"><time>1970-01-01T00:00:01.000Z</time></trkpt>
			<trkpt lat="44.910331" lon="34.743364"><time>1970-01-01T00:00:01.000Z</time></trkpt>
			<trkpt lat="44.910052" lon="34.743449"><time>1970-01-01T00:00:01.000Z</time></trkpt>
			<trkpt lat="44.909795" lon="34.743449"><time>1970-01-01T00:00:01.000Z</time></trkpt>
			<trkpt lat="44.909365" lon="34.743128"><time>1970-01-01T00:00:01.000Z</time></trkpt>
			<trkpt lat="44.909129" lon="34.742999"><time>1970-01-01T00:00:01.000Z</time></trkpt>
			<trkpt lat="44.908743" lon="34.742613"><time>1970-01-01T00:00:01.000Z</time></trkpt>
			<trkpt lat="44.908529" lon="34.742505"><time>1970-01-01T00:00:01.000Z</time></trkpt>
			<trkpt lat="44.908357" lon="34.742505"><time>1970-01-01T00:00:01.000Z</time></trkpt>
			<trkpt lat="44.908207" lon="34.742419"><time>1970-01-01T00:00:01.000Z</time></trkpt>
			<trkpt lat="44.907949" lon="34.742398"><time>1970-01-01T00:00:01.000Z</time></trkpt>
			<trkpt lat="44.907434" lon="34.742441"><time>1970-01-01T00:00:01.000Z</time></trkpt>
			<trkpt lat="44.906876" lon="34.742055"><time>1970-01-01T00:00:01.000Z</time></trkpt>
			<trkpt lat="44.906233" lon="34.741840"><time>1970-01-01T00:00:01.000Z</time></trkpt>
			<trkpt lat="44.906040" lon="34.741733"><time>1970-01-01T00:00:01.000Z</time></trkpt>
			<trkpt lat="44.905868" lon="34.741690"><time>1970-01-01T00:00:01.000Z</time></trkpt>
			<trkpt lat="44.905632" lon="34.741797"><time>1970-01-01T00:00:01.000Z</time></trkpt>
			<trkpt lat="44.904967" lon="34.742012"><time>1970-01-01T00:00:01.000Z</time></trkpt>
			<trkpt lat="44.904666" lon="34.742012"><time>1970-01-01T00:00:01.000Z</time></trkpt>
			<trkpt lat="44.904473" lon="34.741926"><time>1970-01-01T00:00:01.000Z</time></trkpt>
			<trkpt lat="44.904323" lon="34.741733"><time>1970-01-01T00:00:01.000Z</time></trkpt>
			<trkpt lat="44.904194" lon="34.741668"><time>1970-01-01T00:00:01.000Z</time></trkpt>
			<trkpt lat="44.904044" lon="34.741304"><time>1970-01-01T00:00:01.000Z</time></trkpt>
			<trkpt lat="44.904065" lon="34.740789"><time>1970-01-01T00:00:01.000Z</time></trkpt>
			<trkpt lat="44.904044" lon="34.740660"><time>1970-01-01T00:00:01.000Z</time></trkpt>
			<trkpt lat="44.903701" lon="34.740274"><time>1970-01-01T00:00:01.000Z</time></trkpt>
			<trkpt lat="44.903508" lon="34.740145"><time>1970-01-01T00:00:01.000Z</time></trkpt>
			<trkpt lat="44.903400" lon="34.740188"><time>1970-01-01T00:00:01.000Z</time></trkpt>
			<trkpt lat="44.903121" lon="34.740596"><time>1970-01-01T00:00:01.000Z</time></trkpt>
			<trkpt lat="44.902799" lon="34.740874"><time>1970-01-01T00:00:01.000Z</time></trkpt>
			<trkpt lat="44.902692" lon="34.741068"><time>1970-01-01T00:00:01.000Z</time></trkpt>
			<trkpt lat="44.902306" lon="34.741475"><time>1970-01-01T00:00:01.000Z</time></trkpt>
			<trkpt lat="44.902070" lon="34.741561"><time>1970-01-01T00:00:01.000Z</time></trkpt>
			<trkpt lat="44.901512" lon="34.741540"><time>1970-01-01T00:00:01.000Z</time></trkpt>
			<trkpt lat="44.901340" lon="34.741625"><time>1970-01-01T00:00:01.000Z</time></trkpt>
			<trkpt lat="44.901104" lon="34.742055"><time>1970-01-01T00:00:01.000Z</time></trkpt>
			<trkpt lat="44.900976" lon="34.742806"><time>1970-01-01T00:00:01.000Z</time></trkpt>
			<trkpt lat="44.900890" lon="34.743063"><time>1970-01-01T00:00:01.000Z</time></trkpt>
			<trkpt lat="44.900675" lon="34.743299"><time>1970-01-01T00:00:01.000Z</time></trkpt>
			<trkpt lat="44.900525" lon="34.743664"><time>1970-01-01T00:00:01.000Z</time></trkpt>
			<trkpt lat="44.900160" lon="34.743857"><time>1970-01-01T00:00:01.000Z</time></trkpt>
			<trkpt lat="44.899988" lon="34.744029"><time>1970-01-01T00:00:01.000Z</time></trkpt>
			<trkpt lat="44.899645" lon="34.744715"><time>1970-01-01T00:00:01.000Z</time></trkpt>
			<trkpt lat="44.899345" lon="34.744994"><time>1970-01-01T00:00:01.000Z</time></trkpt>
			<trkpt lat="44.899152" lon="34.745037"><time>1970-01-01T00:00:01.000Z</time></trkpt>
			<trkpt lat="44.898722" lon="34.744994"><time>1970-01-01T00:00:01.000Z</time></trkpt>
			<trkpt lat="44.898401" lon="34.745102"><time>1970-01-01T00:00:01.000Z</time></trkpt>
			<trkpt lat="44.898272" lon="34.745102"><time>1970-01-01T00:00:01.000Z</time></trkpt>
			<trkpt lat="44.897864" lon="34.744973"><time>1970-01-01T00:00:01.000Z</time></trkpt>
			<trkpt lat="44.897456" lon="34.744394"><time>1970-01-01T00:00:01.000Z</time></trkpt>
			<trkpt lat="44.896899" lon="34.745209"><time>1970-01-01T00:00:01.000Z</time></trkpt>
			<trkpt lat="44.896748" lon="34.745230"><time>1970-01-01T00:00:01.000Z</time></trkpt>
			<trkpt lat="44.896448" lon="34.744994"><time>1970-01-01T00:00:01.000Z</time></trkpt>
			<trkpt lat="44.896426" lon="34.744908"><time>1970-01-01T00:00:01.000Z</time></trkpt>
			<trkpt lat="44.896555" lon="34.744694"><time>1970-01-01T00:00:01.000Z</time></trkpt>
			<trkpt lat="44.896684" lon="34.744672"><time>1970-01-01T00:00:01.000Z</time></trkpt>
			<trkpt lat="44.896770" lon="34.744479"><time>1970-01-01T00:00:01.000Z</time></trkpt>
			<trkpt lat="44.896770" lon="34.744351"><time>1970-01-01T00:00:01.000Z</time></trkpt>
			<trkpt lat="44.896963" lon="34.743535"><time>1970-01-01T00:00:01.000Z</time></trkpt>
			<trkpt lat="44.897006" lon="34.743213"><time>1970-01-01T00:00:01.000Z</time></trkpt>
			<trkpt lat="44.896963" lon="34.743085"><time>1970-01-01T00:00:01.000Z</time></trkpt>
			<trkpt lat="44.897027" lon="34.742827"><time>1970-01-01T00:00:01.000Z</time></trkpt>
			<trkpt lat="44.896963" lon="34.742548"><time>1970-01-01T00:00:01.000Z</time></trkpt>
			<trkpt lat="44.896834" lon="34.742248"><time>1970-01-01T00:00:01.000Z</time></trkpt>
			<trkpt lat="44.896770" lon="34.742183"><time>1970-01-01T00:00:01.000Z</time></trkpt>
			<trkpt lat="44.896899" lon="34.742055"><time>1970-01-01T00:00:01.000Z</time></trkpt>
			<trkpt lat="44.896877" lon="34.741776"><time>1970-01-01T00:00:01.000Z</time></trkpt>
			<trkpt lat="44.896555" lon="34.740746"><time>1970-01-01T00:00:01.000Z</time></trkpt>
			<trkpt lat="44.896577" lon="34.740231"><time>1970-01-01T00:00:01.000Z</time></trkpt>
			<trkpt lat="44.896748" lon="34.739651"><time>1970-01-01T00:00:01.000Z</time></trkpt>
			<trkpt lat="44.896856" lon="34.739673"><time>1970-01-01T00:00:01.000Z</time></trkpt>
			<trkpt lat="44.897006" lon="34.739351"><time>1970-01-01T00:00:01.000Z</time></trkpt>
			<trkpt lat="44.897156" lon="34.738793"><time>1970-01-01T00:00:01.000Z</time></trkpt>
			<trkpt lat="44.897156" lon="34.738600"><time>1970-01-01T00:00:01.000Z</time></trkpt>
			<trkpt lat="44.897092" lon="34.738300"><time>1970-01-01T00:00:01.000Z</time></trkpt>
			<trkpt lat="44.897242" lon="34.737355"><time>1970-01-01T00:00:01.000Z</time></trkpt>
			<trkpt lat="44.897156" lon="34.737248"><time>1970-01-01T00:00:01.000Z</time></trkpt>
			<trkpt lat="44.897113" lon="34.737076"><time>1970-01-01T00:00:01.000Z</time></trkpt>
			<trkpt lat="44.897156" lon="34.736991"><time>1970-01-01T00:00:01.000Z</time></trkpt>
			<trkpt lat="44.897285" lon="34.736969"><time>1970-01-01T00:00:01.000Z</time></trkpt>
			<trkpt lat="44.897371" lon="34.736669"><time>1970-01-01T00:00:01.000Z</time></trkpt>
			<trkpt lat="44.897456" lon="34.735961"><time>1970-01-01T00:00:01.000Z</time></trkpt>
			<trkpt lat="44.897542" lon="34.735789"><time>1970-01-01T00:00:01.000Z</time></trkpt>
			<trkpt lat="44.897542" lon="34.735553"><time>1970-01-01T00:00:01.000Z</time></trkpt>
			<trkpt lat="44.897671" lon="34.735145"><time>1970-01-01T00:00:01.000Z</time></trkpt>
			<trkpt lat="44.897607" lon="34.735038"><time>1970-01-01T00:00:01.000Z</time></trkpt>
			<trkpt lat="44.897650" lon="34.734974"><time>1970-01-01T00:00:01.000Z</time></trkpt>
			<trkpt lat="44.897628" lon="34.735038"><time>1970-01-01T00:00:01.000Z</time></trkpt>
			<trkpt lat="44.897456" lon="34.734909"><time>1970-01-01T00:00:01.000Z</time></trkpt>
			<trkpt lat="44.897328" lon="34.733686"><time>1970-01-01T00:00:01.000Z</time></trkpt>
			<trkpt lat="44.897178" lon="34.733321"><time>1970-01-01T00:00:01.000Z</time></trkpt>
			<trkpt lat="44.897135" lon="34.732914"><time>1970-01-01T00:00:01.000Z</time></trkpt>
			<trkpt lat="44.896899" lon="34.732291"><time>1970-01-01T00:00:01.000Z</time></trkpt>
			<trkpt lat="44.896663" lon="34.732055"><time>1970-01-01T00:00:01.000Z</time></trkpt>
			<trkpt lat="44.896512" lon="34.731819"><time>1970-01-01T00:00:01.000Z</time></trkpt>
			<trkpt lat="44.896362" lon="34.731047"><time>1970-01-01T00:00:01.000Z</time></trkpt>
			<trkpt lat="44.896212" lon="34.730811"><time>1970-01-01T00:00:01.000Z</time></trkpt>
			<trkpt lat="44.896126" lon="34.730510"><time>1970-01-01T00:00:01.000Z</time></trkpt>
			<trkpt lat="44.896105" lon="34.730253"><time>1970-01-01T00:00:01.000Z</time></trkpt>
			<trkpt lat="44.895976" lon="34.729631"><time>1970-01-01T00:00:01.000Z</time></trkpt>
			<trkpt lat="44.895611" lon="34.729588"><time>1970-01-01T00:00:01.000Z</time></trkpt>
			<trkpt lat="44.895547" lon="34.729502"><time>1970-01-01T00:00:01.000Z</time></trkpt>
			<trkpt lat="44.895482" lon="34.728837"><time>1970-01-01T00:00:01.000Z</time></trkpt>
			<trkpt lat="44.895547" lon="34.728880"><time>1970-01-01T00:00:01.000Z</time></trkpt>
			<trkpt lat="44.895525" lon="34.728686"><time>1970-01-01T00:00:01.000Z</time></trkpt>
			<trkpt lat="44.895461" lon="34.728601"><time>1970-01-01T00:00:01.000Z</time></trkpt>
			<trkpt lat="44.895568" lon="34.728365"><time>1970-01-01T00:00:01.000Z</time></trkpt>
			<trkpt lat="44.895590" lon="34.728107"><time>1970-01-01T00:00:01.000Z</time></trkpt>
			<trkpt lat="44.895590" lon="34.727614"><time>1970-01-01T00:00:01.000Z</time></trkpt>
			<trkpt lat="44.895654" lon="34.726734"><time>1970-01-01T00:00:01.000Z</time></trkpt>
			<trkpt lat="44.895611" lon="34.726476"><time>1970-01-01T00:00:01.000Z</time></trkpt>
			<trkpt lat="44.895654" lon="34.726240"><time>1970-01-01T00:00:01.000Z</time></trkpt>
			<trkpt lat="44.895804" lon="34.725876"><time>1970-01-01T00:00:01.000Z</time></trkpt>
			<trkpt lat="44.895826" lon="34.725661"><time>1970-01-01T00:00:01.000Z</time></trkpt>
			<trkpt lat="44.895997" lon="34.725382"><time>1970-01-01T00:00:01.000Z</time></trkpt>
			<trkpt lat="44.896040" lon="34.725125"><time>1970-01-01T00:00:01.000Z</time></trkpt>
			<trkpt lat="44.896212" lon="34.724974"><time>1970-01-01T00:00:01.000Z</time></trkpt>
			<trkpt lat="44.896555" lon="34.724824"><time>1970-01-01T00:00:01.000Z</time></trkpt>
			<trkpt lat="44.896534" lon="34.724502"><time>1970-01-01T00:00:01.000Z</time></trkpt>
			<trkpt lat="44.896212" lon="34.723987"><time>1970-01-01T00:00:01.000Z</time></trkpt>
			<trkpt lat="44.896148" lon="34.722893"><time>1970-01-01T00:00:01.000Z</time></trkpt>
			<trkpt lat="44.896148" lon="34.721605"><time>1970-01-01T00:00:01.000Z</time></trkpt>
			<trkpt lat="44.896276" lon="34.720919"><time>1970-01-01T00:00:01.000Z</time></trkpt>
			<trkpt lat="44.896212" lon="34.720447"><time>1970-01-01T00:00:01.000Z</time></trkpt>
			<trkpt lat="44.896233" lon="34.720146"><time>1970-01-01T00:00:01.000Z</time></trkpt>
			<trkpt lat="44.896362" lon="34.719867"><time>1970-01-01T00:00:01.000Z</time></trkpt>
			<trkpt lat="44.896384" lon="34.719696"><time>1970-01-01T00:00:01.000Z</time></trkpt>
			<trkpt lat="44.896469" lon="34.719610"><time>1970-01-01T00:00:01.000Z</time></trkpt>
			<trkpt lat="44.896534" lon="34.719395"><time>1970-01-01T00:00:01.000Z</time></trkpt>
			<trkpt lat="44.896663" lon="34.719202"><time>1970-01-01T00:00:01.000Z</time></trkpt>
			<trkpt lat="44.897113" lon="34.718945"><time>1970-01-01T00:00:01.000Z</time></trkpt>
			<trkpt lat="44.897156" lon="34.718773"><time>1970-01-01T00:00:01.000Z</time></trkpt>
			<trkpt lat="44.897371" lon="34.718580"><time>1970-01-01T00:00:01.000Z</time></trkpt>
			<trkpt lat="44.897564" lon="34.718086"><time>1970-01-01T00:00:01.000Z</time></trkpt>
			<trkpt lat="44.897650" lon="34.717464"><time>1970-01-01T00:00:01.000Z</time></trkpt>
			<trkpt lat="44.897843" lon="34.716499"><time>1970-01-01T00:00:01.000Z</time></trkpt>
			<trkpt lat="44.897757" lon="34.715919"><time>1970-01-01T00:00:01.000Z</time></trkpt>
			<trkpt lat="44.897628" lon="34.715683"><time>1970-01-01T00:00:01.000Z</time></trkpt>
			<trkpt lat="44.897542" lon="34.715426"><time>1970-01-01T00:00:01.000Z</time></trkpt>
			<trkpt lat="44.897564" lon="34.714567"><time>1970-01-01T00:00:01.000Z</time></trkpt>
			<trkpt lat="44.897735" lon="34.713945"><time>1970-01-01T00:00:01.000Z</time></trkpt>
			<trkpt lat="44.897821" lon="34.713773"><time>1970-01-01T00:00:01.000Z</time></trkpt>
			<trkpt lat="44.897821" lon="34.713688"><time>1970-01-01T00:00:01.000Z</time></trkpt>
			<trkpt lat="44.898165" lon="34.713258"><time>1970-01-01T00:00:01.000Z</time></trkpt>
			<trkpt lat="44.898486" lon="34.712550"><time>1970-01-01T00:00:01.000Z</time></trkpt>
			<trkpt lat="44.898379" lon="34.712808"><time>1970-01-01T00:00:01.000Z</time></trkpt>
			<trkpt lat="44.897907" lon="34.713516"><time>1970-01-01T00:00:01.000Z</time></trkpt>
			<trkpt lat="44.897800" lon="34.713773"><time>1970-01-01T00:00:01.000Z</time></trkpt>
			<trkpt lat="44.897821" lon="34.713795"><time>1970-01-01T00:00:01.000Z</time></trkpt>
			<trkpt lat="44.897757" lon="34.713730"><time>1970-01-01T00:00:01.000Z</time></trkpt>
			<trkpt lat="44.897671" lon="34.713537"><time>1970-01-01T00:00:01.000Z</time></trkpt>
			<trkpt lat="44.897628" lon="34.712808"><time>1970-01-01T00:00:01.000Z</time></trkpt>
			<trkpt lat="44.897757" lon="34.711477"><time>1970-01-01T00:00:01.000Z</time></trkpt>
			<trkpt lat="44.897907" lon="34.711241"><time>1970-01-01T00:00:01.000Z</time></trkpt>
			<trkpt lat="44.897929" lon="34.711070"><time>1970-01-01T00:00:01.000Z</time></trkpt>
			<trkpt lat="44.897843" lon="34.710233"><time>1970-01-01T00:00:01.000Z</time></trkpt>
			<trkpt lat="44.897843" lon="34.709632"><time>1970-01-01T00:00:01.000Z</time></trkpt>
			<trkpt lat="44.897886" lon="34.709224"><time>1970-01-01T00:00:01.000Z</time></trkpt>
			<trkpt lat="44.897993" lon="34.709117"><time>1970-01-01T00:00:01.000Z</time></trkpt>
			<trkpt lat="44.898100" lon="34.708881"><time>1970-01-01T00:00:01.000Z</time></trkpt>
			<trkpt lat="44.898250" lon="34.708688"><time>1970-01-01T00:00:01.000Z</time></trkpt>
			<trkpt lat="44.898315" lon="34.708516"><time>1970-01-01T00:00:01.000Z</time></trkpt>
			<trkpt lat="44.898422" lon="34.708409"><time>1970-01-01T00:00:01.000Z</time></trkpt>
			<trkpt lat="44.898615" lon="34.707958"><time>1970-01-01T00:00:01.000Z</time></trkpt>
			<trkpt lat="44.898572" lon="34.707164"><time>1970-01-01T00:00:01.000Z</time></trkpt>
			<trkpt lat="44.898615" lon="34.706242"><time>1970-01-01T00:00:01.000Z</time></trkpt>
			<trkpt lat="44.898680" lon="34.705705"><time>1970-01-01T00:00:01.000Z</time></trkpt>
			<trkpt lat="44.898529" lon="34.705426"><time>1970-01-01T00:00:01.000Z</time></trkpt>
			<trkpt lat="44.898293" lon="34.705212"><time>1970-01-01T00:00:01.000Z</time></trkpt>
			<trkpt lat="44.898143" lon="34.705233"><time>1970-01-01T00:00:01.000Z</time></trkpt>
			<trkpt lat="44.897843" lon="34.705383"><time>1970-01-01T00:00:01.000Z</time></trkpt>
			<trkpt lat="44.897542" lon="34.705341"><time>1970-01-01T00:00:01.000Z</time></trkpt>
			<trkpt lat="44.897263" lon="34.705362"><time>1970-01-01T00:00:01.000Z</time></trkpt>
			<trkpt lat="44.896984" lon="34.705190"><time>1970-01-01T00:00:01.000Z</time></trkpt>
			<trkpt lat="44.896319" lon="34.704890"><time>1970-01-01T00:00:01.000Z</time></trkpt>
			<trkpt lat="44.895954" lon="34.705040"><time>1970-01-01T00:00:01.000Z</time></trkpt>
			<trkpt lat="44.895675" lon="34.704954"><time>1970-01-01T00:00:01.000Z</time></trkpt>
			<trkpt lat="44.895461" lon="34.704804"><time>1970-01-01T00:00:01.000Z</time></trkpt>
			<trkpt lat="44.895096" lon="34.704396"><time>1970-01-01T00:00:01.000Z</time></trkpt>
			<trkpt lat="44.894667" lon="34.704182"><time>1970-01-01T00:00:01.000Z</time></trkpt>
			<trkpt lat="44.894538" lon="34.704010"><time>1970-01-01T00:00:01.000Z</time></trkpt>
			<trkpt lat="44.894495" lon="34.703881"><time>1970-01-01T00:00:01.000Z</time></trkpt>
			<trkpt lat="44.894474" lon="34.703560"><time>1970-01-01T00:00:01.000Z</time></trkpt>
			<trkpt lat="44.894045" lon="34.702723"><time>1970-01-01T00:00:01.000Z</time></trkpt>
			<trkpt lat="44.893980" lon="34.702058"><time>1970-01-01T00:00:01.000Z</time></trkpt>
			<trkpt lat="44.894238" lon="34.701156"><time>1970-01-01T00:00:01.000Z</time></trkpt>
			<trkpt lat="44.894195" lon="34.700384"><time>1970-01-01T00:00:01.000Z</time></trkpt>
			<trkpt lat="44.894367" lon="34.699976"><time>1970-01-01T00:00:01.000Z</time></trkpt>
			<trkpt lat="44.894431" lon="34.698946"><time>1970-01-01T00:00:01.000Z</time></trkpt>
			<trkpt lat="44.894409" lon="34.698646"><time>1970-01-01T00:00:01.000Z</time></trkpt>
			<trkpt lat="44.894452" lon="34.698496"><time>1970-01-01T00:00:01.000Z</time></trkpt>
			<trkpt lat="44.894753" lon="34.698152"><time>1970-01-01T00:00:01.000Z</time></trkpt>
			<trkpt lat="44.894839" lon="34.697938"><time>1970-01-01T00:00:01.000Z</time></trkpt>
			<trkpt lat="44.894989" lon="34.697766"><time>1970-01-01T00:00:01.000Z</time></trkpt>
			<trkpt lat="44.895160" lon="34.697659"><time>1970-01-01T00:00:01.000Z</time></trkpt>
			<trkpt lat="44.895718" lon="34.696886"><time>1970-01-01T00:00:01.000Z</time></trkpt>
			<trkpt lat="44.896169" lon="34.696757"><time>1970-01-01T00:00:01.000Z</time></trkpt>
			<trkpt lat="44.896491" lon="34.696607"><time>1970-01-01T00:00:01.000Z</time></trkpt>
			<trkpt lat="44.896770" lon="34.696414"><time>1970-01-01T00:00:01.000Z</time></trkpt>
			<trkpt lat="44.896877" lon="34.696221"><time>1970-01-01T00:00:01.000Z</time></trkpt>
			<trkpt lat="44.896963" lon="34.696157"><time>1970-01-01T00:00:01.000Z</time></trkpt>
			<trkpt lat="44.897006" lon="34.695985"><time>1970-01-01T00:00:01.000Z</time></trkpt>
			<trkpt lat="44.897478" lon="34.695663"><time>1970-01-01T00:00:01.000Z</time></trkpt>
			<trkpt lat="44.897757" lon="34.695320"><time>1970-01-01T00:00:01.000Z</time></trkpt>
			<trkpt lat="44.897929" lon="34.695213"><time>1970-01-01T00:00:01.000Z</time></trkpt>
			<trkpt lat="44.898186" lon="34.695191"><time>1970-01-01T00:00:01.000Z</time></trkpt>
			<trkpt lat="44.898336" lon="34.694998"><time>1970-01-01T00:00:01.000Z</time></trkpt>
			<trkpt lat="44.898658" lon="34.694740"><time>1970-01-01T00:00:01.000Z</time></trkpt>
			<trkpt lat="44.898873" lon="34.694397"><time>1970-01-01T00:00:01.000Z</time></trkpt>
			<trkpt lat="44.899087" lon="34.692917"><time>1970-01-01T00:00:01.000Z</time></trkpt>
			<trkpt lat="44.899473" lon="34.692466"><time>1970-01-01T00:00:01.000Z</time></trkpt>
			<trkpt lat="44.899559" lon="34.692316"><time>1970-01-01T00:00:01.000Z</time></trkpt>
			<trkpt lat="44.899516" lon="34.692208"><time>1970-01-01T00:00:01.000Z</time></trkpt>
			<trkpt lat="44.899559" lon="34.692144"><time>1970-01-01T00:00:01.000Z</time></trkpt>
			<trkpt lat="44.899903" lon="34.691951"><time>1970-01-01T00:00:01.000Z</time></trkpt>
			<trkpt lat="44.900546" lon="34.691093"><time>1970-01-01T00:00:01.000Z</time></trkpt>
			<trkpt lat="44.900718" lon="34.690814"><time>1970-01-01T00:00:01.000Z</time></trkpt>
			<trkpt lat="44.900954" lon="34.690299"><time>1970-01-01T00:00:01.000Z</time></trkpt>
			<trkpt lat="44.901061" lon="34.690191"><time>1970-01-01T00:00:01.000Z</time></trkpt>
			<trkpt lat="44.901147" lon="34.689998"><time>1970-01-01T00:00:01.000Z</time></trkpt>
			<trkpt lat="44.901555" lon="34.689848"><time>1970-01-01T00:00:01.000Z</time></trkpt>
			<trkpt lat="44.902027" lon="34.689848"><time>1970-01-01T00:00:01.000Z</time></trkpt>
			<trkpt lat="44.902284" lon="34.689676"><time>1970-01-01T00:00:01.000Z</time></trkpt>
			<trkpt lat="44.902413" lon="34.689676"><time>1970-01-01T00:00:01.000Z</time></trkpt>
			<trkpt lat="44.902799" lon="34.690063"><time>1970-01-01T00:00:01.000Z</time></trkpt>
			<trkpt lat="44.902928" lon="34.690277"><time>1970-01-01T00:00:01.000Z</time></trkpt>
			<trkpt lat="44.903035" lon="34.690728"><time>1970-01-01T00:00:01.000Z</time></trkpt>
			<trkpt lat="44.903014" lon="34.690814"><time>1970-01-01T00:00:01.000Z</time></trkpt>
			<trkpt lat="44.903014" lon="34.690771"><time>1970-01-01T00:00:01.000Z</time></trkpt>
			<trkpt lat="44.903164" lon="34.690964"><time>1970-01-01T00:00:01.000Z</time></trkpt>
			<trkpt lat="44.903701" lon="34.691286"><time>1970-01-01T00:00:01.000Z</time></trkpt>
			<trkpt lat="44.903980" lon="34.691372"><time>1970-01-01T00:00:01.000Z</time></trkpt>
			<trkpt lat="44.904173" lon="34.691500"><time>1970-01-01T00:00:01.000Z</time></trkpt>
			<trkpt lat="44.904387" lon="34.691565"><time>1970-01-01T00:00:01.000Z</time></trkpt>
			<trkpt lat="44.904752" lon="34.691822"><time>1970-01-01T00:00:01.000Z</time></trkpt>
			<trkpt lat="44.905310" lon="34.691930"><time>1970-01-01T00:00:01.000Z</time></trkpt>
			<trkpt lat="44.905460" lon="34.691887"><time>1970-01-01T00:00:01.000Z</time></trkpt>
			<trkpt lat="44.905718" lon="34.692101"><time>1970-01-01T00:00:01.000Z</time></trkpt>
			<trkpt lat="44.905954" lon="34.692208"><time>1970-01-01T00:00:01.000Z</time></trkpt>
			<trkpt lat="44.906404" lon="34.692166"><time>1970-01-01T00:00:01.000Z</time></trkpt>
			<trkpt lat="44.906533" lon="34.692037"><time>1970-01-01T00:00:01.000Z</time></trkpt>
			<trkpt lat="44.906962" lon="34.691779"><time>1970-01-01T00:00:01.000Z</time></trkpt>
			<trkpt lat="44.907069" lon="34.691543"><time>1970-01-01T00:00:01.000Z</time></trkpt>
			<trkpt lat="44.907155" lon="34.690857"><time>1970-01-01T00:00:01.000Z</time></trkpt>
			<trkpt lat="44.907155" lon="34.690578"><time>1970-01-01T00:00:01.000Z</time></trkpt>
			<trkpt lat="44.906941" lon="34.689376"><time>1970-01-01T00:00:01.000Z</time></trkpt>
			<trkpt lat="44.906898" lon="34.688539"><time>1970-01-01T00:00:01.000Z</time></trkpt>
			<trkpt lat="44.906812" lon="34.688217"><time>1970-01-01T00:00:01.000Z</time></trkpt>
			<trkpt lat="44.906855" lon="34.687831"><time>1970-01-01T00:00:01.000Z</time></trkpt>
			<trkpt lat="44.907091" lon="34.687187"><time>1970-01-01T00:00:01.000Z</time></trkpt>
			<trkpt lat="44.907005" lon="34.686329"><time>1970-01-01T00:00:01.000Z</time></trkpt>
			<trkpt lat="44.906898" lon="34.685986"><time>1970-01-01T00:00:01.000Z</time></trkpt>
			<trkpt lat="44.906683" lon="34.685621"><time>1970-01-01T00:00:01.000Z</time></trkpt>
			<trkpt lat="44.906640" lon="34.685385"><time>1970-01-01T00:00:01.000Z</time></trkpt>
			<trkpt lat="44.906533" lon="34.685278"><time>1970-01-01T00:00:01.000Z</time></trkpt>
			<trkpt lat="44.906426" lon="34.685235"><time>1970-01-01T00:00:01.000Z</time></trkpt>
			<trkpt lat="44.906340" lon="34.685321"><time>1970-01-01T00:00:01.000Z</time></trkpt>
			<trkpt lat="44.905911" lon="34.685363"><time>1970-01-01T00:00:01.000Z</time></trkpt>
			<trkpt lat="44.905718" lon="34.685342"><time>1970-01-01T00:00:01.000Z</time></trkpt>
			<trkpt lat="44.905696" lon="34.685106"><time>1970-01-01T00:00:01.000Z</time></trkpt>
			<trkpt lat="44.905610" lon="34.684891"><time>1970-01-01T00:00:01.000Z</time></trkpt>
			<trkpt lat="44.905417" lon="34.684591"><time>1970-01-01T00:00:01.000Z</time></trkpt>
			<trkpt lat="44.905246" lon="34.684548"><time>1970-01-01T00:00:01.000Z</time></trkpt>
			<trkpt lat="44.905160" lon="34.684441"><time>1970-01-01T00:00:01.000Z</time></trkpt>
			<trkpt lat="44.905074" lon="34.684055"><time>1970-01-01T00:00:01.000Z</time></trkpt>
			<trkpt lat="44.905331" lon="34.683754"><time>1970-01-01T00:00:01.000Z</time></trkpt>
			<trkpt lat="44.905525" lon="34.683153"><time>1970-01-01T00:00:01.000Z</time></trkpt>
			<trkpt lat="44.905803" lon="34.682724"><time>1970-01-01T00:00:01.000Z</time></trkpt>
			<trkpt lat="44.906147" lon="34.682016"><time>1970-01-01T00:00:01.000Z</time></trkpt>
			<trkpt lat="44.906104" lon="34.681780"><time>1970-01-01T00:00:01.000Z</time></trkpt>
			<trkpt lat="44.905997" lon="34.681630"><time>1970-01-01T00:00:01.000Z</time></trkpt>
			<trkpt lat="44.905653" lon="34.681329"><time>1970-01-01T00:00:01.000Z</time></trkpt>
			<trkpt lat="44.905460" lon="34.680321"><time>1970-01-01T00:00:01.000Z</time></trkpt>
			<trkpt lat="44.904967" lon="34.678819"><time>1970-01-01T00:00:01.000Z</time></trkpt>
			<trkpt lat="44.904988" lon="34.678540"><time>1970-01-01T00:00:01.000Z</time></trkpt>
			<trkpt lat="44.904924" lon="34.678282"><time>1970-01-01T00:00:01.000Z</time></trkpt>
			<trkpt lat="44.904967" lon="34.677853"><time>1970-01-01T00:00:01.000Z</time></trkpt>
			<trkpt lat="44.904902" lon="34.677682"><time>1970-01-01T00:00:01.000Z</time></trkpt>
			<trkpt lat="44.904859" lon="34.677703"><time>1970-01-01T00:00:01.000Z</time></trkpt>
			<trkpt lat="44.904924" lon="34.677767"><time>1970-01-01T00:00:01.000Z</time></trkpt>
			<trkpt lat="44.904881" lon="34.677746"><time>1970-01-01T00:00:01.000Z</time></trkpt>
			<trkpt lat="44.904902" lon="34.677810"><time>1970-01-01T00:00:01.000Z</time></trkpt>
			<trkpt lat="44.904881" lon="34.677746"><time>1970-01-01T00:00:01.000Z</time></trkpt>
			<trkpt lat="44.904902" lon="34.677789"><time>1970-01-01T00:00:01.000Z</time></trkpt>
			<trkpt lat="44.904988" lon="34.677767"><time>1970-01-01T00:00:01.000Z</time></trkpt>
			<trkpt lat="44.904881" lon="34.677810"><time>1970-01-01T00:00:01.000Z</time></trkpt>
			<trkpt lat="44.904902" lon="34.677746"><time>1970-01-01T00:00:01.000Z</time></trkpt>
			<trkpt lat="44.904945" lon="34.677746"><time>1970-01-01T00:00:01.000Z</time></trkpt>
			<trkpt lat="44.904902" lon="34.677338"><time>1970-01-01T00:00:01.000Z</time></trkpt>
			<trkpt lat="44.904924" lon="34.677059"><time>1970-01-01T00:00:01.000Z</time></trkpt>
			<trkpt lat="44.905010" lon="34.676823"><time>1970-01-01T00:00:01.000Z</time></trkpt>
			<trkpt lat="44.905224" lon="34.676652"><time>1970-01-01T00:00:01.000Z</time></trkpt>
			<trkpt lat="44.905331" lon="34.676501"><time>1970-01-01T00:00:01.000Z</time></trkpt>
			<trkpt lat="44.905525" lon="34.675815"><time>1970-01-01T00:00:01.000Z</time></trkpt>
			<trkpt lat="44.905546" lon="34.675536"><time>1970-01-01T00:00:01.000Z</time></trkpt>
			<trkpt lat="44.905696" lon="34.675128"><time>1970-01-01T00:00:01.000Z</time></trkpt>
			<trkpt lat="44.905653" lon="34.674313"><time>1970-01-01T00:00:01.000Z</time></trkpt>
			<trkpt lat="44.905482" lon="34.673454"><time>1970-01-01T00:00:01.000Z</time></trkpt>
			<trkpt lat="44.905439" lon="34.673004"><time>1970-01-01T00:00:01.000Z</time></trkpt>
			<trkpt lat="44.905503" lon="34.672382"><time>1970-01-01T00:00:01.000Z</time></trkpt>
			<trkpt lat="44.905567" lon="34.672103"><time>1970-01-01T00:00:01.000Z</time></trkpt>
			<trkpt lat="44.905610" lon="34.671180"><time>1970-01-01T00:00:01.000Z</time></trkpt>
			<trkpt lat="44.905503" lon="34.670708"><time>1970-01-01T00:00:01.000Z</time></trkpt>
			<trkpt lat="44.905567" lon="34.670300"><time>1970-01-01T00:00:01.000Z</time></trkpt>
			<trkpt lat="44.905417" lon="34.670150"><time>1970-01-01T00:00:01.000Z</time></trkpt>
			<trkpt lat="44.905289" lon="34.669935"><time>1970-01-01T00:00:01.000Z</time></trkpt>
			<trkpt lat="44.905224" lon="34.669399"><time>1970-01-01T00:00:01.000Z</time></trkpt>
			<trkpt lat="44.905117" lon="34.668884"><time>1970-01-01T00:00:01.000Z</time></trkpt>
			<trkpt lat="44.904945" lon="34.668541"><time>1970-01-01T00:00:01.000Z</time></trkpt>
			<trkpt lat="44.904838" lon="34.667940"><time>1970-01-01T00:00:01.000Z</time></trkpt>
			<trkpt lat="44.904645" lon="34.667768"><time>1970-01-01T00:00:01.000Z</time></trkpt>
			<trkpt lat="44.904580" lon="34.667618"><time>1970-01-01T00:00:01.000Z</time></trkpt>
			<trkpt lat="44.904387" lon="34.667425"><time>1970-01-01T00:00:01.000Z</time></trkpt>
			<trkpt lat="44.904280" lon="34.667210"><time>1970-01-01T00:00:01.000Z</time></trkpt>
			<trkpt lat="44.904259" lon="34.666845"><time>1970-01-01T00:00:01.000Z</time></trkpt>
			<trkpt lat="44.904344" lon="34.666609"><time>1970-01-01T00:00:01.000Z</time></trkpt>
			<trkpt lat="44.904366" lon="34.666309"><time>1970-01-01T00:00:01.000Z</time></trkpt>
			<trkpt lat="44.904323" lon="34.666116"><time>1970-01-01T00:00:01.000Z</time></trkpt>
			<trkpt lat="44.904173" lon="34.666009"><time>1970-01-01T00:00:01.000Z</time></trkpt>
			<trkpt lat="44.904087" lon="34.665858"><time>1970-01-01T00:00:01.000Z</time></trkpt>
			<trkpt lat="44.904044" lon="34.665601"><time>1970-01-01T00:00:01.000Z</time></trkpt>
			<trkpt lat="44.903808" lon="34.664957"><time>1970-01-01T00:00:01.000Z</time></trkpt>
			<trkpt lat="44.903679" lon="34.664356"><time>1970-01-01T00:00:01.000Z</time></trkpt>
			<trkpt lat="44.903658" lon="34.664056"><time>1970-01-01T00:00:01.000Z</time></trkpt>
			<trkpt lat="44.903722" lon="34.663884"><time>1970-01-01T00:00:01.000Z</time></trkpt>
			<trkpt lat="44.903829" lon="34.663326"><time>1970-01-01T00:00:01.000Z</time></trkpt>
			<trkpt lat="44.903722" lon="34.663026"><time>1970-01-01T00:00:01.000Z</time></trkpt>
			<trkpt lat="44.903722" lon="34.662833"><time>1970-01-01T00:00:01.000Z</time></trkpt>
			<trkpt lat="44.903829" lon="34.662575"><time>1970-01-01T00:00:01.000Z</time></trkpt>
			<trkpt lat="44.904194" lon="34.662103"><time>1970-01-01T00:00:01.000Z</time></trkpt>
			<trkpt lat="44.904173" lon="34.661438"><time>1970-01-01T00:00:01.000Z</time></trkpt>
			<trkpt lat="44.904323" lon="34.660988"><time>1970-01-01T00:00:01.000Z</time></trkpt>
			<trkpt lat="44.904623" lon="34.660601"><time>1970-01-01T00:00:01.000Z</time></trkpt>
			<trkpt lat="44.904731" lon="34.660301"><time>1970-01-01T00:00:01.000Z</time></trkpt>
			<trkpt lat="44.904645" lon="34.659786"><time>1970-01-01T00:00:01.000Z</time></trkpt>
			<trkpt lat="44.904709" lon="34.659507"><time>1970-01-01T00:00:01.000Z</time></trkpt>
			<trkpt lat="44.904988" lon="34.658971"><time>1970-01-01T00:00:01.000Z</time></trkpt>
			<trkpt lat="44.904859" lon="34.658520"><time>1970-01-01T00:00:01.000Z</time></trkpt>
			<trkpt lat="44.904645" lon="34.658134"><time>1970-01-01T00:00:01.000Z</time></trkpt>
			<trkpt lat="44.904537" lon="34.657790"><time>1970-01-01T00:00:01.000Z</time></trkpt>
			<trkpt lat="44.904173" lon="34.656953"><time>1970-01-01T00:00:01.000Z</time></trkpt>
			<trkpt lat="44.904194" lon="34.656739"><time>1970-01-01T00:00:01.000Z</time></trkpt>
			<trkpt lat="44.904130" lon="34.656353"><time>1970-01-01T00:00:01.000Z</time></trkpt>
			<trkpt lat="44.904173" lon="34.655924"><time>1970-01-01T00:00:01.000Z</time></trkpt>
			<trkpt lat="44.904366" lon="34.655323"><time>1970-01-01T00:00:01.000Z</time></trkpt>
			<trkpt lat="44.904108" lon="34.652340"><time>1970-01-01T00:00:01.000Z</time></trkpt>
			<trkpt lat="44.903937" lon="34.652061"><time>1970-01-01T00:00:01.000Z</time></trkpt>
			<trkpt lat="44.903915" lon="34.651911"><time>1970-01-01T00:00:01.000Z</time></trkpt>
			<trkpt lat="44.903786" lon="34.651932"><time>1970-01-01T00:00:01.000Z</time></trkpt>
			<trkpt lat="44.903765" lon="34.651868"><time>1970-01-01T00:00:01.000Z</time></trkpt>
			<trkpt lat="44.903465" lon="34.651761"><time>1970-01-01T00:00:01.000Z</time></trkpt>
			<trkpt lat="44.903443" lon="34.651653"><time>1970-01-01T00:00:01.000Z</time></trkpt>
			<trkpt lat="44.903486" lon="34.651096"><time>1970-01-01T00:00:01.000Z</time></trkpt>
			<trkpt lat="44.903550" lon="34.650945"><time>1970-01-01T00:00:01.000Z</time></trkpt>
			<trkpt lat="44.903808" lon="34.650602"><time>1970-01-01T00:00:01.000Z</time></trkpt>
			<trkpt lat="44.903679" lon="34.650280"><time>1970-01-01T00:00:01.000Z</time></trkpt>
			<trkpt lat="44.903550" lon="34.650216"><time>1970-01-01T00:00:01.000Z</time></trkpt>
			<trkpt lat="44.903314" lon="34.650001"><time>1970-01-01T00:00:01.000Z</time></trkpt>
			<trkpt lat="44.903250" lon="34.649830"><time>1970-01-01T00:00:01.000Z</time></trkpt>
			<trkpt lat="44.903357" lon="34.648220"><time>1970-01-01T00:00:01.000Z</time></trkpt>
			<trkpt lat="44.903336" lon="34.648156"><time>1970-01-01T00:00:01.000Z</time></trkpt>
			<trkpt lat="44.903443" lon="34.647813"><time>1970-01-01T00:00:01.000Z</time></trkpt>
			<trkpt lat="44.903422" lon="34.647576"><time>1970-01-01T00:00:01.000Z</time></trkpt>
			<trkpt lat="44.903658" lon="34.647019"><time>1970-01-01T00:00:01.000Z</time></trkpt>
			<trkpt lat="44.903786" lon="34.646847"><time>1970-01-01T00:00:01.000Z</time></trkpt>
			<trkpt lat="44.904065" lon="34.646268"><time>1970-01-01T00:00:01.000Z</time></trkpt>
			<trkpt lat="44.904387" lon="34.645924"><time>1970-01-01T00:00:01.000Z</time></trkpt>
			<trkpt lat="44.904859" lon="34.644572"><time>1970-01-01T00:00:01.000Z</time></trkpt>
			<trkpt lat="44.904645" lon="34.644379"><time>1970-01-01T00:00:01.000Z</time></trkpt>
			<trkpt lat="44.904516" lon="34.643800"><time>1970-01-01T00:00:01.000Z</time></trkpt>
			<trkpt lat="44.904602" lon="34.643478"><time>1970-01-01T00:00:01.000Z</time></trkpt>
			<trkpt lat="44.904816" lon="34.643113"><time>1970-01-01T00:00:01.000Z</time></trkpt>
			<trkpt lat="44.904795" lon="34.643006"><time>1970-01-01T00:00:01.000Z</time></trkpt>
			<trkpt lat="44.904859" lon="34.642985"><time>1970-01-01T00:00:01.000Z</time></trkpt>
			<trkpt lat="44.904967" lon="34.642512"><time>1970-01-01T00:00:01.000Z</time></trkpt>
			<trkpt lat="44.904967" lon="34.641826"><time>1970-01-01T00:00:01.000Z</time></trkpt>
			<trkpt lat="44.904795" lon="34.640903"><time>1970-01-01T00:00:01.000Z</time></trkpt>
			<trkpt lat="44.904967" lon="34.639873"><time>1970-01-01T00:00:01.000Z</time></trkpt>
			<trkpt lat="44.904795" lon="34.639015"><time>1970-01-01T00:00:01.000Z</time></trkpt>
			<trkpt lat="44.904645" lon="34.637899"><time>1970-01-01T00:00:01.000Z</time></trkpt>
			<trkpt lat="44.904580" lon="34.637727"><time>1970-01-01T00:00:01.000Z</time></trkpt>
			<trkpt lat="44.904387" lon="34.637642"><time>1970-01-01T00:00:01.000Z</time></trkpt>
			<trkpt lat="44.904237" lon="34.637620"><time>1970-01-01T00:00:01.000Z</time></trkpt>
			<trkpt lat="44.904151" lon="34.637556"><time>1970-01-01T00:00:01.000Z</time></trkpt>
			<trkpt lat="44.904173" lon="34.637577"><time>1970-01-01T00:00:01.000Z</time></trkpt>
			<trkpt lat="44.904065" lon="34.637599"><time>1970-01-01T00:00:01.000Z</time></trkpt>
			<trkpt lat="44.903980" lon="34.637534"><time>1970-01-01T00:00:01.000Z</time></trkpt>
			<trkpt lat="44.903829" lon="34.637513"><time>1970-01-01T00:00:01.000Z</time></trkpt>
			<trkpt lat="44.903336" lon="34.637513"><time>1970-01-01T00:00:01.000Z</time></trkpt>
			<trkpt lat="44.902821" lon="34.637427"><time>1970-01-01T00:00:01.000Z</time></trkpt>
			<trkpt lat="44.902606" lon="34.637491"><time>1970-01-01T00:00:01.000Z</time></trkpt>
			<trkpt lat="44.902456" lon="34.637470"><time>1970-01-01T00:00:01.000Z</time></trkpt>
			<trkpt lat="44.902220" lon="34.637170"><time>1970-01-01T00:00:01.000Z</time></trkpt>
			<trkpt lat="44.901920" lon="34.636869"><time>1970-01-01T00:00:01.000Z</time></trkpt>
			<trkpt lat="44.901769" lon="34.636826"><time>1970-01-01T00:00:01.000Z</time></trkpt>
			<trkpt lat="44.901641" lon="34.636826"><time>1970-01-01T00:00:01.000Z</time></trkpt>
			<trkpt lat="44.901340" lon="34.636740"><time>1970-01-01T00:00:01.000Z</time></trkpt>
			<trkpt lat="44.901040" lon="34.636762"><time>1970-01-01T00:00:01.000Z</time></trkpt>
			<trkpt lat="44.900954" lon="34.636719"><time>1970-01-01T00:00:01.000Z</time></trkpt>
			<trkpt lat="44.900675" lon="34.636783"><time>1970-01-01T00:00:01.000Z</time></trkpt>
			<trkpt lat="44.900654" lon="34.636655"><time>1970-01-01T00:00:01.000Z</time></trkpt>
			<trkpt lat="44.900289" lon="34.636418"><time>1970-01-01T00:00:01.000Z</time></trkpt>
			<trkpt lat="44.899967" lon="34.636097"><time>1970-01-01T00:00:01.000Z</time></trkpt>
			<trkpt lat="44.899752" lon="34.635946"><time>1970-01-01T00:00:01.000Z</time></trkpt>
			<trkpt lat="44.899710" lon="34.635968"><time>1970-01-01T00:00:01.000Z</time></trkpt>
			<trkpt lat="44.899388" lon="34.635839"><time>1970-01-01T00:00:01.000Z</time></trkpt>
			<trkpt lat="44.899216" lon="34.635625"><time>1970-01-01T00:00:01.000Z</time></trkpt>
			<trkpt lat="44.899152" lon="34.635389"><time>1970-01-01T00:00:01.000Z</time></trkpt>
			<trkpt lat="44.898916" lon="34.635131"><time>1970-01-01T00:00:01.000Z</time></trkpt>
			<trkpt lat="44.898808" lon="34.634959"><time>1970-01-01T00:00:01.000Z</time></trkpt>
			<trkpt lat="44.898122" lon="34.634552"><time>1970-01-01T00:00:01.000Z</time></trkpt>
			<trkpt lat="44.897757" lon="34.634552"><time>1970-01-01T00:00:01.000Z</time></trkpt>
			<trkpt lat="44.897414" lon="34.634638"><time>1970-01-01T00:00:01.000Z</time></trkpt>
			<trkpt lat="44.896920" lon="34.634230"><time>1970-01-01T00:00:01.000Z</time></trkpt>
			<trkpt lat="44.896705" lon="34.634123"><time>1970-01-01T00:00:01.000Z</time></trkpt>
			<trkpt lat="44.896512" lon="34.634080"><time>1970-01-01T00:00:01.000Z</time></trkpt>
			<trkpt lat="44.896126" lon="34.633886"><time>1970-01-01T00:00:01.000Z</time></trkpt>
			<trkpt lat="44.895611" lon="34.633393"><time>1970-01-01T00:00:01.000Z</time></trkpt>
			<trkpt lat="44.895418" lon="34.633393"><time>1970-01-01T00:00:01.000Z</time></trkpt>
			<trkpt lat="44.895203" lon="34.633028"><time>1970-01-01T00:00:01.000Z</time></trkpt>
			<trkpt lat="44.895203" lon="34.632942"><time>1970-01-01T00:00:01.000Z</time></trkpt>
			<trkpt lat="44.894903" lon="34.632728"><time>1970-01-01T00:00:01.000Z</time></trkpt>
			<trkpt lat="44.894817" lon="34.632513"><time>1970-01-01T00:00:01.000Z</time></trkpt>
			<trkpt lat="44.894345" lon="34.632041"><time>1970-01-01T00:00:01.000Z</time></trkpt>
			<trkpt lat="44.894173" lon="34.631569"><time>1970-01-01T00:00:01.000Z</time></trkpt>
			<trkpt lat="44.894195" lon="34.631247"><time>1970-01-01T00:00:01.000Z</time></trkpt>
			<trkpt lat="44.894109" lon="34.631097"><time>1970-01-01T00:00:01.000Z</time></trkpt>
			<trkpt lat="44.894259" lon="34.630925"><time>1970-01-01T00:00:01.000Z</time></trkpt>
			<trkpt lat="44.894131" lon="34.631076"><time>1970-01-01T00:00:01.000Z</time></trkpt>
			<trkpt lat="44.894023" lon="34.630775"><time>1970-01-01T00:00:01.000Z</time></trkpt>
			<trkpt lat="44.894152" lon="34.630582"><time>1970-01-01T00:00:01.000Z</time></trkpt>
			<trkpt lat="44.894345" lon="34.630131"><time>1970-01-01T00:00:01.000Z</time></trkpt>
			<trkpt lat="44.894238" lon="34.629788"><time>1970-01-01T00:00:01.000Z</time></trkpt>
			<trkpt lat="44.894131" lon="34.629681"><time>1970-01-01T00:00:01.000Z</time></trkpt>
			<trkpt lat="44.894066" lon="34.629531"><time>1970-01-01T00:00:01.000Z</time></trkpt>
			<trkpt lat="44.894066" lon="34.629380"><time>1970-01-01T00:00:01.000Z</time></trkpt>
			<trkpt lat="44.893658" lon="34.629144"><time>1970-01-01T00:00:01.000Z</time></trkpt>
			<trkpt lat="44.893551" lon="34.628994"><time>1970-01-01T00:00:01.000Z</time></trkpt>
			<trkpt lat="44.893444" lon="34.628479"><time>1970-01-01T00:00:01.000Z</time></trkpt>
			<trkpt lat="44.893294" lon="34.628200"><time>1970-01-01T00:00:01.000Z</time></trkpt>
			<trkpt lat="44.892800" lon="34.628029"><time>1970-01-01T00:00:01.000Z</time></trkpt>
			<trkpt lat="44.892714" lon="34.628050"><time>1970-01-01T00:00:01.000Z</time></trkpt>
			<trkpt lat="44.892457" lon="34.627900"><time>1970-01-01T00:00:01.000Z</time></trkpt>
			<trkpt lat="44.892199" lon="34.627449"><time>1970-01-01T00:00:01.000Z</time></trkpt>
			<trkpt lat="44.892135" lon="34.627170"><time>1970-01-01T00:00:01.000Z</time></trkpt>
			<trkpt lat="44.892178" lon="34.626999"><time>1970-01-01T00:00:01.000Z</time></trkpt>
			<trkpt lat="44.892049" lon="34.626870"><time>1970-01-01T00:00:01.000Z</time></trkpt>
			<trkpt lat="44.891749" lon="34.626698"><time>1970-01-01T00:00:01.000Z</time></trkpt>
			<trkpt lat="44.891470" lon="34.626290"><time>1970-01-01T00:00:01.000Z</time></trkpt>
			<trkpt lat="44.891341" lon="34.626248"><time>1970-01-01T00:00:01.000Z</time></trkpt>
			<trkpt lat="44.891255" lon="34.626312"><time>1970-01-01T00:00:01.000Z</time></trkpt>
			<trkpt lat="44.891191" lon="34.626269"><time>1970-01-01T00:00:01.000Z</time></trkpt>
			<trkpt lat="44.891191" lon="34.626162"><time>1970-01-01T00:00:01.000Z</time></trkpt>
			<trkpt lat="44.891105" lon="34.626076"><time>1970-01-01T00:00:01.000Z</time></trkpt>
			<trkpt lat="44.890955" lon="34.626033"><time>1970-01-01T00:00:01.000Z</time></trkpt>
			<trkpt lat="44.890869" lon="34.626076"><time>1970-01-01T00:00:01.000Z</time></trkpt>
			<trkpt lat="44.890676" lon="34.626054"><time>1970-01-01T00:00:01.000Z</time></trkpt>
			<trkpt lat="44.890483" lon="34.626097"><time>1970-01-01T00:00:01.000Z</time></trkpt>
			<trkpt lat="44.890054" lon="34.625904"><time>1970-01-01T00:00:01.000Z</time></trkpt>
			<trkpt lat="44.889732" lon="34.625432"><time>1970-01-01T00:00:01.000Z</time></trkpt>
			<trkpt lat="44.889324" lon="34.625153"><time>1970-01-01T00:00:01.000Z</time></trkpt>
			<trkpt lat="44.888916" lon="34.624595"><time>1970-01-01T00:00:01.000Z</time></trkpt>
			<trkpt lat="44.888680" lon="34.624381"><time>1970-01-01T00:00:01.000Z</time></trkpt>
			<trkpt lat="44.888509" lon="34.624273"><time>1970-01-01T00:00:01.000Z</time></trkpt>
			<trkpt lat="44.888315" lon="34.624252"><time>1970-01-01T00:00:01.000Z</time></trkpt>
			<trkpt lat="44.888165" lon="34.624123"><time>1970-01-01T00:00:01.000Z</time></trkpt>
			<trkpt lat="44.887779" lon="34.624102"><time>1970-01-01T00:00:01.000Z</time></trkpt>
			<trkpt lat="44.887586" lon="34.624166"><time>1970-01-01T00:00:01.000Z</time></trkpt>
			<trkpt lat="44.887135" lon="34.623995"><time>1970-01-01T00:00:01.000Z</time></trkpt>
			<trkpt lat="44.886835" lon="34.623780"><time>1970-01-01T00:00:01.000Z</time></trkpt>
			<trkpt lat="44.886792" lon="34.623801"><time>1970-01-01T00:00:01.000Z</time></trkpt>
			<trkpt lat="44.886706" lon="34.623673"><time>1970-01-01T00:00:01.000Z</time></trkpt>
			<trkpt lat="44.886213" lon="34.623716"><time>1970-01-01T00:00:01.000Z</time></trkpt>
			<trkpt lat="44.886148" lon="34.623651"><time>1970-01-01T00:00:01.000Z</time></trkpt>
			<trkpt lat="44.885998" lon="34.623673"><time>1970-01-01T00:00:01.000Z</time></trkpt>
			<trkpt lat="44.885912" lon="34.623630"><time>1970-01-01T00:00:01.000Z</time></trkpt>
			<trkpt lat="44.885226" lon="34.623716"><time>1970-01-01T00:00:01.000Z</time></trkpt>
			<trkpt lat="44.885161" lon="34.623673"><time>1970-01-01T00:00:01.000Z</time></trkpt>
			<trkpt lat="44.885161" lon="34.623630"><time>1970-01-01T00:00:01.000Z</time></trkpt>
			<trkpt lat="44.884947" lon="34.623716"><time>1970-01-01T00:00:01.000Z</time></trkpt>
			<trkpt lat="44.884303" lon="34.623651"><time>1970-01-01T00:00:01.000Z</time></trkpt>
			<trkpt lat="44.884088" lon="34.623737"><time>1970-01-01T00:00:01.000Z</time></trkpt>
			<trkpt lat="44.883852" lon="34.623737"><time>1970-01-01T00:00:01.000Z</time></trkpt>
			<trkpt lat="44.883530" lon="34.623651"><time>1970-01-01T00:00:01.000Z</time></trkpt>
			<trkpt lat="44.882887" lon="34.623630"><time>1970-01-01T00:00:01.000Z</time></trkpt>
			<trkpt lat="44.882565" lon="34.623651"><time>1970-01-01T00:00:01.000Z</time></trkpt>
			<trkpt lat="44.882114" lon="34.624016"><time>1970-01-01T00:00:01.000Z</time></trkpt>
			<trkpt lat="44.881878" lon="34.624295"><time>1970-01-01T00:00:01.000Z</time></trkpt>
			<trkpt lat="44.881728" lon="34.624295"><time>1970-01-01T00:00:01.000Z</time></trkpt>
			<trkpt lat="44.881556" lon="34.624788"><time>1970-01-01T00:00:01.000Z</time></trkpt>
			<trkpt lat="44.881363" lon="34.624982"><time>1970-01-01T00:00:01.000Z</time></trkpt>
			<trkpt lat="44.881020" lon="34.625175"><time>1970-01-01T00:00:01.000Z</time></trkpt>
			<trkpt lat="44.880870" lon="34.625218"><time>1970-01-01T00:00:01.000Z</time></trkpt>
			<trkpt lat="44.880698" lon="34.625175"><time>1970-01-01T00:00:01.000Z</time></trkpt>
			<trkpt lat="44.880612" lon="34.625218"><time>1970-01-01T00:00:01.000Z</time></trkpt>
			<trkpt lat="44.880441" lon="34.625110"><time>1970-01-01T00:00:01.000Z</time></trkpt>
			<trkpt lat="44.880162" lon="34.625325"><time>1970-01-01T00:00:01.000Z</time></trkpt>
			<trkpt lat="44.879990" lon="34.625346"><time>1970-01-01T00:00:01.000Z</time></trkpt>
			<trkpt lat="44.879861" lon="34.625518"><time>1970-01-01T00:00:01.000Z</time></trkpt>
			<trkpt lat="44.879475" lon="34.625411"><time>1970-01-01T00:00:01.000Z</time></trkpt>
			<trkpt lat="44.879303" lon="34.625454"><time>1970-01-01T00:00:01.000Z</time></trkpt>
			<trkpt lat="44.879089" lon="34.625432"><time>1970-01-01T00:00:01.000Z</time></trkpt>
			<trkpt lat="44.878896" lon="34.625647"><time>1970-01-01T00:00:01.000Z</time></trkpt>
			<trkpt lat="44.878767" lon="34.625625"><time>1970-01-01T00:00:01.000Z</time></trkpt>
			<trkpt lat="44.878702" lon="34.627556"><time>1970-01-01T00:00:01.000Z</time></trkpt>
			<trkpt lat="44.879625" lon="34.633650"><time>1970-01-01T00:00:01.000Z</time></trkpt>
			<trkpt lat="44.879732" lon="34.633994"><time>1970-01-01T00:00:01.000Z</time></trkpt>
			<trkpt lat="44.879861" lon="34.634123"><time>1970-01-01T00:00:01.000Z</time></trkpt>
			<trkpt lat="44.879990" lon="34.634401"><time>1970-01-01T00:00:01.000Z</time></trkpt>
			<trkpt lat="44.879883" lon="34.634573"><time>1970-01-01T00:00:01.000Z</time></trkpt>
			<trkpt lat="44.880913" lon="34.635710"><time>1970-01-01T00:00:01.000Z</time></trkpt>
			<trkpt lat="44.880698" lon="34.635818"><time>1970-01-01T00:00:01.000Z</time></trkpt>
			<trkpt lat="44.880526" lon="34.636097"><time>1970-01-01T00:00:01.000Z</time></trkpt>
			<trkpt lat="44.880526" lon="34.636912"><time>1970-01-01T00:00:01.000Z</time></trkpt>
			<trkpt lat="44.880398" lon="34.637642"><time>1970-01-01T00:00:01.000Z</time></trkpt>
			<trkpt lat="44.880591" lon="34.638071"><time>1970-01-01T00:00:01.000Z</time></trkpt>
			<trkpt lat="44.880870" lon="34.639916"><time>1970-01-01T00:00:01.000Z</time></trkpt>
			<trkpt lat="44.881449" lon="34.641182"><time>1970-01-01T00:00:01.000Z</time></trkpt>
			<trkpt lat="44.881449" lon="34.642126"><time>1970-01-01T00:00:01.000Z</time></trkpt>
			<trkpt lat="44.881256" lon="34.642856"><time>1970-01-01T00:00:01.000Z</time></trkpt>
			<trkpt lat="44.880505" lon="34.643693"><time>1970-01-01T00:00:01.000Z</time></trkpt>
			<trkpt lat="44.880526" lon="34.643972"><time>1970-01-01T00:00:01.000Z</time></trkpt>
			<trkpt lat="44.880097" lon="34.645817"><time>1970-01-01T00:00:01.000Z</time></trkpt>
			<trkpt lat="44.880033" lon="34.647212"><time>1970-01-01T00:00:01.000Z</time></trkpt>
			<trkpt lat="44.880312" lon="34.647877"><time>1970-01-01T00:00:01.000Z</time></trkpt>
			<trkpt lat="44.880312" lon="34.648349"><time>1970-01-01T00:00:01.000Z</time></trkpt>
			<trkpt lat="44.880226" lon="34.648392"><time>1970-01-01T00:00:01.000Z</time></trkpt>
			<trkpt lat="44.880011" lon="34.648220"><time>1970-01-01T00:00:01.000Z</time></trkpt>
			<trkpt lat="44.879926" lon="34.648220"><time>1970-01-01T00:00:01.000Z</time></trkpt>
			<trkpt lat="44.879775" lon="34.648349"><time>1970-01-01T00:00:01.000Z</time></trkpt>
			<trkpt lat="44.879475" lon="34.648006"><time>1970-01-01T00:00:01.000Z</time></trkpt>
			<trkpt lat="44.878702" lon="34.646740"><time>1970-01-01T00:00:01.000Z</time></trkpt>
			<trkpt lat="44.878488" lon="34.646568"><time>1970-01-01T00:00:01.000Z</time></trkpt>
			<trkpt lat="44.878402" lon="34.646654"><time>1970-01-01T00:00:01.000Z</time></trkpt>
			<trkpt lat="44.877973" lon="34.648070"><time>1970-01-01T00:00:01.000Z</time></trkpt>
			<trkpt lat="44.877823" lon="34.649121"><time>1970-01-01T00:00:01.000Z</time></trkpt>
			<trkpt lat="44.877436" lon="34.650108"><time>1970-01-01T00:00:01.000Z</time></trkpt>
			<trkpt lat="44.877372" lon="34.650602"><time>1970-01-01T00:00:01.000Z</time></trkpt>
			<trkpt lat="44.877265" lon="34.650924"><time>1970-01-01T00:00:01.000Z</time></trkpt>
			<trkpt lat="44.877265" lon="34.651224"><time>1970-01-01T00:00:01.000Z</time></trkpt>
			<trkpt lat="44.877179" lon="34.651160"><time>1970-01-01T00:00:01.000Z</time></trkpt>
			<trkpt lat="44.876771" lon="34.651267"><time>1970-01-01T00:00:01.000Z</time></trkpt>
			<trkpt lat="44.876299" lon="34.651332"><time>1970-01-01T00:00:01.000Z</time></trkpt>
			<trkpt lat="44.875784" lon="34.651160"><time>1970-01-01T00:00:01.000Z</time></trkpt>
			<trkpt lat="44.875505" lon="34.650860"><time>1970-01-01T00:00:01.000Z</time></trkpt>
			<trkpt lat="44.875462" lon="34.650666"><time>1970-01-01T00:00:01.000Z</time></trkpt>
			<trkpt lat="44.875334" lon="34.650430"><time>1970-01-01T00:00:01.000Z</time></trkpt>
			<trkpt lat="44.875055" lon="34.650194"><time>1970-01-01T00:00:01.000Z</time></trkpt>
			<trkpt lat="44.874883" lon="34.650151"><time>1970-01-01T00:00:01.000Z</time></trkpt>
			<trkpt lat="44.874561" lon="34.650216"><time>1970-01-01T00:00:01.000Z</time></trkpt>
			<trkpt lat="44.874625" lon="34.650087"><time>1970-01-01T00:00:01.000Z</time></trkpt>
			<trkpt lat="44.874625" lon="34.650173"><time>1970-01-01T00:00:01.000Z</time></trkpt>
			<trkpt lat="44.874518" lon="34.650237"><time>1970-01-01T00:00:01.000Z</time></trkpt>
			<trkpt lat="44.874497" lon="34.650194"><time>1970-01-01T00:00:01.000Z</time></trkpt>
			<trkpt lat="44.874497" lon="34.650259"><time>1970-01-01T00:00:01.000Z</time></trkpt>
			<trkpt lat="44.874497" lon="34.650151"><time>1970-01-01T00:00:01.000Z</time></trkpt>
			<trkpt lat="44.874411" lon="34.650237"><time>1970-01-01T00:00:01.000Z</time></trkpt>
			<trkpt lat="44.874497" lon="34.650173"><time>1970-01-01T00:00:01.000Z</time></trkpt>
			<trkpt lat="44.874518" lon="34.650087"><time>1970-01-01T00:00:01.000Z</time></trkpt>
			<trkpt lat="44.874583" lon="34.650173"><time>1970-01-01T00:00:01.000Z</time></trkpt>
			<trkpt lat="44.874561" lon="34.650108"><time>1970-01-01T00:00:01.000Z</time></trkpt>
			<trkpt lat="44.874411" lon="34.650108"><time>1970-01-01T00:00:01.000Z</time></trkpt>
			<trkpt lat="44.874475" lon="34.650001"><time>1970-01-01T00:00:01.000Z</time></trkpt>
			<trkpt lat="44.874497" lon="34.650044"><time>1970-01-01T00:00:01.000Z</time></trkpt>
			<trkpt lat="44.874454" lon="34.650001"><time>1970-01-01T00:00:01.000Z</time></trkpt>
			<trkpt lat="44.874411" lon="34.650130"><time>1970-01-01T00:00:01.000Z</time></trkpt>
			<trkpt lat="44.874411" lon="34.650087"><time>1970-01-01T00:00:01.000Z</time></trkpt>
			<trkpt lat="44.874454" lon="34.650108"><time>1970-01-01T00:00:01.000Z</time></trkpt>
			<trkpt lat="44.874411" lon="34.650066"><time>1970-01-01T00:00:01.000Z</time></trkpt>
			<trkpt lat="44.874475" lon="34.650108"><time>1970-01-01T00:00:01.000Z</time></trkpt>
			<trkpt lat="44.874432" lon="34.650023"><time>1970-01-01T00:00:01.000Z</time></trkpt>
			<trkpt lat="44.874261" lon="34.649937"><time>1970-01-01T00:00:01.000Z</time></trkpt>
			<trkpt lat="44.874046" lon="34.649615"><time>1970-01-01T00:00:01.000Z</time></trkpt>
			<trkpt lat="44.873789" lon="34.649315"><time>1970-01-01T00:00:01.000Z</time></trkpt>
			<trkpt lat="44.873617" lon="34.649293"><time>1970-01-01T00:00:01.000Z</time></trkpt>
			<trkpt lat="44.873445" lon="34.648971"><time>1970-01-01T00:00:01.000Z</time></trkpt>
			<trkpt lat="44.873231" lon="34.648714"><time>1970-01-01T00:00:01.000Z</time></trkpt>
			<trkpt lat="44.872973" lon="34.647834"><time>1970-01-01T00:00:01.000Z</time></trkpt>
			<trkpt lat="44.872780" lon="34.647469"><time>1970-01-01T00:00:01.000Z</time></trkpt>
			<trkpt lat="44.872802" lon="34.647255"><time>1970-01-01T00:00:01.000Z</time></trkpt>
			<trkpt lat="44.872737" lon="34.647190"><time>1970-01-01T00:00:01.000Z</time></trkpt>
			<trkpt lat="44.872694" lon="34.647212"><time>1970-01-01T00:00:01.000Z</time></trkpt>
			<trkpt lat="44.872372" lon="34.646740"><time>1970-01-01T00:00:01.000Z</time></trkpt>
			<trkpt lat="44.872029" lon="34.646611"><time>1970-01-01T00:00:01.000Z</time></trkpt>
			<trkpt lat="44.871772" lon="34.646632"><time>1970-01-01T00:00:01.000Z</time></trkpt>
			<trkpt lat="44.871729" lon="34.646697"><time>1970-01-01T00:00:01.000Z</time></trkpt>
			<trkpt lat="44.871514" lon="34.646547"><time>1970-01-01T00:00:01.000Z</time></trkpt>
			<trkpt lat="44.871342" lon="34.646182"><time>1970-01-01T00:00:01.000Z</time></trkpt>
			<trkpt lat="44.871128" lon="34.645967"><time>1970-01-01T00:00:01.000Z</time></trkpt>
			<trkpt lat="44.871085" lon="34.645881"><time>1970-01-01T00:00:01.000Z</time></trkpt>
			<trkpt lat="44.871042" lon="34.645881"><time>1970-01-01T00:00:01.000Z</time></trkpt>
			<trkpt lat="44.870999" lon="34.645774"><time>1970-01-01T00:00:01.000Z</time></trkpt>
			<trkpt lat="44.870677" lon="34.645388"><time>1970-01-01T00:00:01.000Z</time></trkpt>
			<trkpt lat="44.870613" lon="34.645087"><time>1970-01-01T00:00:01.000Z</time></trkpt>
			<trkpt lat="44.870591" lon="34.644637"><time>1970-01-01T00:00:01.000Z</time></trkpt>
			<trkpt lat="44.870441" lon="34.644143"><time>1970-01-01T00:00:01.000Z</time></trkpt>
			<trkpt lat="44.870334" lon="34.644079"><time>1970-01-01T00:00:01.000Z</time></trkpt>
			<trkpt lat="44.870205" lon="34.643821"><time>1970-01-01T00:00:01.000Z</time></trkpt>
			<trkpt lat="44.870227" lon="34.643542"><time>1970-01-01T00:00:01.000Z</time></trkpt>
			<trkpt lat="44.870184" lon="34.643457"><time>1970-01-01T00:00:01.000Z</time></trkpt>
			<trkpt lat="44.870119" lon="34.643457"><time>1970-01-01T00:00:01.000Z</time></trkpt>
			<trkpt lat="44.870055" lon="34.643392"><time>1970-01-01T00:00:01.000Z</time></trkpt>
			<trkpt lat="44.870076" lon="34.642920"><time>1970-01-01T00:00:01.000Z</time></trkpt>
			<trkpt lat="44.870012" lon="34.643006"><time>1970-01-01T00:00:01.000Z</time></trkpt>
			<trkpt lat="44.869926" lon="34.642577"><time>1970-01-01T00:00:01.000Z</time></trkpt>
			<trkpt lat="44.869883" lon="34.642126"><time>1970-01-01T00:00:01.000Z</time></trkpt>
			<trkpt lat="44.869669" lon="34.641590"><time>1970-01-01T00:00:01.000Z</time></trkpt>
			<trkpt lat="44.869604" lon="34.641483"><time>1970-01-01T00:00:01.000Z</time></trkpt>
			<trkpt lat="44.869368" lon="34.641268"><time>1970-01-01T00:00:01.000Z</time></trkpt>
			<trkpt lat="44.869089" lon="34.641096"><time>1970-01-01T00:00:01.000Z</time></trkpt>
			<trkpt lat="44.868596" lon="34.640345"><time>1970-01-01T00:00:01.000Z</time></trkpt>
			<trkpt lat="44.867974" lon="34.639594"><time>1970-01-01T00:00:01.000Z</time></trkpt>
			<trkpt lat="44.867845" lon="34.639187"><time>1970-01-01T00:00:01.000Z</time></trkpt>
			<trkpt lat="44.867630" lon="34.638865"><time>1970-01-01T00:00:01.000Z</time></trkpt>
			<trkpt lat="44.867416" lon="34.638672"><time>1970-01-01T00:00:01.000Z</time></trkpt>
			<trkpt lat="44.867008" lon="34.638629"><time>1970-01-01T00:00:01.000Z</time></trkpt>
			<trkpt lat="44.866879" lon="34.638650"><time>1970-01-01T00:00:01.000Z</time></trkpt>
			<trkpt lat="44.866793" lon="34.638478"><time>1970-01-01T00:00:01.000Z</time></trkpt>
			<trkpt lat="44.866729" lon="34.638457"><time>1970-01-01T00:00:01.000Z</time></trkpt>
			<trkpt lat="44.866708" lon="34.638500"><time>1970-01-01T00:00:01.000Z</time></trkpt>
			<trkpt lat="44.866686" lon="34.638457"><time>1970-01-01T00:00:01.000Z</time></trkpt>
			<trkpt lat="44.866708" lon="34.638414"><time>1970-01-01T00:00:01.000Z</time></trkpt>
			<trkpt lat="44.866751" lon="34.638478"><time>1970-01-01T00:00:01.000Z</time></trkpt>
			<trkpt lat="44.866686" lon="34.638478"><time>1970-01-01T00:00:01.000Z</time></trkpt>
			<trkpt lat="44.866708" lon="34.638414"><time>1970-01-01T00:00:01.000Z</time></trkpt>
			<trkpt lat="44.866600" lon="34.638500"><time>1970-01-01T00:00:01.000Z</time></trkpt>
			<trkpt lat="44.866321" lon="34.638564"><time>1970-01-01T00:00:01.000Z</time></trkpt>
			<trkpt lat="44.865742" lon="34.638500"><time>1970-01-01T00:00:01.000Z</time></trkpt>
			<trkpt lat="44.865592" lon="34.638521"><time>1970-01-01T00:00:01.000Z</time></trkpt>
			<trkpt lat="44.865485" lon="34.638478"><time>1970-01-01T00:00:01.000Z</time></trkpt>
			<trkpt lat="44.865356" lon="34.638285"><time>1970-01-01T00:00:01.000Z</time></trkpt>
			<trkpt lat="44.865227" lon="34.638178"><time>1970-01-01T00:00:01.000Z</time></trkpt>
			<trkpt lat="44.864798" lon="34.638221"><time>1970-01-01T00:00:01.000Z</time></trkpt>
			<trkpt lat="44.864734" lon="34.638135"><time>1970-01-01T00:00:01.000Z</time></trkpt>
			<trkpt lat="44.864648" lon="34.638157"><time>1970-01-01T00:00:01.000Z</time></trkpt>
			<trkpt lat="44.864605" lon="34.638135"><time>1970-01-01T00:00:01.000Z</time></trkpt>
			<trkpt lat="44.864691" lon="34.637921"><time>1970-01-01T00:00:01.000Z</time></trkpt>
			<trkpt lat="44.864648" lon="34.637878"><time>1970-01-01T00:00:01.000Z</time></trkpt>
			<trkpt lat="44.864669" lon="34.637749"><time>1970-01-01T00:00:01.000Z</time></trkpt>
			<trkpt lat="44.864583" lon="34.637427"><time>1970-01-01T00:00:01.000Z</time></trkpt>
			<trkpt lat="44.864347" lon="34.637212"><time>1970-01-01T00:00:01.000Z</time></trkpt>
			<trkpt lat="44.864283" lon="34.636933"><time>1970-01-01T00:00:01.000Z</time></trkpt>
			<trkpt lat="44.864154" lon="34.636826"><time>1970-01-01T00:00:01.000Z</time></trkpt>
			<trkpt lat="44.864111" lon="34.636740"><time>1970-01-01T00:00:01.000Z</time></trkpt>
			<trkpt lat="44.864090" lon="34.636547"><time>1970-01-01T00:00:01.000Z</time></trkpt>
			<trkpt lat="44.864004" lon="34.636418"><time>1970-01-01T00:00:01.000Z</time></trkpt>
			<trkpt lat="44.863961" lon="34.636204"><time>1970-01-01T00:00:01.000Z</time></trkpt>
			<trkpt lat="44.863854" lon="34.636097"><time>1970-01-01T00:00:01.000Z</time></trkpt>
			<trkpt lat="44.863854" lon="34.636011"><time>1970-01-01T00:00:01.000Z</time></trkpt>
			<trkpt lat="44.863832" lon="34.636032"><time>1970-01-01T00:00:01.000Z</time></trkpt>
			<trkpt lat="44.863682" lon="34.635904"><time>1970-01-01T00:00:01.000Z</time></trkpt>
			<trkpt lat="44.863553" lon="34.635710"><time>1970-01-01T00:00:01.000Z</time></trkpt>
			<trkpt lat="44.863532" lon="34.635753"><time>1970-01-01T00:00:01.000Z</time></trkpt>
			<trkpt lat="44.863253" lon="34.635625"><time>1970-01-01T00:00:01.000Z</time></trkpt>
			<trkpt lat="44.863146" lon="34.635517"><time>1970-01-01T00:00:01.000Z</time></trkpt>
			<trkpt lat="44.863124" lon="34.635667"><time>1970-01-01T00:00:01.000Z</time></trkpt>
			<trkpt lat="44.863146" lon="34.635410"><time>1970-01-01T00:00:01.000Z</time></trkpt>
			<trkpt lat="44.863017" lon="34.635088"><time>1970-01-01T00:00:01.000Z</time></trkpt>
			<trkpt lat="44.863017" lon="34.634874"><time>1970-01-01T00:00:01.000Z</time></trkpt>
			<trkpt lat="44.863060" lon="34.634745"><time>1970-01-01T00:00:01.000Z</time></trkpt>
			<trkpt lat="44.862738" lon="34.633972"><time>1970-01-01T00:00:01.000Z</time></trkpt>
			<trkpt lat="44.862502" lon="34.633951"><time>1970-01-01T00:00:01.000Z</time></trkpt>
			<trkpt lat="44.862459" lon="34.633908"><time>1970-01-01T00:00:01.000Z</time></trkpt>
			<trkpt lat="44.862566" lon="34.633908"><time>1970-01-01T00:00:01.000Z</time></trkpt>
			<trkpt lat="44.862545" lon="34.633243"><time>1970-01-01T00:00:01.000Z</time></trkpt>
			<trkpt lat="44.862631" lon="34.632556"><time>1970-01-01T00:00:01.000Z</time></trkpt>
			<trkpt lat="44.862588" lon="34.631955"><time>1970-01-01T00:00:01.000Z</time></trkpt>
			<trkpt lat="44.862652" lon="34.631269"><time>1970-01-01T00:00:01.000Z</time></trkpt>
			<trkpt lat="44.862695" lon="34.631076"><time>1970-01-01T00:00:01.000Z</time></trkpt>
			<trkpt lat="44.862802" lon="34.631011"><time>1970-01-01T00:00:01.000Z</time></trkpt>
			<trkpt lat="44.862867" lon="34.630882"><time>1970-01-01T00:00:01.000Z</time></trkpt>
			<trkpt lat="44.862459" lon="34.629337"><time>1970-01-01T00:00:01.000Z</time></trkpt>
			<trkpt lat="44.862309" lon="34.628694"><time>1970-01-01T00:00:01.000Z</time></trkpt>
			<trkpt lat="44.862309" lon="34.628522"><time>1970-01-01T00:00:01.000Z</time></trkpt>
			<trkpt lat="44.862223" lon="34.628372"><time>1970-01-01T00:00:01.000Z</time></trkpt>
			<trkpt lat="44.862159" lon="34.628114"><time>1970-01-01T00:00:01.000Z</time></trkpt>
			<trkpt lat="44.862159" lon="34.627621"><time>1970-01-01T00:00:01.000Z</time></trkpt>
			<trkpt lat="44.862094" lon="34.627256"><time>1970-01-01T00:00:01.000Z</time></trkpt>
			<trkpt lat="44.862094" lon="34.626934"><time>1970-01-01T00:00:01.000Z</time></trkpt>
			<trkpt lat="44.862051" lon="34.626848"><time>1970-01-01T00:00:01.000Z</time></trkpt>
			<trkpt lat="44.862137" lon="34.626290"><time>1970-01-01T00:00:01.000Z</time></trkpt>
			<trkpt lat="44.862073" lon="34.626097"><time>1970-01-01T00:00:01.000Z</time></trkpt>
			<trkpt lat="44.861858" lon="34.625840"><time>1970-01-01T00:00:01.000Z</time></trkpt>
			<trkpt lat="44.861579" lon="34.625368"><time>1970-01-01T00:00:01.000Z</time></trkpt>
			<trkpt lat="44.861558" lon="34.625132"><time>1970-01-01T00:00:01.000Z</time></trkpt>
			<trkpt lat="44.861408" lon="34.624574"><time>1970-01-01T00:00:01.000Z</time></trkpt>
			<trkpt lat="44.861236" lon="34.624080"><time>1970-01-01T00:00:01.000Z</time></trkpt>
			<trkpt lat="44.861129" lon="34.623930"><time>1970-01-01T00:00:01.000Z</time></trkpt>
			<trkpt lat="44.861000" lon="34.623265"><time>1970-01-01T00:00:01.000Z</time></trkpt>
			<trkpt lat="44.860742" lon="34.622793"><time>1970-01-01T00:00:01.000Z</time></trkpt>
			<trkpt lat="44.860399" lon="34.621677"><time>1970-01-01T00:00:01.000Z</time></trkpt>
			<trkpt lat="44.860292" lon="34.621441"><time>1970-01-01T00:00:01.000Z</time></trkpt>
			<trkpt lat="44.860356" lon="34.621226"><time>1970-01-01T00:00:01.000Z</time></trkpt>
			<trkpt lat="44.860356" lon="34.620948"><time>1970-01-01T00:00:01.000Z</time></trkpt>
			<trkpt lat="44.859970" lon="34.620132"><time>1970-01-01T00:00:01.000Z</time></trkpt>
			<trkpt lat="44.859906" lon="34.620218"><time>1970-01-01T00:00:01.000Z</time></trkpt>
			<trkpt lat="44.859970" lon="34.620196"><time>1970-01-01T00:00:01.000Z</time></trkpt>
			<trkpt lat="44.859991" lon="34.620132"><time>1970-01-01T00:00:01.000Z</time></trkpt>
			<trkpt lat="44.859884" lon="34.619810"><time>1970-01-01T00:00:01.000Z</time></trkpt>
			<trkpt lat="44.859863" lon="34.619531"><time>1970-01-01T00:00:01.000Z</time></trkpt>
			<trkpt lat="44.859777" lon="34.619231"><time>1970-01-01T00:00:01.000Z</time></trkpt>
			<trkpt lat="44.859798" lon="34.619188"><time>1970-01-01T00:00:01.000Z</time></trkpt>
			<trkpt lat="44.859691" lon="34.618694"><time>1970-01-01T00:00:01.000Z</time></trkpt>
			<trkpt lat="44.859627" lon="34.618029"><time>1970-01-01T00:00:01.000Z</time></trkpt>
			<trkpt lat="44.859391" lon="34.617278"><time>1970-01-01T00:00:01.000Z</time></trkpt>
			<trkpt lat="44.859455" lon="34.616806"><time>1970-01-01T00:00:01.000Z</time></trkpt>
			<trkpt lat="44.859283" lon="34.616441"><time>1970-01-01T00:00:01.000Z</time></trkpt>
			<trkpt lat="44.859305" lon="34.616248"><time>1970-01-01T00:00:01.000Z</time></trkpt>
			<trkpt lat="44.859348" lon="34.616162"><time>1970-01-01T00:00:01.000Z</time></trkpt>
			<trkpt lat="44.859326" lon="34.615969"><time>1970-01-01T00:00:01.000Z</time></trkpt>
			<trkpt lat="44.858940" lon="34.615240"><time>1970-01-01T00:00:01.000Z</time></trkpt>
			<trkpt lat="44.858811" lon="34.614768"><time>1970-01-01T00:00:01.000Z</time></trkpt>
			<trkpt lat="44.858704" lon="34.614768"><time>1970-01-01T00:00:01.000Z</time></trkpt>
			<trkpt lat="44.858532" lon="34.614682"><time>1970-01-01T00:00:01.000Z</time></trkpt>
			<trkpt lat="44.858532" lon="34.614532"><time>1970-01-01T00:00:01.000Z</time></trkpt>
			<trkpt lat="44.858296" lon="34.614360"><time>1970-01-01T00:00:01.000Z</time></trkpt>
			<trkpt lat="44.858318" lon="34.614274"><time>1970-01-01T00:00:01.000Z</time></trkpt>
			<trkpt lat="44.858296" lon="34.614167"><time>1970-01-01T00:00:01.000Z</time></trkpt>
			<trkpt lat="44.858167" lon="34.614124"><time>1970-01-01T00:00:01.000Z</time></trkpt>
			<trkpt lat="44.857931" lon="34.613909"><time>1970-01-01T00:00:01.000Z</time></trkpt>
			<trkpt lat="44.857781" lon="34.613652"><time>1970-01-01T00:00:01.000Z</time></trkpt>
			<trkpt lat="44.857545" lon="34.612922"><time>1970-01-01T00:00:01.000Z</time></trkpt>
			<trkpt lat="44.857588" lon="34.612622"><time>1970-01-01T00:00:01.000Z</time></trkpt>
			<trkpt lat="44.857481" lon="34.612407"><time>1970-01-01T00:00:01.000Z</time></trkpt>
			<trkpt lat="44.857459" lon="34.612193"><time>1970-01-01T00:00:01.000Z</time></trkpt>
			<trkpt lat="44.857245" lon="34.611528"><time>1970-01-01T00:00:01.000Z</time></trkpt>
			<trkpt lat="44.857180" lon="34.611184"><time>1970-01-01T00:00:01.000Z</time></trkpt>
			<trkpt lat="44.857202" lon="34.610970"><time>1970-01-01T00:00:01.000Z</time></trkpt>
			<trkpt lat="44.857137" lon="34.610862"><time>1970-01-01T00:00:01.000Z</time></trkpt>
			<trkpt lat="44.857202" lon="34.610605"><time>1970-01-01T00:00:01.000Z</time></trkpt>
			<trkpt lat="44.857009" lon="34.609704"><time>1970-01-01T00:00:01.000Z</time></trkpt>
			<trkpt lat="44.856944" lon="34.609553"><time>1970-01-01T00:00:01.000Z</time></trkpt>
			<trkpt lat="44.856880" lon="34.609511"><time>1970-01-01T00:00:01.000Z</time></trkpt>
			<trkpt lat="44.856880" lon="34.609317"><time>1970-01-01T00:00:01.000Z</time></trkpt>
			<trkpt lat="44.856794" lon="34.609146"><time>1970-01-01T00:00:01.000Z</time></trkpt>
			<trkpt lat="44.856708" lon="34.608609"><time>1970-01-01T00:00:01.000Z</time></trkpt>
			<trkpt lat="44.856708" lon="34.608352"><time>1970-01-01T00:00:01.000Z</time></trkpt>
			<trkpt lat="44.856601" lon="34.607815"><time>1970-01-01T00:00:01.000Z</time></trkpt>
			<trkpt lat="44.856580" lon="34.607429"><time>1970-01-01T00:00:01.000Z</time></trkpt>
			<trkpt lat="44.856601" lon="34.607086"><time>1970-01-01T00:00:01.000Z</time></trkpt>
			<trkpt lat="44.856687" lon="34.606914"><time>1970-01-01T00:00:01.000Z</time></trkpt>
			<trkpt lat="44.856665" lon="34.606528"><time>1970-01-01T00:00:01.000Z</time></trkpt>
			<trkpt lat="44.856730" lon="34.606142"><time>1970-01-01T00:00:01.000Z</time></trkpt>
			<trkpt lat="44.856687" lon="34.605949"><time>1970-01-01T00:00:01.000Z</time></trkpt>
			<trkpt lat="44.856708" lon="34.605734"><time>1970-01-01T00:00:01.000Z</time></trkpt>
			<trkpt lat="44.856944" lon="34.605798"><time>1970-01-01T00:00:01.000Z</time></trkpt>
			<trkpt lat="44.857052" lon="34.605777"><time>1970-01-01T00:00:01.000Z</time></trkpt>
			<trkpt lat="44.857395" lon="34.606249"><time>1970-01-01T00:00:01.000Z</time></trkpt>
			<trkpt lat="44.857781" lon="34.607000"><time>1970-01-01T00:00:01.000Z</time></trkpt>
			<trkpt lat="44.858060" lon="34.607644"><time>1970-01-01T00:00:01.000Z</time></trkpt>
			<trkpt lat="44.858039" lon="34.607730"><time>1970-01-01T00:00:01.000Z</time></trkpt>
			<trkpt lat="44.858167" lon="34.608180"><time>1970-01-01T00:00:01.000Z</time></trkpt>
			<trkpt lat="44.858403" lon="34.608566"><time>1970-01-01T00:00:01.000Z</time></trkpt>
			<trkpt lat="44.858854" lon="34.609532"><time>1970-01-01T00:00:01.000Z</time></trkpt>
			<trkpt lat="44.858897" lon="34.610111"><time>1970-01-01T00:00:01.000Z</time></trkpt>
			<trkpt lat="44.858833" lon="34.610111"><time>1970-01-01T00:00:01.000Z</time></trkpt>
			<trkpt lat="44.858918" lon="34.610154"><time>1970-01-01T00:00:01.000Z</time></trkpt>
			<trkpt lat="44.859240" lon="34.610798"><time>1970-01-01T00:00:01.000Z</time></trkpt>
			<trkpt lat="44.859562" lon="34.611270"><time>1970-01-01T00:00:01.000Z</time></trkpt>
			<trkpt lat="44.859455" lon="34.611399"><time>1970-01-01T00:00:01.000Z</time></trkpt>
			<trkpt lat="44.859369" lon="34.611592"><time>1970-01-01T00:00:01.000Z</time></trkpt>
			<trkpt lat="44.859455" lon="34.611506"><time>1970-01-01T00:00:01.000Z</time></trkpt>
			<trkpt lat="44.859433" lon="34.611549"><time>1970-01-01T00:00:01.000Z</time></trkpt>
			<trkpt lat="44.859498" lon="34.611334"><time>1970-01-01T00:00:01.000Z</time></trkpt>
			<trkpt lat="44.859798" lon="34.611034"><time>1970-01-01T00:00:01.000Z</time></trkpt>
			<trkpt lat="44.859970" lon="34.611013"><time>1970-01-01T00:00:01.000Z</time></trkpt>
			<trkpt lat="44.860378" lon="34.610712"><time>1970-01-01T00:00:01.000Z</time></trkpt>
			<trkpt lat="44.860421" lon="34.610541"><time>1970-01-01T00:00:01.000Z</time></trkpt>
			<trkpt lat="44.860421" lon="34.609897"><time>1970-01-01T00:00:01.000Z</time></trkpt>
			<trkpt lat="44.860914" lon="34.608266"><time>1970-01-01T00:00:01.000Z</time></trkpt>
			<trkpt lat="44.861021" lon="34.607644"><time>1970-01-01T00:00:01.000Z</time></trkpt>
			<trkpt lat="44.861129" lon="34.607386"><time>1970-01-01T00:00:01.000Z</time></trkpt>
			<trkpt lat="44.861172" lon="34.607086"><time>1970-01-01T00:00:01.000Z</time></trkpt>
			<trkpt lat="44.861193" lon="34.606442"><time>1970-01-01T00:00:01.000Z</time></trkpt>
			<trkpt lat="44.861300" lon="34.606163"><time>1970-01-01T00:00:01.000Z</time></trkpt>
			<trkpt lat="44.861429" lon="34.605348"><time>1970-01-01T00:00:01.000Z</time></trkpt>
			<trkpt lat="44.861365" lon="34.605176"><time>1970-01-01T00:00:01.000Z</time></trkpt>
			<trkpt lat="44.861257" lon="34.604597"><time>1970-01-01T00:00:01.000Z</time></trkpt>
			<trkpt lat="44.861043" lon="34.604168"><time>1970-01-01T00:00:01.000Z</time></trkpt>
			<trkpt lat="44.860571" lon="34.602644"><time>1970-01-01T00:00:01.000Z</time></trkpt>
			<trkpt lat="44.860571" lon="34.601035"><time>1970-01-01T00:00:01.000Z</time></trkpt>
			<trkpt lat="44.860699" lon="34.600455"><time>1970-01-01T00:00:01.000Z</time></trkpt>
			<trkpt lat="44.860657" lon="34.600134"><time>1970-01-01T00:00:01.000Z</time></trkpt>
			<trkpt lat="44.860463" lon="34.599726"><time>1970-01-01T00:00:01.000Z</time></trkpt>
			<trkpt lat="44.859841" lon="34.598009"><time>1970-01-01T00:00:01.000Z</time></trkpt>
			<trkpt lat="44.859498" lon="34.597344"><time>1970-01-01T00:00:01.000Z</time></trkpt>
			<trkpt lat="44.859348" lon="34.596829"><time>1970-01-01T00:00:01.000Z</time></trkpt>
			<trkpt lat="44.859069" lon="34.596250"><time>1970-01-01T00:00:01.000Z</time></trkpt>
			<trkpt lat="44.858897" lon="34.595627"><time>1970-01-01T00:00:01.000Z</time></trkpt>
			<trkpt lat="44.858768" lon="34.595477"><time>1970-01-01T00:00:01.000Z</time></trkpt>
			<trkpt lat="44.858640" lon="34.595391"><time>1970-01-01T00:00:01.000Z</time></trkpt>
			<trkpt lat="44.858060" lon="34.595198"><time>1970-01-01T00:00:01.000Z</time></trkpt>
			<trkpt lat="44.857974" lon="34.594705"><time>1970-01-01T00:00:01.000Z</time></trkpt>
			<trkpt lat="44.857996" lon="34.594404"><time>1970-01-01T00:00:01.000Z</time></trkpt>
			<trkpt lat="44.857931" lon="34.594190"><time>1970-01-01T00:00:01.000Z</time></trkpt>
			<trkpt lat="44.857910" lon="34.593868"><time>1970-01-01T00:00:01.000Z</time></trkpt>
			<trkpt lat="44.857974" lon="34.593782"><time>1970-01-01T00:00:01.000Z</time></trkpt>
			<trkpt lat="44.857738" lon="34.593718"><time>1970-01-01T00:00:01.000Z</time></trkpt>
			<trkpt lat="44.857610" lon="34.593610"><time>1970-01-01T00:00:01.000Z</time></trkpt>
			<trkpt lat="44.857180" lon="34.593074"><time>1970-01-01T00:00:01.000Z</time></trkpt>
			<trkpt lat="44.857095" lon="34.592817"><time>1970-01-01T00:00:01.000Z</time></trkpt>
			<trkpt lat="44.857202" lon="34.592409"><time>1970-01-01T00:00:01.000Z</time></trkpt>
			<trkpt lat="44.857116" lon="34.592259"><time>1970-01-01T00:00:01.000Z</time></trkpt>
			<trkpt lat="44.857009" lon="34.592194"><time>1970-01-01T00:00:01.000Z</time></trkpt>
			<trkpt lat="44.856923" lon="34.591829"><time>1970-01-01T00:00:01.000Z</time></trkpt>
			<trkpt lat="44.856580" lon="34.591357"><time>1970-01-01T00:00:01.000Z</time></trkpt>
			<trkpt lat="44.855700" lon="34.589705"><time>1970-01-01T00:00:01.000Z</time></trkpt>
			<trkpt lat="44.855485" lon="34.588911"><time>1970-01-01T00:00:01.000Z</time></trkpt>
			<trkpt lat="44.855421" lon="34.588525"><time>1970-01-01T00:00:01.000Z</time></trkpt>
			<trkpt lat="44.855292" lon="34.588289"><time>1970-01-01T00:00:01.000Z</time></trkpt>
			<trkpt lat="44.854884" lon="34.587817"><time>1970-01-01T00:00:01.000Z</time></trkpt>
			<trkpt lat="44.854434" lon="34.587474"><time>1970-01-01T00:00:01.000Z</time></trkpt>
			<trkpt lat="44.853983" lon="34.586916"><time>1970-01-01T00:00:01.000Z</time></trkpt>
			<trkpt lat="44.853661" lon="34.586594"><time>1970-01-01T00:00:01.000Z</time></trkpt>
			<trkpt lat="44.853533" lon="34.586508"><time>1970-01-01T00:00:01.000Z</time></trkpt>
			<trkpt lat="44.853039" lon="34.586336"><time>1970-01-01T00:00:01.000Z</time></trkpt>
			<trkpt lat="44.852717" lon="34.586143"><time>1970-01-01T00:00:01.000Z</time></trkpt>
			<trkpt lat="44.852395" lon="34.585778"><time>1970-01-01T00:00:01.000Z</time></trkpt>
			<trkpt lat="44.851880" lon="34.585349"><time>1970-01-01T00:00:01.000Z</time></trkpt>
			<trkpt lat="44.851773" lon="34.584984"><time>1970-01-01T00:00:01.000Z</time></trkpt>
			<trkpt lat="44.851687" lon="34.584427"><time>1970-01-01T00:00:01.000Z</time></trkpt>
			<trkpt lat="44.851494" lon="34.583976"><time>1970-01-01T00:00:01.000Z</time></trkpt>
			<trkpt lat="44.851022" lon="34.583161"><time>1970-01-01T00:00:01.000Z</time></trkpt>
			<trkpt lat="44.850765" lon="34.582839"><time>1970-01-01T00:00:01.000Z</time></trkpt>
			<trkpt lat="44.850400" lon="34.582474"><time>1970-01-01T00:00:01.000Z</time></trkpt>
			<trkpt lat="44.849756" lon="34.581959"><time>1970-01-01T00:00:01.000Z</time></trkpt>
			<trkpt lat="44.849048" lon="34.581079"><time>1970-01-01T00:00:01.000Z</time></trkpt>
			<trkpt lat="44.848898" lon="34.580993"><time>1970-01-01T00:00:01.000Z</time></trkpt>
			<trkpt lat="44.848576" lon="34.580114"><time>1970-01-01T00:00:01.000Z</time></trkpt>
			<trkpt lat="44.848190" lon="34.579363"><time>1970-01-01T00:00:01.000Z</time></trkpt>
			<trkpt lat="44.847632" lon="34.578139"><time>1970-01-01T00:00:01.000Z</time></trkpt>
			<trkpt lat="44.847353" lon="34.577710"><time>1970-01-01T00:00:01.000Z</time></trkpt>
			<trkpt lat="44.847224" lon="34.577582"><time>1970-01-01T00:00:01.000Z</time></trkpt>
			<trkpt lat="44.847246" lon="34.577539"><time>1970-01-01T00:00:01.000Z</time></trkpt>
			<trkpt lat="44.847181" lon="34.577260"><time>1970-01-01T00:00:01.000Z</time></trkpt>
			<trkpt lat="44.847074" lon="34.577088"><time>1970-01-01T00:00:01.000Z</time></trkpt>
			<trkpt lat="44.846731" lon="34.575200"><time>1970-01-01T00:00:01.000Z</time></trkpt>
			<trkpt lat="44.846773" lon="34.574256"><time>1970-01-01T00:00:01.000Z</time></trkpt>
			<trkpt lat="44.846688" lon="34.573354"><time>1970-01-01T00:00:01.000Z</time></trkpt>
			<trkpt lat="44.846688" lon="34.572625"><time>1970-01-01T00:00:01.000Z</time></trkpt>
			<trkpt lat="44.846494" lon="34.571573"><time>1970-01-01T00:00:01.000Z</time></trkpt>
			<trkpt lat="44.846366" lon="34.571230"><time>1970-01-01T00:00:01.000Z</time></trkpt>
			<trkpt lat="44.846022" lon="34.570522"><time>1970-01-01T00:00:01.000Z</time></trkpt>
			<trkpt lat="44.845615" lon="34.569857"><time>1970-01-01T00:00:01.000Z</time></trkpt>
			<trkpt lat="44.845357" lon="34.569084"><time>1970-01-01T00:00:01.000Z</time></trkpt>
			<trkpt lat="44.845271" lon="34.568762"><time>1970-01-01T00:00:01.000Z</time></trkpt>
			<trkpt lat="44.845400" lon="34.568011"><time>1970-01-01T00:00:01.000Z</time></trkpt>
			<trkpt lat="44.845400" lon="34.567411"><time>1970-01-01T00:00:01.000Z</time></trkpt>
			<trkpt lat="44.845164" lon="34.566445"><time>1970-01-01T00:00:01.000Z</time></trkpt>
			<trkpt lat="44.844799" lon="34.565994"><time>1970-01-01T00:00:01.000Z</time></trkpt>
			<trkpt lat="44.844606" lon="34.565501"><time>1970-01-01T00:00:01.000Z</time></trkpt>
			<trkpt lat="44.844563" lon="34.564900"><time>1970-01-01T00:00:01.000Z</time></trkpt>
			<trkpt lat="44.844435" lon="34.564106"><time>1970-01-01T00:00:01.000Z</time></trkpt>
			<trkpt lat="44.844456" lon="34.563033"><time>1970-01-01T00:00:01.000Z</time></trkpt>
			<trkpt lat="44.844799" lon="34.562175"><time>1970-01-01T00:00:01.000Z</time></trkpt>
			<trkpt lat="44.844778" lon="34.561939"><time>1970-01-01T00:00:01.000Z</time></trkpt>
			<trkpt lat="44.844864" lon="34.560566"><time>1970-01-01T00:00:01.000Z</time></trkpt>
			<trkpt lat="44.844864" lon="34.559621"><time>1970-01-01T00:00:01.000Z</time></trkpt>
			<trkpt lat="44.844778" lon="34.558828"><time>1970-01-01T00:00:01.000Z</time></trkpt>
			<trkpt lat="44.844778" lon="34.558291"><time>1970-01-01T00:00:01.000Z</time></trkpt>
			<trkpt lat="44.844799" lon="34.558205"><time>1970-01-01T00:00:01.000Z</time></trkpt>
			<trkpt lat="44.844971" lon="34.557969"><time>1970-01-01T00:00:01.000Z</time></trkpt>
			<trkpt lat="44.845014" lon="34.557755"><time>1970-01-01T00:00:01.000Z</time></trkpt>
			<trkpt lat="44.845014" lon="34.557454"><time>1970-01-01T00:00:01.000Z</time></trkpt>
			<trkpt lat="44.844799" lon="34.556703"><time>1970-01-01T00:00:01.000Z</time></trkpt>
			<trkpt lat="44.844563" lon="34.556060"><time>1970-01-01T00:00:01.000Z</time></trkpt>
			<trkpt lat="44.844327" lon="34.555008"><time>1970-01-01T00:00:01.000Z</time></trkpt>
			<trkpt lat="44.843812" lon="34.553098"><time>1970-01-01T00:00:01.000Z</time></trkpt>
			<trkpt lat="44.843447" lon="34.552004"><time>1970-01-01T00:00:01.000Z</time></trkpt>
			<trkpt lat="44.842911" lon="34.550566"><time>1970-01-01T00:00:01.000Z</time></trkpt>
			<trkpt lat="44.842954" lon="34.550459"><time>1970-01-01T00:00:01.000Z</time></trkpt>
			<trkpt lat="44.842761" lon="34.550137"><time>1970-01-01T00:00:01.000Z</time></trkpt>
			<trkpt lat="44.842074" lon="34.549708"><time>1970-01-01T00:00:01.000Z</time></trkpt>
			<trkpt lat="44.841903" lon="34.549536"><time>1970-01-01T00:00:01.000Z</time></trkpt>
			<trkpt lat="44.841752" lon="34.549257"><time>1970-01-01T00:00:01.000Z</time></trkpt>
			<trkpt lat="44.841452" lon="34.548914"><time>1970-01-01T00:00:01.000Z</time></trkpt>
			<trkpt lat="44.840958" lon="34.547691"><time>1970-01-01T00:00:01.000Z</time></trkpt>
			<trkpt lat="44.840894" lon="34.547476"><time>1970-01-01T00:00:01.000Z</time></trkpt>
			<trkpt lat="44.840894" lon="34.546296"><time>1970-01-01T00:00:01.000Z</time></trkpt>
			<trkpt lat="44.840808" lon="34.545352"><time>1970-01-01T00:00:01.000Z</time></trkpt>
			<trkpt lat="44.840551" lon="34.544129"><time>1970-01-01T00:00:01.000Z</time></trkpt>
			<trkpt lat="44.840293" lon="34.543421"><time>1970-01-01T00:00:01.000Z</time></trkpt>
			<trkpt lat="44.840036" lon="34.543142"><time>1970-01-01T00:00:01.000Z</time></trkpt>
			<trkpt lat="44.839413" lon="34.541833"><time>1970-01-01T00:00:01.000Z</time></trkpt>
			<trkpt lat="44.839220" lon="34.540524"><time>1970-01-01T00:00:01.000Z</time></trkpt>
			<trkpt lat="44.839135" lon="34.540310"><time>1970-01-01T00:00:01.000Z</time></trkpt>
			<trkpt lat="44.838920" lon="34.540095"><time>1970-01-01T00:00:01.000Z</time></trkpt>
			<trkpt lat="44.838791" lon="34.539838"><time>1970-01-01T00:00:01.000Z</time></trkpt>
			<trkpt lat="44.838727" lon="34.538314"><time>1970-01-01T00:00:01.000Z</time></trkpt>
			<trkpt lat="44.838834" lon="34.537434"><time>1970-01-01T00:00:01.000Z</time></trkpt>
			<trkpt lat="44.838684" lon="34.536833"><time>1970-01-01T00:00:01.000Z</time></trkpt>
			<trkpt lat="44.838705" lon="34.536512"><time>1970-01-01T00:00:01.000Z</time></trkpt>
			<trkpt lat="44.838641" lon="34.535975"><time>1970-01-01T00:00:01.000Z</time></trkpt>
			<trkpt lat="44.838748" lon="34.535632"><time>1970-01-01T00:00:01.000Z</time></trkpt>
			<trkpt lat="44.839156" lon="34.535696"><time>1970-01-01T00:00:01.000Z</time></trkpt>
			<trkpt lat="44.839306" lon="34.535675"><time>1970-01-01T00:00:01.000Z</time></trkpt>
			<trkpt lat="44.839392" lon="34.535482"><time>1970-01-01T00:00:01.000Z</time></trkpt>
			<trkpt lat="44.839328" lon="34.534537"><time>1970-01-01T00:00:01.000Z</time></trkpt>
			<trkpt lat="44.839435" lon="34.533443"><time>1970-01-01T00:00:01.000Z</time></trkpt>
			<trkpt lat="44.839156" lon="34.532907"><time>1970-01-01T00:00:01.000Z</time></trkpt>
			<trkpt lat="44.839070" lon="34.532263"><time>1970-01-01T00:00:01.000Z</time></trkpt>
			<trkpt lat="44.839070" lon="34.531812"><time>1970-01-01T00:00:01.000Z</time></trkpt>
			<trkpt lat="44.838684" lon="34.530954"><time>1970-01-01T00:00:01.000Z</time></trkpt>
			<trkpt lat="44.838341" lon="34.530010"><time>1970-01-01T00:00:01.000Z</time></trkpt>
			<trkpt lat="44.838147" lon="34.529645"><time>1970-01-01T00:00:01.000Z</time></trkpt>
			<trkpt lat="44.838083" lon="34.529409"><time>1970-01-01T00:00:01.000Z</time></trkpt>
			<trkpt lat="44.837783" lon="34.528916"><time>1970-01-01T00:00:01.000Z</time></trkpt>
			<trkpt lat="44.837740" lon="34.528401"><time>1970-01-01T00:00:01.000Z</time></trkpt>
			<trkpt lat="44.837675" lon="34.528186"><time>1970-01-01T00:00:01.000Z</time></trkpt>
			<trkpt lat="44.837590" lon="34.527564"><time>1970-01-01T00:00:01.000Z</time></trkpt>
			<trkpt lat="44.837525" lon="34.527392"><time>1970-01-01T00:00:01.000Z</time></trkpt>
			<trkpt lat="44.837418" lon="34.526598"><time>1970-01-01T00:00:01.000Z</time></trkpt>
			<trkpt lat="44.837268" lon="34.526062"><time>1970-01-01T00:00:01.000Z</time></trkpt>
			<trkpt lat="44.837225" lon="34.525633"><time>1970-01-01T00:00:01.000Z</time></trkpt>
			<trkpt lat="44.837053" lon="34.524903"><time>1970-01-01T00:00:01.000Z</time></trkpt>
			<trkpt lat="44.837075" lon="34.524367"><time>1970-01-01T00:00:01.000Z</time></trkpt>
			<trkpt lat="44.837203" lon="34.523894"><time>1970-01-01T00:00:01.000Z</time></trkpt>
			<trkpt lat="44.837332" lon="34.523637"><time>1970-01-01T00:00:01.000Z</time></trkpt>
			<trkpt lat="44.837332" lon="34.523294"><time>1970-01-01T00:00:01.000Z</time></trkpt>
			<trkpt lat="44.837246" lon="34.522886"><time>1970-01-01T00:00:01.000Z</time></trkpt>
			<trkpt lat="44.837053" lon="34.522199"><time>1970-01-01T00:00:01.000Z</time></trkpt>
			<trkpt lat="44.836624" lon="34.521191"><time>1970-01-01T00:00:01.000Z</time></trkpt>
			<trkpt lat="44.836474" lon="34.520611"><time>1970-01-01T00:00:01.000Z</time></trkpt>
			<trkpt lat="44.836366" lon="34.520332"><time>1970-01-01T00:00:01.000Z</time></trkpt>
			<trkpt lat="44.836109" lon="34.520225"><time>1970-01-01T00:00:01.000Z</time></trkpt>
			<trkpt lat="44.835637" lon="34.520096"><time>1970-01-01T00:00:01.000Z</time></trkpt>
			<trkpt lat="44.835637" lon="34.520161"><time>1970-01-01T00:00:01.000Z</time></trkpt>
			<trkpt lat="44.835701" lon="34.519925"><time>1970-01-01T00:00:01.000Z</time></trkpt>
			<trkpt lat="44.835658" lon="34.519753"><time>1970-01-01T00:00:01.000Z</time></trkpt>
			<trkpt lat="44.835401" lon="34.519131"><time>1970-01-01T00:00:01.000Z</time></trkpt>
			<trkpt lat="44.835251" lon="34.518895"><time>1970-01-01T00:00:01.000Z</time></trkpt>
			<trkpt lat="44.835165" lon="34.518380"><time>1970-01-01T00:00:01.000Z</time></trkpt>
			<trkpt lat="44.834822" lon="34.516921"><time>1970-01-01T00:00:01.000Z</time></trkpt>
			<trkpt lat="44.834843" lon="34.516856"><time>1970-01-01T00:00:01.000Z</time></trkpt>
			<trkpt lat="44.834779" lon="34.516577"><time>1970-01-01T00:00:01.000Z</time></trkpt>
			<trkpt lat="44.834779" lon="34.516256"><time>1970-01-01T00:00:01.000Z</time></trkpt>
			<trkpt lat="44.834693" lon="34.515569"><time>1970-01-01T00:00:01.000Z</time></trkpt>
			<trkpt lat="44.834564" lon="34.515118"><time>1970-01-01T00:00:01.000Z</time></trkpt>
			<trkpt lat="44.834543" lon="34.514818"><time>1970-01-01T00:00:01.000Z</time></trkpt>
			<trkpt lat="44.834650" lon="34.514625"><time>1970-01-01T00:00:01.000Z</time></trkpt>
			<trkpt lat="44.834671" lon="34.514496"><time>1970-01-01T00:00:01.000Z</time></trkpt>
			<trkpt lat="44.834500" lon="34.514217"><time>1970-01-01T00:00:01.000Z</time></trkpt>
			<trkpt lat="44.834478" lon="34.514110"><time>1970-01-01T00:00:01.000Z</time></trkpt>
			<trkpt lat="44.834564" lon="34.514088"><time>1970-01-01T00:00:01.000Z</time></trkpt>
			<trkpt lat="44.834607" lon="34.513852"><time>1970-01-01T00:00:01.000Z</time></trkpt>
			<trkpt lat="44.834693" lon="34.513724"><time>1970-01-01T00:00:01.000Z</time></trkpt>
			<trkpt lat="44.834671" lon="34.513530"><time>1970-01-01T00:00:01.000Z</time></trkpt>
			<trkpt lat="44.834693" lon="34.513359"><time>1970-01-01T00:00:01.000Z</time></trkpt>
			<trkpt lat="44.834736" lon="34.513294"><time>1970-01-01T00:00:01.000Z</time></trkpt>
			<trkpt lat="44.834693" lon="34.513380"><time>1970-01-01T00:00:01.000Z</time></trkpt>
			<trkpt lat="44.834929" lon="34.512908"><time>1970-01-01T00:00:01.000Z</time></trkpt>
			<trkpt lat="44.834736" lon="34.512221"><time>1970-01-01T00:00:01.000Z</time></trkpt>
			<trkpt lat="44.834693" lon="34.511835"><time>1970-01-01T00:00:01.000Z</time></trkpt>
			<trkpt lat="44.834457" lon="34.511084"><time>1970-01-01T00:00:01.000Z</time></trkpt>
			<trkpt lat="44.834500" lon="34.510398"><time>1970-01-01T00:00:01.000Z</time></trkpt>
			<trkpt lat="44.834650" lon="34.509754"><time>1970-01-01T00:00:01.000Z</time></trkpt>
			<trkpt lat="44.834628" lon="34.509046"><time>1970-01-01T00:00:01.000Z</time></trkpt>
			<trkpt lat="44.834779" lon="34.508531"><time>1970-01-01T00:00:01.000Z</time></trkpt>
			<trkpt lat="44.834950" lon="34.507672"><time>1970-01-01T00:00:01.000Z</time></trkpt>
			<trkpt lat="44.835165" lon="34.507115"><time>1970-01-01T00:00:01.000Z</time></trkpt>
			<trkpt lat="44.835336" lon="34.506964"><time>1970-01-01T00:00:01.000Z</time></trkpt>
			<trkpt lat="44.835422" lon="34.506836"><time>1970-01-01T00:00:01.000Z</time></trkpt>
			<trkpt lat="44.835444" lon="34.506621"><time>1970-01-01T00:00:01.000Z</time></trkpt>
			<trkpt lat="44.835229" lon="34.505613"><time>1970-01-01T00:00:01.000Z</time></trkpt>
			<trkpt lat="44.835186" lon="34.505226"><time>1970-01-01T00:00:01.000Z</time></trkpt>
			<trkpt lat="44.835036" lon="34.504733"><time>1970-01-01T00:00:01.000Z</time></trkpt>
			<trkpt lat="44.834929" lon="34.503853"><time>1970-01-01T00:00:01.000Z</time></trkpt>
			<trkpt lat="44.834693" lon="34.503338"><time>1970-01-01T00:00:01.000Z</time></trkpt>
			<trkpt lat="44.834671" lon="34.503081"><time>1970-01-01T00:00:01.000Z</time></trkpt>
			<trkpt lat="44.834757" lon="34.502244"><time>1970-01-01T00:00:01.000Z</time></trkpt>
			<trkpt lat="44.834650" lon="34.501536"><time>1970-01-01T00:00:01.000Z</time></trkpt>
			<trkpt lat="44.834671" lon="34.501235"><time>1970-01-01T00:00:01.000Z</time></trkpt>
			<trkpt lat="44.834757" lon="34.500699"><time>1970-01-01T00:00:01.000Z</time></trkpt>
			<trkpt lat="44.834907" lon="34.500227"><time>1970-01-01T00:00:01.000Z</time></trkpt>
			<trkpt lat="44.835100" lon="34.499304"><time>1970-01-01T00:00:01.000Z</time></trkpt>
			<trkpt lat="44.834950" lon="34.498531"><time>1970-01-01T00:00:01.000Z</time></trkpt>
			<trkpt lat="44.834993" lon="34.498338"><time>1970-01-01T00:00:01.000Z</time></trkpt>
			<trkpt lat="44.835100" lon="34.498210"><time>1970-01-01T00:00:01.000Z</time></trkpt>
			<trkpt lat="44.835465" lon="34.498059"><time>1970-01-01T00:00:01.000Z</time></trkpt>
			<trkpt lat="44.835959" lon="34.497523"><time>1970-01-01T00:00:01.000Z</time></trkpt>
			<trkpt lat="44.836002" lon="34.497416"><time>1970-01-01T00:00:01.000Z</time></trkpt>
			<trkpt lat="44.836023" lon="34.496987"><time>1970-01-01T00:00:01.000Z</time></trkpt>
			<trkpt lat="44.836088" lon="34.496836"><time>1970-01-01T00:00:01.000Z</time></trkpt>
			<trkpt lat="44.836581" lon="34.496278"><time>1970-01-01T00:00:01.000Z</time></trkpt>
			<trkpt lat="44.836645" lon="34.496107"><time>1970-01-01T00:00:01.000Z</time></trkpt>
			<trkpt lat="44.837032" lon="34.495420"><time>1970-01-01T00:00:01.000Z</time></trkpt>
			<trkpt lat="44.837160" lon="34.495077"><time>1970-01-01T00:00:01.000Z</time></trkpt>
			<trkpt lat="44.837268" lon="34.494455"><time>1970-01-01T00:00:01.000Z</time></trkpt>
			<trkpt lat="44.838126" lon="34.493103"><time>1970-01-01T00:00:01.000Z</time></trkpt>
			<trkpt lat="44.838620" lon="34.492459"><time>1970-01-01T00:00:01.000Z</time></trkpt>
			<trkpt lat="44.838920" lon="34.491214"><time>1970-01-01T00:00:01.000Z</time></trkpt>
			<trkpt lat="44.838898" lon="34.491107"><time>1970-01-01T00:00:01.000Z</time></trkpt>
			<trkpt lat="44.839006" lon="34.490893"><time>1970-01-01T00:00:01.000Z</time></trkpt>
			<trkpt lat="44.839049" lon="34.490528"><time>1970-01-01T00:00:01.000Z</time></trkpt>
			<trkpt lat="44.839220" lon="34.490056"><time>1970-01-01T00:00:01.000Z</time></trkpt>
			<trkpt lat="44.839328" lon="34.489498"><time>1970-01-01T00:00:01.000Z</time></trkpt>
			<trkpt lat="44.839456" lon="34.489262"><time>1970-01-01T00:00:01.000Z</time></trkpt>
			<trkpt lat="44.839649" lon="34.488618"><time>1970-01-01T00:00:01.000Z</time></trkpt>
			<trkpt lat="44.839757" lon="34.488489"><time>1970-01-01T00:00:01.000Z</time></trkpt>
			<trkpt lat="44.840057" lon="34.488382"><time>1970-01-01T00:00:01.000Z</time></trkpt>
			<trkpt lat="44.840207" lon="34.488275"><time>1970-01-01T00:00:01.000Z</time></trkpt>
			<trkpt lat="44.840358" lon="34.488232"><time>1970-01-01T00:00:01.000Z</time></trkpt>
			<trkpt lat="44.840551" lon="34.488339"><time>1970-01-01T00:00:01.000Z</time></trkpt>
			<trkpt lat="44.840765" lon="34.488296"><time>1970-01-01T00:00:01.000Z</time></trkpt>
			<trkpt lat="44.841173" lon="34.487846"><time>1970-01-01T00:00:01.000Z</time></trkpt>
			<trkpt lat="44.841237" lon="34.487588"><time>1970-01-01T00:00:01.000Z</time></trkpt>
			<trkpt lat="44.841259" lon="34.487309"><time>1970-01-01T00:00:01.000Z</time></trkpt>
			<trkpt lat="44.841194" lon="34.487030"><time>1970-01-01T00:00:01.000Z</time></trkpt>
			<trkpt lat="44.841173" lon="34.486344"><time>1970-01-01T00:00:01.000Z</time></trkpt>
			<trkpt lat="44.841109" lon="34.485871"><time>1970-01-01T00:00:01.000Z</time></trkpt>
			<trkpt lat="44.841152" lon="34.485635"><time>1970-01-01T00:00:01.000Z</time></trkpt>
			<trkpt lat="44.841087" lon="34.485163"><time>1970-01-01T00:00:01.000Z</time></trkpt>
			<trkpt lat="44.841130" lon="34.484992"><time>1970-01-01T00:00:01.000Z</time></trkpt>
			<trkpt lat="44.841130" lon="34.484241"><time>1970-01-01T00:00:01.000Z</time></trkpt>
			<trkpt lat="44.841538" lon="34.483211"><time>1970-01-01T00:00:01.000Z</time></trkpt>
			<trkpt lat="44.841452" lon="34.483039"><time>1970-01-01T00:00:01.000Z</time></trkpt>
			<trkpt lat="44.841538" lon="34.482717"><time>1970-01-01T00:00:01.000Z</time></trkpt>
			<trkpt lat="44.841430" lon="34.482245"><time>1970-01-01T00:00:01.000Z</time></trkpt>
			<trkpt lat="44.841409" lon="34.481988"><time>1970-01-01T00:00:01.000Z</time></trkpt>
			<trkpt lat="44.841130" lon="34.481859"><time>1970-01-01T00:00:01.000Z</time></trkpt>
			<trkpt lat="44.840722" lon="34.481494"><time>1970-01-01T00:00:01.000Z</time></trkpt>
			<trkpt lat="44.840637" lon="34.480850"><time>1970-01-01T00:00:01.000Z</time></trkpt>
			<trkpt lat="44.840358" lon="34.480185"><time>1970-01-01T00:00:01.000Z</time></trkpt>
			<trkpt lat="44.840186" lon="34.479906"><time>1970-01-01T00:00:01.000Z</time></trkpt>
			<trkpt lat="44.840057" lon="34.479434"><time>1970-01-01T00:00:01.000Z</time></trkpt>
			<trkpt lat="44.840122" lon="34.479370"><time>1970-01-01T00:00:01.000Z</time></trkpt>
			<trkpt lat="44.840036" lon="34.479327"><time>1970-01-01T00:00:01.000Z</time></trkpt>
			<trkpt lat="44.840079" lon="34.479091"><time>1970-01-01T00:00:01.000Z</time></trkpt>
			<trkpt lat="44.840014" lon="34.478748"><time>1970-01-01T00:00:01.000Z</time></trkpt>
			<trkpt lat="44.840036" lon="34.478125"><time>1970-01-01T00:00:01.000Z</time></trkpt>
			<trkpt lat="44.839371" lon="34.477374"><time>1970-01-01T00:00:01.000Z</time></trkpt>
			<trkpt lat="44.839177" lon="34.476280"><time>1970-01-01T00:00:01.000Z</time></trkpt>
			<trkpt lat="44.839220" lon="34.476108"><time>1970-01-01T00:00:01.000Z</time></trkpt>
			<trkpt lat="44.839220" lon="34.475143"><time>1970-01-01T00:00:01.000Z</time></trkpt>
			<trkpt lat="44.839263" lon="34.474821"><time>1970-01-01T00:00:01.000Z</time></trkpt>
			<trkpt lat="44.839285" lon="34.472654"><time>1970-01-01T00:00:01.000Z</time></trkpt>
			<trkpt lat="44.839220" lon="34.472568"><time>1970-01-01T00:00:01.000Z</time></trkpt>
			<trkpt lat="44.838877" lon="34.473040"><time>1970-01-01T00:00:01.000Z</time></trkpt>
			<trkpt lat="44.838577" lon="34.473684"><time>1970-01-01T00:00:01.000Z</time></trkpt>
			<trkpt lat="44.838341" lon="34.474392"><time>1970-01-01T00:00:01.000Z</time></trkpt>
			<trkpt lat="44.838126" lon="34.474821"><time>1970-01-01T00:00:01.000Z</time></trkpt>
			<trkpt lat="44.837826" lon="34.475186"><time>1970-01-01T00:00:01.000Z</time></trkpt>
			<trkpt lat="44.837611" lon="34.475207"><time>1970-01-01T00:00:01.000Z</time></trkpt>
			<trkpt lat="44.837504" lon="34.475014"><time>1970-01-01T00:00:01.000Z</time></trkpt>
			<trkpt lat="44.837418" lon="34.474649"><time>1970-01-01T00:00:01.000Z</time></trkpt>
			<trkpt lat="44.837396" lon="34.474413"><time>1970-01-01T00:00:01.000Z</time></trkpt>
			<trkpt lat="44.837418" lon="34.473812"><time>1970-01-01T00:00:01.000Z</time></trkpt>
			<trkpt lat="44.837375" lon="34.473555"><time>1970-01-01T00:00:01.000Z</time></trkpt>
			<trkpt lat="44.837160" lon="34.473383"><time>1970-01-01T00:00:01.000Z</time></trkpt>
			<trkpt lat="44.837504" lon="34.472804"><time>1970-01-01T00:00:01.000Z</time></trkpt>
			<trkpt lat="44.837611" lon="34.472332"><time>1970-01-01T00:00:01.000Z</time></trkpt>
			<trkpt lat="44.837547" lon="34.472181"><time>1970-01-01T00:00:01.000Z</time></trkpt>
			<trkpt lat="44.837418" lon="34.472203"><time>1970-01-01T00:00:01.000Z</time></trkpt>
			<trkpt lat="44.837289" lon="34.472139"><time>1970-01-01T00:00:01.000Z</time></trkpt>
			<trkpt lat="44.837182" lon="34.471881"><time>1970-01-01T00:00:01.000Z</time></trkpt>
			<trkpt lat="44.837160" lon="34.471666"><time>1970-01-01T00:00:01.000Z</time></trkpt>
			<trkpt lat="44.836989" lon="34.471216"><time>1970-01-01T00:00:01.000Z</time></trkpt>
			<trkpt lat="44.836731" lon="34.470937"><time>1970-01-01T00:00:01.000Z</time></trkpt>
			<trkpt lat="44.836302" lon="34.470701"><time>1970-01-01T00:00:01.000Z</time></trkpt>
			<trkpt lat="44.836152" lon="34.470572"><time>1970-01-01T00:00:01.000Z</time></trkpt>
			<trkpt lat="44.835830" lon="34.470508"><time>1970-01-01T00:00:01.000Z</time></trkpt>
			<trkpt lat="44.835680" lon="34.470551"><time>1970-01-01T00:00:01.000Z</time></trkpt>
			<trkpt lat="44.835573" lon="34.470486"><time>1970-01-01T00:00:01.000Z</time></trkpt>
			<trkpt lat="44.835401" lon="34.470272"><time>1970-01-01T00:00:01.000Z</time></trkpt>
			<trkpt lat="44.835358" lon="34.469757"><time>1970-01-01T00:00:01.000Z</time></trkpt>
			<trkpt lat="44.835851" lon="34.468941"><time>1970-01-01T00:00:01.000Z</time></trkpt>
			<trkpt lat="44.835959" lon="34.468641"><time>1970-01-01T00:00:01.000Z</time></trkpt>
			<trkpt lat="44.834993" lon="34.468941"><time>1970-01-01T00:00:01.000Z</time></trkpt>
			<trkpt lat="44.834607" lon="34.468512"><time>1970-01-01T00:00:01.000Z</time></trkpt>
			<trkpt lat="44.834543" lon="34.467032"><time>1970-01-01T00:00:01.000Z</time></trkpt>
			<trkpt lat="44.834006" lon="34.466281"><time>1970-01-01T00:00:01.000Z</time></trkpt>
			<trkpt lat="44.833684" lon="34.466645"><time>1970-01-01T00:00:01.000Z</time></trkpt>
			<trkpt lat="44.833169" lon="34.466688"><time>1970-01-01T00:00:01.000Z</time></trkpt>
			<trkpt lat="44.833019" lon="34.466710"><time>1970-01-01T00:00:01.000Z</time></trkpt>
			<trkpt lat="44.832912" lon="34.466774"><time>1970-01-01T00:00:01.000Z</time></trkpt>
			<trkpt lat="44.832762" lon="34.466774"><time>1970-01-01T00:00:01.000Z</time></trkpt>
			<trkpt lat="44.832547" lon="34.466452"><time>1970-01-01T00:00:01.000Z</time></trkpt>
			<trkpt lat="44.832611" lon="34.466238"><time>1970-01-01T00:00:01.000Z</time></trkpt>
			<trkpt lat="44.832676" lon="34.465487"><time>1970-01-01T00:00:01.000Z</time></trkpt>
			<trkpt lat="44.832590" lon="34.465165"><time>1970-01-01T00:00:01.000Z</time></trkpt>
			<trkpt lat="44.832740" lon="34.464800"><time>1970-01-01T00:00:01.000Z</time></trkpt>
			<trkpt lat="44.832740" lon="34.464564"><time>1970-01-01T00:00:01.000Z</time></trkpt>
			<trkpt lat="44.832697" lon="34.464392"><time>1970-01-01T00:00:01.000Z</time></trkpt>
			<trkpt lat="44.832375" lon="34.463770"><time>1970-01-01T00:00:01.000Z</time></trkpt>
			<trkpt lat="44.832311" lon="34.463555"><time>1970-01-01T00:00:01.000Z</time></trkpt>
			<trkpt lat="44.832204" lon="34.463427"><time>1970-01-01T00:00:01.000Z</time></trkpt>
			<trkpt lat="44.832182" lon="34.463169"><time>1970-01-01T00:00:01.000Z</time></trkpt>
			<trkpt lat="44.832075" lon="34.462933"><time>1970-01-01T00:00:01.000Z</time></trkpt>
			<trkpt lat="44.832011" lon="34.462826"><time>1970-01-01T00:00:01.000Z</time></trkpt>
			<trkpt lat="44.831667" lon="34.462568"><time>1970-01-01T00:00:01.000Z</time></trkpt>
			<trkpt lat="44.831453" lon="34.462225"><time>1970-01-01T00:00:01.000Z</time></trkpt>
			<trkpt lat="44.830830" lon="34.461796"><time>1970-01-01T00:00:01.000Z</time></trkpt>
			<trkpt lat="44.830723" lon="34.461624"><time>1970-01-01T00:00:01.000Z</time></trkpt>
			<trkpt lat="44.830637" lon="34.461302"><time>1970-01-01T00:00:01.000Z</time></trkpt>
			<trkpt lat="44.830444" lon="34.461045"><time>1970-01-01T00:00:01.000Z</time></trkpt>
			<trkpt lat="44.830230" lon="34.460423"><time>1970-01-01T00:00:01.000Z</time></trkpt>
			<trkpt lat="44.829972" lon="34.460036"><time>1970-01-01T00:00:01.000Z</time></trkpt>
			<trkpt lat="44.829715" lon="34.459951"><time>1970-01-01T00:00:01.000Z</time></trkpt>
			<trkpt lat="44.829371" lon="34.459908"><time>1970-01-01T00:00:01.000Z</time></trkpt>
			<trkpt lat="44.829071" lon="34.459736"><time>1970-01-01T00:00:01.000Z</time></trkpt>
			<trkpt lat="44.828899" lon="34.459479"><time>1970-01-01T00:00:01.000Z</time></trkpt>
			<trkpt lat="44.828813" lon="34.459200"><time>1970-01-01T00:00:01.000Z</time></trkpt>
			<trkpt lat="44.828728" lon="34.459114"><time>1970-01-01T00:00:01.000Z</time></trkpt>
			<trkpt lat="44.828685" lon="34.458942"><time>1970-01-01T00:00:01.000Z</time></trkpt>
			<trkpt lat="44.828749" lon="34.458642"><time>1970-01-01T00:00:01.000Z</time></trkpt>
			<trkpt lat="44.828513" lon="34.457676"><time>1970-01-01T00:00:01.000Z</time></trkpt>
			<trkpt lat="44.828298" lon="34.457504"><time>1970-01-01T00:00:01.000Z</time></trkpt>
			<trkpt lat="44.827783" lon="34.456882"><time>1970-01-01T00:00:01.000Z</time></trkpt>
			<trkpt lat="44.827419" lon="34.456324"><time>1970-01-01T00:00:01.000Z</time></trkpt>
			<trkpt lat="44.827097" lon="34.456045"><time>1970-01-01T00:00:01.000Z</time></trkpt>
			<trkpt lat="44.826560" lon="34.455809"><time>1970-01-01T00:00:01.000Z</time></trkpt>
			<trkpt lat="44.826067" lon="34.455402"><time>1970-01-01T00:00:01.000Z</time></trkpt>
			<trkpt lat="44.825981" lon="34.455144"><time>1970-01-01T00:00:01.000Z</time></trkpt>
			<trkpt lat="44.826002" lon="34.454951"><time>1970-01-01T00:00:01.000Z</time></trkpt>
			<trkpt lat="44.826088" lon="34.454715"><time>1970-01-01T00:00:01.000Z</time></trkpt>
			<trkpt lat="44.826045" lon="34.453599"><time>1970-01-01T00:00:01.000Z</time></trkpt>
			<trkpt lat="44.826174" lon="34.452805"><time>1970-01-01T00:00:01.000Z</time></trkpt>
			<trkpt lat="44.826389" lon="34.452119"><time>1970-01-01T00:00:01.000Z</time></trkpt>
			<trkpt lat="44.826796" lon="34.451239"><time>1970-01-01T00:00:01.000Z</time></trkpt>
			<trkpt lat="44.827118" lon="34.450938"><time>1970-01-01T00:00:01.000Z</time></trkpt>
			<trkpt lat="44.827161" lon="34.450745"><time>1970-01-01T00:00:01.000Z</time></trkpt>
			<trkpt lat="44.827032" lon="34.450617"><time>1970-01-01T00:00:01.000Z</time></trkpt>
			<trkpt lat="44.826989" lon="34.450617"><time>1970-01-01T00:00:01.000Z</time></trkpt>
			<trkpt lat="44.826732" lon="34.450681"><time>1970-01-01T00:00:01.000Z</time></trkpt>
			<trkpt lat="44.826582" lon="34.450831"><time>1970-01-01T00:00:01.000Z</time></trkpt>
			<trkpt lat="44.826174" lon="34.450724"><time>1970-01-01T00:00:01.000Z</time></trkpt>
			<trkpt lat="44.825981" lon="34.450767"><time>1970-01-01T00:00:01.000Z</time></trkpt>
			<trkpt lat="44.825809" lon="34.450853"><time>1970-01-01T00:00:01.000Z</time></trkpt>
			<trkpt lat="44.825530" lon="34.450895"><time>1970-01-01T00:00:01.000Z</time></trkpt>
			<trkpt lat="44.825359" lon="34.450810"><time>1970-01-01T00:00:01.000Z</time></trkpt>
			<trkpt lat="44.825144" lon="34.450638"><time>1970-01-01T00:00:01.000Z</time></trkpt>
			<trkpt lat="44.825101" lon="34.450509"><time>1970-01-01T00:00:01.000Z</time></trkpt>
			<trkpt lat="44.825123" lon="34.450316"><time>1970-01-01T00:00:01.000Z</time></trkpt>
			<trkpt lat="44.825294" lon="34.449865"><time>1970-01-01T00:00:01.000Z</time></trkpt>
			<trkpt lat="44.825509" lon="34.449608"><time>1970-01-01T00:00:01.000Z</time></trkpt>
			<trkpt lat="44.825552" lon="34.449308"><time>1970-01-01T00:00:01.000Z</time></trkpt>
			<trkpt lat="44.825423" lon="34.449157"><time>1970-01-01T00:00:01.000Z</time></trkpt>
			<trkpt lat="44.825316" lon="34.449179"><time>1970-01-01T00:00:01.000Z</time></trkpt>
			<trkpt lat="44.825144" lon="34.448986"><time>1970-01-01T00:00:01.000Z</time></trkpt>
			<trkpt lat="44.825015" lon="34.448793"><time>1970-01-01T00:00:01.000Z</time></trkpt>
			<trkpt lat="44.824972" lon="34.448642"><time>1970-01-01T00:00:01.000Z</time></trkpt>
			<trkpt lat="44.824908" lon="34.448127"><time>1970-01-01T00:00:01.000Z</time></trkpt>
			<trkpt lat="44.824887" lon="34.447355"><time>1970-01-01T00:00:01.000Z</time></trkpt>
			<trkpt lat="44.824672" lon="34.446969"><time>1970-01-01T00:00:01.000Z</time></trkpt>
			<trkpt lat="44.824715" lon="34.446389"><time>1970-01-01T00:00:01.000Z</time></trkpt>
			<trkpt lat="44.824651" lon="34.445917"><time>1970-01-01T00:00:01.000Z</time></trkpt>
			<trkpt lat="44.824715" lon="34.445638"><time>1970-01-01T00:00:01.000Z</time></trkpt>
			<trkpt lat="44.824672" lon="34.445424"><time>1970-01-01T00:00:01.000Z</time></trkpt>
			<trkpt lat="44.824565" lon="34.445188"><time>1970-01-01T00:00:01.000Z</time></trkpt>
			<trkpt lat="44.824500" lon="34.445123"><time>1970-01-01T00:00:01.000Z</time></trkpt>
			<trkpt lat="44.824028" lon="34.445038"><time>1970-01-01T00:00:01.000Z</time></trkpt>
			<trkpt lat="44.823578" lon="34.445209"><time>1970-01-01T00:00:01.000Z</time></trkpt>
			<trkpt lat="44.823170" lon="34.445231"><time>1970-01-01T00:00:01.000Z</time></trkpt>
			<trkpt lat="44.822870" lon="34.445381"><time>1970-01-01T00:00:01.000Z</time></trkpt>
			<trkpt lat="44.822634" lon="34.445402"><time>1970-01-01T00:00:01.000Z</time></trkpt>
			<trkpt lat="44.822612" lon="34.445445"><time>1970-01-01T00:00:01.000Z</time></trkpt>
			<trkpt lat="44.822548" lon="34.445402"><time>1970-01-01T00:00:01.000Z</time></trkpt>
			<trkpt lat="44.822226" lon="34.445359"><time>1970-01-01T00:00:01.000Z</time></trkpt>
			<trkpt lat="44.822119" lon="34.445295"><time>1970-01-01T00:00:01.000Z</time></trkpt>
			<trkpt lat="44.821904" lon="34.444952"><time>1970-01-01T00:00:01.000Z</time></trkpt>
			<trkpt lat="44.821689" lon="34.443814"><time>1970-01-01T00:00:01.000Z</time></trkpt>
			<trkpt lat="44.821840" lon="34.442613"><time>1970-01-01T00:00:01.000Z</time></trkpt>
			<trkpt lat="44.821840" lon="34.442184"><time>1970-01-01T00:00:01.000Z</time></trkpt>
			<trkpt lat="44.821539" lon="34.440832"><time>1970-01-01T00:00:01.000Z</time></trkpt>
			<trkpt lat="44.821110" lon="34.439373"><time>1970-01-01T00:00:01.000Z</time></trkpt>
			<trkpt lat="44.821003" lon="34.438193"><time>1970-01-01T00:00:01.000Z</time></trkpt>
			<trkpt lat="44.821110" lon="34.437828"><time>1970-01-01T00:00:01.000Z</time></trkpt>
			<trkpt lat="44.821260" lon="34.437720"><time>1970-01-01T00:00:01.000Z</time></trkpt>
			<trkpt lat="44.821561" lon="34.437635"><time>1970-01-01T00:00:01.000Z</time></trkpt>
			<trkpt lat="44.821990" lon="34.437635"><time>1970-01-01T00:00:01.000Z</time></trkpt>
			<trkpt lat="44.822119" lon="34.437506"><time>1970-01-01T00:00:01.000Z</time></trkpt>
			<trkpt lat="44.822312" lon="34.437077"><time>1970-01-01T00:00:01.000Z</time></trkpt>
			<trkpt lat="44.822440" lon="34.436326"><time>1970-01-01T00:00:01.000Z</time></trkpt>
			<trkpt lat="44.822440" lon="34.436025"><time>1970-01-01T00:00:01.000Z</time></trkpt>
			<trkpt lat="44.822033" lon="34.435081"><time>1970-01-01T00:00:01.000Z</time></trkpt>
			<trkpt lat="44.821968" lon="34.434523"><time>1970-01-01T00:00:01.000Z</time></trkpt>
			<trkpt lat="44.821861" lon="34.434223"><time>1970-01-01T00:00:01.000Z</time></trkpt>
			<trkpt lat="44.821282" lon="34.433257"><time>1970-01-01T00:00:01.000Z</time></trkpt>
			<trkpt lat="44.821132" lon="34.432764"><time>1970-01-01T00:00:01.000Z</time></trkpt>
			<trkpt lat="44.820938" lon="34.432528"><time>1970-01-01T00:00:01.000Z</time></trkpt>
			<trkpt lat="44.820445" lon="34.432335"><time>1970-01-01T00:00:01.000Z</time></trkpt>
			<trkpt lat="44.820273" lon="34.432034"><time>1970-01-01T00:00:01.000Z</time></trkpt>
			<trkpt lat="44.820252" lon="34.431820"><time>1970-01-01T00:00:01.000Z</time></trkpt>
			<trkpt lat="44.820509" lon="34.431476"><time>1970-01-01T00:00:01.000Z</time></trkpt>
			<trkpt lat="44.820552" lon="34.431326"><time>1970-01-01T00:00:01.000Z</time></trkpt>
			<trkpt lat="44.820531" lon="34.430768"><time>1970-01-01T00:00:01.000Z</time></trkpt>
			<trkpt lat="44.820595" lon="34.430403"><time>1970-01-01T00:00:01.000Z</time></trkpt>
			<trkpt lat="44.820531" lon="34.430103"><time>1970-01-01T00:00:01.000Z</time></trkpt>
			<trkpt lat="44.820209" lon="34.430060"><time>1970-01-01T00:00:01.000Z</time></trkpt>
			<trkpt lat="44.819973" lon="34.429953"><time>1970-01-01T00:00:01.000Z</time></trkpt>
			<trkpt lat="44.819844" lon="34.429824"><time>1970-01-01T00:00:01.000Z</time></trkpt>
			<trkpt lat="44.819587" lon="34.429373"><time>1970-01-01T00:00:01.000Z</time></trkpt>
			<trkpt lat="44.819372" lon="34.429180"><time>1970-01-01T00:00:01.000Z</time></trkpt>
			<trkpt lat="44.819029" lon="34.428987"><time>1970-01-01T00:00:01.000Z</time></trkpt>
			<trkpt lat="44.818793" lon="34.428730"><time>1970-01-01T00:00:01.000Z</time></trkpt>
			<trkpt lat="44.818621" lon="34.428343"><time>1970-01-01T00:00:01.000Z</time></trkpt>
			<trkpt lat="44.818235" lon="34.427871"><time>1970-01-01T00:00:01.000Z</time></trkpt>
			<trkpt lat="44.817763" lon="34.427550"><time>1970-01-01T00:00:01.000Z</time></trkpt>
			<trkpt lat="44.817269" lon="34.427313"><time>1970-01-01T00:00:01.000Z</time></trkpt>
			<trkpt lat="44.816797" lon="34.426884"><time>1970-01-01T00:00:01.000Z</time></trkpt>
			<trkpt lat="44.816346" lon="34.426412"><time>1970-01-01T00:00:01.000Z</time></trkpt>
			<trkpt lat="44.815896" lon="34.426477"><time>1970-01-01T00:00:01.000Z</time></trkpt>
			<trkpt lat="44.815381" lon="34.426648"><time>1970-01-01T00:00:01.000Z</time></trkpt>
			<trkpt lat="44.814823" lon="34.426305"><time>1970-01-01T00:00:01.000Z</time></trkpt>
			<trkpt lat="44.814844" lon="34.426391"><time>1970-01-01T00:00:01.000Z</time></trkpt>
			<trkpt lat="44.815274" lon="34.426670"><time>1970-01-01T00:00:01.000Z</time></trkpt>
			<trkpt lat="44.816261" lon="34.426777"><time>1970-01-01T00:00:01.000Z</time></trkpt>
			<trkpt lat="44.816325" lon="34.426434"><time>1970-01-01T00:00:01.000Z</time></trkpt>
			<trkpt lat="44.816454" lon="34.426219"><time>1970-01-01T00:00:01.000Z</time></trkpt>
			<trkpt lat="44.816346" lon="34.426090"><time>1970-01-01T00:00:01.000Z</time></trkpt>
			<trkpt lat="44.816239" lon="34.425747"><time>1970-01-01T00:00:01.000Z</time></trkpt>
			<trkpt lat="44.815917" lon="34.425382"><time>1970-01-01T00:00:01.000Z</time></trkpt>
			<trkpt lat="44.815789" lon="34.425146"><time>1970-01-01T00:00:01.000Z</time></trkpt>
			<trkpt lat="44.815617" lon="34.424696"><time>1970-01-01T00:00:01.000Z</time></trkpt>
			<trkpt lat="44.814887" lon="34.423966"><time>1970-01-01T00:00:01.000Z</time></trkpt>
			<trkpt lat="44.814329" lon="34.423258"><time>1970-01-01T00:00:01.000Z</time></trkpt>
			<trkpt lat="44.814158" lon="34.423108"><time>1970-01-01T00:00:01.000Z</time></trkpt>
			<trkpt lat="44.813814" lon="34.422915"><time>1970-01-01T00:00:01.000Z</time></trkpt>
			<trkpt lat="44.813364" lon="34.422764"><time>1970-01-01T00:00:01.000Z</time></trkpt>
			<trkpt lat="44.812978" lon="34.422700"><time>1970-01-01T00:00:01.000Z</time></trkpt>
			<trkpt lat="44.811883" lon="34.422722"><time>1970-01-01T00:00:01.000Z</time></trkpt>
			<trkpt lat="44.811433" lon="34.422872"><time>1970-01-01T00:00:01.000Z</time></trkpt>
			<trkpt lat="44.810531" lon="34.422915"><time>1970-01-01T00:00:01.000Z</time></trkpt>
			<trkpt lat="44.808944" lon="34.423194"><time>1970-01-01T00:00:01.000Z</time></trkpt>
			<trkpt lat="44.808622" lon="34.423387"><time>1970-01-01T00:00:01.000Z</time></trkpt>
			<trkpt lat="44.808107" lon="34.423945"><time>1970-01-01T00:00:01.000Z</time></trkpt>
			<trkpt lat="44.807699" lon="34.424266"><time>1970-01-01T00:00:01.000Z</time></trkpt>
			<trkpt lat="44.807291" lon="34.424224"><time>1970-01-01T00:00:01.000Z</time></trkpt>
			<trkpt lat="44.807163" lon="34.424309"><time>1970-01-01T00:00:01.000Z</time></trkpt>
			<trkpt lat="44.806991" lon="34.424760"><time>1970-01-01T00:00:01.000Z</time></trkpt>
			<trkpt lat="44.805961" lon="34.425811"><time>1970-01-01T00:00:01.000Z</time></trkpt>
			<trkpt lat="44.805746" lon="34.426434"><time>1970-01-01T00:00:01.000Z</time></trkpt>
			<trkpt lat="44.805060" lon="34.425597"><time>1970-01-01T00:00:01.000Z</time></trkpt>
			<trkpt lat="44.804416" lon="34.425146"><time>1970-01-01T00:00:01.000Z</time></trkpt>
			<trkpt lat="44.803987" lon="34.424631"><time>1970-01-01T00:00:01.000Z</time></trkpt>
			<trkpt lat="44.803193" lon="34.424631"><time>1970-01-01T00:00:01.000Z</time></trkpt>
			<trkpt lat="44.802957" lon="34.424781"><time>1970-01-01T00:00:01.000Z</time></trkpt>
			<trkpt lat="44.802935" lon="34.425361"><time>1970-01-01T00:00:01.000Z</time></trkpt>
			<trkpt lat="44.802978" lon="34.426005"><time>1970-01-01T00:00:01.000Z</time></trkpt>
			<trkpt lat="44.802828" lon="34.426069"><time>1970-01-01T00:00:01.000Z</time></trkpt>
			<trkpt lat="44.802614" lon="34.426756"><time>1970-01-01T00:00:01.000Z</time></trkpt>
			<trkpt lat="44.802571" lon="34.427035"><time>1970-01-01T00:00:01.000Z</time></trkpt>
			<trkpt lat="44.802571" lon="34.427378"><time>1970-01-01T00:00:01.000Z</time></trkpt>
			<trkpt lat="44.802656" lon="34.427485"><time>1970-01-01T00:00:01.000Z</time></trkpt>
			<trkpt lat="44.802614" lon="34.427528"><time>1970-01-01T00:00:01.000Z</time></trkpt>
			<trkpt lat="44.802721" lon="34.427893"><time>1970-01-01T00:00:01.000Z</time></trkpt>
			<trkpt lat="44.802699" lon="34.428451"><time>1970-01-01T00:00:01.000Z</time></trkpt>
			<trkpt lat="44.802721" lon="34.428858"><time>1970-01-01T00:00:01.000Z</time></trkpt>
			<trkpt lat="44.802656" lon="34.428837"><time>1970-01-01T00:00:01.000Z</time></trkpt>
			<trkpt lat="44.802463" lon="34.429030"><time>1970-01-01T00:00:01.000Z</time></trkpt>
			<trkpt lat="44.802442" lon="34.429180"><time>1970-01-01T00:00:01.000Z</time></trkpt>
			<trkpt lat="44.802356" lon="34.429245"><time>1970-01-01T00:00:01.000Z</time></trkpt>
			<trkpt lat="44.802056" lon="34.429416"><time>1970-01-01T00:00:01.000Z</time></trkpt>
			<trkpt lat="44.801734" lon="34.429545"><time>1970-01-01T00:00:01.000Z</time></trkpt>
			<trkpt lat="44.801648" lon="34.429695"><time>1970-01-01T00:00:01.000Z</time></trkpt>
			<trkpt lat="44.801541" lon="34.429695"><time>1970-01-01T00:00:01.000Z</time></trkpt>
			<trkpt lat="44.801176" lon="34.429996"><time>1970-01-01T00:00:01.000Z</time></trkpt>
			<trkpt lat="44.801133" lon="34.430146"><time>1970-01-01T00:00:01.000Z</time></trkpt>
			<trkpt lat="44.800983" lon="34.430017"><time>1970-01-01T00:00:01.000Z</time></trkpt>
			<trkpt lat="44.800918" lon="34.430060"><time>1970-01-01T00:00:01.000Z</time></trkpt>
			<trkpt lat="44.800618" lon="34.430060"><time>1970-01-01T00:00:01.000Z</time></trkpt>
			<trkpt lat="44.800360" lon="34.430232"><time>1970-01-01T00:00:01.000Z</time></trkpt>
			<trkpt lat="44.800189" lon="34.430253"><time>1970-01-01T00:00:01.000Z</time></trkpt>
			<trkpt lat="44.799824" lon="34.430532"><time>1970-01-01T00:00:01.000Z</time></trkpt>
			<trkpt lat="44.799245" lon="34.430790"><time>1970-01-01T00:00:01.000Z</time></trkpt>
			<trkpt lat="44.798880" lon="34.431197"><time>1970-01-01T00:00:01.000Z</time></trkpt>
			<trkpt lat="44.798644" lon="34.431390"><time>1970-01-01T00:00:01.000Z</time></trkpt>
			<trkpt lat="44.798343" lon="34.431712"><time>1970-01-01T00:00:01.000Z</time></trkpt>
			<trkpt lat="44.798343" lon="34.431862"><time>1970-01-01T00:00:01.000Z</time></trkpt>
			<trkpt lat="44.798172" lon="34.432463"><time>1970-01-01T00:00:01.000Z</time></trkpt>
			<trkpt lat="44.798129" lon="34.432828"><time>1970-01-01T00:00:01.000Z</time></trkpt>
			<trkpt lat="44.798172" lon="34.433021"><time>1970-01-01T00:00:01.000Z</time></trkpt>
			<trkpt lat="44.798172" lon="34.433300"><time>1970-01-01T00:00:01.000Z</time></trkpt>
			<trkpt lat="44.798065" lon="34.433729"><time>1970-01-01T00:00:01.000Z</time></trkpt>
			<trkpt lat="44.798129" lon="34.434373"><time>1970-01-01T00:00:01.000Z</time></trkpt>
			<trkpt lat="44.797979" lon="34.434652"><time>1970-01-01T00:00:01.000Z</time></trkpt>
			<trkpt lat="44.796970" lon="34.435296"><time>1970-01-01T00:00:01.000Z</time></trkpt>
			<trkpt lat="44.796670" lon="34.435403"><time>1970-01-01T00:00:01.000Z</time></trkpt>
			<trkpt lat="44.796176" lon="34.435768"><time>1970-01-01T00:00:01.000Z</time></trkpt>
			<trkpt lat="44.795876" lon="34.435811"><time>1970-01-01T00:00:01.000Z</time></trkpt>
			<trkpt lat="44.795404" lon="34.436025"><time>1970-01-01T00:00:01.000Z</time></trkpt>
			<trkpt lat="44.794889" lon="34.436605"><time>1970-01-01T00:00:01.000Z</time></trkpt>
			<trkpt lat="44.794846" lon="34.436690"><time>1970-01-01T00:00:01.000Z</time></trkpt>
			<trkpt lat="44.794674" lon="34.436776"><time>1970-01-01T00:00:01.000Z</time></trkpt>
			<trkpt lat="44.794267" lon="34.437399"><time>1970-01-01T00:00:01.000Z</time></trkpt>
			<trkpt lat="44.794052" lon="34.437592"><time>1970-01-01T00:00:01.000Z</time></trkpt>
			<trkpt lat="44.793859" lon="34.437849"><time>1970-01-01T00:00:01.000Z</time></trkpt>
			<trkpt lat="44.793752" lon="34.438171"><time>1970-01-01T00:00:01.000Z</time></trkpt>
			<trkpt lat="44.793730" lon="34.438579"><time>1970-01-01T00:00:01.000Z</time></trkpt>
			<trkpt lat="44.793430" lon="34.438836"><time>1970-01-01T00:00:01.000Z</time></trkpt>
			<trkpt lat="44.793623" lon="34.439094"><time>1970-01-01T00:00:01.000Z</time></trkpt>
			<trkpt lat="44.794116" lon="34.438922"><time>1970-01-01T00:00:01.000Z</time></trkpt>
			<trkpt lat="44.793515" lon="34.439802"><time>1970-01-01T00:00:01.000Z</time></trkpt>
			<trkpt lat="44.792743" lon="34.440338"><time>1970-01-01T00:00:01.000Z</time></trkpt>
			<trkpt lat="44.792013" lon="34.440274"><time>1970-01-01T00:00:01.000Z</time></trkpt>
			<trkpt lat="44.791777" lon="34.440124"><time>1970-01-01T00:00:01.000Z</time></trkpt>
			<trkpt lat="44.791434" lon="34.440317"><time>1970-01-01T00:00:01.000Z</time></trkpt>
			<trkpt lat="44.790511" lon="34.441390"><time>1970-01-01T00:00:01.000Z</time></trkpt>
			<trkpt lat="44.790404" lon="34.442355"><time>1970-01-01T00:00:01.000Z</time></trkpt>
			<trkpt lat="44.789653" lon="34.441390"><time>1970-01-01T00:00:01.000Z</time></trkpt>
			<trkpt lat="44.789138" lon="34.441025"><time>1970-01-01T00:00:01.000Z</time></trkpt>
			<trkpt lat="44.788881" lon="34.440896"><time>1970-01-01T00:00:01.000Z</time></trkpt>
			<trkpt lat="44.788044" lon="34.440853"><time>1970-01-01T00:00:01.000Z</time></trkpt>
			<trkpt lat="44.787636" lon="34.441046"><time>1970-01-01T00:00:01.000Z</time></trkpt>
			<trkpt lat="44.787271" lon="34.441390"><time>1970-01-01T00:00:01.000Z</time></trkpt>
			<trkpt lat="44.787100" lon="34.441368"><time>1970-01-01T00:00:01.000Z</time></trkpt>
			<trkpt lat="44.786327" lon="34.440961"><time>1970-01-01T00:00:01.000Z</time></trkpt>
			<trkpt lat="44.786198" lon="34.440939"><time>1970-01-01T00:00:01.000Z</time></trkpt>
			<trkpt lat="44.786048" lon="34.441003"><time>1970-01-01T00:00:01.000Z</time></trkpt>
			<trkpt lat="44.785791" lon="34.440853"><time>1970-01-01T00:00:01.000Z</time></trkpt>
			<trkpt lat="44.785254" lon="34.440124"><time>1970-01-01T00:00:01.000Z</time></trkpt>
			<trkpt lat="44.784825" lon="34.439759"><time>1970-01-01T00:00:01.000Z</time></trkpt>
			<trkpt lat="44.784632" lon="34.439523"><time>1970-01-01T00:00:01.000Z</time></trkpt>
			<trkpt lat="44.784439" lon="34.439373"><time>1970-01-01T00:00:01.000Z</time></trkpt>
			<trkpt lat="44.784332" lon="34.439373"><time>1970-01-01T00:00:01.000Z</time></trkpt>
			<trkpt lat="44.784310" lon="34.439501"><time>1970-01-01T00:00:01.000Z</time></trkpt>
			<trkpt lat="44.784267" lon="34.439459"><time>1970-01-01T00:00:01.000Z</time></trkpt>
			<trkpt lat="44.784289" lon="34.439437"><time>1970-01-01T00:00:01.000Z</time></trkpt>
			<trkpt lat="44.784267" lon="34.439459"><time>1970-01-01T00:00:01.000Z</time></trkpt>
			<trkpt lat="44.784310" lon="34.439459"><time>1970-01-01T00:00:01.000Z</time></trkpt>
			<trkpt lat="44.784332" lon="34.439416"><time>1970-01-01T00:00:01.000Z</time></trkpt>
			<trkpt lat="44.784332" lon="34.439308"><time>1970-01-01T00:00:01.000Z</time></trkpt>
			<trkpt lat="44.783988" lon="34.438836"><time>1970-01-01T00:00:01.000Z</time></trkpt>
			<trkpt lat="44.783838" lon="34.438407"><time>1970-01-01T00:00:01.000Z</time></trkpt>
			<trkpt lat="44.783709" lon="34.438193"><time>1970-01-01T00:00:01.000Z</time></trkpt>
			<trkpt lat="44.783516" lon="34.437978"><time>1970-01-01T00:00:01.000Z</time></trkpt>
			<trkpt lat="44.783194" lon="34.437441"><time>1970-01-01T00:00:01.000Z</time></trkpt>
			<trkpt lat="44.782915" lon="34.437077"><time>1970-01-01T00:00:01.000Z</time></trkpt>
			<trkpt lat="44.782529" lon="34.436712"><time>1970-01-01T00:00:01.000Z</time></trkpt>
			<trkpt lat="44.782358" lon="34.436433"><time>1970-01-01T00:00:01.000Z</time></trkpt>
			<trkpt lat="44.782207" lon="34.436283"><time>1970-01-01T00:00:01.000Z</time></trkpt>
			<trkpt lat="44.782036" lon="34.436347"><time>1970-01-01T00:00:01.000Z</time></trkpt>
			<trkpt lat="44.781864" lon="34.436326"><time>1970-01-01T00:00:01.000Z</time></trkpt>
			<trkpt lat="44.781606" lon="34.436025"><time>1970-01-01T00:00:01.000Z</time></trkpt>
			<trkpt lat="44.781328" lon="34.435768"><time>1970-01-01T00:00:01.000Z</time></trkpt>
			<trkpt lat="44.781134" lon="34.435661"><time>1970-01-01T00:00:01.000Z</time></trkpt>
			<trkpt lat="44.780298" lon="34.435446"><time>1970-01-01T00:00:01.000Z</time></trkpt>
			<trkpt lat="44.780062" lon="34.435725"><time>1970-01-01T00:00:01.000Z</time></trkpt>
			<trkpt lat="44.779911" lon="34.435725"><time>1970-01-01T00:00:01.000Z</time></trkpt>
			<trkpt lat="44.779740" lon="34.435639"><time>1970-01-01T00:00:01.000Z</time></trkpt>
			<trkpt lat="44.779632" lon="34.435467"><time>1970-01-01T00:00:01.000Z</time></trkpt>
			<trkpt lat="44.779525" lon="34.435403"><time>1970-01-01T00:00:01.000Z</time></trkpt>
			<trkpt lat="44.779547" lon="34.435424"><time>1970-01-01T00:00:01.000Z</time></trkpt>
			<trkpt lat="44.779289" lon="34.435897"><time>1970-01-01T00:00:01.000Z</time></trkpt>
			<trkpt lat="44.778946" lon="34.436369"><time>1970-01-01T00:00:01.000Z</time></trkpt>
			<trkpt lat="44.778881" lon="34.436626"><time>1970-01-01T00:00:01.000Z</time></trkpt>
			<trkpt lat="44.778838" lon="34.436605"><time>1970-01-01T00:00:01.000Z</time></trkpt>
			<trkpt lat="44.778774" lon="34.436690"><time>1970-01-01T00:00:01.000Z</time></trkpt>
			<trkpt lat="44.778645" lon="34.437248"><time>1970-01-01T00:00:01.000Z</time></trkpt>
			<trkpt lat="44.778645" lon="34.437205"><time>1970-01-01T00:00:01.000Z</time></trkpt>
			<trkpt lat="44.778667" lon="34.437227"><time>1970-01-01T00:00:01.000Z</time></trkpt>
			<trkpt lat="44.778538" lon="34.437399"><time>1970-01-01T00:00:01.000Z</time></trkpt>
			<trkpt lat="44.778409" lon="34.437742"><time>1970-01-01T00:00:01.000Z</time></trkpt>
			<trkpt lat="44.778323" lon="34.437763"><time>1970-01-01T00:00:01.000Z</time></trkpt>
			<trkpt lat="44.778238" lon="34.437699"><time>1970-01-01T00:00:01.000Z</time></trkpt>
			<trkpt lat="44.778173" lon="34.437720"><time>1970-01-01T00:00:01.000Z</time></trkpt>
			<trkpt lat="44.778109" lon="34.437914"><time>1970-01-01T00:00:01.000Z</time></trkpt>
			<trkpt lat="44.777959" lon="34.437999"><time>1970-01-01T00:00:01.000Z</time></trkpt>
			<trkpt lat="44.777723" lon="34.438021"><time>1970-01-01T00:00:01.000Z</time></trkpt>
			<trkpt lat="44.777551" lon="34.438171"><time>1970-01-01T00:00:01.000Z</time></trkpt>
			<trkpt lat="44.777251" lon="34.438278"><time>1970-01-01T00:00:01.000Z</time></trkpt>
			<trkpt lat="44.776907" lon="34.438278"><time>1970-01-01T00:00:01.000Z</time></trkpt>
			<trkpt lat="44.776628" lon="34.438450"><time>1970-01-01T00:00:01.000Z</time></trkpt>
			<trkpt lat="44.776414" lon="34.438750"><time>1970-01-01T00:00:01.000Z</time></trkpt>
			<trkpt lat="44.776156" lon="34.438965"><time>1970-01-01T00:00:01.000Z</time></trkpt>
			<trkpt lat="44.776027" lon="34.439029"><time>1970-01-01T00:00:01.000Z</time></trkpt>
			<trkpt lat="44.775813" lon="34.439029"><time>1970-01-01T00:00:01.000Z</time></trkpt>
			<trkpt lat="44.775169" lon="34.438386"><time>1970-01-01T00:00:01.000Z</time></trkpt>
			<trkpt lat="44.775083" lon="34.438128"><time>1970-01-01T00:00:01.000Z</time></trkpt>
			<trkpt lat="44.774633" lon="34.437914"><time>1970-01-01T00:00:01.000Z</time></trkpt>
			<trkpt lat="44.774483" lon="34.437935"><time>1970-01-01T00:00:01.000Z</time></trkpt>
			<trkpt lat="44.774118" lon="34.438193"><time>1970-01-01T00:00:01.000Z</time></trkpt>
			<trkpt lat="44.773989" lon="34.438364"><time>1970-01-01T00:00:01.000Z</time></trkpt>
			<trkpt lat="44.773796" lon="34.438429"><time>1970-01-01T00:00:01.000Z</time></trkpt>
			<trkpt lat="44.773710" lon="34.438386"><time>1970-01-01T00:00:01.000Z</time></trkpt>
			<trkpt lat="44.773581" lon="34.438235"><time>1970-01-01T00:00:01.000Z</time></trkpt>
			<trkpt lat="44.773431" lon="34.437570"><time>1970-01-01T00:00:01.000Z</time></trkpt>
			<trkpt lat="44.773238" lon="34.437248"><time>1970-01-01T00:00:01.000Z</time></trkpt>
			<trkpt lat="44.773109" lon="34.437077"><time>1970-01-01T00:00:01.000Z</time></trkpt>
			<trkpt lat="44.772744" lon="34.436862"><time>1970-01-01T00:00:01.000Z</time></trkpt>
			<trkpt lat="44.772508" lon="34.436583"><time>1970-01-01T00:00:01.000Z</time></trkpt>
			<trkpt lat="44.772466" lon="34.435832"><time>1970-01-01T00:00:01.000Z</time></trkpt>
			<trkpt lat="44.772079" lon="34.435253"><time>1970-01-01T00:00:01.000Z</time></trkpt>
			<trkpt lat="44.771972" lon="34.434995"><time>1970-01-01T00:00:01.000Z</time></trkpt>
			<trkpt lat="44.771972" lon="34.434545"><time>1970-01-01T00:00:01.000Z</time></trkpt>
			<trkpt lat="44.771865" lon="34.434287"><time>1970-01-01T00:00:01.000Z</time></trkpt>
			<trkpt lat="44.771757" lon="34.433129"><time>1970-01-01T00:00:01.000Z</time></trkpt>
			<trkpt lat="44.771607" lon="34.432571"><time>1970-01-01T00:00:01.000Z</time></trkpt>
			<trkpt lat="44.771564" lon="34.432270"><time>1970-01-01T00:00:01.000Z</time></trkpt>
			<trkpt lat="44.771350" lon="34.431884"><time>1970-01-01T00:00:01.000Z</time></trkpt>
			<trkpt lat="44.771285" lon="34.431626"><time>1970-01-01T00:00:01.000Z</time></trkpt>
			<trkpt lat="44.770513" lon="34.430296"><time>1970-01-01T00:00:01.000Z</time></trkpt>
			<trkpt lat="44.770384" lon="34.429094"><time>1970-01-01T00:00:01.000Z</time></trkpt>
			<trkpt lat="44.770298" lon="34.428665"><time>1970-01-01T00:00:01.000Z</time></trkpt>
			<trkpt lat="44.770041" lon="34.428365"><time>1970-01-01T00:00:01.000Z</time></trkpt>
			<trkpt lat="44.769912" lon="34.428301"><time>1970-01-01T00:00:01.000Z</time></trkpt>
			<trkpt lat="44.769547" lon="34.427635"><time>1970-01-01T00:00:01.000Z</time></trkpt>
			<trkpt lat="44.768839" lon="34.428086"><time>1970-01-01T00:00:01.000Z</time></trkpt>
			<trkpt lat="44.768668" lon="34.428558"><time>1970-01-01T00:00:01.000Z</time></trkpt>
			<trkpt lat="44.768367" lon="34.428579"><time>1970-01-01T00:00:01.000Z</time></trkpt>
			<trkpt lat="44.768110" lon="34.428837"><time>1970-01-01T00:00:01.000Z</time></trkpt>
			<trkpt lat="44.767874" lon="34.428622"><time>1970-01-01T00:00:01.000Z</time></trkpt>
			<trkpt lat="44.767852" lon="34.428365"><time>1970-01-01T00:00:01.000Z</time></trkpt>
			<trkpt lat="44.767766" lon="34.428129"><time>1970-01-01T00:00:01.000Z</time></trkpt>
			<trkpt lat="44.767809" lon="34.426756"><time>1970-01-01T00:00:01.000Z</time></trkpt>
			<trkpt lat="44.767959" lon="34.426369"><time>1970-01-01T00:00:01.000Z</time></trkpt>
			<trkpt lat="44.767938" lon="34.426198"><time>1970-01-01T00:00:01.000Z</time></trkpt>
			<trkpt lat="44.767702" lon="34.425876"><time>1970-01-01T00:00:01.000Z</time></trkpt>
			<trkpt lat="44.767359" lon="34.426005"><time>1970-01-01T00:00:01.000Z</time></trkpt>
			<trkpt lat="44.767037" lon="34.425940"><time>1970-01-01T00:00:01.000Z</time></trkpt>
			<trkpt lat="44.766972" lon="34.425490"><time>1970-01-01T00:00:01.000Z</time></trkpt>
			<trkpt lat="44.767058" lon="34.425490"><time>1970-01-01T00:00:01.000Z</time></trkpt>
			<trkpt lat="44.767487" lon="34.425125"><time>1970-01-01T00:00:01.000Z</time></trkpt>
			<trkpt lat="44.767616" lon="34.425146"><time>1970-01-01T00:00:01.000Z</time></trkpt>
			<trkpt lat="44.767680" lon="34.425082"><time>1970-01-01T00:00:01.000Z</time></trkpt>
			<trkpt lat="44.767895" lon="34.425082"><time>1970-01-01T00:00:01.000Z</time></trkpt>
			<trkpt lat="44.768088" lon="34.425018"><time>1970-01-01T00:00:01.000Z</time></trkpt>
			<trkpt lat="44.768217" lon="34.424717"><time>1970-01-01T00:00:01.000Z</time></trkpt>
			<trkpt lat="44.768174" lon="34.424245"><time>1970-01-01T00:00:01.000Z</time></trkpt>
			<trkpt lat="44.768238" lon="34.424009"><time>1970-01-01T00:00:01.000Z</time></trkpt>
			<trkpt lat="44.768324" lon="34.423387"><time>1970-01-01T00:00:01.000Z</time></trkpt>
			<trkpt lat="44.768260" lon="34.423022"><time>1970-01-01T00:00:01.000Z</time></trkpt>
			<trkpt lat="44.768389" lon="34.422550"><time>1970-01-01T00:00:01.000Z</time></trkpt>
			<trkpt lat="44.768324" lon="34.422335"><time>1970-01-01T00:00:01.000Z</time></trkpt>
			<trkpt lat="44.768324" lon="34.421906"><time>1970-01-01T00:00:01.000Z</time></trkpt>
			<trkpt lat="44.768367" lon="34.421692"><time>1970-01-01T00:00:01.000Z</time></trkpt>
			<trkpt lat="44.768346" lon="34.421155"><time>1970-01-01T00:00:01.000Z</time></trkpt>
			<trkpt lat="44.768389" lon="34.420662"><time>1970-01-01T00:00:01.000Z</time></trkpt>
			<trkpt lat="44.768453" lon="34.420383"><time>1970-01-01T00:00:01.000Z</time></trkpt>
			<trkpt lat="44.768431" lon="34.419782"><time>1970-01-01T00:00:01.000Z</time></trkpt>
			<trkpt lat="44.768367" lon="34.419546"><time>1970-01-01T00:00:01.000Z</time></trkpt>
			<trkpt lat="44.768346" lon="34.419181"><time>1970-01-01T00:00:01.000Z</time></trkpt>
			<trkpt lat="44.768410" lon="34.419160"><time>1970-01-01T00:00:01.000Z</time></trkpt>
			<trkpt lat="44.768453" lon="34.419224"><time>1970-01-01T00:00:01.000Z</time></trkpt>
			<trkpt lat="44.768367" lon="34.418387"><time>1970-01-01T00:00:01.000Z</time></trkpt>
			<trkpt lat="44.768303" lon="34.418237"><time>1970-01-01T00:00:01.000Z</time></trkpt>
			<trkpt lat="44.768131" lon="34.418022"><time>1970-01-01T00:00:01.000Z</time></trkpt>
			<trkpt lat="44.767916" lon="34.417593"><time>1970-01-01T00:00:01.000Z</time></trkpt>
			<trkpt lat="44.767766" lon="34.417443"><time>1970-01-01T00:00:01.000Z</time></trkpt>
			<trkpt lat="44.767337" lon="34.416799"><time>1970-01-01T00:00:01.000Z</time></trkpt>
			<trkpt lat="44.766972" lon="34.416520"><time>1970-01-01T00:00:01.000Z</time></trkpt>
			<trkpt lat="44.766908" lon="34.416306"><time>1970-01-01T00:00:01.000Z</time></trkpt>
			<trkpt lat="44.766650" lon="34.415748"><time>1970-01-01T00:00:01.000Z</time></trkpt>
			<trkpt lat="44.766565" lon="34.415254"><time>1970-01-01T00:00:01.000Z</time></trkpt>
			<trkpt lat="44.766414" lon="34.414911"><time>1970-01-01T00:00:01.000Z</time></trkpt>
			<trkpt lat="44.766243" lon="34.414847"><time>1970-01-01T00:00:01.000Z</time></trkpt>
			<trkpt lat="44.766307" lon="34.415297"><time>1970-01-01T00:00:01.000Z</time></trkpt>
			<trkpt lat="44.766221" lon="34.415748"><time>1970-01-01T00:00:01.000Z</time></trkpt>
			<trkpt lat="44.766178" lon="34.416349"><time>1970-01-01T00:00:01.000Z</time></trkpt>
			<trkpt lat="44.766028" lon="34.416971"><time>1970-01-01T00:00:01.000Z</time></trkpt>
			<trkpt lat="44.766050" lon="34.417400"><time>1970-01-01T00:00:01.000Z</time></trkpt>
			<trkpt lat="44.765942" lon="34.417593"><time>1970-01-01T00:00:01.000Z</time></trkpt>
			<trkpt lat="44.765728" lon="34.417786"><time>1970-01-01T00:00:01.000Z</time></trkpt>
			<trkpt lat="44.765706" lon="34.417915"><time>1970-01-01T00:00:01.000Z</time></trkpt>
			<trkpt lat="44.765578" lon="34.418065"><time>1970-01-01T00:00:01.000Z</time></trkpt>
			<trkpt lat="44.765320" lon="34.418537"><time>1970-01-01T00:00:01.000Z</time></trkpt>
			<trkpt lat="44.765170" lon="34.418537"><time>1970-01-01T00:00:01.000Z</time></trkpt>
			<trkpt lat="44.765041" lon="34.418494"><time>1970-01-01T00:00:01.000Z</time></trkpt>
			<trkpt lat="44.764934" lon="34.418409"><time>1970-01-01T00:00:01.000Z</time></trkpt>
			<trkpt lat="44.764548" lon="34.417979"><time>1970-01-01T00:00:01.000Z</time></trkpt>
			<trkpt lat="44.764355" lon="34.417851"><time>1970-01-01T00:00:01.000Z</time></trkpt>
			<trkpt lat="44.764333" lon="34.417615"><time>1970-01-01T00:00:01.000Z</time></trkpt>
			<trkpt lat="44.764226" lon="34.417507"><time>1970-01-01T00:00:01.000Z</time></trkpt>
			<trkpt lat="44.764011" lon="34.417529"><time>1970-01-01T00:00:01.000Z</time></trkpt>
			<trkpt lat="44.763625" lon="34.417443"><time>1970-01-01T00:00:01.000Z</time></trkpt>
			<trkpt lat="44.763325" lon="34.417185"><time>1970-01-01T00:00:01.000Z</time></trkpt>
			<trkpt lat="44.762810" lon="34.416520"><time>1970-01-01T00:00:01.000Z</time></trkpt>
			<trkpt lat="44.762359" lon="34.415812"><time>1970-01-01T00:00:01.000Z</time></trkpt>
			<trkpt lat="44.761801" lon="34.415104"><time>1970-01-01T00:00:01.000Z</time></trkpt>
			<trkpt lat="44.761608" lon="34.414675"><time>1970-01-01T00:00:01.000Z</time></trkpt>
			<trkpt lat="44.761522" lon="34.414053"><time>1970-01-01T00:00:01.000Z</time></trkpt>
			<trkpt lat="44.761415" lon="34.413902"><time>1970-01-01T00:00:01.000Z</time></trkpt>
			<trkpt lat="44.761157" lon="34.413688"><time>1970-01-01T00:00:01.000Z</time></trkpt>
			<trkpt lat="44.760664" lon="34.413430"><time>1970-01-01T00:00:01.000Z</time></trkpt>
			<trkpt lat="44.760342" lon="34.413345"><time>1970-01-01T00:00:01.000Z</time></trkpt>
			<trkpt lat="44.759827" lon="34.413130"><time>1970-01-01T00:00:01.000Z</time></trkpt>
			<trkpt lat="44.759591" lon="34.412765"><time>1970-01-01T00:00:01.000Z</time></trkpt>
			<trkpt lat="44.759119" lon="34.412272"><time>1970-01-01T00:00:01.000Z</time></trkpt>
			<trkpt lat="44.759097" lon="34.412121"><time>1970-01-01T00:00:01.000Z</time></trkpt>
			<trkpt lat="44.759205" lon="34.411864"><time>1970-01-01T00:00:01.000Z</time></trkpt>
			<trkpt lat="44.759248" lon="34.411885"><time>1970-01-01T00:00:01.000Z</time></trkpt>
			<trkpt lat="44.759076" lon="34.411928"><time>1970-01-01T00:00:01.000Z</time></trkpt>
			<trkpt lat="44.758969" lon="34.412036"><time>1970-01-01T00:00:01.000Z</time></trkpt>
			<trkpt lat="44.758539" lon="34.411907"><time>1970-01-01T00:00:01.000Z</time></trkpt>
			<trkpt lat="44.758368" lon="34.411928"><time>1970-01-01T00:00:01.000Z</time></trkpt>
			<trkpt lat="44.758110" lon="34.411800"><time>1970-01-01T00:00:01.000Z</time></trkpt>
			<trkpt lat="44.757939" lon="34.411778"><time>1970-01-01T00:00:01.000Z</time></trkpt>
			<trkpt lat="44.757810" lon="34.411821"><time>1970-01-01T00:00:01.000Z</time></trkpt>
			<trkpt lat="44.757510" lon="34.411757"><time>1970-01-01T00:00:01.000Z</time></trkpt>
			<trkpt lat="44.757231" lon="34.411757"><time>1970-01-01T00:00:01.000Z</time></trkpt>
			<trkpt lat="44.756930" lon="34.411821"><time>1970-01-01T00:00:01.000Z</time></trkpt>
			<trkpt lat="44.756673" lon="34.411649"><time>1970-01-01T00:00:01.000Z</time></trkpt>
			<trkpt lat="44.756093" lon="34.411499"><time>1970-01-01T00:00:01.000Z</time></trkpt>
			<trkpt lat="44.755814" lon="34.411499"><time>1970-01-01T00:00:01.000Z</time></trkpt>
			<trkpt lat="44.755535" lon="34.411757"><time>1970-01-01T00:00:01.000Z</time></trkpt>
			<trkpt lat="44.755321" lon="34.412207"><time>1970-01-01T00:00:01.000Z</time></trkpt>
			<trkpt lat="44.755192" lon="34.412229"><time>1970-01-01T00:00:01.000Z</time></trkpt>
			<trkpt lat="44.755063" lon="34.412186"><time>1970-01-01T00:00:01.000Z</time></trkpt>
			<trkpt lat="44.754956" lon="34.412229"><time>1970-01-01T00:00:01.000Z</time></trkpt>
			<trkpt lat="44.754591" lon="34.412529"><time>1970-01-01T00:00:01.000Z</time></trkpt>
			<trkpt lat="44.754248" lon="34.412658"><time>1970-01-01T00:00:01.000Z</time></trkpt>
			<trkpt lat="44.753990" lon="34.412958"><time>1970-01-01T00:00:01.000Z</time></trkpt>
			<trkpt lat="44.753840" lon="34.413302"><time>1970-01-01T00:00:01.000Z</time></trkpt>
			<trkpt lat="44.753712" lon="34.413452"><time>1970-01-01T00:00:01.000Z</time></trkpt>
			<trkpt lat="44.753433" lon="34.413623"><time>1970-01-01T00:00:01.000Z</time></trkpt>
			<trkpt lat="44.753261" lon="34.413666"><time>1970-01-01T00:00:01.000Z</time></trkpt>
			<trkpt lat="44.752660" lon="34.413623"><time>1970-01-01T00:00:01.000Z</time></trkpt>
			<trkpt lat="44.752531" lon="34.413709"><time>1970-01-01T00:00:01.000Z</time></trkpt>
			<trkpt lat="44.752424" lon="34.413731"><time>1970-01-01T00:00:01.000Z</time></trkpt>
			<trkpt lat="44.752016" lon="34.413645"><time>1970-01-01T00:00:01.000Z</time></trkpt>
			<trkpt lat="44.751909" lon="34.413559"><time>1970-01-01T00:00:01.000Z</time></trkpt>
			<trkpt lat="44.751780" lon="34.413623"><time>1970-01-01T00:00:01.000Z</time></trkpt>
			<trkpt lat="44.751652" lon="34.413581"><time>1970-01-01T00:00:01.000Z</time></trkpt>
			<trkpt lat="44.751523" lon="34.413731"><time>1970-01-01T00:00:01.000Z</time></trkpt>
			<trkpt lat="44.751458" lon="34.413881"><time>1970-01-01T00:00:01.000Z</time></trkpt>
			<trkpt lat="44.751330" lon="34.413860"><time>1970-01-01T00:00:01.000Z</time></trkpt>
			<trkpt lat="44.751308" lon="34.414010"><time>1970-01-01T00:00:01.000Z</time></trkpt>
			<trkpt lat="44.751094" lon="34.414010"><time>1970-01-01T00:00:01.000Z</time></trkpt>
			<trkpt lat="44.750836" lon="34.414074"><time>1970-01-01T00:00:01.000Z</time></trkpt>
			<trkpt lat="44.750622" lon="34.414181"><time>1970-01-01T00:00:01.000Z</time></trkpt>
			<trkpt lat="44.750557" lon="34.414289"><time>1970-01-01T00:00:01.000Z</time></trkpt>
			<trkpt lat="44.750493" lon="34.414160"><time>1970-01-01T00:00:01.000Z</time></trkpt>
			<trkpt lat="44.749892" lon="34.414181"><time>1970-01-01T00:00:01.000Z</time></trkpt>
			<trkpt lat="44.749806" lon="34.414224"><time>1970-01-01T00:00:01.000Z</time></trkpt>
			<trkpt lat="44.749677" lon="34.414203"><time>1970-01-01T00:00:01.000Z</time></trkpt>
			<trkpt lat="44.749463" lon="34.414246"><time>1970-01-01T00:00:01.000Z</time></trkpt>
			<trkpt lat="44.748969" lon="34.414138"><time>1970-01-01T00:00:01.000Z</time></trkpt>
			<trkpt lat="44.748948" lon="34.414310"><time>1970-01-01T00:00:01.000Z</time></trkpt>
			<trkpt lat="44.748991" lon="34.414224"><time>1970-01-01T00:00:01.000Z</time></trkpt>
			<trkpt lat="44.749248" lon="34.414117"><time>1970-01-01T00:00:01.000Z</time></trkpt>
			<trkpt lat="44.749613" lon="34.414246"><time>1970-01-01T00:00:01.000Z</time></trkpt>
			<trkpt lat="44.750386" lon="34.414203"><time>1970-01-01T00:00:01.000Z</time></trkpt>
			<trkpt lat="44.750493" lon="34.414224"><time>1970-01-01T00:00:01.000Z</time></trkpt>
			<trkpt lat="44.750622" lon="34.414181"><time>1970-01-01T00:00:01.000Z</time></trkpt>
			<trkpt lat="44.750600" lon="34.414374"><time>1970-01-01T00:00:01.000Z</time></trkpt>
			<trkpt lat="44.750686" lon="34.414503"><time>1970-01-01T00:00:01.000Z</time></trkpt>
			<trkpt lat="44.750686" lon="34.414568"><time>1970-01-01T00:00:01.000Z</time></trkpt>
			<trkpt lat="44.750622" lon="34.414653"><time>1970-01-01T00:00:01.000Z</time></trkpt>
			<trkpt lat="44.750407" lon="34.414675"><time>1970-01-01T00:00:01.000Z</time></trkpt>
			<trkpt lat="44.750321" lon="34.414718"><time>1970-01-01T00:00:01.000Z</time></trkpt>
			<trkpt lat="44.750192" lon="34.414975"><time>1970-01-01T00:00:01.000Z</time></trkpt>
			<trkpt lat="44.749806" lon="34.415469"><time>1970-01-01T00:00:01.000Z</time></trkpt>
			<trkpt lat="44.749377" lon="34.415683"><time>1970-01-01T00:00:01.000Z</time></trkpt>
			<trkpt lat="44.749120" lon="34.415748"><time>1970-01-01T00:00:01.000Z</time></trkpt>
			<trkpt lat="44.748819" lon="34.415726"><time>1970-01-01T00:00:01.000Z</time></trkpt>
			<trkpt lat="44.748583" lon="34.415791"><time>1970-01-01T00:00:01.000Z</time></trkpt>
			<trkpt lat="44.748411" lon="34.415898"><time>1970-01-01T00:00:01.000Z</time></trkpt>
			<trkpt lat="44.748175" lon="34.415919"><time>1970-01-01T00:00:01.000Z</time></trkpt>
			<trkpt lat="44.747532" lon="34.415834"><time>1970-01-01T00:00:01.000Z</time></trkpt>
			<trkpt lat="44.746888" lon="34.415598"><time>1970-01-01T00:00:01.000Z</time></trkpt>
			<trkpt lat="44.746566" lon="34.415619"><time>1970-01-01T00:00:01.000Z</time></trkpt>
			<trkpt lat="44.746416" lon="34.415705"><time>1970-01-01T00:00:01.000Z</time></trkpt>
			<trkpt lat="44.746266" lon="34.415598"><time>1970-01-01T00:00:01.000Z</time></trkpt>
			<trkpt lat="44.746266" lon="34.415254"><time>1970-01-01T00:00:01.000Z</time></trkpt>
			<trkpt lat="44.746158" lon="34.415061"><time>1970-01-01T00:00:01.000Z</time></trkpt>
			<trkpt lat="44.746115" lon="34.414847"><time>1970-01-01T00:00:01.000Z</time></trkpt>
			<trkpt lat="44.746158" lon="34.414782"><time>1970-01-01T00:00:01.000Z</time></trkpt>
			<trkpt lat="44.746180" lon="34.414439"><time>1970-01-01T00:00:01.000Z</time></trkpt>
			<trkpt lat="44.746137" lon="34.414074"><time>1970-01-01T00:00:01.000Z</time></trkpt>
			<trkpt lat="44.746158" lon="34.413623"><time>1970-01-01T00:00:01.000Z</time></trkpt>
			<trkpt lat="44.746244" lon="34.413151"><time>1970-01-01T00:00:01.000Z</time></trkpt>
			<trkpt lat="44.746373" lon="34.411499"><time>1970-01-01T00:00:01.000Z</time></trkpt>
			<trkpt lat="44.747682" lon="34.410212"><time>1970-01-01T00:00:01.000Z</time></trkpt>
			<trkpt lat="44.748326" lon="34.408624"><time>1970-01-01T00:00:01.000Z</time></trkpt>
			<trkpt lat="44.748369" lon="34.408044"><time>1970-01-01T00:00:01.000Z</time></trkpt>
			<trkpt lat="44.748519" lon="34.407701"><time>1970-01-01T00:00:01.000Z</time></trkpt>
			<trkpt lat="44.749034" lon="34.407744"><time>1970-01-01T00:00:01.000Z</time></trkpt>
			<trkpt lat="44.750171" lon="34.407615"><time>1970-01-01T00:00:01.000Z</time></trkpt>
			<trkpt lat="44.750879" lon="34.407272"><time>1970-01-01T00:00:01.000Z</time></trkpt>
			<trkpt lat="44.750793" lon="34.407208"><time>1970-01-01T00:00:01.000Z</time></trkpt>
			<trkpt lat="44.750793" lon="34.407165"><time>1970-01-01T00:00:01.000Z</time></trkpt>
			<trkpt lat="44.750836" lon="34.407208"><time>1970-01-01T00:00:01.000Z</time></trkpt>
			<trkpt lat="44.750858" lon="34.407165"><time>1970-01-01T00:00:01.000Z</time></trkpt>
			<trkpt lat="44.750879" lon="34.406929"><time>1970-01-01T00:00:01.000Z</time></trkpt>
			<trkpt lat="44.750772" lon="34.406843"><time>1970-01-01T00:00:01.000Z</time></trkpt>
			<trkpt lat="44.750793" lon="34.406778"><time>1970-01-01T00:00:01.000Z</time></trkpt>
			<trkpt lat="44.750750" lon="34.406650"><time>1970-01-01T00:00:01.000Z</time></trkpt>
			<trkpt lat="44.750772" lon="34.406585"><time>1970-01-01T00:00:01.000Z</time></trkpt>
			<trkpt lat="44.750665" lon="34.406521"><time>1970-01-01T00:00:01.000Z</time></trkpt>
			<trkpt lat="44.750514" lon="34.406328"><time>1970-01-01T00:00:01.000Z</time></trkpt>
			<trkpt lat="44.750428" lon="34.406349"><time>1970-01-01T00:00:01.000Z</time></trkpt>
			<trkpt lat="44.750257" lon="34.406049"><time>1970-01-01T00:00:01.000Z</time></trkpt>
			<trkpt lat="44.750192" lon="34.406027"><time>1970-01-01T00:00:01.000Z</time></trkpt>
			<trkpt lat="44.750150" lon="34.405942"><time>1970-01-01T00:00:01.000Z</time></trkpt>
			<trkpt lat="44.749935" lon="34.405791"><time>1970-01-01T00:00:01.000Z</time></trkpt>
			<trkpt lat="44.749849" lon="34.405641"><time>1970-01-01T00:00:01.000Z</time></trkpt>
			<trkpt lat="44.749635" lon="34.405470"><time>1970-01-01T00:00:01.000Z</time></trkpt>
			<trkpt lat="44.749506" lon="34.405255"><time>1970-01-01T00:00:01.000Z</time></trkpt>
			<trkpt lat="44.749227" lon="34.404633"><time>1970-01-01T00:00:01.000Z</time></trkpt>
			<trkpt lat="44.749205" lon="34.404483"><time>1970-01-01T00:00:01.000Z</time></trkpt>
			<trkpt lat="44.749291" lon="34.404483"><time>1970-01-01T00:00:01.000Z</time></trkpt>
			<trkpt lat="44.749484" lon="34.404633"><time>1970-01-01T00:00:01.000Z</time></trkpt>
			<trkpt lat="44.749656" lon="34.404697"><time>1970-01-01T00:00:01.000Z</time></trkpt>
			<trkpt lat="44.749785" lon="34.404697"><time>1970-01-01T00:00:01.000Z</time></trkpt>
			<trkpt lat="44.749913" lon="34.404633"><time>1970-01-01T00:00:01.000Z</time></trkpt>
			<trkpt lat="44.749935" lon="34.404504"><time>1970-01-01T00:00:01.000Z</time></trkpt>
			<trkpt lat="44.749956" lon="34.404010"><time>1970-01-01T00:00:01.000Z</time></trkpt>
			<trkpt lat="44.749892" lon="34.403925"><time>1970-01-01T00:00:01.000Z</time></trkpt>
			<trkpt lat="44.749892" lon="34.403731"><time>1970-01-01T00:00:01.000Z</time></trkpt>
			<trkpt lat="44.749677" lon="34.403045"><time>1970-01-01T00:00:01.000Z</time></trkpt>
			<trkpt lat="44.749763" lon="34.402659"><time>1970-01-01T00:00:01.000Z</time></trkpt>
			<trkpt lat="44.749720" lon="34.402337"><time>1970-01-01T00:00:01.000Z</time></trkpt>
			<trkpt lat="44.749742" lon="34.402229"><time>1970-01-01T00:00:01.000Z</time></trkpt>
			<trkpt lat="44.749785" lon="34.402187"><time>1970-01-01T00:00:01.000Z</time></trkpt>
			<trkpt lat="44.749828" lon="34.402208"><time>1970-01-01T00:00:01.000Z</time></trkpt>
			<trkpt lat="44.749892" lon="34.402079"><time>1970-01-01T00:00:01.000Z</time></trkpt>
			<trkpt lat="44.749913" lon="34.401886"><time>1970-01-01T00:00:01.000Z</time></trkpt>
			<trkpt lat="44.749828" lon="34.401457"><time>1970-01-01T00:00:01.000Z</time></trkpt>
			<trkpt lat="44.749828" lon="34.401264"><time>1970-01-01T00:00:01.000Z</time></trkpt>
			<trkpt lat="44.749785" lon="34.401178"><time>1970-01-01T00:00:01.000Z</time></trkpt>
			<trkpt lat="44.749720" lon="34.401242"><time>1970-01-01T00:00:01.000Z</time></trkpt>
			<trkpt lat="44.749785" lon="34.401264"><time>1970-01-01T00:00:01.000Z</time></trkpt>
			<trkpt lat="44.749763" lon="34.401178"><time>1970-01-01T00:00:01.000Z</time></trkpt>
			<trkpt lat="44.749785" lon="34.401199"><time>1970-01-01T00:00:01.000Z</time></trkpt>
			<trkpt lat="44.749871" lon="34.400942"><time>1970-01-01T00:00:01.000Z</time></trkpt>
			<trkpt lat="44.749913" lon="34.400406"><time>1970-01-01T00:00:01.000Z</time></trkpt>
			<trkpt lat="44.750021" lon="34.399869"><time>1970-01-01T00:00:01.000Z</time></trkpt>
			<trkpt lat="44.750107" lon="34.399762"><time>1970-01-01T00:00:01.000Z</time></trkpt>
			<trkpt lat="44.750107" lon="34.399633"><time>1970-01-01T00:00:01.000Z</time></trkpt>
			<trkpt lat="44.750300" lon="34.399333"><time>1970-01-01T00:00:01.000Z</time></trkpt>
			<trkpt lat="44.750214" lon="34.398946"><time>1970-01-01T00:00:01.000Z</time></trkpt>
			<trkpt lat="44.750235" lon="34.398582"><time>1970-01-01T00:00:01.000Z</time></trkpt>
			<trkpt lat="44.750278" lon="34.398625"><time>1970-01-01T00:00:01.000Z</time></trkpt>
			<trkpt lat="44.750278" lon="34.398689"><time>1970-01-01T00:00:01.000Z</time></trkpt>
			<trkpt lat="44.750257" lon="34.398324"><time>1970-01-01T00:00:01.000Z</time></trkpt>
			<trkpt lat="44.750300" lon="34.397959"><time>1970-01-01T00:00:01.000Z</time></trkpt>
			<trkpt lat="44.750257" lon="34.397916"><time>1970-01-01T00:00:01.000Z</time></trkpt>
			<trkpt lat="44.750321" lon="34.397874"><time>1970-01-01T00:00:01.000Z</time></trkpt>
			<trkpt lat="44.750364" lon="34.397938"><time>1970-01-01T00:00:01.000Z</time></trkpt>
			<trkpt lat="44.750364" lon="34.397895"><time>1970-01-01T00:00:01.000Z</time></trkpt>
			<trkpt lat="44.750192" lon="34.397294"><time>1970-01-01T00:00:01.000Z</time></trkpt>
			<trkpt lat="44.750214" lon="34.397208"><time>1970-01-01T00:00:01.000Z</time></trkpt>
			<trkpt lat="44.750407" lon="34.396994"><time>1970-01-01T00:00:01.000Z</time></trkpt>
			<trkpt lat="44.750793" lon="34.396243"><time>1970-01-01T00:00:01.000Z</time></trkpt>
			<trkpt lat="44.751094" lon="34.395857"><time>1970-01-01T00:00:01.000Z</time></trkpt>
			<trkpt lat="44.751158" lon="34.395728"><time>1970-01-01T00:00:01.000Z</time></trkpt>
			<trkpt lat="44.751759" lon="34.395041"><time>1970-01-01T00:00:01.000Z</time></trkpt>
			<trkpt lat="44.751888" lon="34.394805"><time>1970-01-01T00:00:01.000Z</time></trkpt>
			<trkpt lat="44.752038" lon="34.394247"><time>1970-01-01T00:00:01.000Z</time></trkpt>
			<trkpt lat="44.752295" lon="34.393754"><time>1970-01-01T00:00:01.000Z</time></trkpt>
			<trkpt lat="44.752446" lon="34.393110"><time>1970-01-01T00:00:01.000Z</time></trkpt>
			<trkpt lat="44.752553" lon="34.391930"><time>1970-01-01T00:00:01.000Z</time></trkpt>
			<trkpt lat="44.751587" lon="34.390471"><time>1970-01-01T00:00:01.000Z</time></trkpt>
			<trkpt lat="44.751566" lon="34.390213"><time>1970-01-01T00:00:01.000Z</time></trkpt>
			<trkpt lat="44.751909" lon="34.389527"><time>1970-01-01T00:00:01.000Z</time></trkpt>
			<trkpt lat="44.752016" lon="34.389462"><time>1970-01-01T00:00:01.000Z</time></trkpt>
			<trkpt lat="44.752274" lon="34.389162"><time>1970-01-01T00:00:01.000Z</time></trkpt>
			<trkpt lat="44.752424" lon="34.388840"><time>1970-01-01T00:00:01.000Z</time></trkpt>
			<trkpt lat="44.752424" lon="34.388733"><time>1970-01-01T00:00:01.000Z</time></trkpt>
			<trkpt lat="44.752360" lon="34.388668"><time>1970-01-01T00:00:01.000Z</time></trkpt>
			<trkpt lat="44.752360" lon="34.388518"><time>1970-01-01T00:00:01.000Z</time></trkpt>
			<trkpt lat="44.752596" lon="34.388303"><time>1970-01-01T00:00:01.000Z</time></trkpt>
			<trkpt lat="44.752832" lon="34.388175"><time>1970-01-01T00:00:01.000Z</time></trkpt>
			<trkpt lat="44.753025" lon="34.387853"><time>1970-01-01T00:00:01.000Z</time></trkpt>
			<trkpt lat="44.753218" lon="34.387660"><time>1970-01-01T00:00:01.000Z</time></trkpt>
			<trkpt lat="44.753239" lon="34.387552"><time>1970-01-01T00:00:01.000Z</time></trkpt>
			<trkpt lat="44.753497" lon="34.387295"><time>1970-01-01T00:00:01.000Z</time></trkpt>
			<trkpt lat="44.753475" lon="34.387166"><time>1970-01-01T00:00:01.000Z</time></trkpt>
			<trkpt lat="44.753776" lon="34.386415"><time>1970-01-01T00:00:01.000Z</time></trkpt>
			<trkpt lat="44.753990" lon="34.386158"><time>1970-01-01T00:00:01.000Z</time></trkpt>
			<trkpt lat="44.754076" lon="34.386136"><time>1970-01-01T00:00:01.000Z</time></trkpt>
			<trkpt lat="44.754184" lon="34.386179"><time>1970-01-01T00:00:01.000Z</time></trkpt>
			<trkpt lat="44.754291" lon="34.386286"><time>1970-01-01T00:00:01.000Z</time></trkpt>
			<trkpt lat="44.754377" lon="34.386201"><time>1970-01-01T00:00:01.000Z</time></trkpt>
			<trkpt lat="44.754548" lon="34.385857"><time>1970-01-01T00:00:01.000Z</time></trkpt>
			<trkpt lat="44.754527" lon="34.385557"><time>1970-01-01T00:00:01.000Z</time></trkpt>
			<trkpt lat="44.754741" lon="34.385235"><time>1970-01-01T00:00:01.000Z</time></trkpt>
			<trkpt lat="44.755085" lon="34.385171"><time>1970-01-01T00:00:01.000Z</time></trkpt>
			<trkpt lat="44.755771" lon="34.385214"><time>1970-01-01T00:00:01.000Z</time></trkpt>
			<trkpt lat="44.756007" lon="34.385364"><time>1970-01-01T00:00:01.000Z</time></trkpt>
			<trkpt lat="44.756115" lon="34.384935"><time>1970-01-01T00:00:01.000Z</time></trkpt>
			<trkpt lat="44.756115" lon="34.384827"><time>1970-01-01T00:00:01.000Z</time></trkpt>
			<trkpt lat="44.755857" lon="34.384806"><time>1970-01-01T00:00:01.000Z</time></trkpt>
			<trkpt lat="44.755771" lon="34.384548"><time>1970-01-01T00:00:01.000Z</time></trkpt>
			<trkpt lat="44.755492" lon="34.382767"><time>1970-01-01T00:00:01.000Z</time></trkpt>
			<trkpt lat="44.755471" lon="34.382467"><time>1970-01-01T00:00:01.000Z</time></trkpt>
			<trkpt lat="44.755535" lon="34.382360"><time>1970-01-01T00:00:01.000Z</time></trkpt>
			<trkpt lat="44.755578" lon="34.382167"><time>1970-01-01T00:00:01.000Z</time></trkpt>
			<trkpt lat="44.755600" lon="34.381158"><time>1970-01-01T00:00:01.000Z</time></trkpt>
			<trkpt lat="44.755664" lon="34.380901"><time>1970-01-01T00:00:01.000Z</time></trkpt>
			<trkpt lat="44.755814" lon="34.380622"><time>1970-01-01T00:00:01.000Z</time></trkpt>
			<trkpt lat="44.755771" lon="34.380428"><time>1970-01-01T00:00:01.000Z</time></trkpt>
			<trkpt lat="44.755557" lon="34.380278"><time>1970-01-01T00:00:01.000Z</time></trkpt>
			<trkpt lat="44.755385" lon="34.380300"><time>1970-01-01T00:00:01.000Z</time></trkpt>
			<trkpt lat="44.755278" lon="34.380107"><time>1970-01-01T00:00:01.000Z</time></trkpt>
			<trkpt lat="44.755214" lon="34.379913"><time>1970-01-01T00:00:01.000Z</time></trkpt>
			<trkpt lat="44.755171" lon="34.378969"><time>1970-01-01T00:00:01.000Z</time></trkpt>
			<trkpt lat="44.755106" lon="34.378841"><time>1970-01-01T00:00:01.000Z</time></trkpt>
			<trkpt lat="44.755042" lon="34.378283"><time>1970-01-01T00:00:01.000Z</time></trkpt>
			<trkpt lat="44.754827" lon="34.378004"><time>1970-01-01T00:00:01.000Z</time></trkpt>
			<trkpt lat="44.754634" lon="34.377532"><time>1970-01-01T00:00:01.000Z</time></trkpt>
			<trkpt lat="44.754677" lon="34.377339"><time>1970-01-01T00:00:01.000Z</time></trkpt>
			<trkpt lat="44.754827" lon="34.377081"><time>1970-01-01T00:00:01.000Z</time></trkpt>
			<trkpt lat="44.755042" lon="34.375107"><time>1970-01-01T00:00:01.000Z</time></trkpt>
			<trkpt lat="44.755256" lon="34.374334"><time>1970-01-01T00:00:01.000Z</time></trkpt>
			<trkpt lat="44.755278" lon="34.374098"><time>1970-01-01T00:00:01.000Z</time></trkpt>
			<trkpt lat="44.755450" lon="34.373583"><time>1970-01-01T00:00:01.000Z</time></trkpt>
			<trkpt lat="44.755364" lon="34.372875"><time>1970-01-01T00:00:01.000Z</time></trkpt>
			<trkpt lat="44.755450" lon="34.372446"><time>1970-01-01T00:00:01.000Z</time></trkpt>
			<trkpt lat="44.755986" lon="34.371566"><time>1970-01-01T00:00:01.000Z</time></trkpt>
			<trkpt lat="44.755814" lon="34.371159"><time>1970-01-01T00:00:01.000Z</time></trkpt>
			<trkpt lat="44.755922" lon="34.370923"><time>1970-01-01T00:00:01.000Z</time></trkpt>
			<trkpt lat="44.755814" lon="34.370773"><time>1970-01-01T00:00:01.000Z</time></trkpt>
			<trkpt lat="44.755836" lon="34.370021"><time>1970-01-01T00:00:01.000Z</time></trkpt>
			<trkpt lat="44.755879" lon="34.369936"><time>1970-01-01T00:00:01.000Z</time></trkpt>
			<trkpt lat="44.756050" lon="34.369850"><time>1970-01-01T00:00:01.000Z</time></trkpt>
			<trkpt lat="44.756201" lon="34.369356"><time>1970-01-01T00:00:01.000Z</time></trkpt>
			<trkpt lat="44.756372" lon="34.368992"><time>1970-01-01T00:00:01.000Z</time></trkpt>
			<trkpt lat="44.756737" lon="34.367661"><time>1970-01-01T00:00:01.000Z</time></trkpt>
			<trkpt lat="44.756844" lon="34.367489"><time>1970-01-01T00:00:01.000Z</time></trkpt>
			<trkpt lat="44.757059" lon="34.366867"><time>1970-01-01T00:00:01.000Z</time></trkpt>
			<trkpt lat="44.757338" lon="34.366588"><time>1970-01-01T00:00:01.000Z</time></trkpt>
			<trkpt lat="44.757552" lon="34.366245"><time>1970-01-01T00:00:01.000Z</time></trkpt>
			<trkpt lat="44.757703" lon="34.365751"><time>1970-01-01T00:00:01.000Z</time></trkpt>
			<trkpt lat="44.757874" lon="34.365558"><time>1970-01-01T00:00:01.000Z</time></trkpt>
			<trkpt lat="44.758368" lon="34.364593"><time>1970-01-01T00:00:01.000Z</time></trkpt>
			<trkpt lat="44.758432" lon="34.364378"><time>1970-01-01T00:00:01.000Z</time></trkpt>
			<trkpt lat="44.758411" lon="34.363970"><time>1970-01-01T00:00:01.000Z</time></trkpt>
			<trkpt lat="44.758454" lon="34.363713"><time>1970-01-01T00:00:01.000Z</time></trkpt>
			<trkpt lat="44.758432" lon="34.363091"><time>1970-01-01T00:00:01.000Z</time></trkpt>
			<trkpt lat="44.758346" lon="34.362790"><time>1970-01-01T00:00:01.000Z</time></trkpt>
			<trkpt lat="44.758003" lon="34.362511"><time>1970-01-01T00:00:01.000Z</time></trkpt>
			<trkpt lat="44.757724" lon="34.362340"><time>1970-01-01T00:00:01.000Z</time></trkpt>
			<trkpt lat="44.757531" lon="34.361975"><time>1970-01-01T00:00:01.000Z</time></trkpt>
			<trkpt lat="44.757617" lon="34.362189"><time>1970-01-01T00:00:01.000Z</time></trkpt>
			<trkpt lat="44.757767" lon="34.362275"><time>1970-01-01T00:00:01.000Z</time></trkpt>
			<trkpt lat="44.757896" lon="34.362404"><time>1970-01-01T00:00:01.000Z</time></trkpt>
			<trkpt lat="44.757703" lon="34.362318"><time>1970-01-01T00:00:01.000Z</time></trkpt>
			<trkpt lat="44.757316" lon="34.361138"><time>1970-01-01T00:00:01.000Z</time></trkpt>
			<trkpt lat="44.757123" lon="34.360923"><time>1970-01-01T00:00:01.000Z</time></trkpt>
			<trkpt lat="44.757145" lon="34.360709"><time>1970-01-01T00:00:01.000Z</time></trkpt>
			<trkpt lat="44.757381" lon="34.360237"><time>1970-01-01T00:00:01.000Z</time></trkpt>
			<trkpt lat="44.757703" lon="34.359700"><time>1970-01-01T00:00:01.000Z</time></trkpt>
			<trkpt lat="44.757874" lon="34.359207"><time>1970-01-01T00:00:01.000Z</time></trkpt>
			<trkpt lat="44.758067" lon="34.358842"><time>1970-01-01T00:00:01.000Z</time></trkpt>
			<trkpt lat="44.758196" lon="34.358327"><time>1970-01-01T00:00:01.000Z</time></trkpt>
			<trkpt lat="44.758389" lon="34.358177"><time>1970-01-01T00:00:01.000Z</time></trkpt>
			<trkpt lat="44.758647" lon="34.357876"><time>1970-01-01T00:00:01.000Z</time></trkpt>
			<trkpt lat="44.758797" lon="34.357361"><time>1970-01-01T00:00:01.000Z</time></trkpt>
			<trkpt lat="44.758840" lon="34.357083"><time>1970-01-01T00:00:01.000Z</time></trkpt>
			<trkpt lat="44.758840" lon="34.356675"><time>1970-01-01T00:00:01.000Z</time></trkpt>
			<trkpt lat="44.758926" lon="34.356074"><time>1970-01-01T00:00:01.000Z</time></trkpt>
			<trkpt lat="44.758969" lon="34.354636"><time>1970-01-01T00:00:01.000Z</time></trkpt>
			<trkpt lat="44.759076" lon="34.354250"><time>1970-01-01T00:00:01.000Z</time></trkpt>
			<trkpt lat="44.759097" lon="34.353928"><time>1970-01-01T00:00:01.000Z</time></trkpt>
			<trkpt lat="44.759012" lon="34.353585"><time>1970-01-01T00:00:01.000Z</time></trkpt>
			<trkpt lat="44.758797" lon="34.353070"><time>1970-01-01T00:00:01.000Z</time></trkpt>
			<trkpt lat="44.758754" lon="34.352812"><time>1970-01-01T00:00:01.000Z</time></trkpt>
			<trkpt lat="44.758776" lon="34.352555"><time>1970-01-01T00:00:01.000Z</time></trkpt>
			<trkpt lat="44.758861" lon="34.352383"><time>1970-01-01T00:00:01.000Z</time></trkpt>
			<trkpt lat="44.758904" lon="34.351997"><time>1970-01-01T00:00:01.000Z</time></trkpt>
			<trkpt lat="44.759076" lon="34.351353"><time>1970-01-01T00:00:01.000Z</time></trkpt>
			<trkpt lat="44.759226" lon="34.351053"><time>1970-01-01T00:00:01.000Z</time></trkpt>
			<trkpt lat="44.759634" lon="34.350602"><time>1970-01-01T00:00:01.000Z</time></trkpt>
			<trkpt lat="44.759634" lon="34.350259"><time>1970-01-01T00:00:01.000Z</time></trkpt>
			<trkpt lat="44.759076" lon="34.348993"><time>1970-01-01T00:00:01.000Z</time></trkpt>
			<trkpt lat="44.758239" lon="34.347255"><time>1970-01-01T00:00:01.000Z</time></trkpt>
			<trkpt lat="44.757746" lon="34.346611"><time>1970-01-01T00:00:01.000Z</time></trkpt>
			<trkpt lat="44.757145" lon="34.346225"><time>1970-01-01T00:00:01.000Z</time></trkpt>
			<trkpt lat="44.756716" lon="34.345345"><time>1970-01-01T00:00:01.000Z</time></trkpt>
			<trkpt lat="44.756651" lon="34.344594"><time>1970-01-01T00:00:01.000Z</time></trkpt>
			<trkpt lat="44.756973" lon="34.344251"><time>1970-01-01T00:00:01.000Z</time></trkpt>
			<trkpt lat="44.756952" lon="34.343993"><time>1970-01-01T00:00:01.000Z</time></trkpt>
			<trkpt lat="44.756823" lon="34.343714"><time>1970-01-01T00:00:01.000Z</time></trkpt>
			<trkpt lat="44.756737" lon="34.343629"><time>1970-01-01T00:00:01.000Z</time></trkpt>
			<trkpt lat="44.756801" lon="34.343156"><time>1970-01-01T00:00:01.000Z</time></trkpt>
			<trkpt lat="44.756716" lon="34.342599"><time>1970-01-01T00:00:01.000Z</time></trkpt>
			<trkpt lat="44.756630" lon="34.342470"><time>1970-01-01T00:00:01.000Z</time></trkpt>
			<trkpt lat="44.756050" lon="34.341998"><time>1970-01-01T00:00:01.000Z</time></trkpt>
			<trkpt lat="44.755643" lon="34.341848"><time>1970-01-01T00:00:01.000Z</time></trkpt>
			<trkpt lat="44.755299" lon="34.341612"><time>1970-01-01T00:00:01.000Z</time></trkpt>
			<trkpt lat="44.755063" lon="34.341375"><time>1970-01-01T00:00:01.000Z</time></trkpt>
			<trkpt lat="44.754741" lon="34.340582"><time>1970-01-01T00:00:01.000Z</time></trkpt>
			<trkpt lat="44.754677" lon="34.340496"><time>1970-01-01T00:00:01.000Z</time></trkpt>
			<trkpt lat="44.754441" lon="34.340453"><time>1970-01-01T00:00:01.000Z</time></trkpt>
			<trkpt lat="44.754226" lon="34.340324"><time>1970-01-01T00:00:01.000Z</time></trkpt>
			<trkpt lat="44.754141" lon="34.339959"><time>1970-01-01T00:00:01.000Z</time></trkpt>
			<trkpt lat="44.754162" lon="34.339680"><time>1970-01-01T00:00:01.000Z</time></trkpt>
			<trkpt lat="44.754312" lon="34.339444"><time>1970-01-01T00:00:01.000Z</time></trkpt>
			<trkpt lat="44.754398" lon="34.339165"><time>1970-01-01T00:00:01.000Z</time></trkpt>
			<trkpt lat="44.754420" lon="34.338865"><time>1970-01-01T00:00:01.000Z</time></trkpt>
			<trkpt lat="44.754548" lon="34.338286"><time>1970-01-01T00:00:01.000Z</time></trkpt>
			<trkpt lat="44.754355" lon="34.337899"><time>1970-01-01T00:00:01.000Z</time></trkpt>
			<trkpt lat="44.754141" lon="34.337299"><time>1970-01-01T00:00:01.000Z</time></trkpt>
			<trkpt lat="44.753497" lon="34.336784"><time>1970-01-01T00:00:01.000Z</time></trkpt>
			<trkpt lat="44.753433" lon="34.336719"><time>1970-01-01T00:00:01.000Z</time></trkpt>
			<trkpt lat="44.753390" lon="34.336548"><time>1970-01-01T00:00:01.000Z</time></trkpt>
			<trkpt lat="44.753325" lon="34.336505"><time>1970-01-01T00:00:01.000Z</time></trkpt>
			<trkpt lat="44.753347" lon="34.336633"><time>1970-01-01T00:00:01.000Z</time></trkpt>
			<trkpt lat="44.753304" lon="34.336569"><time>1970-01-01T00:00:01.000Z</time></trkpt>
			<trkpt lat="44.753282" lon="34.336419"><time>1970-01-01T00:00:01.000Z</time></trkpt>
			<trkpt lat="44.753304" lon="34.336569"><time>1970-01-01T00:00:01.000Z</time></trkpt>
			<trkpt lat="44.753282" lon="34.336505"><time>1970-01-01T00:00:01.000Z</time></trkpt>
			<trkpt lat="44.753282" lon="34.336548"><time>1970-01-01T00:00:01.000Z</time></trkpt>
			<trkpt lat="44.753175" lon="34.336397"><time>1970-01-01T00:00:01.000Z</time></trkpt>
			<trkpt lat="44.753304" lon="34.336633"><time>1970-01-01T00:00:01.000Z</time></trkpt>
			<trkpt lat="44.753325" lon="34.336590"><time>1970-01-01T00:00:01.000Z</time></trkpt>
			<trkpt lat="44.753282" lon="34.336483"><time>1970-01-01T00:00:01.000Z</time></trkpt>
			<trkpt lat="44.753347" lon="34.336655"><time>1970-01-01T00:00:01.000Z</time></trkpt>
			<trkpt lat="44.753282" lon="34.336462"><time>1970-01-01T00:00:01.000Z</time></trkpt>
			<trkpt lat="44.753368" lon="34.336676"><time>1970-01-01T00:00:01.000Z</time></trkpt>
			<trkpt lat="44.753261" lon="34.336569"><time>1970-01-01T00:00:01.000Z</time></trkpt>
			<trkpt lat="44.753304" lon="34.336590"><time>1970-01-01T00:00:01.000Z</time></trkpt>
			<trkpt lat="44.752982" lon="34.336719"><time>1970-01-01T00:00:01.000Z</time></trkpt>
			<trkpt lat="44.752767" lon="34.336698"><time>1970-01-01T00:00:01.000Z</time></trkpt>
			<trkpt lat="44.752682" lon="34.336633"><time>1970-01-01T00:00:01.000Z</time></trkpt>
			<trkpt lat="44.752252" lon="34.335947"><time>1970-01-01T00:00:01.000Z</time></trkpt>
			<trkpt lat="44.751931" lon="34.335689"><time>1970-01-01T00:00:01.000Z</time></trkpt>
			<trkpt lat="44.751716" lon="34.335732"><time>1970-01-01T00:00:01.000Z</time></trkpt>
			<trkpt lat="44.751566" lon="34.335882"><time>1970-01-01T00:00:01.000Z</time></trkpt>
			<trkpt lat="44.751008" lon="34.336204"><time>1970-01-01T00:00:01.000Z</time></trkpt>
			<trkpt lat="44.750343" lon="34.335968"><time>1970-01-01T00:00:01.000Z</time></trkpt>
			<trkpt lat="44.750171" lon="34.336011"><time>1970-01-01T00:00:01.000Z</time></trkpt>
			<trkpt lat="44.749849" lon="34.335711"><time>1970-01-01T00:00:01.000Z</time></trkpt>
			<trkpt lat="44.749356" lon="34.335668"><time>1970-01-01T00:00:01.000Z</time></trkpt>
			<trkpt lat="44.749120" lon="34.335732"><time>1970-01-01T00:00:01.000Z</time></trkpt>
			<trkpt lat="44.748991" lon="34.335711"><time>1970-01-01T00:00:01.000Z</time></trkpt>
			<trkpt lat="44.748862" lon="34.335603"><time>1970-01-01T00:00:01.000Z</time></trkpt>
			<trkpt lat="44.748605" lon="34.335560"><time>1970-01-01T00:00:01.000Z</time></trkpt>
			<trkpt lat="44.748133" lon="34.335367"><time>1970-01-01T00:00:01.000Z</time></trkpt>
			<trkpt lat="44.747725" lon="34.335389"><time>1970-01-01T00:00:01.000Z</time></trkpt>
			<trkpt lat="44.747339" lon="34.335646"><time>1970-01-01T00:00:01.000Z</time></trkpt>
			<trkpt lat="44.746716" lon="34.336376"><time>1970-01-01T00:00:01.000Z</time></trkpt>
			<trkpt lat="44.746394" lon="34.336569"><time>1970-01-01T00:00:01.000Z</time></trkpt>
			<trkpt lat="44.745987" lon="34.336741"><time>1970-01-01T00:00:01.000Z</time></trkpt>
			<trkpt lat="44.745794" lon="34.336869"><time>1970-01-01T00:00:01.000Z</time></trkpt>
			<trkpt lat="44.745686" lon="34.337191"><time>1970-01-01T00:00:01.000Z</time></trkpt>
			<trkpt lat="44.745729" lon="34.337277"><time>1970-01-01T00:00:01.000Z</time></trkpt>
			<trkpt lat="44.745772" lon="34.337234"><time>1970-01-01T00:00:01.000Z</time></trkpt>
			<trkpt lat="44.745708" lon="34.337363"><time>1970-01-01T00:00:01.000Z</time></trkpt>
			<trkpt lat="44.745751" lon="34.337363"><time>1970-01-01T00:00:01.000Z</time></trkpt>
			<trkpt lat="44.745729" lon="34.337427"><time>1970-01-01T00:00:01.000Z</time></trkpt>
			<trkpt lat="44.745601" lon="34.337513"><time>1970-01-01T00:00:01.000Z</time></trkpt>
			<trkpt lat="44.745429" lon="34.337856"><time>1970-01-01T00:00:01.000Z</time></trkpt>
			<trkpt lat="44.745171" lon="34.338007"><time>1970-01-01T00:00:01.000Z</time></trkpt>
			<trkpt lat="44.744935" lon="34.338071"><time>1970-01-01T00:00:01.000Z</time></trkpt>
			<trkpt lat="44.744485" lon="34.338393"><time>1970-01-01T00:00:01.000Z</time></trkpt>
			<trkpt lat="44.744313" lon="34.338457"><time>1970-01-01T00:00:01.000Z</time></trkpt>
			<trkpt lat="44.743734" lon="34.338565"><time>1970-01-01T00:00:01.000Z</time></trkpt>
			<trkpt lat="44.743541" lon="34.338693"><time>1970-01-01T00:00:01.000Z</time></trkpt>
			<trkpt lat="44.743369" lon="34.338758"><time>1970-01-01T00:00:01.000Z</time></trkpt>
			<trkpt lat="44.743240" lon="34.338929"><time>1970-01-01T00:00:01.000Z</time></trkpt>
			<trkpt lat="44.743154" lon="34.339208"><time>1970-01-01T00:00:01.000Z</time></trkpt>
			<trkpt lat="44.742940" lon="34.339273"><time>1970-01-01T00:00:01.000Z</time></trkpt>
			<trkpt lat="44.742811" lon="34.339487"><time>1970-01-01T00:00:01.000Z</time></trkpt>
			<trkpt lat="44.742639" lon="34.339595"><time>1970-01-01T00:00:01.000Z</time></trkpt>
			<trkpt lat="44.742232" lon="34.339702"><time>1970-01-01T00:00:01.000Z</time></trkpt>
			<trkpt lat="44.741974" lon="34.339659"><time>1970-01-01T00:00:01.000Z</time></trkpt>
			<trkpt lat="44.741609" lon="34.339444"><time>1970-01-01T00:00:01.000Z</time></trkpt>
			<trkpt lat="44.741416" lon="34.339230"><time>1970-01-01T00:00:01.000Z</time></trkpt>
			<trkpt lat="44.741266" lon="34.338994"><time>1970-01-01T00:00:01.000Z</time></trkpt>
			<trkpt lat="44.741073" lon="34.338801"><time>1970-01-01T00:00:01.000Z</time></trkpt>
			<trkpt lat="44.740815" lon="34.338758"><time>1970-01-01T00:00:01.000Z</time></trkpt>
			<trkpt lat="44.740386" lon="34.338843"><time>1970-01-01T00:00:01.000Z</time></trkpt>
			<trkpt lat="44.740172" lon="34.338693"><time>1970-01-01T00:00:01.000Z</time></trkpt>
			<trkpt lat="44.740064" lon="34.338479"><time>1970-01-01T00:00:01.000Z</time></trkpt>
			<trkpt lat="44.739614" lon="34.338071"><time>1970-01-01T00:00:01.000Z</time></trkpt>
			<trkpt lat="44.739228" lon="34.337663"><time>1970-01-01T00:00:01.000Z</time></trkpt>
			<trkpt lat="44.739185" lon="34.337556"><time>1970-01-01T00:00:01.000Z</time></trkpt>
			<trkpt lat="44.738992" lon="34.337449"><time>1970-01-01T00:00:01.000Z</time></trkpt>
			<trkpt lat="44.738949" lon="34.337084"><time>1970-01-01T00:00:01.000Z</time></trkpt>
			<trkpt lat="44.738326" lon="34.336033"><time>1970-01-01T00:00:01.000Z</time></trkpt>
			<trkpt lat="44.738412" lon="34.335496"><time>1970-01-01T00:00:01.000Z</time></trkpt>
			<trkpt lat="44.738219" lon="34.335260"><time>1970-01-01T00:00:01.000Z</time></trkpt>
			<trkpt lat="44.737747" lon="34.334874"><time>1970-01-01T00:00:01.000Z</time></trkpt>
			<trkpt lat="44.737339" lon="34.335475"><time>1970-01-01T00:00:01.000Z</time></trkpt>
			<trkpt lat="44.738112" lon="34.333887"><time>1970-01-01T00:00:01.000Z</time></trkpt>
			<trkpt lat="44.737897" lon="34.333028"><time>1970-01-01T00:00:01.000Z</time></trkpt>
			<trkpt lat="44.738176" lon="34.332320"><time>1970-01-01T00:00:01.000Z</time></trkpt>
			<trkpt lat="44.738155" lon="34.331891"><time>1970-01-01T00:00:01.000Z</time></trkpt>
			<trkpt lat="44.738412" lon="34.331526"><time>1970-01-01T00:00:01.000Z</time></trkpt>
			<trkpt lat="44.738734" lon="34.331441"><time>1970-01-01T00:00:01.000Z</time></trkpt>
			<trkpt lat="44.738691" lon="34.331076"><time>1970-01-01T00:00:01.000Z</time></trkpt>
			<trkpt lat="44.739034" lon="34.330475"><time>1970-01-01T00:00:01.000Z</time></trkpt>
			<trkpt lat="44.739421" lon="34.330303"><time>1970-01-01T00:00:01.000Z</time></trkpt>
			<trkpt lat="44.739507" lon="34.329960"><time>1970-01-01T00:00:01.000Z</time></trkpt>
			<trkpt lat="44.741073" lon="34.328565"><time>1970-01-01T00:00:01.000Z</time></trkpt>
			<trkpt lat="44.741502" lon="34.328694"><time>1970-01-01T00:00:01.000Z</time></trkpt>
			<trkpt lat="44.741996" lon="34.328179"><time>1970-01-01T00:00:01.000Z</time></trkpt>
			<trkpt lat="44.742339" lon="34.328308"><time>1970-01-01T00:00:01.000Z</time></trkpt>
			<trkpt lat="44.742382" lon="34.328437"><time>1970-01-01T00:00:01.000Z</time></trkpt>
			<trkpt lat="44.743369" lon="34.328758"><time>1970-01-01T00:00:01.000Z</time></trkpt>
			<trkpt lat="44.742961" lon="34.328308"><time>1970-01-01T00:00:01.000Z</time></trkpt>
			<trkpt lat="44.742146" lon="34.327685"><time>1970-01-01T00:00:01.000Z</time></trkpt>
			<trkpt lat="44.741652" lon="34.327449"><time>1970-01-01T00:00:01.000Z</time></trkpt>
			<trkpt lat="44.741524" lon="34.327128"><time>1970-01-01T00:00:01.000Z</time></trkpt>
			<trkpt lat="44.741974" lon="34.325754"><time>1970-01-01T00:00:01.000Z</time></trkpt>
			<trkpt lat="44.741867" lon="34.325604"><time>1970-01-01T00:00:01.000Z</time></trkpt>
			<trkpt lat="44.741824" lon="34.325304"><time>1970-01-01T00:00:01.000Z</time></trkpt>
			<trkpt lat="44.741717" lon="34.325304"><time>1970-01-01T00:00:01.000Z</time></trkpt>
			<trkpt lat="44.741652" lon="34.325218"><time>1970-01-01T00:00:01.000Z</time></trkpt>
			<trkpt lat="44.741245" lon="34.325089"><time>1970-01-01T00:00:01.000Z</time></trkpt>
			<trkpt lat="44.740837" lon="34.324767"><time>1970-01-01T00:00:01.000Z</time></trkpt>
			<trkpt lat="44.740794" lon="34.324445"><time>1970-01-01T00:00:01.000Z</time></trkpt>
			<trkpt lat="44.740837" lon="34.324295"><time>1970-01-01T00:00:01.000Z</time></trkpt>
			<trkpt lat="44.741051" lon="34.324402"><time>1970-01-01T00:00:01.000Z</time></trkpt>
			<trkpt lat="44.741180" lon="34.324381"><time>1970-01-01T00:00:01.000Z</time></trkpt>
			<trkpt lat="44.741180" lon="34.324252"><time>1970-01-01T00:00:01.000Z</time></trkpt>
			<trkpt lat="44.741330" lon="34.323845"><time>1970-01-01T00:00:01.000Z</time></trkpt>
			<trkpt lat="44.741395" lon="34.323759"><time>1970-01-01T00:00:01.000Z</time></trkpt>
			<trkpt lat="44.741566" lon="34.323673"><time>1970-01-01T00:00:01.000Z</time></trkpt>
			<trkpt lat="44.741802" lon="34.323308"><time>1970-01-01T00:00:01.000Z</time></trkpt>
			<trkpt lat="44.741953" lon="34.323179"><time>1970-01-01T00:00:01.000Z</time></trkpt>
			<trkpt lat="44.741974" lon="34.323115"><time>1970-01-01T00:00:01.000Z</time></trkpt>
			<trkpt lat="44.742146" lon="34.323072"><time>1970-01-01T00:00:01.000Z</time></trkpt>
			<trkpt lat="44.742596" lon="34.322750"><time>1970-01-01T00:00:01.000Z</time></trkpt>
			<trkpt lat="44.742682" lon="34.322600"><time>1970-01-01T00:00:01.000Z</time></trkpt>
			<trkpt lat="44.742897" lon="34.322557"><time>1970-01-01T00:00:01.000Z</time></trkpt>
			<trkpt lat="44.743262" lon="34.322385"><time>1970-01-01T00:00:01.000Z</time></trkpt>
			<trkpt lat="44.743305" lon="34.322192"><time>1970-01-01T00:00:01.000Z</time></trkpt>
			<trkpt lat="44.743283" lon="34.321828"><time>1970-01-01T00:00:01.000Z</time></trkpt>
			<trkpt lat="44.743026" lon="34.320926"><time>1970-01-01T00:00:01.000Z</time></trkpt>
			<trkpt lat="44.743047" lon="34.320862"><time>1970-01-01T00:00:01.000Z</time></trkpt>
			<trkpt lat="44.743176" lon="34.320883"><time>1970-01-01T00:00:01.000Z</time></trkpt>
			<trkpt lat="44.743219" lon="34.320840"><time>1970-01-01T00:00:01.000Z</time></trkpt>
			<trkpt lat="44.743626" lon="34.320991"><time>1970-01-01T00:00:01.000Z</time></trkpt>
			<trkpt lat="44.743734" lon="34.320948"><time>1970-01-01T00:00:01.000Z</time></trkpt>
			<trkpt lat="44.743777" lon="34.320819"><time>1970-01-01T00:00:01.000Z</time></trkpt>
			<trkpt lat="44.743862" lon="34.320755"><time>1970-01-01T00:00:01.000Z</time></trkpt>
			<trkpt lat="44.744013" lon="34.320776"><time>1970-01-01T00:00:01.000Z</time></trkpt>
			<trkpt lat="44.744270" lon="34.320755"><time>1970-01-01T00:00:01.000Z</time></trkpt>
			<trkpt lat="44.744592" lon="34.320669"><time>1970-01-01T00:00:01.000Z</time></trkpt>
			<trkpt lat="44.744807" lon="34.320540"><time>1970-01-01T00:00:01.000Z</time></trkpt>
			<trkpt lat="44.744935" lon="34.320368"><time>1970-01-01T00:00:01.000Z</time></trkpt>
			<trkpt lat="44.745107" lon="34.319982"><time>1970-01-01T00:00:01.000Z</time></trkpt>
			<trkpt lat="44.745193" lon="34.319532"><time>1970-01-01T00:00:01.000Z</time></trkpt>
			<trkpt lat="44.745193" lon="34.319317"><time>1970-01-01T00:00:01.000Z</time></trkpt>
			<trkpt lat="44.745364" lon="34.318974"><time>1970-01-01T00:00:01.000Z</time></trkpt>
			<trkpt lat="44.745429" lon="34.318909"><time>1970-01-01T00:00:01.000Z</time></trkpt>
			<trkpt lat="44.745601" lon="34.318308"><time>1970-01-01T00:00:01.000Z</time></trkpt>
			<trkpt lat="44.745579" lon="34.317965"><time>1970-01-01T00:00:01.000Z</time></trkpt>
			<trkpt lat="44.745643" lon="34.317944"><time>1970-01-01T00:00:01.000Z</time></trkpt>
			<trkpt lat="44.745794" lon="34.318115"><time>1970-01-01T00:00:01.000Z</time></trkpt>
			<trkpt lat="44.745987" lon="34.318180"><time>1970-01-01T00:00:01.000Z</time></trkpt>
			<trkpt lat="44.746802" lon="34.317665"><time>1970-01-01T00:00:01.000Z</time></trkpt>
			<trkpt lat="44.747124" lon="34.317557"><time>1970-01-01T00:00:01.000Z</time></trkpt>
			<trkpt lat="44.747339" lon="34.317321"><time>1970-01-01T00:00:01.000Z</time></trkpt>
			<trkpt lat="44.747789" lon="34.317000"><time>1970-01-01T00:00:01.000Z</time></trkpt>
			<trkpt lat="44.748004" lon="34.316742"><time>1970-01-01T00:00:01.000Z</time></trkpt>
			<trkpt lat="44.748111" lon="34.316721"><time>1970-01-01T00:00:01.000Z</time></trkpt>
			<trkpt lat="44.748218" lon="34.316420"><time>1970-01-01T00:00:01.000Z</time></trkpt>
			<trkpt lat="44.748411" lon="34.316120"><time>1970-01-01T00:00:01.000Z</time></trkpt>
			<trkpt lat="44.748583" lon="34.315948"><time>1970-01-01T00:00:01.000Z</time></trkpt>
			<trkpt lat="44.748733" lon="34.315948"><time>1970-01-01T00:00:01.000Z</time></trkpt>
			<trkpt lat="44.748819" lon="34.315862"><time>1970-01-01T00:00:01.000Z</time></trkpt>
			<trkpt lat="44.748926" lon="34.315884"><time>1970-01-01T00:00:01.000Z</time></trkpt>
			<trkpt lat="44.749098" lon="34.315755"><time>1970-01-01T00:00:01.000Z</time></trkpt>
			<trkpt lat="44.749420" lon="34.315626"><time>1970-01-01T00:00:01.000Z</time></trkpt>
			<trkpt lat="44.749828" lon="34.315562"><time>1970-01-01T00:00:01.000Z</time></trkpt>
			<trkpt lat="44.750471" lon="34.315540"><time>1970-01-01T00:00:01.000Z</time></trkpt>
			<trkpt lat="44.750879" lon="34.315626"><time>1970-01-01T00:00:01.000Z</time></trkpt>
			<trkpt lat="44.751137" lon="34.315605"><time>1970-01-01T00:00:01.000Z</time></trkpt>
			<trkpt lat="44.751330" lon="34.315562"><time>1970-01-01T00:00:01.000Z</time></trkpt>
			<trkpt lat="44.751759" lon="34.315347"><time>1970-01-01T00:00:01.000Z</time></trkpt>
			<trkpt lat="44.751995" lon="34.315304"><time>1970-01-01T00:00:01.000Z</time></trkpt>
			<trkpt lat="44.752124" lon="34.315176"><time>1970-01-01T00:00:01.000Z</time></trkpt>
			<trkpt lat="44.752639" lon="34.315240"><time>1970-01-01T00:00:01.000Z</time></trkpt>
			<trkpt lat="44.752810" lon="34.315047"><time>1970-01-01T00:00:01.000Z</time></trkpt>
			<trkpt lat="44.752896" lon="34.315025"><time>1970-01-01T00:00:01.000Z</time></trkpt>
			<trkpt lat="44.753239" lon="34.315047"><time>1970-01-01T00:00:01.000Z</time></trkpt>
			<trkpt lat="44.753518" lon="34.315197"><time>1970-01-01T00:00:01.000Z</time></trkpt>
			<trkpt lat="44.753604" lon="34.315283"><time>1970-01-01T00:00:01.000Z</time></trkpt>
			<trkpt lat="44.753754" lon="34.315583"><time>1970-01-01T00:00:01.000Z</time></trkpt>
			<trkpt lat="44.753712" lon="34.315562"><time>1970-01-01T00:00:01.000Z</time></trkpt>
			<trkpt lat="44.753712" lon="34.315605"><time>1970-01-01T00:00:01.000Z</time></trkpt>
			<trkpt lat="44.753862" lon="34.315347"><time>1970-01-01T00:00:01.000Z</time></trkpt>
			<trkpt lat="44.754055" lon="34.315326"><time>1970-01-01T00:00:01.000Z</time></trkpt>
			<trkpt lat="44.754098" lon="34.315262"><time>1970-01-01T00:00:01.000Z</time></trkpt>
			<trkpt lat="44.754184" lon="34.315262"><time>1970-01-01T00:00:01.000Z</time></trkpt>
			<trkpt lat="44.754226" lon="34.315219"><time>1970-01-01T00:00:01.000Z</time></trkpt>
			<trkpt lat="44.754420" lon="34.315283"><time>1970-01-01T00:00:01.000Z</time></trkpt>
			<trkpt lat="44.754548" lon="34.315283"><time>1970-01-01T00:00:01.000Z</time></trkpt>
			<trkpt lat="44.754699" lon="34.315197"><time>1970-01-01T00:00:01.000Z</time></trkpt>
			<trkpt lat="44.755106" lon="34.315219"><time>1970-01-01T00:00:01.000Z</time></trkpt>
			<trkpt lat="44.755342" lon="34.315197"><time>1970-01-01T00:00:01.000Z</time></trkpt>
			<trkpt lat="44.755686" lon="34.315068"><time>1970-01-01T00:00:01.000Z</time></trkpt>
			<trkpt lat="44.756072" lon="34.314682"><time>1970-01-01T00:00:01.000Z</time></trkpt>
			<trkpt lat="44.756308" lon="34.314725"><time>1970-01-01T00:00:01.000Z</time></trkpt>
			<trkpt lat="44.756308" lon="34.314639"><time>1970-01-01T00:00:01.000Z</time></trkpt>
			<trkpt lat="44.756029" lon="34.314081"><time>1970-01-01T00:00:01.000Z</time></trkpt>
			<trkpt lat="44.755664" lon="34.313995"><time>1970-01-01T00:00:01.000Z</time></trkpt>
			<trkpt lat="44.755600" lon="34.314017"><time>1970-01-01T00:00:01.000Z</time></trkpt>
			<trkpt lat="44.755600" lon="34.314103"><time>1970-01-01T00:00:01.000Z</time></trkpt>
			<trkpt lat="44.755664" lon="34.314210"><time>1970-01-01T00:00:01.000Z</time></trkpt>
			<trkpt lat="44.755643" lon="34.314425"><time>1970-01-01T00:00:01.000Z</time></trkpt>
			<trkpt lat="44.755793" lon="34.314639"><time>1970-01-01T00:00:01.000Z</time></trkpt>
			<trkpt lat="44.756158" lon="34.314661"><time>1970-01-01T00:00:01.000Z</time></trkpt>
			<trkpt lat="44.756415" lon="34.314768"><time>1970-01-01T00:00:01.000Z</time></trkpt>
			<trkpt lat="44.756673" lon="34.314489"><time>1970-01-01T00:00:01.000Z</time></trkpt>
			<trkpt lat="44.756758" lon="34.314081"><time>1970-01-01T00:00:01.000Z</time></trkpt>
			<trkpt lat="44.756909" lon="34.313802"><time>1970-01-01T00:00:01.000Z</time></trkpt>
			<trkpt lat="44.756887" lon="34.313674"><time>1970-01-01T00:00:01.000Z</time></trkpt>
			<trkpt lat="44.756801" lon="34.313631"><time>1970-01-01T00:00:01.000Z</time></trkpt>
			<trkpt lat="44.756780" lon="34.313202"><time>1970-01-01T00:00:01.000Z</time></trkpt>
			<trkpt lat="44.756866" lon="34.313180"><time>1970-01-01T00:00:01.000Z</time></trkpt>
			<trkpt lat="44.757016" lon="34.313287"><time>1970-01-01T00:00:01.000Z</time></trkpt>
			<trkpt lat="44.757080" lon="34.313244"><time>1970-01-01T00:00:01.000Z</time></trkpt>
			<trkpt lat="44.757231" lon="34.313287"><time>1970-01-01T00:00:01.000Z</time></trkpt>
			<trkpt lat="44.757424" lon="34.313266"><time>1970-01-01T00:00:01.000Z</time></trkpt>
			<trkpt lat="44.757638" lon="34.313373"><time>1970-01-01T00:00:01.000Z</time></trkpt>
			<trkpt lat="44.757874" lon="34.313180"><time>1970-01-01T00:00:01.000Z</time></trkpt>
			<trkpt lat="44.757939" lon="34.312966"><time>1970-01-01T00:00:01.000Z</time></trkpt>
			<trkpt lat="44.758110" lon="34.312858"><time>1970-01-01T00:00:01.000Z</time></trkpt>
			<trkpt lat="44.758175" lon="34.312880"><time>1970-01-01T00:00:01.000Z</time></trkpt>
			<trkpt lat="44.758454" lon="34.312536"><time>1970-01-01T00:00:01.000Z</time></trkpt>
			<trkpt lat="44.758840" lon="34.312322"><time>1970-01-01T00:00:01.000Z</time></trkpt>
			<trkpt lat="44.759033" lon="34.312236"><time>1970-01-01T00:00:01.000Z</time></trkpt>
			<trkpt lat="44.759054" lon="34.312257"><time>1970-01-01T00:00:01.000Z</time></trkpt>
			<trkpt lat="44.759140" lon="34.312107"><time>1970-01-01T00:00:01.000Z</time></trkpt>
			<trkpt lat="44.759248" lon="34.312064"><time>1970-01-01T00:00:01.000Z</time></trkpt>
			<trkpt lat="44.759398" lon="34.311850"><time>1970-01-01T00:00:01.000Z</time></trkpt>
			<trkpt lat="44.759548" lon="34.311785"><time>1970-01-01T00:00:01.000Z</time></trkpt>
			<trkpt lat="44.759634" lon="34.311807"><time>1970-01-01T00:00:01.000Z</time></trkpt>
			<trkpt lat="44.759720" lon="34.311785"><time>1970-01-01T00:00:01.000Z</time></trkpt>
			<trkpt lat="44.759827" lon="34.311635"><time>1970-01-01T00:00:01.000Z</time></trkpt>
			<trkpt lat="44.760020" lon="34.311549"><time>1970-01-01T00:00:01.000Z</time></trkpt>
			<trkpt lat="44.760149" lon="34.311442"><time>1970-01-01T00:00:01.000Z</time></trkpt>
			<trkpt lat="44.760363" lon="34.311485"><time>1970-01-01T00:00:01.000Z</time></trkpt>
			<trkpt lat="44.760492" lon="34.311442"><time>1970-01-01T00:00:01.000Z</time></trkpt>
			<trkpt lat="44.760578" lon="34.311463"><time>1970-01-01T00:00:01.000Z</time></trkpt>
			<trkpt lat="44.760642" lon="34.311399"><time>1970-01-01T00:00:01.000Z</time></trkpt>
			<trkpt lat="44.760256" lon="34.311506"><time>1970-01-01T00:00:01.000Z</time></trkpt>
			<trkpt lat="44.761114" lon="34.311249"><time>1970-01-01T00:00:01.000Z</time></trkpt>
			<trkpt lat="44.761329" lon="34.311227"><time>1970-01-01T00:00:01.000Z</time></trkpt>
			<trkpt lat="44.761629" lon="34.311270"><time>1970-01-01T00:00:01.000Z</time></trkpt>
			<trkpt lat="44.762059" lon="34.311185"><time>1970-01-01T00:00:01.000Z</time></trkpt>
			<trkpt lat="44.762144" lon="34.311227"><time>1970-01-01T00:00:01.000Z</time></trkpt>
			<trkpt lat="44.762230" lon="34.311185"><time>1970-01-01T00:00:01.000Z</time></trkpt>
			<trkpt lat="44.762295" lon="34.311249"><time>1970-01-01T00:00:01.000Z</time></trkpt>
			<trkpt lat="44.762724" lon="34.311335"><time>1970-01-01T00:00:01.000Z</time></trkpt>
			<trkpt lat="44.762767" lon="34.311292"><time>1970-01-01T00:00:01.000Z</time></trkpt>
			<trkpt lat="44.762917" lon="34.311249"><time>1970-01-01T00:00:01.000Z</time></trkpt>
			<trkpt lat="44.763367" lon="34.311313"><time>1970-01-01T00:00:01.000Z</time></trkpt>
			<trkpt lat="44.764140" lon="34.311506"><time>1970-01-01T00:00:01.000Z</time></trkpt>
			<trkpt lat="44.764526" lon="34.311528"><time>1970-01-01T00:00:01.000Z</time></trkpt>
			<trkpt lat="44.764698" lon="34.311571"><time>1970-01-01T00:00:01.000Z</time></trkpt>
			<trkpt lat="44.764977" lon="34.311485"><time>1970-01-01T00:00:01.000Z</time></trkpt>
			<trkpt lat="44.765127" lon="34.311506"><time>1970-01-01T00:00:01.000Z</time></trkpt>
			<trkpt lat="44.765234" lon="34.311421"><time>1970-01-01T00:00:01.000Z</time></trkpt>
			<trkpt lat="44.765513" lon="34.311399"><time>1970-01-01T00:00:01.000Z</time></trkpt>
			<trkpt lat="44.765835" lon="34.311163"><time>1970-01-01T00:00:01.000Z</time></trkpt>
			<trkpt lat="44.765942" lon="34.311142"><time>1970-01-01T00:00:01.000Z</time></trkpt>
			<trkpt lat="44.766479" lon="34.311270"><time>1970-01-01T00:00:01.000Z</time></trkpt>
			<trkpt lat="44.766479" lon="34.311313"><time>1970-01-01T00:00:01.000Z</time></trkpt>
			<trkpt lat="44.766586" lon="34.311292"><time>1970-01-01T00:00:01.000Z</time></trkpt>
			<trkpt lat="44.766865" lon="34.311356"><time>1970-01-01T00:00:01.000Z</time></trkpt>
			<trkpt lat="44.767101" lon="34.311506"><time>1970-01-01T00:00:01.000Z</time></trkpt>
			<trkpt lat="44.767251" lon="34.311485"><time>1970-01-01T00:00:01.000Z</time></trkpt>
			<trkpt lat="44.767423" lon="34.311528"><time>1970-01-01T00:00:01.000Z</time></trkpt>
			<trkpt lat="44.767680" lon="34.311742"><time>1970-01-01T00:00:01.000Z</time></trkpt>
			<trkpt lat="44.768002" lon="34.311678"><time>1970-01-01T00:00:01.000Z</time></trkpt>
			<trkpt lat="44.768496" lon="34.311978"><time>1970-01-01T00:00:01.000Z</time></trkpt>
			<trkpt lat="44.768732" lon="34.312021"><time>1970-01-01T00:00:01.000Z</time></trkpt>
			<trkpt lat="44.769011" lon="34.312172"><time>1970-01-01T00:00:01.000Z</time></trkpt>
			<trkpt lat="44.769440" lon="34.312322"><time>1970-01-01T00:00:01.000Z</time></trkpt>
			<trkpt lat="44.769569" lon="34.312300"><time>1970-01-01T00:00:01.000Z</time></trkpt>
			<trkpt lat="44.769633" lon="34.312343"><time>1970-01-01T00:00:01.000Z</time></trkpt>
			<trkpt lat="44.769805" lon="34.312687"><time>1970-01-01T00:00:01.000Z</time></trkpt>
			<trkpt lat="44.769805" lon="34.312622"><time>1970-01-01T00:00:01.000Z</time></trkpt>
			<trkpt lat="44.770084" lon="34.312515"><time>1970-01-01T00:00:01.000Z</time></trkpt>
			<trkpt lat="44.770448" lon="34.312515"><time>1970-01-01T00:00:01.000Z</time></trkpt>
			<trkpt lat="44.770663" lon="34.312472"><time>1970-01-01T00:00:01.000Z</time></trkpt>
			<trkpt lat="44.770749" lon="34.312064"><time>1970-01-01T00:00:01.000Z</time></trkpt>
			<trkpt lat="44.770835" lon="34.311893"><time>1970-01-01T00:00:01.000Z</time></trkpt>
			<trkpt lat="44.771157" lon="34.311485"><time>1970-01-01T00:00:01.000Z</time></trkpt>
			<trkpt lat="44.771285" lon="34.311163"><time>1970-01-01T00:00:01.000Z</time></trkpt>
			<trkpt lat="44.771564" lon="34.311056"><time>1970-01-01T00:00:01.000Z</time></trkpt>
			<trkpt lat="44.771929" lon="34.310970"><time>1970-01-01T00:00:01.000Z</time></trkpt>
			<trkpt lat="44.772036" lon="34.311034"><time>1970-01-01T00:00:01.000Z</time></trkpt>
			<trkpt lat="44.772165" lon="34.310970"><time>1970-01-01T00:00:01.000Z</time></trkpt>
			<trkpt lat="44.772573" lon="34.310455"><time>1970-01-01T00:00:01.000Z</time></trkpt>
			<trkpt lat="44.772744" lon="34.310412"><time>1970-01-01T00:00:01.000Z</time></trkpt>
			<trkpt lat="44.772809" lon="34.310326"><time>1970-01-01T00:00:01.000Z</time></trkpt>
			<trkpt lat="44.773066" lon="34.310155"><time>1970-01-01T00:00:01.000Z</time></trkpt>
			<trkpt lat="44.773217" lon="34.310155"><time>1970-01-01T00:00:01.000Z</time></trkpt>
			<trkpt lat="44.773474" lon="34.310026"><time>1970-01-01T00:00:01.000Z</time></trkpt>
			<trkpt lat="44.773603" lon="34.310026"><time>1970-01-01T00:00:01.000Z</time></trkpt>
			<trkpt lat="44.773689" lon="34.309940"><time>1970-01-01T00:00:01.000Z</time></trkpt>
			<trkpt lat="44.773817" lon="34.309919"><time>1970-01-01T00:00:01.000Z</time></trkpt>
			<trkpt lat="44.774354" lon="34.310090"><time>1970-01-01T00:00:01.000Z</time></trkpt>
			<trkpt lat="44.774504" lon="34.310197"><time>1970-01-01T00:00:01.000Z</time></trkpt>
			<trkpt lat="44.774654" lon="34.310176"><time>1970-01-01T00:00:01.000Z</time></trkpt>
			<trkpt lat="44.774890" lon="34.309983"><time>1970-01-01T00:00:01.000Z</time></trkpt>
			<trkpt lat="44.775040" lon="34.309940"><time>1970-01-01T00:00:01.000Z</time></trkpt>
			<trkpt lat="44.775148" lon="34.309833"><time>1970-01-01T00:00:01.000Z</time></trkpt>
			<trkpt lat="44.775813" lon="34.309640"><time>1970-01-01T00:00:01.000Z</time></trkpt>
			<trkpt lat="44.776027" lon="34.309468"><time>1970-01-01T00:00:01.000Z</time></trkpt>
			<trkpt lat="44.776285" lon="34.309404"><time>1970-01-01T00:00:01.000Z</time></trkpt>
			<trkpt lat="44.776585" lon="34.309103"><time>1970-01-01T00:00:01.000Z</time></trkpt>
			<trkpt lat="44.776693" lon="34.309125"><time>1970-01-01T00:00:01.000Z</time></trkpt>
			<trkpt lat="44.776800" lon="34.309082"><time>1970-01-01T00:00:01.000Z</time></trkpt>
			<trkpt lat="44.777057" lon="34.309125"><time>1970-01-01T00:00:01.000Z</time></trkpt>
			<trkpt lat="44.777465" lon="34.309318"><time>1970-01-01T00:00:01.000Z</time></trkpt>
			<trkpt lat="44.777830" lon="34.309253"><time>1970-01-01T00:00:01.000Z</time></trkpt>
			<trkpt lat="44.778002" lon="34.309103"><time>1970-01-01T00:00:01.000Z</time></trkpt>
			<trkpt lat="44.778345" lon="34.308674"><time>1970-01-01T00:00:01.000Z</time></trkpt>
			<trkpt lat="44.778645" lon="34.308502"><time>1970-01-01T00:00:01.000Z</time></trkpt>
			<trkpt lat="44.778860" lon="34.308910"><time>1970-01-01T00:00:01.000Z</time></trkpt>
			<trkpt lat="44.778967" lon="34.309039"><time>1970-01-01T00:00:01.000Z</time></trkpt>
			<trkpt lat="44.779418" lon="34.309382"><time>1970-01-01T00:00:01.000Z</time></trkpt>
			<trkpt lat="44.779611" lon="34.309919"><time>1970-01-01T00:00:01.000Z</time></trkpt>
			<trkpt lat="44.779654" lon="34.310391"><time>1970-01-01T00:00:01.000Z</time></trkpt>
			<trkpt lat="44.779697" lon="34.310455"><time>1970-01-01T00:00:01.000Z</time></trkpt>
			<trkpt lat="44.780190" lon="34.309961"><time>1970-01-01T00:00:01.000Z</time></trkpt>
			<trkpt lat="44.780255" lon="34.309940"><time>1970-01-01T00:00:01.000Z</time></trkpt>
			<trkpt lat="44.780534" lon="34.310004"><time>1970-01-01T00:00:01.000Z</time></trkpt>
			<trkpt lat="44.780598" lon="34.310155"><time>1970-01-01T00:00:01.000Z</time></trkpt>
			<trkpt lat="44.780705" lon="34.310648"><time>1970-01-01T00:00:01.000Z</time></trkpt>
			<trkpt lat="44.780791" lon="34.310734"><time>1970-01-01T00:00:01.000Z</time></trkpt>
			<trkpt lat="44.780984" lon="34.310605"><time>1970-01-01T00:00:01.000Z</time></trkpt>
			<trkpt lat="44.781177" lon="34.310670"><time>1970-01-01T00:00:01.000Z</time></trkpt>
			<trkpt lat="44.781735" lon="34.311442"><time>1970-01-01T00:00:01.000Z</time></trkpt>
			<trkpt lat="44.781993" lon="34.311978"><time>1970-01-01T00:00:01.000Z</time></trkpt>
			<trkpt lat="44.782336" lon="34.312279"><time>1970-01-01T00:00:01.000Z</time></trkpt>
			<trkpt lat="44.783473" lon="34.312107"><time>1970-01-01T00:00:01.000Z</time></trkpt>
			<trkpt lat="44.783624" lon="34.312000"><time>1970-01-01T00:00:01.000Z</time></trkpt>
			<trkpt lat="44.784074" lon="34.311485"><time>1970-01-01T00:00:01.000Z</time></trkpt>
			<trkpt lat="44.784546" lon="34.311249"><time>1970-01-01T00:00:01.000Z</time></trkpt>
			<trkpt lat="44.785340" lon="34.310970"><time>1970-01-01T00:00:01.000Z</time></trkpt>
			<trkpt lat="44.785705" lon="34.310798"><time>1970-01-01T00:00:01.000Z</time></trkpt>
			<trkpt lat="44.786842" lon="34.309897"><time>1970-01-01T00:00:01.000Z</time></trkpt>
			<trkpt lat="44.787207" lon="34.309554"><time>1970-01-01T00:00:01.000Z</time></trkpt>
			<trkpt lat="44.787743" lon="34.308846"><time>1970-01-01T00:00:01.000Z</time></trkpt>
			<trkpt lat="44.788409" lon="34.307751"><time>1970-01-01T00:00:01.000Z</time></trkpt>
			<trkpt lat="44.789460" lon="34.306550"><time>1970-01-01T00:00:01.000Z</time></trkpt>
			<trkpt lat="44.789954" lon="34.305305"><time>1970-01-01T00:00:01.000Z</time></trkpt>
			<trkpt lat="44.790168" lon="34.304876"><time>1970-01-01T00:00:01.000Z</time></trkpt>
			<trkpt lat="44.790597" lon="34.304425"><time>1970-01-01T00:00:01.000Z</time></trkpt>
			<trkpt lat="44.790747" lon="34.304318"><time>1970-01-01T00:00:01.000Z</time></trkpt>
			<trkpt lat="44.791284" lon="34.304146"><time>1970-01-01T00:00:01.000Z</time></trkpt>
			<trkpt lat="44.791456" lon="34.304039"><time>1970-01-01T00:00:01.000Z</time></trkpt>
			<trkpt lat="44.791584" lon="34.303910"><time>1970-01-01T00:00:01.000Z</time></trkpt>
			<trkpt lat="44.792400" lon="34.303953"><time>1970-01-01T00:00:01.000Z</time></trkpt>
			<trkpt lat="44.792893" lon="34.304039"><time>1970-01-01T00:00:01.000Z</time></trkpt>
			<trkpt lat="44.793387" lon="34.304318"><time>1970-01-01T00:00:01.000Z</time></trkpt>
			<trkpt lat="44.794610" lon="34.305133"><time>1970-01-01T00:00:01.000Z</time></trkpt>
			<trkpt lat="44.794996" lon="34.305348"><time>1970-01-01T00:00:01.000Z</time></trkpt>
			<trkpt lat="44.795189" lon="34.305412"><time>1970-01-01T00:00:01.000Z</time></trkpt>
			<trkpt lat="44.796262" lon="34.305455"><time>1970-01-01T00:00:01.000Z</time></trkpt>
			<trkpt lat="44.796369" lon="34.305391"><time>1970-01-01T00:00:01.000Z</time></trkpt>
			<trkpt lat="44.796477" lon="34.305455"><time>1970-01-01T00:00:01.000Z</time></trkpt>
			<trkpt lat="44.796627" lon="34.305455"><time>1970-01-01T00:00:01.000Z</time></trkpt>
			<trkpt lat="44.797228" lon="34.305670"><time>1970-01-01T00:00:01.000Z</time></trkpt>
			<trkpt lat="44.798065" lon="34.306035"><time>1970-01-01T00:00:01.000Z</time></trkpt>
			<trkpt lat="44.798279" lon="34.306099"><time>1970-01-01T00:00:01.000Z</time></trkpt>
			<trkpt lat="44.798472" lon="34.306035"><time>1970-01-01T00:00:01.000Z</time></trkpt>
			<trkpt lat="44.798901" lon="34.305455"><time>1970-01-01T00:00:01.000Z</time></trkpt>
			<trkpt lat="44.798923" lon="34.305370"><time>1970-01-01T00:00:01.000Z</time></trkpt>
			<trkpt lat="44.799009" lon="34.305284"><time>1970-01-01T00:00:01.000Z</time></trkpt>
			<trkpt lat="44.799202" lon="34.304897"><time>1970-01-01T00:00:01.000Z</time></trkpt>
			<trkpt lat="44.799824" lon="34.303996"><time>1970-01-01T00:00:01.000Z</time></trkpt>
			<trkpt lat="44.801305" lon="34.301593"><time>1970-01-01T00:00:01.000Z</time></trkpt>
			<trkpt lat="44.801348" lon="34.301293"><time>1970-01-01T00:00:01.000Z</time></trkpt>
			<trkpt lat="44.801412" lon="34.299082"><time>1970-01-01T00:00:01.000Z</time></trkpt>
			<trkpt lat="44.801390" lon="34.298782"><time>1970-01-01T00:00:01.000Z</time></trkpt>
			<trkpt lat="44.801305" lon="34.298439"><time>1970-01-01T00:00:01.000Z</time></trkpt>
			<trkpt lat="44.800768" lon="34.297366"><time>1970-01-01T00:00:01.000Z</time></trkpt>
			<trkpt lat="44.800639" lon="34.296958"><time>1970-01-01T00:00:01.000Z</time></trkpt>
			<trkpt lat="44.800446" lon="34.295907"><time>1970-01-01T00:00:01.000Z</time></trkpt>
			<trkpt lat="44.800489" lon="34.295821"><time>1970-01-01T00:00:01.000Z</time></trkpt>
			<trkpt lat="44.800511" lon="34.295842"><time>1970-01-01T00:00:01.000Z</time></trkpt>
			<trkpt lat="44.800489" lon="34.295885"><time>1970-01-01T00:00:01.000Z</time></trkpt>
			<trkpt lat="44.800446" lon="34.295864"><time>1970-01-01T00:00:01.000Z</time></trkpt>
			<trkpt lat="44.800403" lon="34.295778"><time>1970-01-01T00:00:01.000Z</time></trkpt>
			<trkpt lat="44.800425" lon="34.295799"><time>1970-01-01T00:00:01.000Z</time></trkpt>
			<trkpt lat="44.800318" lon="34.294297"><time>1970-01-01T00:00:01.000Z</time></trkpt>
			<trkpt lat="44.800232" lon="34.293868"><time>1970-01-01T00:00:01.000Z</time></trkpt>
			<trkpt lat="44.800039" lon="34.293203"><time>1970-01-01T00:00:01.000Z</time></trkpt>
			<trkpt lat="44.799438" lon="34.291958"><time>1970-01-01T00:00:01.000Z</time></trkpt>
			<trkpt lat="44.799288" lon="34.291551"><time>1970-01-01T00:00:01.000Z</time></trkpt>
			<trkpt lat="44.799030" lon="34.291186"><time>1970-01-01T00:00:01.000Z</time></trkpt>
			<trkpt lat="44.798794" lon="34.290607"><time>1970-01-01T00:00:01.000Z</time></trkpt>
			<trkpt lat="44.801262" lon="34.289727"><time>1970-01-01T00:00:01.000Z</time></trkpt>
			<trkpt lat="44.801562" lon="34.289233"><time>1970-01-01T00:00:01.000Z</time></trkpt>
			<trkpt lat="44.801305" lon="34.288761"><time>1970-01-01T00:00:01.000Z</time></trkpt>
			<trkpt lat="44.800039" lon="34.287560"><time>1970-01-01T00:00:01.000Z</time></trkpt>
			<trkpt lat="44.798365" lon="34.286122"><time>1970-01-01T00:00:01.000Z</time></trkpt>
			<trkpt lat="44.797335" lon="34.285714"><time>1970-01-01T00:00:01.000Z</time></trkpt>
			<trkpt lat="44.797185" lon="34.284942"><time>1970-01-01T00:00:01.000Z</time></trkpt>
			<trkpt lat="44.797378" lon="34.284019"><time>1970-01-01T00:00:01.000Z</time></trkpt>
			<trkpt lat="44.797271" lon="34.282925"><time>1970-01-01T00:00:01.000Z</time></trkpt>
			<trkpt lat="44.797035" lon="34.281916"><time>1970-01-01T00:00:01.000Z</time></trkpt>
			<trkpt lat="44.796756" lon="34.281230"><time>1970-01-01T00:00:01.000Z</time></trkpt>
			<trkpt lat="44.796734" lon="34.281058"><time>1970-01-01T00:00:01.000Z</time></trkpt>
			<trkpt lat="44.796970" lon="34.280822"><time>1970-01-01T00:00:01.000Z</time></trkpt>
			<trkpt lat="44.797185" lon="34.280758"><time>1970-01-01T00:00:01.000Z</time></trkpt>
			<trkpt lat="44.797335" lon="34.280586"><time>1970-01-01T00:00:01.000Z</time></trkpt>
			<trkpt lat="44.797743" lon="34.279749"><time>1970-01-01T00:00:01.000Z</time></trkpt>
			<trkpt lat="44.797764" lon="34.279577"><time>1970-01-01T00:00:01.000Z</time></trkpt>
			<trkpt lat="44.797485" lon="34.279427"><time>1970-01-01T00:00:01.000Z</time></trkpt>
			<trkpt lat="44.797228" lon="34.278354"><time>1970-01-01T00:00:01.000Z</time></trkpt>
			<trkpt lat="44.797077" lon="34.278075"><time>1970-01-01T00:00:01.000Z</time></trkpt>
			<trkpt lat="44.796326" lon="34.277753"><time>1970-01-01T00:00:01.000Z</time></trkpt>
			<trkpt lat="44.796176" lon="34.277732"><time>1970-01-01T00:00:01.000Z</time></trkpt>
			<trkpt lat="44.795962" lon="34.277539"><time>1970-01-01T00:00:01.000Z</time></trkpt>
			<trkpt lat="44.795769" lon="34.277303"><time>1970-01-01T00:00:01.000Z</time></trkpt>
			<trkpt lat="44.795726" lon="34.277131"><time>1970-01-01T00:00:01.000Z</time></trkpt>
			<trkpt lat="44.795790" lon="34.276702"><time>1970-01-01T00:00:01.000Z</time></trkpt>
			<trkpt lat="44.795747" lon="34.276402"><time>1970-01-01T00:00:01.000Z</time></trkpt>
			<trkpt lat="44.795597" lon="34.276230"><time>1970-01-01T00:00:01.000Z</time></trkpt>
			<trkpt lat="44.795790" lon="34.276037"><time>1970-01-01T00:00:01.000Z</time></trkpt>
			<trkpt lat="44.795747" lon="34.275694"><time>1970-01-01T00:00:01.000Z</time></trkpt>
			<trkpt lat="44.795575" lon="34.275522"><time>1970-01-01T00:00:01.000Z</time></trkpt>
			<trkpt lat="44.795618" lon="34.275179"><time>1970-01-01T00:00:01.000Z</time></trkpt>
			<trkpt lat="44.795447" lon="34.275007"><time>1970-01-01T00:00:01.000Z</time></trkpt>
			<trkpt lat="44.795382" lon="34.275007"><time>1970-01-01T00:00:01.000Z</time></trkpt>
			<trkpt lat="44.795254" lon="34.274835"><time>1970-01-01T00:00:01.000Z</time></trkpt>
			<trkpt lat="44.794996" lon="34.273848"><time>1970-01-01T00:00:01.000Z</time></trkpt>
			<trkpt lat="44.795189" lon="34.273097"><time>1970-01-01T00:00:01.000Z</time></trkpt>
			<trkpt lat="44.795232" lon="34.272711"><time>1970-01-01T00:00:01.000Z</time></trkpt>
			<trkpt lat="44.795211" lon="34.272518"><time>1970-01-01T00:00:01.000Z</time></trkpt>
			<trkpt lat="44.795254" lon="34.272282"><time>1970-01-01T00:00:01.000Z</time></trkpt>
			<trkpt lat="44.795854" lon="34.271638"><time>1970-01-01T00:00:01.000Z</time></trkpt>
			<trkpt lat="44.795876" lon="34.271488"><time>1970-01-01T00:00:01.000Z</time></trkpt>
			<trkpt lat="44.795726" lon="34.271080"><time>1970-01-01T00:00:01.000Z</time></trkpt>
			<trkpt lat="44.795726" lon="34.270866"><time>1970-01-01T00:00:01.000Z</time></trkpt>
			<trkpt lat="44.795876" lon="34.270501"><time>1970-01-01T00:00:01.000Z</time></trkpt>
			<trkpt lat="44.796305" lon="34.269943"><time>1970-01-01T00:00:01.000Z</time></trkpt>
			<trkpt lat="44.796391" lon="34.266939"><time>1970-01-01T00:00:01.000Z</time></trkpt>
			<trkpt lat="44.795382" lon="34.265587"><time>1970-01-01T00:00:01.000Z</time></trkpt>
			<trkpt lat="44.794288" lon="34.264643"><time>1970-01-01T00:00:01.000Z</time></trkpt>
			<trkpt lat="44.794717" lon="34.264149"><time>1970-01-01T00:00:01.000Z</time></trkpt>
			<trkpt lat="44.794696" lon="34.263720"><time>1970-01-01T00:00:01.000Z</time></trkpt>
			<trkpt lat="44.794567" lon="34.263034"><time>1970-01-01T00:00:01.000Z</time></trkpt>
			<trkpt lat="44.794610" lon="34.262905"><time>1970-01-01T00:00:01.000Z</time></trkpt>
			<trkpt lat="44.794545" lon="34.262862"><time>1970-01-01T00:00:01.000Z</time></trkpt>
			<trkpt lat="44.794567" lon="34.262626"><time>1970-01-01T00:00:01.000Z</time></trkpt>
			<trkpt lat="44.794781" lon="34.262304"><time>1970-01-01T00:00:01.000Z</time></trkpt>
			<trkpt lat="44.794739" lon="34.262197"><time>1970-01-01T00:00:01.000Z</time></trkpt>
			<trkpt lat="44.794760" lon="34.262132"><time>1970-01-01T00:00:01.000Z</time></trkpt>
			<trkpt lat="44.795039" lon="34.261810"><time>1970-01-01T00:00:01.000Z</time></trkpt>
			<trkpt lat="44.795232" lon="34.261446"><time>1970-01-01T00:00:01.000Z</time></trkpt>
			<trkpt lat="44.795232" lon="34.261338"><time>1970-01-01T00:00:01.000Z</time></trkpt>
			<trkpt lat="44.795361" lon="34.260931"><time>1970-01-01T00:00:01.000Z</time></trkpt>
			<trkpt lat="44.795404" lon="34.260909"><time>1970-01-01T00:00:01.000Z</time></trkpt>
			<trkpt lat="44.795640" lon="34.260952"><time>1970-01-01T00:00:01.000Z</time></trkpt>
			<trkpt lat="44.796176" lon="34.260759"><time>1970-01-01T00:00:01.000Z</time></trkpt>
			<trkpt lat="44.796284" lon="34.260780"><time>1970-01-01T00:00:01.000Z</time></trkpt>
			<trkpt lat="44.796713" lon="34.260759"><time>1970-01-01T00:00:01.000Z</time></trkpt>
			<trkpt lat="44.796820" lon="34.260716"><time>1970-01-01T00:00:01.000Z</time></trkpt>
			<trkpt lat="44.796820" lon="34.260673"><time>1970-01-01T00:00:01.000Z</time></trkpt>
			<trkpt lat="44.796841" lon="34.260780"><time>1970-01-01T00:00:01.000Z</time></trkpt>
			<trkpt lat="44.797399" lon="34.260351"><time>1970-01-01T00:00:01.000Z</time></trkpt>
			<trkpt lat="44.797635" lon="34.260287"><time>1970-01-01T00:00:01.000Z</time></trkpt>
			<trkpt lat="44.797721" lon="34.260051"><time>1970-01-01T00:00:01.000Z</time></trkpt>
			<trkpt lat="44.797893" lon="34.260029"><time>1970-01-01T00:00:01.000Z</time></trkpt>
			<trkpt lat="44.798022" lon="34.259879"><time>1970-01-01T00:00:01.000Z</time></trkpt>
			<trkpt lat="44.798687" lon="34.258721"><time>1970-01-01T00:00:01.000Z</time></trkpt>
			<trkpt lat="44.799180" lon="34.257068"><time>1970-01-01T00:00:01.000Z</time></trkpt>
			<trkpt lat="44.799266" lon="34.256982"><time>1970-01-01T00:00:01.000Z</time></trkpt>
			<trkpt lat="44.799245" lon="34.256854"><time>1970-01-01T00:00:01.000Z</time></trkpt>
			<trkpt lat="44.798987" lon="34.256639"><time>1970-01-01T00:00:01.000Z</time></trkpt>
			<trkpt lat="44.798880" lon="34.256425"><time>1970-01-01T00:00:01.000Z</time></trkpt>
			<trkpt lat="44.798987" lon="34.256060"><time>1970-01-01T00:00:01.000Z</time></trkpt>
			<trkpt lat="44.798987" lon="34.255952"><time>1970-01-01T00:00:01.000Z</time></trkpt>
			<trkpt lat="44.798901" lon="34.255952"><time>1970-01-01T00:00:01.000Z</time></trkpt>
			<trkpt lat="44.798472" lon="34.256446"><time>1970-01-01T00:00:01.000Z</time></trkpt>
			<trkpt lat="44.798301" lon="34.256467"><time>1970-01-01T00:00:01.000Z</time></trkpt>
			<trkpt lat="44.798172" lon="34.256532"><time>1970-01-01T00:00:01.000Z</time></trkpt>
			<trkpt lat="44.797850" lon="34.256832"><time>1970-01-01T00:00:01.000Z</time></trkpt>
			<trkpt lat="44.797550" lon="34.256961"><time>1970-01-01T00:00:01.000Z</time></trkpt>
			<trkpt lat="44.797421" lon="34.256961"><time>1970-01-01T00:00:01.000Z</time></trkpt>
			<trkpt lat="44.797356" lon="34.256854"><time>1970-01-01T00:00:01.000Z</time></trkpt>
			<trkpt lat="44.797356" lon="34.256704"><time>1970-01-01T00:00:01.000Z</time></trkpt>
			<trkpt lat="44.797313" lon="34.256725"><time>1970-01-01T00:00:01.000Z</time></trkpt>
			<trkpt lat="44.797292" lon="34.256639"><time>1970-01-01T00:00:01.000Z</time></trkpt>
			<trkpt lat="44.797313" lon="34.256682"><time>1970-01-01T00:00:01.000Z</time></trkpt>
			<trkpt lat="44.797335" lon="34.255759"><time>1970-01-01T00:00:01.000Z</time></trkpt>
			<trkpt lat="44.797206" lon="34.255352"><time>1970-01-01T00:00:01.000Z</time></trkpt>
			<trkpt lat="44.797056" lon="34.254408"><time>1970-01-01T00:00:01.000Z</time></trkpt>
			<trkpt lat="44.797099" lon="34.254365"><time>1970-01-01T00:00:01.000Z</time></trkpt>
			<trkpt lat="44.797056" lon="34.254150"><time>1970-01-01T00:00:01.000Z</time></trkpt>
			<trkpt lat="44.797099" lon="34.254021"><time>1970-01-01T00:00:01.000Z</time></trkpt>
			<trkpt lat="44.797378" lon="34.254021"><time>1970-01-01T00:00:01.000Z</time></trkpt>
			<trkpt lat="44.797464" lon="34.254129"><time>1970-01-01T00:00:01.000Z</time></trkpt>
			<trkpt lat="44.797571" lon="34.254129"><time>1970-01-01T00:00:01.000Z</time></trkpt>
			<trkpt lat="44.797614" lon="34.253807"><time>1970-01-01T00:00:01.000Z</time></trkpt>
			<trkpt lat="44.797507" lon="34.253378"><time>1970-01-01T00:00:01.000Z</time></trkpt>
			<trkpt lat="44.797356" lon="34.253227"><time>1970-01-01T00:00:01.000Z</time></trkpt>
			<trkpt lat="44.797313" lon="34.253249"><time>1970-01-01T00:00:01.000Z</time></trkpt>
			<trkpt lat="44.797249" lon="34.253142"><time>1970-01-01T00:00:01.000Z</time></trkpt>
			<trkpt lat="44.797206" lon="34.252691"><time>1970-01-01T00:00:01.000Z</time></trkpt>
			<trkpt lat="44.797292" lon="34.252455"><time>1970-01-01T00:00:01.000Z</time></trkpt>
			<trkpt lat="44.797271" lon="34.252305"><time>1970-01-01T00:00:01.000Z</time></trkpt>
			<trkpt lat="44.797163" lon="34.252133"><time>1970-01-01T00:00:01.000Z</time></trkpt>
			<trkpt lat="44.797142" lon="34.252004"><time>1970-01-01T00:00:01.000Z</time></trkpt>
			<trkpt lat="44.797056" lon="34.250931"><time>1970-01-01T00:00:01.000Z</time></trkpt>
			<trkpt lat="44.797185" lon="34.250481"><time>1970-01-01T00:00:01.000Z</time></trkpt>
			<trkpt lat="44.797120" lon="34.250524"><time>1970-01-01T00:00:01.000Z</time></trkpt>
			<trkpt lat="44.797249" lon="34.250545"><time>1970-01-01T00:00:01.000Z</time></trkpt>
			<trkpt lat="44.797228" lon="34.250481"><time>1970-01-01T00:00:01.000Z</time></trkpt>
			<trkpt lat="44.797163" lon="34.250481"><time>1970-01-01T00:00:01.000Z</time></trkpt>
			<trkpt lat="44.797142" lon="34.250524"><time>1970-01-01T00:00:01.000Z</time></trkpt>
			<trkpt lat="44.797249" lon="34.250545"><time>1970-01-01T00:00:01.000Z</time></trkpt>
			<trkpt lat="44.797206" lon="34.250545"><time>1970-01-01T00:00:01.000Z</time></trkpt>
			<trkpt lat="44.797185" lon="34.250459"><time>1970-01-01T00:00:01.000Z</time></trkpt>
			<trkpt lat="44.797206" lon="34.250352"><time>1970-01-01T00:00:01.000Z</time></trkpt>
			<trkpt lat="44.797163" lon="34.250137"><time>1970-01-01T00:00:01.000Z</time></trkpt>
			<trkpt lat="44.797313" lon="34.249837"><time>1970-01-01T00:00:01.000Z</time></trkpt>
			<trkpt lat="44.797335" lon="34.249730"><time>1970-01-01T00:00:01.000Z</time></trkpt>
			<trkpt lat="44.797292" lon="34.249644"><time>1970-01-01T00:00:01.000Z</time></trkpt>
			<trkpt lat="44.797485" lon="34.249236"><time>1970-01-01T00:00:01.000Z</time></trkpt>
			<trkpt lat="44.797528" lon="34.248850"><time>1970-01-01T00:00:01.000Z</time></trkpt>
			<trkpt lat="44.797721" lon="34.248657"><time>1970-01-01T00:00:01.000Z</time></trkpt>
			<trkpt lat="44.797936" lon="34.247691"><time>1970-01-01T00:00:01.000Z</time></trkpt>
			<trkpt lat="44.797936" lon="34.247477"><time>1970-01-01T00:00:01.000Z</time></trkpt>
			<trkpt lat="44.798107" lon="34.247090"><time>1970-01-01T00:00:01.000Z</time></trkpt>
			<trkpt lat="44.798150" lon="34.246769"><time>1970-01-01T00:00:01.000Z</time></trkpt>
			<trkpt lat="44.798236" lon="34.246833"><time>1970-01-01T00:00:01.000Z</time></trkpt>
			<trkpt lat="44.798258" lon="34.246704"><time>1970-01-01T00:00:01.000Z</time></trkpt>
			<trkpt lat="44.798172" lon="34.246511"><time>1970-01-01T00:00:01.000Z</time></trkpt>
			<trkpt lat="44.798107" lon="34.246061"><time>1970-01-01T00:00:01.000Z</time></trkpt>
			<trkpt lat="44.798215" lon="34.245910"><time>1970-01-01T00:00:01.000Z</time></trkpt>
			<trkpt lat="44.798279" lon="34.245610"><time>1970-01-01T00:00:01.000Z</time></trkpt>
			<trkpt lat="44.798386" lon="34.245374"><time>1970-01-01T00:00:01.000Z</time></trkpt>
			<trkpt lat="44.798515" lon="34.245352"><time>1970-01-01T00:00:01.000Z</time></trkpt>
			<trkpt lat="44.798601" lon="34.245202"><time>1970-01-01T00:00:01.000Z</time></trkpt>
			<trkpt lat="44.798622" lon="34.245245"><time>1970-01-01T00:00:01.000Z</time></trkpt>
			<trkpt lat="44.798558" lon="34.245224"><time>1970-01-01T00:00:01.000Z</time></trkpt>
			<trkpt lat="44.798622" lon="34.245288"><time>1970-01-01T00:00:01.000Z</time></trkpt>
			<trkpt lat="44.798601" lon="34.244945"><time>1970-01-01T00:00:01.000Z</time></trkpt>
			<trkpt lat="44.798858" lon="34.244387"><time>1970-01-01T00:00:01.000Z</time></trkpt>
			<trkpt lat="44.798858" lon="34.244172"><time>1970-01-01T00:00:01.000Z</time></trkpt>
			<trkpt lat="44.799030" lon="34.243872"><time>1970-01-01T00:00:01.000Z</time></trkpt>
			<trkpt lat="44.799052" lon="34.243679"><time>1970-01-01T00:00:01.000Z</time></trkpt>
			<trkpt lat="44.798966" lon="34.243357"><time>1970-01-01T00:00:01.000Z</time></trkpt>
			<trkpt lat="44.798665" lon="34.242885"><time>1970-01-01T00:00:01.000Z</time></trkpt>
			<trkpt lat="44.798558" lon="34.242499"><time>1970-01-01T00:00:01.000Z</time></trkpt>
			<trkpt lat="44.798537" lon="34.242220"><time>1970-01-01T00:00:01.000Z</time></trkpt>
			<trkpt lat="44.798622" lon="34.241447"><time>1970-01-01T00:00:01.000Z</time></trkpt>
			<trkpt lat="44.798537" lon="34.241061"><time>1970-01-01T00:00:01.000Z</time></trkpt>
			<trkpt lat="44.798065" lon="34.240288"><time>1970-01-01T00:00:01.000Z</time></trkpt>
			<trkpt lat="44.798065" lon="34.240095"><time>1970-01-01T00:00:01.000Z</time></trkpt>
			<trkpt lat="44.798236" lon="34.239430"><time>1970-01-01T00:00:01.000Z</time></trkpt>
			<trkpt lat="44.798258" lon="34.239065"><time>1970-01-01T00:00:01.000Z</time></trkpt>
			<trkpt lat="44.798215" lon="34.238808"><time>1970-01-01T00:00:01.000Z</time></trkpt>
			<trkpt lat="44.798215" lon="34.238250"><time>1970-01-01T00:00:01.000Z</time></trkpt>
			<trkpt lat="44.798386" lon="34.237842"><time>1970-01-01T00:00:01.000Z</time></trkpt>
			<trkpt lat="44.798322" lon="34.237091"><time>1970-01-01T00:00:01.000Z</time></trkpt>
			<trkpt lat="44.798343" lon="34.236576"><time>1970-01-01T00:00:01.000Z</time></trkpt>
			<trkpt lat="44.798451" lon="34.236126"><time>1970-01-01T00:00:01.000Z</time></trkpt>
			<trkpt lat="44.798472" lon="34.235847"><time>1970-01-01T00:00:01.000Z</time></trkpt>
			<trkpt lat="44.798386" lon="34.235675"><time>1970-01-01T00:00:01.000Z</time></trkpt>
			<trkpt lat="44.798451" lon="34.235224"><time>1970-01-01T00:00:01.000Z</time></trkpt>
			<trkpt lat="44.798408" lon="34.235010"><time>1970-01-01T00:00:01.000Z</time></trkpt>
			<trkpt lat="44.798751" lon="34.234430"><time>1970-01-01T00:00:01.000Z</time></trkpt>
			<trkpt lat="44.798816" lon="34.234130"><time>1970-01-01T00:00:01.000Z</time></trkpt>
			<trkpt lat="44.799202" lon="34.233400"><time>1970-01-01T00:00:01.000Z</time></trkpt>
			<trkpt lat="44.799609" lon="34.232843"><time>1970-01-01T00:00:01.000Z</time></trkpt>
			<trkpt lat="44.800082" lon="34.231984"><time>1970-01-01T00:00:01.000Z</time></trkpt>
			<trkpt lat="44.800082" lon="34.231727"><time>1970-01-01T00:00:01.000Z</time></trkpt>
			<trkpt lat="44.800146" lon="34.231341"><time>1970-01-01T00:00:01.000Z</time></trkpt>
			<trkpt lat="44.800403" lon="34.230933"><time>1970-01-01T00:00:01.000Z</time></trkpt>
			<trkpt lat="44.800446" lon="34.230246"><time>1970-01-01T00:00:01.000Z</time></trkpt>
			<trkpt lat="44.800103" lon="34.230311"><time>1970-01-01T00:00:01.000Z</time></trkpt>
			<trkpt lat="44.799502" lon="34.230139"><time>1970-01-01T00:00:01.000Z</time></trkpt>
			<trkpt lat="44.799245" lon="34.230525"><time>1970-01-01T00:00:01.000Z</time></trkpt>
			<trkpt lat="44.799159" lon="34.230568"><time>1970-01-01T00:00:01.000Z</time></trkpt>
			<trkpt lat="44.798730" lon="34.230568"><time>1970-01-01T00:00:01.000Z</time></trkpt>
			<trkpt lat="44.798408" lon="34.230654"><time>1970-01-01T00:00:01.000Z</time></trkpt>
			<trkpt lat="44.798386" lon="34.229002"><time>1970-01-01T00:00:01.000Z</time></trkpt>
			<trkpt lat="44.797979" lon="34.227950"><time>1970-01-01T00:00:01.000Z</time></trkpt>
			<trkpt lat="44.798515" lon="34.226341"><time>1970-01-01T00:00:01.000Z</time></trkpt>
			<trkpt lat="44.796949" lon="34.226513"><time>1970-01-01T00:00:01.000Z</time></trkpt>
			<trkpt lat="44.796005" lon="34.225590"><time>1970-01-01T00:00:01.000Z</time></trkpt>
			<trkpt lat="44.795382" lon="34.225375"><time>1970-01-01T00:00:01.000Z</time></trkpt>
			<trkpt lat="44.794996" lon="34.225053"><time>1970-01-01T00:00:01.000Z</time></trkpt>
			<trkpt lat="44.794932" lon="34.224946"><time>1970-01-01T00:00:01.000Z</time></trkpt>
			<trkpt lat="44.794824" lon="34.224860"><time>1970-01-01T00:00:01.000Z</time></trkpt>
			<trkpt lat="44.794653" lon="34.224796"><time>1970-01-01T00:00:01.000Z</time></trkpt>
			<trkpt lat="44.794159" lon="34.224968"><time>1970-01-01T00:00:01.000Z</time></trkpt>
			<trkpt lat="44.793880" lon="34.225204"><time>1970-01-01T00:00:01.000Z</time></trkpt>
			<trkpt lat="44.793623" lon="34.225332"><time>1970-01-01T00:00:01.000Z</time></trkpt>
			<trkpt lat="44.793237" lon="34.225440"><time>1970-01-01T00:00:01.000Z</time></trkpt>
			<trkpt lat="44.792357" lon="34.225096"><time>1970-01-01T00:00:01.000Z</time></trkpt>
			<trkpt lat="44.791799" lon="34.225204"><time>1970-01-01T00:00:01.000Z</time></trkpt>
			<trkpt lat="44.791627" lon="34.225332"><time>1970-01-01T00:00:01.000Z</time></trkpt>
			<trkpt lat="44.791241" lon="34.225826"><time>1970-01-01T00:00:01.000Z</time></trkpt>
			<trkpt lat="44.790919" lon="34.226105"><time>1970-01-01T00:00:01.000Z</time></trkpt>
			<trkpt lat="44.790447" lon="34.226319"><time>1970-01-01T00:00:01.000Z</time></trkpt>
			<trkpt lat="44.790275" lon="34.226362"><time>1970-01-01T00:00:01.000Z</time></trkpt>
			<trkpt lat="44.789975" lon="34.226362"><time>1970-01-01T00:00:01.000Z</time></trkpt>
			<trkpt lat="44.789481" lon="34.226277"><time>1970-01-01T00:00:01.000Z</time></trkpt>
			<trkpt lat="44.789138" lon="34.226277"><time>1970-01-01T00:00:01.000Z</time></trkpt>
			<trkpt lat="44.788752" lon="34.226126"><time>1970-01-01T00:00:01.000Z</time></trkpt>
			<trkpt lat="44.788451" lon="34.226148"><time>1970-01-01T00:00:01.000Z</time></trkpt>
			<trkpt lat="44.788173" lon="34.226298"><time>1970-01-01T00:00:01.000Z</time></trkpt>
			<trkpt lat="44.787786" lon="34.226770"><time>1970-01-01T00:00:01.000Z</time></trkpt>
			<trkpt lat="44.787507" lon="34.227006"><time>1970-01-01T00:00:01.000Z</time></trkpt>
			<trkpt lat="44.786220" lon="34.227221"><time>1970-01-01T00:00:01.000Z</time></trkpt>
			<trkpt lat="44.786005" lon="34.227349"><time>1970-01-01T00:00:01.000Z</time></trkpt>
			<trkpt lat="44.785705" lon="34.227392"><time>1970-01-01T00:00:01.000Z</time></trkpt>
			<trkpt lat="44.785297" lon="34.227306"><time>1970-01-01T00:00:01.000Z</time></trkpt>
			<trkpt lat="44.785147" lon="34.227135"><time>1970-01-01T00:00:01.000Z</time></trkpt>
			<trkpt lat="44.784525" lon="34.226899"><time>1970-01-01T00:00:01.000Z</time></trkpt>
			<trkpt lat="44.784375" lon="34.226706"><time>1970-01-01T00:00:01.000Z</time></trkpt>
			<trkpt lat="44.783967" lon="34.226448"><time>1970-01-01T00:00:01.000Z</time></trkpt>
			<trkpt lat="44.783473" lon="34.226384"><time>1970-01-01T00:00:01.000Z</time></trkpt>
			<trkpt lat="44.783216" lon="34.226491"><time>1970-01-01T00:00:01.000Z</time></trkpt>
			<trkpt lat="44.782894" lon="34.226770"><time>1970-01-01T00:00:01.000Z</time></trkpt>
			<trkpt lat="44.782400" lon="34.227006"><time>1970-01-01T00:00:01.000Z</time></trkpt>
			<trkpt lat="44.781907" lon="34.227478"><time>1970-01-01T00:00:01.000Z</time></trkpt>
			<trkpt lat="44.781499" lon="34.227414"><time>1970-01-01T00:00:01.000Z</time></trkpt>
			<trkpt lat="44.781177" lon="34.227199"><time>1970-01-01T00:00:01.000Z</time></trkpt>
			<trkpt lat="44.780963" lon="34.226985"><time>1970-01-01T00:00:01.000Z</time></trkpt>
			<trkpt lat="44.780662" lon="34.226813"><time>1970-01-01T00:00:01.000Z</time></trkpt>
			<trkpt lat="44.780255" lon="34.226427"><time>1970-01-01T00:00:01.000Z</time></trkpt>
			<trkpt lat="44.779418" lon="34.225955"><time>1970-01-01T00:00:01.000Z</time></trkpt>
			<trkpt lat="44.778881" lon="34.225332"><time>1970-01-01T00:00:01.000Z</time></trkpt>
			<trkpt lat="44.778495" lon="34.224496"><time>1970-01-01T00:00:01.000Z</time></trkpt>
			<trkpt lat="44.777894" lon="34.223573"><time>1970-01-01T00:00:01.000Z</time></trkpt>
			<trkpt lat="44.777723" lon="34.222994"><time>1970-01-01T00:00:01.000Z</time></trkpt>
			<trkpt lat="44.777572" lon="34.222757"><time>1970-01-01T00:00:01.000Z</time></trkpt>
			<trkpt lat="44.777358" lon="34.222264"><time>1970-01-01T00:00:01.000Z</time></trkpt>
			<trkpt lat="44.777251" lon="34.221813"><time>1970-01-01T00:00:01.000Z</time></trkpt>
			<trkpt lat="44.777293" lon="34.221191"><time>1970-01-01T00:00:01.000Z</time></trkpt>
			<trkpt lat="44.777530" lon="34.220483"><time>1970-01-01T00:00:01.000Z</time></trkpt>
			<trkpt lat="44.777701" lon="34.219732"><time>1970-01-01T00:00:01.000Z</time></trkpt>
			<trkpt lat="44.777873" lon="34.219324"><time>1970-01-01T00:00:01.000Z</time></trkpt>
			<trkpt lat="44.777937" lon="34.219045"><time>1970-01-01T00:00:01.000Z</time></trkpt>
			<trkpt lat="44.777916" lon="34.218423"><time>1970-01-01T00:00:01.000Z</time></trkpt>
			<trkpt lat="44.777808" lon="34.217844"><time>1970-01-01T00:00:01.000Z</time></trkpt>
			<trkpt lat="44.777766" lon="34.217822"><time>1970-01-01T00:00:01.000Z</time></trkpt>
			<trkpt lat="44.777701" lon="34.217608"><time>1970-01-01T00:00:01.000Z</time></trkpt>
			<trkpt lat="44.777057" lon="34.216728"><time>1970-01-01T00:00:01.000Z</time></trkpt>
			<trkpt lat="44.776500" lon="34.216256"><time>1970-01-01T00:00:01.000Z</time></trkpt>
			<trkpt lat="44.776242" lon="34.215762"><time>1970-01-01T00:00:01.000Z</time></trkpt>
			<trkpt lat="44.775749" lon="34.215161"><time>1970-01-01T00:00:01.000Z</time></trkpt>
			<trkpt lat="44.775770" lon="34.214840"><time>1970-01-01T00:00:01.000Z</time></trkpt>
			<trkpt lat="44.776070" lon="34.213895"><time>1970-01-01T00:00:01.000Z</time></trkpt>
			<trkpt lat="44.776049" lon="34.212865"><time>1970-01-01T00:00:01.000Z</time></trkpt>
			<trkpt lat="44.776092" lon="34.212436"><time>1970-01-01T00:00:01.000Z</time></trkpt>
			<trkpt lat="44.775899" lon="34.211771"><time>1970-01-01T00:00:01.000Z</time></trkpt>
			<trkpt lat="44.775770" lon="34.210999"><time>1970-01-01T00:00:01.000Z</time></trkpt>
			<trkpt lat="44.775749" lon="34.210784"><time>1970-01-01T00:00:01.000Z</time></trkpt>
			<trkpt lat="44.775770" lon="34.210119"><time>1970-01-01T00:00:01.000Z</time></trkpt>
			<trkpt lat="44.775555" lon="34.209196"><time>1970-01-01T00:00:01.000Z</time></trkpt>
			<trkpt lat="44.775684" lon="34.208252"><time>1970-01-01T00:00:01.000Z</time></trkpt>
			<trkpt lat="44.775448" lon="34.207351"><time>1970-01-01T00:00:01.000Z</time></trkpt>
			<trkpt lat="44.775427" lon="34.207093"><time>1970-01-01T00:00:01.000Z</time></trkpt>
			<trkpt lat="44.775555" lon="34.205870"><time>1970-01-01T00:00:01.000Z</time></trkpt>
			<trkpt lat="44.775555" lon="34.205591"><time>1970-01-01T00:00:01.000Z</time></trkpt>
			<trkpt lat="44.775448" lon="34.204905"><time>1970-01-01T00:00:01.000Z</time></trkpt>
			<trkpt lat="44.775234" lon="34.203939"><time>1970-01-01T00:00:01.000Z</time></trkpt>
			<trkpt lat="44.775255" lon="34.203488"><time>1970-01-01T00:00:01.000Z</time></trkpt>
			<trkpt lat="44.775427" lon="34.202888"><time>1970-01-01T00:00:01.000Z</time></trkpt>
			<trkpt lat="44.775684" lon="34.202437"><time>1970-01-01T00:00:01.000Z</time></trkpt>
			<trkpt lat="44.776199" lon="34.202051"><time>1970-01-01T00:00:01.000Z</time></trkpt>
			<trkpt lat="44.776521" lon="34.201643"><time>1970-01-01T00:00:01.000Z</time></trkpt>
			<trkpt lat="44.776886" lon="34.201364"><time>1970-01-01T00:00:01.000Z</time></trkpt>
			<trkpt lat="44.777143" lon="34.200956"><time>1970-01-01T00:00:01.000Z</time></trkpt>
			<trkpt lat="44.777465" lon="34.200828"><time>1970-01-01T00:00:01.000Z</time></trkpt>
			<trkpt lat="44.777894" lon="34.200549"><time>1970-01-01T00:00:01.000Z</time></trkpt>
			<trkpt lat="44.778045" lon="34.200399"><time>1970-01-01T00:00:01.000Z</time></trkpt>
			<trkpt lat="44.778173" lon="34.200377"><time>1970-01-01T00:00:01.000Z</time></trkpt>
			<trkpt lat="44.778474" lon="34.200420"><time>1970-01-01T00:00:01.000Z</time></trkpt>
			<trkpt lat="44.778710" lon="34.200270"><time>1970-01-01T00:00:01.000Z</time></trkpt>
			<trkpt lat="44.778903" lon="34.199991"><time>1970-01-01T00:00:01.000Z</time></trkpt>
			<trkpt lat="44.779053" lon="34.199690"><time>1970-01-01T00:00:01.000Z</time></trkpt>
			<trkpt lat="44.779504" lon="34.199433"><time>1970-01-01T00:00:01.000Z</time></trkpt>
			<trkpt lat="44.780340" lon="34.198188"><time>1970-01-01T00:00:01.000Z</time></trkpt>
			<trkpt lat="44.780641" lon="34.197931"><time>1970-01-01T00:00:01.000Z</time></trkpt>
			<trkpt lat="44.780834" lon="34.197888"><time>1970-01-01T00:00:01.000Z</time></trkpt>
			<trkpt lat="44.781006" lon="34.197738"><time>1970-01-01T00:00:01.000Z</time></trkpt>
			<trkpt lat="44.781220" lon="34.197137"><time>1970-01-01T00:00:01.000Z</time></trkpt>
			<trkpt lat="44.781285" lon="34.196858"><time>1970-01-01T00:00:01.000Z</time></trkpt>
			<trkpt lat="44.781585" lon="34.196128"><time>1970-01-01T00:00:01.000Z</time></trkpt>
			<trkpt lat="44.781735" lon="34.195141"><time>1970-01-01T00:00:01.000Z</time></trkpt>
			<trkpt lat="44.781757" lon="34.194541"><time>1970-01-01T00:00:01.000Z</time></trkpt>
			<trkpt lat="44.781821" lon="34.194047"><time>1970-01-01T00:00:01.000Z</time></trkpt>
			<trkpt lat="44.782079" lon="34.193425"><time>1970-01-01T00:00:01.000Z</time></trkpt>
			<trkpt lat="44.782508" lon="34.192652"><time>1970-01-01T00:00:01.000Z</time></trkpt>
			<trkpt lat="44.782830" lon="34.192330"><time>1970-01-01T00:00:01.000Z</time></trkpt>
			<trkpt lat="44.783044" lon="34.191880"><time>1970-01-01T00:00:01.000Z</time></trkpt>
			<trkpt lat="44.783409" lon="34.191601"><time>1970-01-01T00:00:01.000Z</time></trkpt>
			<trkpt lat="44.783860" lon="34.191086"><time>1970-01-01T00:00:01.000Z</time></trkpt>
			<trkpt lat="44.784332" lon="34.190700"><time>1970-01-01T00:00:01.000Z</time></trkpt>
			<trkpt lat="44.784417" lon="34.190550"><time>1970-01-01T00:00:01.000Z</time></trkpt>
			<trkpt lat="44.784589" lon="34.189477"><time>1970-01-01T00:00:01.000Z</time></trkpt>
			<trkpt lat="44.784847" lon="34.189090"><time>1970-01-01T00:00:01.000Z</time></trkpt>
			<trkpt lat="44.785555" lon="34.188382"><time>1970-01-01T00:00:01.000Z</time></trkpt>
			<trkpt lat="44.785748" lon="34.188296"><time>1970-01-01T00:00:01.000Z</time></trkpt>
			<trkpt lat="44.786048" lon="34.188275"><time>1970-01-01T00:00:01.000Z</time></trkpt>
			<trkpt lat="44.786370" lon="34.188425"><time>1970-01-01T00:00:01.000Z</time></trkpt>
			<trkpt lat="44.786499" lon="34.188425"><time>1970-01-01T00:00:01.000Z</time></trkpt>
			<trkpt lat="44.786606" lon="34.188339"><time>1970-01-01T00:00:01.000Z</time></trkpt>
			<trkpt lat="44.786713" lon="34.188060"><time>1970-01-01T00:00:01.000Z</time></trkpt>
			<trkpt lat="44.786778" lon="34.187567"><time>1970-01-01T00:00:01.000Z</time></trkpt>
			<trkpt lat="44.786992" lon="34.187159"><time>1970-01-01T00:00:01.000Z</time></trkpt>
			<trkpt lat="44.787336" lon="34.186794"><time>1970-01-01T00:00:01.000Z</time></trkpt>
			<trkpt lat="44.787872" lon="34.186387"><time>1970-01-01T00:00:01.000Z</time></trkpt>
			<trkpt lat="44.788280" lon="34.185893"><time>1970-01-01T00:00:01.000Z</time></trkpt>
			<trkpt lat="44.788602" lon="34.185335"><time>1970-01-01T00:00:01.000Z</time></trkpt>
			<trkpt lat="44.788816" lon="34.184734"><time>1970-01-01T00:00:01.000Z</time></trkpt>
			<trkpt lat="44.788902" lon="34.183597"><time>1970-01-01T00:00:01.000Z</time></trkpt>
			<trkpt lat="44.789160" lon="34.182932"><time>1970-01-01T00:00:01.000Z</time></trkpt>
			<trkpt lat="44.789503" lon="34.182288"><time>1970-01-01T00:00:01.000Z</time></trkpt>
			<trkpt lat="44.789803" lon="34.181344"><time>1970-01-01T00:00:01.000Z</time></trkpt>
			<trkpt lat="44.790018" lon="34.180851"><time>1970-01-01T00:00:01.000Z</time></trkpt>
			<trkpt lat="44.790318" lon="34.180572"><time>1970-01-01T00:00:01.000Z</time></trkpt>
			<trkpt lat="44.790511" lon="34.180486"><time>1970-01-01T00:00:01.000Z</time></trkpt>
			<trkpt lat="44.790726" lon="34.180507"><time>1970-01-01T00:00:01.000Z</time></trkpt>
			<trkpt lat="44.791177" lon="34.180636"><time>1970-01-01T00:00:01.000Z</time></trkpt>
			<trkpt lat="44.791477" lon="34.180615"><time>1970-01-01T00:00:01.000Z</time></trkpt>
			<trkpt lat="44.791670" lon="34.180486"><time>1970-01-01T00:00:01.000Z</time></trkpt>
			<trkpt lat="44.791928" lon="34.180207"><time>1970-01-01T00:00:01.000Z</time></trkpt>
			<trkpt lat="44.792249" lon="34.180014"><time>1970-01-01T00:00:01.000Z</time></trkpt>
			<trkpt lat="44.792421" lon="34.180035"><time>1970-01-01T00:00:01.000Z</time></trkpt>
			<trkpt lat="44.792958" lon="34.180271"><time>1970-01-01T00:00:01.000Z</time></trkpt>
			<trkpt lat="44.793365" lon="34.180336"><time>1970-01-01T00:00:01.000Z</time></trkpt>
			<trkpt lat="44.793730" lon="34.180121"><time>1970-01-01T00:00:01.000Z</time></trkpt>
			<trkpt lat="44.794202" lon="34.179499"><time>1970-01-01T00:00:01.000Z</time></trkpt>
			<trkpt lat="44.794352" lon="34.179005"><time>1970-01-01T00:00:01.000Z</time></trkpt>
			<trkpt lat="44.794460" lon="34.178147"><time>1970-01-01T00:00:01.000Z</time></trkpt>
			<trkpt lat="44.794610" lon="34.177932"><time>1970-01-01T00:00:01.000Z</time></trkpt>
			<trkpt lat="44.794910" lon="34.177718"><time>1970-01-01T00:00:01.000Z</time></trkpt>
			<trkpt lat="44.795211" lon="34.177611"><time>1970-01-01T00:00:01.000Z</time></trkpt>
			<trkpt lat="44.795404" lon="34.177632"><time>1970-01-01T00:00:01.000Z</time></trkpt>
			<trkpt lat="44.795769" lon="34.177482"><time>1970-01-01T00:00:01.000Z</time></trkpt>
			<trkpt lat="44.796262" lon="34.177353"><time>1970-01-01T00:00:01.000Z</time></trkpt>
			<trkpt lat="44.796970" lon="34.177224"><time>1970-01-01T00:00:01.000Z</time></trkpt>
			<trkpt lat="44.797957" lon="34.176924"><time>1970-01-01T00:00:01.000Z</time></trkpt>
			<trkpt lat="44.798107" lon="34.176795"><time>1970-01-01T00:00:01.000Z</time></trkpt>
			<trkpt lat="44.798472" lon="34.176302"><time>1970-01-01T00:00:01.000Z</time></trkpt>
			<trkpt lat="44.798987" lon="34.175357"><time>1970-01-01T00:00:01.000Z</time></trkpt>
			<trkpt lat="44.799116" lon="34.175014"><time>1970-01-01T00:00:01.000Z</time></trkpt>
			<trkpt lat="44.799137" lon="34.174499"><time>1970-01-01T00:00:01.000Z</time></trkpt>
			<trkpt lat="44.799052" lon="34.174070"><time>1970-01-01T00:00:01.000Z</time></trkpt>
			<trkpt lat="44.798644" lon="34.173190"><time>1970-01-01T00:00:01.000Z</time></trkpt>
			<trkpt lat="44.798408" lon="34.172525"><time>1970-01-01T00:00:01.000Z</time></trkpt>
			<trkpt lat="44.798215" lon="34.172139"><time>1970-01-01T00:00:01.000Z</time></trkpt>
			<trkpt lat="44.798086" lon="34.171731"><time>1970-01-01T00:00:01.000Z</time></trkpt>
			<trkpt lat="44.797979" lon="34.171066"><time>1970-01-01T00:00:01.000Z</time></trkpt>
			<trkpt lat="44.797893" lon="34.170959"><time>1970-01-01T00:00:01.000Z</time></trkpt>
			<trkpt lat="44.797743" lon="34.170916"><time>1970-01-01T00:00:01.000Z</time></trkpt>
			<trkpt lat="44.797421" lon="34.170894"><time>1970-01-01T00:00:01.000Z</time></trkpt>
			<trkpt lat="44.796992" lon="34.170529"><time>1970-01-01T00:00:01.000Z</time></trkpt>
			<trkpt lat="44.796520" lon="34.170444"><time>1970-01-01T00:00:01.000Z</time></trkpt>
			<trkpt lat="44.796434" lon="34.170379"><time>1970-01-01T00:00:01.000Z</time></trkpt>
			<trkpt lat="44.796305" lon="34.170358"><time>1970-01-01T00:00:01.000Z</time></trkpt>
			<trkpt lat="44.795876" lon="34.170165"><time>1970-01-01T00:00:01.000Z</time></trkpt>
			<trkpt lat="44.795318" lon="34.169671"><time>1970-01-01T00:00:01.000Z</time></trkpt>
			<trkpt lat="44.795060" lon="34.169306"><time>1970-01-01T00:00:01.000Z</time></trkpt>
			<trkpt lat="44.794739" lon="34.169199"><time>1970-01-01T00:00:01.000Z</time></trkpt>
			<trkpt lat="44.794181" lon="34.169221"><time>1970-01-01T00:00:01.000Z</time></trkpt>
			<trkpt lat="44.793988" lon="34.169199"><time>1970-01-01T00:00:01.000Z</time></trkpt>
			<trkpt lat="44.793494" lon="34.168942"><time>1970-01-01T00:00:01.000Z</time></trkpt>
			<trkpt lat="44.793172" lon="34.168577"><time>1970-01-01T00:00:01.000Z</time></trkpt>
			<trkpt lat="44.793065" lon="34.168405"><time>1970-01-01T00:00:01.000Z</time></trkpt>
			<trkpt lat="44.793022" lon="34.168405"><time>1970-01-01T00:00:01.000Z</time></trkpt>
			<trkpt lat="44.792936" lon="34.168212"><time>1970-01-01T00:00:01.000Z</time></trkpt>
			<trkpt lat="44.792657" lon="34.167890"><time>1970-01-01T00:00:01.000Z</time></trkpt>
			<trkpt lat="44.792486" lon="34.167547"><time>1970-01-01T00:00:01.000Z</time></trkpt>
			<trkpt lat="44.791971" lon="34.167268"><time>1970-01-01T00:00:01.000Z</time></trkpt>
			<trkpt lat="44.791820" lon="34.167118"><time>1970-01-01T00:00:01.000Z</time></trkpt>
			<trkpt lat="44.791692" lon="34.167053"><time>1970-01-01T00:00:01.000Z</time></trkpt>
			<trkpt lat="44.791541" lon="34.166882"><time>1970-01-01T00:00:01.000Z</time></trkpt>
			<trkpt lat="44.791026" lon="34.165809"><time>1970-01-01T00:00:01.000Z</time></trkpt>
			<trkpt lat="44.790747" lon="34.164993"><time>1970-01-01T00:00:01.000Z</time></trkpt>
			<trkpt lat="44.790404" lon="34.164822"><time>1970-01-01T00:00:01.000Z</time></trkpt>
			<trkpt lat="44.790232" lon="34.164779"><time>1970-01-01T00:00:01.000Z</time></trkpt>
			<trkpt lat="44.790039" lon="34.164607"><time>1970-01-01T00:00:01.000Z</time></trkpt>
			<trkpt lat="44.789782" lon="34.164457"><time>1970-01-01T00:00:01.000Z</time></trkpt>
			<trkpt lat="44.789567" lon="34.164157"><time>1970-01-01T00:00:01.000Z</time></trkpt>
			<trkpt lat="44.789267" lon="34.163170"><time>1970-01-01T00:00:01.000Z</time></trkpt>
			<trkpt lat="44.788859" lon="34.162719"><time>1970-01-01T00:00:01.000Z</time></trkpt>
			<trkpt lat="44.788645" lon="34.162547"><time>1970-01-01T00:00:01.000Z</time></trkpt>
			<trkpt lat="44.788258" lon="34.162333"><time>1970-01-01T00:00:01.000Z</time></trkpt>
			<trkpt lat="44.788108" lon="34.162204"><time>1970-01-01T00:00:01.000Z</time></trkpt>
			<trkpt lat="44.788001" lon="34.162032"><time>1970-01-01T00:00:01.000Z</time></trkpt>
			<trkpt lat="44.787894" lon="34.161775"><time>1970-01-01T00:00:01.000Z</time></trkpt>
			<trkpt lat="44.787829" lon="34.161367"><time>1970-01-01T00:00:01.000Z</time></trkpt>
			<trkpt lat="44.787808" lon="34.161431"><time>1970-01-01T00:00:01.000Z</time></trkpt>
			<trkpt lat="44.787894" lon="34.161389"><time>1970-01-01T00:00:01.000Z</time></trkpt>
			<trkpt lat="44.787915" lon="34.160938"><time>1970-01-01T00:00:01.000Z</time></trkpt>
			<trkpt lat="44.787894" lon="34.160723"><time>1970-01-01T00:00:01.000Z</time></trkpt>
			<trkpt lat="44.787722" lon="34.160187"><time>1970-01-01T00:00:01.000Z</time></trkpt>
			<trkpt lat="44.787700" lon="34.159951"><time>1970-01-01T00:00:01.000Z</time></trkpt>
			<trkpt lat="44.787765" lon="34.159479"><time>1970-01-01T00:00:01.000Z</time></trkpt>
			<trkpt lat="44.787636" lon="34.159114"><time>1970-01-01T00:00:01.000Z</time></trkpt>
			<trkpt lat="44.787486" lon="34.158427"><time>1970-01-01T00:00:01.000Z</time></trkpt>
			<trkpt lat="44.787550" lon="34.157762"><time>1970-01-01T00:00:01.000Z</time></trkpt>
			<trkpt lat="44.787636" lon="34.157633"><time>1970-01-01T00:00:01.000Z</time></trkpt>
			<trkpt lat="44.787765" lon="34.157161"><time>1970-01-01T00:00:01.000Z</time></trkpt>
			<trkpt lat="44.787808" lon="34.156389"><time>1970-01-01T00:00:01.000Z</time></trkpt>
			<trkpt lat="44.787786" lon="34.156131"><time>1970-01-01T00:00:01.000Z</time></trkpt>
			<trkpt lat="44.787700" lon="34.155552"><time>1970-01-01T00:00:01.000Z</time></trkpt>
			<trkpt lat="44.787593" lon="34.155144"><time>1970-01-01T00:00:01.000Z</time></trkpt>
			<trkpt lat="44.787271" lon="34.154608"><time>1970-01-01T00:00:01.000Z</time></trkpt>
			<trkpt lat="44.787164" lon="34.153835"><time>1970-01-01T00:00:01.000Z</time></trkpt>
			<trkpt lat="44.787207" lon="34.153363"><time>1970-01-01T00:00:01.000Z</time></trkpt>
			<trkpt lat="44.787100" lon="34.153192"><time>1970-01-01T00:00:01.000Z</time></trkpt>
			<trkpt lat="44.787143" lon="34.153235"><time>1970-01-01T00:00:01.000Z</time></trkpt>
			<trkpt lat="44.786971" lon="34.153320"><time>1970-01-01T00:00:01.000Z</time></trkpt>
			<trkpt lat="44.786756" lon="34.153578"><time>1970-01-01T00:00:01.000Z</time></trkpt>
			<trkpt lat="44.786606" lon="34.153986"><time>1970-01-01T00:00:01.000Z</time></trkpt>
			<trkpt lat="44.786499" lon="34.154179"><time>1970-01-01T00:00:01.000Z</time></trkpt>
			<trkpt lat="44.785941" lon="34.154393"><time>1970-01-01T00:00:01.000Z</time></trkpt>
			<trkpt lat="44.785383" lon="34.154758"><time>1970-01-01T00:00:01.000Z</time></trkpt>
			<trkpt lat="44.785168" lon="34.154822"><time>1970-01-01T00:00:01.000Z</time></trkpt>
			<trkpt lat="44.785018" lon="34.154951"><time>1970-01-01T00:00:01.000Z</time></trkpt>
			<trkpt lat="44.784954" lon="34.155187"><time>1970-01-01T00:00:01.000Z</time></trkpt>
			<trkpt lat="44.784847" lon="34.156088"><time>1970-01-01T00:00:01.000Z</time></trkpt>
			<trkpt lat="44.784739" lon="34.156260"><time>1970-01-01T00:00:01.000Z</time></trkpt>
			<trkpt lat="44.784439" lon="34.156475"><time>1970-01-01T00:00:01.000Z</time></trkpt>
			<trkpt lat="44.783924" lon="34.156603"><time>1970-01-01T00:00:01.000Z</time></trkpt>
			<trkpt lat="44.783280" lon="34.156882"><time>1970-01-01T00:00:01.000Z</time></trkpt>
			<trkpt lat="44.783109" lon="34.157011"><time>1970-01-01T00:00:01.000Z</time></trkpt>
			<trkpt lat="44.782937" lon="34.157290"><time>1970-01-01T00:00:01.000Z</time></trkpt>
			<trkpt lat="44.782787" lon="34.157440"><time>1970-01-01T00:00:01.000Z</time></trkpt>
			<trkpt lat="44.782615" lon="34.157462"><time>1970-01-01T00:00:01.000Z</time></trkpt>
			<trkpt lat="44.782443" lon="34.157419"><time>1970-01-01T00:00:01.000Z</time></trkpt>
			<trkpt lat="44.782250" lon="34.157462"><time>1970-01-01T00:00:01.000Z</time></trkpt>
			<trkpt lat="44.781971" lon="34.157333"><time>1970-01-01T00:00:01.000Z</time></trkpt>
			<trkpt lat="44.781800" lon="34.157118"><time>1970-01-01T00:00:01.000Z</time></trkpt>
			<trkpt lat="44.781456" lon="34.156303"><time>1970-01-01T00:00:01.000Z</time></trkpt>
			<trkpt lat="44.781199" lon="34.155938"><time>1970-01-01T00:00:01.000Z</time></trkpt>
			<trkpt lat="44.781070" lon="34.155810"><time>1970-01-01T00:00:01.000Z</time></trkpt>
			<trkpt lat="44.780662" lon="34.155681"><time>1970-01-01T00:00:01.000Z</time></trkpt>
			<trkpt lat="44.780233" lon="34.155616"><time>1970-01-01T00:00:01.000Z</time></trkpt>
			<trkpt lat="44.779783" lon="34.155466"><time>1970-01-01T00:00:01.000Z</time></trkpt>
			<trkpt lat="44.779589" lon="34.155316"><time>1970-01-01T00:00:01.000Z</time></trkpt>
			<trkpt lat="44.779525" lon="34.155144"><time>1970-01-01T00:00:01.000Z</time></trkpt>
			<trkpt lat="44.779332" lon="34.154994"><time>1970-01-01T00:00:01.000Z</time></trkpt>
			<trkpt lat="44.779117" lon="34.154329"><time>1970-01-01T00:00:01.000Z</time></trkpt>
			<trkpt lat="44.778903" lon="34.153964"><time>1970-01-01T00:00:01.000Z</time></trkpt>
			<trkpt lat="44.778173" lon="34.152333"><time>1970-01-01T00:00:01.000Z</time></trkpt>
			<trkpt lat="44.776736" lon="34.151089"><time>1970-01-01T00:00:01.000Z</time></trkpt>
			<trkpt lat="44.775963" lon="34.149651"><time>1970-01-01T00:00:01.000Z</time></trkpt>
			<trkpt lat="44.775513" lon="34.149007"><time>1970-01-01T00:00:01.000Z</time></trkpt>
			<trkpt lat="44.774075" lon="34.148750"><time>1970-01-01T00:00:01.000Z</time></trkpt>
			<trkpt lat="44.772980" lon="34.147055"><time>1970-01-01T00:00:01.000Z</time></trkpt>
			<trkpt lat="44.770599" lon="34.146025"><time>1970-01-01T00:00:01.000Z</time></trkpt>
			<trkpt lat="44.769805" lon="34.147012"><time>1970-01-01T00:00:01.000Z</time></trkpt>
			<trkpt lat="44.768646" lon="34.146518"><time>1970-01-01T00:00:01.000Z</time></trkpt>
			<trkpt lat="44.766929" lon="34.146626"><time>1970-01-01T00:00:01.000Z</time></trkpt>
			<trkpt lat="44.766028" lon="34.147055"><time>1970-01-01T00:00:01.000Z</time></trkpt>
			<trkpt lat="44.765642" lon="34.146840"><time>1970-01-01T00:00:01.000Z</time></trkpt>
			<trkpt lat="44.765771" lon="34.146111"><time>1970-01-01T00:00:01.000Z</time></trkpt>
			<trkpt lat="44.765771" lon="34.145145"><time>1970-01-01T00:00:01.000Z</time></trkpt>
			<trkpt lat="44.765535" lon="34.143858"><time>1970-01-01T00:00:01.000Z</time></trkpt>
			<trkpt lat="44.765535" lon="34.143257"><time>1970-01-01T00:00:01.000Z</time></trkpt>
			<trkpt lat="44.765299" lon="34.142377"><time>1970-01-01T00:00:01.000Z</time></trkpt>
			<trkpt lat="44.765191" lon="34.141476"><time>1970-01-01T00:00:01.000Z</time></trkpt>
			<trkpt lat="44.765277" lon="34.140854"><time>1970-01-01T00:00:01.000Z</time></trkpt>
			<trkpt lat="44.765170" lon="34.140575"><time>1970-01-01T00:00:01.000Z</time></trkpt>
			<trkpt lat="44.765277" lon="34.139330"><time>1970-01-01T00:00:01.000Z</time></trkpt>
			<trkpt lat="44.765084" lon="34.138922"><time>1970-01-01T00:00:01.000Z</time></trkpt>
			<trkpt lat="44.764934" lon="34.138493"><time>1970-01-01T00:00:01.000Z</time></trkpt>
			<trkpt lat="44.764355" lon="34.138000"><time>1970-01-01T00:00:01.000Z</time></trkpt>
			<trkpt lat="44.763775" lon="34.137699"><time>1970-01-01T00:00:01.000Z</time></trkpt>
			<trkpt lat="44.763325" lon="34.137613"><time>1970-01-01T00:00:01.000Z</time></trkpt>
			<trkpt lat="44.762874" lon="34.137292"><time>1970-01-01T00:00:01.000Z</time></trkpt>
			<trkpt lat="44.762702" lon="34.136884"><time>1970-01-01T00:00:01.000Z</time></trkpt>
			<trkpt lat="44.762595" lon="34.135468"><time>1970-01-01T00:00:01.000Z</time></trkpt>
			<trkpt lat="44.762380" lon="34.134631"><time>1970-01-01T00:00:01.000Z</time></trkpt>
			<trkpt lat="44.761908" lon="34.134438"><time>1970-01-01T00:00:01.000Z</time></trkpt>
			<trkpt lat="44.759591" lon="34.137485"><time>1970-01-01T00:00:01.000Z</time></trkpt>
			<trkpt lat="44.758518" lon="34.136068"><time>1970-01-01T00:00:01.000Z</time></trkpt>
			<trkpt lat="44.758711" lon="34.134481"><time>1970-01-01T00:00:01.000Z</time></trkpt>
			<trkpt lat="44.757574" lon="34.132249"><time>1970-01-01T00:00:01.000Z</time></trkpt>
			<trkpt lat="44.759419" lon="34.127142"><time>1970-01-01T00:00:01.000Z</time></trkpt>
			<trkpt lat="44.763303" lon="34.123795"><time>1970-01-01T00:00:01.000Z</time></trkpt>
			<trkpt lat="44.771178" lon="34.109418"><time>1970-01-01T00:00:01.000Z</time></trkpt>
			<trkpt lat="44.772938" lon="34.108088"><time>1970-01-01T00:00:01.000Z</time></trkpt>
			<trkpt lat="44.773796" lon="34.105856"><time>1970-01-01T00:00:01.000Z</time></trkpt>
			<trkpt lat="44.774697" lon="34.101607"><time>1970-01-01T00:00:01.000Z</time></trkpt>
			<trkpt lat="44.775899" lon="34.101178"><time>1970-01-01T00:00:01.000Z</time></trkpt>
			<trkpt lat="44.776628" lon="34.100406"><time>1970-01-01T00:00:01.000Z</time></trkpt>
			<trkpt lat="44.776864" lon="34.099977"><time>1970-01-01T00:00:01.000Z</time></trkpt>
			<trkpt lat="44.777787" lon="34.097960"><time>1970-01-01T00:00:01.000Z</time></trkpt>
			<trkpt lat="44.779375" lon="34.096844"><time>1970-01-01T00:00:01.000Z</time></trkpt>
			<trkpt lat="44.780147" lon="34.096479"><time>1970-01-01T00:00:01.000Z</time></trkpt>
			<trkpt lat="44.780684" lon="34.097316"><time>1970-01-01T00:00:01.000Z</time></trkpt>
			<trkpt lat="44.782079" lon="34.097445"><time>1970-01-01T00:00:01.000Z</time></trkpt>
			<trkpt lat="44.781199" lon="34.096973"><time>1970-01-01T00:00:01.000Z</time></trkpt>
			<trkpt lat="44.781220" lon="34.096415"><time>1970-01-01T00:00:01.000Z</time></trkpt>
			<trkpt lat="44.781821" lon="34.095406"><time>1970-01-01T00:00:01.000Z</time></trkpt>
			<trkpt lat="44.781907" lon="34.094548"><time>1970-01-01T00:00:01.000Z</time></trkpt>
			<trkpt lat="44.782143" lon="34.094441"><time>1970-01-01T00:00:01.000Z</time></trkpt>
			<trkpt lat="44.784954" lon="34.093904"><time>1970-01-01T00:00:01.000Z</time></trkpt>
			<trkpt lat="44.785791" lon="34.093883"><time>1970-01-01T00:00:01.000Z</time></trkpt>
			<trkpt lat="44.787185" lon="34.093110"><time>1970-01-01T00:00:01.000Z</time></trkpt>
			<trkpt lat="44.788816" lon="34.091007"><time>1970-01-01T00:00:01.000Z</time></trkpt>
			<trkpt lat="44.791005" lon="34.089934"><time>1970-01-01T00:00:01.000Z</time></trkpt>
			<trkpt lat="44.790962" lon="34.089613"><time>1970-01-01T00:00:01.000Z</time></trkpt>
			<trkpt lat="44.792593" lon="34.089892"><time>1970-01-01T00:00:01.000Z</time></trkpt>
			<trkpt lat="44.792829" lon="34.089698"><time>1970-01-01T00:00:01.000Z</time></trkpt>
			<trkpt lat="44.792893" lon="34.089248"><time>1970-01-01T00:00:01.000Z</time></trkpt>
			<trkpt lat="44.792421" lon="34.086930"><time>1970-01-01T00:00:01.000Z</time></trkpt>
			<trkpt lat="44.791220" lon="34.085815"><time>1970-01-01T00:00:01.000Z</time></trkpt>
			<trkpt lat="44.791327" lon="34.085278"><time>1970-01-01T00:00:01.000Z</time></trkpt>
			<trkpt lat="44.791606" lon="34.084720"><time>1970-01-01T00:00:01.000Z</time></trkpt>
			<trkpt lat="44.791627" lon="34.083883"><time>1970-01-01T00:00:01.000Z</time></trkpt>
			<trkpt lat="44.791971" lon="34.083132"><time>1970-01-01T00:00:01.000Z</time></trkpt>
			<trkpt lat="44.792400" lon="34.081781"><time>1970-01-01T00:00:01.000Z</time></trkpt>
			<trkpt lat="44.792378" lon="34.080836"><time>1970-01-01T00:00:01.000Z</time></trkpt>
			<trkpt lat="44.791155" lon="34.080729"><time>1970-01-01T00:00:01.000Z</time></trkpt>
			<trkpt lat="44.790469" lon="34.081008"><time>1970-01-01T00:00:01.000Z</time></trkpt>
			<trkpt lat="44.790232" lon="34.081051"><time>1970-01-01T00:00:01.000Z</time></trkpt>
			<trkpt lat="44.789889" lon="34.080987"><time>1970-01-01T00:00:01.000Z</time></trkpt>
			<trkpt lat="44.789868" lon="34.079184"><time>1970-01-01T00:00:01.000Z</time></trkpt>
			<trkpt lat="44.789803" lon="34.078712"><time>1970-01-01T00:00:01.000Z</time></trkpt>
			<trkpt lat="44.788945" lon="34.078648"><time>1970-01-01T00:00:01.000Z</time></trkpt>
			<trkpt lat="44.788559" lon="34.078090"><time>1970-01-01T00:00:01.000Z</time></trkpt>
			<trkpt lat="44.788602" lon="34.077618"><time>1970-01-01T00:00:01.000Z</time></trkpt>
			<trkpt lat="44.788280" lon="34.076802"><time>1970-01-01T00:00:01.000Z</time></trkpt>
			<trkpt lat="44.787679" lon="34.076545"><time>1970-01-01T00:00:01.000Z</time></trkpt>
			<trkpt lat="44.787572" lon="34.076244"><time>1970-01-01T00:00:01.000Z</time></trkpt>
			<trkpt lat="44.787829" lon="34.075794"><time>1970-01-01T00:00:01.000Z</time></trkpt>
			<trkpt lat="44.787936" lon="34.075172"><time>1970-01-01T00:00:01.000Z</time></trkpt>
			<trkpt lat="44.788130" lon="34.074700"><time>1970-01-01T00:00:01.000Z</time></trkpt>
			<trkpt lat="44.788151" lon="34.074142"><time>1970-01-01T00:00:01.000Z</time></trkpt>
			<trkpt lat="44.787700" lon="34.072897"><time>1970-01-01T00:00:01.000Z</time></trkpt>
			<trkpt lat="44.787679" lon="34.071824"><time>1970-01-01T00:00:01.000Z</time></trkpt>
			<trkpt lat="44.787486" lon="34.071159"><time>1970-01-01T00:00:01.000Z</time></trkpt>
			<trkpt lat="44.787464" lon="34.070215"><time>1970-01-01T00:00:01.000Z</time></trkpt>
			<trkpt lat="44.787164" lon="34.069228"><time>1970-01-01T00:00:01.000Z</time></trkpt>
			<trkpt lat="44.787143" lon="34.068584"><time>1970-01-01T00:00:01.000Z</time></trkpt>
			<trkpt lat="44.787057" lon="34.068026"><time>1970-01-01T00:00:01.000Z</time></trkpt>
			<trkpt lat="44.786756" lon="34.067275"><time>1970-01-01T00:00:01.000Z</time></trkpt>
			<trkpt lat="44.786113" lon="34.066288"><time>1970-01-01T00:00:01.000Z</time></trkpt>
			<trkpt lat="44.785126" lon="34.065473"><time>1970-01-01T00:00:01.000Z</time></trkpt>
			<trkpt lat="44.784289" lon="34.063713"><time>1970-01-01T00:00:01.000Z</time></trkpt>
			<trkpt lat="44.784096" lon="34.061825"><time>1970-01-01T00:00:01.000Z</time></trkpt>
			<trkpt lat="44.784224" lon="34.060237"><time>1970-01-01T00:00:01.000Z</time></trkpt>
			<trkpt lat="44.783752" lon="34.059078"><time>1970-01-01T00:00:01.000Z</time></trkpt>
			<trkpt lat="44.783817" lon="34.058284"><time>1970-01-01T00:00:01.000Z</time></trkpt>
			<trkpt lat="44.784224" lon="34.057104"><time>1970-01-01T00:00:01.000Z</time></trkpt>
			<trkpt lat="44.783731" lon="34.056053"><time>1970-01-01T00:00:01.000Z</time></trkpt>
			<trkpt lat="44.784997" lon="34.051911"><time>1970-01-01T00:00:01.000Z</time></trkpt>
			<trkpt lat="44.784332" lon="34.048929"><time>1970-01-01T00:00:01.000Z</time></trkpt>
			<trkpt lat="44.784761" lon="34.041290"><time>1970-01-01T00:00:01.000Z</time></trkpt>
			<trkpt lat="44.785383" lon="34.036204"><time>1970-01-01T00:00:01.000Z</time></trkpt>
			<trkpt lat="44.790254" lon="34.032020"><time>1970-01-01T00:00:01.000Z</time></trkpt>
			<trkpt lat="44.790490" lon="34.031870"><time>1970-01-01T00:00:01.000Z</time></trkpt>
			<trkpt lat="44.790597" lon="34.031913"><time>1970-01-01T00:00:01.000Z</time></trkpt>
			<trkpt lat="44.791048" lon="34.031140"><time>1970-01-01T00:00:01.000Z</time></trkpt>
			<trkpt lat="44.791220" lon="34.030282"><time>1970-01-01T00:00:01.000Z</time></trkpt>
			<trkpt lat="44.791670" lon="34.029681"><time>1970-01-01T00:00:01.000Z</time></trkpt>
			<trkpt lat="44.791906" lon="34.029574"><time>1970-01-01T00:00:01.000Z</time></trkpt>
			<trkpt lat="44.792164" lon="34.028973"><time>1970-01-01T00:00:01.000Z</time></trkpt>
			<trkpt lat="44.792292" lon="34.030046"><time>1970-01-01T00:00:01.000Z</time></trkpt>
			<trkpt lat="44.793473" lon="34.029703"><time>1970-01-01T00:00:01.000Z</time></trkpt>
			<trkpt lat="44.794138" lon="34.029402"><time>1970-01-01T00:00:01.000Z</time></trkpt>
			<trkpt lat="44.795103" lon="34.026892"><time>1970-01-01T00:00:01.000Z</time></trkpt>
			<trkpt lat="44.795103" lon="34.025261"><time>1970-01-01T00:00:01.000Z</time></trkpt>
			<trkpt lat="44.795683" lon="34.023995"><time>1970-01-01T00:00:01.000Z</time></trkpt>
			<trkpt lat="44.795747" lon="34.023759"><time>1970-01-01T00:00:01.000Z</time></trkpt>
			<trkpt lat="44.796477" lon="34.023330"><time>1970-01-01T00:00:01.000Z</time></trkpt>
			<trkpt lat="44.796369" lon="34.022064"><time>1970-01-01T00:00:01.000Z</time></trkpt>
			<trkpt lat="44.795490" lon="34.017064"><time>1970-01-01T00:00:01.000Z</time></trkpt>
			<trkpt lat="44.795468" lon="34.016270"><time>1970-01-01T00:00:01.000Z</time></trkpt>
			<trkpt lat="44.794867" lon="34.013695"><time>1970-01-01T00:00:01.000Z</time></trkpt>
			<trkpt lat="44.793923" lon="34.010906"><time>1970-01-01T00:00:01.000Z</time></trkpt>
			<trkpt lat="44.793794" lon="34.010348"><time>1970-01-01T00:00:01.000Z</time></trkpt>
			<trkpt lat="44.793752" lon="34.009597"><time>1970-01-01T00:00:01.000Z</time></trkpt>
			<trkpt lat="44.793859" lon="34.008953"><time>1970-01-01T00:00:01.000Z</time></trkpt>
			<trkpt lat="44.793709" lon="34.008245"><time>1970-01-01T00:00:01.000Z</time></trkpt>
			<trkpt lat="44.793730" lon="34.007365"><time>1970-01-01T00:00:01.000Z</time></trkpt>
			<trkpt lat="44.793430" lon="34.006078"><time>1970-01-01T00:00:01.000Z</time></trkpt>
			<trkpt lat="44.793129" lon="34.005499"><time>1970-01-01T00:00:01.000Z</time></trkpt>
			<trkpt lat="44.792893" lon="34.004748"><time>1970-01-01T00:00:01.000Z</time></trkpt>
			<trkpt lat="44.792679" lon="34.003439"><time>1970-01-01T00:00:01.000Z</time></trkpt>
			<trkpt lat="44.792164" lon="34.002344"><time>1970-01-01T00:00:01.000Z</time></trkpt>
			<trkpt lat="44.791777" lon="34.001207"><time>1970-01-01T00:00:01.000Z</time></trkpt>
			<trkpt lat="44.791305" lon="34.000499"><time>1970-01-01T00:00:01.000Z</time></trkpt>
			<trkpt lat="44.791069" lon="33.999748"><time>1970-01-01T00:00:01.000Z</time></trkpt>
			<trkpt lat="44.790447" lon="33.998181"><time>1970-01-01T00:00:01.000Z</time></trkpt>
			<trkpt lat="44.790168" lon="33.997988"><time>1970-01-01T00:00:01.000Z</time></trkpt>
			<trkpt lat="44.788902" lon="33.997388"><time>1970-01-01T00:00:01.000Z</time></trkpt>
			<trkpt lat="44.788430" lon="33.996744"><time>1970-01-01T00:00:01.000Z</time></trkpt>
			<trkpt lat="44.787894" lon="33.996400"><time>1970-01-01T00:00:01.000Z</time></trkpt>
			<trkpt lat="44.787164" lon="33.994512"><time>1970-01-01T00:00:01.000Z</time></trkpt>
			<trkpt lat="44.786713" lon="33.994662"><time>1970-01-01T00:00:01.000Z</time></trkpt>
			<trkpt lat="44.786520" lon="33.994963"><time>1970-01-01T00:00:01.000Z</time></trkpt>
			<trkpt lat="44.786220" lon="33.994813"><time>1970-01-01T00:00:01.000Z</time></trkpt>
			<trkpt lat="44.785190" lon="33.993976"><time>1970-01-01T00:00:01.000Z</time></trkpt>
			<trkpt lat="44.784975" lon="33.993632"><time>1970-01-01T00:00:01.000Z</time></trkpt>
			<trkpt lat="44.784417" lon="33.992066"><time>1970-01-01T00:00:01.000Z</time></trkpt>
			<trkpt lat="44.784932" lon="33.990543"><time>1970-01-01T00:00:01.000Z</time></trkpt>
			<trkpt lat="44.783881" lon="33.988783"><time>1970-01-01T00:00:01.000Z</time></trkpt>
			<trkpt lat="44.782636" lon="33.988225"><time>1970-01-01T00:00:01.000Z</time></trkpt>
			<trkpt lat="44.778731" lon="33.986294"><time>1970-01-01T00:00:01.000Z</time></trkpt>
			<trkpt lat="44.778066" lon="33.985221"><time>1970-01-01T00:00:01.000Z</time></trkpt>
			<trkpt lat="44.777186" lon="33.984170"><time>1970-01-01T00:00:01.000Z</time></trkpt>
			<trkpt lat="44.773817" lon="33.980436"><time>1970-01-01T00:00:01.000Z</time></trkpt>
			<trkpt lat="44.773581" lon="33.979427"><time>1970-01-01T00:00:01.000Z</time></trkpt>
			<trkpt lat="44.771521" lon="33.977496"><time>1970-01-01T00:00:01.000Z</time></trkpt>
			<trkpt lat="44.771135" lon="33.976938"><time>1970-01-01T00:00:01.000Z</time></trkpt>
			<trkpt lat="44.770513" lon="33.974750"><time>1970-01-01T00:00:01.000Z</time></trkpt>
			<trkpt lat="44.770105" lon="33.971338"><time>1970-01-01T00:00:01.000Z</time></trkpt>
			<trkpt lat="44.769483" lon="33.969707"><time>1970-01-01T00:00:01.000Z</time></trkpt>
			<trkpt lat="44.768904" lon="33.967733"><time>1970-01-01T00:00:01.000Z</time></trkpt>
			<trkpt lat="44.767723" lon="33.966059"><time>1970-01-01T00:00:01.000Z</time></trkpt>
			<trkpt lat="44.766093" lon="33.962240"><time>1970-01-01T00:00:01.000Z</time></trkpt>
			<trkpt lat="44.766114" lon="33.960909"><time>1970-01-01T00:00:01.000Z</time></trkpt>
			<trkpt lat="44.766028" lon="33.960394"><time>1970-01-01T00:00:01.000Z</time></trkpt>
			<trkpt lat="44.764655" lon="33.958914"><time>1970-01-01T00:00:01.000Z</time></trkpt>
			<trkpt lat="44.764312" lon="33.958249"><time>1970-01-01T00:00:01.000Z</time></trkpt>
			<trkpt lat="44.763561" lon="33.955094"><time>1970-01-01T00:00:01.000Z</time></trkpt>
			<trkpt lat="44.763625" lon="33.953914"><time>1970-01-01T00:00:01.000Z</time></trkpt>
			<trkpt lat="44.763217" lon="33.951125"><time>1970-01-01T00:00:01.000Z</time></trkpt>
			<trkpt lat="44.762960" lon="33.950524"><time>1970-01-01T00:00:01.000Z</time></trkpt>
			<trkpt lat="44.762295" lon="33.949494"><time>1970-01-01T00:00:01.000Z</time></trkpt>
			<trkpt lat="44.762123" lon="33.948979"><time>1970-01-01T00:00:01.000Z</time></trkpt>
			<trkpt lat="44.761758" lon="33.948850"><time>1970-01-01T00:00:01.000Z</time></trkpt>
			<trkpt lat="44.761586" lon="33.948056"><time>1970-01-01T00:00:01.000Z</time></trkpt>
			<trkpt lat="44.761608" lon="33.947348"><time>1970-01-01T00:00:01.000Z</time></trkpt>
			<trkpt lat="44.762466" lon="33.946104"><time>1970-01-01T00:00:01.000Z</time></trkpt>
			<trkpt lat="44.763797" lon="33.941662"><time>1970-01-01T00:00:01.000Z</time></trkpt>
			<trkpt lat="44.763732" lon="33.940889"><time>1970-01-01T00:00:01.000Z</time></trkpt>
			<trkpt lat="44.762917" lon="33.936383"><time>1970-01-01T00:00:01.000Z</time></trkpt>
			<trkpt lat="44.762252" lon="33.933916"><time>1970-01-01T00:00:01.000Z</time></trkpt>
			<trkpt lat="44.761715" lon="33.932950"><time>1970-01-01T00:00:01.000Z</time></trkpt>
			<trkpt lat="44.761908" lon="33.932049"><time>1970-01-01T00:00:01.000Z</time></trkpt>
			<trkpt lat="44.762466" lon="33.930719"><time>1970-01-01T00:00:01.000Z</time></trkpt>
			<trkpt lat="44.762209" lon="33.929839"><time>1970-01-01T00:00:01.000Z</time></trkpt>
			<trkpt lat="44.760428" lon="33.928423"><time>1970-01-01T00:00:01.000Z</time></trkpt>
			<trkpt lat="44.759934" lon="33.928315"><time>1970-01-01T00:00:01.000Z</time></trkpt>
			<trkpt lat="44.759140" lon="33.928229"><time>1970-01-01T00:00:01.000Z</time></trkpt>
			<trkpt lat="44.758776" lon="33.927822"><time>1970-01-01T00:00:01.000Z</time></trkpt>
			<trkpt lat="44.758604" lon="33.927350"><time>1970-01-01T00:00:01.000Z</time></trkpt>
			<trkpt lat="44.757746" lon="33.926663"><time>1970-01-01T00:00:01.000Z</time></trkpt>
			<trkpt lat="44.756780" lon="33.926406"><time>1970-01-01T00:00:01.000Z</time></trkpt>
			<trkpt lat="44.756329" lon="33.925633"><time>1970-01-01T00:00:01.000Z</time></trkpt>
			<trkpt lat="44.756050" lon="33.925268"><time>1970-01-01T00:00:01.000Z</time></trkpt>
			<trkpt lat="44.755879" lon="33.924560"><time>1970-01-01T00:00:01.000Z</time></trkpt>
			<trkpt lat="44.755471" lon="33.924131"><time>1970-01-01T00:00:01.000Z</time></trkpt>
			<trkpt lat="44.755149" lon="33.923337"><time>1970-01-01T00:00:01.000Z</time></trkpt>
			<trkpt lat="44.755128" lon="33.922414"><time>1970-01-01T00:00:01.000Z</time></trkpt>
			<trkpt lat="44.754806" lon="33.920333"><time>1970-01-01T00:00:01.000Z</time></trkpt>
			<trkpt lat="44.754892" lon="33.919367"><time>1970-01-01T00:00:01.000Z</time></trkpt>
			<trkpt lat="44.754763" lon="33.919067"><time>1970-01-01T00:00:01.000Z</time></trkpt>
			<trkpt lat="44.754999" lon="33.917286"><time>1970-01-01T00:00:01.000Z</time></trkpt>
			<trkpt lat="44.754634" lon="33.916750"><time>1970-01-01T00:00:01.000Z</time></trkpt>
			<trkpt lat="44.755085" lon="33.915805"><time>1970-01-01T00:00:01.000Z</time></trkpt>
			<trkpt lat="44.754119" lon="33.914797"><time>1970-01-01T00:00:01.000Z</time></trkpt>
			<trkpt lat="44.753025" lon="33.911814"><time>1970-01-01T00:00:01.000Z</time></trkpt>
			<trkpt lat="44.753003" lon="33.910977"><time>1970-01-01T00:00:01.000Z</time></trkpt>
			<trkpt lat="44.752746" lon="33.910720"><time>1970-01-01T00:00:01.000Z</time></trkpt>
			<trkpt lat="44.752081" lon="33.911020"><time>1970-01-01T00:00:01.000Z</time></trkpt>
			<trkpt lat="44.751866" lon="33.910913"><time>1970-01-01T00:00:01.000Z</time></trkpt>
			<trkpt lat="44.751673" lon="33.911020"><time>1970-01-01T00:00:01.000Z</time></trkpt>
			<trkpt lat="44.751394" lon="33.911450"><time>1970-01-01T00:00:01.000Z</time></trkpt>
			<trkpt lat="44.750364" lon="33.912072"><time>1970-01-01T00:00:01.000Z</time></trkpt>
			<trkpt lat="44.750042" lon="33.911857"><time>1970-01-01T00:00:01.000Z</time></trkpt>
			<trkpt lat="44.749570" lon="33.911793"><time>1970-01-01T00:00:01.000Z</time></trkpt>
			<trkpt lat="44.749055" lon="33.910634"><time>1970-01-01T00:00:01.000Z</time></trkpt>
			<trkpt lat="44.748540" lon="33.909089"><time>1970-01-01T00:00:01.000Z</time></trkpt>
			<trkpt lat="44.748562" lon="33.906214"><time>1970-01-01T00:00:01.000Z</time></trkpt>
			<trkpt lat="44.748411" lon="33.905463"><time>1970-01-01T00:00:01.000Z</time></trkpt>
			<trkpt lat="44.748111" lon="33.904369"><time>1970-01-01T00:00:01.000Z</time></trkpt>
			<trkpt lat="44.747918" lon="33.904540"><time>1970-01-01T00:00:01.000Z</time></trkpt>
			<trkpt lat="44.747918" lon="33.905184"><time>1970-01-01T00:00:01.000Z</time></trkpt>
			<trkpt lat="44.747553" lon="33.906879"><time>1970-01-01T00:00:01.000Z</time></trkpt>
			<trkpt lat="44.746416" lon="33.907909"><time>1970-01-01T00:00:01.000Z</time></trkpt>
			<trkpt lat="44.745901" lon="33.907566"><time>1970-01-01T00:00:01.000Z</time></trkpt>
			<trkpt lat="44.745837" lon="33.909046"><time>1970-01-01T00:00:01.000Z</time></trkpt>
			<trkpt lat="44.745407" lon="33.909604"><time>1970-01-01T00:00:01.000Z</time></trkpt>
			<trkpt lat="44.744056" lon="33.910505"><time>1970-01-01T00:00:01.000Z</time></trkpt>
			<trkpt lat="44.743390" lon="33.911664"><time>1970-01-01T00:00:01.000Z</time></trkpt>
			<trkpt lat="44.741609" lon="33.913831"><time>1970-01-01T00:00:01.000Z</time></trkpt>
			<trkpt lat="44.740000" lon="33.916192"><time>1970-01-01T00:00:01.000Z</time></trkpt>
			<trkpt lat="44.739635" lon="33.917715"><time>1970-01-01T00:00:01.000Z</time></trkpt>
			<trkpt lat="44.740043" lon="33.919775"><time>1970-01-01T00:00:01.000Z</time></trkpt>
			<trkpt lat="44.740022" lon="33.921127"><time>1970-01-01T00:00:01.000Z</time></trkpt>
			<trkpt lat="44.740343" lon="33.921105"><time>1970-01-01T00:00:01.000Z</time></trkpt>
			<trkpt lat="44.740773" lon="33.919968"><time>1970-01-01T00:00:01.000Z</time></trkpt>
			<trkpt lat="44.741180" lon="33.921213"><time>1970-01-01T00:00:01.000Z</time></trkpt>
			<trkpt lat="44.741223" lon="33.921706"><time>1970-01-01T00:00:01.000Z</time></trkpt>
			<trkpt lat="44.741180" lon="33.922801"><time>1970-01-01T00:00:01.000Z</time></trkpt>
			<trkpt lat="44.740966" lon="33.923831"><time>1970-01-01T00:00:01.000Z</time></trkpt>
			<trkpt lat="44.740129" lon="33.924796"><time>1970-01-01T00:00:01.000Z</time></trkpt>
			<trkpt lat="44.739485" lon="33.926899"><time>1970-01-01T00:00:01.000Z</time></trkpt>
			<trkpt lat="44.739034" lon="33.928036"><time>1970-01-01T00:00:01.000Z</time></trkpt>
			<trkpt lat="44.738434" lon="33.929152"><time>1970-01-01T00:00:01.000Z</time></trkpt>
			<trkpt lat="44.737382" lon="33.929174"><time>1970-01-01T00:00:01.000Z</time></trkpt>
			<trkpt lat="44.737275" lon="33.928809"><time>1970-01-01T00:00:01.000Z</time></trkpt>
			<trkpt lat="44.737597" lon="33.927908"><time>1970-01-01T00:00:01.000Z</time></trkpt>
			<trkpt lat="44.737618" lon="33.925268"><time>1970-01-01T00:00:01.000Z</time></trkpt>
			<trkpt lat="44.737017" lon="33.924238"><time>1970-01-01T00:00:01.000Z</time></trkpt>
			<trkpt lat="44.735515" lon="33.923680"><time>1970-01-01T00:00:01.000Z</time></trkpt>
			<trkpt lat="44.734872" lon="33.922264"><time>1970-01-01T00:00:01.000Z</time></trkpt>
			<trkpt lat="44.734421" lon="33.919904"><time>1970-01-01T00:00:01.000Z</time></trkpt>
			<trkpt lat="44.734164" lon="33.916814"><time>1970-01-01T00:00:01.000Z</time></trkpt>
			<trkpt lat="44.732275" lon="33.913037"><time>1970-01-01T00:00:01.000Z</time></trkpt>
			<trkpt lat="44.731953" lon="33.911256"><time>1970-01-01T00:00:01.000Z</time></trkpt>
			<trkpt lat="44.731460" lon="33.909518"><time>1970-01-01T00:00:01.000Z</time></trkpt>
			<trkpt lat="44.730859" lon="33.908810"><time>1970-01-01T00:00:01.000Z</time></trkpt>
			<trkpt lat="44.729142" lon="33.909111"><time>1970-01-01T00:00:01.000Z</time></trkpt>
			<trkpt lat="44.727855" lon="33.909969"><time>1970-01-01T00:00:01.000Z</time></trkpt>
			<trkpt lat="44.726353" lon="33.909711"><time>1970-01-01T00:00:01.000Z</time></trkpt>
			<trkpt lat="44.723456" lon="33.910141"><time>1970-01-01T00:00:01.000Z</time></trkpt>
			<trkpt lat="44.722834" lon="33.910699"><time>1970-01-01T00:00:01.000Z</time></trkpt>
			<trkpt lat="44.718950" lon="33.910205"><time>1970-01-01T00:00:01.000Z</time></trkpt>
			<trkpt lat="44.717877" lon="33.909926"><time>1970-01-01T00:00:01.000Z</time></trkpt>
			<trkpt lat="44.717191" lon="33.910076"><time>1970-01-01T00:00:01.000Z</time></trkpt>
			<trkpt lat="44.716354" lon="33.909647"><time>1970-01-01T00:00:01.000Z</time></trkpt>
			<trkpt lat="44.714959" lon="33.910420"><time>1970-01-01T00:00:01.000Z</time></trkpt>
			<trkpt lat="44.714680" lon="33.910849"><time>1970-01-01T00:00:01.000Z</time></trkpt>
			<trkpt lat="44.713114" lon="33.911085"><time>1970-01-01T00:00:01.000Z</time></trkpt>
			<trkpt lat="44.712813" lon="33.910591"><time>1970-01-01T00:00:01.000Z</time></trkpt>
			<trkpt lat="44.709680" lon="33.908832"><time>1970-01-01T00:00:01.000Z</time></trkpt>
			<trkpt lat="44.709401" lon="33.907394"><time>1970-01-01T00:00:01.000Z</time></trkpt>
			<trkpt lat="44.707363" lon="33.906686"><time>1970-01-01T00:00:01.000Z</time></trkpt>
			<trkpt lat="44.706891" lon="33.907330"><time>1970-01-01T00:00:01.000Z</time></trkpt>
			<trkpt lat="44.705732" lon="33.906750"><time>1970-01-01T00:00:01.000Z</time></trkpt>
			<trkpt lat="44.703629" lon="33.899240"><time>1970-01-01T00:00:01.000Z</time></trkpt>
			<trkpt lat="44.703629" lon="33.898532"><time>1970-01-01T00:00:01.000Z</time></trkpt>
			<trkpt lat="44.703007" lon="33.897094"><time>1970-01-01T00:00:01.000Z</time></trkpt>
			<trkpt lat="44.702642" lon="33.893811"><time>1970-01-01T00:00:01.000Z</time></trkpt>
			<trkpt lat="44.703501" lon="33.890464"><time>1970-01-01T00:00:01.000Z</time></trkpt>
			<trkpt lat="44.704960" lon="33.887932"><time>1970-01-01T00:00:01.000Z</time></trkpt>
			<trkpt lat="44.705153" lon="33.885893"><time>1970-01-01T00:00:01.000Z</time></trkpt>
			<trkpt lat="44.705560" lon="33.885207"><time>1970-01-01T00:00:01.000Z</time></trkpt>
			<trkpt lat="44.705496" lon="33.882975"><time>1970-01-01T00:00:01.000Z</time></trkpt>
			<trkpt lat="44.705732" lon="33.881924"><time>1970-01-01T00:00:01.000Z</time></trkpt>
			<trkpt lat="44.705475" lon="33.881580"><time>1970-01-01T00:00:01.000Z</time></trkpt>
			<trkpt lat="44.705346" lon="33.881216"><time>1970-01-01T00:00:01.000Z</time></trkpt>
			<trkpt lat="44.705410" lon="33.880057"><time>1970-01-01T00:00:01.000Z</time></trkpt>
			<trkpt lat="44.705324" lon="33.879928"><time>1970-01-01T00:00:01.000Z</time></trkpt>
			<trkpt lat="44.705046" lon="33.880229"><time>1970-01-01T00:00:01.000Z</time></trkpt>
			<trkpt lat="44.705046" lon="33.880379"><time>1970-01-01T00:00:01.000Z</time></trkpt>
			<trkpt lat="44.705131" lon="33.880550"><time>1970-01-01T00:00:01.000Z</time></trkpt>
			<trkpt lat="44.705131" lon="33.880722"><time>1970-01-01T00:00:01.000Z</time></trkpt>
			<trkpt lat="44.704960" lon="33.880808"><time>1970-01-01T00:00:01.000Z</time></trkpt>
			<trkpt lat="44.703758" lon="33.879048"><time>1970-01-01T00:00:01.000Z</time></trkpt>
			<trkpt lat="44.702642" lon="33.878619"><time>1970-01-01T00:00:01.000Z</time></trkpt>
			<trkpt lat="44.701226" lon="33.877654"><time>1970-01-01T00:00:01.000Z</time></trkpt>
			<trkpt lat="44.700625" lon="33.877675"><time>1970-01-01T00:00:01.000Z</time></trkpt>
			<trkpt lat="44.700496" lon="33.877568"><time>1970-01-01T00:00:01.000Z</time></trkpt>
			<trkpt lat="44.700175" lon="33.877782"><time>1970-01-01T00:00:01.000Z</time></trkpt>
			<trkpt lat="44.700024" lon="33.877525"><time>1970-01-01T00:00:01.000Z</time></trkpt>
			<trkpt lat="44.699574" lon="33.877160"><time>1970-01-01T00:00:01.000Z</time></trkpt>
			<trkpt lat="44.697922" lon="33.877911"><time>1970-01-01T00:00:01.000Z</time></trkpt>
			<trkpt lat="44.694553" lon="33.881688"><time>1970-01-01T00:00:01.000Z</time></trkpt>
			<trkpt lat="44.693866" lon="33.880722"><time>1970-01-01T00:00:01.000Z</time></trkpt>
			<trkpt lat="44.692343" lon="33.882932"><time>1970-01-01T00:00:01.000Z</time></trkpt>
			<trkpt lat="44.691699" lon="33.885851"><time>1970-01-01T00:00:01.000Z</time></trkpt>
			<trkpt lat="44.691656" lon="33.891580"><time>1970-01-01T00:00:01.000Z</time></trkpt>
			<trkpt lat="44.690926" lon="33.894262"><time>1970-01-01T00:00:01.000Z</time></trkpt>
			<trkpt lat="44.690368" lon="33.894305"><time>1970-01-01T00:00:01.000Z</time></trkpt>
			<trkpt lat="44.690197" lon="33.899455"><time>1970-01-01T00:00:01.000Z</time></trkpt>
			<trkpt lat="44.688695" lon="33.901600"><time>1970-01-01T00:00:01.000Z</time></trkpt>
			<trkpt lat="44.686592" lon="33.902695"><time>1970-01-01T00:00:01.000Z</time></trkpt>
			<trkpt lat="44.684103" lon="33.903768"><time>1970-01-01T00:00:01.000Z</time></trkpt>
			<trkpt lat="44.683116" lon="33.905398"><time>1970-01-01T00:00:01.000Z</time></trkpt>
			<trkpt lat="44.682772" lon="33.905656"><time>1970-01-01T00:00:01.000Z</time></trkpt>
			<trkpt lat="44.681571" lon="33.905935"><time>1970-01-01T00:00:01.000Z</time></trkpt>
			<trkpt lat="44.681206" lon="33.905034"><time>1970-01-01T00:00:01.000Z</time></trkpt>
			<trkpt lat="44.680155" lon="33.907137"><time>1970-01-01T00:00:01.000Z</time></trkpt>
			<trkpt lat="44.679382" lon="33.907845"><time>1970-01-01T00:00:01.000Z</time></trkpt>
			<trkpt lat="44.678481" lon="33.907544"><time>1970-01-01T00:00:01.000Z</time></trkpt>
			<trkpt lat="44.677258" lon="33.908124"><time>1970-01-01T00:00:01.000Z</time></trkpt>
			<trkpt lat="44.676121" lon="33.910269"><time>1970-01-01T00:00:01.000Z</time></trkpt>
			<trkpt lat="44.674704" lon="33.913853"><time>1970-01-01T00:00:01.000Z</time></trkpt>
			<trkpt lat="44.673245" lon="33.915612"><time>1970-01-01T00:00:01.000Z</time></trkpt>
			<trkpt lat="44.671572" lon="33.916707"><time>1970-01-01T00:00:01.000Z</time></trkpt>
			<trkpt lat="44.664555" lon="33.923037"><time>1970-01-01T00:00:01.000Z</time></trkpt>
			<trkpt lat="44.664126" lon="33.925054"><time>1970-01-01T00:00:01.000Z</time></trkpt>
			<trkpt lat="44.664040" lon="33.926921"><time>1970-01-01T00:00:01.000Z</time></trkpt>
			<trkpt lat="44.662602" lon="33.929002"><time>1970-01-01T00:00:01.000Z</time></trkpt>
			<trkpt lat="44.662237" lon="33.932092"><time>1970-01-01T00:00:01.000Z</time></trkpt>
			<trkpt lat="44.662967" lon="33.934559"><time>1970-01-01T00:00:01.000Z</time></trkpt>
			<trkpt lat="44.662452" lon="33.936727"><time>1970-01-01T00:00:01.000Z</time></trkpt>
			<trkpt lat="44.662023" lon="33.938057"><time>1970-01-01T00:00:01.000Z</time></trkpt>
			<trkpt lat="44.662152" lon="33.939345"><time>1970-01-01T00:00:01.000Z</time></trkpt>
			<trkpt lat="44.662903" lon="33.941233"><time>1970-01-01T00:00:01.000Z</time></trkpt>
			<trkpt lat="44.664083" lon="33.942434"><time>1970-01-01T00:00:01.000Z</time></trkpt>
			<trkpt lat="44.664319" lon="33.943250"><time>1970-01-01T00:00:01.000Z</time></trkpt>
			<trkpt lat="44.666744" lon="33.944516"><time>1970-01-01T00:00:01.000Z</time></trkpt>
			<trkpt lat="44.666980" lon="33.945095"><time>1970-01-01T00:00:01.000Z</time></trkpt>
			<trkpt lat="44.665735" lon="33.946876"><time>1970-01-01T00:00:01.000Z</time></trkpt>
			<trkpt lat="44.665134" lon="33.949988"><time>1970-01-01T00:00:01.000Z</time></trkpt>
			<trkpt lat="44.665520" lon="33.952069"><time>1970-01-01T00:00:01.000Z</time></trkpt>
			<trkpt lat="44.665799" lon="33.952455"><time>1970-01-01T00:00:01.000Z</time></trkpt>
			<trkpt lat="44.665735" lon="33.953206"><time>1970-01-01T00:00:01.000Z</time></trkpt>
			<trkpt lat="44.665284" lon="33.953550"><time>1970-01-01T00:00:01.000Z</time></trkpt>
			<trkpt lat="44.664641" lon="33.954193"><time>1970-01-01T00:00:01.000Z</time></trkpt>
			<trkpt lat="44.663589" lon="33.954515"><time>1970-01-01T00:00:01.000Z</time></trkpt>
			<trkpt lat="44.660950" lon="33.957584"><time>1970-01-01T00:00:01.000Z</time></trkpt>
			<trkpt lat="44.657431" lon="33.963055"><time>1970-01-01T00:00:01.000Z</time></trkpt>
			<trkpt lat="44.657324" lon="33.963849"><time>1970-01-01T00:00:01.000Z</time></trkpt>
			<trkpt lat="44.656315" lon="33.964750"><time>1970-01-01T00:00:01.000Z</time></trkpt>
			<trkpt lat="44.654942" lon="33.964793"><time>1970-01-01T00:00:01.000Z</time></trkpt>
			<trkpt lat="44.655156" lon="33.967390"><time>1970-01-01T00:00:01.000Z</time></trkpt>
			<trkpt lat="44.654835" lon="33.967969"><time>1970-01-01T00:00:01.000Z</time></trkpt>
			<trkpt lat="44.654556" lon="33.967454"><time>1970-01-01T00:00:01.000Z</time></trkpt>
			<trkpt lat="44.652260" lon="33.967540"><time>1970-01-01T00:00:01.000Z</time></trkpt>
			<trkpt lat="44.650543" lon="33.969535"><time>1970-01-01T00:00:01.000Z</time></trkpt>
			<trkpt lat="44.650178" lon="33.971574"><time>1970-01-01T00:00:01.000Z</time></trkpt>
			<trkpt lat="44.648741" lon="33.972904"><time>1970-01-01T00:00:01.000Z</time></trkpt>
			<trkpt lat="44.648633" lon="33.973570"><time>1970-01-01T00:00:01.000Z</time></trkpt>
			<trkpt lat="44.648247" lon="33.973269"><time>1970-01-01T00:00:01.000Z</time></trkpt>
			<trkpt lat="44.647002" lon="33.973076"><time>1970-01-01T00:00:01.000Z</time></trkpt>
			<trkpt lat="44.646080" lon="33.972411"><time>1970-01-01T00:00:01.000Z</time></trkpt>
			<trkpt lat="44.644578" lon="33.972454"><time>1970-01-01T00:00:01.000Z</time></trkpt>
			<trkpt lat="44.644170" lon="33.973655"><time>1970-01-01T00:00:01.000Z</time></trkpt>
			<trkpt lat="44.642840" lon="33.974406"><time>1970-01-01T00:00:01.000Z</time></trkpt>
			<trkpt lat="44.640351" lon="33.973848"><time>1970-01-01T00:00:01.000Z</time></trkpt>
			<trkpt lat="44.639578" lon="33.974621"><time>1970-01-01T00:00:01.000Z</time></trkpt>
			<trkpt lat="44.638763" lon="33.972668"><time>1970-01-01T00:00:01.000Z</time></trkpt>
			<trkpt lat="44.638183" lon="33.969772"><time>1970-01-01T00:00:01.000Z</time></trkpt>
			<trkpt lat="44.636810" lon="33.968677"><time>1970-01-01T00:00:01.000Z</time></trkpt>
			<trkpt lat="44.634579" lon="33.968935"><time>1970-01-01T00:00:01.000Z</time></trkpt>
			<trkpt lat="44.634171" lon="33.968763"><time>1970-01-01T00:00:01.000Z</time></trkpt>
			<trkpt lat="44.632883" lon="33.968870"><time>1970-01-01T00:00:01.000Z</time></trkpt>
			<trkpt lat="44.632175" lon="33.969342"><time>1970-01-01T00:00:01.000Z</time></trkpt>
			<trkpt lat="44.631424" lon="33.971359"><time>1970-01-01T00:00:01.000Z</time></trkpt>
			<trkpt lat="44.630652" lon="33.974428"><time>1970-01-01T00:00:01.000Z</time></trkpt>
			<trkpt lat="44.629772" lon="33.976702"><time>1970-01-01T00:00:01.000Z</time></trkpt>
			<trkpt lat="44.628935" lon="33.978548"><time>1970-01-01T00:00:01.000Z</time></trkpt>
			<trkpt lat="44.628077" lon="33.978998"><time>1970-01-01T00:00:01.000Z</time></trkpt>
			<trkpt lat="44.627562" lon="33.980672"><time>1970-01-01T00:00:01.000Z</time></trkpt>
			<trkpt lat="44.628248" lon="33.982668"><time>1970-01-01T00:00:01.000Z</time></trkpt>
			<trkpt lat="44.627326" lon="33.984234"><time>1970-01-01T00:00:01.000Z</time></trkpt>
			<trkpt lat="44.627884" lon="33.986616"><time>1970-01-01T00:00:01.000Z</time></trkpt>
			<trkpt lat="44.626339" lon="33.986959"><time>1970-01-01T00:00:01.000Z</time></trkpt>
			<trkpt lat="44.620202" lon="33.990886"><time>1970-01-01T00:00:01.000Z</time></trkpt>
			<trkpt lat="44.619537" lon="33.992560"><time>1970-01-01T00:00:01.000Z</time></trkpt>
			<trkpt lat="44.618163" lon="34.002130"><time>1970-01-01T00:00:01.000Z</time></trkpt>
			<trkpt lat="44.617219" lon="34.004082"><time>1970-01-01T00:00:01.000Z</time></trkpt>
			<trkpt lat="44.615374" lon="34.005906"><time>1970-01-01T00:00:01.000Z</time></trkpt>
			<trkpt lat="44.613571" lon="34.006765"><time>1970-01-01T00:00:01.000Z</time></trkpt>
			<trkpt lat="44.612305" lon="34.008374"><time>1970-01-01T00:00:01.000Z</time></trkpt>
			<trkpt lat="44.611211" lon="34.006786"><time>1970-01-01T00:00:01.000Z</time></trkpt>
			<trkpt lat="44.610868" lon="34.005992"><time>1970-01-01T00:00:01.000Z</time></trkpt>
			<trkpt lat="44.610267" lon="34.005949"><time>1970-01-01T00:00:01.000Z</time></trkpt>
			<trkpt lat="44.609988" lon="34.006657"><time>1970-01-01T00:00:01.000Z</time></trkpt>
			<trkpt lat="44.608829" lon="34.007408"><time>1970-01-01T00:00:01.000Z</time></trkpt>
			<trkpt lat="44.607907" lon="34.009318"><time>1970-01-01T00:00:01.000Z</time></trkpt>
			<trkpt lat="44.605460" lon="34.011614"><time>1970-01-01T00:00:01.000Z</time></trkpt>
			<trkpt lat="44.603508" lon="34.013674"><time>1970-01-01T00:00:01.000Z</time></trkpt>
			<trkpt lat="44.603057" lon="34.013974"><time>1970-01-01T00:00:01.000Z</time></trkpt>
			<trkpt lat="44.602135" lon="34.015069"><time>1970-01-01T00:00:01.000Z</time></trkpt>
			<trkpt lat="44.601212" lon="34.016442"><time>1970-01-01T00:00:01.000Z</time></trkpt>
			<trkpt lat="44.600632" lon="34.016442"><time>1970-01-01T00:00:01.000Z</time></trkpt>
			<trkpt lat="44.599624" lon="34.015112"><time>1970-01-01T00:00:01.000Z</time></trkpt>
			<trkpt lat="44.597221" lon="34.016871"><time>1970-01-01T00:00:01.000Z</time></trkpt>
			<trkpt lat="44.596942" lon="34.018438"><time>1970-01-01T00:00:01.000Z</time></trkpt>
			<trkpt lat="44.598573" lon="34.020948"><time>1970-01-01T00:00:01.000Z</time></trkpt>
			<trkpt lat="44.599023" lon="34.023265"><time>1970-01-01T00:00:01.000Z</time></trkpt>
			<trkpt lat="44.599710" lon="34.023351"><time>1970-01-01T00:00:01.000Z</time></trkpt>
			<trkpt lat="44.599839" lon="34.025926"><time>1970-01-01T00:00:01.000Z</time></trkpt>
			<trkpt lat="44.600096" lon="34.026656"><time>1970-01-01T00:00:01.000Z</time></trkpt>
			<trkpt lat="44.600354" lon="34.026870"><time>1970-01-01T00:00:01.000Z</time></trkpt>
			<trkpt lat="44.600375" lon="34.027321"><time>1970-01-01T00:00:01.000Z</time></trkpt>
			<trkpt lat="44.599989" lon="34.028115"><time>1970-01-01T00:00:01.000Z</time></trkpt>
			<trkpt lat="44.600032" lon="34.028823"><time>1970-01-01T00:00:01.000Z</time></trkpt>
			<trkpt lat="44.600783" lon="34.030003"><time>1970-01-01T00:00:01.000Z</time></trkpt>
			<trkpt lat="44.601062" lon="34.031205"><time>1970-01-01T00:00:01.000Z</time></trkpt>
			<trkpt lat="44.600611" lon="34.032600"><time>1970-01-01T00:00:01.000Z</time></trkpt>
			<trkpt lat="44.600225" lon="34.034381"><time>1970-01-01T00:00:01.000Z</time></trkpt>
			<trkpt lat="44.600268" lon="34.035089"><time>1970-01-01T00:00:01.000Z</time></trkpt>
			<trkpt lat="44.600547" lon="34.035689"><time>1970-01-01T00:00:01.000Z</time></trkpt>
			<trkpt lat="44.600997" lon="34.035968"><time>1970-01-01T00:00:01.000Z</time></trkpt>
			<trkpt lat="44.601834" lon="34.037213"><time>1970-01-01T00:00:01.000Z</time></trkpt>
			<trkpt lat="44.604409" lon="34.043800"><time>1970-01-01T00:00:01.000Z</time></trkpt>
			<trkpt lat="44.604388" lon="34.046290"><time>1970-01-01T00:00:01.000Z</time></trkpt>
			<trkpt lat="44.604173" lon="34.046847"><time>1970-01-01T00:00:01.000Z</time></trkpt>
			<trkpt lat="44.604388" lon="34.047942"><time>1970-01-01T00:00:01.000Z</time></trkpt>
			<trkpt lat="44.605375" lon="34.049723"><time>1970-01-01T00:00:01.000Z</time></trkpt>
			<trkpt lat="44.605718" lon="34.051053"><time>1970-01-01T00:00:01.000Z</time></trkpt>
			<trkpt lat="44.605353" lon="34.052448"><time>1970-01-01T00:00:01.000Z</time></trkpt>
			<trkpt lat="44.604581" lon="34.054250"><time>1970-01-01T00:00:01.000Z</time></trkpt>
			<trkpt lat="44.600804" lon="34.058177"><time>1970-01-01T00:00:01.000Z</time></trkpt>
			<trkpt lat="44.599924" lon="34.063198"><time>1970-01-01T00:00:01.000Z</time></trkpt>
			<trkpt lat="44.600203" lon="34.063520"><time>1970-01-01T00:00:01.000Z</time></trkpt>
			<trkpt lat="44.600182" lon="34.064293"><time>1970-01-01T00:00:01.000Z</time></trkpt>
			<trkpt lat="44.601105" lon="34.063971"><time>1970-01-01T00:00:01.000Z</time></trkpt>
			<trkpt lat="44.601362" lon="34.064636"><time>1970-01-01T00:00:01.000Z</time></trkpt>
			<trkpt lat="44.600053" lon="34.069442"><time>1970-01-01T00:00:01.000Z</time></trkpt>
			<trkpt lat="44.599645" lon="34.069700"><time>1970-01-01T00:00:01.000Z</time></trkpt>
			<trkpt lat="44.598916" lon="34.070880"><time>1970-01-01T00:00:01.000Z</time></trkpt>
			<trkpt lat="44.598916" lon="34.074828"><time>1970-01-01T00:00:01.000Z</time></trkpt>
			<trkpt lat="44.599152" lon="34.074914"><time>1970-01-01T00:00:01.000Z</time></trkpt>
			<trkpt lat="44.600032" lon="34.075687"><time>1970-01-01T00:00:01.000Z</time></trkpt>
			<trkpt lat="44.600354" lon="34.076137"><time>1970-01-01T00:00:01.000Z</time></trkpt>
			<trkpt lat="44.600439" lon="34.077339"><time>1970-01-01T00:00:01.000Z</time></trkpt>
			<trkpt lat="44.600997" lon="34.077446"><time>1970-01-01T00:00:01.000Z</time></trkpt>
			<trkpt lat="44.601212" lon="34.077854"><time>1970-01-01T00:00:01.000Z</time></trkpt>
			<trkpt lat="44.601255" lon="34.078734"><time>1970-01-01T00:00:01.000Z</time></trkpt>
			<trkpt lat="44.601577" lon="34.078991"><time>1970-01-01T00:00:01.000Z</time></trkpt>
			<trkpt lat="44.602499" lon="34.079356"><time>1970-01-01T00:00:01.000Z</time></trkpt>
			<trkpt lat="44.605568" lon="34.076738"><time>1970-01-01T00:00:01.000Z</time></trkpt>
			<trkpt lat="44.605868" lon="34.076953"><time>1970-01-01T00:00:01.000Z</time></trkpt>
			<trkpt lat="44.605975" lon="34.077296"><time>1970-01-01T00:00:01.000Z</time></trkpt>
			<trkpt lat="44.605782" lon="34.079206"><time>1970-01-01T00:00:01.000Z</time></trkpt>
			<trkpt lat="44.605954" lon="34.079442"><time>1970-01-01T00:00:01.000Z</time></trkpt>
			<trkpt lat="44.606598" lon="34.079206"><time>1970-01-01T00:00:01.000Z</time></trkpt>
			<trkpt lat="44.606898" lon="34.079249"><time>1970-01-01T00:00:01.000Z</time></trkpt>
			<trkpt lat="44.607606" lon="34.080493"><time>1970-01-01T00:00:01.000Z</time></trkpt>
			<trkpt lat="44.607241" lon="34.085106"><time>1970-01-01T00:00:01.000Z</time></trkpt>
			<trkpt lat="44.607649" lon="34.086952"><time>1970-01-01T00:00:01.000Z</time></trkpt>
			<trkpt lat="44.607070" lon="34.091501"><time>1970-01-01T00:00:01.000Z</time></trkpt>
			<trkpt lat="44.607456" lon="34.093389"><time>1970-01-01T00:00:01.000Z</time></trkpt>
			<trkpt lat="44.607563" lon="34.096243"><time>1970-01-01T00:00:01.000Z</time></trkpt>
			<trkpt lat="44.609001" lon="34.098303"><time>1970-01-01T00:00:01.000Z</time></trkpt>
			<trkpt lat="44.609602" lon="34.099440"><time>1970-01-01T00:00:01.000Z</time></trkpt>
			<trkpt lat="44.610074" lon="34.102852"><time>1970-01-01T00:00:01.000Z</time></trkpt>
			<trkpt lat="44.609516" lon="34.106328"><time>1970-01-01T00:00:01.000Z</time></trkpt>
			<trkpt lat="44.609602" lon="34.110727"><time>1970-01-01T00:00:01.000Z</time></trkpt>
			<trkpt lat="44.608894" lon="34.112508"><time>1970-01-01T00:00:01.000Z</time></trkpt>
			<trkpt lat="44.609602" lon="34.115641"><time>1970-01-01T00:00:01.000Z</time></trkpt>
			<trkpt lat="44.610138" lon="34.116885"><time>1970-01-01T00:00:01.000Z</time></trkpt>
			<trkpt lat="44.610503" lon="34.117851"><time>1970-01-01T00:00:01.000Z</time></trkpt>
			<trkpt lat="44.610460" lon="34.118838"><time>1970-01-01T00:00:01.000Z</time></trkpt>
			<trkpt lat="44.611554" lon="34.118967"><time>1970-01-01T00:00:01.000Z</time></trkpt>
			<trkpt lat="44.610932" lon="34.123194"><time>1970-01-01T00:00:01.000Z</time></trkpt>
			<trkpt lat="44.611147" lon="34.124653"><time>1970-01-01T00:00:01.000Z</time></trkpt>
			<trkpt lat="44.612434" lon="34.127657"><time>1970-01-01T00:00:01.000Z</time></trkpt>
			<trkpt lat="44.612155" lon="34.131927"><time>1970-01-01T00:00:01.000Z</time></trkpt>
			<trkpt lat="44.612069" lon="34.134717"><time>1970-01-01T00:00:01.000Z</time></trkpt>
			<trkpt lat="44.612177" lon="34.136755"><time>1970-01-01T00:00:01.000Z</time></trkpt>
			<trkpt lat="44.613829" lon="34.136433"><time>1970-01-01T00:00:01.000Z</time></trkpt>
			<trkpt lat="44.614129" lon="34.137442"><time>1970-01-01T00:00:01.000Z</time></trkpt>
			<trkpt lat="44.615116" lon="34.137957"><time>1970-01-01T00:00:01.000Z</time></trkpt>
			<trkpt lat="44.615202" lon="34.139759"><time>1970-01-01T00:00:01.000Z</time></trkpt>
			<trkpt lat="44.614966" lon="34.141347"><time>1970-01-01T00:00:01.000Z</time></trkpt>
			<trkpt lat="44.615588" lon="34.143643"><time>1970-01-01T00:00:01.000Z</time></trkpt>
			<trkpt lat="44.615331" lon="34.144480"><time>1970-01-01T00:00:01.000Z</time></trkpt>
			<trkpt lat="44.616061" lon="34.147033"><time>1970-01-01T00:00:01.000Z</time></trkpt>
			<trkpt lat="44.615417" lon="34.147591"><time>1970-01-01T00:00:01.000Z</time></trkpt>
			<trkpt lat="44.614623" lon="34.147720"><time>1970-01-01T00:00:01.000Z</time></trkpt>
			<trkpt lat="44.614988" lon="34.150102"><time>1970-01-01T00:00:01.000Z</time></trkpt>
			<trkpt lat="44.614730" lon="34.151046"><time>1970-01-01T00:00:01.000Z</time></trkpt>
			<trkpt lat="44.614258" lon="34.150037"><time>1970-01-01T00:00:01.000Z</time></trkpt>
			<trkpt lat="44.613271" lon="34.149286"><time>1970-01-01T00:00:01.000Z</time></trkpt>
			<trkpt lat="44.613035" lon="34.148407"><time>1970-01-01T00:00:01.000Z</time></trkpt>
			<trkpt lat="44.612177" lon="34.147956"><time>1970-01-01T00:00:01.000Z</time></trkpt>
			<trkpt lat="44.611082" lon="34.149973"><time>1970-01-01T00:00:01.000Z</time></trkpt>
			<trkpt lat="44.608743" lon="34.151775"><time>1970-01-01T00:00:01.000Z</time></trkpt>
			<trkpt lat="44.606855" lon="34.152290"><time>1970-01-01T00:00:01.000Z</time></trkpt>
			<trkpt lat="44.602328" lon="34.155767"><time>1970-01-01T00:00:01.000Z</time></trkpt>
			<trkpt lat="44.601448" lon="34.156797"><time>1970-01-01T00:00:01.000Z</time></trkpt>
			<trkpt lat="44.600654" lon="34.157269"><time>1970-01-01T00:00:01.000Z</time></trkpt>
			<trkpt lat="44.599860" lon="34.157333"><time>1970-01-01T00:00:01.000Z</time></trkpt>
			<trkpt lat="44.598894" lon="34.158191"><time>1970-01-01T00:00:01.000Z</time></trkpt>
			<trkpt lat="44.598573" lon="34.157848"><time>1970-01-01T00:00:01.000Z</time></trkpt>
			<trkpt lat="44.598336" lon="34.159329"><time>1970-01-01T00:00:01.000Z</time></trkpt>
			<trkpt lat="44.597800" lon="34.161002"><time>1970-01-01T00:00:01.000Z</time></trkpt>
			<trkpt lat="44.596920" lon="34.161818"><time>1970-01-01T00:00:01.000Z</time></trkpt>
			<trkpt lat="44.594860" lon="34.162376"><time>1970-01-01T00:00:01.000Z</time></trkpt>
			<trkpt lat="44.594088" lon="34.163105"><time>1970-01-01T00:00:01.000Z</time></trkpt>
			<trkpt lat="44.593594" lon="34.164157"><time>1970-01-01T00:00:01.000Z</time></trkpt>
			<trkpt lat="44.591878" lon="34.165058"><time>1970-01-01T00:00:01.000Z</time></trkpt>
			<trkpt lat="44.591127" lon="34.166753"><time>1970-01-01T00:00:01.000Z</time></trkpt>
			<trkpt lat="44.590419" lon="34.167483"><time>1970-01-01T00:00:01.000Z</time></trkpt>
			<trkpt lat="44.589882" lon="34.169070"><time>1970-01-01T00:00:01.000Z</time></trkpt>
			<trkpt lat="44.589045" lon="34.169585"><time>1970-01-01T00:00:01.000Z</time></trkpt>
			<trkpt lat="44.587972" lon="34.171538"><time>1970-01-01T00:00:01.000Z</time></trkpt>
			<trkpt lat="44.587972" lon="34.172139"><time>1970-01-01T00:00:01.000Z</time></trkpt>
			<trkpt lat="44.587651" lon="34.172611"><time>1970-01-01T00:00:01.000Z</time></trkpt>
			<trkpt lat="44.587565" lon="34.173877"><time>1970-01-01T00:00:01.000Z</time></trkpt>
			<trkpt lat="44.586492" lon="34.175207"><time>1970-01-01T00:00:01.000Z</time></trkpt>
			<trkpt lat="44.586020" lon="34.176302"><time>1970-01-01T00:00:01.000Z</time></trkpt>
			<trkpt lat="44.585913" lon="34.177267"><time>1970-01-01T00:00:01.000Z</time></trkpt>
			<trkpt lat="44.584668" lon="34.179284"><time>1970-01-01T00:00:01.000Z</time></trkpt>
			<trkpt lat="44.584282" lon="34.180293"><time>1970-01-01T00:00:01.000Z</time></trkpt>
			<trkpt lat="44.582157" lon="34.182589"><time>1970-01-01T00:00:01.000Z</time></trkpt>
			<trkpt lat="44.581964" lon="34.183190"><time>1970-01-01T00:00:01.000Z</time></trkpt>
			<trkpt lat="44.581621" lon="34.183275"><time>1970-01-01T00:00:01.000Z</time></trkpt>
			<trkpt lat="44.580763" lon="34.183082"><time>1970-01-01T00:00:01.000Z</time></trkpt>
			<trkpt lat="44.578917" lon="34.183018"><time>1970-01-01T00:00:01.000Z</time></trkpt>
			<trkpt lat="44.578145" lon="34.183147"><time>1970-01-01T00:00:01.000Z</time></trkpt>
			<trkpt lat="44.576965" lon="34.182739"><time>1970-01-01T00:00:01.000Z</time></trkpt>
			<trkpt lat="44.574797" lon="34.181194"><time>1970-01-01T00:00:01.000Z</time></trkpt>
			<trkpt lat="44.572652" lon="34.179370"><time>1970-01-01T00:00:01.000Z</time></trkpt>
			<trkpt lat="44.571257" lon="34.178748"><time>1970-01-01T00:00:01.000Z</time></trkpt>
			<trkpt lat="44.570957" lon="34.178469"><time>1970-01-01T00:00:01.000Z</time></trkpt>
			<trkpt lat="44.570527" lon="34.177010"><time>1970-01-01T00:00:01.000Z</time></trkpt>
			<trkpt lat="44.569969" lon="34.176709"><time>1970-01-01T00:00:01.000Z</time></trkpt>
			<trkpt lat="44.569583" lon="34.176173"><time>1970-01-01T00:00:01.000Z</time></trkpt>
			<trkpt lat="44.569283" lon="34.175400"><time>1970-01-01T00:00:01.000Z</time></trkpt>
			<trkpt lat="44.569047" lon="34.175164"><time>1970-01-01T00:00:01.000Z</time></trkpt>
			<trkpt lat="44.568596" lon="34.174413"><time>1970-01-01T00:00:01.000Z</time></trkpt>
			<trkpt lat="44.568253" lon="34.173062"><time>1970-01-01T00:00:01.000Z</time></trkpt>
			<trkpt lat="44.568124" lon="34.172032"><time>1970-01-01T00:00:01.000Z</time></trkpt>
			<trkpt lat="44.567738" lon="34.171474"><time>1970-01-01T00:00:01.000Z</time></trkpt>
			<trkpt lat="44.567459" lon="34.170143"><time>1970-01-01T00:00:01.000Z</time></trkpt>
			<trkpt lat="44.566043" lon="34.166324"><time>1970-01-01T00:00:01.000Z</time></trkpt>
			<trkpt lat="44.564863" lon="34.164629"><time>1970-01-01T00:00:01.000Z</time></trkpt>
			<trkpt lat="44.563833" lon="34.162976"><time>1970-01-01T00:00:01.000Z</time></trkpt>
			<trkpt lat="44.562931" lon="34.160530"><time>1970-01-01T00:00:01.000Z</time></trkpt>
			<trkpt lat="44.562588" lon="34.160444"><time>1970-01-01T00:00:01.000Z</time></trkpt>
			<trkpt lat="44.561708" lon="34.161281"><time>1970-01-01T00:00:01.000Z</time></trkpt>
			<trkpt lat="44.560828" lon="34.161560"><time>1970-01-01T00:00:01.000Z</time></trkpt>
			<trkpt lat="44.560313" lon="34.161152"><time>1970-01-01T00:00:01.000Z</time></trkpt>
			<trkpt lat="44.560035" lon="34.160616"><time>1970-01-01T00:00:01.000Z</time></trkpt>
			<trkpt lat="44.558640" lon="34.159715"><time>1970-01-01T00:00:01.000Z</time></trkpt>
			<trkpt lat="44.558318" lon="34.159114"><time>1970-01-01T00:00:01.000Z</time></trkpt>
			<trkpt lat="44.558168" lon="34.158492"><time>1970-01-01T00:00:01.000Z</time></trkpt>
			<trkpt lat="44.558254" lon="34.157569"><time>1970-01-01T00:00:01.000Z</time></trkpt>
			<trkpt lat="44.558490" lon="34.157204"><time>1970-01-01T00:00:01.000Z</time></trkpt>
			<trkpt lat="44.558747" lon="34.153835"><time>1970-01-01T00:00:01.000Z</time></trkpt>
			<trkpt lat="44.558790" lon="34.151454"><time>1970-01-01T00:00:01.000Z</time></trkpt>
			<trkpt lat="44.558962" lon="34.150295"><time>1970-01-01T00:00:01.000Z</time></trkpt>
			<trkpt lat="44.558876" lon="34.148621"><time>1970-01-01T00:00:01.000Z</time></trkpt>
			<trkpt lat="44.558919" lon="34.146819"><time>1970-01-01T00:00:01.000Z</time></trkpt>
			<trkpt lat="44.558533" lon="34.146282"><time>1970-01-01T00:00:01.000Z</time></trkpt>
			<trkpt lat="44.557867" lon="34.144780"><time>1970-01-01T00:00:01.000Z</time></trkpt>
			<trkpt lat="44.557395" lon="34.143214"><time>1970-01-01T00:00:01.000Z</time></trkpt>
			<trkpt lat="44.557181" lon="34.142828"><time>1970-01-01T00:00:01.000Z</time></trkpt>
			<trkpt lat="44.557138" lon="34.141497"><time>1970-01-01T00:00:01.000Z</time></trkpt>
			<trkpt lat="44.555850" lon="34.137592"><time>1970-01-01T00:00:01.000Z</time></trkpt>
			<trkpt lat="44.554649" lon="34.135940"><time>1970-01-01T00:00:01.000Z</time></trkpt>
			<trkpt lat="44.554777" lon="34.135339"><time>1970-01-01T00:00:01.000Z</time></trkpt>
			<trkpt lat="44.554713" lon="34.135189"><time>1970-01-01T00:00:01.000Z</time></trkpt>
			<trkpt lat="44.554370" lon="34.135060"><time>1970-01-01T00:00:01.000Z</time></trkpt>
			<trkpt lat="44.554262" lon="34.134910"><time>1970-01-01T00:00:01.000Z</time></trkpt>
			<trkpt lat="44.554177" lon="34.134287"><time>1970-01-01T00:00:01.000Z</time></trkpt>
			<trkpt lat="44.553769" lon="34.133622"><time>1970-01-01T00:00:01.000Z</time></trkpt>
			<trkpt lat="44.553683" lon="34.132700"><time>1970-01-01T00:00:01.000Z</time></trkpt>
			<trkpt lat="44.553018" lon="34.131026"><time>1970-01-01T00:00:01.000Z</time></trkpt>
			<trkpt lat="44.551516" lon="34.129245"><time>1970-01-01T00:00:01.000Z</time></trkpt>
			<trkpt lat="44.551130" lon="34.128494"><time>1970-01-01T00:00:01.000Z</time></trkpt>
			<trkpt lat="44.550443" lon="34.125726"><time>1970-01-01T00:00:01.000Z</time></trkpt>
			<trkpt lat="44.549585" lon="34.123795"><time>1970-01-01T00:00:01.000Z</time></trkpt>
			<trkpt lat="44.548962" lon="34.122936"><time>1970-01-01T00:00:01.000Z</time></trkpt>
			<trkpt lat="44.548340" lon="34.122400"><time>1970-01-01T00:00:01.000Z</time></trkpt>
			<trkpt lat="44.547975" lon="34.121606"><time>1970-01-01T00:00:01.000Z</time></trkpt>
			<trkpt lat="44.547138" lon="34.119460"><time>1970-01-01T00:00:01.000Z</time></trkpt>
			<trkpt lat="44.546838" lon="34.118001"><time>1970-01-01T00:00:01.000Z</time></trkpt>
			<trkpt lat="44.545744" lon="34.117272"><time>1970-01-01T00:00:01.000Z</time></trkpt>
			<trkpt lat="44.543619" lon="34.114740"><time>1970-01-01T00:00:01.000Z</time></trkpt>
			<trkpt lat="44.542825" lon="34.113023"><time>1970-01-01T00:00:01.000Z</time></trkpt>
			<trkpt lat="44.543834" lon="34.110148"><time>1970-01-01T00:00:01.000Z</time></trkpt>
			<trkpt lat="44.542825" lon="34.107487"><time>1970-01-01T00:00:01.000Z</time></trkpt>
			<trkpt lat="44.540787" lon="34.106414"><time>1970-01-01T00:00:01.000Z</time></trkpt>
			<trkpt lat="44.540358" lon="34.105298"><time>1970-01-01T00:00:01.000Z</time></trkpt>
			<trkpt lat="44.536431" lon="34.101221"><time>1970-01-01T00:00:01.000Z</time></trkpt>
			<trkpt lat="44.534457" lon="34.098088"><time>1970-01-01T00:00:01.000Z</time></trkpt>
			<trkpt lat="44.533298" lon="34.098260"><time>1970-01-01T00:00:01.000Z</time></trkpt>
			<trkpt lat="44.529994" lon="34.095471"><time>1970-01-01T00:00:01.000Z</time></trkpt>
			<trkpt lat="44.527955" lon="34.095642"><time>1970-01-01T00:00:01.000Z</time></trkpt>
			<trkpt lat="44.521776" lon="34.088432"><time>1970-01-01T00:00:01.000Z</time></trkpt>
			<trkpt lat="44.520316" lon="34.089291"><time>1970-01-01T00:00:01.000Z</time></trkpt>
			<trkpt lat="44.511497" lon="34.085943"><time>1970-01-01T00:00:01.000Z</time></trkpt>
			<trkpt lat="44.511390" lon="34.084141"><time>1970-01-01T00:00:01.000Z</time></trkpt>
			<trkpt lat="44.510124" lon="34.082424"><time>1970-01-01T00:00:01.000Z</time></trkpt>
			<trkpt lat="44.510789" lon="34.079849"><time>1970-01-01T00:00:01.000Z</time></trkpt>
			<trkpt lat="44.512334" lon="34.078991"><time>1970-01-01T00:00:01.000Z</time></trkpt>
			<trkpt lat="44.512012" lon="34.077747"><time>1970-01-01T00:00:01.000Z</time></trkpt>
			<trkpt lat="44.512635" lon="34.077360"><time>1970-01-01T00:00:01.000Z</time></trkpt>
			<trkpt lat="44.512656" lon="34.076416"><time>1970-01-01T00:00:01.000Z</time></trkpt>
			<trkpt lat="44.514051" lon="34.075558"><time>1970-01-01T00:00:01.000Z</time></trkpt>
			<trkpt lat="44.516454" lon="34.074871"><time>1970-01-01T00:00:01.000Z</time></trkpt>
			<trkpt lat="44.517892" lon="34.073240"><time>1970-01-01T00:00:01.000Z</time></trkpt>
			<trkpt lat="44.519029" lon="34.072897"><time>1970-01-01T00:00:01.000Z</time></trkpt>
			<trkpt lat="44.519007" lon="34.071996"><time>1970-01-01T00:00:01.000Z</time></trkpt>
			<trkpt lat="44.520982" lon="34.071095"><time>1970-01-01T00:00:01.000Z</time></trkpt>
			<trkpt lat="44.521539" lon="34.068219"><time>1970-01-01T00:00:01.000Z</time></trkpt>
			<trkpt lat="44.522462" lon="34.065516"><time>1970-01-01T00:00:01.000Z</time></trkpt>
			<trkpt lat="44.524136" lon="34.064228"><time>1970-01-01T00:00:01.000Z</time></trkpt>
			<trkpt lat="44.526003" lon="34.062512"><time>1970-01-01T00:00:01.000Z</time></trkpt>
			<trkpt lat="44.528921" lon="34.057448"><time>1970-01-01T00:00:01.000Z</time></trkpt>
			<trkpt lat="44.530165" lon="34.052684"><time>1970-01-01T00:00:01.000Z</time></trkpt>
			<trkpt lat="44.534114" lon="34.049766"><time>1970-01-01T00:00:01.000Z</time></trkpt>
			<trkpt lat="44.534843" lon="34.044959"><time>1970-01-01T00:00:01.000Z</time></trkpt>
			<trkpt lat="44.534736" lon="34.043243"><time>1970-01-01T00:00:01.000Z</time></trkpt>
			<trkpt lat="44.534886" lon="34.041955"><time>1970-01-01T00:00:01.000Z</time></trkpt>
			<trkpt lat="44.535315" lon="34.041011"><time>1970-01-01T00:00:01.000Z</time></trkpt>
			<trkpt lat="44.535187" lon="34.039552"><time>1970-01-01T00:00:01.000Z</time></trkpt>
			<trkpt lat="44.535466" lon="34.038179"><time>1970-01-01T00:00:01.000Z</time></trkpt>
			<trkpt lat="44.535036" lon="34.036226"><time>1970-01-01T00:00:01.000Z</time></trkpt>
			<trkpt lat="44.535272" lon="34.035325"><time>1970-01-01T00:00:01.000Z</time></trkpt>
			<trkpt lat="44.535122" lon="34.034853"><time>1970-01-01T00:00:01.000Z</time></trkpt>
			<trkpt lat="44.534672" lon="34.034402"><time>1970-01-01T00:00:01.000Z</time></trkpt>
			<trkpt lat="44.534521" lon="34.033951"><time>1970-01-01T00:00:01.000Z</time></trkpt>
			<trkpt lat="44.534779" lon="34.032793"><time>1970-01-01T00:00:01.000Z</time></trkpt>
			<trkpt lat="44.535058" lon="34.032256"><time>1970-01-01T00:00:01.000Z</time></trkpt>
			<trkpt lat="44.535187" lon="34.031891"><time>1970-01-01T00:00:01.000Z</time></trkpt>
			<trkpt lat="44.535358" lon="34.031763"><time>1970-01-01T00:00:01.000Z</time></trkpt>
			<trkpt lat="44.535530" lon="34.031956"><time>1970-01-01T00:00:01.000Z</time></trkpt>
			<trkpt lat="44.535680" lon="34.031849"><time>1970-01-01T00:00:01.000Z</time></trkpt>
			<trkpt lat="44.535852" lon="34.031484"><time>1970-01-01T00:00:01.000Z</time></trkpt>
			<trkpt lat="44.536002" lon="34.030990"><time>1970-01-01T00:00:01.000Z</time></trkpt>
			<trkpt lat="44.536131" lon="34.030819"><time>1970-01-01T00:00:01.000Z</time></trkpt>
			<trkpt lat="44.536259" lon="34.030454"><time>1970-01-01T00:00:01.000Z</time></trkpt>
			<trkpt lat="44.536538" lon="34.030218"><time>1970-01-01T00:00:01.000Z</time></trkpt>
			<trkpt lat="44.536732" lon="34.029767"><time>1970-01-01T00:00:01.000Z</time></trkpt>
			<trkpt lat="44.536882" lon="34.029574"><time>1970-01-01T00:00:01.000Z</time></trkpt>
			<trkpt lat="44.537032" lon="34.029467"><time>1970-01-01T00:00:01.000Z</time></trkpt>
			<trkpt lat="44.537418" lon="34.029424"><time>1970-01-01T00:00:01.000Z</time></trkpt>
			<trkpt lat="44.537568" lon="34.029359"><time>1970-01-01T00:00:01.000Z</time></trkpt>
			<trkpt lat="44.537719" lon="34.029016"><time>1970-01-01T00:00:01.000Z</time></trkpt>
			<trkpt lat="44.537719" lon="34.028351"><time>1970-01-01T00:00:01.000Z</time></trkpt>
			<trkpt lat="44.537611" lon="34.028029"><time>1970-01-01T00:00:01.000Z</time></trkpt>
			<trkpt lat="44.537075" lon="34.026870"><time>1970-01-01T00:00:01.000Z</time></trkpt>
			<trkpt lat="44.537010" lon="34.026613"><time>1970-01-01T00:00:01.000Z</time></trkpt>
			<trkpt lat="44.536839" lon="34.026398"><time>1970-01-01T00:00:01.000Z</time></trkpt>
			<trkpt lat="44.536817" lon="34.025819"><time>1970-01-01T00:00:01.000Z</time></trkpt>
			<trkpt lat="44.536259" lon="34.024939"><time>1970-01-01T00:00:01.000Z</time></trkpt>
			<trkpt lat="44.536259" lon="34.024768"><time>1970-01-01T00:00:01.000Z</time></trkpt>
			<trkpt lat="44.536131" lon="34.024510"><time>1970-01-01T00:00:01.000Z</time></trkpt>
			<trkpt lat="44.535787" lon="34.023566"><time>1970-01-01T00:00:01.000Z</time></trkpt>
			<trkpt lat="44.535680" lon="34.022922"><time>1970-01-01T00:00:01.000Z</time></trkpt>
			<trkpt lat="44.535573" lon="34.022815"><time>1970-01-01T00:00:01.000Z</time></trkpt>
			<trkpt lat="44.535165" lon="34.022793"><time>1970-01-01T00:00:01.000Z</time></trkpt>
			<trkpt lat="44.534951" lon="34.022729"><time>1970-01-01T00:00:01.000Z</time></trkpt>
			<trkpt lat="44.534650" lon="34.022772"><time>1970-01-01T00:00:01.000Z</time></trkpt>
			<trkpt lat="44.534350" lon="34.022600"><time>1970-01-01T00:00:01.000Z</time></trkpt>
			<trkpt lat="44.534049" lon="34.022257"><time>1970-01-01T00:00:01.000Z</time></trkpt>
			<trkpt lat="44.533749" lon="34.022150"><time>1970-01-01T00:00:01.000Z</time></trkpt>
			<trkpt lat="44.533513" lon="34.021806"><time>1970-01-01T00:00:01.000Z</time></trkpt>
			<trkpt lat="44.533212" lon="34.021635"><time>1970-01-01T00:00:01.000Z</time></trkpt>
			<trkpt lat="44.532955" lon="34.021592"><time>1970-01-01T00:00:01.000Z</time></trkpt>
			<trkpt lat="44.532826" lon="34.021527"><time>1970-01-01T00:00:01.000Z</time></trkpt>
			<trkpt lat="44.532762" lon="34.021227"><time>1970-01-01T00:00:01.000Z</time></trkpt>
			<trkpt lat="44.532612" lon="34.020884"><time>1970-01-01T00:00:01.000Z</time></trkpt>
			<trkpt lat="44.532311" lon="34.020648"><time>1970-01-01T00:00:01.000Z</time></trkpt>
			<trkpt lat="44.532118" lon="34.019918"><time>1970-01-01T00:00:01.000Z</time></trkpt>
			<trkpt lat="44.531710" lon="34.019446"><time>1970-01-01T00:00:01.000Z</time></trkpt>
			<trkpt lat="44.531431" lon="34.019360"><time>1970-01-01T00:00:01.000Z</time></trkpt>
			<trkpt lat="44.530981" lon="34.019467"><time>1970-01-01T00:00:01.000Z</time></trkpt>
			<trkpt lat="44.530916" lon="34.019446"><time>1970-01-01T00:00:01.000Z</time></trkpt>
			<trkpt lat="44.530831" lon="34.019274"><time>1970-01-01T00:00:01.000Z</time></trkpt>
			<trkpt lat="44.530831" lon="34.018845"><time>1970-01-01T00:00:01.000Z</time></trkpt>
			<trkpt lat="44.531024" lon="34.018159"><time>1970-01-01T00:00:01.000Z</time></trkpt>
			<trkpt lat="44.531067" lon="34.017536"><time>1970-01-01T00:00:01.000Z</time></trkpt>
			<trkpt lat="44.531002" lon="34.017279"><time>1970-01-01T00:00:01.000Z</time></trkpt>
			<trkpt lat="44.530766" lon="34.016871"><time>1970-01-01T00:00:01.000Z</time></trkpt>
			<trkpt lat="44.530616" lon="34.016699"><time>1970-01-01T00:00:01.000Z</time></trkpt>
			<trkpt lat="44.530444" lon="34.016699"><time>1970-01-01T00:00:01.000Z</time></trkpt>
			<trkpt lat="44.530273" lon="34.016442"><time>1970-01-01T00:00:01.000Z</time></trkpt>
			<trkpt lat="44.530359" lon="34.016249"><time>1970-01-01T00:00:01.000Z</time></trkpt>
			<trkpt lat="44.530359" lon="34.015991"><time>1970-01-01T00:00:01.000Z</time></trkpt>
			<trkpt lat="44.530466" lon="34.015391"><time>1970-01-01T00:00:01.000Z</time></trkpt>
			<trkpt lat="44.530337" lon="34.014897"><time>1970-01-01T00:00:01.000Z</time></trkpt>
			<trkpt lat="44.530337" lon="34.014639"><time>1970-01-01T00:00:01.000Z</time></trkpt>
			<trkpt lat="44.530251" lon="34.014210"><time>1970-01-01T00:00:01.000Z</time></trkpt>
			<trkpt lat="44.530123" lon="34.013888"><time>1970-01-01T00:00:01.000Z</time></trkpt>
			<trkpt lat="44.529586" lon="34.013266"><time>1970-01-01T00:00:01.000Z</time></trkpt>
			<trkpt lat="44.529350" lon="34.012816"><time>1970-01-01T00:00:01.000Z</time></trkpt>
			<trkpt lat="44.529414" lon="34.012107"><time>1970-01-01T00:00:01.000Z</time></trkpt>
			<trkpt lat="44.529350" lon="34.010605"><time>1970-01-01T00:00:01.000Z</time></trkpt>
			<trkpt lat="44.529200" lon="34.010391"><time>1970-01-01T00:00:01.000Z</time></trkpt>
			<trkpt lat="44.529028" lon="34.010262"><time>1970-01-01T00:00:01.000Z</time></trkpt>
			<trkpt lat="44.528835" lon="34.009940"><time>1970-01-01T00:00:01.000Z</time></trkpt>
			<trkpt lat="44.528749" lon="34.009361"><time>1970-01-01T00:00:01.000Z</time></trkpt>
			<trkpt lat="44.528363" lon="34.008309"><time>1970-01-01T00:00:01.000Z</time></trkpt>
			<trkpt lat="44.528041" lon="34.007859"><time>1970-01-01T00:00:01.000Z</time></trkpt>
			<trkpt lat="44.527805" lon="34.007623"><time>1970-01-01T00:00:01.000Z</time></trkpt>
			<trkpt lat="44.527591" lon="34.007344"><time>1970-01-01T00:00:01.000Z</time></trkpt>
			<trkpt lat="44.527376" lon="34.006936"><time>1970-01-01T00:00:01.000Z</time></trkpt>
			<trkpt lat="44.527290" lon="34.006614"><time>1970-01-01T00:00:01.000Z</time></trkpt>
			<trkpt lat="44.527140" lon="34.006378"><time>1970-01-01T00:00:01.000Z</time></trkpt>
			<trkpt lat="44.526968" lon="34.005906"><time>1970-01-01T00:00:01.000Z</time></trkpt>
			<trkpt lat="44.526797" lon="34.005241"><time>1970-01-01T00:00:01.000Z</time></trkpt>
			<trkpt lat="44.526775" lon="34.004318"><time>1970-01-01T00:00:01.000Z</time></trkpt>
			<trkpt lat="44.526711" lon="34.004190"><time>1970-01-01T00:00:01.000Z</time></trkpt>
			<trkpt lat="44.526732" lon="34.003739"><time>1970-01-01T00:00:01.000Z</time></trkpt>
			<trkpt lat="44.526797" lon="34.003546"><time>1970-01-01T00:00:01.000Z</time></trkpt>
			<trkpt lat="44.526754" lon="34.003396"><time>1970-01-01T00:00:01.000Z</time></trkpt>
			<trkpt lat="44.526775" lon="34.003138"><time>1970-01-01T00:00:01.000Z</time></trkpt>
			<trkpt lat="44.526840" lon="34.002752"><time>1970-01-01T00:00:01.000Z</time></trkpt>
			<trkpt lat="44.526904" lon="34.002580"><time>1970-01-01T00:00:01.000Z</time></trkpt>
			<trkpt lat="44.526389" lon="34.001550"><time>1970-01-01T00:00:01.000Z</time></trkpt>
			<trkpt lat="44.526282" lon="34.001228"><time>1970-01-01T00:00:01.000Z</time></trkpt>
			<trkpt lat="44.526174" lon="34.001143"><time>1970-01-01T00:00:01.000Z</time></trkpt>
			<trkpt lat="44.526046" lon="34.001143"><time>1970-01-01T00:00:01.000Z</time></trkpt>
			<trkpt lat="44.526003" lon="34.000992"><time>1970-01-01T00:00:01.000Z</time></trkpt>
			<trkpt lat="44.526131" lon="34.000778"><time>1970-01-01T00:00:01.000Z</time></trkpt>
			<trkpt lat="44.526153" lon="34.000563"><time>1970-01-01T00:00:01.000Z</time></trkpt>
			<trkpt lat="44.526089" lon="34.000435"><time>1970-01-01T00:00:01.000Z</time></trkpt>
			<trkpt lat="44.525574" lon="34.000134"><time>1970-01-01T00:00:01.000Z</time></trkpt>
			<trkpt lat="44.525316" lon="34.000091"><time>1970-01-01T00:00:01.000Z</time></trkpt>
			<trkpt lat="44.525209" lon="34.000005"><time>1970-01-01T00:00:01.000Z</time></trkpt>
			<trkpt lat="44.525080" lon="33.999812"><time>1970-01-01T00:00:01.000Z</time></trkpt>
			<trkpt lat="44.525273" lon="33.999705"><time>1970-01-01T00:00:01.000Z</time></trkpt>
			<trkpt lat="44.525423" lon="33.999447"><time>1970-01-01T00:00:01.000Z</time></trkpt>
			<trkpt lat="44.525423" lon="33.999211"><time>1970-01-01T00:00:01.000Z</time></trkpt>
			<trkpt lat="44.525359" lon="33.999040"><time>1970-01-01T00:00:01.000Z</time></trkpt>
			<trkpt lat="44.525059" lon="33.998804"><time>1970-01-01T00:00:01.000Z</time></trkpt>
			<trkpt lat="44.524823" lon="33.998396"><time>1970-01-01T00:00:01.000Z</time></trkpt>
			<trkpt lat="44.524350" lon="33.997860"><time>1970-01-01T00:00:01.000Z</time></trkpt>
			<trkpt lat="44.524114" lon="33.997151"><time>1970-01-01T00:00:01.000Z</time></trkpt>
			<trkpt lat="44.524050" lon="33.996701"><time>1970-01-01T00:00:01.000Z</time></trkpt>
			<trkpt lat="44.523814" lon="33.996443"><time>1970-01-01T00:00:01.000Z</time></trkpt>
			<trkpt lat="44.523793" lon="33.996250"><time>1970-01-01T00:00:01.000Z</time></trkpt>
			<trkpt lat="44.523685" lon="33.996057"><time>1970-01-01T00:00:01.000Z</time></trkpt>
			<trkpt lat="44.523707" lon="33.995907"><time>1970-01-01T00:00:01.000Z</time></trkpt>
			<trkpt lat="44.523471" lon="33.995542"><time>1970-01-01T00:00:01.000Z</time></trkpt>
			<trkpt lat="44.523106" lon="33.995177"><time>1970-01-01T00:00:01.000Z</time></trkpt>
			<trkpt lat="44.522462" lon="33.994705"><time>1970-01-01T00:00:01.000Z</time></trkpt>
			<trkpt lat="44.521883" lon="33.994469"><time>1970-01-01T00:00:01.000Z</time></trkpt>
			<trkpt lat="44.521754" lon="33.994341"><time>1970-01-01T00:00:01.000Z</time></trkpt>
			<trkpt lat="44.521969" lon="33.993697"><time>1970-01-01T00:00:01.000Z</time></trkpt>
			<trkpt lat="44.521990" lon="33.993482"><time>1970-01-01T00:00:01.000Z</time></trkpt>
			<trkpt lat="44.521840" lon="33.993439"><time>1970-01-01T00:00:01.000Z</time></trkpt>
			<trkpt lat="44.521539" lon="33.993740"><time>1970-01-01T00:00:01.000Z</time></trkpt>
			<trkpt lat="44.521346" lon="33.993718"><time>1970-01-01T00:00:01.000Z</time></trkpt>
			<trkpt lat="44.521132" lon="33.993740"><time>1970-01-01T00:00:01.000Z</time></trkpt>
			<trkpt lat="44.521024" lon="33.993868"><time>1970-01-01T00:00:01.000Z</time></trkpt>
			<trkpt lat="44.521024" lon="33.993740"><time>1970-01-01T00:00:01.000Z</time></trkpt>
			<trkpt lat="44.521089" lon="33.993654"><time>1970-01-01T00:00:01.000Z</time></trkpt>
			<trkpt lat="44.521196" lon="33.993611"><time>1970-01-01T00:00:01.000Z</time></trkpt>
			<trkpt lat="44.521153" lon="33.993396"><time>1970-01-01T00:00:01.000Z</time></trkpt>
			<trkpt lat="44.521175" lon="33.993289"><time>1970-01-01T00:00:01.000Z</time></trkpt>
			<trkpt lat="44.520982" lon="33.993139"><time>1970-01-01T00:00:01.000Z</time></trkpt>
			<trkpt lat="44.520660" lon="33.993139"><time>1970-01-01T00:00:01.000Z</time></trkpt>
			<trkpt lat="44.520595" lon="33.992989"><time>1970-01-01T00:00:01.000Z</time></trkpt>
			<trkpt lat="44.520746" lon="33.992216"><time>1970-01-01T00:00:01.000Z</time></trkpt>
			<trkpt lat="44.520681" lon="33.992281"><time>1970-01-01T00:00:01.000Z</time></trkpt>
			<trkpt lat="44.520746" lon="33.992216"><time>1970-01-01T00:00:01.000Z</time></trkpt>
			<trkpt lat="44.520810" lon="33.992045"><time>1970-01-01T00:00:01.000Z</time></trkpt>
			<trkpt lat="44.520703" lon="33.991637"><time>1970-01-01T00:00:01.000Z</time></trkpt>
			<trkpt lat="44.520552" lon="33.991444"><time>1970-01-01T00:00:01.000Z</time></trkpt>
			<trkpt lat="44.520574" lon="33.991143"><time>1970-01-01T00:00:01.000Z</time></trkpt>
			<trkpt lat="44.520467" lon="33.990821"><time>1970-01-01T00:00:01.000Z</time></trkpt>
			<trkpt lat="44.520595" lon="33.990585"><time>1970-01-01T00:00:01.000Z</time></trkpt>
			<trkpt lat="44.520552" lon="33.990264"><time>1970-01-01T00:00:01.000Z</time></trkpt>
			<trkpt lat="44.520467" lon="33.990092"><time>1970-01-01T00:00:01.000Z</time></trkpt>
			<trkpt lat="44.520338" lon="33.989384"><time>1970-01-01T00:00:01.000Z</time></trkpt>
			<trkpt lat="44.520080" lon="33.989191"><time>1970-01-01T00:00:01.000Z</time></trkpt>
			<trkpt lat="44.519930" lon="33.988955"><time>1970-01-01T00:00:01.000Z</time></trkpt>
			<trkpt lat="44.519458" lon="33.987410"><time>1970-01-01T00:00:01.000Z</time></trkpt>
			<trkpt lat="44.519007" lon="33.986680"><time>1970-01-01T00:00:01.000Z</time></trkpt>
			<trkpt lat="44.518836" lon="33.986144"><time>1970-01-01T00:00:01.000Z</time></trkpt>
			<trkpt lat="44.518900" lon="33.985500"><time>1970-01-01T00:00:01.000Z</time></trkpt>
			<trkpt lat="44.518492" lon="33.984921"><time>1970-01-01T00:00:01.000Z</time></trkpt>
			<trkpt lat="44.518364" lon="33.985049"><time>1970-01-01T00:00:01.000Z</time></trkpt>
			<trkpt lat="44.518235" lon="33.985350"><time>1970-01-01T00:00:01.000Z</time></trkpt>
			<trkpt lat="44.518020" lon="33.985350"><time>1970-01-01T00:00:01.000Z</time></trkpt>
			<trkpt lat="44.517849" lon="33.985135"><time>1970-01-01T00:00:01.000Z</time></trkpt>
			<trkpt lat="44.517720" lon="33.984899"><time>1970-01-01T00:00:01.000Z</time></trkpt>
			<trkpt lat="44.517548" lon="33.984384"><time>1970-01-01T00:00:01.000Z</time></trkpt>
			<trkpt lat="44.517162" lon="33.983848"><time>1970-01-01T00:00:01.000Z</time></trkpt>
			<trkpt lat="44.516690" lon="33.983698"><time>1970-01-01T00:00:01.000Z</time></trkpt>
			<trkpt lat="44.516626" lon="33.983569"><time>1970-01-01T00:00:01.000Z</time></trkpt>
			<trkpt lat="44.516497" lon="33.983590"><time>1970-01-01T00:00:01.000Z</time></trkpt>
			<trkpt lat="44.516411" lon="33.983333"><time>1970-01-01T00:00:01.000Z</time></trkpt>
			<trkpt lat="44.516368" lon="33.982989"><time>1970-01-01T00:00:01.000Z</time></trkpt>
			<trkpt lat="44.516540" lon="33.982689"><time>1970-01-01T00:00:01.000Z</time></trkpt>
			<trkpt lat="44.516561" lon="33.982517"><time>1970-01-01T00:00:01.000Z</time></trkpt>
			<trkpt lat="44.516583" lon="33.982110"><time>1970-01-01T00:00:01.000Z</time></trkpt>
			<trkpt lat="44.516497" lon="33.982045"><time>1970-01-01T00:00:01.000Z</time></trkpt>
			<trkpt lat="44.516454" lon="33.981831"><time>1970-01-01T00:00:01.000Z</time></trkpt>
			<trkpt lat="44.516540" lon="33.981444"><time>1970-01-01T00:00:01.000Z</time></trkpt>
			<trkpt lat="44.516089" lon="33.980779"><time>1970-01-01T00:00:01.000Z</time></trkpt>
			<trkpt lat="44.515939" lon="33.980457"><time>1970-01-01T00:00:01.000Z</time></trkpt>
			<trkpt lat="44.515810" lon="33.980286"><time>1970-01-01T00:00:01.000Z</time></trkpt>
			<trkpt lat="44.515660" lon="33.980243"><time>1970-01-01T00:00:01.000Z</time></trkpt>
			<trkpt lat="44.515403" lon="33.980264"><time>1970-01-01T00:00:01.000Z</time></trkpt>
			<trkpt lat="44.515274" lon="33.980178"><time>1970-01-01T00:00:01.000Z</time></trkpt>
			<trkpt lat="44.515102" lon="33.979792"><time>1970-01-01T00:00:01.000Z</time></trkpt>
			<trkpt lat="44.514888" lon="33.979470"><time>1970-01-01T00:00:01.000Z</time></trkpt>
			<trkpt lat="44.514308" lon="33.978870"><time>1970-01-01T00:00:01.000Z</time></trkpt>
			<trkpt lat="44.514072" lon="33.978033"><time>1970-01-01T00:00:01.000Z</time></trkpt>
			<trkpt lat="44.513922" lon="33.977668"><time>1970-01-01T00:00:01.000Z</time></trkpt>
			<trkpt lat="44.513257" lon="33.976380"><time>1970-01-01T00:00:01.000Z</time></trkpt>
			<trkpt lat="44.513171" lon="33.975715"><time>1970-01-01T00:00:01.000Z</time></trkpt>
			<trkpt lat="44.513085" lon="33.975350"><time>1970-01-01T00:00:01.000Z</time></trkpt>
			<trkpt lat="44.513107" lon="33.974964"><time>1970-01-01T00:00:01.000Z</time></trkpt>
			<trkpt lat="44.513257" lon="33.974256"><time>1970-01-01T00:00:01.000Z</time></trkpt>
			<trkpt lat="44.513257" lon="33.973720"><time>1970-01-01T00:00:01.000Z</time></trkpt>
			<trkpt lat="44.513107" lon="33.973291"><time>1970-01-01T00:00:01.000Z</time></trkpt>
			<trkpt lat="44.513150" lon="33.972625"><time>1970-01-01T00:00:01.000Z</time></trkpt>
			<trkpt lat="44.513042" lon="33.972261"><time>1970-01-01T00:00:01.000Z</time></trkpt>
			<trkpt lat="44.512441" lon="33.971595"><time>1970-01-01T00:00:01.000Z</time></trkpt>
			<trkpt lat="44.512055" lon="33.970608"><time>1970-01-01T00:00:01.000Z</time></trkpt>
			<trkpt lat="44.512055" lon="33.970201"><time>1970-01-01T00:00:01.000Z</time></trkpt>
			<trkpt lat="44.511905" lon="33.970222"><time>1970-01-01T00:00:01.000Z</time></trkpt>
			<trkpt lat="44.511733" lon="33.969943"><time>1970-01-01T00:00:01.000Z</time></trkpt>
			<trkpt lat="44.511776" lon="33.969643"><time>1970-01-01T00:00:01.000Z</time></trkpt>
			<trkpt lat="44.511562" lon="33.969342"><time>1970-01-01T00:00:01.000Z</time></trkpt>
			<trkpt lat="44.510746" lon="33.968505"><time>1970-01-01T00:00:01.000Z</time></trkpt>
			<trkpt lat="44.510489" lon="33.968377"><time>1970-01-01T00:00:01.000Z</time></trkpt>
			<trkpt lat="44.510231" lon="33.968334"><time>1970-01-01T00:00:01.000Z</time></trkpt>
			<trkpt lat="44.509480" lon="33.967712"><time>1970-01-01T00:00:01.000Z</time></trkpt>
			<trkpt lat="44.509287" lon="33.967368"><time>1970-01-01T00:00:01.000Z</time></trkpt>
			<trkpt lat="44.509030" lon="33.967132"><time>1970-01-01T00:00:01.000Z</time></trkpt>
			<trkpt lat="44.508901" lon="33.966853"><time>1970-01-01T00:00:01.000Z</time></trkpt>
			<trkpt lat="44.508922" lon="33.966639"><time>1970-01-01T00:00:01.000Z</time></trkpt>
			<trkpt lat="44.509437" lon="33.966059"><time>1970-01-01T00:00:01.000Z</time></trkpt>
			<trkpt lat="44.510274" lon="33.966317"><time>1970-01-01T00:00:01.000Z</time></trkpt>
			<trkpt lat="44.510918" lon="33.966295"><time>1970-01-01T00:00:01.000Z</time></trkpt>
			<trkpt lat="44.511154" lon="33.966338"><time>1970-01-01T00:00:01.000Z</time></trkpt>
			<trkpt lat="44.511605" lon="33.966574"><time>1970-01-01T00:00:01.000Z</time></trkpt>
			<trkpt lat="44.511905" lon="33.966660"><time>1970-01-01T00:00:01.000Z</time></trkpt>
			<trkpt lat="44.511776" lon="33.966081"><time>1970-01-01T00:00:01.000Z</time></trkpt>
			<trkpt lat="44.511647" lon="33.964772"><time>1970-01-01T00:00:01.000Z</time></trkpt>
			<trkpt lat="44.511497" lon="33.964257"><time>1970-01-01T00:00:01.000Z</time></trkpt>
			<trkpt lat="44.511605" lon="33.963978"><time>1970-01-01T00:00:01.000Z</time></trkpt>
			<trkpt lat="44.511755" lon="33.963334"><time>1970-01-01T00:00:01.000Z</time></trkpt>
			<trkpt lat="44.511862" lon="33.962197"><time>1970-01-01T00:00:01.000Z</time></trkpt>
			<trkpt lat="44.511798" lon="33.961596"><time>1970-01-01T00:00:01.000Z</time></trkpt>
			<trkpt lat="44.511647" lon="33.961424"><time>1970-01-01T00:00:01.000Z</time></trkpt>
			<trkpt lat="44.511519" lon="33.961167"><time>1970-01-01T00:00:01.000Z</time></trkpt>
			<trkpt lat="44.510446" lon="33.959579"><time>1970-01-01T00:00:01.000Z</time></trkpt>
			<trkpt lat="44.509995" lon="33.958978"><time>1970-01-01T00:00:01.000Z</time></trkpt>
			<trkpt lat="44.509394" lon="33.958549"><time>1970-01-01T00:00:01.000Z</time></trkpt>
			<trkpt lat="44.509137" lon="33.958485"><time>1970-01-01T00:00:01.000Z</time></trkpt>
			<trkpt lat="44.508987" lon="33.958528"><time>1970-01-01T00:00:01.000Z</time></trkpt>
			<trkpt lat="44.508922" lon="33.958249"><time>1970-01-01T00:00:01.000Z</time></trkpt>
			<trkpt lat="44.509030" lon="33.957562"><time>1970-01-01T00:00:01.000Z</time></trkpt>
			<trkpt lat="44.509051" lon="33.957197"><time>1970-01-01T00:00:01.000Z</time></trkpt>
			<trkpt lat="44.508751" lon="33.956682"><time>1970-01-01T00:00:01.000Z</time></trkpt>
			<trkpt lat="44.508064" lon="33.954537"><time>1970-01-01T00:00:01.000Z</time></trkpt>
			<trkpt lat="44.508193" lon="33.954064"><time>1970-01-01T00:00:01.000Z</time></trkpt>
			<trkpt lat="44.508257" lon="33.954064"><time>1970-01-01T00:00:01.000Z</time></trkpt>
			<trkpt lat="44.508794" lon="33.954987"><time>1970-01-01T00:00:01.000Z</time></trkpt>
			<trkpt lat="44.509180" lon="33.955288"><time>1970-01-01T00:00:01.000Z</time></trkpt>
			<trkpt lat="44.509309" lon="33.955309"><time>1970-01-01T00:00:01.000Z</time></trkpt>
			<trkpt lat="44.510124" lon="33.954343"><time>1970-01-01T00:00:01.000Z</time></trkpt>
			<trkpt lat="44.510467" lon="33.954150"><time>1970-01-01T00:00:01.000Z</time></trkpt>
			<trkpt lat="44.510854" lon="33.954129"><time>1970-01-01T00:00:01.000Z</time></trkpt>
			<trkpt lat="44.510939" lon="33.954279"><time>1970-01-01T00:00:01.000Z</time></trkpt>
			<trkpt lat="44.510939" lon="33.954451"><time>1970-01-01T00:00:01.000Z</time></trkpt>
			<trkpt lat="44.510725" lon="33.955180"><time>1970-01-01T00:00:01.000Z</time></trkpt>
			<trkpt lat="44.510789" lon="33.955717"><time>1970-01-01T00:00:01.000Z</time></trkpt>
			<trkpt lat="44.510982" lon="33.956360"><time>1970-01-01T00:00:01.000Z</time></trkpt>
			<trkpt lat="44.511326" lon="33.956768"><time>1970-01-01T00:00:01.000Z</time></trkpt>
			<trkpt lat="44.511647" lon="33.956704"><time>1970-01-01T00:00:01.000Z</time></trkpt>
			<trkpt lat="44.512034" lon="33.956446"><time>1970-01-01T00:00:01.000Z</time></trkpt>
			<trkpt lat="44.512399" lon="33.956446"><time>1970-01-01T00:00:01.000Z</time></trkpt>
			<trkpt lat="44.512763" lon="33.956339"><time>1970-01-01T00:00:01.000Z</time></trkpt>
			<trkpt lat="44.513064" lon="33.956446"><time>1970-01-01T00:00:01.000Z</time></trkpt>
			<trkpt lat="44.513300" lon="33.957262"><time>1970-01-01T00:00:01.000Z</time></trkpt>
			<trkpt lat="44.513493" lon="33.958742"><time>1970-01-01T00:00:01.000Z</time></trkpt>
			<trkpt lat="44.514029" lon="33.959965"><time>1970-01-01T00:00:01.000Z</time></trkpt>
			<trkpt lat="44.514587" lon="33.960394"><time>1970-01-01T00:00:01.000Z</time></trkpt>
			<trkpt lat="44.514888" lon="33.960330"><time>1970-01-01T00:00:01.000Z</time></trkpt>
			<trkpt lat="44.514995" lon="33.960352"><time>1970-01-01T00:00:01.000Z</time></trkpt>
			<trkpt lat="44.515102" lon="33.960330"><time>1970-01-01T00:00:01.000Z</time></trkpt>
			<trkpt lat="44.515209" lon="33.960416"><time>1970-01-01T00:00:01.000Z</time></trkpt>
			<trkpt lat="44.515124" lon="33.960909"><time>1970-01-01T00:00:01.000Z</time></trkpt>
			<trkpt lat="44.515145" lon="33.961188"><time>1970-01-01T00:00:01.000Z</time></trkpt>
			<trkpt lat="44.515209" lon="33.961274"><time>1970-01-01T00:00:01.000Z</time></trkpt>
			<trkpt lat="44.515059" lon="33.962240"><time>1970-01-01T00:00:01.000Z</time></trkpt>
			<trkpt lat="44.515209" lon="33.962583"><time>1970-01-01T00:00:01.000Z</time></trkpt>
			<trkpt lat="44.515231" lon="33.962776"><time>1970-01-01T00:00:01.000Z</time></trkpt>
			<trkpt lat="44.515467" lon="33.963120"><time>1970-01-01T00:00:01.000Z</time></trkpt>
			<trkpt lat="44.515682" lon="33.963205"><time>1970-01-01T00:00:01.000Z</time></trkpt>
			<trkpt lat="44.516003" lon="33.963248"><time>1970-01-01T00:00:01.000Z</time></trkpt>
			<trkpt lat="44.516197" lon="33.963356"><time>1970-01-01T00:00:01.000Z</time></trkpt>
			<trkpt lat="44.516261" lon="33.963334"><time>1970-01-01T00:00:01.000Z</time></trkpt>
			<trkpt lat="44.516390" lon="33.963441"><time>1970-01-01T00:00:01.000Z</time></trkpt>
			<trkpt lat="44.516561" lon="33.963828"><time>1970-01-01T00:00:01.000Z</time></trkpt>
			<trkpt lat="44.516583" lon="33.964193"><time>1970-01-01T00:00:01.000Z</time></trkpt>
			<trkpt lat="44.516712" lon="33.964429"><time>1970-01-01T00:00:01.000Z</time></trkpt>
			<trkpt lat="44.516754" lon="33.964836"><time>1970-01-01T00:00:01.000Z</time></trkpt>
			<trkpt lat="44.516797" lon="33.964922"><time>1970-01-01T00:00:01.000Z</time></trkpt>
			<trkpt lat="44.516819" lon="33.965416"><time>1970-01-01T00:00:01.000Z</time></trkpt>
			<trkpt lat="44.516754" lon="33.965501"><time>1970-01-01T00:00:01.000Z</time></trkpt>
			<trkpt lat="44.516690" lon="33.965845"><time>1970-01-01T00:00:01.000Z</time></trkpt>
			<trkpt lat="44.516754" lon="33.966038"><time>1970-01-01T00:00:01.000Z</time></trkpt>
			<trkpt lat="44.517033" lon="33.966252"><time>1970-01-01T00:00:01.000Z</time></trkpt>
			<trkpt lat="44.517269" lon="33.966274"><time>1970-01-01T00:00:01.000Z</time></trkpt>
			<trkpt lat="44.517377" lon="33.966446"><time>1970-01-01T00:00:01.000Z</time></trkpt>
			<trkpt lat="44.517548" lon="33.966510"><time>1970-01-01T00:00:01.000Z</time></trkpt>
			<trkpt lat="44.517656" lon="33.966338"><time>1970-01-01T00:00:01.000Z</time></trkpt>
			<trkpt lat="44.517870" lon="33.966274"><time>1970-01-01T00:00:01.000Z</time></trkpt>
			<trkpt lat="44.517956" lon="33.966360"><time>1970-01-01T00:00:01.000Z</time></trkpt>
			<trkpt lat="44.518235" lon="33.966403"><time>1970-01-01T00:00:01.000Z</time></trkpt>
			<trkpt lat="44.518471" lon="33.966531"><time>1970-01-01T00:00:01.000Z</time></trkpt>
			<trkpt lat="44.518535" lon="33.966660"><time>1970-01-01T00:00:01.000Z</time></trkpt>
			<trkpt lat="44.518686" lon="33.966682"><time>1970-01-01T00:00:01.000Z</time></trkpt>
			<trkpt lat="44.518836" lon="33.966660"><time>1970-01-01T00:00:01.000Z</time></trkpt>
			<trkpt lat="44.518879" lon="33.966617"><time>1970-01-01T00:00:01.000Z</time></trkpt>
			<trkpt lat="44.519029" lon="33.966639"><time>1970-01-01T00:00:01.000Z</time></trkpt>
			<trkpt lat="44.519050" lon="33.966682"><time>1970-01-01T00:00:01.000Z</time></trkpt>
			<trkpt lat="44.519222" lon="33.966660"><time>1970-01-01T00:00:01.000Z</time></trkpt>
			<trkpt lat="44.519394" lon="33.966617"><time>1970-01-01T00:00:01.000Z</time></trkpt>
			<trkpt lat="44.519480" lon="33.966531"><time>1970-01-01T00:00:01.000Z</time></trkpt>
			<trkpt lat="44.519630" lon="33.966488"><time>1970-01-01T00:00:01.000Z</time></trkpt>
			<trkpt lat="44.519694" lon="33.966381"><time>1970-01-01T00:00:01.000Z</time></trkpt>
			<trkpt lat="44.520059" lon="33.966381"><time>1970-01-01T00:00:01.000Z</time></trkpt>
			<trkpt lat="44.520145" lon="33.966488"><time>1970-01-01T00:00:01.000Z</time></trkpt>
			<trkpt lat="44.520166" lon="33.966617"><time>1970-01-01T00:00:01.000Z</time></trkpt>
			<trkpt lat="44.520402" lon="33.966961"><time>1970-01-01T00:00:01.000Z</time></trkpt>
			<trkpt lat="44.520488" lon="33.967282"><time>1970-01-01T00:00:01.000Z</time></trkpt>
			<trkpt lat="44.520660" lon="33.967647"><time>1970-01-01T00:00:01.000Z</time></trkpt>
			<trkpt lat="44.520746" lon="33.968248"><time>1970-01-01T00:00:01.000Z</time></trkpt>
			<trkpt lat="44.520874" lon="33.968441"><time>1970-01-01T00:00:01.000Z</time></trkpt>
			<trkpt lat="44.521046" lon="33.968570"><time>1970-01-01T00:00:01.000Z</time></trkpt>
			<trkpt lat="44.521175" lon="33.968570"><time>1970-01-01T00:00:01.000Z</time></trkpt>
			<trkpt lat="44.521432" lon="33.968441"><time>1970-01-01T00:00:01.000Z</time></trkpt>
			<trkpt lat="44.521668" lon="33.968420"><time>1970-01-01T00:00:01.000Z</time></trkpt>
			<trkpt lat="44.521904" lon="33.968505"><time>1970-01-01T00:00:01.000Z</time></trkpt>
			<trkpt lat="44.521969" lon="33.968570"><time>1970-01-01T00:00:01.000Z</time></trkpt>
			<trkpt lat="44.522097" lon="33.968505"><time>1970-01-01T00:00:01.000Z</time></trkpt>
			<trkpt lat="44.522269" lon="33.968570"><time>1970-01-01T00:00:01.000Z</time></trkpt>
			<trkpt lat="44.522312" lon="33.968527"><time>1970-01-01T00:00:01.000Z</time></trkpt>
			<trkpt lat="44.522312" lon="33.968420"><time>1970-01-01T00:00:01.000Z</time></trkpt>
			<trkpt lat="44.522248" lon="33.968398"><time>1970-01-01T00:00:01.000Z</time></trkpt>
			<trkpt lat="44.522226" lon="33.968269"><time>1970-01-01T00:00:01.000Z</time></trkpt>
			<trkpt lat="44.522376" lon="33.967991"><time>1970-01-01T00:00:01.000Z</time></trkpt>
			<trkpt lat="44.522398" lon="33.967797"><time>1970-01-01T00:00:01.000Z</time></trkpt>
			<trkpt lat="44.522290" lon="33.967089"><time>1970-01-01T00:00:01.000Z</time></trkpt>
			<trkpt lat="44.522591" lon="33.965909"><time>1970-01-01T00:00:01.000Z</time></trkpt>
			<trkpt lat="44.522527" lon="33.965544"><time>1970-01-01T00:00:01.000Z</time></trkpt>
			<trkpt lat="44.522655" lon="33.965222"><time>1970-01-01T00:00:01.000Z</time></trkpt>
			<trkpt lat="44.522376" lon="33.964386"><time>1970-01-01T00:00:01.000Z</time></trkpt>
			<trkpt lat="44.522355" lon="33.963871"><time>1970-01-01T00:00:01.000Z</time></trkpt>
			<trkpt lat="44.522140" lon="33.963441"><time>1970-01-01T00:00:01.000Z</time></trkpt>
			<trkpt lat="44.522183" lon="33.963313"><time>1970-01-01T00:00:01.000Z</time></trkpt>
			<trkpt lat="44.522183" lon="33.963077"><time>1970-01-01T00:00:01.000Z</time></trkpt>
			<trkpt lat="44.522097" lon="33.962583"><time>1970-01-01T00:00:01.000Z</time></trkpt>
			<trkpt lat="44.522183" lon="33.961510"><time>1970-01-01T00:00:01.000Z</time></trkpt>
			<trkpt lat="44.522076" lon="33.961124"><time>1970-01-01T00:00:01.000Z</time></trkpt>
			<trkpt lat="44.522140" lon="33.960974"><time>1970-01-01T00:00:01.000Z</time></trkpt>
			<trkpt lat="44.522205" lon="33.960974"><time>1970-01-01T00:00:01.000Z</time></trkpt>
			<trkpt lat="44.522655" lon="33.959965"><time>1970-01-01T00:00:01.000Z</time></trkpt>
			<trkpt lat="44.523385" lon="33.959214"><time>1970-01-01T00:00:01.000Z</time></trkpt>
			<trkpt lat="44.524286" lon="33.958871"><time>1970-01-01T00:00:01.000Z</time></trkpt>
			<trkpt lat="44.524737" lon="33.958978"><time>1970-01-01T00:00:01.000Z</time></trkpt>
			<trkpt lat="44.524994" lon="33.959086"><time>1970-01-01T00:00:01.000Z</time></trkpt>
			<trkpt lat="44.525466" lon="33.959386"><time>1970-01-01T00:00:01.000Z</time></trkpt>
			<trkpt lat="44.525745" lon="33.959622"><time>1970-01-01T00:00:01.000Z</time></trkpt>
			<trkpt lat="44.525960" lon="33.959708"><time>1970-01-01T00:00:01.000Z</time></trkpt>
			<trkpt lat="44.526282" lon="33.959558"><time>1970-01-01T00:00:01.000Z</time></trkpt>
			<trkpt lat="44.526325" lon="33.959472"><time>1970-01-01T00:00:01.000Z</time></trkpt>
			<trkpt lat="44.525574" lon="33.958721"><time>1970-01-01T00:00:01.000Z</time></trkpt>
			<trkpt lat="44.524930" lon="33.957691"><time>1970-01-01T00:00:01.000Z</time></trkpt>
			<trkpt lat="44.524608" lon="33.957455"><time>1970-01-01T00:00:01.000Z</time></trkpt>
			<trkpt lat="44.524393" lon="33.957090"><time>1970-01-01T00:00:01.000Z</time></trkpt>
			<trkpt lat="44.524501" lon="33.956639"><time>1970-01-01T00:00:01.000Z</time></trkpt>
			<trkpt lat="44.524436" lon="33.956060"><time>1970-01-01T00:00:01.000Z</time></trkpt>
			<trkpt lat="44.523492" lon="33.954622"><time>1970-01-01T00:00:01.000Z</time></trkpt>
			<trkpt lat="44.523835" lon="33.954215"><time>1970-01-01T00:00:01.000Z</time></trkpt>
			<trkpt lat="44.523921" lon="33.953228"><time>1970-01-01T00:00:01.000Z</time></trkpt>
			<trkpt lat="44.523535" lon="33.952541"><time>1970-01-01T00:00:01.000Z</time></trkpt>
			<trkpt lat="44.523492" lon="33.952112"><time>1970-01-01T00:00:01.000Z</time></trkpt>
			<trkpt lat="44.523256" lon="33.951811"><time>1970-01-01T00:00:01.000Z</time></trkpt>
			<trkpt lat="44.522977" lon="33.950910"><time>1970-01-01T00:00:01.000Z</time></trkpt>
			<trkpt lat="44.522720" lon="33.950374"><time>1970-01-01T00:00:01.000Z</time></trkpt>
			<trkpt lat="44.522655" lon="33.949837"><time>1970-01-01T00:00:01.000Z</time></trkpt>
			<trkpt lat="44.522462" lon="33.949580"><time>1970-01-01T00:00:01.000Z</time></trkpt>
			<trkpt lat="44.522441" lon="33.949151"><time>1970-01-01T00:00:01.000Z</time></trkpt>
			<trkpt lat="44.522162" lon="33.948636"><time>1970-01-01T00:00:01.000Z</time></trkpt>
			<trkpt lat="44.522054" lon="33.945975"><time>1970-01-01T00:00:01.000Z</time></trkpt>
			<trkpt lat="44.522355" lon="33.945374"><time>1970-01-01T00:00:01.000Z</time></trkpt>
			<trkpt lat="44.522441" lon="33.944795"><time>1970-01-01T00:00:01.000Z</time></trkpt>
			<trkpt lat="44.521947" lon="33.942949"><time>1970-01-01T00:00:01.000Z</time></trkpt>
			<trkpt lat="44.521904" lon="33.942027"><time>1970-01-01T00:00:01.000Z</time></trkpt>
			<trkpt lat="44.521625" lon="33.940181"><time>1970-01-01T00:00:01.000Z</time></trkpt>
			<trkpt lat="44.521861" lon="33.938980"><time>1970-01-01T00:00:01.000Z</time></trkpt>
			<trkpt lat="44.521625" lon="33.937993"><time>1970-01-01T00:00:01.000Z</time></trkpt>
			<trkpt lat="44.521690" lon="33.937606"><time>1970-01-01T00:00:01.000Z</time></trkpt>
			<trkpt lat="44.520574" lon="33.937328"><time>1970-01-01T00:00:01.000Z</time></trkpt>
			<trkpt lat="44.519801" lon="33.936813"><time>1970-01-01T00:00:01.000Z</time></trkpt>
			<trkpt lat="44.518986" lon="33.936877"><time>1970-01-01T00:00:01.000Z</time></trkpt>
			<trkpt lat="44.517076" lon="33.935740"><time>1970-01-01T00:00:01.000Z</time></trkpt>
			<trkpt lat="44.515789" lon="33.935139"><time>1970-01-01T00:00:01.000Z</time></trkpt>
			<trkpt lat="44.515295" lon="33.934838"><time>1970-01-01T00:00:01.000Z</time></trkpt>
			<trkpt lat="44.514780" lon="33.934431"><time>1970-01-01T00:00:01.000Z</time></trkpt>
			<trkpt lat="44.514544" lon="33.934302"><time>1970-01-01T00:00:01.000Z</time></trkpt>
			<trkpt lat="44.513815" lon="33.934002"><time>1970-01-01T00:00:01.000Z</time></trkpt>
			<trkpt lat="44.513364" lon="33.933379"><time>1970-01-01T00:00:01.000Z</time></trkpt>
			<trkpt lat="44.513128" lon="33.933143"><time>1970-01-01T00:00:01.000Z</time></trkpt>
			<trkpt lat="44.512828" lon="33.933015"><time>1970-01-01T00:00:01.000Z</time></trkpt>
			<trkpt lat="44.512527" lon="33.932972"><time>1970-01-01T00:00:01.000Z</time></trkpt>
			<trkpt lat="44.512399" lon="33.932736"><time>1970-01-01T00:00:01.000Z</time></trkpt>
			<trkpt lat="44.512227" lon="33.930890"><time>1970-01-01T00:00:01.000Z</time></trkpt>
			<trkpt lat="44.512270" lon="33.930525"><time>1970-01-01T00:00:01.000Z</time></trkpt>
			<trkpt lat="44.512227" lon="33.930311"><time>1970-01-01T00:00:01.000Z</time></trkpt>
			<trkpt lat="44.512205" lon="33.929796"><time>1970-01-01T00:00:01.000Z</time></trkpt>
			<trkpt lat="44.512098" lon="33.929195"><time>1970-01-01T00:00:01.000Z</time></trkpt>
			<trkpt lat="44.511926" lon="33.928830"><time>1970-01-01T00:00:01.000Z</time></trkpt>
			<trkpt lat="44.511690" lon="33.928444"><time>1970-01-01T00:00:01.000Z</time></trkpt>
			<trkpt lat="44.511261" lon="33.927436"><time>1970-01-01T00:00:01.000Z</time></trkpt>
			<trkpt lat="44.511154" lon="33.926620"><time>1970-01-01T00:00:01.000Z</time></trkpt>
			<trkpt lat="44.511090" lon="33.926470"><time>1970-01-01T00:00:01.000Z</time></trkpt>
			<trkpt lat="44.510939" lon="33.926320"><time>1970-01-01T00:00:01.000Z</time></trkpt>
			<trkpt lat="44.510811" lon="33.926062"><time>1970-01-01T00:00:01.000Z</time></trkpt>
			<trkpt lat="44.510789" lon="33.925590"><time>1970-01-01T00:00:01.000Z</time></trkpt>
			<trkpt lat="44.510596" lon="33.925182"><time>1970-01-01T00:00:01.000Z</time></trkpt>
			<trkpt lat="44.510510" lon="33.924710"><time>1970-01-01T00:00:01.000Z</time></trkpt>
			<trkpt lat="44.510017" lon="33.923831"><time>1970-01-01T00:00:01.000Z</time></trkpt>
			<trkpt lat="44.510145" lon="33.923616"><time>1970-01-01T00:00:01.000Z</time></trkpt>
			<trkpt lat="44.510339" lon="33.923466"><time>1970-01-01T00:00:01.000Z</time></trkpt>
			<trkpt lat="44.510467" lon="33.923165"><time>1970-01-01T00:00:01.000Z</time></trkpt>
			<trkpt lat="44.510553" lon="33.922393"><time>1970-01-01T00:00:01.000Z</time></trkpt>
			<trkpt lat="44.510510" lon="33.921771"><time>1970-01-01T00:00:01.000Z</time></trkpt>
			<trkpt lat="44.510381" lon="33.921342"><time>1970-01-01T00:00:01.000Z</time></trkpt>
			<trkpt lat="44.510360" lon="33.920827"><time>1970-01-01T00:00:01.000Z</time></trkpt>
			<trkpt lat="44.510060" lon="33.919689"><time>1970-01-01T00:00:01.000Z</time></trkpt>
			<trkpt lat="44.509695" lon="33.918745"><time>1970-01-01T00:00:01.000Z</time></trkpt>
			<trkpt lat="44.509480" lon="33.918531"><time>1970-01-01T00:00:01.000Z</time></trkpt>
			<trkpt lat="44.509609" lon="33.918359"><time>1970-01-01T00:00:01.000Z</time></trkpt>
			<trkpt lat="44.509802" lon="33.918273"><time>1970-01-01T00:00:01.000Z</time></trkpt>
			<trkpt lat="44.509738" lon="33.918059"><time>1970-01-01T00:00:01.000Z</time></trkpt>
			<trkpt lat="44.509416" lon="33.917608"><time>1970-01-01T00:00:01.000Z</time></trkpt>
			<trkpt lat="44.509394" lon="33.917501"><time>1970-01-01T00:00:01.000Z</time></trkpt>
			<trkpt lat="44.509738" lon="33.917050"><time>1970-01-01T00:00:01.000Z</time></trkpt>
			<trkpt lat="44.510124" lon="33.916771"><time>1970-01-01T00:00:01.000Z</time></trkpt>
			<trkpt lat="44.510317" lon="33.916449"><time>1970-01-01T00:00:01.000Z</time></trkpt>
			<trkpt lat="44.510381" lon="33.916106"><time>1970-01-01T00:00:01.000Z</time></trkpt>
			<trkpt lat="44.510596" lon="33.915634"><time>1970-01-01T00:00:01.000Z</time></trkpt>
			<trkpt lat="44.510575" lon="33.915376"><time>1970-01-01T00:00:01.000Z</time></trkpt>
			<trkpt lat="44.510424" lon="33.915140"><time>1970-01-01T00:00:01.000Z</time></trkpt>
			<trkpt lat="44.510510" lon="33.914754"><time>1970-01-01T00:00:01.000Z</time></trkpt>
			<trkpt lat="44.510703" lon="33.914239"><time>1970-01-01T00:00:01.000Z</time></trkpt>
			<trkpt lat="44.510639" lon="33.913939"><time>1970-01-01T00:00:01.000Z</time></trkpt>
			<trkpt lat="44.510210" lon="33.913231"><time>1970-01-01T00:00:01.000Z</time></trkpt>
			<trkpt lat="44.510038" lon="33.913209"><time>1970-01-01T00:00:01.000Z</time></trkpt>
			<trkpt lat="44.509909" lon="33.913037"><time>1970-01-01T00:00:01.000Z</time></trkpt>
			<trkpt lat="44.509309" lon="33.912673"><time>1970-01-01T00:00:01.000Z</time></trkpt>
			<trkpt lat="44.508686" lon="33.911857"><time>1970-01-01T00:00:01.000Z</time></trkpt>
			<trkpt lat="44.508493" lon="33.911750"><time>1970-01-01T00:00:01.000Z</time></trkpt>
			<trkpt lat="44.508300" lon="33.911814"><time>1970-01-01T00:00:01.000Z</time></trkpt>
			<trkpt lat="44.508171" lon="33.911922"><time>1970-01-01T00:00:01.000Z</time></trkpt>
			<trkpt lat="44.508064" lon="33.911836"><time>1970-01-01T00:00:01.000Z</time></trkpt>
			<trkpt lat="44.508000" lon="33.911535"><time>1970-01-01T00:00:01.000Z</time></trkpt>
			<trkpt lat="44.508128" lon="33.911149"><time>1970-01-01T00:00:01.000Z</time></trkpt>
			<trkpt lat="44.508214" lon="33.910591"><time>1970-01-01T00:00:01.000Z</time></trkpt>
			<trkpt lat="44.508193" lon="33.910248"><time>1970-01-01T00:00:01.000Z</time></trkpt>
			<trkpt lat="44.508086" lon="33.909840"><time>1970-01-01T00:00:01.000Z</time></trkpt>
			<trkpt lat="44.508236" lon="33.908596"><time>1970-01-01T00:00:01.000Z</time></trkpt>
			<trkpt lat="44.508150" lon="33.908188"><time>1970-01-01T00:00:01.000Z</time></trkpt>
			<trkpt lat="44.508171" lon="33.908059"><time>1970-01-01T00:00:01.000Z</time></trkpt>
			<trkpt lat="44.507807" lon="33.908059"><time>1970-01-01T00:00:01.000Z</time></trkpt>
			<trkpt lat="44.507678" lon="33.908124"><time>1970-01-01T00:00:01.000Z</time></trkpt>
			<trkpt lat="44.507335" lon="33.908596"><time>1970-01-01T00:00:01.000Z</time></trkpt>
			<trkpt lat="44.506970" lon="33.908767"><time>1970-01-01T00:00:01.000Z</time></trkpt>
			<trkpt lat="44.506519" lon="33.908682"><time>1970-01-01T00:00:01.000Z</time></trkpt>
			<trkpt lat="44.506283" lon="33.908510"><time>1970-01-01T00:00:01.000Z</time></trkpt>
			<trkpt lat="44.506047" lon="33.908746"><time>1970-01-01T00:00:01.000Z</time></trkpt>
			<trkpt lat="44.505704" lon="33.908982"><time>1970-01-01T00:00:01.000Z</time></trkpt>
			<trkpt lat="44.505596" lon="33.908231"><time>1970-01-01T00:00:01.000Z</time></trkpt>
			<trkpt lat="44.505639" lon="33.907244"><time>1970-01-01T00:00:01.000Z</time></trkpt>
			<trkpt lat="44.505725" lon="33.906536"><time>1970-01-01T00:00:01.000Z</time></trkpt>
			<trkpt lat="44.505639" lon="33.905913"><time>1970-01-01T00:00:01.000Z</time></trkpt>
			<trkpt lat="44.505339" lon="33.904862"><time>1970-01-01T00:00:01.000Z</time></trkpt>
			<trkpt lat="44.505210" lon="33.904733"><time>1970-01-01T00:00:01.000Z</time></trkpt>
			<trkpt lat="44.504416" lon="33.903231"><time>1970-01-01T00:00:01.000Z</time></trkpt>
			<trkpt lat="44.504288" lon="33.902695"><time>1970-01-01T00:00:01.000Z</time></trkpt>
			<trkpt lat="44.503987" lon="33.902115"><time>1970-01-01T00:00:01.000Z</time></trkpt>
			<trkpt lat="44.503923" lon="33.901643"><time>1970-01-01T00:00:01.000Z</time></trkpt>
			<trkpt lat="44.503558" lon="33.901751"><time>1970-01-01T00:00:01.000Z</time></trkpt>
			<trkpt lat="44.503279" lon="33.901751"><time>1970-01-01T00:00:01.000Z</time></trkpt>
			<trkpt lat="44.503043" lon="33.901622"><time>1970-01-01T00:00:01.000Z</time></trkpt>
			<trkpt lat="44.502678" lon="33.901107"><time>1970-01-01T00:00:01.000Z</time></trkpt>
			<trkpt lat="44.502399" lon="33.900420"><time>1970-01-01T00:00:01.000Z</time></trkpt>
			<trkpt lat="44.502142" lon="33.900227"><time>1970-01-01T00:00:01.000Z</time></trkpt>
			<trkpt lat="44.501627" lon="33.900292"><time>1970-01-01T00:00:01.000Z</time></trkpt>
			<trkpt lat="44.501047" lon="33.900206"><time>1970-01-01T00:00:01.000Z</time></trkpt>
			<trkpt lat="44.500983" lon="33.900163"><time>1970-01-01T00:00:01.000Z</time></trkpt>
			<trkpt lat="44.500790" lon="33.900313"><time>1970-01-01T00:00:01.000Z</time></trkpt>
			<trkpt lat="44.501004" lon="33.900056"><time>1970-01-01T00:00:01.000Z</time></trkpt>
			<trkpt lat="44.501176" lon="33.900120"><time>1970-01-01T00:00:01.000Z</time></trkpt>
			<trkpt lat="44.501434" lon="33.899991"><time>1970-01-01T00:00:01.000Z</time></trkpt>
			<trkpt lat="44.501391" lon="33.899884"><time>1970-01-01T00:00:01.000Z</time></trkpt>
			<trkpt lat="44.500768" lon="33.899777"><time>1970-01-01T00:00:01.000Z</time></trkpt>
			<trkpt lat="44.500532" lon="33.899841"><time>1970-01-01T00:00:01.000Z</time></trkpt>
			<trkpt lat="44.499331" lon="33.899734"><time>1970-01-01T00:00:01.000Z</time></trkpt>
			<trkpt lat="44.498623" lon="33.899004"><time>1970-01-01T00:00:01.000Z</time></trkpt>
			<trkpt lat="44.498601" lon="33.898811"><time>1970-01-01T00:00:01.000Z</time></trkpt>
			<trkpt lat="44.498430" lon="33.898747"><time>1970-01-01T00:00:01.000Z</time></trkpt>
			<trkpt lat="44.498279" lon="33.898403"><time>1970-01-01T00:00:01.000Z</time></trkpt>
			<trkpt lat="44.497292" lon="33.898210"><time>1970-01-01T00:00:01.000Z</time></trkpt>
			<trkpt lat="44.496970" lon="33.898275"><time>1970-01-01T00:00:01.000Z</time></trkpt>
			<trkpt lat="44.496820" lon="33.898210"><time>1970-01-01T00:00:01.000Z</time></trkpt>
			<trkpt lat="44.496670" lon="33.898253"><time>1970-01-01T00:00:01.000Z</time></trkpt>
			<trkpt lat="44.496455" lon="33.898039"><time>1970-01-01T00:00:01.000Z</time></trkpt>
			<trkpt lat="44.496112" lon="33.897845"><time>1970-01-01T00:00:01.000Z</time></trkpt>
			<trkpt lat="44.495533" lon="33.898081"><time>1970-01-01T00:00:01.000Z</time></trkpt>
			<trkpt lat="44.495082" lon="33.897588"><time>1970-01-01T00:00:01.000Z</time></trkpt>
			<trkpt lat="44.494868" lon="33.897073"><time>1970-01-01T00:00:01.000Z</time></trkpt>
			<trkpt lat="44.494632" lon="33.897030"><time>1970-01-01T00:00:01.000Z</time></trkpt>
			<trkpt lat="44.494310" lon="33.897180"><time>1970-01-01T00:00:01.000Z</time></trkpt>
			<trkpt lat="44.493130" lon="33.897030"><time>1970-01-01T00:00:01.000Z</time></trkpt>
			<trkpt lat="44.492443" lon="33.897545"><time>1970-01-01T00:00:01.000Z</time></trkpt>
			<trkpt lat="44.492035" lon="33.897931"><time>1970-01-01T00:00:01.000Z</time></trkpt>
			<trkpt lat="44.491821" lon="33.897760"><time>1970-01-01T00:00:01.000Z</time></trkpt>
			<trkpt lat="44.491241" lon="33.897438"><time>1970-01-01T00:00:01.000Z</time></trkpt>
			<trkpt lat="44.490919" lon="33.897180"><time>1970-01-01T00:00:01.000Z</time></trkpt>
			<trkpt lat="44.490319" lon="33.896987"><time>1970-01-01T00:00:01.000Z</time></trkpt>
			<trkpt lat="44.490104" lon="33.896365"><time>1970-01-01T00:00:01.000Z</time></trkpt>
			<trkpt lat="44.490104" lon="33.895850"><time>1970-01-01T00:00:01.000Z</time></trkpt>
			<trkpt lat="44.489975" lon="33.894970"><time>1970-01-01T00:00:01.000Z</time></trkpt>
			<trkpt lat="44.489804" lon="33.894240"><time>1970-01-01T00:00:01.000Z</time></trkpt>
			<trkpt lat="44.489503" lon="33.894133"><time>1970-01-01T00:00:01.000Z</time></trkpt>
			<trkpt lat="44.489138" lon="33.894176"><time>1970-01-01T00:00:01.000Z</time></trkpt>
			<trkpt lat="44.487722" lon="33.894155"><time>1970-01-01T00:00:01.000Z</time></trkpt>
			<trkpt lat="44.487508" lon="33.894004"><time>1970-01-01T00:00:01.000Z</time></trkpt>
			<trkpt lat="44.487078" lon="33.893532"><time>1970-01-01T00:00:01.000Z</time></trkpt>
			<trkpt lat="44.486628" lon="33.893640"><time>1970-01-01T00:00:01.000Z</time></trkpt>
			<trkpt lat="44.486413" lon="33.893532"><time>1970-01-01T00:00:01.000Z</time></trkpt>
			<trkpt lat="44.486177" lon="33.893318"><time>1970-01-01T00:00:01.000Z</time></trkpt>
			<trkpt lat="44.485791" lon="33.892631"><time>1970-01-01T00:00:01.000Z</time></trkpt>
			<trkpt lat="44.485469" lon="33.891816"><time>1970-01-01T00:00:01.000Z</time></trkpt>
			<trkpt lat="44.484890" lon="33.891194"><time>1970-01-01T00:00:01.000Z</time></trkpt>
			<trkpt lat="44.484740" lon="33.890936"><time>1970-01-01T00:00:01.000Z</time></trkpt>
			<trkpt lat="44.484761" lon="33.890614"><time>1970-01-01T00:00:01.000Z</time></trkpt>
			<trkpt lat="44.484933" lon="33.890142"><time>1970-01-01T00:00:01.000Z</time></trkpt>
			<trkpt lat="44.485061" lon="33.890056"><time>1970-01-01T00:00:01.000Z</time></trkpt>
			<trkpt lat="44.485297" lon="33.889691"><time>1970-01-01T00:00:01.000Z</time></trkpt>
			<trkpt lat="44.485340" lon="33.889434"><time>1970-01-01T00:00:01.000Z</time></trkpt>
			<trkpt lat="44.485190" lon="33.889262"><time>1970-01-01T00:00:01.000Z</time></trkpt>
			<trkpt lat="44.485040" lon="33.889176"><time>1970-01-01T00:00:01.000Z</time></trkpt>
			<trkpt lat="44.484718" lon="33.889091"><time>1970-01-01T00:00:01.000Z</time></trkpt>
			<trkpt lat="44.484546" lon="33.888898"><time>1970-01-01T00:00:01.000Z</time></trkpt>
			<trkpt lat="44.484332" lon="33.888254"><time>1970-01-01T00:00:01.000Z</time></trkpt>
			<trkpt lat="44.484268" lon="33.888147"><time>1970-01-01T00:00:01.000Z</time></trkpt>
			<trkpt lat="44.483860" lon="33.887846"><time>1970-01-01T00:00:01.000Z</time></trkpt>
			<trkpt lat="44.483795" lon="33.887739"><time>1970-01-01T00:00:01.000Z</time></trkpt>
			<trkpt lat="44.483967" lon="33.887546"><time>1970-01-01T00:00:01.000Z</time></trkpt>
			<trkpt lat="44.483817" lon="33.887224"><time>1970-01-01T00:00:01.000Z</time></trkpt>
			<trkpt lat="44.483795" lon="33.886945"><time>1970-01-01T00:00:01.000Z</time></trkpt>
			<trkpt lat="44.483860" lon="33.886344"><time>1970-01-01T00:00:01.000Z</time></trkpt>
			<trkpt lat="44.483774" lon="33.886129"><time>1970-01-01T00:00:01.000Z</time></trkpt>
			<trkpt lat="44.483559" lon="33.886151"><time>1970-01-01T00:00:01.000Z</time></trkpt>
			<trkpt lat="44.482873" lon="33.886816"><time>1970-01-01T00:00:01.000Z</time></trkpt>
			<trkpt lat="44.482272" lon="33.886451"><time>1970-01-01T00:00:01.000Z</time></trkpt>
			<trkpt lat="44.481950" lon="33.885057"><time>1970-01-01T00:00:01.000Z</time></trkpt>
			<trkpt lat="44.481499" lon="33.884649"><time>1970-01-01T00:00:01.000Z</time></trkpt>
			<trkpt lat="44.481199" lon="33.883555"><time>1970-01-01T00:00:01.000Z</time></trkpt>
			<trkpt lat="44.480877" lon="33.883040"><time>1970-01-01T00:00:01.000Z</time></trkpt>
			<trkpt lat="44.480298" lon="33.882782"><time>1970-01-01T00:00:01.000Z</time></trkpt>
			<trkpt lat="44.480148" lon="33.882503"><time>1970-01-01T00:00:01.000Z</time></trkpt>
			<trkpt lat="44.480126" lon="33.882074"><time>1970-01-01T00:00:01.000Z</time></trkpt>
			<trkpt lat="44.479912" lon="33.881816"><time>1970-01-01T00:00:01.000Z</time></trkpt>
			<trkpt lat="44.479482" lon="33.882010"><time>1970-01-01T00:00:01.000Z</time></trkpt>
			<trkpt lat="44.479075" lon="33.881945"><time>1970-01-01T00:00:01.000Z</time></trkpt>
			<trkpt lat="44.478646" lon="33.881216"><time>1970-01-01T00:00:01.000Z</time></trkpt>
			<trkpt lat="44.478259" lon="33.881344"><time>1970-01-01T00:00:01.000Z</time></trkpt>
			<trkpt lat="44.478131" lon="33.881516"><time>1970-01-01T00:00:01.000Z</time></trkpt>
			<trkpt lat="44.477637" lon="33.881602"><time>1970-01-01T00:00:01.000Z</time></trkpt>
			<trkpt lat="44.477122" lon="33.882589"><time>1970-01-01T00:00:01.000Z</time></trkpt>
			<trkpt lat="44.476328" lon="33.881173"><time>1970-01-01T00:00:01.000Z</time></trkpt>
			<trkpt lat="44.476049" lon="33.880486"><time>1970-01-01T00:00:01.000Z</time></trkpt>
			<trkpt lat="44.475577" lon="33.880400"><time>1970-01-01T00:00:01.000Z</time></trkpt>
			<trkpt lat="44.475234" lon="33.880400"><time>1970-01-01T00:00:01.000Z</time></trkpt>
			<trkpt lat="44.474762" lon="33.880722"><time>1970-01-01T00:00:01.000Z</time></trkpt>
			<trkpt lat="44.474547" lon="33.880765"><time>1970-01-01T00:00:01.000Z</time></trkpt>
			<trkpt lat="44.473925" lon="33.880293"><time>1970-01-01T00:00:01.000Z</time></trkpt>
			<trkpt lat="44.473732" lon="33.880057"><time>1970-01-01T00:00:01.000Z</time></trkpt>
			<trkpt lat="44.473367" lon="33.880143"><time>1970-01-01T00:00:01.000Z</time></trkpt>
			<trkpt lat="44.473067" lon="33.880357"><time>1970-01-01T00:00:01.000Z</time></trkpt>
			<trkpt lat="44.472809" lon="33.880400"><time>1970-01-01T00:00:01.000Z</time></trkpt>
			<trkpt lat="44.472337" lon="33.880787"><time>1970-01-01T00:00:01.000Z</time></trkpt>
			<trkpt lat="44.472230" lon="33.880787"><time>1970-01-01T00:00:01.000Z</time></trkpt>
			<trkpt lat="44.471650" lon="33.880572"><time>1970-01-01T00:00:01.000Z</time></trkpt>
			<trkpt lat="44.470771" lon="33.880379"><time>1970-01-01T00:00:01.000Z</time></trkpt>
			<trkpt lat="44.470728" lon="33.880250"><time>1970-01-01T00:00:01.000Z</time></trkpt>
			<trkpt lat="44.470771" lon="33.879799"><time>1970-01-01T00:00:01.000Z</time></trkpt>
			<trkpt lat="44.470749" lon="33.879521"><time>1970-01-01T00:00:01.000Z</time></trkpt>
			<trkpt lat="44.470620" lon="33.879177"><time>1970-01-01T00:00:01.000Z</time></trkpt>
			<trkpt lat="44.470170" lon="33.878684"><time>1970-01-01T00:00:01.000Z</time></trkpt>
			<trkpt lat="44.470020" lon="33.878340"><time>1970-01-01T00:00:01.000Z</time></trkpt>
			<trkpt lat="44.469741" lon="33.877997"><time>1970-01-01T00:00:01.000Z</time></trkpt>
			<trkpt lat="44.469290" lon="33.877675"><time>1970-01-01T00:00:01.000Z</time></trkpt>
			<trkpt lat="44.468839" lon="33.876946"><time>1970-01-01T00:00:01.000Z</time></trkpt>
			<trkpt lat="44.468711" lon="33.875873"><time>1970-01-01T00:00:01.000Z</time></trkpt>
			<trkpt lat="44.468410" lon="33.874993"><time>1970-01-01T00:00:01.000Z</time></trkpt>
			<trkpt lat="44.468282" lon="33.874778"><time>1970-01-01T00:00:01.000Z</time></trkpt>
			<trkpt lat="44.468088" lon="33.874671"><time>1970-01-01T00:00:01.000Z</time></trkpt>
			<trkpt lat="44.467681" lon="33.874972"><time>1970-01-01T00:00:01.000Z</time></trkpt>
			<trkpt lat="44.466973" lon="33.875079"><time>1970-01-01T00:00:01.000Z</time></trkpt>
			<trkpt lat="44.466672" lon="33.875014"><time>1970-01-01T00:00:01.000Z</time></trkpt>
			<trkpt lat="44.466350" lon="33.874693"><time>1970-01-01T00:00:01.000Z</time></trkpt>
			<trkpt lat="44.466200" lon="33.874671"><time>1970-01-01T00:00:01.000Z</time></trkpt>
			<trkpt lat="44.466071" lon="33.874585"><time>1970-01-01T00:00:01.000Z</time></trkpt>
			<trkpt lat="44.465900" lon="33.874392"><time>1970-01-01T00:00:01.000Z</time></trkpt>
			<trkpt lat="44.465492" lon="33.874156"><time>1970-01-01T00:00:01.000Z</time></trkpt>
			<trkpt lat="44.465256" lon="33.873920"><time>1970-01-01T00:00:01.000Z</time></trkpt>
			<trkpt lat="44.464827" lon="33.873405"><time>1970-01-01T00:00:01.000Z</time></trkpt>
			<trkpt lat="44.464698" lon="33.873126"><time>1970-01-01T00:00:01.000Z</time></trkpt>
			<trkpt lat="44.464569" lon="33.872718"><time>1970-01-01T00:00:01.000Z</time></trkpt>
			<trkpt lat="44.464312" lon="33.872461"><time>1970-01-01T00:00:01.000Z</time></trkpt>
			<trkpt lat="44.463990" lon="33.871603"><time>1970-01-01T00:00:01.000Z</time></trkpt>
			<trkpt lat="44.463969" lon="33.871367"><time>1970-01-01T00:00:01.000Z</time></trkpt>
			<trkpt lat="44.464119" lon="33.870616"><time>1970-01-01T00:00:01.000Z</time></trkpt>
			<trkpt lat="44.464119" lon="33.870465"><time>1970-01-01T00:00:01.000Z</time></trkpt>
			<trkpt lat="44.464054" lon="33.870337"><time>1970-01-01T00:00:01.000Z</time></trkpt>
			<trkpt lat="44.463604" lon="33.869865"><time>1970-01-01T00:00:01.000Z</time></trkpt>
			<trkpt lat="44.463260" lon="33.869328"><time>1970-01-01T00:00:01.000Z</time></trkpt>
			<trkpt lat="44.463153" lon="33.869264"><time>1970-01-01T00:00:01.000Z</time></trkpt>
			<trkpt lat="44.462853" lon="33.869350"><time>1970-01-01T00:00:01.000Z</time></trkpt>
			<trkpt lat="44.462681" lon="33.869564"><time>1970-01-01T00:00:01.000Z</time></trkpt>
			<trkpt lat="44.462509" lon="33.869671"><time>1970-01-01T00:00:01.000Z</time></trkpt>
			<trkpt lat="44.462574" lon="33.869779"><time>1970-01-01T00:00:01.000Z</time></trkpt>
			<trkpt lat="44.462509" lon="33.869671"><time>1970-01-01T00:00:01.000Z</time></trkpt>
			<trkpt lat="44.462188" lon="33.869800"><time>1970-01-01T00:00:01.000Z</time></trkpt>
			<trkpt lat="44.462059" lon="33.869757"><time>1970-01-01T00:00:01.000Z</time></trkpt>
			<trkpt lat="44.461801" lon="33.869972"><time>1970-01-01T00:00:01.000Z</time></trkpt>
			<trkpt lat="44.461265" lon="33.869779"><time>1970-01-01T00:00:01.000Z</time></trkpt>
			<trkpt lat="44.461007" lon="33.869800"><time>1970-01-01T00:00:01.000Z</time></trkpt>
			<trkpt lat="44.460857" lon="33.869671"><time>1970-01-01T00:00:01.000Z</time></trkpt>
			<trkpt lat="44.460750" lon="33.869650"><time>1970-01-01T00:00:01.000Z</time></trkpt>
			<trkpt lat="44.460664" lon="33.869586"><time>1970-01-01T00:00:01.000Z</time></trkpt>
			<trkpt lat="44.460578" lon="33.869371"><time>1970-01-01T00:00:01.000Z</time></trkpt>
			<trkpt lat="44.460449" lon="33.869264"><time>1970-01-01T00:00:01.000Z</time></trkpt>
			<trkpt lat="44.460042" lon="33.869199"><time>1970-01-01T00:00:01.000Z</time></trkpt>
			<trkpt lat="44.459892" lon="33.868878"><time>1970-01-01T00:00:01.000Z</time></trkpt>
			<trkpt lat="44.459248" lon="33.869285"><time>1970-01-01T00:00:01.000Z</time></trkpt>
			<trkpt lat="44.459076" lon="33.869264"><time>1970-01-01T00:00:01.000Z</time></trkpt>
			<trkpt lat="44.458926" lon="33.869114"><time>1970-01-01T00:00:01.000Z</time></trkpt>
			<trkpt lat="44.458668" lon="33.869114"><time>1970-01-01T00:00:01.000Z</time></trkpt>
			<trkpt lat="44.458304" lon="33.869393"><time>1970-01-01T00:00:01.000Z</time></trkpt>
			<trkpt lat="44.458111" lon="33.869457"><time>1970-01-01T00:00:01.000Z</time></trkpt>
			<trkpt lat="44.458025" lon="33.869521"><time>1970-01-01T00:00:01.000Z</time></trkpt>
			<trkpt lat="44.458003" lon="33.869671"><time>1970-01-01T00:00:01.000Z</time></trkpt>
			<trkpt lat="44.458261" lon="33.870079"><time>1970-01-01T00:00:01.000Z</time></trkpt>
			<trkpt lat="44.458196" lon="33.870659"><time>1970-01-01T00:00:01.000Z</time></trkpt>
			<trkpt lat="44.458068" lon="33.870916"><time>1970-01-01T00:00:01.000Z</time></trkpt>
			<trkpt lat="44.457810" lon="33.871045"><time>1970-01-01T00:00:01.000Z</time></trkpt>
			<trkpt lat="44.457660" lon="33.871002"><time>1970-01-01T00:00:01.000Z</time></trkpt>
			<trkpt lat="44.457360" lon="33.870830"><time>1970-01-01T00:00:01.000Z</time></trkpt>
			<trkpt lat="44.456888" lon="33.870701"><time>1970-01-01T00:00:01.000Z</time></trkpt>
			<trkpt lat="44.456501" lon="33.870873"><time>1970-01-01T00:00:01.000Z</time></trkpt>
			<trkpt lat="44.456308" lon="33.870744"><time>1970-01-01T00:00:01.000Z</time></trkpt>
			<trkpt lat="44.456179" lon="33.870701"><time>1970-01-01T00:00:01.000Z</time></trkpt>
			<trkpt lat="44.455815" lon="33.870723"><time>1970-01-01T00:00:01.000Z</time></trkpt>
			<trkpt lat="44.455471" lon="33.870659"><time>1970-01-01T00:00:01.000Z</time></trkpt>
			<trkpt lat="44.455385" lon="33.870766"><time>1970-01-01T00:00:01.000Z</time></trkpt>
			<trkpt lat="44.455149" lon="33.871839"><time>1970-01-01T00:00:01.000Z</time></trkpt>
			<trkpt lat="44.454720" lon="33.872397"><time>1970-01-01T00:00:01.000Z</time></trkpt>
			<trkpt lat="44.454570" lon="33.872783"><time>1970-01-01T00:00:01.000Z</time></trkpt>
			<trkpt lat="44.454377" lon="33.873083"><time>1970-01-01T00:00:01.000Z</time></trkpt>
			<trkpt lat="44.454098" lon="33.873298"><time>1970-01-01T00:00:01.000Z</time></trkpt>
			<trkpt lat="44.453948" lon="33.873555"><time>1970-01-01T00:00:01.000Z</time></trkpt>
			<trkpt lat="44.453755" lon="33.874371"><time>1970-01-01T00:00:01.000Z</time></trkpt>
			<trkpt lat="44.453626" lon="33.874628"><time>1970-01-01T00:00:01.000Z</time></trkpt>
			<trkpt lat="44.453519" lon="33.874950"><time>1970-01-01T00:00:01.000Z</time></trkpt>
			<trkpt lat="44.453454" lon="33.875315"><time>1970-01-01T00:00:01.000Z</time></trkpt>
			<trkpt lat="44.453476" lon="33.875873"><time>1970-01-01T00:00:01.000Z</time></trkpt>
			<trkpt lat="44.453390" lon="33.876173"><time>1970-01-01T00:00:01.000Z</time></trkpt>
			<trkpt lat="44.453068" lon="33.876452"><time>1970-01-01T00:00:01.000Z</time></trkpt>
			<trkpt lat="44.452918" lon="33.877096"><time>1970-01-01T00:00:01.000Z</time></trkpt>
			<trkpt lat="44.452124" lon="33.879413"><time>1970-01-01T00:00:01.000Z</time></trkpt>
			<trkpt lat="44.452081" lon="33.879971"><time>1970-01-01T00:00:01.000Z</time></trkpt>
			<trkpt lat="44.451781" lon="33.880894"><time>1970-01-01T00:00:01.000Z</time></trkpt>
			<trkpt lat="44.451201" lon="33.881580"><time>1970-01-01T00:00:01.000Z</time></trkpt>
			<trkpt lat="44.450772" lon="33.881859"><time>1970-01-01T00:00:01.000Z</time></trkpt>
			<trkpt lat="44.450343" lon="33.882224"><time>1970-01-01T00:00:01.000Z</time></trkpt>
			<trkpt lat="44.450150" lon="33.882846"><time>1970-01-01T00:00:01.000Z</time></trkpt>
			<trkpt lat="44.449806" lon="33.884306"><time>1970-01-01T00:00:01.000Z</time></trkpt>
			<trkpt lat="44.449635" lon="33.884756"><time>1970-01-01T00:00:01.000Z</time></trkpt>
			<trkpt lat="44.449227" lon="33.886602"><time>1970-01-01T00:00:01.000Z</time></trkpt>
			<trkpt lat="44.449120" lon="33.886816"><time>1970-01-01T00:00:01.000Z</time></trkpt>
			<trkpt lat="44.448970" lon="33.886966"><time>1970-01-01T00:00:01.000Z</time></trkpt>
			<trkpt lat="44.448862" lon="33.887353"><time>1970-01-01T00:00:01.000Z</time></trkpt>
			<trkpt lat="44.448626" lon="33.887674"><time>1970-01-01T00:00:01.000Z</time></trkpt>
			<trkpt lat="44.448219" lon="33.888425"><time>1970-01-01T00:00:01.000Z</time></trkpt>
			<trkpt lat="44.447875" lon="33.888940"><time>1970-01-01T00:00:01.000Z</time></trkpt>
			<trkpt lat="44.447789" lon="33.889606"><time>1970-01-01T00:00:01.000Z</time></trkpt>
			<trkpt lat="44.447682" lon="33.889992"><time>1970-01-01T00:00:01.000Z</time></trkpt>
			<trkpt lat="44.447618" lon="33.890400"><time>1970-01-01T00:00:01.000Z</time></trkpt>
			<trkpt lat="44.447618" lon="33.890636"><time>1970-01-01T00:00:01.000Z</time></trkpt>
			<trkpt lat="44.447832" lon="33.891108"><time>1970-01-01T00:00:01.000Z</time></trkpt>
			<trkpt lat="44.447789" lon="33.891408"><time>1970-01-01T00:00:01.000Z</time></trkpt>
			<trkpt lat="44.447811" lon="33.891816"><time>1970-01-01T00:00:01.000Z</time></trkpt>
			<trkpt lat="44.447747" lon="33.892181"><time>1970-01-01T00:00:01.000Z</time></trkpt>
			<trkpt lat="44.447575" lon="33.892588"><time>1970-01-01T00:00:01.000Z</time></trkpt>
			<trkpt lat="44.447403" lon="33.893575"><time>1970-01-01T00:00:01.000Z</time></trkpt>
			<trkpt lat="44.447446" lon="33.893962"><time>1970-01-01T00:00:01.000Z</time></trkpt>
			<trkpt lat="44.447060" lon="33.894863"><time>1970-01-01T00:00:01.000Z</time></trkpt>
			<trkpt lat="44.446845" lon="33.895228"><time>1970-01-01T00:00:01.000Z</time></trkpt>
			<trkpt lat="44.446738" lon="33.895700"><time>1970-01-01T00:00:01.000Z</time></trkpt>
			<trkpt lat="44.446717" lon="33.897717"><time>1970-01-01T00:00:01.000Z</time></trkpt>
			<trkpt lat="44.446824" lon="33.898682"><time>1970-01-01T00:00:01.000Z</time></trkpt>
			<trkpt lat="44.446738" lon="33.899669"><time>1970-01-01T00:00:01.000Z</time></trkpt>
			<trkpt lat="44.446609" lon="33.900034"><time>1970-01-01T00:00:01.000Z</time></trkpt>
			<trkpt lat="44.446631" lon="33.900785"><time>1970-01-01T00:00:01.000Z</time></trkpt>
			<trkpt lat="44.446695" lon="33.901150"><time>1970-01-01T00:00:01.000Z</time></trkpt>
			<trkpt lat="44.446609" lon="33.901622"><time>1970-01-01T00:00:01.000Z</time></trkpt>
			<trkpt lat="44.446094" lon="33.902437"><time>1970-01-01T00:00:01.000Z</time></trkpt>
			<trkpt lat="44.446073" lon="33.902652"><time>1970-01-01T00:00:01.000Z</time></trkpt>
			<trkpt lat="44.446266" lon="33.902995"><time>1970-01-01T00:00:01.000Z</time></trkpt>
			<trkpt lat="44.446781" lon="33.903553"><time>1970-01-01T00:00:01.000Z</time></trkpt>
			<trkpt lat="44.446867" lon="33.904068"><time>1970-01-01T00:00:01.000Z</time></trkpt>
			<trkpt lat="44.447339" lon="33.904647"><time>1970-01-01T00:00:01.000Z</time></trkpt>
			<trkpt lat="44.447403" lon="33.904926"><time>1970-01-01T00:00:01.000Z</time></trkpt>
			<trkpt lat="44.447403" lon="33.905205"><time>1970-01-01T00:00:01.000Z</time></trkpt>
			<trkpt lat="44.447146" lon="33.905613"><time>1970-01-01T00:00:01.000Z</time></trkpt>
			<trkpt lat="44.446845" lon="33.905871"><time>1970-01-01T00:00:01.000Z</time></trkpt>
			<trkpt lat="44.446523" lon="33.905978"><time>1970-01-01T00:00:01.000Z</time></trkpt>
			<trkpt lat="44.446180" lon="33.905892"><time>1970-01-01T00:00:01.000Z</time></trkpt>
			<trkpt lat="44.445901" lon="33.905999"><time>1970-01-01T00:00:01.000Z</time></trkpt>
			<trkpt lat="44.445257" lon="33.907673"><time>1970-01-01T00:00:01.000Z</time></trkpt>
			<trkpt lat="44.444979" lon="33.908617"><time>1970-01-01T00:00:01.000Z</time></trkpt>
			<trkpt lat="44.444142" lon="33.907673"><time>1970-01-01T00:00:01.000Z</time></trkpt>
			<trkpt lat="44.443670" lon="33.906064"><time>1970-01-01T00:00:01.000Z</time></trkpt>
			<trkpt lat="44.443519" lon="33.905785"><time>1970-01-01T00:00:01.000Z</time></trkpt>
			<trkpt lat="44.443240" lon="33.905656"><time>1970-01-01T00:00:01.000Z</time></trkpt>
			<trkpt lat="44.442232" lon="33.905398"><time>1970-01-01T00:00:01.000Z</time></trkpt>
			<trkpt lat="44.442060" lon="33.905184"><time>1970-01-01T00:00:01.000Z</time></trkpt>
			<trkpt lat="44.441438" lon="33.904841"><time>1970-01-01T00:00:01.000Z</time></trkpt>
			<trkpt lat="44.441052" lon="33.905120"><time>1970-01-01T00:00:01.000Z</time></trkpt>
			<trkpt lat="44.440859" lon="33.905613"><time>1970-01-01T00:00:01.000Z</time></trkpt>
			<trkpt lat="44.439957" lon="33.906858"><time>1970-01-01T00:00:01.000Z</time></trkpt>
			<trkpt lat="44.438777" lon="33.908767"><time>1970-01-01T00:00:01.000Z</time></trkpt>
			<trkpt lat="44.438563" lon="33.908918"><time>1970-01-01T00:00:01.000Z</time></trkpt>
			<trkpt lat="44.437983" lon="33.908488"><time>1970-01-01T00:00:01.000Z</time></trkpt>
			<trkpt lat="44.437940" lon="33.908102"><time>1970-01-01T00:00:01.000Z</time></trkpt>
			<trkpt lat="44.437812" lon="33.907845"><time>1970-01-01T00:00:01.000Z</time></trkpt>
			<trkpt lat="44.437726" lon="33.907480"><time>1970-01-01T00:00:01.000Z</time></trkpt>
			<trkpt lat="44.437619" lon="33.907351"><time>1970-01-01T00:00:01.000Z</time></trkpt>
			<trkpt lat="44.437468" lon="33.907308"><time>1970-01-01T00:00:01.000Z</time></trkpt>
			<trkpt lat="44.437211" lon="33.907308"><time>1970-01-01T00:00:01.000Z</time></trkpt>
			<trkpt lat="44.436739" lon="33.907544"><time>1970-01-01T00:00:01.000Z</time></trkpt>
			<trkpt lat="44.436267" lon="33.907544"><time>1970-01-01T00:00:01.000Z</time></trkpt>
			<trkpt lat="44.435945" lon="33.907952"><time>1970-01-01T00:00:01.000Z</time></trkpt>
			<trkpt lat="44.435838" lon="33.908317"><time>1970-01-01T00:00:01.000Z</time></trkpt>
			<trkpt lat="44.435902" lon="33.908746"><time>1970-01-01T00:00:01.000Z</time></trkpt>
			<trkpt lat="44.435838" lon="33.909003"><time>1970-01-01T00:00:01.000Z</time></trkpt>
			<trkpt lat="44.435580" lon="33.909175"><time>1970-01-01T00:00:01.000Z</time></trkpt>
			<trkpt lat="44.435580" lon="33.909347"><time>1970-01-01T00:00:01.000Z</time></trkpt>
			<trkpt lat="44.435773" lon="33.909347"><time>1970-01-01T00:00:01.000Z</time></trkpt>
			<trkpt lat="44.436009" lon="33.909261"><time>1970-01-01T00:00:01.000Z</time></trkpt>
			<trkpt lat="44.436224" lon="33.909089"><time>1970-01-01T00:00:01.000Z</time></trkpt>
			<trkpt lat="44.436481" lon="33.909046"><time>1970-01-01T00:00:01.000Z</time></trkpt>
			<trkpt lat="44.436610" lon="33.909218"><time>1970-01-01T00:00:01.000Z</time></trkpt>
			<trkpt lat="44.436546" lon="33.909497"><time>1970-01-01T00:00:01.000Z</time></trkpt>
			<trkpt lat="44.436310" lon="33.909969"><time>1970-01-01T00:00:01.000Z</time></trkpt>
			<trkpt lat="44.436138" lon="33.909905"><time>1970-01-01T00:00:01.000Z</time></trkpt>
			<trkpt lat="44.435902" lon="33.909905"><time>1970-01-01T00:00:01.000Z</time></trkpt>
			<trkpt lat="44.435129" lon="33.910141"><time>1970-01-01T00:00:01.000Z</time></trkpt>
			<trkpt lat="44.434808" lon="33.910141"><time>1970-01-01T00:00:01.000Z</time></trkpt>
			<trkpt lat="44.434572" lon="33.910033"><time>1970-01-01T00:00:01.000Z</time></trkpt>
			<trkpt lat="44.434250" lon="33.909990"><time>1970-01-01T00:00:01.000Z</time></trkpt>
			<trkpt lat="44.433821" lon="33.910119"><time>1970-01-01T00:00:01.000Z</time></trkpt>
			<trkpt lat="44.433220" lon="33.909883"><time>1970-01-01T00:00:01.000Z</time></trkpt>
			<trkpt lat="44.433005" lon="33.909990"><time>1970-01-01T00:00:01.000Z</time></trkpt>
			<trkpt lat="44.432812" lon="33.910184"><time>1970-01-01T00:00:01.000Z</time></trkpt>
			<trkpt lat="44.432662" lon="33.910119"><time>1970-01-01T00:00:01.000Z</time></trkpt>
			<trkpt lat="44.432533" lon="33.909948"><time>1970-01-01T00:00:01.000Z</time></trkpt>
			<trkpt lat="44.432233" lon="33.909926"><time>1970-01-01T00:00:01.000Z</time></trkpt>
			<trkpt lat="44.432018" lon="33.910055"><time>1970-01-01T00:00:01.000Z</time></trkpt>
			<trkpt lat="44.431610" lon="33.910505"><time>1970-01-01T00:00:01.000Z</time></trkpt>
			<trkpt lat="44.431460" lon="33.910548"><time>1970-01-01T00:00:01.000Z</time></trkpt>
			<trkpt lat="44.431310" lon="33.910527"><time>1970-01-01T00:00:01.000Z</time></trkpt>
			<trkpt lat="44.431052" lon="33.910420"><time>1970-01-01T00:00:01.000Z</time></trkpt>
			<trkpt lat="44.430881" lon="33.910248"><time>1970-01-01T00:00:01.000Z</time></trkpt>
			<trkpt lat="44.430795" lon="33.910055"><time>1970-01-01T00:00:01.000Z</time></trkpt>
			<trkpt lat="44.430774" lon="33.910098"><time>1970-01-01T00:00:01.000Z</time></trkpt>
			<trkpt lat="44.430816" lon="33.910613"><time>1970-01-01T00:00:01.000Z</time></trkpt>
			<trkpt lat="44.430774" lon="33.911557"><time>1970-01-01T00:00:01.000Z</time></trkpt>
			<trkpt lat="44.430688" lon="33.911600"><time>1970-01-01T00:00:01.000Z</time></trkpt>
			<trkpt lat="44.430323" lon="33.911342"><time>1970-01-01T00:00:01.000Z</time></trkpt>
			<trkpt lat="44.430194" lon="33.911299"><time>1970-01-01T00:00:01.000Z</time></trkpt>
			<trkpt lat="44.430001" lon="33.911385"><time>1970-01-01T00:00:01.000Z</time></trkpt>
			<trkpt lat="44.429078" lon="33.912093"><time>1970-01-01T00:00:01.000Z</time></trkpt>
			<trkpt lat="44.428263" lon="33.911664"><time>1970-01-01T00:00:01.000Z</time></trkpt>
			<trkpt lat="44.427705" lon="33.911600"><time>1970-01-01T00:00:01.000Z</time></trkpt>
			<trkpt lat="44.427018" lon="33.910913"><time>1970-01-01T00:00:01.000Z</time></trkpt>
			<trkpt lat="44.426847" lon="33.911042"><time>1970-01-01T00:00:01.000Z</time></trkpt>
			<trkpt lat="44.425216" lon="33.910355"><time>1970-01-01T00:00:01.000Z</time></trkpt>
			<trkpt lat="44.425152" lon="33.910377"><time>1970-01-01T00:00:01.000Z</time></trkpt>
			<trkpt lat="44.424873" lon="33.910291"><time>1970-01-01T00:00:01.000Z</time></trkpt>
			<trkpt lat="44.424250" lon="33.909883"><time>1970-01-01T00:00:01.000Z</time></trkpt>
			<trkpt lat="44.424529" lon="33.909218"><time>1970-01-01T00:00:01.000Z</time></trkpt>
			<trkpt lat="44.424465" lon="33.908510"><time>1970-01-01T00:00:01.000Z</time></trkpt>
			<trkpt lat="44.424143" lon="33.907630"><time>1970-01-01T00:00:01.000Z</time></trkpt>
			<trkpt lat="44.423864" lon="33.906986"><time>1970-01-01T00:00:01.000Z</time></trkpt>
			<trkpt lat="44.423864" lon="33.906579"><time>1970-01-01T00:00:01.000Z</time></trkpt>
			<trkpt lat="44.424057" lon="33.906171"><time>1970-01-01T00:00:01.000Z</time></trkpt>
			<trkpt lat="44.424036" lon="33.905892"><time>1970-01-01T00:00:01.000Z</time></trkpt>
			<trkpt lat="44.423800" lon="33.905313"><time>1970-01-01T00:00:01.000Z</time></trkpt>
			<trkpt lat="44.423800" lon="33.904626"><time>1970-01-01T00:00:01.000Z</time></trkpt>
			<trkpt lat="44.423950" lon="33.904025"><time>1970-01-01T00:00:01.000Z</time></trkpt>
			<trkpt lat="44.424122" lon="33.903682"><time>1970-01-01T00:00:01.000Z</time></trkpt>
			<trkpt lat="44.424486" lon="33.903339"><time>1970-01-01T00:00:01.000Z</time></trkpt>
			<trkpt lat="44.424637" lon="33.902931"><time>1970-01-01T00:00:01.000Z</time></trkpt>
			<trkpt lat="44.424572" lon="33.902695"><time>1970-01-01T00:00:01.000Z</time></trkpt>
			<trkpt lat="44.424744" lon="33.902201"><time>1970-01-01T00:00:01.000Z</time></trkpt>
			<trkpt lat="44.424980" lon="33.901751"><time>1970-01-01T00:00:01.000Z</time></trkpt>
			<trkpt lat="44.424980" lon="33.901558"><time>1970-01-01T00:00:01.000Z</time></trkpt>
			<trkpt lat="44.424937" lon="33.901407"><time>1970-01-01T00:00:01.000Z</time></trkpt>
			<trkpt lat="44.425023" lon="33.900485"><time>1970-01-01T00:00:01.000Z</time></trkpt>
			<trkpt lat="44.424787" lon="33.899197"><time>1970-01-01T00:00:01.000Z</time></trkpt>
			<trkpt lat="44.424873" lon="33.898768"><time>1970-01-01T00:00:01.000Z</time></trkpt>
			<trkpt lat="44.425066" lon="33.898232"><time>1970-01-01T00:00:01.000Z</time></trkpt>
			<trkpt lat="44.425109" lon="33.897888"><time>1970-01-01T00:00:01.000Z</time></trkpt>
			<trkpt lat="44.425066" lon="33.897373"><time>1970-01-01T00:00:01.000Z</time></trkpt>
			<trkpt lat="44.425109" lon="33.896558"><time>1970-01-01T00:00:01.000Z</time></trkpt>
			<trkpt lat="44.425302" lon="33.895957"><time>1970-01-01T00:00:01.000Z</time></trkpt>
			<trkpt lat="44.425345" lon="33.895721"><time>1970-01-01T00:00:01.000Z</time></trkpt>
			<trkpt lat="44.425345" lon="33.894863"><time>1970-01-01T00:00:01.000Z</time></trkpt>
			<trkpt lat="44.425237" lon="33.894262"><time>1970-01-01T00:00:01.000Z</time></trkpt>
			<trkpt lat="44.425237" lon="33.893897"><time>1970-01-01T00:00:01.000Z</time></trkpt>
			<trkpt lat="44.425109" lon="33.893211"><time>1970-01-01T00:00:01.000Z</time></trkpt>
			<trkpt lat="44.425087" lon="33.892738"><time>1970-01-01T00:00:01.000Z</time></trkpt>
			<trkpt lat="44.425087" lon="33.892331"><time>1970-01-01T00:00:01.000Z</time></trkpt>
			<trkpt lat="44.425302" lon="33.890400"><time>1970-01-01T00:00:01.000Z</time></trkpt>
			<trkpt lat="44.425645" lon="33.889670"><time>1970-01-01T00:00:01.000Z</time></trkpt>
			<trkpt lat="44.425881" lon="33.889284"><time>1970-01-01T00:00:01.000Z</time></trkpt>
			<trkpt lat="44.426182" lon="33.888962"><time>1970-01-01T00:00:01.000Z</time></trkpt>
			<trkpt lat="44.426461" lon="33.888747"><time>1970-01-01T00:00:01.000Z</time></trkpt>
			<trkpt lat="44.426654" lon="33.888490"><time>1970-01-01T00:00:01.000Z</time></trkpt>
			<trkpt lat="44.426782" lon="33.888061"><time>1970-01-01T00:00:01.000Z</time></trkpt>
			<trkpt lat="44.426718" lon="33.886151"><time>1970-01-01T00:00:01.000Z</time></trkpt>
			<trkpt lat="44.426568" lon="33.885572"><time>1970-01-01T00:00:01.000Z</time></trkpt>
			<trkpt lat="44.426589" lon="33.885228"><time>1970-01-01T00:00:01.000Z</time></trkpt>
			<trkpt lat="44.426525" lon="33.884821"><time>1970-01-01T00:00:01.000Z</time></trkpt>
			<trkpt lat="44.426289" lon="33.883791"><time>1970-01-01T00:00:01.000Z</time></trkpt>
			<trkpt lat="44.425710" lon="33.882203"><time>1970-01-01T00:00:01.000Z</time></trkpt>
			<trkpt lat="44.425860" lon="33.881645"><time>1970-01-01T00:00:01.000Z</time></trkpt>
			<trkpt lat="44.425881" lon="33.881280"><time>1970-01-01T00:00:01.000Z</time></trkpt>
			<trkpt lat="44.425774" lon="33.880229"><time>1970-01-01T00:00:01.000Z</time></trkpt>
			<trkpt lat="44.425559" lon="33.879778"><time>1970-01-01T00:00:01.000Z</time></trkpt>
			<trkpt lat="44.425495" lon="33.879392"><time>1970-01-01T00:00:01.000Z</time></trkpt>
			<trkpt lat="44.425323" lon="33.879048"><time>1970-01-01T00:00:01.000Z</time></trkpt>
			<trkpt lat="44.425152" lon="33.878319"><time>1970-01-01T00:00:01.000Z</time></trkpt>
			<trkpt lat="44.425044" lon="33.878233"><time>1970-01-01T00:00:01.000Z</time></trkpt>
			<trkpt lat="44.424744" lon="33.878276"><time>1970-01-01T00:00:01.000Z</time></trkpt>
			<trkpt lat="44.424594" lon="33.878126"><time>1970-01-01T00:00:01.000Z</time></trkpt>
			<trkpt lat="44.424551" lon="33.878018"><time>1970-01-01T00:00:01.000Z</time></trkpt>
			<trkpt lat="44.424014" lon="33.876173"><time>1970-01-01T00:00:01.000Z</time></trkpt>
			<trkpt lat="44.423735" lon="33.875444"><time>1970-01-01T00:00:01.000Z</time></trkpt>
			<trkpt lat="44.423585" lon="33.874800"><time>1970-01-01T00:00:01.000Z</time></trkpt>
			<trkpt lat="44.423628" lon="33.874435"><time>1970-01-01T00:00:01.000Z</time></trkpt>
			<trkpt lat="44.423349" lon="33.873233"><time>1970-01-01T00:00:01.000Z</time></trkpt>
			<trkpt lat="44.423156" lon="33.873019"><time>1970-01-01T00:00:01.000Z</time></trkpt>
			<trkpt lat="44.423135" lon="33.872568"><time>1970-01-01T00:00:01.000Z</time></trkpt>
			<trkpt lat="44.423199" lon="33.872311"><time>1970-01-01T00:00:01.000Z</time></trkpt>
			<trkpt lat="44.423392" lon="33.871882"><time>1970-01-01T00:00:01.000Z</time></trkpt>
			<trkpt lat="44.423456" lon="33.870980"><time>1970-01-01T00:00:01.000Z</time></trkpt>
			<trkpt lat="44.424937" lon="33.867697"><time>1970-01-01T00:00:01.000Z</time></trkpt>
			<trkpt lat="44.425152" lon="33.867268"><time>1970-01-01T00:00:01.000Z</time></trkpt>
			<trkpt lat="44.425280" lon="33.867139"><time>1970-01-01T00:00:01.000Z</time></trkpt>
			<trkpt lat="44.425259" lon="33.866753"><time>1970-01-01T00:00:01.000Z</time></trkpt>
			<trkpt lat="44.424830" lon="33.865380"><time>1970-01-01T00:00:01.000Z</time></trkpt>
			<trkpt lat="44.424808" lon="33.864886"><time>1970-01-01T00:00:01.000Z</time></trkpt>
			<trkpt lat="44.424444" lon="33.864350"><time>1970-01-01T00:00:01.000Z</time></trkpt>
			<trkpt lat="44.424207" lon="33.863449"><time>1970-01-01T00:00:01.000Z</time></trkpt>
			<trkpt lat="44.423650" lon="33.862869"><time>1970-01-01T00:00:01.000Z</time></trkpt>
			<trkpt lat="44.423392" lon="33.861947"><time>1970-01-01T00:00:01.000Z</time></trkpt>
			<trkpt lat="44.423671" lon="33.861110"><time>1970-01-01T00:00:01.000Z</time></trkpt>
			<trkpt lat="44.423456" lon="33.860230"><time>1970-01-01T00:00:01.000Z</time></trkpt>
			<trkpt lat="44.423478" lon="33.859565"><time>1970-01-01T00:00:01.000Z</time></trkpt>
			<trkpt lat="44.423628" lon="33.858986"><time>1970-01-01T00:00:01.000Z</time></trkpt>
			<trkpt lat="44.423585" lon="33.858342"><time>1970-01-01T00:00:01.000Z</time></trkpt>
			<trkpt lat="44.423542" lon="33.858106"><time>1970-01-01T00:00:01.000Z</time></trkpt>
			<trkpt lat="44.423070" lon="33.857913"><time>1970-01-01T00:00:01.000Z</time></trkpt>
			<trkpt lat="44.423285" lon="33.857483"><time>1970-01-01T00:00:01.000Z</time></trkpt>
			<trkpt lat="44.423478" lon="33.857483"><time>1970-01-01T00:00:01.000Z</time></trkpt>
			<trkpt lat="44.423886" lon="33.857376"><time>1970-01-01T00:00:01.000Z</time></trkpt>
			<trkpt lat="44.424100" lon="33.857269"><time>1970-01-01T00:00:01.000Z</time></trkpt>
			<trkpt lat="44.424229" lon="33.857076"><time>1970-01-01T00:00:01.000Z</time></trkpt>
			<trkpt lat="44.424937" lon="33.856668"><time>1970-01-01T00:00:01.000Z</time></trkpt>
			<trkpt lat="44.425152" lon="33.856110"><time>1970-01-01T00:00:01.000Z</time></trkpt>
			<trkpt lat="44.425431" lon="33.855123"><time>1970-01-01T00:00:01.000Z</time></trkpt>
			<trkpt lat="44.425516" lon="33.854458"><time>1970-01-01T00:00:01.000Z</time></trkpt>
			<trkpt lat="44.425473" lon="33.854265"><time>1970-01-01T00:00:01.000Z</time></trkpt>
			<trkpt lat="44.424572" lon="33.853793"><time>1970-01-01T00:00:01.000Z</time></trkpt>
			<trkpt lat="44.424486" lon="33.853514"><time>1970-01-01T00:00:01.000Z</time></trkpt>
			<trkpt lat="44.424465" lon="33.853063"><time>1970-01-01T00:00:01.000Z</time></trkpt>
			<trkpt lat="44.424830" lon="33.852570"><time>1970-01-01T00:00:01.000Z</time></trkpt>
			<trkpt lat="44.424744" lon="33.852183"><time>1970-01-01T00:00:01.000Z</time></trkpt>
			<trkpt lat="44.424529" lon="33.851733"><time>1970-01-01T00:00:01.000Z</time></trkpt>
			<trkpt lat="44.424529" lon="33.851432"><time>1970-01-01T00:00:01.000Z</time></trkpt>
			<trkpt lat="44.424572" lon="33.851325"><time>1970-01-01T00:00:01.000Z</time></trkpt>
			<trkpt lat="44.424401" lon="33.851111"><time>1970-01-01T00:00:01.000Z</time></trkpt>
			<trkpt lat="44.424486" lon="33.850574"><time>1970-01-01T00:00:01.000Z</time></trkpt>
			<trkpt lat="44.424465" lon="33.849630"><time>1970-01-01T00:00:01.000Z</time></trkpt>
			<trkpt lat="44.424250" lon="33.849287"><time>1970-01-01T00:00:01.000Z</time></trkpt>
			<trkpt lat="44.423714" lon="33.848664"><time>1970-01-01T00:00:01.000Z</time></trkpt>
			<trkpt lat="44.423392" lon="33.848557"><time>1970-01-01T00:00:01.000Z</time></trkpt>
			<trkpt lat="44.423070" lon="33.848514"><time>1970-01-01T00:00:01.000Z</time></trkpt>
			<trkpt lat="44.422233" lon="33.847377"><time>1970-01-01T00:00:01.000Z</time></trkpt>
			<trkpt lat="44.421718" lon="33.847184"><time>1970-01-01T00:00:01.000Z</time></trkpt>
			<trkpt lat="44.420495" lon="33.845703"><time>1970-01-01T00:00:01.000Z</time></trkpt>
			<trkpt lat="44.420002" lon="33.845317"><time>1970-01-01T00:00:01.000Z</time></trkpt>
			<trkpt lat="44.419873" lon="33.844974"><time>1970-01-01T00:00:01.000Z</time></trkpt>
			<trkpt lat="44.419852" lon="33.844437"><time>1970-01-01T00:00:01.000Z</time></trkpt>
			<trkpt lat="44.420109" lon="33.842592"><time>1970-01-01T00:00:01.000Z</time></trkpt>
			<trkpt lat="44.420216" lon="33.842034"><time>1970-01-01T00:00:01.000Z</time></trkpt>
			<trkpt lat="44.420195" lon="33.840940"><time>1970-01-01T00:00:01.000Z</time></trkpt>
			<trkpt lat="44.420152" lon="33.840575"><time>1970-01-01T00:00:01.000Z</time></trkpt>
			<trkpt lat="44.420023" lon="33.840274"><time>1970-01-01T00:00:01.000Z</time></trkpt>
			<trkpt lat="44.419787" lon="33.840017"><time>1970-01-01T00:00:01.000Z</time></trkpt>
			<trkpt lat="44.418843" lon="33.839266"><time>1970-01-01T00:00:01.000Z</time></trkpt>
			<trkpt lat="44.418671" lon="33.839202"><time>1970-01-01T00:00:01.000Z</time></trkpt>
			<trkpt lat="44.418285" lon="33.838944"><time>1970-01-01T00:00:01.000Z</time></trkpt>
			<trkpt lat="44.418199" lon="33.838794"><time>1970-01-01T00:00:01.000Z</time></trkpt>
			<trkpt lat="44.418135" lon="33.838472"><time>1970-01-01T00:00:01.000Z</time></trkpt>
			<trkpt lat="44.417899" lon="33.836906"><time>1970-01-01T00:00:01.000Z</time></trkpt>
			<trkpt lat="44.417577" lon="33.835983"><time>1970-01-01T00:00:01.000Z</time></trkpt>
			<trkpt lat="44.417298" lon="33.835575"><time>1970-01-01T00:00:01.000Z</time></trkpt>
			<trkpt lat="44.417084" lon="33.835361"><time>1970-01-01T00:00:01.000Z</time></trkpt>
			<trkpt lat="44.416719" lon="33.834738"><time>1970-01-01T00:00:01.000Z</time></trkpt>
			<trkpt lat="44.416397" lon="33.834459"><time>1970-01-01T00:00:01.000Z</time></trkpt>
			<trkpt lat="44.416161" lon="33.834180"><time>1970-01-01T00:00:01.000Z</time></trkpt>
			<trkpt lat="44.415667" lon="33.833279"><time>1970-01-01T00:00:01.000Z</time></trkpt>
			<trkpt lat="44.415410" lon="33.833022"><time>1970-01-01T00:00:01.000Z</time></trkpt>
			<trkpt lat="44.415174" lon="33.832700"><time>1970-01-01T00:00:01.000Z</time></trkpt>
			<trkpt lat="44.414788" lon="33.831970"><time>1970-01-01T00:00:01.000Z</time></trkpt>
			<trkpt lat="44.414122" lon="33.829739"><time>1970-01-01T00:00:01.000Z</time></trkpt>
			<trkpt lat="44.414122" lon="33.829417"><time>1970-01-01T00:00:01.000Z</time></trkpt>
			<trkpt lat="44.413951" lon="33.829074"><time>1970-01-01T00:00:01.000Z</time></trkpt>
			<trkpt lat="44.413886" lon="33.828966"><time>1970-01-01T00:00:01.000Z</time></trkpt>
			<trkpt lat="44.413779" lon="33.828945"><time>1970-01-01T00:00:01.000Z</time></trkpt>
			<trkpt lat="44.413457" lon="33.829074"><time>1970-01-01T00:00:01.000Z</time></trkpt>
			<trkpt lat="44.412985" lon="33.828494"><time>1970-01-01T00:00:01.000Z</time></trkpt>
			<trkpt lat="44.412749" lon="33.828280"><time>1970-01-01T00:00:01.000Z</time></trkpt>
			<trkpt lat="44.412148" lon="33.827271"><time>1970-01-01T00:00:01.000Z</time></trkpt>
			<trkpt lat="44.411633" lon="33.826627"><time>1970-01-01T00:00:01.000Z</time></trkpt>
			<trkpt lat="44.411655" lon="33.825512"><time>1970-01-01T00:00:01.000Z</time></trkpt>
			<trkpt lat="44.411762" lon="33.825125"><time>1970-01-01T00:00:01.000Z</time></trkpt>
			<trkpt lat="44.411848" lon="33.824203"><time>1970-01-01T00:00:01.000Z</time></trkpt>
			<trkpt lat="44.411612" lon="33.823323"><time>1970-01-01T00:00:01.000Z</time></trkpt>
			<trkpt lat="44.411483" lon="33.822250"><time>1970-01-01T00:00:01.000Z</time></trkpt>
			<trkpt lat="44.411569" lon="33.821478"><time>1970-01-01T00:00:01.000Z</time></trkpt>
			<trkpt lat="44.411547" lon="33.821220"><time>1970-01-01T00:00:01.000Z</time></trkpt>
			<trkpt lat="44.411333" lon="33.820598"><time>1970-01-01T00:00:01.000Z</time></trkpt>
			<trkpt lat="44.411140" lon="33.819718"><time>1970-01-01T00:00:01.000Z</time></trkpt>
			<trkpt lat="44.411032" lon="33.818946"><time>1970-01-01T00:00:01.000Z</time></trkpt>
			<trkpt lat="44.410990" lon="33.817658"><time>1970-01-01T00:00:01.000Z</time></trkpt>
			<trkpt lat="44.411032" lon="33.816950"><time>1970-01-01T00:00:01.000Z</time></trkpt>
			<trkpt lat="44.410990" lon="33.815877"><time>1970-01-01T00:00:01.000Z</time></trkpt>
			<trkpt lat="44.411011" lon="33.815491"><time>1970-01-01T00:00:01.000Z</time></trkpt>
			<trkpt lat="44.410925" lon="33.815319"><time>1970-01-01T00:00:01.000Z</time></trkpt>
			<trkpt lat="44.410882" lon="33.815019"><time>1970-01-01T00:00:01.000Z</time></trkpt>
			<trkpt lat="44.410732" lon="33.814890"><time>1970-01-01T00:00:01.000Z</time></trkpt>
			<trkpt lat="44.410432" lon="33.814911"><time>1970-01-01T00:00:01.000Z</time></trkpt>
			<trkpt lat="44.410088" lon="33.814525"><time>1970-01-01T00:00:01.000Z</time></trkpt>
			<trkpt lat="44.410045" lon="33.814311"><time>1970-01-01T00:00:01.000Z</time></trkpt>
			<trkpt lat="44.409724" lon="33.814053"><time>1970-01-01T00:00:01.000Z</time></trkpt>
			<trkpt lat="44.409209" lon="33.813259"><time>1970-01-01T00:00:01.000Z</time></trkpt>
			<trkpt lat="44.408973" lon="33.812980"><time>1970-01-01T00:00:01.000Z</time></trkpt>
			<trkpt lat="44.408758" lon="33.812444"><time>1970-01-01T00:00:01.000Z</time></trkpt>
			<trkpt lat="44.408629" lon="33.812229"><time>1970-01-01T00:00:01.000Z</time></trkpt>
			<trkpt lat="44.408479" lon="33.811800"><time>1970-01-01T00:00:01.000Z</time></trkpt>
			<trkpt lat="44.408222" lon="33.811586"><time>1970-01-01T00:00:01.000Z</time></trkpt>
			<trkpt lat="44.407943" lon="33.811028"><time>1970-01-01T00:00:01.000Z</time></trkpt>
			<trkpt lat="44.407943" lon="33.810770"><time>1970-01-01T00:00:01.000Z</time></trkpt>
			<trkpt lat="44.407814" lon="33.810362"><time>1970-01-01T00:00:01.000Z</time></trkpt>
			<trkpt lat="44.407728" lon="33.809697"><time>1970-01-01T00:00:01.000Z</time></trkpt>
			<trkpt lat="44.407170" lon="33.808045"><time>1970-01-01T00:00:01.000Z</time></trkpt>
			<trkpt lat="44.406848" lon="33.806457"><time>1970-01-01T00:00:01.000Z</time></trkpt>
			<trkpt lat="44.406784" lon="33.806328"><time>1970-01-01T00:00:01.000Z</time></trkpt>
			<trkpt lat="44.406483" lon="33.806350"><time>1970-01-01T00:00:01.000Z</time></trkpt>
			<trkpt lat="44.406591" lon="33.806221"><time>1970-01-01T00:00:01.000Z</time></trkpt>
			<trkpt lat="44.406677" lon="33.805813"><time>1970-01-01T00:00:01.000Z</time></trkpt>
			<trkpt lat="44.406591" lon="33.805470"><time>1970-01-01T00:00:01.000Z</time></trkpt>
			<trkpt lat="44.406569" lon="33.804998"><time>1970-01-01T00:00:01.000Z</time></trkpt>
			<trkpt lat="44.407084" lon="33.804161"><time>1970-01-01T00:00:01.000Z</time></trkpt>
			<trkpt lat="44.407642" lon="33.802724"><time>1970-01-01T00:00:01.000Z</time></trkpt>
			<trkpt lat="44.407921" lon="33.801779"><time>1970-01-01T00:00:01.000Z</time></trkpt>
			<trkpt lat="44.408093" lon="33.801393"><time>1970-01-01T00:00:01.000Z</time></trkpt>
			<trkpt lat="44.407943" lon="33.801050"><time>1970-01-01T00:00:01.000Z</time></trkpt>
			<trkpt lat="44.407857" lon="33.800535"><time>1970-01-01T00:00:01.000Z</time></trkpt>
			<trkpt lat="44.407900" lon="33.799891"><time>1970-01-01T00:00:01.000Z</time></trkpt>
			<trkpt lat="44.408200" lon="33.798926"><time>1970-01-01T00:00:01.000Z</time></trkpt>
			<trkpt lat="44.408222" lon="33.798539"><time>1970-01-01T00:00:01.000Z</time></trkpt>
			<trkpt lat="44.408393" lon="33.797273"><time>1970-01-01T00:00:01.000Z</time></trkpt>
			<trkpt lat="44.408586" lon="33.796801"><time>1970-01-01T00:00:01.000Z</time></trkpt>
			<trkpt lat="44.408694" lon="33.796415"><time>1970-01-01T00:00:01.000Z</time></trkpt>
			<trkpt lat="44.408651" lon="33.796029"><time>1970-01-01T00:00:01.000Z</time></trkpt>
			<trkpt lat="44.408951" lon="33.794591"><time>1970-01-01T00:00:01.000Z</time></trkpt>
			<trkpt lat="44.409466" lon="33.793583"><time>1970-01-01T00:00:01.000Z</time></trkpt>
			<trkpt lat="44.409552" lon="33.793110"><time>1970-01-01T00:00:01.000Z</time></trkpt>
			<trkpt lat="44.409616" lon="33.792553"><time>1970-01-01T00:00:01.000Z</time></trkpt>
			<trkpt lat="44.409616" lon="33.791930"><time>1970-01-01T00:00:01.000Z</time></trkpt>
			<trkpt lat="44.409530" lon="33.791287"><time>1970-01-01T00:00:01.000Z</time></trkpt>
			<trkpt lat="44.409530" lon="33.790578"><time>1970-01-01T00:00:01.000Z</time></trkpt>
			<trkpt lat="44.409595" lon="33.790085"><time>1970-01-01T00:00:01.000Z</time></trkpt>
			<trkpt lat="44.409702" lon="33.789634"><time>1970-01-01T00:00:01.000Z</time></trkpt>
			<trkpt lat="44.409724" lon="33.789334"><time>1970-01-01T00:00:01.000Z</time></trkpt>
			<trkpt lat="44.409681" lon="33.789034"><time>1970-01-01T00:00:01.000Z</time></trkpt>
			<trkpt lat="44.409445" lon="33.788776"><time>1970-01-01T00:00:01.000Z</time></trkpt>
			<trkpt lat="44.409294" lon="33.788519"><time>1970-01-01T00:00:01.000Z</time></trkpt>
			<trkpt lat="44.408822" lon="33.788604"><time>1970-01-01T00:00:01.000Z</time></trkpt>
			<trkpt lat="44.408157" lon="33.788046"><time>1970-01-01T00:00:01.000Z</time></trkpt>
			<trkpt lat="44.407749" lon="33.787510"><time>1970-01-01T00:00:01.000Z</time></trkpt>
			<trkpt lat="44.407492" lon="33.786802"><time>1970-01-01T00:00:01.000Z</time></trkpt>
			<trkpt lat="44.407428" lon="33.785750"><time>1970-01-01T00:00:01.000Z</time></trkpt>
			<trkpt lat="44.407256" lon="33.785128"><time>1970-01-01T00:00:01.000Z</time></trkpt>
			<trkpt lat="44.407192" lon="33.784077"><time>1970-01-01T00:00:01.000Z</time></trkpt>
			<trkpt lat="44.407299" lon="33.783583"><time>1970-01-01T00:00:01.000Z</time></trkpt>
			<trkpt lat="44.406848" lon="33.782875"><time>1970-01-01T00:00:01.000Z</time></trkpt>
			<trkpt lat="44.406870" lon="33.782661"><time>1970-01-01T00:00:01.000Z</time></trkpt>
			<trkpt lat="44.406998" lon="33.782446"><time>1970-01-01T00:00:01.000Z</time></trkpt>
			<trkpt lat="44.406998" lon="33.781631"><time>1970-01-01T00:00:01.000Z</time></trkpt>
			<trkpt lat="44.406870" lon="33.781523"><time>1970-01-01T00:00:01.000Z</time></trkpt>
			<trkpt lat="44.406677" lon="33.781459"><time>1970-01-01T00:00:01.000Z</time></trkpt>
			<trkpt lat="44.406462" lon="33.781502"><time>1970-01-01T00:00:01.000Z</time></trkpt>
			<trkpt lat="44.406376" lon="33.781416"><time>1970-01-01T00:00:01.000Z</time></trkpt>
			<trkpt lat="44.406097" lon="33.780923"><time>1970-01-01T00:00:01.000Z</time></trkpt>
			<trkpt lat="44.405861" lon="33.780794"><time>1970-01-01T00:00:01.000Z</time></trkpt>
			<trkpt lat="44.405818" lon="33.781051"><time>1970-01-01T00:00:01.000Z</time></trkpt>
			<trkpt lat="44.405518" lon="33.781116"><time>1970-01-01T00:00:01.000Z</time></trkpt>
			<trkpt lat="44.405217" lon="33.780601"><time>1970-01-01T00:00:01.000Z</time></trkpt>
			<trkpt lat="44.404853" lon="33.780472"><time>1970-01-01T00:00:01.000Z</time></trkpt>
			<trkpt lat="44.404788" lon="33.780300"><time>1970-01-01T00:00:01.000Z</time></trkpt>
			<trkpt lat="44.404810" lon="33.779614"><time>1970-01-01T00:00:01.000Z</time></trkpt>
			<trkpt lat="44.404745" lon="33.779056"><time>1970-01-01T00:00:01.000Z</time></trkpt>
			<trkpt lat="44.404874" lon="33.778047"><time>1970-01-01T00:00:01.000Z</time></trkpt>
			<trkpt lat="44.405067" lon="33.777618"><time>1970-01-01T00:00:01.000Z</time></trkpt>
			<trkpt lat="44.405153" lon="33.777210"><time>1970-01-01T00:00:01.000Z</time></trkpt>
			<trkpt lat="44.405175" lon="33.776610"><time>1970-01-01T00:00:01.000Z</time></trkpt>
			<trkpt lat="44.405582" lon="33.774485"><time>1970-01-01T00:00:01.000Z</time></trkpt>
			<trkpt lat="44.405539" lon="33.774056"><time>1970-01-01T00:00:01.000Z</time></trkpt>
			<trkpt lat="44.405561" lon="33.773820"><time>1970-01-01T00:00:01.000Z</time></trkpt>
			<trkpt lat="44.405411" lon="33.773348"><time>1970-01-01T00:00:01.000Z</time></trkpt>
			<trkpt lat="44.405539" lon="33.771953"><time>1970-01-01T00:00:01.000Z</time></trkpt>
			<trkpt lat="44.406140" lon="33.769829"><time>1970-01-01T00:00:01.000Z</time></trkpt>
			<trkpt lat="44.405582" lon="33.768520"><time>1970-01-01T00:00:01.000Z</time></trkpt>
			<trkpt lat="44.405604" lon="33.767275"><time>1970-01-01T00:00:01.000Z</time></trkpt>
			<trkpt lat="44.405475" lon="33.767125"><time>1970-01-01T00:00:01.000Z</time></trkpt>
			<trkpt lat="44.405539" lon="33.766331"><time>1970-01-01T00:00:01.000Z</time></trkpt>
			<trkpt lat="44.405260" lon="33.765194"><time>1970-01-01T00:00:01.000Z</time></trkpt>
			<trkpt lat="44.404831" lon="33.764314"><time>1970-01-01T00:00:01.000Z</time></trkpt>
			<trkpt lat="44.404810" lon="33.764078"><time>1970-01-01T00:00:01.000Z</time></trkpt>
			<trkpt lat="44.405024" lon="33.763649"><time>1970-01-01T00:00:01.000Z</time></trkpt>
			<trkpt lat="44.405132" lon="33.763306"><time>1970-01-01T00:00:01.000Z</time></trkpt>
			<trkpt lat="44.405067" lon="33.763156"><time>1970-01-01T00:00:01.000Z</time></trkpt>
			<trkpt lat="44.405024" lon="33.762791"><time>1970-01-01T00:00:01.000Z</time></trkpt>
			<trkpt lat="44.405132" lon="33.762598"><time>1970-01-01T00:00:01.000Z</time></trkpt>
			<trkpt lat="44.405368" lon="33.762340"><time>1970-01-01T00:00:01.000Z</time></trkpt>
			<trkpt lat="44.405325" lon="33.761460"><time>1970-01-01T00:00:01.000Z</time></trkpt>
			<trkpt lat="44.405153" lon="33.761267"><time>1970-01-01T00:00:01.000Z</time></trkpt>
			<trkpt lat="44.405582" lon="33.760645"><time>1970-01-01T00:00:01.000Z</time></trkpt>
			<trkpt lat="44.406140" lon="33.759637"><time>1970-01-01T00:00:01.000Z</time></trkpt>
			<trkpt lat="44.406376" lon="33.759100"><time>1970-01-01T00:00:01.000Z</time></trkpt>
			<trkpt lat="44.406183" lon="33.758263"><time>1970-01-01T00:00:01.000Z</time></trkpt>
			<trkpt lat="44.406290" lon="33.757984"><time>1970-01-01T00:00:01.000Z</time></trkpt>
			<trkpt lat="44.406612" lon="33.757362"><time>1970-01-01T00:00:01.000Z</time></trkpt>
			<trkpt lat="44.407406" lon="33.756740"><time>1970-01-01T00:00:01.000Z</time></trkpt>
			<trkpt lat="44.407535" lon="33.756568"><time>1970-01-01T00:00:01.000Z</time></trkpt>
			<trkpt lat="44.407728" lon="33.755881"><time>1970-01-01T00:00:01.000Z</time></trkpt>
			<trkpt lat="44.408071" lon="33.755302"><time>1970-01-01T00:00:01.000Z</time></trkpt>
			<trkpt lat="44.408865" lon="33.754530"><time>1970-01-01T00:00:01.000Z</time></trkpt>
			<trkpt lat="44.408694" lon="33.754830"><time>1970-01-01T00:00:01.000Z</time></trkpt>
			<trkpt lat="44.408865" lon="33.754530"><time>1970-01-01T00:00:01.000Z</time></trkpt>
			<trkpt lat="44.408951" lon="33.754229"><time>1970-01-01T00:00:01.000Z</time></trkpt>
			<trkpt lat="44.409402" lon="33.753585"><time>1970-01-01T00:00:01.000Z</time></trkpt>
			<trkpt lat="44.409638" lon="33.753092"><time>1970-01-01T00:00:01.000Z</time></trkpt>
			<trkpt lat="44.409616" lon="33.752920"><time>1970-01-01T00:00:01.000Z</time></trkpt>
			<trkpt lat="44.409874" lon="33.752684"><time>1970-01-01T00:00:01.000Z</time></trkpt>
			<trkpt lat="44.410217" lon="33.752513"><time>1970-01-01T00:00:01.000Z</time></trkpt>
			<trkpt lat="44.410303" lon="33.752384"><time>1970-01-01T00:00:01.000Z</time></trkpt>
			<trkpt lat="44.410389" lon="33.752126"><time>1970-01-01T00:00:01.000Z</time></trkpt>
			<trkpt lat="44.410560" lon="33.751783"><time>1970-01-01T00:00:01.000Z</time></trkpt>
			<trkpt lat="44.410582" lon="33.751161"><time>1970-01-01T00:00:01.000Z</time></trkpt>
			<trkpt lat="44.410818" lon="33.750732"><time>1970-01-01T00:00:01.000Z</time></trkpt>
			<trkpt lat="44.410968" lon="33.750946"><time>1970-01-01T00:00:01.000Z</time></trkpt>
			<trkpt lat="44.411569" lon="33.750302"><time>1970-01-01T00:00:01.000Z</time></trkpt>
			<trkpt lat="44.411741" lon="33.750281"><time>1970-01-01T00:00:01.000Z</time></trkpt>
			<trkpt lat="44.412084" lon="33.750109"><time>1970-01-01T00:00:01.000Z</time></trkpt>
			<trkpt lat="44.412213" lon="33.749380"><time>1970-01-01T00:00:01.000Z</time></trkpt>
			<trkpt lat="44.412492" lon="33.749101"><time>1970-01-01T00:00:01.000Z</time></trkpt>
			<trkpt lat="44.412556" lon="33.748994"><time>1970-01-01T00:00:01.000Z</time></trkpt>
			<trkpt lat="44.413436" lon="33.748285"><time>1970-01-01T00:00:01.000Z</time></trkpt>
			<trkpt lat="44.413843" lon="33.748049"><time>1970-01-01T00:00:01.000Z</time></trkpt>
			<trkpt lat="44.415260" lon="33.746976"><time>1970-01-01T00:00:01.000Z</time></trkpt>
			<trkpt lat="44.415410" lon="33.746633"><time>1970-01-01T00:00:01.000Z</time></trkpt>
			<trkpt lat="44.415581" lon="33.746461"><time>1970-01-01T00:00:01.000Z</time></trkpt>
			<trkpt lat="44.415796" lon="33.746118"><time>1970-01-01T00:00:01.000Z</time></trkpt>
			<trkpt lat="44.415989" lon="33.745925"><time>1970-01-01T00:00:01.000Z</time></trkpt>
			<trkpt lat="44.416526" lon="33.745646"><time>1970-01-01T00:00:01.000Z</time></trkpt>
			<trkpt lat="44.417169" lon="33.744895"><time>1970-01-01T00:00:01.000Z</time></trkpt>
			<trkpt lat="44.417405" lon="33.744573"><time>1970-01-01T00:00:01.000Z</time></trkpt>
			<trkpt lat="44.417513" lon="33.744230"><time>1970-01-01T00:00:01.000Z</time></trkpt>
			<trkpt lat="44.417641" lon="33.744208"><time>1970-01-01T00:00:01.000Z</time></trkpt>
			<trkpt lat="44.418049" lon="33.743887"><time>1970-01-01T00:00:01.000Z</time></trkpt>
			<trkpt lat="44.418371" lon="33.743887"><time>1970-01-01T00:00:01.000Z</time></trkpt>
			<trkpt lat="44.418435" lon="33.743822"><time>1970-01-01T00:00:01.000Z</time></trkpt>
			<trkpt lat="44.418714" lon="33.743758"><time>1970-01-01T00:00:01.000Z</time></trkpt>
			<trkpt lat="44.418907" lon="33.743586"><time>1970-01-01T00:00:01.000Z</time></trkpt>
			<trkpt lat="44.419122" lon="33.743522"><time>1970-01-01T00:00:01.000Z</time></trkpt>
			<trkpt lat="44.419530" lon="33.743758"><time>1970-01-01T00:00:01.000Z</time></trkpt>
			<trkpt lat="44.419809" lon="33.743586"><time>1970-01-01T00:00:01.000Z</time></trkpt>
			<trkpt lat="44.420216" lon="33.743522"><time>1970-01-01T00:00:01.000Z</time></trkpt>
			<trkpt lat="44.420388" lon="33.743350"><time>1970-01-01T00:00:01.000Z</time></trkpt>
			<trkpt lat="44.420495" lon="33.743093"><time>1970-01-01T00:00:01.000Z</time></trkpt>
			<trkpt lat="44.420753" lon="33.742663"><time>1970-01-01T00:00:01.000Z</time></trkpt>
			<trkpt lat="44.420989" lon="33.742513"><time>1970-01-01T00:00:01.000Z</time></trkpt>
			<trkpt lat="44.421246" lon="33.742149"><time>1970-01-01T00:00:01.000Z</time></trkpt>
			<trkpt lat="44.421761" lon="33.741805"><time>1970-01-01T00:00:01.000Z</time></trkpt>
			<trkpt lat="44.423263" lon="33.740582"><time>1970-01-01T00:00:01.000Z</time></trkpt>
			<trkpt lat="44.423821" lon="33.740282"><time>1970-01-01T00:00:01.000Z</time></trkpt>
			<trkpt lat="44.424701" lon="33.739659"><time>1970-01-01T00:00:01.000Z</time></trkpt>
			<trkpt lat="44.425130" lon="33.739423"><time>1970-01-01T00:00:01.000Z</time></trkpt>
			<trkpt lat="44.425495" lon="33.739595"><time>1970-01-01T00:00:01.000Z</time></trkpt>
			<trkpt lat="44.425988" lon="33.739273"><time>1970-01-01T00:00:01.000Z</time></trkpt>
			<trkpt lat="44.426224" lon="33.739037"><time>1970-01-01T00:00:01.000Z</time></trkpt>
			<trkpt lat="44.426890" lon="33.738823"><time>1970-01-01T00:00:01.000Z</time></trkpt>
			<trkpt lat="44.427190" lon="33.738587"><time>1970-01-01T00:00:01.000Z</time></trkpt>
			<trkpt lat="44.427641" lon="33.738501"><time>1970-01-01T00:00:01.000Z</time></trkpt>
			<trkpt lat="44.427662" lon="33.738350"><time>1970-01-01T00:00:01.000Z</time></trkpt>
			<trkpt lat="44.427812" lon="33.738243"><time>1970-01-01T00:00:01.000Z</time></trkpt>
			<trkpt lat="44.428091" lon="33.738265"><time>1970-01-01T00:00:01.000Z</time></trkpt>
			<trkpt lat="44.428220" lon="33.738072"><time>1970-01-01T00:00:01.000Z</time></trkpt>
			<trkpt lat="44.428842" lon="33.737900"><time>1970-01-01T00:00:01.000Z</time></trkpt>
			<trkpt lat="44.429186" lon="33.737986"><time>1970-01-01T00:00:01.000Z</time></trkpt>
			<trkpt lat="44.429508" lon="33.737943"><time>1970-01-01T00:00:01.000Z</time></trkpt>
			<trkpt lat="44.430130" lon="33.738157"><time>1970-01-01T00:00:01.000Z</time></trkpt>
			<trkpt lat="44.430430" lon="33.738072"><time>1970-01-01T00:00:01.000Z</time></trkpt>
			<trkpt lat="44.430709" lon="33.738072"><time>1970-01-01T00:00:01.000Z</time></trkpt>
			<trkpt lat="44.430967" lon="33.737943"><time>1970-01-01T00:00:01.000Z</time></trkpt>
			<trkpt lat="44.430967" lon="33.737771"><time>1970-01-01T00:00:01.000Z</time></trkpt>
			<trkpt lat="44.431267" lon="33.737149"><time>1970-01-01T00:00:01.000Z</time></trkpt>
			<trkpt lat="44.431310" lon="33.736848"><time>1970-01-01T00:00:01.000Z</time></trkpt>
			<trkpt lat="44.431417" lon="33.736612"><time>1970-01-01T00:00:01.000Z</time></trkpt>
			<trkpt lat="44.431482" lon="33.736570"><time>1970-01-01T00:00:01.000Z</time></trkpt>
			<trkpt lat="44.431503" lon="33.736484"><time>1970-01-01T00:00:01.000Z</time></trkpt>
			<trkpt lat="44.431761" lon="33.736291"><time>1970-01-01T00:00:01.000Z</time></trkpt>
			<trkpt lat="44.431997" lon="33.735754"><time>1970-01-01T00:00:01.000Z</time></trkpt>
			<trkpt lat="44.431975" lon="33.735518"><time>1970-01-01T00:00:01.000Z</time></trkpt>
			<trkpt lat="44.432018" lon="33.735411"><time>1970-01-01T00:00:01.000Z</time></trkpt>
			<trkpt lat="44.431868" lon="33.735218"><time>1970-01-01T00:00:01.000Z</time></trkpt>
			<trkpt lat="44.431825" lon="33.735089"><time>1970-01-01T00:00:01.000Z</time></trkpt>
			<trkpt lat="44.431889" lon="33.734016"><time>1970-01-01T00:00:01.000Z</time></trkpt>
			<trkpt lat="44.431846" lon="33.733415"><time>1970-01-01T00:00:01.000Z</time></trkpt>
			<trkpt lat="44.431954" lon="33.733050"><time>1970-01-01T00:00:01.000Z</time></trkpt>
			<trkpt lat="44.431868" lon="33.732471"><time>1970-01-01T00:00:01.000Z</time></trkpt>
			<trkpt lat="44.431632" lon="33.731763"><time>1970-01-01T00:00:01.000Z</time></trkpt>
			<trkpt lat="44.431546" lon="33.731248"><time>1970-01-01T00:00:01.000Z</time></trkpt>
			<trkpt lat="44.431546" lon="33.730540"><time>1970-01-01T00:00:01.000Z</time></trkpt>
			<trkpt lat="44.431181" lon="33.727707"><time>1970-01-01T00:00:01.000Z</time></trkpt>
			<trkpt lat="44.431138" lon="33.726592"><time>1970-01-01T00:00:01.000Z</time></trkpt>
			<trkpt lat="44.431160" lon="33.725969"><time>1970-01-01T00:00:01.000Z</time></trkpt>
			<trkpt lat="44.431010" lon="33.724961"><time>1970-01-01T00:00:01.000Z</time></trkpt>
			<trkpt lat="44.430988" lon="33.724360"><time>1970-01-01T00:00:01.000Z</time></trkpt>
			<trkpt lat="44.431074" lon="33.723845"><time>1970-01-01T00:00:01.000Z</time></trkpt>
			<trkpt lat="44.431052" lon="33.723330"><time>1970-01-01T00:00:01.000Z</time></trkpt>
			<trkpt lat="44.431010" lon="33.722965"><time>1970-01-01T00:00:01.000Z</time></trkpt>
			<trkpt lat="44.430752" lon="33.722214"><time>1970-01-01T00:00:01.000Z</time></trkpt>
			<trkpt lat="44.430623" lon="33.721442"><time>1970-01-01T00:00:01.000Z</time></trkpt>
			<trkpt lat="44.430645" lon="33.720948"><time>1970-01-01T00:00:01.000Z</time></trkpt>
			<trkpt lat="44.430516" lon="33.720476"><time>1970-01-01T00:00:01.000Z</time></trkpt>
			<trkpt lat="44.430452" lon="33.719961"><time>1970-01-01T00:00:01.000Z</time></trkpt>
			<trkpt lat="44.430495" lon="33.719039"><time>1970-01-01T00:00:01.000Z</time></trkpt>
			<trkpt lat="44.430666" lon="33.718609"><time>1970-01-01T00:00:01.000Z</time></trkpt>
			<trkpt lat="44.430731" lon="33.717987"><time>1970-01-01T00:00:01.000Z</time></trkpt>
			<trkpt lat="44.430816" lon="33.717708"><time>1970-01-01T00:00:01.000Z</time></trkpt>
			<trkpt lat="44.430795" lon="33.717279"><time>1970-01-01T00:00:01.000Z</time></trkpt>
			<trkpt lat="44.430859" lon="33.716957"><time>1970-01-01T00:00:01.000Z</time></trkpt>
			<trkpt lat="44.430988" lon="33.716786"><time>1970-01-01T00:00:01.000Z</time></trkpt>
			<trkpt lat="44.430881" lon="33.715648"><time>1970-01-01T00:00:01.000Z</time></trkpt>
			<trkpt lat="44.430945" lon="33.715069"><time>1970-01-01T00:00:01.000Z</time></trkpt>
			<trkpt lat="44.430924" lon="33.714640"><time>1970-01-01T00:00:01.000Z</time></trkpt>
			<trkpt lat="44.430816" lon="33.714168"><time>1970-01-01T00:00:01.000Z</time></trkpt>
			<trkpt lat="44.431052" lon="33.713481"><time>1970-01-01T00:00:01.000Z</time></trkpt>
			<trkpt lat="44.430602" lon="33.712709"><time>1970-01-01T00:00:01.000Z</time></trkpt>
			<trkpt lat="44.430645" lon="33.712344"><time>1970-01-01T00:00:01.000Z</time></trkpt>
			<trkpt lat="44.430323" lon="33.710863"><time>1970-01-01T00:00:01.000Z</time></trkpt>
			<trkpt lat="44.429980" lon="33.710413"><time>1970-01-01T00:00:01.000Z</time></trkpt>
			<trkpt lat="44.429400" lon="33.709018"><time>1970-01-01T00:00:01.000Z</time></trkpt>
			<trkpt lat="44.429357" lon="33.708095"><time>1970-01-01T00:00:01.000Z</time></trkpt>
			<trkpt lat="44.429744" lon="33.707409"><time>1970-01-01T00:00:01.000Z</time></trkpt>
			<trkpt lat="44.429422" lon="33.707344"><time>1970-01-01T00:00:01.000Z</time></trkpt>
			<trkpt lat="44.429357" lon="33.707130"><time>1970-01-01T00:00:01.000Z</time></trkpt>
			<trkpt lat="44.429829" lon="33.706271"><time>1970-01-01T00:00:01.000Z</time></trkpt>
			<trkpt lat="44.430988" lon="33.706207"><time>1970-01-01T00:00:01.000Z</time></trkpt>
			<trkpt lat="44.430924" lon="33.706121"><time>1970-01-01T00:00:01.000Z</time></trkpt>
			<trkpt lat="44.431095" lon="33.705864"><time>1970-01-01T00:00:01.000Z</time></trkpt>
			<trkpt lat="44.431095" lon="33.704726"><time>1970-01-01T00:00:01.000Z</time></trkpt>
			<trkpt lat="44.430902" lon="33.704383"><time>1970-01-01T00:00:01.000Z</time></trkpt>
			<trkpt lat="44.430774" lon="33.704233"><time>1970-01-01T00:00:01.000Z</time></trkpt>
			<trkpt lat="44.430516" lon="33.704083"><time>1970-01-01T00:00:01.000Z</time></trkpt>
			<trkpt lat="44.429915" lon="33.702602"><time>1970-01-01T00:00:01.000Z</time></trkpt>
			<trkpt lat="44.429894" lon="33.702259"><time>1970-01-01T00:00:01.000Z</time></trkpt>
			<trkpt lat="44.430023" lon="33.702023"><time>1970-01-01T00:00:01.000Z</time></trkpt>
			<trkpt lat="44.430495" lon="33.701400"><time>1970-01-01T00:00:01.000Z</time></trkpt>
			<trkpt lat="44.430645" lon="33.700950"><time>1970-01-01T00:00:01.000Z</time></trkpt>
			<trkpt lat="44.430838" lon="33.700714"><time>1970-01-01T00:00:01.000Z</time></trkpt>
			<trkpt lat="44.430924" lon="33.700327"><time>1970-01-01T00:00:01.000Z</time></trkpt>
			<trkpt lat="44.430902" lon="33.699813"><time>1970-01-01T00:00:01.000Z</time></trkpt>
			<trkpt lat="44.430859" lon="33.699770"><time>1970-01-01T00:00:01.000Z</time></trkpt>
			<trkpt lat="44.430537" lon="33.699813"><time>1970-01-01T00:00:01.000Z</time></trkpt>
			<trkpt lat="44.430409" lon="33.699684"><time>1970-01-01T00:00:01.000Z</time></trkpt>
			<trkpt lat="44.430366" lon="33.699340"><time>1970-01-01T00:00:01.000Z</time></trkpt>
			<trkpt lat="44.430430" lon="33.698933"><time>1970-01-01T00:00:01.000Z</time></trkpt>
			<trkpt lat="44.430409" lon="33.698504"><time>1970-01-01T00:00:01.000Z</time></trkpt>
			<trkpt lat="44.430259" lon="33.698010"><time>1970-01-01T00:00:01.000Z</time></trkpt>
			<trkpt lat="44.430130" lon="33.697323"><time>1970-01-01T00:00:01.000Z</time></trkpt>
			<trkpt lat="44.429851" lon="33.696894"><time>1970-01-01T00:00:01.000Z</time></trkpt>
			<trkpt lat="44.429765" lon="33.696529"><time>1970-01-01T00:00:01.000Z</time></trkpt>
			<trkpt lat="44.429808" lon="33.696143"><time>1970-01-01T00:00:01.000Z</time></trkpt>
			<trkpt lat="44.429786" lon="33.695886"><time>1970-01-01T00:00:01.000Z</time></trkpt>
			<trkpt lat="44.429679" lon="33.695392"><time>1970-01-01T00:00:01.000Z</time></trkpt>
			<trkpt lat="44.429486" lon="33.695113"><time>1970-01-01T00:00:01.000Z</time></trkpt>
			<trkpt lat="44.428842" lon="33.694942"><time>1970-01-01T00:00:01.000Z</time></trkpt>
			<trkpt lat="44.428628" lon="33.694620"><time>1970-01-01T00:00:01.000Z</time></trkpt>
			<trkpt lat="44.428220" lon="33.693826"><time>1970-01-01T00:00:01.000Z</time></trkpt>
			<trkpt lat="44.428177" lon="33.693633"><time>1970-01-01T00:00:01.000Z</time></trkpt>
			<trkpt lat="44.428284" lon="33.693118"><time>1970-01-01T00:00:01.000Z</time></trkpt>
			<trkpt lat="44.428306" lon="33.692796"><time>1970-01-01T00:00:01.000Z</time></trkpt>
			<trkpt lat="44.428220" lon="33.692538"><time>1970-01-01T00:00:01.000Z</time></trkpt>
			<trkpt lat="44.428091" lon="33.692302"><time>1970-01-01T00:00:01.000Z</time></trkpt>
			<trkpt lat="44.428156" lon="33.691573"><time>1970-01-01T00:00:01.000Z</time></trkpt>
			<trkpt lat="44.427984" lon="33.691144"><time>1970-01-01T00:00:01.000Z</time></trkpt>
			<trkpt lat="44.427769" lon="33.690908"><time>1970-01-01T00:00:01.000Z</time></trkpt>
			<trkpt lat="44.427705" lon="33.690478"><time>1970-01-01T00:00:01.000Z</time></trkpt>
			<trkpt lat="44.427748" lon="33.689963"><time>1970-01-01T00:00:01.000Z</time></trkpt>
			<trkpt lat="44.427576" lon="33.689470"><time>1970-01-01T00:00:01.000Z</time></trkpt>
			<trkpt lat="44.427469" lon="33.689406"><time>1970-01-01T00:00:01.000Z</time></trkpt>
			<trkpt lat="44.427448" lon="33.689255"><time>1970-01-01T00:00:01.000Z</time></trkpt>
			<trkpt lat="44.426976" lon="33.688676"><time>1970-01-01T00:00:01.000Z</time></trkpt>
			<trkpt lat="44.426911" lon="33.688461"><time>1970-01-01T00:00:01.000Z</time></trkpt>
			<trkpt lat="44.426911" lon="33.688075"><time>1970-01-01T00:00:01.000Z</time></trkpt>
			<trkpt lat="44.426847" lon="33.687882"><time>1970-01-01T00:00:01.000Z</time></trkpt>
			<trkpt lat="44.426890" lon="33.687389"><time>1970-01-01T00:00:01.000Z</time></trkpt>
			<trkpt lat="44.426997" lon="33.687110"><time>1970-01-01T00:00:01.000Z</time></trkpt>
			<trkpt lat="44.426976" lon="33.686487"><time>1970-01-01T00:00:01.000Z</time></trkpt>
			<trkpt lat="44.426890" lon="33.686080"><time>1970-01-01T00:00:01.000Z</time></trkpt>
			<trkpt lat="44.426589" lon="33.685371"><time>1970-01-01T00:00:01.000Z</time></trkpt>
			<trkpt lat="44.426503" lon="33.684342"><time>1970-01-01T00:00:01.000Z</time></trkpt>
			<trkpt lat="44.426096" lon="33.683591"><time>1970-01-01T00:00:01.000Z</time></trkpt>
			<trkpt lat="44.426031" lon="33.683226"><time>1970-01-01T00:00:01.000Z</time></trkpt>
			<trkpt lat="44.426203" lon="33.682689"><time>1970-01-01T00:00:01.000Z</time></trkpt>
			<trkpt lat="44.426203" lon="33.681938"><time>1970-01-01T00:00:01.000Z</time></trkpt>
			<trkpt lat="44.426332" lon="33.681595"><time>1970-01-01T00:00:01.000Z</time></trkpt>
			<trkpt lat="44.426310" lon="33.681380"><time>1970-01-01T00:00:01.000Z</time></trkpt>
			<trkpt lat="44.426611" lon="33.681209"><time>1970-01-01T00:00:01.000Z</time></trkpt>
			<trkpt lat="44.426482" lon="33.680629"><time>1970-01-01T00:00:01.000Z</time></trkpt>
			<trkpt lat="44.426353" lon="33.680544"><time>1970-01-01T00:00:01.000Z</time></trkpt>
			<trkpt lat="44.426182" lon="33.680544"><time>1970-01-01T00:00:01.000Z</time></trkpt>
			<trkpt lat="44.425581" lon="33.681101"><time>1970-01-01T00:00:01.000Z</time></trkpt>
			<trkpt lat="44.425044" lon="33.681380"><time>1970-01-01T00:00:01.000Z</time></trkpt>
			<trkpt lat="44.425495" lon="33.680458"><time>1970-01-01T00:00:01.000Z</time></trkpt>
			<trkpt lat="44.425860" lon="33.680286"><time>1970-01-01T00:00:01.000Z</time></trkpt>
			<trkpt lat="44.426053" lon="33.679535"><time>1970-01-01T00:00:01.000Z</time></trkpt>
			<trkpt lat="44.426203" lon="33.679514"><time>1970-01-01T00:00:01.000Z</time></trkpt>
			<trkpt lat="44.426353" lon="33.679406"><time>1970-01-01T00:00:01.000Z</time></trkpt>
			<trkpt lat="44.426439" lon="33.679213"><time>1970-01-01T00:00:01.000Z</time></trkpt>
			<trkpt lat="44.426933" lon="33.678913"><time>1970-01-01T00:00:01.000Z</time></trkpt>
			<trkpt lat="44.427040" lon="33.678763"><time>1970-01-01T00:00:01.000Z</time></trkpt>
			<trkpt lat="44.427233" lon="33.678248"><time>1970-01-01T00:00:01.000Z</time></trkpt>
			<trkpt lat="44.427533" lon="33.678226"><time>1970-01-01T00:00:01.000Z</time></trkpt>
			<trkpt lat="44.427684" lon="33.678162"><time>1970-01-01T00:00:01.000Z</time></trkpt>
			<trkpt lat="44.427791" lon="33.678033"><time>1970-01-01T00:00:01.000Z</time></trkpt>
			<trkpt lat="44.428177" lon="33.677775"><time>1970-01-01T00:00:01.000Z</time></trkpt>
			<trkpt lat="44.428284" lon="33.677668"><time>1970-01-01T00:00:01.000Z</time></trkpt>
			<trkpt lat="44.428370" lon="33.677218"><time>1970-01-01T00:00:01.000Z</time></trkpt>
			<trkpt lat="44.428327" lon="33.676595"><time>1970-01-01T00:00:01.000Z</time></trkpt>
			<trkpt lat="44.428199" lon="33.676080"><time>1970-01-01T00:00:01.000Z</time></trkpt>
			<trkpt lat="44.428306" lon="33.674900"><time>1970-01-01T00:00:01.000Z</time></trkpt>
			<trkpt lat="44.428220" lon="33.674707"><time>1970-01-01T00:00:01.000Z</time></trkpt>
			<trkpt lat="44.427276" lon="33.673720"><time>1970-01-01T00:00:01.000Z</time></trkpt>
			<trkpt lat="44.427061" lon="33.673055"><time>1970-01-01T00:00:01.000Z</time></trkpt>
			<trkpt lat="44.426954" lon="33.672862"><time>1970-01-01T00:00:01.000Z</time></trkpt>
			<trkpt lat="44.426739" lon="33.672239"><time>1970-01-01T00:00:01.000Z</time></trkpt>
			<trkpt lat="44.426675" lon="33.671789"><time>1970-01-01T00:00:01.000Z</time></trkpt>
			<trkpt lat="44.426868" lon="33.671145"><time>1970-01-01T00:00:01.000Z</time></trkpt>
			<trkpt lat="44.426890" lon="33.670845"><time>1970-01-01T00:00:01.000Z</time></trkpt>
			<trkpt lat="44.427040" lon="33.670759"><time>1970-01-01T00:00:01.000Z</time></trkpt>
			<trkpt lat="44.427297" lon="33.670780"><time>1970-01-01T00:00:01.000Z</time></trkpt>
			<trkpt lat="44.427362" lon="33.670694"><time>1970-01-01T00:00:01.000Z</time></trkpt>
			<trkpt lat="44.427469" lon="33.669965"><time>1970-01-01T00:00:01.000Z</time></trkpt>
			<trkpt lat="44.427533" lon="33.669901"><time>1970-01-01T00:00:01.000Z</time></trkpt>
			<trkpt lat="44.427576" lon="33.669214"><time>1970-01-01T00:00:01.000Z</time></trkpt>
			<trkpt lat="44.427512" lon="33.669128"><time>1970-01-01T00:00:01.000Z</time></trkpt>
			<trkpt lat="44.427490" lon="33.668635"><time>1970-01-01T00:00:01.000Z</time></trkpt>
			<trkpt lat="44.427426" lon="33.668549"><time>1970-01-01T00:00:01.000Z</time></trkpt>
			<trkpt lat="44.427319" lon="33.667926"><time>1970-01-01T00:00:01.000Z</time></trkpt>
			<trkpt lat="44.427233" lon="33.667841"><time>1970-01-01T00:00:01.000Z</time></trkpt>
			<trkpt lat="44.426997" lon="33.667411"><time>1970-01-01T00:00:01.000Z</time></trkpt>
			<trkpt lat="44.426997" lon="33.667304"><time>1970-01-01T00:00:01.000Z</time></trkpt>
			<trkpt lat="44.426847" lon="33.666875"><time>1970-01-01T00:00:01.000Z</time></trkpt>
			<trkpt lat="44.426654" lon="33.666725"><time>1970-01-01T00:00:01.000Z</time></trkpt>
			<trkpt lat="44.426697" lon="33.666339"><time>1970-01-01T00:00:01.000Z</time></trkpt>
			<trkpt lat="44.426654" lon="33.666017"><time>1970-01-01T00:00:01.000Z</time></trkpt>
			<trkpt lat="44.426804" lon="33.665394"><time>1970-01-01T00:00:01.000Z</time></trkpt>
			<trkpt lat="44.426718" lon="33.664944"><time>1970-01-01T00:00:01.000Z</time></trkpt>
			<trkpt lat="44.427169" lon="33.663506"><time>1970-01-01T00:00:01.000Z</time></trkpt>
			<trkpt lat="44.427169" lon="33.663163"><time>1970-01-01T00:00:01.000Z</time></trkpt>
			<trkpt lat="44.427083" lon="33.662626"><time>1970-01-01T00:00:01.000Z</time></trkpt>
			<trkpt lat="44.427104" lon="33.662369"><time>1970-01-01T00:00:01.000Z</time></trkpt>
			<trkpt lat="44.427169" lon="33.662154"><time>1970-01-01T00:00:01.000Z</time></trkpt>
			<trkpt lat="44.427147" lon="33.661747"><time>1970-01-01T00:00:01.000Z</time></trkpt>
			<trkpt lat="44.426890" lon="33.661382"><time>1970-01-01T00:00:01.000Z</time></trkpt>
			<trkpt lat="44.426997" lon="33.661232"><time>1970-01-01T00:00:01.000Z</time></trkpt>
			<trkpt lat="44.427040" lon="33.661060"><time>1970-01-01T00:00:01.000Z</time></trkpt>
			<trkpt lat="44.427233" lon="33.660888"><time>1970-01-01T00:00:01.000Z</time></trkpt>
			<trkpt lat="44.427297" lon="33.660287"><time>1970-01-01T00:00:01.000Z</time></trkpt>
			<trkpt lat="44.427212" lon="33.659772"><time>1970-01-01T00:00:01.000Z</time></trkpt>
			<trkpt lat="44.427212" lon="33.658764"><time>1970-01-01T00:00:01.000Z</time></trkpt>
			<trkpt lat="44.427276" lon="33.658657"><time>1970-01-01T00:00:01.000Z</time></trkpt>
			<trkpt lat="44.427276" lon="33.658313"><time>1970-01-01T00:00:01.000Z</time></trkpt>
			<trkpt lat="44.427276" lon="33.659086"><time>1970-01-01T00:00:01.000Z</time></trkpt>
			<trkpt lat="44.427405" lon="33.659279"><time>1970-01-01T00:00:01.000Z</time></trkpt>
			<trkpt lat="44.427598" lon="33.659429"><time>1970-01-01T00:00:01.000Z</time></trkpt>
			<trkpt lat="44.428392" lon="33.659622"><time>1970-01-01T00:00:01.000Z</time></trkpt>
			<trkpt lat="44.428735" lon="33.659923"><time>1970-01-01T00:00:01.000Z</time></trkpt>
			<trkpt lat="44.429400" lon="33.661060"><time>1970-01-01T00:00:01.000Z</time></trkpt>
			<trkpt lat="44.429786" lon="33.661875"><time>1970-01-01T00:00:01.000Z</time></trkpt>
			<trkpt lat="44.430430" lon="33.662626"><time>1970-01-01T00:00:01.000Z</time></trkpt>
			<trkpt lat="44.430859" lon="33.663442"><time>1970-01-01T00:00:01.000Z</time></trkpt>
			<trkpt lat="44.431289" lon="33.663635"><time>1970-01-01T00:00:01.000Z</time></trkpt>
			<trkpt lat="44.431460" lon="33.663828"><time>1970-01-01T00:00:01.000Z</time></trkpt>
			<trkpt lat="44.431675" lon="33.663828"><time>1970-01-01T00:00:01.000Z</time></trkpt>
			<trkpt lat="44.432125" lon="33.664472"><time>1970-01-01T00:00:01.000Z</time></trkpt>
			<trkpt lat="44.433756" lon="33.664021"><time>1970-01-01T00:00:01.000Z</time></trkpt>
			<trkpt lat="44.434164" lon="33.664214"><time>1970-01-01T00:00:01.000Z</time></trkpt>
			<trkpt lat="44.434808" lon="33.664450"><time>1970-01-01T00:00:01.000Z</time></trkpt>
			<trkpt lat="44.436310" lon="33.663656"><time>1970-01-01T00:00:01.000Z</time></trkpt>
			<trkpt lat="44.437254" lon="33.663056"><time>1970-01-01T00:00:01.000Z</time></trkpt>
			<trkpt lat="44.438155" lon="33.662305"><time>1970-01-01T00:00:01.000Z</time></trkpt>
			<trkpt lat="44.438455" lon="33.662176"><time>1970-01-01T00:00:01.000Z</time></trkpt>
			<trkpt lat="44.439292" lon="33.661317"><time>1970-01-01T00:00:01.000Z</time></trkpt>
			<trkpt lat="44.439464" lon="33.660824"><time>1970-01-01T00:00:01.000Z</time></trkpt>
			<trkpt lat="44.439528" lon="33.660373"><time>1970-01-01T00:00:01.000Z</time></trkpt>
			<trkpt lat="44.439378" lon="33.659966"><time>1970-01-01T00:00:01.000Z</time></trkpt>
			<trkpt lat="44.439400" lon="33.659730"><time>1970-01-01T00:00:01.000Z</time></trkpt>
			<trkpt lat="44.439700" lon="33.659322"><time>1970-01-01T00:00:01.000Z</time></trkpt>
			<trkpt lat="44.439721" lon="33.659043"><time>1970-01-01T00:00:01.000Z</time></trkpt>
			<trkpt lat="44.439850" lon="33.658743"><time>1970-01-01T00:00:01.000Z</time></trkpt>
			<trkpt lat="44.439893" lon="33.658506"><time>1970-01-01T00:00:01.000Z</time></trkpt>
			<trkpt lat="44.440151" lon="33.658185"><time>1970-01-01T00:00:01.000Z</time></trkpt>
			<trkpt lat="44.440344" lon="33.657734"><time>1970-01-01T00:00:01.000Z</time></trkpt>
			<trkpt lat="44.440494" lon="33.656532"><time>1970-01-01T00:00:01.000Z</time></trkpt>
			<trkpt lat="44.440580" lon="33.656189"><time>1970-01-01T00:00:01.000Z</time></trkpt>
			<trkpt lat="44.440837" lon="33.655910"><time>1970-01-01T00:00:01.000Z</time></trkpt>
			<trkpt lat="44.441459" lon="33.655674"><time>1970-01-01T00:00:01.000Z</time></trkpt>
			<trkpt lat="44.441910" lon="33.655610"><time>1970-01-01T00:00:01.000Z</time></trkpt>
			<trkpt lat="44.442125" lon="33.655460"><time>1970-01-01T00:00:01.000Z</time></trkpt>
			<trkpt lat="44.442189" lon="33.655374"><time>1970-01-01T00:00:01.000Z</time></trkpt>
			<trkpt lat="44.442210" lon="33.655202"><time>1970-01-01T00:00:01.000Z</time></trkpt>
			<trkpt lat="44.441932" lon="33.654708"><time>1970-01-01T00:00:01.000Z</time></trkpt>
			<trkpt lat="44.441910" lon="33.654430"><time>1970-01-01T00:00:01.000Z</time></trkpt>
			<trkpt lat="44.441974" lon="33.654279"><time>1970-01-01T00:00:01.000Z</time></trkpt>
			<trkpt lat="44.442146" lon="33.654086"><time>1970-01-01T00:00:01.000Z</time></trkpt>
			<trkpt lat="44.442339" lon="33.653507"><time>1970-01-01T00:00:01.000Z</time></trkpt>
			<trkpt lat="44.442489" lon="33.653378"><time>1970-01-01T00:00:01.000Z</time></trkpt>
			<trkpt lat="44.442704" lon="33.652949"><time>1970-01-01T00:00:01.000Z</time></trkpt>
			<trkpt lat="44.443069" lon="33.652713"><time>1970-01-01T00:00:01.000Z</time></trkpt>
			<trkpt lat="44.443198" lon="33.652520"><time>1970-01-01T00:00:01.000Z</time></trkpt>
			<trkpt lat="44.443562" lon="33.652498"><time>1970-01-01T00:00:01.000Z</time></trkpt>
			<trkpt lat="44.444120" lon="33.652134"><time>1970-01-01T00:00:01.000Z</time></trkpt>
			<trkpt lat="44.444335" lon="33.651855"><time>1970-01-01T00:00:01.000Z</time></trkpt>
			<trkpt lat="44.444528" lon="33.651726"><time>1970-01-01T00:00:01.000Z</time></trkpt>
			<trkpt lat="44.444571" lon="33.651640"><time>1970-01-01T00:00:01.000Z</time></trkpt>
			<trkpt lat="44.444957" lon="33.651275"><time>1970-01-01T00:00:01.000Z</time></trkpt>
			<trkpt lat="44.445236" lon="33.651082"><time>1970-01-01T00:00:01.000Z</time></trkpt>
			<trkpt lat="44.445429" lon="33.651039"><time>1970-01-01T00:00:01.000Z</time></trkpt>
			<trkpt lat="44.445772" lon="33.651061"><time>1970-01-01T00:00:01.000Z</time></trkpt>
			<trkpt lat="44.446159" lon="33.650910"><time>1970-01-01T00:00:01.000Z</time></trkpt>
			<trkpt lat="44.446631" lon="33.650460"><time>1970-01-01T00:00:01.000Z</time></trkpt>
			<trkpt lat="44.446738" lon="33.650310"><time>1970-01-01T00:00:01.000Z</time></trkpt>
			<trkpt lat="44.446781" lon="33.650117"><time>1970-01-01T00:00:01.000Z</time></trkpt>
			<trkpt lat="44.446953" lon="33.649923"><time>1970-01-01T00:00:01.000Z</time></trkpt>
			<trkpt lat="44.447124" lon="33.649323"><time>1970-01-01T00:00:01.000Z</time></trkpt>
			<trkpt lat="44.447511" lon="33.649129"><time>1970-01-01T00:00:01.000Z</time></trkpt>
			<trkpt lat="44.447789" lon="33.649129"><time>1970-01-01T00:00:01.000Z</time></trkpt>
			<trkpt lat="44.447983" lon="33.649044"><time>1970-01-01T00:00:01.000Z</time></trkpt>
			<trkpt lat="44.448540" lon="33.648915"><time>1970-01-01T00:00:01.000Z</time></trkpt>
			<trkpt lat="44.448734" lon="33.648786"><time>1970-01-01T00:00:01.000Z</time></trkpt>
			<trkpt lat="44.448755" lon="33.648700"><time>1970-01-01T00:00:01.000Z</time></trkpt>
			<trkpt lat="44.448905" lon="33.648572"><time>1970-01-01T00:00:01.000Z</time></trkpt>
			<trkpt lat="44.449120" lon="33.648550"><time>1970-01-01T00:00:01.000Z</time></trkpt>
			<trkpt lat="44.449291" lon="33.648421"><time>1970-01-01T00:00:01.000Z</time></trkpt>
			<trkpt lat="44.449485" lon="33.648100"><time>1970-01-01T00:00:01.000Z</time></trkpt>
			<trkpt lat="44.449506" lon="33.647928"><time>1970-01-01T00:00:01.000Z</time></trkpt>
			<trkpt lat="44.449656" lon="33.647821"><time>1970-01-01T00:00:01.000Z</time></trkpt>
			<trkpt lat="44.449828" lon="33.647863"><time>1970-01-01T00:00:01.000Z</time></trkpt>
			<trkpt lat="44.450493" lon="33.647627"><time>1970-01-01T00:00:01.000Z</time></trkpt>
			<trkpt lat="44.450600" lon="33.647670"><time>1970-01-01T00:00:01.000Z</time></trkpt>
			<trkpt lat="44.451137" lon="33.647542"><time>1970-01-01T00:00:01.000Z</time></trkpt>
			<trkpt lat="44.451223" lon="33.647413"><time>1970-01-01T00:00:01.000Z</time></trkpt>
			<trkpt lat="44.451394" lon="33.647413"><time>1970-01-01T00:00:01.000Z</time></trkpt>
			<trkpt lat="44.451523" lon="33.647542"><time>1970-01-01T00:00:01.000Z</time></trkpt>
			<trkpt lat="44.451630" lon="33.647499"><time>1970-01-01T00:00:01.000Z</time></trkpt>
			<trkpt lat="44.451781" lon="33.647649"><time>1970-01-01T00:00:01.000Z</time></trkpt>
			<trkpt lat="44.452060" lon="33.647778"><time>1970-01-01T00:00:01.000Z</time></trkpt>
			<trkpt lat="44.452210" lon="33.647735"><time>1970-01-01T00:00:01.000Z</time></trkpt>
			<trkpt lat="44.452575" lon="33.647906"><time>1970-01-01T00:00:01.000Z</time></trkpt>
			<trkpt lat="44.452853" lon="33.647799"><time>1970-01-01T00:00:01.000Z</time></trkpt>
			<trkpt lat="44.453283" lon="33.647778"><time>1970-01-01T00:00:01.000Z</time></trkpt>
			<trkpt lat="44.453411" lon="33.647585"><time>1970-01-01T00:00:01.000Z</time></trkpt>
			<trkpt lat="44.453540" lon="33.647563"><time>1970-01-01T00:00:01.000Z</time></trkpt>
			<trkpt lat="44.453798" lon="33.647713"><time>1970-01-01T00:00:01.000Z</time></trkpt>
			<trkpt lat="44.454119" lon="33.647585"><time>1970-01-01T00:00:01.000Z</time></trkpt>
			<trkpt lat="44.454420" lon="33.647155"><time>1970-01-01T00:00:01.000Z</time></trkpt>
			<trkpt lat="44.454806" lon="33.647198"><time>1970-01-01T00:00:01.000Z</time></trkpt>
			<trkpt lat="44.454978" lon="33.647177"><time>1970-01-01T00:00:01.000Z</time></trkpt>
			<trkpt lat="44.455364" lon="33.647005"><time>1970-01-01T00:00:01.000Z</time></trkpt>
			<trkpt lat="44.455686" lon="33.646576"><time>1970-01-01T00:00:01.000Z</time></trkpt>
			<trkpt lat="44.456094" lon="33.646147"><time>1970-01-01T00:00:01.000Z</time></trkpt>
			<trkpt lat="44.456437" lon="33.646190"><time>1970-01-01T00:00:01.000Z</time></trkpt>
			<trkpt lat="44.456780" lon="33.646426"><time>1970-01-01T00:00:01.000Z</time></trkpt>
			<trkpt lat="44.456909" lon="33.646383"><time>1970-01-01T00:00:01.000Z</time></trkpt>
			<trkpt lat="44.457231" lon="33.646576"><time>1970-01-01T00:00:01.000Z</time></trkpt>
			<trkpt lat="44.457703" lon="33.646018"><time>1970-01-01T00:00:01.000Z</time></trkpt>
			<trkpt lat="44.457853" lon="33.645203"><time>1970-01-01T00:00:01.000Z</time></trkpt>
			<trkpt lat="44.457960" lon="33.645203"><time>1970-01-01T00:00:01.000Z</time></trkpt>
			<trkpt lat="44.458068" lon="33.645353"><time>1970-01-01T00:00:01.000Z</time></trkpt>
			<trkpt lat="44.458218" lon="33.645417"><time>1970-01-01T00:00:01.000Z</time></trkpt>
			<trkpt lat="44.458690" lon="33.645331"><time>1970-01-01T00:00:01.000Z</time></trkpt>
			<trkpt lat="44.459012" lon="33.645138"><time>1970-01-01T00:00:01.000Z</time></trkpt>
			<trkpt lat="44.459226" lon="33.645074"><time>1970-01-01T00:00:01.000Z</time></trkpt>
			<trkpt lat="44.459269" lon="33.645117"><time>1970-01-01T00:00:01.000Z</time></trkpt>
			<trkpt lat="44.459398" lon="33.645095"><time>1970-01-01T00:00:01.000Z</time></trkpt>
			<trkpt lat="44.459570" lon="33.645160"><time>1970-01-01T00:00:01.000Z</time></trkpt>
			<trkpt lat="44.459613" lon="33.645289"><time>1970-01-01T00:00:01.000Z</time></trkpt>
			<trkpt lat="44.459720" lon="33.645353"><time>1970-01-01T00:00:01.000Z</time></trkpt>
			<trkpt lat="44.459827" lon="33.645353"><time>1970-01-01T00:00:01.000Z</time></trkpt>
			<trkpt lat="44.459849" lon="33.645289"><time>1970-01-01T00:00:01.000Z</time></trkpt>
			<trkpt lat="44.460085" lon="33.645160"><time>1970-01-01T00:00:01.000Z</time></trkpt>
			<trkpt lat="44.460171" lon="33.644945"><time>1970-01-01T00:00:01.000Z</time></trkpt>
			<trkpt lat="44.460492" lon="33.645010"><time>1970-01-01T00:00:01.000Z</time></trkpt>
			<trkpt lat="44.460686" lon="33.644752"><time>1970-01-01T00:00:01.000Z</time></trkpt>
			<trkpt lat="44.460986" lon="33.644666"><time>1970-01-01T00:00:01.000Z</time></trkpt>
			<trkpt lat="44.461201" lon="33.644688"><time>1970-01-01T00:00:01.000Z</time></trkpt>
			<trkpt lat="44.461458" lon="33.645053"><time>1970-01-01T00:00:01.000Z</time></trkpt>
			<trkpt lat="44.461630" lon="33.645138"><time>1970-01-01T00:00:01.000Z</time></trkpt>
			<trkpt lat="44.462016" lon="33.645181"><time>1970-01-01T00:00:01.000Z</time></trkpt>
			<trkpt lat="44.462295" lon="33.645503"><time>1970-01-01T00:00:01.000Z</time></trkpt>
			<trkpt lat="44.462445" lon="33.645868"><time>1970-01-01T00:00:01.000Z</time></trkpt>
			<trkpt lat="44.462552" lon="33.645954"><time>1970-01-01T00:00:01.000Z</time></trkpt>
			<trkpt lat="44.462617" lon="33.646104"><time>1970-01-01T00:00:01.000Z</time></trkpt>
			<trkpt lat="44.462724" lon="33.646104"><time>1970-01-01T00:00:01.000Z</time></trkpt>
			<trkpt lat="44.462810" lon="33.646018"><time>1970-01-01T00:00:01.000Z</time></trkpt>
			<trkpt lat="44.463132" lon="33.646061"><time>1970-01-01T00:00:01.000Z</time></trkpt>
			<trkpt lat="44.463175" lon="33.646147"><time>1970-01-01T00:00:01.000Z</time></trkpt>
			<trkpt lat="44.463411" lon="33.645911"><time>1970-01-01T00:00:01.000Z</time></trkpt>
			<trkpt lat="44.463539" lon="33.645889"><time>1970-01-01T00:00:01.000Z</time></trkpt>
			<trkpt lat="44.463818" lon="33.645417"><time>1970-01-01T00:00:01.000Z</time></trkpt>
			<trkpt lat="44.464011" lon="33.645396"><time>1970-01-01T00:00:01.000Z</time></trkpt>
			<trkpt lat="44.464205" lon="33.645589"><time>1970-01-01T00:00:01.000Z</time></trkpt>
			<trkpt lat="44.464290" lon="33.645568"><time>1970-01-01T00:00:01.000Z</time></trkpt>
			<trkpt lat="44.464484" lon="33.645610"><time>1970-01-01T00:00:01.000Z</time></trkpt>
			<trkpt lat="44.465299" lon="33.645310"><time>1970-01-01T00:00:01.000Z</time></trkpt>
			<trkpt lat="44.465750" lon="33.645289"><time>1970-01-01T00:00:01.000Z</time></trkpt>
			<trkpt lat="44.465986" lon="33.645374"><time>1970-01-01T00:00:01.000Z</time></trkpt>
			<trkpt lat="44.466157" lon="33.645503"><time>1970-01-01T00:00:01.000Z</time></trkpt>
			<trkpt lat="44.466243" lon="33.645675"><time>1970-01-01T00:00:01.000Z</time></trkpt>
			<trkpt lat="44.466329" lon="33.645761"><time>1970-01-01T00:00:01.000Z</time></trkpt>
			<trkpt lat="44.466737" lon="33.645739"><time>1970-01-01T00:00:01.000Z</time></trkpt>
			<trkpt lat="44.466994" lon="33.645610"><time>1970-01-01T00:00:01.000Z</time></trkpt>
			<trkpt lat="44.467273" lon="33.645653"><time>1970-01-01T00:00:01.000Z</time></trkpt>
			<trkpt lat="44.467466" lon="33.645782"><time>1970-01-01T00:00:01.000Z</time></trkpt>
			<trkpt lat="44.467616" lon="33.645975"><time>1970-01-01T00:00:01.000Z</time></trkpt>
			<trkpt lat="44.467852" lon="33.646082"><time>1970-01-01T00:00:01.000Z</time></trkpt>
			<trkpt lat="44.468282" lon="33.646404"><time>1970-01-01T00:00:01.000Z</time></trkpt>
			<trkpt lat="44.468410" lon="33.646361"><time>1970-01-01T00:00:01.000Z</time></trkpt>
			<trkpt lat="44.468539" lon="33.646233"><time>1970-01-01T00:00:01.000Z</time></trkpt>
			<trkpt lat="44.468646" lon="33.646190"><time>1970-01-01T00:00:01.000Z</time></trkpt>
			<trkpt lat="44.468732" lon="33.646040"><time>1970-01-01T00:00:01.000Z</time></trkpt>
			<trkpt lat="44.469140" lon="33.645589"><time>1970-01-01T00:00:01.000Z</time></trkpt>
			<trkpt lat="44.469247" lon="33.645525"><time>1970-01-01T00:00:01.000Z</time></trkpt>
			<trkpt lat="44.469376" lon="33.645289"><time>1970-01-01T00:00:01.000Z</time></trkpt>
			<trkpt lat="44.469655" lon="33.645181"><time>1970-01-01T00:00:01.000Z</time></trkpt>
			<trkpt lat="44.469741" lon="33.645224"><time>1970-01-01T00:00:01.000Z</time></trkpt>
			<trkpt lat="44.469826" lon="33.645203"><time>1970-01-01T00:00:01.000Z</time></trkpt>
			<trkpt lat="44.470170" lon="33.644709"><time>1970-01-01T00:00:01.000Z</time></trkpt>
			<trkpt lat="44.470406" lon="33.644259"><time>1970-01-01T00:00:01.000Z</time></trkpt>
			<trkpt lat="44.470620" lon="33.644237"><time>1970-01-01T00:00:01.000Z</time></trkpt>
			<trkpt lat="44.470728" lon="33.644065"><time>1970-01-01T00:00:01.000Z</time></trkpt>
			<trkpt lat="44.470856" lon="33.643615"><time>1970-01-01T00:00:01.000Z</time></trkpt>
			<trkpt lat="44.470964" lon="33.643486"><time>1970-01-01T00:00:01.000Z</time></trkpt>
			<trkpt lat="44.471114" lon="33.643164"><time>1970-01-01T00:00:01.000Z</time></trkpt>
			<trkpt lat="44.471221" lon="33.643057"><time>1970-01-01T00:00:01.000Z</time></trkpt>
			<trkpt lat="44.471371" lon="33.643014"><time>1970-01-01T00:00:01.000Z</time></trkpt>
			<trkpt lat="44.471650" lon="33.642649"><time>1970-01-01T00:00:01.000Z</time></trkpt>
			<trkpt lat="44.471886" lon="33.642585"><time>1970-01-01T00:00:01.000Z</time></trkpt>
			<trkpt lat="44.472144" lon="33.642606"><time>1970-01-01T00:00:01.000Z</time></trkpt>
			<trkpt lat="44.472401" lon="33.642199"><time>1970-01-01T00:00:01.000Z</time></trkpt>
			<trkpt lat="44.472444" lon="33.642048"><time>1970-01-01T00:00:01.000Z</time></trkpt>
			<trkpt lat="44.472530" lon="33.641963"><time>1970-01-01T00:00:01.000Z</time></trkpt>
			<trkpt lat="44.472466" lon="33.641984"><time>1970-01-01T00:00:01.000Z</time></trkpt>
			<trkpt lat="44.472809" lon="33.641877"><time>1970-01-01T00:00:01.000Z</time></trkpt>
			<trkpt lat="44.472959" lon="33.641877"><time>1970-01-01T00:00:01.000Z</time></trkpt>
			<trkpt lat="44.473131" lon="33.641791"><time>1970-01-01T00:00:01.000Z</time></trkpt>
			<trkpt lat="44.473346" lon="33.641791"><time>1970-01-01T00:00:01.000Z</time></trkpt>
			<trkpt lat="44.473496" lon="33.641727"><time>1970-01-01T00:00:01.000Z</time></trkpt>
			<trkpt lat="44.473796" lon="33.641812"><time>1970-01-01T00:00:01.000Z</time></trkpt>
			<trkpt lat="44.473903" lon="33.641770"><time>1970-01-01T00:00:01.000Z</time></trkpt>
			<trkpt lat="44.474011" lon="33.641834"><time>1970-01-01T00:00:01.000Z</time></trkpt>
			<trkpt lat="44.474182" lon="33.641662"><time>1970-01-01T00:00:01.000Z</time></trkpt>
			<trkpt lat="44.474333" lon="33.641619"><time>1970-01-01T00:00:01.000Z</time></trkpt>
			<trkpt lat="44.474397" lon="33.641491"><time>1970-01-01T00:00:01.000Z</time></trkpt>
			<trkpt lat="44.474569" lon="33.641426"><time>1970-01-01T00:00:01.000Z</time></trkpt>
			<trkpt lat="44.474976" lon="33.641469"><time>1970-01-01T00:00:01.000Z</time></trkpt>
			<trkpt lat="44.475363" lon="33.641340"><time>1970-01-01T00:00:01.000Z</time></trkpt>
			<trkpt lat="44.475706" lon="33.640997"><time>1970-01-01T00:00:01.000Z</time></trkpt>
			<trkpt lat="44.475534" lon="33.640568"><time>1970-01-01T00:00:01.000Z</time></trkpt>
			<trkpt lat="44.475749" lon="33.641040"><time>1970-01-01T00:00:01.000Z</time></trkpt>
			<trkpt lat="44.476328" lon="33.641405"><time>1970-01-01T00:00:01.000Z</time></trkpt>
			<trkpt lat="44.477165" lon="33.641619"><time>1970-01-01T00:00:01.000Z</time></trkpt>
			<trkpt lat="44.477530" lon="33.641941"><time>1970-01-01T00:00:01.000Z</time></trkpt>
			<trkpt lat="44.477830" lon="33.642327"><time>1970-01-01T00:00:01.000Z</time></trkpt>
			<trkpt lat="44.477937" lon="33.642521"><time>1970-01-01T00:00:01.000Z</time></trkpt>
			<trkpt lat="44.478088" lon="33.642649"><time>1970-01-01T00:00:01.000Z</time></trkpt>
			<trkpt lat="44.478431" lon="33.642671"><time>1970-01-01T00:00:01.000Z</time></trkpt>
			<trkpt lat="44.478710" lon="33.642649"><time>1970-01-01T00:00:01.000Z</time></trkpt>
			<trkpt lat="44.478860" lon="33.642456"><time>1970-01-01T00:00:01.000Z</time></trkpt>
			<trkpt lat="44.479053" lon="33.642370"><time>1970-01-01T00:00:01.000Z</time></trkpt>
			<trkpt lat="44.479225" lon="33.642370"><time>1970-01-01T00:00:01.000Z</time></trkpt>
			<trkpt lat="44.479397" lon="33.642220"><time>1970-01-01T00:00:01.000Z</time></trkpt>
			<trkpt lat="44.479783" lon="33.642070"><time>1970-01-01T00:00:01.000Z</time></trkpt>
			<trkpt lat="44.480083" lon="33.641598"><time>1970-01-01T00:00:01.000Z</time></trkpt>
			<trkpt lat="44.480319" lon="33.641555"><time>1970-01-01T00:00:01.000Z</time></trkpt>
			<trkpt lat="44.480491" lon="33.641641"><time>1970-01-01T00:00:01.000Z</time></trkpt>
			<trkpt lat="44.480942" lon="33.641705"><time>1970-01-01T00:00:01.000Z</time></trkpt>
			<trkpt lat="44.481156" lon="33.641641"><time>1970-01-01T00:00:01.000Z</time></trkpt>
			<trkpt lat="44.481306" lon="33.641405"><time>1970-01-01T00:00:01.000Z</time></trkpt>
			<trkpt lat="44.481499" lon="33.641319"><time>1970-01-01T00:00:01.000Z</time></trkpt>
			<trkpt lat="44.482229" lon="33.641233"><time>1970-01-01T00:00:01.000Z</time></trkpt>
			<trkpt lat="44.482401" lon="33.641233"><time>1970-01-01T00:00:01.000Z</time></trkpt>
			<trkpt lat="44.482551" lon="33.641362"><time>1970-01-01T00:00:01.000Z</time></trkpt>
			<trkpt lat="44.482744" lon="33.641426"><time>1970-01-01T00:00:01.000Z</time></trkpt>
			<trkpt lat="44.483023" lon="33.640740"><time>1970-01-01T00:00:01.000Z</time></trkpt>
			<trkpt lat="44.482980" lon="33.640568"><time>1970-01-01T00:00:01.000Z</time></trkpt>
			<trkpt lat="44.483087" lon="33.639989"><time>1970-01-01T00:00:01.000Z</time></trkpt>
			<trkpt lat="44.483645" lon="33.639860"><time>1970-01-01T00:00:01.000Z</time></trkpt>
			<trkpt lat="44.483924" lon="33.639752"><time>1970-01-01T00:00:01.000Z</time></trkpt>
			<trkpt lat="44.484182" lon="33.639602"><time>1970-01-01T00:00:01.000Z</time></trkpt>
			<trkpt lat="44.484353" lon="33.639581"><time>1970-01-01T00:00:01.000Z</time></trkpt>
			<trkpt lat="44.484525" lon="33.639624"><time>1970-01-01T00:00:01.000Z</time></trkpt>
			<trkpt lat="44.484740" lon="33.639924"><time>1970-01-01T00:00:01.000Z</time></trkpt>
			<trkpt lat="44.484847" lon="33.639946"><time>1970-01-01T00:00:01.000Z</time></trkpt>
			<trkpt lat="44.484976" lon="33.639860"><time>1970-01-01T00:00:01.000Z</time></trkpt>
			<trkpt lat="44.485147" lon="33.639667"><time>1970-01-01T00:00:01.000Z</time></trkpt>
			<trkpt lat="44.485255" lon="33.639774"><time>1970-01-01T00:00:01.000Z</time></trkpt>
			<trkpt lat="44.485598" lon="33.639795"><time>1970-01-01T00:00:01.000Z</time></trkpt>
			<trkpt lat="44.485834" lon="33.639581"><time>1970-01-01T00:00:01.000Z</time></trkpt>
			<trkpt lat="44.485941" lon="33.639431"><time>1970-01-01T00:00:01.000Z</time></trkpt>
			<trkpt lat="44.486091" lon="33.639323"><time>1970-01-01T00:00:01.000Z</time></trkpt>
			<trkpt lat="44.486091" lon="33.638894"><time>1970-01-01T00:00:01.000Z</time></trkpt>
			<trkpt lat="44.486006" lon="33.638572"><time>1970-01-01T00:00:01.000Z</time></trkpt>
			<trkpt lat="44.485963" lon="33.637971"><time>1970-01-01T00:00:01.000Z</time></trkpt>
			<trkpt lat="44.486156" lon="33.637714"><time>1970-01-01T00:00:01.000Z</time></trkpt>
			<trkpt lat="44.486091" lon="33.637499"><time>1970-01-01T00:00:01.000Z</time></trkpt>
			<trkpt lat="44.486134" lon="33.637328"><time>1970-01-01T00:00:01.000Z</time></trkpt>
			<trkpt lat="44.486263" lon="33.637135"><time>1970-01-01T00:00:01.000Z</time></trkpt>
			<trkpt lat="44.486306" lon="33.636942"><time>1970-01-01T00:00:01.000Z</time></trkpt>
			<trkpt lat="44.486306" lon="33.636705"><time>1970-01-01T00:00:01.000Z</time></trkpt>
			<trkpt lat="44.486413" lon="33.636362"><time>1970-01-01T00:00:01.000Z</time></trkpt>
			<trkpt lat="44.486628" lon="33.636191"><time>1970-01-01T00:00:01.000Z</time></trkpt>
			<trkpt lat="44.486692" lon="33.636062"><time>1970-01-01T00:00:01.000Z</time></trkpt>
			<trkpt lat="44.486735" lon="33.635246"><time>1970-01-01T00:00:01.000Z</time></trkpt>
			<trkpt lat="44.486864" lon="33.634688"><time>1970-01-01T00:00:01.000Z</time></trkpt>
			<trkpt lat="44.486842" lon="33.634560"><time>1970-01-01T00:00:01.000Z</time></trkpt>
			<trkpt lat="44.486885" lon="33.634367"><time>1970-01-01T00:00:01.000Z</time></trkpt>
			<trkpt lat="44.486842" lon="33.634023"><time>1970-01-01T00:00:01.000Z</time></trkpt>
			<trkpt lat="44.486864" lon="33.633809"><time>1970-01-01T00:00:01.000Z</time></trkpt>
			<trkpt lat="44.486907" lon="33.633594"><time>1970-01-01T00:00:01.000Z</time></trkpt>
			<trkpt lat="44.487036" lon="33.633337"><time>1970-01-01T00:00:01.000Z</time></trkpt>
			<trkpt lat="44.487121" lon="33.632564"><time>1970-01-01T00:00:01.000Z</time></trkpt>
			<trkpt lat="44.487229" lon="33.632028"><time>1970-01-01T00:00:01.000Z</time></trkpt>
			<trkpt lat="44.487250" lon="33.630890"><time>1970-01-01T00:00:01.000Z</time></trkpt>
			<trkpt lat="44.487379" lon="33.630397"><time>1970-01-01T00:00:01.000Z</time></trkpt>
			<trkpt lat="44.487529" lon="33.630139"><time>1970-01-01T00:00:01.000Z</time></trkpt>
			<trkpt lat="44.487915" lon="33.629646"><time>1970-01-01T00:00:01.000Z</time></trkpt>
			<trkpt lat="44.488023" lon="33.629431"><time>1970-01-01T00:00:01.000Z</time></trkpt>
			<trkpt lat="44.488108" lon="33.629088"><time>1970-01-01T00:00:01.000Z</time></trkpt>
			<trkpt lat="44.488237" lon="33.628809"><time>1970-01-01T00:00:01.000Z</time></trkpt>
			<trkpt lat="44.488387" lon="33.628594"><time>1970-01-01T00:00:01.000Z</time></trkpt>
			<trkpt lat="44.488495" lon="33.628144"><time>1970-01-01T00:00:01.000Z</time></trkpt>
			<trkpt lat="44.488538" lon="33.627586"><time>1970-01-01T00:00:01.000Z</time></trkpt>
			<trkpt lat="44.488623" lon="33.627157"><time>1970-01-01T00:00:01.000Z</time></trkpt>
			<trkpt lat="44.488924" lon="33.626878"><time>1970-01-01T00:00:01.000Z</time></trkpt>
			<trkpt lat="44.489160" lon="33.626384"><time>1970-01-01T00:00:01.000Z</time></trkpt>
			<trkpt lat="44.489160" lon="33.626256"><time>1970-01-01T00:00:01.000Z</time></trkpt>
			<trkpt lat="44.489653" lon="33.625676"><time>1970-01-01T00:00:01.000Z</time></trkpt>
			<trkpt lat="44.490211" lon="33.624861"><time>1970-01-01T00:00:01.000Z</time></trkpt>
			<trkpt lat="44.490683" lon="33.624625"><time>1970-01-01T00:00:01.000Z</time></trkpt>
			<trkpt lat="44.490898" lon="33.624432"><time>1970-01-01T00:00:01.000Z</time></trkpt>
			<trkpt lat="44.491070" lon="33.624067"><time>1970-01-01T00:00:01.000Z</time></trkpt>
			<trkpt lat="44.491198" lon="33.623552"><time>1970-01-01T00:00:01.000Z</time></trkpt>
			<trkpt lat="44.491327" lon="33.623273"><time>1970-01-01T00:00:01.000Z</time></trkpt>
			<trkpt lat="44.491649" lon="33.623101"><time>1970-01-01T00:00:01.000Z</time></trkpt>
			<trkpt lat="44.491992" lon="33.622994"><time>1970-01-01T00:00:01.000Z</time></trkpt>
			<trkpt lat="44.492078" lon="33.622930"><time>1970-01-01T00:00:01.000Z</time></trkpt>
			<trkpt lat="44.492100" lon="33.622844"><time>1970-01-01T00:00:01.000Z</time></trkpt>
			<trkpt lat="44.492228" lon="33.622844"><time>1970-01-01T00:00:01.000Z</time></trkpt>
			<trkpt lat="44.492293" lon="33.622779"><time>1970-01-01T00:00:01.000Z</time></trkpt>
			<trkpt lat="44.492271" lon="33.622715"><time>1970-01-01T00:00:01.000Z</time></trkpt>
			<trkpt lat="44.492421" lon="33.622200"><time>1970-01-01T00:00:01.000Z</time></trkpt>
			<trkpt lat="44.492379" lon="33.622114"><time>1970-01-01T00:00:01.000Z</time></trkpt>
			<trkpt lat="44.492379" lon="33.621749"><time>1970-01-01T00:00:01.000Z</time></trkpt>
			<trkpt lat="44.492421" lon="33.621513"><time>1970-01-01T00:00:01.000Z</time></trkpt>
			<trkpt lat="44.492336" lon="33.621235"><time>1970-01-01T00:00:01.000Z</time></trkpt>
			<trkpt lat="44.492121" lon="33.620977"><time>1970-01-01T00:00:01.000Z</time></trkpt>
			<trkpt lat="44.492185" lon="33.620784"><time>1970-01-01T00:00:01.000Z</time></trkpt>
			<trkpt lat="44.492293" lon="33.620612"><time>1970-01-01T00:00:01.000Z</time></trkpt>
			<trkpt lat="44.492379" lon="33.620269"><time>1970-01-01T00:00:01.000Z</time></trkpt>
			<trkpt lat="44.492357" lon="33.620054"><time>1970-01-01T00:00:01.000Z</time></trkpt>
			<trkpt lat="44.492443" lon="33.619926"><time>1970-01-01T00:00:01.000Z</time></trkpt>
			<trkpt lat="44.492529" lon="33.619926"><time>1970-01-01T00:00:01.000Z</time></trkpt>
			<trkpt lat="44.492572" lon="33.619818"><time>1970-01-01T00:00:01.000Z</time></trkpt>
			<trkpt lat="44.492572" lon="33.619454"><time>1970-01-01T00:00:01.000Z</time></trkpt>
			<trkpt lat="44.492700" lon="33.618810"><time>1970-01-01T00:00:01.000Z</time></trkpt>
			<trkpt lat="44.492786" lon="33.618660"><time>1970-01-01T00:00:01.000Z</time></trkpt>
			<trkpt lat="44.492936" lon="33.618531"><time>1970-01-01T00:00:01.000Z</time></trkpt>
			<trkpt lat="44.492936" lon="33.618466"><time>1970-01-01T00:00:01.000Z</time></trkpt>
			<trkpt lat="44.493065" lon="33.618381"><time>1970-01-01T00:00:01.000Z</time></trkpt>
			<trkpt lat="44.493151" lon="33.618166"><time>1970-01-01T00:00:01.000Z</time></trkpt>
			<trkpt lat="44.493194" lon="33.617565"><time>1970-01-01T00:00:01.000Z</time></trkpt>
			<trkpt lat="44.493430" lon="33.616385"><time>1970-01-01T00:00:01.000Z</time></trkpt>
			<trkpt lat="44.493408" lon="33.615784"><time>1970-01-01T00:00:01.000Z</time></trkpt>
			<trkpt lat="44.493258" lon="33.615398"><time>1970-01-01T00:00:01.000Z</time></trkpt>
			<trkpt lat="44.492743" lon="33.615183"><time>1970-01-01T00:00:01.000Z</time></trkpt>
			<trkpt lat="44.492507" lon="33.614862"><time>1970-01-01T00:00:01.000Z</time></trkpt>
			<trkpt lat="44.492400" lon="33.614647"><time>1970-01-01T00:00:01.000Z</time></trkpt>
			<trkpt lat="44.492336" lon="33.614089"><time>1970-01-01T00:00:01.000Z</time></trkpt>
			<trkpt lat="44.492379" lon="33.612609"><time>1970-01-01T00:00:01.000Z</time></trkpt>
			<trkpt lat="44.492443" lon="33.612480"><time>1970-01-01T00:00:01.000Z</time></trkpt>
			<trkpt lat="44.492464" lon="33.612222"><time>1970-01-01T00:00:01.000Z</time></trkpt>
			<trkpt lat="44.492379" lon="33.611836"><time>1970-01-01T00:00:01.000Z</time></trkpt>
			<trkpt lat="44.492336" lon="33.611343"><time>1970-01-01T00:00:01.000Z</time></trkpt>
			<trkpt lat="44.492250" lon="33.611171"><time>1970-01-01T00:00:01.000Z</time></trkpt>
			<trkpt lat="44.492314" lon="33.610785"><time>1970-01-01T00:00:01.000Z</time></trkpt>
			<trkpt lat="44.492228" lon="33.610634"><time>1970-01-01T00:00:01.000Z</time></trkpt>
			<trkpt lat="44.492185" lon="33.610377"><time>1970-01-01T00:00:01.000Z</time></trkpt>
			<trkpt lat="44.492700" lon="33.609004"><time>1970-01-01T00:00:01.000Z</time></trkpt>
			<trkpt lat="44.492722" lon="33.608403"><time>1970-01-01T00:00:01.000Z</time></trkpt>
			<trkpt lat="44.492593" lon="33.607652"><time>1970-01-01T00:00:01.000Z</time></trkpt>
			<trkpt lat="44.492615" lon="33.607201"><time>1970-01-01T00:00:01.000Z</time></trkpt>
			<trkpt lat="44.492743" lon="33.606901"><time>1970-01-01T00:00:01.000Z</time></trkpt>
			<trkpt lat="44.492829" lon="33.606836"><time>1970-01-01T00:00:01.000Z</time></trkpt>
			<trkpt lat="44.492958" lon="33.606815"><time>1970-01-01T00:00:01.000Z</time></trkpt>
			<trkpt lat="44.493301" lon="33.606600"><time>1970-01-01T00:00:01.000Z</time></trkpt>
			<trkpt lat="44.493666" lon="33.606729"><time>1970-01-01T00:00:01.000Z</time></trkpt>
			<trkpt lat="44.493988" lon="33.606643"><time>1970-01-01T00:00:01.000Z</time></trkpt>
			<trkpt lat="44.494202" lon="33.606085"><time>1970-01-01T00:00:01.000Z</time></trkpt>
			<trkpt lat="44.494159" lon="33.605871"><time>1970-01-01T00:00:01.000Z</time></trkpt>
			<trkpt lat="44.494181" lon="33.605270"><time>1970-01-01T00:00:01.000Z</time></trkpt>
			<trkpt lat="44.494331" lon="33.604540"><time>1970-01-01T00:00:01.000Z</time></trkpt>
			<trkpt lat="44.494438" lon="33.604412"><time>1970-01-01T00:00:01.000Z</time></trkpt>
			<trkpt lat="44.494503" lon="33.604197"><time>1970-01-01T00:00:01.000Z</time></trkpt>
			<trkpt lat="44.495082" lon="33.603038"><time>1970-01-01T00:00:01.000Z</time></trkpt>
			<trkpt lat="44.495361" lon="33.602674"><time>1970-01-01T00:00:01.000Z</time></trkpt>
			<trkpt lat="44.495490" lon="33.601708"><time>1970-01-01T00:00:01.000Z</time></trkpt>
			<trkpt lat="44.495576" lon="33.601493"><time>1970-01-01T00:00:01.000Z</time></trkpt>
			<trkpt lat="44.495726" lon="33.600871"><time>1970-01-01T00:00:01.000Z</time></trkpt>
			<trkpt lat="44.495919" lon="33.600528"><time>1970-01-01T00:00:01.000Z</time></trkpt>
			<trkpt lat="44.496541" lon="33.600163"><time>1970-01-01T00:00:01.000Z</time></trkpt>
			<trkpt lat="44.496520" lon="33.599777"><time>1970-01-01T00:00:01.000Z</time></trkpt>
			<trkpt lat="44.496434" lon="33.599777"><time>1970-01-01T00:00:01.000Z</time></trkpt>
			<trkpt lat="44.496520" lon="33.599455"><time>1970-01-01T00:00:01.000Z</time></trkpt>
			<trkpt lat="44.496477" lon="33.599305"><time>1970-01-01T00:00:01.000Z</time></trkpt>
			<trkpt lat="44.496799" lon="33.599004"><time>1970-01-01T00:00:01.000Z</time></trkpt>
			<trkpt lat="44.496863" lon="33.599026"><time>1970-01-01T00:00:01.000Z</time></trkpt>
		</trkseg>
	</trk>
</gpx>